<?xml version="1.0" encoding="UTF-8" standalone="no" ?>
<gpx xmlns="http://www.topografix.com/GPX/1/1" xmlns:xsi="http://www.w3.org/2001/XMLSchema-instance" xsi:schemaLocation="http://www.topografix.com/GPX/1/1 http://www.topografix.com/GPX/1/1/gpx.xsd" version="1.1" creator="VisuGPX - https://www.visugpx.com">
  <metadata>
    <name>Cordorcet montagne de Sigala </name>
    <desc><![CDATA[Faite le 29/09/22]]></desc>
  </metadata>
  <trk>
    <name><![CDATA[Nyons Randonnée]]></name>
    <trkseg>
      <trkpt lat="44.40707" lon="5.19911">
        <ele>354</ele>
        <time>2022-09-29T06:44:21Z</time>
      </trkpt>
      <trkpt lat="44.40707" lon="5.19911">
        <ele>354</ele>
        <time>2022-09-29T06:44:22Z</time>
      </trkpt>
      <trkpt lat="44.40707" lon="5.19912">
        <ele>354</ele>
        <time>2022-09-29T06:44:23Z</time>
      </trkpt>
      <trkpt lat="44.40707" lon="5.19912">
        <ele>354</ele>
        <time>2022-09-29T06:44:24Z</time>
      </trkpt>
      <trkpt lat="44.40706" lon="5.19913">
        <ele>354</ele>
        <time>2022-09-29T06:44:25Z</time>
      </trkpt>
      <trkpt lat="44.40706" lon="5.19914">
        <ele>354</ele>
        <time>2022-09-29T06:44:26Z</time>
      </trkpt>
      <trkpt lat="44.40706" lon="5.19914">
        <ele>354</ele>
        <time>2022-09-29T06:44:27Z</time>
      </trkpt>
      <trkpt lat="44.40705" lon="5.19915">
        <ele>354</ele>
        <time>2022-09-29T06:44:28Z</time>
      </trkpt>
      <trkpt lat="44.40705" lon="5.19916">
        <ele>354</ele>
        <time>2022-09-29T06:44:29Z</time>
      </trkpt>
      <trkpt lat="44.40705" lon="5.19917">
        <ele>354</ele>
        <time>2022-09-29T06:44:30Z</time>
      </trkpt>
      <trkpt lat="44.40705" lon="5.19918">
        <ele>354</ele>
        <time>2022-09-29T06:44:31Z</time>
      </trkpt>
      <trkpt lat="44.40705" lon="5.19919">
        <ele>354</ele>
        <time>2022-09-29T06:44:32Z</time>
      </trkpt>
      <trkpt lat="44.40705" lon="5.1992">
        <ele>354</ele>
        <time>2022-09-29T06:44:33Z</time>
      </trkpt>
      <trkpt lat="44.40705" lon="5.19921">
        <ele>354</ele>
        <time>2022-09-29T06:44:34Z</time>
      </trkpt>
      <trkpt lat="44.40705" lon="5.19921">
        <ele>354</ele>
        <time>2022-09-29T06:44:35Z</time>
      </trkpt>
      <trkpt lat="44.40705" lon="5.19922">
        <ele>354</ele>
        <time>2022-09-29T06:44:36Z</time>
      </trkpt>
      <trkpt lat="44.40706" lon="5.19922">
        <ele>354</ele>
        <time>2022-09-29T06:44:37Z</time>
      </trkpt>
      <trkpt lat="44.40706" lon="5.19923">
        <ele>354</ele>
        <time>2022-09-29T06:44:38Z</time>
      </trkpt>
      <trkpt lat="44.40707" lon="5.19924">
        <ele>354</ele>
        <time>2022-09-29T06:44:39Z</time>
      </trkpt>
      <trkpt lat="44.40707" lon="5.19924">
        <ele>354</ele>
        <time>2022-09-29T06:44:40Z</time>
      </trkpt>
      <trkpt lat="44.40708" lon="5.19925">
        <ele>354</ele>
        <time>2022-09-29T06:44:41Z</time>
      </trkpt>
      <trkpt lat="44.40709" lon="5.19926">
        <ele>354</ele>
        <time>2022-09-29T06:44:42Z</time>
      </trkpt>
      <trkpt lat="44.4071" lon="5.19926">
        <ele>354</ele>
        <time>2022-09-29T06:44:43Z</time>
      </trkpt>
      <trkpt lat="44.40711" lon="5.19927">
        <ele>354</ele>
        <time>2022-09-29T06:44:44Z</time>
      </trkpt>
      <trkpt lat="44.40711" lon="5.19928">
        <ele>354</ele>
        <time>2022-09-29T06:44:45Z</time>
      </trkpt>
      <trkpt lat="44.40712" lon="5.19929">
        <ele>354</ele>
        <time>2022-09-29T06:44:46Z</time>
      </trkpt>
      <trkpt lat="44.40713" lon="5.1993">
        <ele>354</ele>
        <time>2022-09-29T06:44:47Z</time>
      </trkpt>
      <trkpt lat="44.40714" lon="5.1993">
        <ele>354</ele>
        <time>2022-09-29T06:44:48Z</time>
      </trkpt>
      <trkpt lat="44.40714" lon="5.19931">
        <ele>354</ele>
        <time>2022-09-29T06:44:49Z</time>
      </trkpt>
      <trkpt lat="44.40715" lon="5.19932">
        <ele>354</ele>
        <time>2022-09-29T06:44:50Z</time>
      </trkpt>
      <trkpt lat="44.40716" lon="5.19932">
        <ele>354</ele>
        <time>2022-09-29T06:44:51Z</time>
      </trkpt>
      <trkpt lat="44.40717" lon="5.19932">
        <ele>354</ele>
        <time>2022-09-29T06:44:52Z</time>
      </trkpt>
      <trkpt lat="44.40717" lon="5.19933">
        <ele>354</ele>
        <time>2022-09-29T06:44:53Z</time>
      </trkpt>
      <trkpt lat="44.40718" lon="5.19933">
        <ele>354</ele>
        <time>2022-09-29T06:44:54Z</time>
      </trkpt>
      <trkpt lat="44.40719" lon="5.19934">
        <ele>354</ele>
        <time>2022-09-29T06:44:55Z</time>
      </trkpt>
      <trkpt lat="44.4072" lon="5.19934">
        <ele>354</ele>
        <time>2022-09-29T06:44:56Z</time>
      </trkpt>
      <trkpt lat="44.40721" lon="5.19935">
        <ele>354</ele>
        <time>2022-09-29T06:44:57Z</time>
      </trkpt>
      <trkpt lat="44.40722" lon="5.19935">
        <ele>354</ele>
        <time>2022-09-29T06:44:58Z</time>
      </trkpt>
      <trkpt lat="44.40723" lon="5.19936">
        <ele>354</ele>
        <time>2022-09-29T06:44:59Z</time>
      </trkpt>
      <trkpt lat="44.40724" lon="5.19936">
        <ele>354</ele>
        <time>2022-09-29T06:45:00Z</time>
      </trkpt>
      <trkpt lat="44.40725" lon="5.19937">
        <ele>354</ele>
        <time>2022-09-29T06:45:01Z</time>
      </trkpt>
      <trkpt lat="44.40726" lon="5.19937">
        <ele>354</ele>
        <time>2022-09-29T06:45:02Z</time>
      </trkpt>
      <trkpt lat="44.40727" lon="5.19938">
        <ele>354</ele>
        <time>2022-09-29T06:45:03Z</time>
      </trkpt>
      <trkpt lat="44.40727" lon="5.19938">
        <ele>354</ele>
        <time>2022-09-29T06:45:04Z</time>
      </trkpt>
      <trkpt lat="44.40728" lon="5.19939">
        <ele>354</ele>
        <time>2022-09-29T06:45:05Z</time>
      </trkpt>
      <trkpt lat="44.40729" lon="5.19939">
        <ele>354</ele>
        <time>2022-09-29T06:45:06Z</time>
      </trkpt>
      <trkpt lat="44.4073" lon="5.1994">
        <ele>354</ele>
        <time>2022-09-29T06:45:07Z</time>
      </trkpt>
      <trkpt lat="44.40731" lon="5.1994">
        <ele>354</ele>
        <time>2022-09-29T06:45:08Z</time>
      </trkpt>
      <trkpt lat="44.40732" lon="5.19941">
        <ele>354</ele>
        <time>2022-09-29T06:45:09Z</time>
      </trkpt>
      <trkpt lat="44.40733" lon="5.19942">
        <ele>354</ele>
        <time>2022-09-29T06:45:10Z</time>
      </trkpt>
      <trkpt lat="44.40734" lon="5.19943">
        <ele>354</ele>
        <time>2022-09-29T06:45:11Z</time>
      </trkpt>
      <trkpt lat="44.40734" lon="5.19943">
        <ele>354</ele>
        <time>2022-09-29T06:45:12Z</time>
      </trkpt>
      <trkpt lat="44.40735" lon="5.19944">
        <ele>354</ele>
        <time>2022-09-29T06:45:13Z</time>
      </trkpt>
      <trkpt lat="44.40736" lon="5.19945">
        <ele>354</ele>
        <time>2022-09-29T06:45:14Z</time>
      </trkpt>
      <trkpt lat="44.40736" lon="5.19946">
        <ele>354</ele>
        <time>2022-09-29T06:45:15Z</time>
      </trkpt>
      <trkpt lat="44.40737" lon="5.19947">
        <ele>354</ele>
        <time>2022-09-29T06:45:16Z</time>
      </trkpt>
      <trkpt lat="44.40738" lon="5.19948">
        <ele>354</ele>
        <time>2022-09-29T06:45:17Z</time>
      </trkpt>
      <trkpt lat="44.40738" lon="5.19949">
        <ele>354</ele>
        <time>2022-09-29T06:45:18Z</time>
      </trkpt>
      <trkpt lat="44.40739" lon="5.1995">
        <ele>354</ele>
        <time>2022-09-29T06:45:19Z</time>
      </trkpt>
      <trkpt lat="44.4074" lon="5.19951">
        <ele>354</ele>
        <time>2022-09-29T06:45:20Z</time>
      </trkpt>
      <trkpt lat="44.40741" lon="5.19952">
        <ele>354</ele>
        <time>2022-09-29T06:45:21Z</time>
      </trkpt>
      <trkpt lat="44.40741" lon="5.19953">
        <ele>354</ele>
        <time>2022-09-29T06:45:22Z</time>
      </trkpt>
      <trkpt lat="44.40742" lon="5.19954">
        <ele>354</ele>
        <time>2022-09-29T06:45:23Z</time>
      </trkpt>
      <trkpt lat="44.40743" lon="5.19955">
        <ele>354</ele>
        <time>2022-09-29T06:45:24Z</time>
      </trkpt>
      <trkpt lat="44.40743" lon="5.19956">
        <ele>354</ele>
        <time>2022-09-29T06:45:25Z</time>
      </trkpt>
      <trkpt lat="44.40744" lon="5.19957">
        <ele>354</ele>
        <time>2022-09-29T06:45:26Z</time>
      </trkpt>
      <trkpt lat="44.40744" lon="5.19958">
        <ele>354</ele>
        <time>2022-09-29T06:45:27Z</time>
      </trkpt>
      <trkpt lat="44.40745" lon="5.1996">
        <ele>354</ele>
        <time>2022-09-29T06:45:28Z</time>
      </trkpt>
      <trkpt lat="44.40745" lon="5.19961">
        <ele>354</ele>
        <time>2022-09-29T06:45:29Z</time>
      </trkpt>
      <trkpt lat="44.40745" lon="5.19962">
        <ele>354</ele>
        <time>2022-09-29T06:45:30Z</time>
      </trkpt>
      <trkpt lat="44.40745" lon="5.19963">
        <ele>354</ele>
        <time>2022-09-29T06:45:31Z</time>
      </trkpt>
      <trkpt lat="44.40746" lon="5.19964">
        <ele>354</ele>
        <time>2022-09-29T06:45:32Z</time>
      </trkpt>
      <trkpt lat="44.40746" lon="5.19965">
        <ele>354</ele>
        <time>2022-09-29T06:45:33Z</time>
      </trkpt>
      <trkpt lat="44.40746" lon="5.19966">
        <ele>354</ele>
        <time>2022-09-29T06:45:34Z</time>
      </trkpt>
      <trkpt lat="44.40746" lon="5.19967">
        <ele>354</ele>
        <time>2022-09-29T06:45:35Z</time>
      </trkpt>
      <trkpt lat="44.40746" lon="5.19969">
        <ele>354</ele>
        <time>2022-09-29T06:45:36Z</time>
      </trkpt>
      <trkpt lat="44.40746" lon="5.1997">
        <ele>354</ele>
        <time>2022-09-29T06:45:37Z</time>
      </trkpt>
      <trkpt lat="44.40746" lon="5.19971">
        <ele>354</ele>
        <time>2022-09-29T06:45:38Z</time>
      </trkpt>
      <trkpt lat="44.40747" lon="5.19973">
        <ele>354</ele>
        <time>2022-09-29T06:45:39Z</time>
      </trkpt>
      <trkpt lat="44.40747" lon="5.19974">
        <ele>354</ele>
        <time>2022-09-29T06:45:40Z</time>
      </trkpt>
      <trkpt lat="44.40747" lon="5.19975">
        <ele>354</ele>
        <time>2022-09-29T06:45:41Z</time>
      </trkpt>
      <trkpt lat="44.40747" lon="5.19977">
        <ele>354</ele>
        <time>2022-09-29T06:45:42Z</time>
      </trkpt>
      <trkpt lat="44.40747" lon="5.19978">
        <ele>354</ele>
        <time>2022-09-29T06:45:43Z</time>
      </trkpt>
      <trkpt lat="44.40747" lon="5.1998">
        <ele>354</ele>
        <time>2022-09-29T06:45:44Z</time>
      </trkpt>
      <trkpt lat="44.40747" lon="5.19981">
        <ele>354</ele>
        <time>2022-09-29T06:45:45Z</time>
      </trkpt>
      <trkpt lat="44.40747" lon="5.19982">
        <ele>354</ele>
        <time>2022-09-29T06:45:46Z</time>
      </trkpt>
      <trkpt lat="44.40747" lon="5.19984">
        <ele>354</ele>
        <time>2022-09-29T06:45:47Z</time>
      </trkpt>
      <trkpt lat="44.40747" lon="5.19985">
        <ele>354</ele>
        <time>2022-09-29T06:45:48Z</time>
      </trkpt>
      <trkpt lat="44.40747" lon="5.19986">
        <ele>354</ele>
        <time>2022-09-29T06:45:49Z</time>
      </trkpt>
      <trkpt lat="44.40747" lon="5.19988">
        <ele>354</ele>
        <time>2022-09-29T06:45:50Z</time>
      </trkpt>
      <trkpt lat="44.40747" lon="5.19989">
        <ele>354</ele>
        <time>2022-09-29T06:45:51Z</time>
      </trkpt>
      <trkpt lat="44.40747" lon="5.19991">
        <ele>354</ele>
        <time>2022-09-29T06:45:52Z</time>
      </trkpt>
      <trkpt lat="44.40747" lon="5.19993">
        <ele>354</ele>
        <time>2022-09-29T06:45:53Z</time>
      </trkpt>
      <trkpt lat="44.40746" lon="5.19994">
        <ele>354</ele>
        <time>2022-09-29T06:45:54Z</time>
      </trkpt>
      <trkpt lat="44.40746" lon="5.19996">
        <ele>354</ele>
        <time>2022-09-29T06:45:55Z</time>
      </trkpt>
      <trkpt lat="44.40746" lon="5.19997">
        <ele>354</ele>
        <time>2022-09-29T06:45:56Z</time>
      </trkpt>
      <trkpt lat="44.40746" lon="5.19999">
        <ele>354</ele>
        <time>2022-09-29T06:45:57Z</time>
      </trkpt>
      <trkpt lat="44.40746" lon="5.2">
        <ele>354</ele>
        <time>2022-09-29T06:45:58Z</time>
      </trkpt>
      <trkpt lat="44.40745" lon="5.20002">
        <ele>354</ele>
        <time>2022-09-29T06:45:59Z</time>
      </trkpt>
      <trkpt lat="44.40745" lon="5.20003">
        <ele>354</ele>
        <time>2022-09-29T06:46:00Z</time>
      </trkpt>
      <trkpt lat="44.40744" lon="5.20004">
        <ele>354</ele>
        <time>2022-09-29T06:46:01Z</time>
      </trkpt>
      <trkpt lat="44.40744" lon="5.20006">
        <ele>354</ele>
        <time>2022-09-29T06:46:02Z</time>
      </trkpt>
      <trkpt lat="44.40744" lon="5.20007">
        <ele>354</ele>
        <time>2022-09-29T06:46:03Z</time>
      </trkpt>
      <trkpt lat="44.40744" lon="5.20008">
        <ele>354</ele>
        <time>2022-09-29T06:46:04Z</time>
      </trkpt>
      <trkpt lat="44.40743" lon="5.2001">
        <ele>354</ele>
        <time>2022-09-29T06:46:05Z</time>
      </trkpt>
      <trkpt lat="44.40743" lon="5.20011">
        <ele>354</ele>
        <time>2022-09-29T06:46:06Z</time>
      </trkpt>
      <trkpt lat="44.40743" lon="5.20013">
        <ele>354</ele>
        <time>2022-09-29T06:46:07Z</time>
      </trkpt>
      <trkpt lat="44.40743" lon="5.20014">
        <ele>354</ele>
        <time>2022-09-29T06:46:08Z</time>
      </trkpt>
      <trkpt lat="44.40742" lon="5.20016">
        <ele>354</ele>
        <time>2022-09-29T06:46:09Z</time>
      </trkpt>
      <trkpt lat="44.40742" lon="5.20017">
        <ele>353</ele>
        <time>2022-09-29T06:46:10Z</time>
      </trkpt>
      <trkpt lat="44.40742" lon="5.20019">
        <ele>353</ele>
        <time>2022-09-29T06:46:11Z</time>
      </trkpt>
      <trkpt lat="44.40741" lon="5.2002">
        <ele>353</ele>
        <time>2022-09-29T06:46:12Z</time>
      </trkpt>
      <trkpt lat="44.40741" lon="5.20022">
        <ele>353</ele>
        <time>2022-09-29T06:46:13Z</time>
      </trkpt>
      <trkpt lat="44.40741" lon="5.20023">
        <ele>353</ele>
        <time>2022-09-29T06:46:14Z</time>
      </trkpt>
      <trkpt lat="44.4074" lon="5.20025">
        <ele>353</ele>
        <time>2022-09-29T06:46:15Z</time>
      </trkpt>
      <trkpt lat="44.4074" lon="5.20026">
        <ele>353</ele>
        <time>2022-09-29T06:46:16Z</time>
      </trkpt>
      <trkpt lat="44.4074" lon="5.20028">
        <ele>353</ele>
        <time>2022-09-29T06:46:17Z</time>
      </trkpt>
      <trkpt lat="44.4074" lon="5.20029">
        <ele>353</ele>
        <time>2022-09-29T06:46:18Z</time>
      </trkpt>
      <trkpt lat="44.4074" lon="5.20031">
        <ele>353</ele>
        <time>2022-09-29T06:46:19Z</time>
      </trkpt>
      <trkpt lat="44.40739" lon="5.20032">
        <ele>353</ele>
        <time>2022-09-29T06:46:20Z</time>
      </trkpt>
      <trkpt lat="44.40739" lon="5.20034">
        <ele>353</ele>
        <time>2022-09-29T06:46:21Z</time>
      </trkpt>
      <trkpt lat="44.40739" lon="5.20036">
        <ele>353</ele>
        <time>2022-09-29T06:46:22Z</time>
      </trkpt>
      <trkpt lat="44.40738" lon="5.20037">
        <ele>353</ele>
        <time>2022-09-29T06:46:23Z</time>
      </trkpt>
      <trkpt lat="44.40738" lon="5.20039">
        <ele>353</ele>
        <time>2022-09-29T06:46:24Z</time>
      </trkpt>
      <trkpt lat="44.40738" lon="5.2004">
        <ele>352</ele>
        <time>2022-09-29T06:46:25Z</time>
      </trkpt>
      <trkpt lat="44.40738" lon="5.20041">
        <ele>352</ele>
        <time>2022-09-29T06:46:26Z</time>
      </trkpt>
      <trkpt lat="44.40738" lon="5.20043">
        <ele>352</ele>
        <time>2022-09-29T06:46:27Z</time>
      </trkpt>
      <trkpt lat="44.40738" lon="5.20044">
        <ele>352</ele>
        <time>2022-09-29T06:46:28Z</time>
      </trkpt>
      <trkpt lat="44.40737" lon="5.20045">
        <ele>352</ele>
        <time>2022-09-29T06:46:29Z</time>
      </trkpt>
      <trkpt lat="44.40737" lon="5.20047">
        <ele>352</ele>
        <time>2022-09-29T06:46:30Z</time>
      </trkpt>
      <trkpt lat="44.40737" lon="5.20048">
        <ele>352</ele>
        <time>2022-09-29T06:46:31Z</time>
      </trkpt>
      <trkpt lat="44.40736" lon="5.20049">
        <ele>352</ele>
        <time>2022-09-29T06:46:32Z</time>
      </trkpt>
      <trkpt lat="44.40736" lon="5.20051">
        <ele>352</ele>
        <time>2022-09-29T06:46:33Z</time>
      </trkpt>
      <trkpt lat="44.40735" lon="5.20052">
        <ele>352</ele>
        <time>2022-09-29T06:46:34Z</time>
      </trkpt>
      <trkpt lat="44.40735" lon="5.20053">
        <ele>352</ele>
        <time>2022-09-29T06:46:35Z</time>
      </trkpt>
      <trkpt lat="44.40734" lon="5.20055">
        <ele>352</ele>
        <time>2022-09-29T06:46:36Z</time>
      </trkpt>
      <trkpt lat="44.40734" lon="5.20056">
        <ele>352</ele>
        <time>2022-09-29T06:46:37Z</time>
      </trkpt>
      <trkpt lat="44.40734" lon="5.20057">
        <ele>352</ele>
        <time>2022-09-29T06:46:38Z</time>
      </trkpt>
      <trkpt lat="44.40734" lon="5.20059">
        <ele>352</ele>
        <time>2022-09-29T06:46:39Z</time>
      </trkpt>
      <trkpt lat="44.40734" lon="5.2006">
        <ele>352</ele>
        <time>2022-09-29T06:46:40Z</time>
      </trkpt>
      <trkpt lat="44.40733" lon="5.20062">
        <ele>352</ele>
        <time>2022-09-29T06:46:41Z</time>
      </trkpt>
      <trkpt lat="44.40734" lon="5.20063">
        <ele>352</ele>
        <time>2022-09-29T06:46:42Z</time>
      </trkpt>
      <trkpt lat="44.40734" lon="5.20064">
        <ele>352</ele>
        <time>2022-09-29T06:46:43Z</time>
      </trkpt>
      <trkpt lat="44.40734" lon="5.20065">
        <ele>352</ele>
        <time>2022-09-29T06:46:44Z</time>
      </trkpt>
      <trkpt lat="44.40735" lon="5.20066">
        <ele>352</ele>
        <time>2022-09-29T06:46:45Z</time>
      </trkpt>
      <trkpt lat="44.40735" lon="5.20067">
        <ele>352</ele>
        <time>2022-09-29T06:46:46Z</time>
      </trkpt>
      <trkpt lat="44.40736" lon="5.20067">
        <ele>352</ele>
        <time>2022-09-29T06:46:47Z</time>
      </trkpt>
      <trkpt lat="44.40737" lon="5.20068">
        <ele>352</ele>
        <time>2022-09-29T06:46:48Z</time>
      </trkpt>
      <trkpt lat="44.40738" lon="5.20068">
        <ele>352</ele>
        <time>2022-09-29T06:46:49Z</time>
      </trkpt>
      <trkpt lat="44.40739" lon="5.20069">
        <ele>352</ele>
        <time>2022-09-29T06:46:50Z</time>
      </trkpt>
      <trkpt lat="44.40739" lon="5.20069">
        <ele>352</ele>
        <time>2022-09-29T06:46:51Z</time>
      </trkpt>
      <trkpt lat="44.4074" lon="5.2007">
        <ele>352</ele>
        <time>2022-09-29T06:46:52Z</time>
      </trkpt>
      <trkpt lat="44.40741" lon="5.2007">
        <ele>352</ele>
        <time>2022-09-29T06:47:14Z</time>
      </trkpt>
      <trkpt lat="44.40741" lon="5.20071">
        <ele>352</ele>
        <time>2022-09-29T06:47:15Z</time>
      </trkpt>
      <trkpt lat="44.40742" lon="5.20071">
        <ele>352</ele>
        <time>2022-09-29T06:47:16Z</time>
      </trkpt>
      <trkpt lat="44.40741" lon="5.20072">
        <ele>352</ele>
        <time>2022-09-29T06:47:17Z</time>
      </trkpt>
      <trkpt lat="44.40741" lon="5.20073">
        <ele>352</ele>
        <time>2022-09-29T06:47:18Z</time>
      </trkpt>
      <trkpt lat="44.4074" lon="5.20074">
        <ele>352</ele>
        <time>2022-09-29T06:47:19Z</time>
      </trkpt>
      <trkpt lat="44.4074" lon="5.20075">
        <ele>352</ele>
        <time>2022-09-29T06:47:20Z</time>
      </trkpt>
      <trkpt lat="44.40739" lon="5.20076">
        <ele>352</ele>
        <time>2022-09-29T06:47:21Z</time>
      </trkpt>
      <trkpt lat="44.40738" lon="5.20076">
        <ele>352</ele>
        <time>2022-09-29T06:47:22Z</time>
      </trkpt>
      <trkpt lat="44.40736" lon="5.20078">
        <ele>352</ele>
        <time>2022-09-29T06:47:34Z</time>
      </trkpt>
      <trkpt lat="44.40735" lon="5.20079">
        <ele>352</ele>
        <time>2022-09-29T06:47:35Z</time>
      </trkpt>
      <trkpt lat="44.40735" lon="5.2008">
        <ele>352</ele>
        <time>2022-09-29T06:47:36Z</time>
      </trkpt>
      <trkpt lat="44.40734" lon="5.2008">
        <ele>352</ele>
        <time>2022-09-29T06:47:37Z</time>
      </trkpt>
      <trkpt lat="44.40734" lon="5.20081">
        <ele>352</ele>
        <time>2022-09-29T06:47:38Z</time>
      </trkpt>
      <trkpt lat="44.40734" lon="5.20082">
        <ele>352</ele>
        <time>2022-09-29T06:47:39Z</time>
      </trkpt>
      <trkpt lat="44.40734" lon="5.20082">
        <ele>352</ele>
        <time>2022-09-29T06:47:40Z</time>
      </trkpt>
      <trkpt lat="44.40733" lon="5.20082">
        <ele>352</ele>
        <time>2022-09-29T06:47:41Z</time>
      </trkpt>
      <trkpt lat="44.40733" lon="5.20083">
        <ele>352</ele>
        <time>2022-09-29T06:47:42Z</time>
      </trkpt>
      <trkpt lat="44.40733" lon="5.20084">
        <ele>352</ele>
        <time>2022-09-29T06:47:43Z</time>
      </trkpt>
      <trkpt lat="44.40732" lon="5.20085">
        <ele>352</ele>
        <time>2022-09-29T06:47:44Z</time>
      </trkpt>
      <trkpt lat="44.40732" lon="5.20086">
        <ele>352</ele>
        <time>2022-09-29T06:47:45Z</time>
      </trkpt>
      <trkpt lat="44.40731" lon="5.20087">
        <ele>352</ele>
        <time>2022-09-29T06:47:46Z</time>
      </trkpt>
      <trkpt lat="44.40731" lon="5.20088">
        <ele>352</ele>
        <time>2022-09-29T06:47:47Z</time>
      </trkpt>
      <trkpt lat="44.4073" lon="5.20089">
        <ele>352</ele>
        <time>2022-09-29T06:47:48Z</time>
      </trkpt>
      <trkpt lat="44.4073" lon="5.20091">
        <ele>352</ele>
        <time>2022-09-29T06:47:49Z</time>
      </trkpt>
      <trkpt lat="44.40729" lon="5.20092">
        <ele>351</ele>
        <time>2022-09-29T06:47:50Z</time>
      </trkpt>
      <trkpt lat="44.40728" lon="5.20093">
        <ele>351</ele>
        <time>2022-09-29T06:47:51Z</time>
      </trkpt>
      <trkpt lat="44.40728" lon="5.20094">
        <ele>351</ele>
        <time>2022-09-29T06:47:52Z</time>
      </trkpt>
      <trkpt lat="44.40727" lon="5.20095">
        <ele>351</ele>
        <time>2022-09-29T06:47:53Z</time>
      </trkpt>
      <trkpt lat="44.40727" lon="5.20096">
        <ele>351</ele>
        <time>2022-09-29T06:47:54Z</time>
      </trkpt>
      <trkpt lat="44.40726" lon="5.20098">
        <ele>351</ele>
        <time>2022-09-29T06:47:55Z</time>
      </trkpt>
      <trkpt lat="44.40726" lon="5.20099">
        <ele>351</ele>
        <time>2022-09-29T06:47:56Z</time>
      </trkpt>
      <trkpt lat="44.40726" lon="5.20101">
        <ele>351</ele>
        <time>2022-09-29T06:47:57Z</time>
      </trkpt>
      <trkpt lat="44.40726" lon="5.20102">
        <ele>351</ele>
        <time>2022-09-29T06:47:58Z</time>
      </trkpt>
      <trkpt lat="44.40726" lon="5.20104">
        <ele>351</ele>
        <time>2022-09-29T06:47:59Z</time>
      </trkpt>
      <trkpt lat="44.40726" lon="5.20105">
        <ele>350</ele>
        <time>2022-09-29T06:48:00Z</time>
      </trkpt>
      <trkpt lat="44.40725" lon="5.20107">
        <ele>350</ele>
        <time>2022-09-29T06:48:01Z</time>
      </trkpt>
      <trkpt lat="44.40725" lon="5.20107">
        <ele>350</ele>
        <time>2022-09-29T06:48:02Z</time>
      </trkpt>
      <trkpt lat="44.40725" lon="5.20108">
        <ele>350</ele>
        <time>2022-09-29T06:48:03Z</time>
      </trkpt>
      <trkpt lat="44.40724" lon="5.20108">
        <ele>350</ele>
        <time>2022-09-29T06:48:04Z</time>
      </trkpt>
      <trkpt lat="44.40724" lon="5.20108">
        <ele>350</ele>
        <time>2022-09-29T06:48:05Z</time>
      </trkpt>
      <trkpt lat="44.40724" lon="5.20107">
        <ele>350</ele>
        <time>2022-09-29T06:48:06Z</time>
      </trkpt>
      <trkpt lat="44.40724" lon="5.20106">
        <ele>350</ele>
        <time>2022-09-29T06:48:07Z</time>
      </trkpt>
      <trkpt lat="44.40724" lon="5.20105">
        <ele>350</ele>
        <time>2022-09-29T06:48:08Z</time>
      </trkpt>
      <trkpt lat="44.40724" lon="5.20104">
        <ele>350</ele>
        <time>2022-09-29T06:48:09Z</time>
      </trkpt>
      <trkpt lat="44.40724" lon="5.20103">
        <ele>350</ele>
        <time>2022-09-29T06:48:10Z</time>
      </trkpt>
      <trkpt lat="44.40724" lon="5.20103">
        <ele>350</ele>
        <time>2022-09-29T06:48:11Z</time>
      </trkpt>
      <trkpt lat="44.40724" lon="5.20102">
        <ele>350</ele>
        <time>2022-09-29T06:48:12Z</time>
      </trkpt>
      <trkpt lat="44.40724" lon="5.20102">
        <ele>350</ele>
        <time>2022-09-29T06:48:13Z</time>
      </trkpt>
      <trkpt lat="44.40724" lon="5.20102">
        <ele>350</ele>
        <time>2022-09-29T06:48:14Z</time>
      </trkpt>
      <trkpt lat="44.40724" lon="5.20101">
        <ele>350</ele>
        <time>2022-09-29T06:48:15Z</time>
      </trkpt>
      <trkpt lat="44.40725" lon="5.201">
        <ele>350</ele>
        <time>2022-09-29T06:48:16Z</time>
      </trkpt>
      <trkpt lat="44.40725" lon="5.20099">
        <ele>350</ele>
        <time>2022-09-29T06:48:17Z</time>
      </trkpt>
      <trkpt lat="44.40725" lon="5.20098">
        <ele>350</ele>
        <time>2022-09-29T06:48:18Z</time>
      </trkpt>
      <trkpt lat="44.40725" lon="5.20097">
        <ele>350</ele>
        <time>2022-09-29T06:48:19Z</time>
      </trkpt>
      <trkpt lat="44.40725" lon="5.20096">
        <ele>350</ele>
        <time>2022-09-29T06:48:20Z</time>
      </trkpt>
      <trkpt lat="44.40725" lon="5.20095">
        <ele>350</ele>
        <time>2022-09-29T06:48:21Z</time>
      </trkpt>
      <trkpt lat="44.40725" lon="5.20094">
        <ele>350</ele>
        <time>2022-09-29T06:48:22Z</time>
      </trkpt>
      <trkpt lat="44.40726" lon="5.20093">
        <ele>350</ele>
        <time>2022-09-29T06:48:23Z</time>
      </trkpt>
      <trkpt lat="44.40726" lon="5.20092">
        <ele>350</ele>
        <time>2022-09-29T06:48:24Z</time>
      </trkpt>
      <trkpt lat="44.40727" lon="5.20091">
        <ele>350</ele>
        <time>2022-09-29T06:48:25Z</time>
      </trkpt>
      <trkpt lat="44.40727" lon="5.2009">
        <ele>350</ele>
        <time>2022-09-29T06:48:26Z</time>
      </trkpt>
      <trkpt lat="44.40728" lon="5.20089">
        <ele>350</ele>
        <time>2022-09-29T06:48:27Z</time>
      </trkpt>
      <trkpt lat="44.40729" lon="5.20088">
        <ele>350</ele>
        <time>2022-09-29T06:48:28Z</time>
      </trkpt>
      <trkpt lat="44.40729" lon="5.20086">
        <ele>351</ele>
        <time>2022-09-29T06:48:29Z</time>
      </trkpt>
      <trkpt lat="44.4073" lon="5.20085">
        <ele>351</ele>
        <time>2022-09-29T06:48:30Z</time>
      </trkpt>
      <trkpt lat="44.4073" lon="5.20084">
        <ele>351</ele>
        <time>2022-09-29T06:48:31Z</time>
      </trkpt>
      <trkpt lat="44.40731" lon="5.20083">
        <ele>351</ele>
        <time>2022-09-29T06:48:32Z</time>
      </trkpt>
      <trkpt lat="44.40732" lon="5.20083">
        <ele>351</ele>
        <time>2022-09-29T06:48:33Z</time>
      </trkpt>
      <trkpt lat="44.40732" lon="5.20082">
        <ele>351</ele>
        <time>2022-09-29T06:48:34Z</time>
      </trkpt>
      <trkpt lat="44.40733" lon="5.20081">
        <ele>351</ele>
        <time>2022-09-29T06:48:35Z</time>
      </trkpt>
      <trkpt lat="44.40734" lon="5.2008">
        <ele>351</ele>
        <time>2022-09-29T06:48:36Z</time>
      </trkpt>
      <trkpt lat="44.40734" lon="5.20079">
        <ele>351</ele>
        <time>2022-09-29T06:48:37Z</time>
      </trkpt>
      <trkpt lat="44.40735" lon="5.20078">
        <ele>351</ele>
        <time>2022-09-29T06:48:38Z</time>
      </trkpt>
      <trkpt lat="44.40735" lon="5.20078">
        <ele>352</ele>
        <time>2022-09-29T06:48:39Z</time>
      </trkpt>
      <trkpt lat="44.40735" lon="5.20077">
        <ele>352</ele>
        <time>2022-09-29T06:48:40Z</time>
      </trkpt>
      <trkpt lat="44.40736" lon="5.20076">
        <ele>352</ele>
        <time>2022-09-29T06:48:47Z</time>
      </trkpt>
      <trkpt lat="44.40737" lon="5.20076">
        <ele>352</ele>
        <time>2022-09-29T06:48:48Z</time>
      </trkpt>
      <trkpt lat="44.40738" lon="5.20075">
        <ele>352</ele>
        <time>2022-09-29T06:48:49Z</time>
      </trkpt>
      <trkpt lat="44.40738" lon="5.20075">
        <ele>352</ele>
        <time>2022-09-29T06:48:50Z</time>
      </trkpt>
      <trkpt lat="44.40739" lon="5.20075">
        <ele>352</ele>
        <time>2022-09-29T06:48:51Z</time>
      </trkpt>
      <trkpt lat="44.4074" lon="5.20074">
        <ele>352</ele>
        <time>2022-09-29T06:48:52Z</time>
      </trkpt>
      <trkpt lat="44.40741" lon="5.20073">
        <ele>352</ele>
        <time>2022-09-29T06:48:53Z</time>
      </trkpt>
      <trkpt lat="44.40742" lon="5.20073">
        <ele>352</ele>
        <time>2022-09-29T06:48:54Z</time>
      </trkpt>
      <trkpt lat="44.40743" lon="5.20073">
        <ele>352</ele>
        <time>2022-09-29T06:48:55Z</time>
      </trkpt>
      <trkpt lat="44.40744" lon="5.20073">
        <ele>352</ele>
        <time>2022-09-29T06:48:56Z</time>
      </trkpt>
      <trkpt lat="44.40745" lon="5.20073">
        <ele>352</ele>
        <time>2022-09-29T06:48:57Z</time>
      </trkpt>
      <trkpt lat="44.40746" lon="5.20073">
        <ele>352</ele>
        <time>2022-09-29T06:48:58Z</time>
      </trkpt>
      <trkpt lat="44.40747" lon="5.20073">
        <ele>352</ele>
        <time>2022-09-29T06:48:59Z</time>
      </trkpt>
      <trkpt lat="44.40748" lon="5.20074">
        <ele>352</ele>
        <time>2022-09-29T06:49:00Z</time>
      </trkpt>
      <trkpt lat="44.40749" lon="5.20074">
        <ele>352</ele>
        <time>2022-09-29T06:49:01Z</time>
      </trkpt>
      <trkpt lat="44.4075" lon="5.20075">
        <ele>352</ele>
        <time>2022-09-29T06:49:02Z</time>
      </trkpt>
      <trkpt lat="44.40751" lon="5.20076">
        <ele>352</ele>
        <time>2022-09-29T06:49:03Z</time>
      </trkpt>
      <trkpt lat="44.40752" lon="5.20076">
        <ele>352</ele>
        <time>2022-09-29T06:49:04Z</time>
      </trkpt>
      <trkpt lat="44.40753" lon="5.20077">
        <ele>352</ele>
        <time>2022-09-29T06:49:05Z</time>
      </trkpt>
      <trkpt lat="44.40754" lon="5.20077">
        <ele>352</ele>
        <time>2022-09-29T06:49:06Z</time>
      </trkpt>
      <trkpt lat="44.40754" lon="5.20078">
        <ele>352</ele>
        <time>2022-09-29T06:49:07Z</time>
      </trkpt>
      <trkpt lat="44.40755" lon="5.20078">
        <ele>352</ele>
        <time>2022-09-29T06:49:08Z</time>
      </trkpt>
      <trkpt lat="44.40756" lon="5.20078">
        <ele>352</ele>
        <time>2022-09-29T06:49:09Z</time>
      </trkpt>
      <trkpt lat="44.40757" lon="5.20079">
        <ele>352</ele>
        <time>2022-09-29T06:49:10Z</time>
      </trkpt>
      <trkpt lat="44.40758" lon="5.20079">
        <ele>352</ele>
        <time>2022-09-29T06:49:11Z</time>
      </trkpt>
      <trkpt lat="44.4076" lon="5.2008">
        <ele>352</ele>
        <time>2022-09-29T06:49:12Z</time>
      </trkpt>
      <trkpt lat="44.40761" lon="5.2008">
        <ele>352</ele>
        <time>2022-09-29T06:49:13Z</time>
      </trkpt>
      <trkpt lat="44.40762" lon="5.20081">
        <ele>352</ele>
        <time>2022-09-29T06:49:14Z</time>
      </trkpt>
      <trkpt lat="44.40763" lon="5.20082">
        <ele>352</ele>
        <time>2022-09-29T06:49:15Z</time>
      </trkpt>
      <trkpt lat="44.40764" lon="5.20082">
        <ele>352</ele>
        <time>2022-09-29T06:49:16Z</time>
      </trkpt>
      <trkpt lat="44.40765" lon="5.20083">
        <ele>352</ele>
        <time>2022-09-29T06:49:17Z</time>
      </trkpt>
      <trkpt lat="44.40766" lon="5.20083">
        <ele>352</ele>
        <time>2022-09-29T06:49:18Z</time>
      </trkpt>
      <trkpt lat="44.40767" lon="5.20084">
        <ele>352</ele>
        <time>2022-09-29T06:49:19Z</time>
      </trkpt>
      <trkpt lat="44.40768" lon="5.20084">
        <ele>352</ele>
        <time>2022-09-29T06:49:20Z</time>
      </trkpt>
      <trkpt lat="44.40769" lon="5.20085">
        <ele>352</ele>
        <time>2022-09-29T06:49:21Z</time>
      </trkpt>
      <trkpt lat="44.4077" lon="5.20085">
        <ele>352</ele>
        <time>2022-09-29T06:49:22Z</time>
      </trkpt>
      <trkpt lat="44.40771" lon="5.20085">
        <ele>352</ele>
        <time>2022-09-29T06:49:23Z</time>
      </trkpt>
      <trkpt lat="44.40772" lon="5.20085">
        <ele>352</ele>
        <time>2022-09-29T06:49:24Z</time>
      </trkpt>
      <trkpt lat="44.40773" lon="5.20086">
        <ele>352</ele>
        <time>2022-09-29T06:49:25Z</time>
      </trkpt>
      <trkpt lat="44.40774" lon="5.20086">
        <ele>352</ele>
        <time>2022-09-29T06:49:26Z</time>
      </trkpt>
      <trkpt lat="44.40775" lon="5.20087">
        <ele>352</ele>
        <time>2022-09-29T06:49:27Z</time>
      </trkpt>
      <trkpt lat="44.40776" lon="5.20087">
        <ele>352</ele>
        <time>2022-09-29T06:49:28Z</time>
      </trkpt>
      <trkpt lat="44.40777" lon="5.20088">
        <ele>353</ele>
        <time>2022-09-29T06:49:29Z</time>
      </trkpt>
      <trkpt lat="44.40778" lon="5.20088">
        <ele>353</ele>
        <time>2022-09-29T06:49:30Z</time>
      </trkpt>
      <trkpt lat="44.40779" lon="5.20088">
        <ele>353</ele>
        <time>2022-09-29T06:49:31Z</time>
      </trkpt>
      <trkpt lat="44.4078" lon="5.20088">
        <ele>353</ele>
        <time>2022-09-29T06:49:32Z</time>
      </trkpt>
      <trkpt lat="44.40781" lon="5.20088">
        <ele>353</ele>
        <time>2022-09-29T06:49:33Z</time>
      </trkpt>
      <trkpt lat="44.40782" lon="5.20088">
        <ele>353</ele>
        <time>2022-09-29T06:49:34Z</time>
      </trkpt>
      <trkpt lat="44.40784" lon="5.20088">
        <ele>353</ele>
        <time>2022-09-29T06:49:35Z</time>
      </trkpt>
      <trkpt lat="44.40785" lon="5.20089">
        <ele>353</ele>
        <time>2022-09-29T06:49:36Z</time>
      </trkpt>
      <trkpt lat="44.40786" lon="5.20089">
        <ele>353</ele>
        <time>2022-09-29T06:49:37Z</time>
      </trkpt>
      <trkpt lat="44.40787" lon="5.20089">
        <ele>353</ele>
        <time>2022-09-29T06:49:38Z</time>
      </trkpt>
      <trkpt lat="44.40788" lon="5.2009">
        <ele>353</ele>
        <time>2022-09-29T06:49:39Z</time>
      </trkpt>
      <trkpt lat="44.40789" lon="5.2009">
        <ele>353</ele>
        <time>2022-09-29T06:49:40Z</time>
      </trkpt>
      <trkpt lat="44.4079" lon="5.20091">
        <ele>353</ele>
        <time>2022-09-29T06:49:41Z</time>
      </trkpt>
      <trkpt lat="44.40791" lon="5.20092">
        <ele>353</ele>
        <time>2022-09-29T06:49:42Z</time>
      </trkpt>
      <trkpt lat="44.40792" lon="5.20092">
        <ele>353</ele>
        <time>2022-09-29T06:49:43Z</time>
      </trkpt>
      <trkpt lat="44.40793" lon="5.20093">
        <ele>353</ele>
        <time>2022-09-29T06:49:44Z</time>
      </trkpt>
      <trkpt lat="44.40794" lon="5.20093">
        <ele>353</ele>
        <time>2022-09-29T06:49:45Z</time>
      </trkpt>
      <trkpt lat="44.40795" lon="5.20094">
        <ele>353</ele>
        <time>2022-09-29T06:49:46Z</time>
      </trkpt>
      <trkpt lat="44.40796" lon="5.20094">
        <ele>353</ele>
        <time>2022-09-29T06:49:47Z</time>
      </trkpt>
      <trkpt lat="44.40796" lon="5.20095">
        <ele>353</ele>
        <time>2022-09-29T06:49:48Z</time>
      </trkpt>
      <trkpt lat="44.40797" lon="5.20095">
        <ele>353</ele>
        <time>2022-09-29T06:49:49Z</time>
      </trkpt>
      <trkpt lat="44.40798" lon="5.20095">
        <ele>353</ele>
        <time>2022-09-29T06:49:50Z</time>
      </trkpt>
      <trkpt lat="44.40799" lon="5.20096">
        <ele>353</ele>
        <time>2022-09-29T06:49:51Z</time>
      </trkpt>
      <trkpt lat="44.408" lon="5.20096">
        <ele>353</ele>
        <time>2022-09-29T06:49:52Z</time>
      </trkpt>
      <trkpt lat="44.40801" lon="5.20096">
        <ele>353</ele>
        <time>2022-09-29T06:49:53Z</time>
      </trkpt>
      <trkpt lat="44.40802" lon="5.20096">
        <ele>353</ele>
        <time>2022-09-29T06:49:54Z</time>
      </trkpt>
      <trkpt lat="44.40803" lon="5.20097">
        <ele>353</ele>
        <time>2022-09-29T06:49:55Z</time>
      </trkpt>
      <trkpt lat="44.40804" lon="5.20097">
        <ele>353</ele>
        <time>2022-09-29T06:49:56Z</time>
      </trkpt>
      <trkpt lat="44.40805" lon="5.20097">
        <ele>353</ele>
        <time>2022-09-29T06:49:57Z</time>
      </trkpt>
      <trkpt lat="44.40806" lon="5.20097">
        <ele>353</ele>
        <time>2022-09-29T06:49:58Z</time>
      </trkpt>
      <trkpt lat="44.40807" lon="5.20098">
        <ele>353</ele>
        <time>2022-09-29T06:49:59Z</time>
      </trkpt>
      <trkpt lat="44.40808" lon="5.20098">
        <ele>353</ele>
        <time>2022-09-29T06:50:00Z</time>
      </trkpt>
      <trkpt lat="44.40809" lon="5.20098">
        <ele>353</ele>
        <time>2022-09-29T06:50:01Z</time>
      </trkpt>
      <trkpt lat="44.4081" lon="5.20099">
        <ele>353</ele>
        <time>2022-09-29T06:50:02Z</time>
      </trkpt>
      <trkpt lat="44.40811" lon="5.20099">
        <ele>353</ele>
        <time>2022-09-29T06:50:03Z</time>
      </trkpt>
      <trkpt lat="44.40812" lon="5.20099">
        <ele>353</ele>
        <time>2022-09-29T06:50:04Z</time>
      </trkpt>
      <trkpt lat="44.40813" lon="5.20099">
        <ele>353</ele>
        <time>2022-09-29T06:50:05Z</time>
      </trkpt>
      <trkpt lat="44.40814" lon="5.201">
        <ele>353</ele>
        <time>2022-09-29T06:50:06Z</time>
      </trkpt>
      <trkpt lat="44.40815" lon="5.201">
        <ele>353</ele>
        <time>2022-09-29T06:50:07Z</time>
      </trkpt>
      <trkpt lat="44.40816" lon="5.201">
        <ele>353</ele>
        <time>2022-09-29T06:50:08Z</time>
      </trkpt>
      <trkpt lat="44.40817" lon="5.20101">
        <ele>353</ele>
        <time>2022-09-29T06:50:09Z</time>
      </trkpt>
      <trkpt lat="44.40818" lon="5.20101">
        <ele>353</ele>
        <time>2022-09-29T06:50:10Z</time>
      </trkpt>
      <trkpt lat="44.40819" lon="5.20102">
        <ele>353</ele>
        <time>2022-09-29T06:50:11Z</time>
      </trkpt>
      <trkpt lat="44.4082" lon="5.20102">
        <ele>353</ele>
        <time>2022-09-29T06:50:12Z</time>
      </trkpt>
      <trkpt lat="44.40822" lon="5.20102">
        <ele>353</ele>
        <time>2022-09-29T06:50:13Z</time>
      </trkpt>
      <trkpt lat="44.40823" lon="5.20103">
        <ele>353</ele>
        <time>2022-09-29T06:50:14Z</time>
      </trkpt>
      <trkpt lat="44.40824" lon="5.20103">
        <ele>353</ele>
        <time>2022-09-29T06:50:15Z</time>
      </trkpt>
      <trkpt lat="44.40825" lon="5.20104">
        <ele>353</ele>
        <time>2022-09-29T06:50:16Z</time>
      </trkpt>
      <trkpt lat="44.40826" lon="5.20104">
        <ele>353</ele>
        <time>2022-09-29T06:50:17Z</time>
      </trkpt>
      <trkpt lat="44.40827" lon="5.20105">
        <ele>353</ele>
        <time>2022-09-29T06:50:18Z</time>
      </trkpt>
      <trkpt lat="44.40828" lon="5.20105">
        <ele>353</ele>
        <time>2022-09-29T06:50:19Z</time>
      </trkpt>
      <trkpt lat="44.40829" lon="5.20105">
        <ele>353</ele>
        <time>2022-09-29T06:50:20Z</time>
      </trkpt>
      <trkpt lat="44.4083" lon="5.20106">
        <ele>353</ele>
        <time>2022-09-29T06:50:21Z</time>
      </trkpt>
      <trkpt lat="44.40831" lon="5.20106">
        <ele>353</ele>
        <time>2022-09-29T06:50:22Z</time>
      </trkpt>
      <trkpt lat="44.40832" lon="5.20106">
        <ele>353</ele>
        <time>2022-09-29T06:50:23Z</time>
      </trkpt>
      <trkpt lat="44.40833" lon="5.20107">
        <ele>353</ele>
        <time>2022-09-29T06:50:24Z</time>
      </trkpt>
      <trkpt lat="44.40835" lon="5.20107">
        <ele>353</ele>
        <time>2022-09-29T06:50:25Z</time>
      </trkpt>
      <trkpt lat="44.40836" lon="5.20108">
        <ele>353</ele>
        <time>2022-09-29T06:50:26Z</time>
      </trkpt>
      <trkpt lat="44.40837" lon="5.20108">
        <ele>353</ele>
        <time>2022-09-29T06:50:27Z</time>
      </trkpt>
      <trkpt lat="44.40838" lon="5.20109">
        <ele>353</ele>
        <time>2022-09-29T06:50:28Z</time>
      </trkpt>
      <trkpt lat="44.40839" lon="5.20109">
        <ele>353</ele>
        <time>2022-09-29T06:50:29Z</time>
      </trkpt>
      <trkpt lat="44.4084" lon="5.20109">
        <ele>353</ele>
        <time>2022-09-29T06:50:30Z</time>
      </trkpt>
      <trkpt lat="44.40841" lon="5.2011">
        <ele>353</ele>
        <time>2022-09-29T06:50:31Z</time>
      </trkpt>
      <trkpt lat="44.40843" lon="5.2011">
        <ele>353</ele>
        <time>2022-09-29T06:50:32Z</time>
      </trkpt>
      <trkpt lat="44.40844" lon="5.2011">
        <ele>353</ele>
        <time>2022-09-29T06:50:33Z</time>
      </trkpt>
      <trkpt lat="44.40845" lon="5.20111">
        <ele>354</ele>
        <time>2022-09-29T06:50:34Z</time>
      </trkpt>
      <trkpt lat="44.40846" lon="5.20111">
        <ele>354</ele>
        <time>2022-09-29T06:50:35Z</time>
      </trkpt>
      <trkpt lat="44.40847" lon="5.20111">
        <ele>354</ele>
        <time>2022-09-29T06:50:36Z</time>
      </trkpt>
      <trkpt lat="44.40848" lon="5.20111">
        <ele>354</ele>
        <time>2022-09-29T06:50:37Z</time>
      </trkpt>
      <trkpt lat="44.40849" lon="5.20111">
        <ele>354</ele>
        <time>2022-09-29T06:50:38Z</time>
      </trkpt>
      <trkpt lat="44.40851" lon="5.20111">
        <ele>354</ele>
        <time>2022-09-29T06:50:39Z</time>
      </trkpt>
      <trkpt lat="44.40852" lon="5.20111">
        <ele>354</ele>
        <time>2022-09-29T06:50:40Z</time>
      </trkpt>
      <trkpt lat="44.40853" lon="5.20112">
        <ele>354</ele>
        <time>2022-09-29T06:50:41Z</time>
      </trkpt>
      <trkpt lat="44.40854" lon="5.20112">
        <ele>354</ele>
        <time>2022-09-29T06:50:42Z</time>
      </trkpt>
      <trkpt lat="44.40856" lon="5.20112">
        <ele>354</ele>
        <time>2022-09-29T06:50:43Z</time>
      </trkpt>
      <trkpt lat="44.40857" lon="5.20113">
        <ele>354</ele>
        <time>2022-09-29T06:50:44Z</time>
      </trkpt>
      <trkpt lat="44.40858" lon="5.20113">
        <ele>354</ele>
        <time>2022-09-29T06:50:45Z</time>
      </trkpt>
      <trkpt lat="44.40859" lon="5.20114">
        <ele>354</ele>
        <time>2022-09-29T06:50:46Z</time>
      </trkpt>
      <trkpt lat="44.40861" lon="5.20114">
        <ele>354</ele>
        <time>2022-09-29T06:50:47Z</time>
      </trkpt>
      <trkpt lat="44.40862" lon="5.20115">
        <ele>354</ele>
        <time>2022-09-29T06:50:48Z</time>
      </trkpt>
      <trkpt lat="44.40863" lon="5.20115">
        <ele>354</ele>
        <time>2022-09-29T06:50:49Z</time>
      </trkpt>
      <trkpt lat="44.40864" lon="5.20116">
        <ele>354</ele>
        <time>2022-09-29T06:50:50Z</time>
      </trkpt>
      <trkpt lat="44.40865" lon="5.20116">
        <ele>354</ele>
        <time>2022-09-29T06:50:51Z</time>
      </trkpt>
      <trkpt lat="44.40866" lon="5.20117">
        <ele>354</ele>
        <time>2022-09-29T06:50:52Z</time>
      </trkpt>
      <trkpt lat="44.40867" lon="5.20117">
        <ele>354</ele>
        <time>2022-09-29T06:50:53Z</time>
      </trkpt>
      <trkpt lat="44.40868" lon="5.20118">
        <ele>354</ele>
        <time>2022-09-29T06:50:54Z</time>
      </trkpt>
      <trkpt lat="44.40869" lon="5.20119">
        <ele>354</ele>
        <time>2022-09-29T06:50:55Z</time>
      </trkpt>
      <trkpt lat="44.4087" lon="5.20119">
        <ele>354</ele>
        <time>2022-09-29T06:50:56Z</time>
      </trkpt>
      <trkpt lat="44.40871" lon="5.2012">
        <ele>354</ele>
        <time>2022-09-29T06:50:57Z</time>
      </trkpt>
      <trkpt lat="44.40872" lon="5.20121">
        <ele>354</ele>
        <time>2022-09-29T06:50:58Z</time>
      </trkpt>
      <trkpt lat="44.40874" lon="5.20121">
        <ele>354</ele>
        <time>2022-09-29T06:50:59Z</time>
      </trkpt>
      <trkpt lat="44.40874" lon="5.20122">
        <ele>354</ele>
        <time>2022-09-29T06:51:00Z</time>
      </trkpt>
      <trkpt lat="44.40875" lon="5.20123">
        <ele>354</ele>
        <time>2022-09-29T06:51:01Z</time>
      </trkpt>
      <trkpt lat="44.40876" lon="5.20124">
        <ele>354</ele>
        <time>2022-09-29T06:51:02Z</time>
      </trkpt>
      <trkpt lat="44.40877" lon="5.20125">
        <ele>354</ele>
        <time>2022-09-29T06:51:03Z</time>
      </trkpt>
      <trkpt lat="44.40878" lon="5.20125">
        <ele>354</ele>
        <time>2022-09-29T06:51:04Z</time>
      </trkpt>
      <trkpt lat="44.40879" lon="5.20126">
        <ele>354</ele>
        <time>2022-09-29T06:51:05Z</time>
      </trkpt>
      <trkpt lat="44.4088" lon="5.20127">
        <ele>354</ele>
        <time>2022-09-29T06:51:06Z</time>
      </trkpt>
      <trkpt lat="44.40881" lon="5.20127">
        <ele>354</ele>
        <time>2022-09-29T06:51:07Z</time>
      </trkpt>
      <trkpt lat="44.40882" lon="5.20127">
        <ele>354</ele>
        <time>2022-09-29T06:51:08Z</time>
      </trkpt>
      <trkpt lat="44.40883" lon="5.20128">
        <ele>354</ele>
        <time>2022-09-29T06:51:09Z</time>
      </trkpt>
      <trkpt lat="44.40884" lon="5.20128">
        <ele>354</ele>
        <time>2022-09-29T06:51:10Z</time>
      </trkpt>
      <trkpt lat="44.40885" lon="5.20128">
        <ele>354</ele>
        <time>2022-09-29T06:51:11Z</time>
      </trkpt>
      <trkpt lat="44.40886" lon="5.20129">
        <ele>354</ele>
        <time>2022-09-29T06:51:12Z</time>
      </trkpt>
      <trkpt lat="44.40887" lon="5.20129">
        <ele>354</ele>
        <time>2022-09-29T06:51:13Z</time>
      </trkpt>
      <trkpt lat="44.40888" lon="5.2013">
        <ele>354</ele>
        <time>2022-09-29T06:51:14Z</time>
      </trkpt>
      <trkpt lat="44.4089" lon="5.2013">
        <ele>354</ele>
        <time>2022-09-29T06:51:15Z</time>
      </trkpt>
      <trkpt lat="44.40891" lon="5.20131">
        <ele>354</ele>
        <time>2022-09-29T06:51:16Z</time>
      </trkpt>
      <trkpt lat="44.40892" lon="5.20131">
        <ele>354</ele>
        <time>2022-09-29T06:51:17Z</time>
      </trkpt>
      <trkpt lat="44.40893" lon="5.20132">
        <ele>354</ele>
        <time>2022-09-29T06:51:18Z</time>
      </trkpt>
      <trkpt lat="44.40894" lon="5.20132">
        <ele>354</ele>
        <time>2022-09-29T06:51:19Z</time>
      </trkpt>
      <trkpt lat="44.40895" lon="5.20132">
        <ele>354</ele>
        <time>2022-09-29T06:51:20Z</time>
      </trkpt>
      <trkpt lat="44.40896" lon="5.20133">
        <ele>354</ele>
        <time>2022-09-29T06:51:21Z</time>
      </trkpt>
      <trkpt lat="44.40897" lon="5.20134">
        <ele>354</ele>
        <time>2022-09-29T06:51:22Z</time>
      </trkpt>
      <trkpt lat="44.40898" lon="5.20134">
        <ele>354</ele>
        <time>2022-09-29T06:51:23Z</time>
      </trkpt>
      <trkpt lat="44.40899" lon="5.20135">
        <ele>354</ele>
        <time>2022-09-29T06:51:24Z</time>
      </trkpt>
      <trkpt lat="44.409" lon="5.20136">
        <ele>354</ele>
        <time>2022-09-29T06:51:25Z</time>
      </trkpt>
      <trkpt lat="44.40901" lon="5.20136">
        <ele>354</ele>
        <time>2022-09-29T06:51:26Z</time>
      </trkpt>
      <trkpt lat="44.40903" lon="5.20137">
        <ele>354</ele>
        <time>2022-09-29T06:51:27Z</time>
      </trkpt>
      <trkpt lat="44.40904" lon="5.20137">
        <ele>354</ele>
        <time>2022-09-29T06:51:28Z</time>
      </trkpt>
      <trkpt lat="44.40905" lon="5.20137">
        <ele>354</ele>
        <time>2022-09-29T06:51:29Z</time>
      </trkpt>
      <trkpt lat="44.40906" lon="5.20138">
        <ele>354</ele>
        <time>2022-09-29T06:51:30Z</time>
      </trkpt>
      <trkpt lat="44.40907" lon="5.20139">
        <ele>354</ele>
        <time>2022-09-29T06:51:31Z</time>
      </trkpt>
      <trkpt lat="44.40908" lon="5.20139">
        <ele>354</ele>
        <time>2022-09-29T06:51:32Z</time>
      </trkpt>
      <trkpt lat="44.4091" lon="5.20139">
        <ele>354</ele>
        <time>2022-09-29T06:51:33Z</time>
      </trkpt>
      <trkpt lat="44.40911" lon="5.2014">
        <ele>354</ele>
        <time>2022-09-29T06:51:34Z</time>
      </trkpt>
      <trkpt lat="44.40913" lon="5.2014">
        <ele>354</ele>
        <time>2022-09-29T06:51:35Z</time>
      </trkpt>
      <trkpt lat="44.40914" lon="5.2014">
        <ele>354</ele>
        <time>2022-09-29T06:51:36Z</time>
      </trkpt>
      <trkpt lat="44.40916" lon="5.2014">
        <ele>354</ele>
        <time>2022-09-29T06:51:37Z</time>
      </trkpt>
      <trkpt lat="44.40917" lon="5.20141">
        <ele>354</ele>
        <time>2022-09-29T06:51:38Z</time>
      </trkpt>
      <trkpt lat="44.40918" lon="5.20141">
        <ele>354</ele>
        <time>2022-09-29T06:51:39Z</time>
      </trkpt>
      <trkpt lat="44.40919" lon="5.20141">
        <ele>354</ele>
        <time>2022-09-29T06:51:40Z</time>
      </trkpt>
      <trkpt lat="44.4092" lon="5.20141">
        <ele>354</ele>
        <time>2022-09-29T06:51:41Z</time>
      </trkpt>
      <trkpt lat="44.40921" lon="5.20142">
        <ele>354</ele>
        <time>2022-09-29T06:51:42Z</time>
      </trkpt>
      <trkpt lat="44.40921" lon="5.20142">
        <ele>354</ele>
        <time>2022-09-29T06:51:43Z</time>
      </trkpt>
      <trkpt lat="44.40922" lon="5.20142">
        <ele>354</ele>
        <time>2022-09-29T06:51:44Z</time>
      </trkpt>
      <trkpt lat="44.40923" lon="5.20143">
        <ele>354</ele>
        <time>2022-09-29T06:51:45Z</time>
      </trkpt>
      <trkpt lat="44.40923" lon="5.20143">
        <ele>354</ele>
        <time>2022-09-29T06:51:46Z</time>
      </trkpt>
      <trkpt lat="44.40924" lon="5.20144">
        <ele>354</ele>
        <time>2022-09-29T06:51:47Z</time>
      </trkpt>
      <trkpt lat="44.40925" lon="5.20144">
        <ele>354</ele>
        <time>2022-09-29T06:51:48Z</time>
      </trkpt>
      <trkpt lat="44.40926" lon="5.20144">
        <ele>354</ele>
        <time>2022-09-29T06:51:49Z</time>
      </trkpt>
      <trkpt lat="44.40927" lon="5.20145">
        <ele>354</ele>
        <time>2022-09-29T06:51:50Z</time>
      </trkpt>
      <trkpt lat="44.40928" lon="5.20145">
        <ele>354</ele>
        <time>2022-09-29T06:51:51Z</time>
      </trkpt>
      <trkpt lat="44.40929" lon="5.20146">
        <ele>354</ele>
        <time>2022-09-29T06:51:52Z</time>
      </trkpt>
      <trkpt lat="44.40929" lon="5.20146">
        <ele>354</ele>
        <time>2022-09-29T06:51:53Z</time>
      </trkpt>
      <trkpt lat="44.4093" lon="5.20146">
        <ele>354</ele>
        <time>2022-09-29T06:51:54Z</time>
      </trkpt>
      <trkpt lat="44.40931" lon="5.20147">
        <ele>354</ele>
        <time>2022-09-29T06:51:55Z</time>
      </trkpt>
      <trkpt lat="44.40932" lon="5.20147">
        <ele>354</ele>
        <time>2022-09-29T06:51:56Z</time>
      </trkpt>
      <trkpt lat="44.40933" lon="5.20148">
        <ele>354</ele>
        <time>2022-09-29T06:51:57Z</time>
      </trkpt>
      <trkpt lat="44.40934" lon="5.20148">
        <ele>354</ele>
        <time>2022-09-29T06:51:58Z</time>
      </trkpt>
      <trkpt lat="44.40936" lon="5.20148">
        <ele>354</ele>
        <time>2022-09-29T06:51:59Z</time>
      </trkpt>
      <trkpt lat="44.40937" lon="5.20149">
        <ele>354</ele>
        <time>2022-09-29T06:52:00Z</time>
      </trkpt>
      <trkpt lat="44.40938" lon="5.20149">
        <ele>354</ele>
        <time>2022-09-29T06:52:01Z</time>
      </trkpt>
      <trkpt lat="44.40939" lon="5.2015">
        <ele>354</ele>
        <time>2022-09-29T06:52:02Z</time>
      </trkpt>
      <trkpt lat="44.4094" lon="5.2015">
        <ele>354</ele>
        <time>2022-09-29T06:52:03Z</time>
      </trkpt>
      <trkpt lat="44.40941" lon="5.2015">
        <ele>354</ele>
        <time>2022-09-29T06:52:04Z</time>
      </trkpt>
      <trkpt lat="44.40943" lon="5.20151">
        <ele>354</ele>
        <time>2022-09-29T06:52:05Z</time>
      </trkpt>
      <trkpt lat="44.40944" lon="5.20151">
        <ele>354</ele>
        <time>2022-09-29T06:52:06Z</time>
      </trkpt>
      <trkpt lat="44.40945" lon="5.20151">
        <ele>354</ele>
        <time>2022-09-29T06:52:07Z</time>
      </trkpt>
      <trkpt lat="44.40946" lon="5.20152">
        <ele>354</ele>
        <time>2022-09-29T06:52:08Z</time>
      </trkpt>
      <trkpt lat="44.40947" lon="5.20152">
        <ele>354</ele>
        <time>2022-09-29T06:52:09Z</time>
      </trkpt>
      <trkpt lat="44.40949" lon="5.20152">
        <ele>354</ele>
        <time>2022-09-29T06:52:10Z</time>
      </trkpt>
      <trkpt lat="44.4095" lon="5.20152">
        <ele>354</ele>
        <time>2022-09-29T06:52:11Z</time>
      </trkpt>
      <trkpt lat="44.40951" lon="5.20153">
        <ele>354</ele>
        <time>2022-09-29T06:52:12Z</time>
      </trkpt>
      <trkpt lat="44.40952" lon="5.20153">
        <ele>354</ele>
        <time>2022-09-29T06:52:13Z</time>
      </trkpt>
      <trkpt lat="44.40953" lon="5.20154">
        <ele>354</ele>
        <time>2022-09-29T06:52:14Z</time>
      </trkpt>
      <trkpt lat="44.40954" lon="5.20154">
        <ele>354</ele>
        <time>2022-09-29T06:52:15Z</time>
      </trkpt>
      <trkpt lat="44.40956" lon="5.20155">
        <ele>354</ele>
        <time>2022-09-29T06:52:16Z</time>
      </trkpt>
      <trkpt lat="44.40957" lon="5.20155">
        <ele>354</ele>
        <time>2022-09-29T06:52:17Z</time>
      </trkpt>
      <trkpt lat="44.40958" lon="5.20156">
        <ele>354</ele>
        <time>2022-09-29T06:52:18Z</time>
      </trkpt>
      <trkpt lat="44.40959" lon="5.20157">
        <ele>354</ele>
        <time>2022-09-29T06:52:19Z</time>
      </trkpt>
      <trkpt lat="44.4096" lon="5.20157">
        <ele>354</ele>
        <time>2022-09-29T06:52:20Z</time>
      </trkpt>
      <trkpt lat="44.40961" lon="5.20158">
        <ele>354</ele>
        <time>2022-09-29T06:52:21Z</time>
      </trkpt>
      <trkpt lat="44.40962" lon="5.20159">
        <ele>354</ele>
        <time>2022-09-29T06:52:22Z</time>
      </trkpt>
      <trkpt lat="44.40963" lon="5.20159">
        <ele>354</ele>
        <time>2022-09-29T06:52:23Z</time>
      </trkpt>
      <trkpt lat="44.40964" lon="5.2016">
        <ele>354</ele>
        <time>2022-09-29T06:52:24Z</time>
      </trkpt>
      <trkpt lat="44.40966" lon="5.2016">
        <ele>354</ele>
        <time>2022-09-29T06:52:25Z</time>
      </trkpt>
      <trkpt lat="44.40967" lon="5.2016">
        <ele>354</ele>
        <time>2022-09-29T06:52:26Z</time>
      </trkpt>
      <trkpt lat="44.40968" lon="5.20161">
        <ele>354</ele>
        <time>2022-09-29T06:52:27Z</time>
      </trkpt>
      <trkpt lat="44.40969" lon="5.20161">
        <ele>354</ele>
        <time>2022-09-29T06:52:28Z</time>
      </trkpt>
      <trkpt lat="44.4097" lon="5.20162">
        <ele>354</ele>
        <time>2022-09-29T06:52:29Z</time>
      </trkpt>
      <trkpt lat="44.40972" lon="5.20162">
        <ele>354</ele>
        <time>2022-09-29T06:52:30Z</time>
      </trkpt>
      <trkpt lat="44.40973" lon="5.20163">
        <ele>354</ele>
        <time>2022-09-29T06:52:31Z</time>
      </trkpt>
      <trkpt lat="44.40974" lon="5.20163">
        <ele>354</ele>
        <time>2022-09-29T06:52:32Z</time>
      </trkpt>
      <trkpt lat="44.40975" lon="5.20163">
        <ele>354</ele>
        <time>2022-09-29T06:52:33Z</time>
      </trkpt>
      <trkpt lat="44.40976" lon="5.20164">
        <ele>354</ele>
        <time>2022-09-29T06:52:34Z</time>
      </trkpt>
      <trkpt lat="44.40977" lon="5.20164">
        <ele>354</ele>
        <time>2022-09-29T06:52:35Z</time>
      </trkpt>
      <trkpt lat="44.40978" lon="5.20164">
        <ele>354</ele>
        <time>2022-09-29T06:52:36Z</time>
      </trkpt>
      <trkpt lat="44.40979" lon="5.20164">
        <ele>354</ele>
        <time>2022-09-29T06:52:37Z</time>
      </trkpt>
      <trkpt lat="44.4098" lon="5.20165">
        <ele>354</ele>
        <time>2022-09-29T06:52:38Z</time>
      </trkpt>
      <trkpt lat="44.40981" lon="5.20165">
        <ele>354</ele>
        <time>2022-09-29T06:52:39Z</time>
      </trkpt>
      <trkpt lat="44.40982" lon="5.20165">
        <ele>354</ele>
        <time>2022-09-29T06:52:40Z</time>
      </trkpt>
      <trkpt lat="44.40983" lon="5.20166">
        <ele>354</ele>
        <time>2022-09-29T06:52:41Z</time>
      </trkpt>
      <trkpt lat="44.40984" lon="5.20166">
        <ele>354</ele>
        <time>2022-09-29T06:52:42Z</time>
      </trkpt>
      <trkpt lat="44.40985" lon="5.20167">
        <ele>354</ele>
        <time>2022-09-29T06:52:43Z</time>
      </trkpt>
      <trkpt lat="44.40986" lon="5.20167">
        <ele>354</ele>
        <time>2022-09-29T06:52:44Z</time>
      </trkpt>
      <trkpt lat="44.40987" lon="5.20168">
        <ele>354</ele>
        <time>2022-09-29T06:52:45Z</time>
      </trkpt>
      <trkpt lat="44.40988" lon="5.20168">
        <ele>354</ele>
        <time>2022-09-29T06:52:46Z</time>
      </trkpt>
      <trkpt lat="44.40989" lon="5.20169">
        <ele>354</ele>
        <time>2022-09-29T06:52:47Z</time>
      </trkpt>
      <trkpt lat="44.40989" lon="5.20169">
        <ele>354</ele>
        <time>2022-09-29T06:52:48Z</time>
      </trkpt>
      <trkpt lat="44.4099" lon="5.2017">
        <ele>354</ele>
        <time>2022-09-29T06:52:49Z</time>
      </trkpt>
      <trkpt lat="44.40991" lon="5.2017">
        <ele>354</ele>
        <time>2022-09-29T06:52:50Z</time>
      </trkpt>
      <trkpt lat="44.40992" lon="5.2017">
        <ele>354</ele>
        <time>2022-09-29T06:52:51Z</time>
      </trkpt>
      <trkpt lat="44.40993" lon="5.20171">
        <ele>354</ele>
        <time>2022-09-29T06:52:52Z</time>
      </trkpt>
      <trkpt lat="44.40994" lon="5.20171">
        <ele>354</ele>
        <time>2022-09-29T06:52:53Z</time>
      </trkpt>
      <trkpt lat="44.40995" lon="5.20172">
        <ele>354</ele>
        <time>2022-09-29T06:52:54Z</time>
      </trkpt>
      <trkpt lat="44.40996" lon="5.20172">
        <ele>354</ele>
        <time>2022-09-29T06:52:55Z</time>
      </trkpt>
      <trkpt lat="44.40998" lon="5.20172">
        <ele>354</ele>
        <time>2022-09-29T06:52:56Z</time>
      </trkpt>
      <trkpt lat="44.40999" lon="5.20173">
        <ele>354</ele>
        <time>2022-09-29T06:52:57Z</time>
      </trkpt>
      <trkpt lat="44.41" lon="5.20173">
        <ele>354</ele>
        <time>2022-09-29T06:52:58Z</time>
      </trkpt>
      <trkpt lat="44.41001" lon="5.20173">
        <ele>354</ele>
        <time>2022-09-29T06:52:59Z</time>
      </trkpt>
      <trkpt lat="44.41003" lon="5.20174">
        <ele>354</ele>
        <time>2022-09-29T06:53:00Z</time>
      </trkpt>
      <trkpt lat="44.41004" lon="5.20174">
        <ele>354</ele>
        <time>2022-09-29T06:53:01Z</time>
      </trkpt>
      <trkpt lat="44.41005" lon="5.20174">
        <ele>354</ele>
        <time>2022-09-29T06:53:02Z</time>
      </trkpt>
      <trkpt lat="44.41007" lon="5.20174">
        <ele>354</ele>
        <time>2022-09-29T06:53:03Z</time>
      </trkpt>
      <trkpt lat="44.41008" lon="5.20175">
        <ele>354</ele>
        <time>2022-09-29T06:53:04Z</time>
      </trkpt>
      <trkpt lat="44.41009" lon="5.20175">
        <ele>354</ele>
        <time>2022-09-29T06:53:05Z</time>
      </trkpt>
      <trkpt lat="44.41011" lon="5.20175">
        <ele>354</ele>
        <time>2022-09-29T06:53:06Z</time>
      </trkpt>
      <trkpt lat="44.41012" lon="5.20176">
        <ele>354</ele>
        <time>2022-09-29T06:53:07Z</time>
      </trkpt>
      <trkpt lat="44.41014" lon="5.20176">
        <ele>354</ele>
        <time>2022-09-29T06:53:08Z</time>
      </trkpt>
      <trkpt lat="44.41015" lon="5.20176">
        <ele>354</ele>
        <time>2022-09-29T06:53:09Z</time>
      </trkpt>
      <trkpt lat="44.41016" lon="5.20177">
        <ele>354</ele>
        <time>2022-09-29T06:53:10Z</time>
      </trkpt>
      <trkpt lat="44.41018" lon="5.20177">
        <ele>354</ele>
        <time>2022-09-29T06:53:11Z</time>
      </trkpt>
      <trkpt lat="44.41019" lon="5.20178">
        <ele>354</ele>
        <time>2022-09-29T06:53:12Z</time>
      </trkpt>
      <trkpt lat="44.4102" lon="5.20178">
        <ele>354</ele>
        <time>2022-09-29T06:53:13Z</time>
      </trkpt>
      <trkpt lat="44.41022" lon="5.20178">
        <ele>355</ele>
        <time>2022-09-29T06:53:14Z</time>
      </trkpt>
      <trkpt lat="44.41023" lon="5.20178">
        <ele>355</ele>
        <time>2022-09-29T06:53:15Z</time>
      </trkpt>
      <trkpt lat="44.41024" lon="5.20178">
        <ele>355</ele>
        <time>2022-09-29T06:53:16Z</time>
      </trkpt>
      <trkpt lat="44.41025" lon="5.20179">
        <ele>355</ele>
        <time>2022-09-29T06:53:17Z</time>
      </trkpt>
      <trkpt lat="44.41027" lon="5.20179">
        <ele>355</ele>
        <time>2022-09-29T06:53:18Z</time>
      </trkpt>
      <trkpt lat="44.41028" lon="5.20179">
        <ele>355</ele>
        <time>2022-09-29T06:53:19Z</time>
      </trkpt>
      <trkpt lat="44.41029" lon="5.20179">
        <ele>355</ele>
        <time>2022-09-29T06:53:20Z</time>
      </trkpt>
      <trkpt lat="44.4103" lon="5.20179">
        <ele>355</ele>
        <time>2022-09-29T06:53:21Z</time>
      </trkpt>
      <trkpt lat="44.41031" lon="5.2018">
        <ele>355</ele>
        <time>2022-09-29T06:53:22Z</time>
      </trkpt>
      <trkpt lat="44.41032" lon="5.2018">
        <ele>355</ele>
        <time>2022-09-29T06:53:23Z</time>
      </trkpt>
      <trkpt lat="44.41033" lon="5.2018">
        <ele>355</ele>
        <time>2022-09-29T06:53:24Z</time>
      </trkpt>
      <trkpt lat="44.41034" lon="5.2018">
        <ele>355</ele>
        <time>2022-09-29T06:53:25Z</time>
      </trkpt>
      <trkpt lat="44.41035" lon="5.20181">
        <ele>355</ele>
        <time>2022-09-29T06:53:26Z</time>
      </trkpt>
      <trkpt lat="44.41036" lon="5.20181">
        <ele>355</ele>
        <time>2022-09-29T06:53:27Z</time>
      </trkpt>
      <trkpt lat="44.41037" lon="5.20182">
        <ele>355</ele>
        <time>2022-09-29T06:53:28Z</time>
      </trkpt>
      <trkpt lat="44.41038" lon="5.20182">
        <ele>355</ele>
        <time>2022-09-29T06:53:29Z</time>
      </trkpt>
      <trkpt lat="44.41039" lon="5.20183">
        <ele>355</ele>
        <time>2022-09-29T06:53:30Z</time>
      </trkpt>
      <trkpt lat="44.4104" lon="5.20183">
        <ele>355</ele>
        <time>2022-09-29T06:53:31Z</time>
      </trkpt>
      <trkpt lat="44.41041" lon="5.20184">
        <ele>355</ele>
        <time>2022-09-29T06:53:32Z</time>
      </trkpt>
      <trkpt lat="44.41042" lon="5.20184">
        <ele>355</ele>
        <time>2022-09-29T06:53:33Z</time>
      </trkpt>
      <trkpt lat="44.41043" lon="5.20185">
        <ele>355</ele>
        <time>2022-09-29T06:53:34Z</time>
      </trkpt>
      <trkpt lat="44.41044" lon="5.20185">
        <ele>355</ele>
        <time>2022-09-29T06:53:35Z</time>
      </trkpt>
      <trkpt lat="44.41045" lon="5.20186">
        <ele>355</ele>
        <time>2022-09-29T06:53:36Z</time>
      </trkpt>
      <trkpt lat="44.41046" lon="5.20186">
        <ele>355</ele>
        <time>2022-09-29T06:53:37Z</time>
      </trkpt>
      <trkpt lat="44.41047" lon="5.20186">
        <ele>355</ele>
        <time>2022-09-29T06:53:38Z</time>
      </trkpt>
      <trkpt lat="44.41049" lon="5.20186">
        <ele>355</ele>
        <time>2022-09-29T06:53:39Z</time>
      </trkpt>
      <trkpt lat="44.4105" lon="5.20186">
        <ele>355</ele>
        <time>2022-09-29T06:53:40Z</time>
      </trkpt>
      <trkpt lat="44.41051" lon="5.20186">
        <ele>355</ele>
        <time>2022-09-29T06:53:41Z</time>
      </trkpt>
      <trkpt lat="44.41052" lon="5.20186">
        <ele>355</ele>
        <time>2022-09-29T06:53:42Z</time>
      </trkpt>
      <trkpt lat="44.41053" lon="5.20186">
        <ele>355</ele>
        <time>2022-09-29T06:53:43Z</time>
      </trkpt>
      <trkpt lat="44.41054" lon="5.20186">
        <ele>355</ele>
        <time>2022-09-29T06:53:44Z</time>
      </trkpt>
      <trkpt lat="44.41054" lon="5.20186">
        <ele>355</ele>
        <time>2022-09-29T06:53:45Z</time>
      </trkpt>
      <trkpt lat="44.41054" lon="5.20185">
        <ele>355</ele>
        <time>2022-09-29T06:53:46Z</time>
      </trkpt>
      <trkpt lat="44.41055" lon="5.20185">
        <ele>355</ele>
        <time>2022-09-29T06:53:47Z</time>
      </trkpt>
      <trkpt lat="44.41055" lon="5.20185">
        <ele>355</ele>
        <time>2022-09-29T06:53:48Z</time>
      </trkpt>
      <trkpt lat="44.41055" lon="5.20185">
        <ele>356</ele>
        <time>2022-09-29T06:53:49Z</time>
      </trkpt>
      <trkpt lat="44.41055" lon="5.20185">
        <ele>356</ele>
        <time>2022-09-29T06:53:50Z</time>
      </trkpt>
      <trkpt lat="44.41056" lon="5.20185">
        <ele>356</ele>
        <time>2022-09-29T06:53:51Z</time>
      </trkpt>
      <trkpt lat="44.41056" lon="5.20184">
        <ele>356</ele>
        <time>2022-09-29T06:53:52Z</time>
      </trkpt>
      <trkpt lat="44.41057" lon="5.20183">
        <ele>356</ele>
        <time>2022-09-29T06:53:53Z</time>
      </trkpt>
      <trkpt lat="44.41058" lon="5.20182">
        <ele>356</ele>
        <time>2022-09-29T06:53:54Z</time>
      </trkpt>
      <trkpt lat="44.41059" lon="5.20182">
        <ele>356</ele>
        <time>2022-09-29T06:53:55Z</time>
      </trkpt>
      <trkpt lat="44.41059" lon="5.20181">
        <ele>356</ele>
        <time>2022-09-29T06:53:56Z</time>
      </trkpt>
      <trkpt lat="44.4106" lon="5.2018">
        <ele>356</ele>
        <time>2022-09-29T06:53:57Z</time>
      </trkpt>
      <trkpt lat="44.41061" lon="5.20179">
        <ele>356</ele>
        <time>2022-09-29T06:53:58Z</time>
      </trkpt>
      <trkpt lat="44.41061" lon="5.20178">
        <ele>356</ele>
        <time>2022-09-29T06:53:59Z</time>
      </trkpt>
      <trkpt lat="44.41062" lon="5.20177">
        <ele>356</ele>
        <time>2022-09-29T06:54:00Z</time>
      </trkpt>
      <trkpt lat="44.41062" lon="5.20175">
        <ele>356</ele>
        <time>2022-09-29T06:54:01Z</time>
      </trkpt>
      <trkpt lat="44.41063" lon="5.20174">
        <ele>356</ele>
        <time>2022-09-29T06:54:02Z</time>
      </trkpt>
      <trkpt lat="44.41063" lon="5.20173">
        <ele>356</ele>
        <time>2022-09-29T06:54:03Z</time>
      </trkpt>
      <trkpt lat="44.41063" lon="5.20172">
        <ele>356</ele>
        <time>2022-09-29T06:54:04Z</time>
      </trkpt>
      <trkpt lat="44.41064" lon="5.2017">
        <ele>356</ele>
        <time>2022-09-29T06:54:05Z</time>
      </trkpt>
      <trkpt lat="44.41064" lon="5.20169">
        <ele>356</ele>
        <time>2022-09-29T06:54:06Z</time>
      </trkpt>
      <trkpt lat="44.41064" lon="5.20168">
        <ele>356</ele>
        <time>2022-09-29T06:54:07Z</time>
      </trkpt>
      <trkpt lat="44.41065" lon="5.20166">
        <ele>356</ele>
        <time>2022-09-29T06:54:08Z</time>
      </trkpt>
      <trkpt lat="44.41065" lon="5.20165">
        <ele>356</ele>
        <time>2022-09-29T06:54:09Z</time>
      </trkpt>
      <trkpt lat="44.41065" lon="5.20163">
        <ele>356</ele>
        <time>2022-09-29T06:54:10Z</time>
      </trkpt>
      <trkpt lat="44.41066" lon="5.20162">
        <ele>356</ele>
        <time>2022-09-29T06:54:11Z</time>
      </trkpt>
      <trkpt lat="44.41066" lon="5.2016">
        <ele>356</ele>
        <time>2022-09-29T06:54:12Z</time>
      </trkpt>
      <trkpt lat="44.41067" lon="5.20159">
        <ele>356</ele>
        <time>2022-09-29T06:54:13Z</time>
      </trkpt>
      <trkpt lat="44.41067" lon="5.20157">
        <ele>356</ele>
        <time>2022-09-29T06:54:14Z</time>
      </trkpt>
      <trkpt lat="44.41067" lon="5.20155">
        <ele>356</ele>
        <time>2022-09-29T06:54:15Z</time>
      </trkpt>
      <trkpt lat="44.41068" lon="5.20153">
        <ele>356</ele>
        <time>2022-09-29T06:54:16Z</time>
      </trkpt>
      <trkpt lat="44.41068" lon="5.20151">
        <ele>356</ele>
        <time>2022-09-29T06:54:17Z</time>
      </trkpt>
      <trkpt lat="44.41068" lon="5.20149">
        <ele>356</ele>
        <time>2022-09-29T06:54:18Z</time>
      </trkpt>
      <trkpt lat="44.41068" lon="5.20148">
        <ele>356</ele>
        <time>2022-09-29T06:54:19Z</time>
      </trkpt>
      <trkpt lat="44.41068" lon="5.20146">
        <ele>356</ele>
        <time>2022-09-29T06:54:20Z</time>
      </trkpt>
      <trkpt lat="44.41069" lon="5.20144">
        <ele>356</ele>
        <time>2022-09-29T06:54:21Z</time>
      </trkpt>
      <trkpt lat="44.41069" lon="5.20142">
        <ele>356</ele>
        <time>2022-09-29T06:54:22Z</time>
      </trkpt>
      <trkpt lat="44.41069" lon="5.2014">
        <ele>356</ele>
        <time>2022-09-29T06:54:23Z</time>
      </trkpt>
      <trkpt lat="44.41069" lon="5.20138">
        <ele>356</ele>
        <time>2022-09-29T06:54:24Z</time>
      </trkpt>
      <trkpt lat="44.41069" lon="5.20137">
        <ele>356</ele>
        <time>2022-09-29T06:54:25Z</time>
      </trkpt>
      <trkpt lat="44.41069" lon="5.20135">
        <ele>356</ele>
        <time>2022-09-29T06:54:26Z</time>
      </trkpt>
      <trkpt lat="44.41069" lon="5.20133">
        <ele>356</ele>
        <time>2022-09-29T06:54:27Z</time>
      </trkpt>
      <trkpt lat="44.41069" lon="5.20131">
        <ele>356</ele>
        <time>2022-09-29T06:54:28Z</time>
      </trkpt>
      <trkpt lat="44.4107" lon="5.2013">
        <ele>356</ele>
        <time>2022-09-29T06:54:29Z</time>
      </trkpt>
      <trkpt lat="44.4107" lon="5.20128">
        <ele>356</ele>
        <time>2022-09-29T06:54:30Z</time>
      </trkpt>
      <trkpt lat="44.4107" lon="5.20127">
        <ele>356</ele>
        <time>2022-09-29T06:54:31Z</time>
      </trkpt>
      <trkpt lat="44.4107" lon="5.20125">
        <ele>356</ele>
        <time>2022-09-29T06:54:32Z</time>
      </trkpt>
      <trkpt lat="44.41071" lon="5.20124">
        <ele>356</ele>
        <time>2022-09-29T06:54:33Z</time>
      </trkpt>
      <trkpt lat="44.41071" lon="5.20123">
        <ele>356</ele>
        <time>2022-09-29T06:54:34Z</time>
      </trkpt>
      <trkpt lat="44.41071" lon="5.20121">
        <ele>356</ele>
        <time>2022-09-29T06:54:35Z</time>
      </trkpt>
      <trkpt lat="44.41072" lon="5.2012">
        <ele>356</ele>
        <time>2022-09-29T06:54:36Z</time>
      </trkpt>
      <trkpt lat="44.41072" lon="5.20119">
        <ele>356</ele>
        <time>2022-09-29T06:54:37Z</time>
      </trkpt>
      <trkpt lat="44.41072" lon="5.20117">
        <ele>356</ele>
        <time>2022-09-29T06:54:38Z</time>
      </trkpt>
      <trkpt lat="44.41073" lon="5.20116">
        <ele>356</ele>
        <time>2022-09-29T06:54:39Z</time>
      </trkpt>
      <trkpt lat="44.41073" lon="5.20114">
        <ele>356</ele>
        <time>2022-09-29T06:54:40Z</time>
      </trkpt>
      <trkpt lat="44.41074" lon="5.20113">
        <ele>356</ele>
        <time>2022-09-29T06:54:41Z</time>
      </trkpt>
      <trkpt lat="44.41074" lon="5.20112">
        <ele>356</ele>
        <time>2022-09-29T06:54:42Z</time>
      </trkpt>
      <trkpt lat="44.41075" lon="5.2011">
        <ele>356</ele>
        <time>2022-09-29T06:54:43Z</time>
      </trkpt>
      <trkpt lat="44.41075" lon="5.20109">
        <ele>356</ele>
        <time>2022-09-29T06:54:44Z</time>
      </trkpt>
      <trkpt lat="44.41076" lon="5.20108">
        <ele>356</ele>
        <time>2022-09-29T06:54:45Z</time>
      </trkpt>
      <trkpt lat="44.41076" lon="5.20107">
        <ele>356</ele>
        <time>2022-09-29T06:54:46Z</time>
      </trkpt>
      <trkpt lat="44.41076" lon="5.20105">
        <ele>356</ele>
        <time>2022-09-29T06:54:47Z</time>
      </trkpt>
      <trkpt lat="44.41077" lon="5.20104">
        <ele>356</ele>
        <time>2022-09-29T06:54:48Z</time>
      </trkpt>
      <trkpt lat="44.41077" lon="5.20102">
        <ele>356</ele>
        <time>2022-09-29T06:54:49Z</time>
      </trkpt>
      <trkpt lat="44.41078" lon="5.20101">
        <ele>356</ele>
        <time>2022-09-29T06:54:50Z</time>
      </trkpt>
      <trkpt lat="44.41078" lon="5.201">
        <ele>356</ele>
        <time>2022-09-29T06:54:51Z</time>
      </trkpt>
      <trkpt lat="44.41079" lon="5.20098">
        <ele>356</ele>
        <time>2022-09-29T06:54:52Z</time>
      </trkpt>
      <trkpt lat="44.41079" lon="5.20097">
        <ele>356</ele>
        <time>2022-09-29T06:54:53Z</time>
      </trkpt>
      <trkpt lat="44.41079" lon="5.20095">
        <ele>356</ele>
        <time>2022-09-29T06:54:54Z</time>
      </trkpt>
      <trkpt lat="44.4108" lon="5.20094">
        <ele>356</ele>
        <time>2022-09-29T06:54:55Z</time>
      </trkpt>
      <trkpt lat="44.4108" lon="5.20092">
        <ele>356</ele>
        <time>2022-09-29T06:54:56Z</time>
      </trkpt>
      <trkpt lat="44.41081" lon="5.20091">
        <ele>356</ele>
        <time>2022-09-29T06:54:57Z</time>
      </trkpt>
      <trkpt lat="44.41081" lon="5.20089">
        <ele>356</ele>
        <time>2022-09-29T06:54:58Z</time>
      </trkpt>
      <trkpt lat="44.41082" lon="5.20087">
        <ele>356</ele>
        <time>2022-09-29T06:54:59Z</time>
      </trkpt>
      <trkpt lat="44.41082" lon="5.20086">
        <ele>356</ele>
        <time>2022-09-29T06:55:00Z</time>
      </trkpt>
      <trkpt lat="44.41083" lon="5.20084">
        <ele>356</ele>
        <time>2022-09-29T06:55:01Z</time>
      </trkpt>
      <trkpt lat="44.41083" lon="5.20083">
        <ele>356</ele>
        <time>2022-09-29T06:55:02Z</time>
      </trkpt>
      <trkpt lat="44.41084" lon="5.20081">
        <ele>356</ele>
        <time>2022-09-29T06:55:03Z</time>
      </trkpt>
      <trkpt lat="44.41084" lon="5.20079">
        <ele>356</ele>
        <time>2022-09-29T06:55:04Z</time>
      </trkpt>
      <trkpt lat="44.41084" lon="5.20078">
        <ele>356</ele>
        <time>2022-09-29T06:55:05Z</time>
      </trkpt>
      <trkpt lat="44.41085" lon="5.20076">
        <ele>356</ele>
        <time>2022-09-29T06:55:06Z</time>
      </trkpt>
      <trkpt lat="44.41085" lon="5.20075">
        <ele>356</ele>
        <time>2022-09-29T06:55:07Z</time>
      </trkpt>
      <trkpt lat="44.41086" lon="5.20073">
        <ele>356</ele>
        <time>2022-09-29T06:55:08Z</time>
      </trkpt>
      <trkpt lat="44.41086" lon="5.20072">
        <ele>356</ele>
        <time>2022-09-29T06:55:09Z</time>
      </trkpt>
      <trkpt lat="44.41087" lon="5.2007">
        <ele>356</ele>
        <time>2022-09-29T06:55:10Z</time>
      </trkpt>
      <trkpt lat="44.41087" lon="5.20069">
        <ele>356</ele>
        <time>2022-09-29T06:55:11Z</time>
      </trkpt>
      <trkpt lat="44.41088" lon="5.20067">
        <ele>356</ele>
        <time>2022-09-29T06:55:12Z</time>
      </trkpt>
      <trkpt lat="44.41088" lon="5.20066">
        <ele>356</ele>
        <time>2022-09-29T06:55:13Z</time>
      </trkpt>
      <trkpt lat="44.41089" lon="5.20064">
        <ele>356</ele>
        <time>2022-09-29T06:55:14Z</time>
      </trkpt>
      <trkpt lat="44.41089" lon="5.20063">
        <ele>356</ele>
        <time>2022-09-29T06:55:15Z</time>
      </trkpt>
      <trkpt lat="44.4109" lon="5.20061">
        <ele>356</ele>
        <time>2022-09-29T06:55:16Z</time>
      </trkpt>
      <trkpt lat="44.4109" lon="5.2006">
        <ele>356</ele>
        <time>2022-09-29T06:55:17Z</time>
      </trkpt>
      <trkpt lat="44.4109" lon="5.20058">
        <ele>356</ele>
        <time>2022-09-29T06:55:18Z</time>
      </trkpt>
      <trkpt lat="44.41091" lon="5.20057">
        <ele>356</ele>
        <time>2022-09-29T06:55:19Z</time>
      </trkpt>
      <trkpt lat="44.41091" lon="5.20055">
        <ele>356</ele>
        <time>2022-09-29T06:55:20Z</time>
      </trkpt>
      <trkpt lat="44.41092" lon="5.20054">
        <ele>356</ele>
        <time>2022-09-29T06:55:21Z</time>
      </trkpt>
      <trkpt lat="44.41092" lon="5.20052">
        <ele>356</ele>
        <time>2022-09-29T06:55:22Z</time>
      </trkpt>
      <trkpt lat="44.41092" lon="5.2005">
        <ele>356</ele>
        <time>2022-09-29T06:55:23Z</time>
      </trkpt>
      <trkpt lat="44.41093" lon="5.20049">
        <ele>357</ele>
        <time>2022-09-29T06:55:24Z</time>
      </trkpt>
      <trkpt lat="44.41093" lon="5.20047">
        <ele>357</ele>
        <time>2022-09-29T06:55:25Z</time>
      </trkpt>
      <trkpt lat="44.41093" lon="5.20046">
        <ele>357</ele>
        <time>2022-09-29T06:55:26Z</time>
      </trkpt>
      <trkpt lat="44.41094" lon="5.20044">
        <ele>357</ele>
        <time>2022-09-29T06:55:27Z</time>
      </trkpt>
      <trkpt lat="44.41094" lon="5.20043">
        <ele>357</ele>
        <time>2022-09-29T06:55:28Z</time>
      </trkpt>
      <trkpt lat="44.41095" lon="5.20041">
        <ele>357</ele>
        <time>2022-09-29T06:55:29Z</time>
      </trkpt>
      <trkpt lat="44.41095" lon="5.2004">
        <ele>357</ele>
        <time>2022-09-29T06:55:30Z</time>
      </trkpt>
      <trkpt lat="44.41095" lon="5.20038">
        <ele>357</ele>
        <time>2022-09-29T06:55:31Z</time>
      </trkpt>
      <trkpt lat="44.41096" lon="5.20037">
        <ele>357</ele>
        <time>2022-09-29T06:55:32Z</time>
      </trkpt>
      <trkpt lat="44.41096" lon="5.20035">
        <ele>357</ele>
        <time>2022-09-29T06:55:33Z</time>
      </trkpt>
      <trkpt lat="44.41097" lon="5.20034">
        <ele>357</ele>
        <time>2022-09-29T06:55:34Z</time>
      </trkpt>
      <trkpt lat="44.41097" lon="5.20032">
        <ele>357</ele>
        <time>2022-09-29T06:55:35Z</time>
      </trkpt>
      <trkpt lat="44.41098" lon="5.2003">
        <ele>357</ele>
        <time>2022-09-29T06:55:36Z</time>
      </trkpt>
      <trkpt lat="44.41098" lon="5.20029">
        <ele>357</ele>
        <time>2022-09-29T06:55:37Z</time>
      </trkpt>
      <trkpt lat="44.41099" lon="5.20027">
        <ele>357</ele>
        <time>2022-09-29T06:55:38Z</time>
      </trkpt>
      <trkpt lat="44.41099" lon="5.20026">
        <ele>357</ele>
        <time>2022-09-29T06:55:39Z</time>
      </trkpt>
      <trkpt lat="44.411" lon="5.20024">
        <ele>357</ele>
        <time>2022-09-29T06:55:40Z</time>
      </trkpt>
      <trkpt lat="44.411" lon="5.20023">
        <ele>357</ele>
        <time>2022-09-29T06:55:41Z</time>
      </trkpt>
      <trkpt lat="44.41101" lon="5.20021">
        <ele>357</ele>
        <time>2022-09-29T06:55:42Z</time>
      </trkpt>
      <trkpt lat="44.41101" lon="5.2002">
        <ele>357</ele>
        <time>2022-09-29T06:55:43Z</time>
      </trkpt>
      <trkpt lat="44.41102" lon="5.20018">
        <ele>357</ele>
        <time>2022-09-29T06:55:44Z</time>
      </trkpt>
      <trkpt lat="44.41103" lon="5.20017">
        <ele>357</ele>
        <time>2022-09-29T06:55:45Z</time>
      </trkpt>
      <trkpt lat="44.41103" lon="5.20016">
        <ele>357</ele>
        <time>2022-09-29T06:55:46Z</time>
      </trkpt>
      <trkpt lat="44.41104" lon="5.20014">
        <ele>357</ele>
        <time>2022-09-29T06:55:47Z</time>
      </trkpt>
      <trkpt lat="44.41105" lon="5.20013">
        <ele>357</ele>
        <time>2022-09-29T06:55:48Z</time>
      </trkpt>
      <trkpt lat="44.41105" lon="5.20012">
        <ele>357</ele>
        <time>2022-09-29T06:55:49Z</time>
      </trkpt>
      <trkpt lat="44.41106" lon="5.20011">
        <ele>357</ele>
        <time>2022-09-29T06:55:50Z</time>
      </trkpt>
      <trkpt lat="44.41107" lon="5.2001">
        <ele>357</ele>
        <time>2022-09-29T06:55:51Z</time>
      </trkpt>
      <trkpt lat="44.41108" lon="5.20008">
        <ele>357</ele>
        <time>2022-09-29T06:55:52Z</time>
      </trkpt>
      <trkpt lat="44.41108" lon="5.20007">
        <ele>357</ele>
        <time>2022-09-29T06:55:53Z</time>
      </trkpt>
      <trkpt lat="44.41109" lon="5.20006">
        <ele>357</ele>
        <time>2022-09-29T06:55:54Z</time>
      </trkpt>
      <trkpt lat="44.4111" lon="5.20005">
        <ele>357</ele>
        <time>2022-09-29T06:55:55Z</time>
      </trkpt>
      <trkpt lat="44.41111" lon="5.20004">
        <ele>357</ele>
        <time>2022-09-29T06:55:56Z</time>
      </trkpt>
      <trkpt lat="44.41112" lon="5.20003">
        <ele>357</ele>
        <time>2022-09-29T06:55:57Z</time>
      </trkpt>
      <trkpt lat="44.41112" lon="5.20002">
        <ele>357</ele>
        <time>2022-09-29T06:55:58Z</time>
      </trkpt>
      <trkpt lat="44.41113" lon="5.2">
        <ele>357</ele>
        <time>2022-09-29T06:55:59Z</time>
      </trkpt>
      <trkpt lat="44.41114" lon="5.19999">
        <ele>357</ele>
        <time>2022-09-29T06:56:00Z</time>
      </trkpt>
      <trkpt lat="44.41115" lon="5.19998">
        <ele>357</ele>
        <time>2022-09-29T06:56:01Z</time>
      </trkpt>
      <trkpt lat="44.41116" lon="5.19997">
        <ele>357</ele>
        <time>2022-09-29T06:56:02Z</time>
      </trkpt>
      <trkpt lat="44.41116" lon="5.19996">
        <ele>357</ele>
        <time>2022-09-29T06:56:03Z</time>
      </trkpt>
      <trkpt lat="44.41117" lon="5.19995">
        <ele>357</ele>
        <time>2022-09-29T06:56:04Z</time>
      </trkpt>
      <trkpt lat="44.41118" lon="5.19994">
        <ele>357</ele>
        <time>2022-09-29T06:56:05Z</time>
      </trkpt>
      <trkpt lat="44.41119" lon="5.19994">
        <ele>357</ele>
        <time>2022-09-29T06:56:06Z</time>
      </trkpt>
      <trkpt lat="44.4112" lon="5.19993">
        <ele>357</ele>
        <time>2022-09-29T06:56:07Z</time>
      </trkpt>
      <trkpt lat="44.41121" lon="5.19992">
        <ele>357</ele>
        <time>2022-09-29T06:56:08Z</time>
      </trkpt>
      <trkpt lat="44.41122" lon="5.19991">
        <ele>357</ele>
        <time>2022-09-29T06:56:09Z</time>
      </trkpt>
      <trkpt lat="44.41123" lon="5.1999">
        <ele>357</ele>
        <time>2022-09-29T06:56:10Z</time>
      </trkpt>
      <trkpt lat="44.41124" lon="5.19989">
        <ele>357</ele>
        <time>2022-09-29T06:56:11Z</time>
      </trkpt>
      <trkpt lat="44.41125" lon="5.19988">
        <ele>357</ele>
        <time>2022-09-29T06:56:12Z</time>
      </trkpt>
      <trkpt lat="44.41126" lon="5.19987">
        <ele>357</ele>
        <time>2022-09-29T06:56:13Z</time>
      </trkpt>
      <trkpt lat="44.41127" lon="5.19987">
        <ele>357</ele>
        <time>2022-09-29T06:56:14Z</time>
      </trkpt>
      <trkpt lat="44.41129" lon="5.19986">
        <ele>357</ele>
        <time>2022-09-29T06:56:15Z</time>
      </trkpt>
      <trkpt lat="44.4113" lon="5.19985">
        <ele>357</ele>
        <time>2022-09-29T06:56:16Z</time>
      </trkpt>
      <trkpt lat="44.41131" lon="5.19984">
        <ele>357</ele>
        <time>2022-09-29T06:56:17Z</time>
      </trkpt>
      <trkpt lat="44.41132" lon="5.19984">
        <ele>357</ele>
        <time>2022-09-29T06:56:18Z</time>
      </trkpt>
      <trkpt lat="44.41134" lon="5.19983">
        <ele>357</ele>
        <time>2022-09-29T06:56:19Z</time>
      </trkpt>
      <trkpt lat="44.41135" lon="5.19983">
        <ele>357</ele>
        <time>2022-09-29T06:56:20Z</time>
      </trkpt>
      <trkpt lat="44.41136" lon="5.19982">
        <ele>357</ele>
        <time>2022-09-29T06:56:21Z</time>
      </trkpt>
      <trkpt lat="44.41137" lon="5.19981">
        <ele>357</ele>
        <time>2022-09-29T06:56:22Z</time>
      </trkpt>
      <trkpt lat="44.41138" lon="5.1998">
        <ele>357</ele>
        <time>2022-09-29T06:56:23Z</time>
      </trkpt>
      <trkpt lat="44.41139" lon="5.19979">
        <ele>358</ele>
        <time>2022-09-29T06:56:24Z</time>
      </trkpt>
      <trkpt lat="44.4114" lon="5.19978">
        <ele>358</ele>
        <time>2022-09-29T06:56:25Z</time>
      </trkpt>
      <trkpt lat="44.41141" lon="5.19977">
        <ele>358</ele>
        <time>2022-09-29T06:56:26Z</time>
      </trkpt>
      <trkpt lat="44.41142" lon="5.19976">
        <ele>358</ele>
        <time>2022-09-29T06:56:27Z</time>
      </trkpt>
      <trkpt lat="44.41143" lon="5.19975">
        <ele>358</ele>
        <time>2022-09-29T06:56:28Z</time>
      </trkpt>
      <trkpt lat="44.41144" lon="5.19974">
        <ele>358</ele>
        <time>2022-09-29T06:56:29Z</time>
      </trkpt>
      <trkpt lat="44.41146" lon="5.19973">
        <ele>358</ele>
        <time>2022-09-29T06:56:30Z</time>
      </trkpt>
      <trkpt lat="44.41147" lon="5.19972">
        <ele>358</ele>
        <time>2022-09-29T06:56:31Z</time>
      </trkpt>
      <trkpt lat="44.41148" lon="5.19971">
        <ele>358</ele>
        <time>2022-09-29T06:56:32Z</time>
      </trkpt>
      <trkpt lat="44.41149" lon="5.1997">
        <ele>358</ele>
        <time>2022-09-29T06:56:33Z</time>
      </trkpt>
      <trkpt lat="44.4115" lon="5.1997">
        <ele>358</ele>
        <time>2022-09-29T06:56:34Z</time>
      </trkpt>
      <trkpt lat="44.41151" lon="5.19969">
        <ele>358</ele>
        <time>2022-09-29T06:56:35Z</time>
      </trkpt>
      <trkpt lat="44.41152" lon="5.19968">
        <ele>358</ele>
        <time>2022-09-29T06:56:36Z</time>
      </trkpt>
      <trkpt lat="44.41153" lon="5.19967">
        <ele>358</ele>
        <time>2022-09-29T06:56:37Z</time>
      </trkpt>
      <trkpt lat="44.41154" lon="5.19966">
        <ele>358</ele>
        <time>2022-09-29T06:56:38Z</time>
      </trkpt>
      <trkpt lat="44.41154" lon="5.19966">
        <ele>358</ele>
        <time>2022-09-29T06:56:39Z</time>
      </trkpt>
      <trkpt lat="44.41155" lon="5.19965">
        <ele>358</ele>
        <time>2022-09-29T06:56:40Z</time>
      </trkpt>
      <trkpt lat="44.41156" lon="5.19964">
        <ele>358</ele>
        <time>2022-09-29T06:56:41Z</time>
      </trkpt>
      <trkpt lat="44.41157" lon="5.19963">
        <ele>358</ele>
        <time>2022-09-29T06:56:42Z</time>
      </trkpt>
      <trkpt lat="44.41158" lon="5.19962">
        <ele>358</ele>
        <time>2022-09-29T06:56:43Z</time>
      </trkpt>
      <trkpt lat="44.41159" lon="5.19961">
        <ele>358</ele>
        <time>2022-09-29T06:56:44Z</time>
      </trkpt>
      <trkpt lat="44.41159" lon="5.19961">
        <ele>358</ele>
        <time>2022-09-29T06:56:45Z</time>
      </trkpt>
      <trkpt lat="44.4116" lon="5.1996">
        <ele>358</ele>
        <time>2022-09-29T06:56:46Z</time>
      </trkpt>
      <trkpt lat="44.41161" lon="5.19959">
        <ele>358</ele>
        <time>2022-09-29T06:56:47Z</time>
      </trkpt>
      <trkpt lat="44.41162" lon="5.19958">
        <ele>358</ele>
        <time>2022-09-29T06:56:48Z</time>
      </trkpt>
      <trkpt lat="44.41163" lon="5.19957">
        <ele>359</ele>
        <time>2022-09-29T06:56:49Z</time>
      </trkpt>
      <trkpt lat="44.41164" lon="5.19956">
        <ele>359</ele>
        <time>2022-09-29T06:56:50Z</time>
      </trkpt>
      <trkpt lat="44.41165" lon="5.19955">
        <ele>359</ele>
        <time>2022-09-29T06:56:51Z</time>
      </trkpt>
      <trkpt lat="44.41166" lon="5.19955">
        <ele>359</ele>
        <time>2022-09-29T06:56:52Z</time>
      </trkpt>
      <trkpt lat="44.41167" lon="5.19954">
        <ele>359</ele>
        <time>2022-09-29T06:56:53Z</time>
      </trkpt>
      <trkpt lat="44.41167" lon="5.19953">
        <ele>359</ele>
        <time>2022-09-29T06:56:54Z</time>
      </trkpt>
      <trkpt lat="44.41168" lon="5.19952">
        <ele>359</ele>
        <time>2022-09-29T06:56:55Z</time>
      </trkpt>
      <trkpt lat="44.41169" lon="5.19951">
        <ele>359</ele>
        <time>2022-09-29T06:56:56Z</time>
      </trkpt>
      <trkpt lat="44.4117" lon="5.19951">
        <ele>359</ele>
        <time>2022-09-29T06:56:57Z</time>
      </trkpt>
      <trkpt lat="44.41171" lon="5.1995">
        <ele>359</ele>
        <time>2022-09-29T06:56:58Z</time>
      </trkpt>
      <trkpt lat="44.41172" lon="5.19949">
        <ele>359</ele>
        <time>2022-09-29T06:56:59Z</time>
      </trkpt>
      <trkpt lat="44.41173" lon="5.19948">
        <ele>359</ele>
        <time>2022-09-29T06:57:00Z</time>
      </trkpt>
      <trkpt lat="44.41174" lon="5.19947">
        <ele>359</ele>
        <time>2022-09-29T06:57:01Z</time>
      </trkpt>
      <trkpt lat="44.41176" lon="5.19946">
        <ele>359</ele>
        <time>2022-09-29T06:57:02Z</time>
      </trkpt>
      <trkpt lat="44.41177" lon="5.19945">
        <ele>359</ele>
        <time>2022-09-29T06:57:03Z</time>
      </trkpt>
      <trkpt lat="44.41178" lon="5.19944">
        <ele>359</ele>
        <time>2022-09-29T06:57:04Z</time>
      </trkpt>
      <trkpt lat="44.41179" lon="5.19943">
        <ele>359</ele>
        <time>2022-09-29T06:57:05Z</time>
      </trkpt>
      <trkpt lat="44.4118" lon="5.19943">
        <ele>359</ele>
        <time>2022-09-29T06:57:06Z</time>
      </trkpt>
      <trkpt lat="44.41181" lon="5.19942">
        <ele>359</ele>
        <time>2022-09-29T06:57:07Z</time>
      </trkpt>
      <trkpt lat="44.41182" lon="5.19941">
        <ele>359</ele>
        <time>2022-09-29T06:57:08Z</time>
      </trkpt>
      <trkpt lat="44.41183" lon="5.1994">
        <ele>360</ele>
        <time>2022-09-29T06:57:09Z</time>
      </trkpt>
      <trkpt lat="44.41184" lon="5.19939">
        <ele>360</ele>
        <time>2022-09-29T06:57:10Z</time>
      </trkpt>
      <trkpt lat="44.41185" lon="5.19939">
        <ele>360</ele>
        <time>2022-09-29T06:57:11Z</time>
      </trkpt>
      <trkpt lat="44.41186" lon="5.19938">
        <ele>360</ele>
        <time>2022-09-29T06:57:12Z</time>
      </trkpt>
      <trkpt lat="44.41187" lon="5.19937">
        <ele>360</ele>
        <time>2022-09-29T06:57:13Z</time>
      </trkpt>
      <trkpt lat="44.41189" lon="5.19936">
        <ele>360</ele>
        <time>2022-09-29T06:57:14Z</time>
      </trkpt>
      <trkpt lat="44.4119" lon="5.19936">
        <ele>360</ele>
        <time>2022-09-29T06:57:15Z</time>
      </trkpt>
      <trkpt lat="44.41191" lon="5.19935">
        <ele>360</ele>
        <time>2022-09-29T06:57:16Z</time>
      </trkpt>
      <trkpt lat="44.41192" lon="5.19934">
        <ele>360</ele>
        <time>2022-09-29T06:57:17Z</time>
      </trkpt>
      <trkpt lat="44.41193" lon="5.19933">
        <ele>360</ele>
        <time>2022-09-29T06:57:18Z</time>
      </trkpt>
      <trkpt lat="44.41194" lon="5.19932">
        <ele>360</ele>
        <time>2022-09-29T06:57:19Z</time>
      </trkpt>
      <trkpt lat="44.41195" lon="5.19931">
        <ele>360</ele>
        <time>2022-09-29T06:57:20Z</time>
      </trkpt>
      <trkpt lat="44.41196" lon="5.1993">
        <ele>360</ele>
        <time>2022-09-29T06:57:21Z</time>
      </trkpt>
      <trkpt lat="44.41196" lon="5.19929">
        <ele>360</ele>
        <time>2022-09-29T06:57:22Z</time>
      </trkpt>
      <trkpt lat="44.41198" lon="5.19929">
        <ele>360</ele>
        <time>2022-09-29T06:57:23Z</time>
      </trkpt>
      <trkpt lat="44.41199" lon="5.19928">
        <ele>360</ele>
        <time>2022-09-29T06:57:24Z</time>
      </trkpt>
      <trkpt lat="44.412" lon="5.19927">
        <ele>360</ele>
        <time>2022-09-29T06:57:25Z</time>
      </trkpt>
      <trkpt lat="44.41201" lon="5.19926">
        <ele>360</ele>
        <time>2022-09-29T06:57:26Z</time>
      </trkpt>
      <trkpt lat="44.41202" lon="5.19925">
        <ele>360</ele>
        <time>2022-09-29T06:57:27Z</time>
      </trkpt>
      <trkpt lat="44.41203" lon="5.19924">
        <ele>360</ele>
        <time>2022-09-29T06:57:28Z</time>
      </trkpt>
      <trkpt lat="44.41204" lon="5.19923">
        <ele>361</ele>
        <time>2022-09-29T06:57:29Z</time>
      </trkpt>
      <trkpt lat="44.41205" lon="5.19922">
        <ele>361</ele>
        <time>2022-09-29T06:57:30Z</time>
      </trkpt>
      <trkpt lat="44.41206" lon="5.19922">
        <ele>361</ele>
        <time>2022-09-29T06:57:31Z</time>
      </trkpt>
      <trkpt lat="44.41207" lon="5.19921">
        <ele>361</ele>
        <time>2022-09-29T06:57:32Z</time>
      </trkpt>
      <trkpt lat="44.41208" lon="5.1992">
        <ele>361</ele>
        <time>2022-09-29T06:57:33Z</time>
      </trkpt>
      <trkpt lat="44.41209" lon="5.19919">
        <ele>361</ele>
        <time>2022-09-29T06:57:34Z</time>
      </trkpt>
      <trkpt lat="44.4121" lon="5.19918">
        <ele>361</ele>
        <time>2022-09-29T06:57:35Z</time>
      </trkpt>
      <trkpt lat="44.41211" lon="5.19917">
        <ele>361</ele>
        <time>2022-09-29T06:57:36Z</time>
      </trkpt>
      <trkpt lat="44.41212" lon="5.19917">
        <ele>361</ele>
        <time>2022-09-29T06:57:37Z</time>
      </trkpt>
      <trkpt lat="44.41213" lon="5.19916">
        <ele>361</ele>
        <time>2022-09-29T06:57:38Z</time>
      </trkpt>
      <trkpt lat="44.41214" lon="5.19915">
        <ele>361</ele>
        <time>2022-09-29T06:57:39Z</time>
      </trkpt>
      <trkpt lat="44.41214" lon="5.19915">
        <ele>361</ele>
        <time>2022-09-29T06:57:40Z</time>
      </trkpt>
      <trkpt lat="44.41215" lon="5.19914">
        <ele>361</ele>
        <time>2022-09-29T06:57:41Z</time>
      </trkpt>
      <trkpt lat="44.41216" lon="5.19913">
        <ele>361</ele>
        <time>2022-09-29T06:57:42Z</time>
      </trkpt>
      <trkpt lat="44.41217" lon="5.19913">
        <ele>361</ele>
        <time>2022-09-29T06:57:43Z</time>
      </trkpt>
      <trkpt lat="44.41218" lon="5.19912">
        <ele>361</ele>
        <time>2022-09-29T06:57:44Z</time>
      </trkpt>
      <trkpt lat="44.41219" lon="5.19911">
        <ele>361</ele>
        <time>2022-09-29T06:57:45Z</time>
      </trkpt>
      <trkpt lat="44.4122" lon="5.19911">
        <ele>361</ele>
        <time>2022-09-29T06:57:46Z</time>
      </trkpt>
      <trkpt lat="44.41221" lon="5.1991">
        <ele>361</ele>
        <time>2022-09-29T06:57:47Z</time>
      </trkpt>
      <trkpt lat="44.41222" lon="5.19909">
        <ele>361</ele>
        <time>2022-09-29T06:57:48Z</time>
      </trkpt>
      <trkpt lat="44.41222" lon="5.19908">
        <ele>361</ele>
        <time>2022-09-29T06:57:49Z</time>
      </trkpt>
      <trkpt lat="44.41223" lon="5.19907">
        <ele>361</ele>
        <time>2022-09-29T06:57:50Z</time>
      </trkpt>
      <trkpt lat="44.41224" lon="5.19905">
        <ele>361</ele>
        <time>2022-09-29T06:57:51Z</time>
      </trkpt>
      <trkpt lat="44.41225" lon="5.19904">
        <ele>361</ele>
        <time>2022-09-29T06:57:52Z</time>
      </trkpt>
      <trkpt lat="44.41226" lon="5.19903">
        <ele>361</ele>
        <time>2022-09-29T06:57:53Z</time>
      </trkpt>
      <trkpt lat="44.41226" lon="5.19902">
        <ele>361</ele>
        <time>2022-09-29T06:57:54Z</time>
      </trkpt>
      <trkpt lat="44.41227" lon="5.19901">
        <ele>361</ele>
        <time>2022-09-29T06:57:55Z</time>
      </trkpt>
      <trkpt lat="44.41228" lon="5.199">
        <ele>361</ele>
        <time>2022-09-29T06:57:56Z</time>
      </trkpt>
      <trkpt lat="44.41229" lon="5.19899">
        <ele>361</ele>
        <time>2022-09-29T06:57:57Z</time>
      </trkpt>
      <trkpt lat="44.4123" lon="5.19898">
        <ele>361</ele>
        <time>2022-09-29T06:57:58Z</time>
      </trkpt>
      <trkpt lat="44.41231" lon="5.19897">
        <ele>361</ele>
        <time>2022-09-29T06:57:59Z</time>
      </trkpt>
      <trkpt lat="44.41232" lon="5.19896">
        <ele>361</ele>
        <time>2022-09-29T06:58:00Z</time>
      </trkpt>
      <trkpt lat="44.41233" lon="5.19895">
        <ele>361</ele>
        <time>2022-09-29T06:58:01Z</time>
      </trkpt>
      <trkpt lat="44.41234" lon="5.19893">
        <ele>361</ele>
        <time>2022-09-29T06:58:02Z</time>
      </trkpt>
      <trkpt lat="44.41235" lon="5.19892">
        <ele>361</ele>
        <time>2022-09-29T06:58:03Z</time>
      </trkpt>
      <trkpt lat="44.41236" lon="5.19891">
        <ele>362</ele>
        <time>2022-09-29T06:58:04Z</time>
      </trkpt>
      <trkpt lat="44.41237" lon="5.1989">
        <ele>362</ele>
        <time>2022-09-29T06:58:05Z</time>
      </trkpt>
      <trkpt lat="44.41237" lon="5.19888">
        <ele>362</ele>
        <time>2022-09-29T06:58:06Z</time>
      </trkpt>
      <trkpt lat="44.41238" lon="5.19887">
        <ele>362</ele>
        <time>2022-09-29T06:58:07Z</time>
      </trkpt>
      <trkpt lat="44.41239" lon="5.19886">
        <ele>362</ele>
        <time>2022-09-29T06:58:08Z</time>
      </trkpt>
      <trkpt lat="44.4124" lon="5.19885">
        <ele>362</ele>
        <time>2022-09-29T06:58:09Z</time>
      </trkpt>
      <trkpt lat="44.41241" lon="5.19883">
        <ele>362</ele>
        <time>2022-09-29T06:58:10Z</time>
      </trkpt>
      <trkpt lat="44.41241" lon="5.19882">
        <ele>362</ele>
        <time>2022-09-29T06:58:11Z</time>
      </trkpt>
      <trkpt lat="44.41242" lon="5.19881">
        <ele>362</ele>
        <time>2022-09-29T06:58:12Z</time>
      </trkpt>
      <trkpt lat="44.41243" lon="5.1988">
        <ele>362</ele>
        <time>2022-09-29T06:58:13Z</time>
      </trkpt>
      <trkpt lat="44.41244" lon="5.19878">
        <ele>362</ele>
        <time>2022-09-29T06:58:14Z</time>
      </trkpt>
      <trkpt lat="44.41245" lon="5.19877">
        <ele>362</ele>
        <time>2022-09-29T06:58:15Z</time>
      </trkpt>
      <trkpt lat="44.41245" lon="5.19876">
        <ele>362</ele>
        <time>2022-09-29T06:58:16Z</time>
      </trkpt>
      <trkpt lat="44.41246" lon="5.19874">
        <ele>362</ele>
        <time>2022-09-29T06:58:17Z</time>
      </trkpt>
      <trkpt lat="44.41247" lon="5.19873">
        <ele>362</ele>
        <time>2022-09-29T06:58:18Z</time>
      </trkpt>
      <trkpt lat="44.41248" lon="5.19871">
        <ele>362</ele>
        <time>2022-09-29T06:58:19Z</time>
      </trkpt>
      <trkpt lat="44.41249" lon="5.1987">
        <ele>362</ele>
        <time>2022-09-29T06:58:20Z</time>
      </trkpt>
      <trkpt lat="44.4125" lon="5.19869">
        <ele>362</ele>
        <time>2022-09-29T06:58:21Z</time>
      </trkpt>
      <trkpt lat="44.4125" lon="5.19867">
        <ele>362</ele>
        <time>2022-09-29T06:58:22Z</time>
      </trkpt>
      <trkpt lat="44.41251" lon="5.19866">
        <ele>362</ele>
        <time>2022-09-29T06:58:23Z</time>
      </trkpt>
      <trkpt lat="44.41252" lon="5.19864">
        <ele>362</ele>
        <time>2022-09-29T06:58:24Z</time>
      </trkpt>
      <trkpt lat="44.41252" lon="5.19863">
        <ele>362</ele>
        <time>2022-09-29T06:58:25Z</time>
      </trkpt>
      <trkpt lat="44.41253" lon="5.19861">
        <ele>362</ele>
        <time>2022-09-29T06:58:26Z</time>
      </trkpt>
      <trkpt lat="44.41254" lon="5.1986">
        <ele>362</ele>
        <time>2022-09-29T06:58:27Z</time>
      </trkpt>
      <trkpt lat="44.41254" lon="5.19858">
        <ele>362</ele>
        <time>2022-09-29T06:58:28Z</time>
      </trkpt>
      <trkpt lat="44.41255" lon="5.19857">
        <ele>363</ele>
        <time>2022-09-29T06:58:29Z</time>
      </trkpt>
      <trkpt lat="44.41256" lon="5.19856">
        <ele>363</ele>
        <time>2022-09-29T06:58:30Z</time>
      </trkpt>
      <trkpt lat="44.41256" lon="5.19854">
        <ele>363</ele>
        <time>2022-09-29T06:58:31Z</time>
      </trkpt>
      <trkpt lat="44.41257" lon="5.19853">
        <ele>363</ele>
        <time>2022-09-29T06:58:32Z</time>
      </trkpt>
      <trkpt lat="44.41257" lon="5.19852">
        <ele>363</ele>
        <time>2022-09-29T06:58:33Z</time>
      </trkpt>
      <trkpt lat="44.41258" lon="5.1985">
        <ele>363</ele>
        <time>2022-09-29T06:58:34Z</time>
      </trkpt>
      <trkpt lat="44.41258" lon="5.19849">
        <ele>363</ele>
        <time>2022-09-29T06:58:35Z</time>
      </trkpt>
      <trkpt lat="44.41259" lon="5.19848">
        <ele>363</ele>
        <time>2022-09-29T06:58:36Z</time>
      </trkpt>
      <trkpt lat="44.41259" lon="5.19846">
        <ele>363</ele>
        <time>2022-09-29T06:58:37Z</time>
      </trkpt>
      <trkpt lat="44.41259" lon="5.19845">
        <ele>363</ele>
        <time>2022-09-29T06:58:38Z</time>
      </trkpt>
      <trkpt lat="44.4126" lon="5.19843">
        <ele>363</ele>
        <time>2022-09-29T06:58:39Z</time>
      </trkpt>
      <trkpt lat="44.4126" lon="5.19841">
        <ele>363</ele>
        <time>2022-09-29T06:58:40Z</time>
      </trkpt>
      <trkpt lat="44.4126" lon="5.1984">
        <ele>363</ele>
        <time>2022-09-29T06:58:41Z</time>
      </trkpt>
      <trkpt lat="44.4126" lon="5.19838">
        <ele>363</ele>
        <time>2022-09-29T06:58:42Z</time>
      </trkpt>
      <trkpt lat="44.41261" lon="5.19837">
        <ele>363</ele>
        <time>2022-09-29T06:58:43Z</time>
      </trkpt>
      <trkpt lat="44.41261" lon="5.19835">
        <ele>363</ele>
        <time>2022-09-29T06:58:44Z</time>
      </trkpt>
      <trkpt lat="44.41261" lon="5.19833">
        <ele>363</ele>
        <time>2022-09-29T06:58:45Z</time>
      </trkpt>
      <trkpt lat="44.41262" lon="5.19832">
        <ele>363</ele>
        <time>2022-09-29T06:58:46Z</time>
      </trkpt>
      <trkpt lat="44.41262" lon="5.1983">
        <ele>363</ele>
        <time>2022-09-29T06:58:47Z</time>
      </trkpt>
      <trkpt lat="44.41262" lon="5.19829">
        <ele>363</ele>
        <time>2022-09-29T06:58:48Z</time>
      </trkpt>
      <trkpt lat="44.41262" lon="5.19828">
        <ele>363</ele>
        <time>2022-09-29T06:58:49Z</time>
      </trkpt>
      <trkpt lat="44.41263" lon="5.19826">
        <ele>363</ele>
        <time>2022-09-29T06:58:50Z</time>
      </trkpt>
      <trkpt lat="44.41263" lon="5.19825">
        <ele>363</ele>
        <time>2022-09-29T06:58:51Z</time>
      </trkpt>
      <trkpt lat="44.41263" lon="5.19824">
        <ele>363</ele>
        <time>2022-09-29T06:58:52Z</time>
      </trkpt>
      <trkpt lat="44.41263" lon="5.19822">
        <ele>363</ele>
        <time>2022-09-29T06:58:53Z</time>
      </trkpt>
      <trkpt lat="44.41263" lon="5.19821">
        <ele>363</ele>
        <time>2022-09-29T06:58:54Z</time>
      </trkpt>
      <trkpt lat="44.41264" lon="5.19819">
        <ele>363</ele>
        <time>2022-09-29T06:58:55Z</time>
      </trkpt>
      <trkpt lat="44.41264" lon="5.19817">
        <ele>363</ele>
        <time>2022-09-29T06:58:56Z</time>
      </trkpt>
      <trkpt lat="44.41265" lon="5.19815">
        <ele>363</ele>
        <time>2022-09-29T06:58:57Z</time>
      </trkpt>
      <trkpt lat="44.41265" lon="5.19814">
        <ele>363</ele>
        <time>2022-09-29T06:58:58Z</time>
      </trkpt>
      <trkpt lat="44.41265" lon="5.19812">
        <ele>363</ele>
        <time>2022-09-29T06:58:59Z</time>
      </trkpt>
      <trkpt lat="44.41265" lon="5.1981">
        <ele>363</ele>
        <time>2022-09-29T06:59:00Z</time>
      </trkpt>
      <trkpt lat="44.41266" lon="5.19809">
        <ele>363</ele>
        <time>2022-09-29T06:59:01Z</time>
      </trkpt>
      <trkpt lat="44.41266" lon="5.19807">
        <ele>363</ele>
        <time>2022-09-29T06:59:02Z</time>
      </trkpt>
      <trkpt lat="44.41266" lon="5.19806">
        <ele>363</ele>
        <time>2022-09-29T06:59:03Z</time>
      </trkpt>
      <trkpt lat="44.41266" lon="5.19804">
        <ele>364</ele>
        <time>2022-09-29T06:59:04Z</time>
      </trkpt>
      <trkpt lat="44.41266" lon="5.19803">
        <ele>364</ele>
        <time>2022-09-29T06:59:05Z</time>
      </trkpt>
      <trkpt lat="44.41266" lon="5.19801">
        <ele>364</ele>
        <time>2022-09-29T06:59:06Z</time>
      </trkpt>
      <trkpt lat="44.41266" lon="5.198">
        <ele>364</ele>
        <time>2022-09-29T06:59:07Z</time>
      </trkpt>
      <trkpt lat="44.41267" lon="5.19799">
        <ele>364</ele>
        <time>2022-09-29T06:59:08Z</time>
      </trkpt>
      <trkpt lat="44.41267" lon="5.19798">
        <ele>364</ele>
        <time>2022-09-29T06:59:09Z</time>
      </trkpt>
      <trkpt lat="44.41267" lon="5.19797">
        <ele>364</ele>
        <time>2022-09-29T06:59:10Z</time>
      </trkpt>
      <trkpt lat="44.41267" lon="5.19795">
        <ele>364</ele>
        <time>2022-09-29T06:59:11Z</time>
      </trkpt>
      <trkpt lat="44.41268" lon="5.19794">
        <ele>364</ele>
        <time>2022-09-29T06:59:12Z</time>
      </trkpt>
      <trkpt lat="44.41268" lon="5.19793">
        <ele>364</ele>
        <time>2022-09-29T06:59:13Z</time>
      </trkpt>
      <trkpt lat="44.41268" lon="5.19792">
        <ele>364</ele>
        <time>2022-09-29T06:59:14Z</time>
      </trkpt>
      <trkpt lat="44.41269" lon="5.1979">
        <ele>364</ele>
        <time>2022-09-29T06:59:15Z</time>
      </trkpt>
      <trkpt lat="44.41269" lon="5.19789">
        <ele>364</ele>
        <time>2022-09-29T06:59:16Z</time>
      </trkpt>
      <trkpt lat="44.41269" lon="5.19787">
        <ele>364</ele>
        <time>2022-09-29T06:59:17Z</time>
      </trkpt>
      <trkpt lat="44.4127" lon="5.19786">
        <ele>364</ele>
        <time>2022-09-29T06:59:18Z</time>
      </trkpt>
      <trkpt lat="44.4127" lon="5.19784">
        <ele>364</ele>
        <time>2022-09-29T06:59:19Z</time>
      </trkpt>
      <trkpt lat="44.4127" lon="5.19782">
        <ele>364</ele>
        <time>2022-09-29T06:59:20Z</time>
      </trkpt>
      <trkpt lat="44.4127" lon="5.1978">
        <ele>364</ele>
        <time>2022-09-29T06:59:21Z</time>
      </trkpt>
      <trkpt lat="44.4127" lon="5.19779">
        <ele>364</ele>
        <time>2022-09-29T06:59:22Z</time>
      </trkpt>
      <trkpt lat="44.41271" lon="5.19777">
        <ele>364</ele>
        <time>2022-09-29T06:59:23Z</time>
      </trkpt>
      <trkpt lat="44.41271" lon="5.19776">
        <ele>364</ele>
        <time>2022-09-29T06:59:24Z</time>
      </trkpt>
      <trkpt lat="44.41271" lon="5.19774">
        <ele>364</ele>
        <time>2022-09-29T06:59:25Z</time>
      </trkpt>
      <trkpt lat="44.41271" lon="5.19773">
        <ele>364</ele>
        <time>2022-09-29T06:59:26Z</time>
      </trkpt>
      <trkpt lat="44.41271" lon="5.19772">
        <ele>364</ele>
        <time>2022-09-29T06:59:27Z</time>
      </trkpt>
      <trkpt lat="44.41271" lon="5.19771">
        <ele>364</ele>
        <time>2022-09-29T06:59:28Z</time>
      </trkpt>
      <trkpt lat="44.41271" lon="5.1977">
        <ele>365</ele>
        <time>2022-09-29T06:59:29Z</time>
      </trkpt>
      <trkpt lat="44.41271" lon="5.19768">
        <ele>365</ele>
        <time>2022-09-29T06:59:30Z</time>
      </trkpt>
      <trkpt lat="44.41271" lon="5.19767">
        <ele>365</ele>
        <time>2022-09-29T06:59:31Z</time>
      </trkpt>
      <trkpt lat="44.41271" lon="5.19766">
        <ele>365</ele>
        <time>2022-09-29T06:59:32Z</time>
      </trkpt>
      <trkpt lat="44.41272" lon="5.19764">
        <ele>365</ele>
        <time>2022-09-29T06:59:33Z</time>
      </trkpt>
      <trkpt lat="44.41272" lon="5.19763">
        <ele>365</ele>
        <time>2022-09-29T06:59:34Z</time>
      </trkpt>
      <trkpt lat="44.41273" lon="5.19761">
        <ele>365</ele>
        <time>2022-09-29T06:59:35Z</time>
      </trkpt>
      <trkpt lat="44.41273" lon="5.1976">
        <ele>365</ele>
        <time>2022-09-29T06:59:36Z</time>
      </trkpt>
      <trkpt lat="44.41273" lon="5.19758">
        <ele>365</ele>
        <time>2022-09-29T06:59:37Z</time>
      </trkpt>
      <trkpt lat="44.41273" lon="5.19757">
        <ele>365</ele>
        <time>2022-09-29T06:59:38Z</time>
      </trkpt>
      <trkpt lat="44.41273" lon="5.19755">
        <ele>365</ele>
        <time>2022-09-29T06:59:39Z</time>
      </trkpt>
      <trkpt lat="44.41273" lon="5.19754">
        <ele>365</ele>
        <time>2022-09-29T06:59:40Z</time>
      </trkpt>
      <trkpt lat="44.41274" lon="5.19752">
        <ele>365</ele>
        <time>2022-09-29T06:59:41Z</time>
      </trkpt>
      <trkpt lat="44.41274" lon="5.1975">
        <ele>365</ele>
        <time>2022-09-29T06:59:42Z</time>
      </trkpt>
      <trkpt lat="44.41274" lon="5.19748">
        <ele>365</ele>
        <time>2022-09-29T06:59:43Z</time>
      </trkpt>
      <trkpt lat="44.41275" lon="5.19747">
        <ele>365</ele>
        <time>2022-09-29T06:59:44Z</time>
      </trkpt>
      <trkpt lat="44.41275" lon="5.19745">
        <ele>365</ele>
        <time>2022-09-29T06:59:45Z</time>
      </trkpt>
      <trkpt lat="44.41275" lon="5.19743">
        <ele>365</ele>
        <time>2022-09-29T06:59:46Z</time>
      </trkpt>
      <trkpt lat="44.41276" lon="5.19742">
        <ele>365</ele>
        <time>2022-09-29T06:59:47Z</time>
      </trkpt>
      <trkpt lat="44.41276" lon="5.1974">
        <ele>365</ele>
        <time>2022-09-29T06:59:48Z</time>
      </trkpt>
      <trkpt lat="44.41276" lon="5.19738">
        <ele>365</ele>
        <time>2022-09-29T06:59:49Z</time>
      </trkpt>
      <trkpt lat="44.41277" lon="5.19737">
        <ele>365</ele>
        <time>2022-09-29T06:59:50Z</time>
      </trkpt>
      <trkpt lat="44.41277" lon="5.19735">
        <ele>365</ele>
        <time>2022-09-29T06:59:51Z</time>
      </trkpt>
      <trkpt lat="44.41278" lon="5.19734">
        <ele>365</ele>
        <time>2022-09-29T06:59:52Z</time>
      </trkpt>
      <trkpt lat="44.41278" lon="5.19733">
        <ele>365</ele>
        <time>2022-09-29T06:59:53Z</time>
      </trkpt>
      <trkpt lat="44.41279" lon="5.19731">
        <ele>365</ele>
        <time>2022-09-29T06:59:54Z</time>
      </trkpt>
      <trkpt lat="44.41279" lon="5.1973">
        <ele>365</ele>
        <time>2022-09-29T06:59:55Z</time>
      </trkpt>
      <trkpt lat="44.4128" lon="5.19728">
        <ele>365</ele>
        <time>2022-09-29T06:59:56Z</time>
      </trkpt>
      <trkpt lat="44.4128" lon="5.19727">
        <ele>365</ele>
        <time>2022-09-29T06:59:57Z</time>
      </trkpt>
      <trkpt lat="44.4128" lon="5.19725">
        <ele>365</ele>
        <time>2022-09-29T06:59:58Z</time>
      </trkpt>
      <trkpt lat="44.41281" lon="5.19724">
        <ele>365</ele>
        <time>2022-09-29T06:59:59Z</time>
      </trkpt>
      <trkpt lat="44.41281" lon="5.19722">
        <ele>365</ele>
        <time>2022-09-29T07:00:00Z</time>
      </trkpt>
      <trkpt lat="44.41282" lon="5.1972">
        <ele>365</ele>
        <time>2022-09-29T07:00:01Z</time>
      </trkpt>
      <trkpt lat="44.41282" lon="5.19718">
        <ele>365</ele>
        <time>2022-09-29T07:00:02Z</time>
      </trkpt>
      <trkpt lat="44.41283" lon="5.19717">
        <ele>365</ele>
        <time>2022-09-29T07:00:03Z</time>
      </trkpt>
      <trkpt lat="44.41283" lon="5.19715">
        <ele>366</ele>
        <time>2022-09-29T07:00:04Z</time>
      </trkpt>
      <trkpt lat="44.41284" lon="5.19713">
        <ele>366</ele>
        <time>2022-09-29T07:00:05Z</time>
      </trkpt>
      <trkpt lat="44.41284" lon="5.19712">
        <ele>366</ele>
        <time>2022-09-29T07:00:06Z</time>
      </trkpt>
      <trkpt lat="44.41285" lon="5.1971">
        <ele>366</ele>
        <time>2022-09-29T07:00:07Z</time>
      </trkpt>
      <trkpt lat="44.41285" lon="5.19709">
        <ele>366</ele>
        <time>2022-09-29T07:00:08Z</time>
      </trkpt>
      <trkpt lat="44.41286" lon="5.19707">
        <ele>366</ele>
        <time>2022-09-29T07:00:09Z</time>
      </trkpt>
      <trkpt lat="44.41287" lon="5.19706">
        <ele>366</ele>
        <time>2022-09-29T07:00:10Z</time>
      </trkpt>
      <trkpt lat="44.41287" lon="5.19704">
        <ele>366</ele>
        <time>2022-09-29T07:00:11Z</time>
      </trkpt>
      <trkpt lat="44.41288" lon="5.19703">
        <ele>366</ele>
        <time>2022-09-29T07:00:12Z</time>
      </trkpt>
      <trkpt lat="44.41288" lon="5.19702">
        <ele>366</ele>
        <time>2022-09-29T07:00:13Z</time>
      </trkpt>
      <trkpt lat="44.41289" lon="5.197">
        <ele>366</ele>
        <time>2022-09-29T07:00:14Z</time>
      </trkpt>
      <trkpt lat="44.41289" lon="5.19699">
        <ele>366</ele>
        <time>2022-09-29T07:00:15Z</time>
      </trkpt>
      <trkpt lat="44.4129" lon="5.19697">
        <ele>366</ele>
        <time>2022-09-29T07:00:16Z</time>
      </trkpt>
      <trkpt lat="44.41291" lon="5.19696">
        <ele>366</ele>
        <time>2022-09-29T07:00:17Z</time>
      </trkpt>
      <trkpt lat="44.41291" lon="5.19695">
        <ele>366</ele>
        <time>2022-09-29T07:00:18Z</time>
      </trkpt>
      <trkpt lat="44.41292" lon="5.19693">
        <ele>366</ele>
        <time>2022-09-29T07:00:19Z</time>
      </trkpt>
      <trkpt lat="44.41293" lon="5.19692">
        <ele>366</ele>
        <time>2022-09-29T07:00:20Z</time>
      </trkpt>
      <trkpt lat="44.41293" lon="5.19691">
        <ele>366</ele>
        <time>2022-09-29T07:00:21Z</time>
      </trkpt>
      <trkpt lat="44.41294" lon="5.1969">
        <ele>366</ele>
        <time>2022-09-29T07:00:22Z</time>
      </trkpt>
      <trkpt lat="44.41295" lon="5.19689">
        <ele>366</ele>
        <time>2022-09-29T07:00:23Z</time>
      </trkpt>
      <trkpt lat="44.41296" lon="5.19687">
        <ele>366</ele>
        <time>2022-09-29T07:00:24Z</time>
      </trkpt>
      <trkpt lat="44.41297" lon="5.19686">
        <ele>366</ele>
        <time>2022-09-29T07:00:25Z</time>
      </trkpt>
      <trkpt lat="44.41298" lon="5.19685">
        <ele>366</ele>
        <time>2022-09-29T07:00:26Z</time>
      </trkpt>
      <trkpt lat="44.41299" lon="5.19684">
        <ele>366</ele>
        <time>2022-09-29T07:00:27Z</time>
      </trkpt>
      <trkpt lat="44.413" lon="5.19682">
        <ele>366</ele>
        <time>2022-09-29T07:00:28Z</time>
      </trkpt>
      <trkpt lat="44.41301" lon="5.19681">
        <ele>366</ele>
        <time>2022-09-29T07:00:29Z</time>
      </trkpt>
      <trkpt lat="44.41302" lon="5.1968">
        <ele>366</ele>
        <time>2022-09-29T07:00:30Z</time>
      </trkpt>
      <trkpt lat="44.41303" lon="5.1968">
        <ele>366</ele>
        <time>2022-09-29T07:00:31Z</time>
      </trkpt>
      <trkpt lat="44.41304" lon="5.19679">
        <ele>366</ele>
        <time>2022-09-29T07:00:32Z</time>
      </trkpt>
      <trkpt lat="44.41305" lon="5.19678">
        <ele>366</ele>
        <time>2022-09-29T07:00:33Z</time>
      </trkpt>
      <trkpt lat="44.41306" lon="5.19677">
        <ele>367</ele>
        <time>2022-09-29T07:00:34Z</time>
      </trkpt>
      <trkpt lat="44.41307" lon="5.19676">
        <ele>367</ele>
        <time>2022-09-29T07:00:35Z</time>
      </trkpt>
      <trkpt lat="44.41308" lon="5.19676">
        <ele>367</ele>
        <time>2022-09-29T07:00:36Z</time>
      </trkpt>
      <trkpt lat="44.41309" lon="5.19675">
        <ele>367</ele>
        <time>2022-09-29T07:00:37Z</time>
      </trkpt>
      <trkpt lat="44.41311" lon="5.19675">
        <ele>367</ele>
        <time>2022-09-29T07:00:38Z</time>
      </trkpt>
      <trkpt lat="44.41312" lon="5.19674">
        <ele>367</ele>
        <time>2022-09-29T07:00:39Z</time>
      </trkpt>
      <trkpt lat="44.41313" lon="5.19674">
        <ele>367</ele>
        <time>2022-09-29T07:00:40Z</time>
      </trkpt>
      <trkpt lat="44.41314" lon="5.19673">
        <ele>367</ele>
        <time>2022-09-29T07:00:41Z</time>
      </trkpt>
      <trkpt lat="44.41315" lon="5.19673">
        <ele>367</ele>
        <time>2022-09-29T07:00:42Z</time>
      </trkpt>
      <trkpt lat="44.41316" lon="5.19673">
        <ele>367</ele>
        <time>2022-09-29T07:00:43Z</time>
      </trkpt>
      <trkpt lat="44.41317" lon="5.19672">
        <ele>367</ele>
        <time>2022-09-29T07:00:44Z</time>
      </trkpt>
      <trkpt lat="44.41319" lon="5.19672">
        <ele>367</ele>
        <time>2022-09-29T07:00:45Z</time>
      </trkpt>
      <trkpt lat="44.4132" lon="5.19672">
        <ele>367</ele>
        <time>2022-09-29T07:00:46Z</time>
      </trkpt>
      <trkpt lat="44.41321" lon="5.19672">
        <ele>367</ele>
        <time>2022-09-29T07:00:47Z</time>
      </trkpt>
      <trkpt lat="44.41322" lon="5.19672">
        <ele>367</ele>
        <time>2022-09-29T07:00:48Z</time>
      </trkpt>
      <trkpt lat="44.41323" lon="5.19672">
        <ele>367</ele>
        <time>2022-09-29T07:00:49Z</time>
      </trkpt>
      <trkpt lat="44.41324" lon="5.19672">
        <ele>367</ele>
        <time>2022-09-29T07:00:50Z</time>
      </trkpt>
      <trkpt lat="44.41325" lon="5.19672">
        <ele>367</ele>
        <time>2022-09-29T07:00:51Z</time>
      </trkpt>
      <trkpt lat="44.41325" lon="5.19672">
        <ele>367</ele>
        <time>2022-09-29T07:00:52Z</time>
      </trkpt>
      <trkpt lat="44.41326" lon="5.19672">
        <ele>367</ele>
        <time>2022-09-29T07:00:53Z</time>
      </trkpt>
      <trkpt lat="44.41327" lon="5.19673">
        <ele>368</ele>
        <time>2022-09-29T07:00:54Z</time>
      </trkpt>
      <trkpt lat="44.41328" lon="5.19673">
        <ele>368</ele>
        <time>2022-09-29T07:00:55Z</time>
      </trkpt>
      <trkpt lat="44.41329" lon="5.19673">
        <ele>368</ele>
        <time>2022-09-29T07:00:56Z</time>
      </trkpt>
      <trkpt lat="44.4133" lon="5.19674">
        <ele>368</ele>
        <time>2022-09-29T07:00:57Z</time>
      </trkpt>
      <trkpt lat="44.41331" lon="5.19674">
        <ele>368</ele>
        <time>2022-09-29T07:00:58Z</time>
      </trkpt>
      <trkpt lat="44.41332" lon="5.19674">
        <ele>368</ele>
        <time>2022-09-29T07:00:59Z</time>
      </trkpt>
      <trkpt lat="44.41333" lon="5.19673">
        <ele>368</ele>
        <time>2022-09-29T07:01:00Z</time>
      </trkpt>
      <trkpt lat="44.41335" lon="5.19673">
        <ele>368</ele>
        <time>2022-09-29T07:01:01Z</time>
      </trkpt>
      <trkpt lat="44.41336" lon="5.19673">
        <ele>368</ele>
        <time>2022-09-29T07:01:02Z</time>
      </trkpt>
      <trkpt lat="44.41337" lon="5.19673">
        <ele>368</ele>
        <time>2022-09-29T07:01:03Z</time>
      </trkpt>
      <trkpt lat="44.41338" lon="5.19673">
        <ele>368</ele>
        <time>2022-09-29T07:01:04Z</time>
      </trkpt>
      <trkpt lat="44.41339" lon="5.19673">
        <ele>368</ele>
        <time>2022-09-29T07:01:05Z</time>
      </trkpt>
      <trkpt lat="44.4134" lon="5.19673">
        <ele>368</ele>
        <time>2022-09-29T07:01:06Z</time>
      </trkpt>
      <trkpt lat="44.41341" lon="5.19672">
        <ele>368</ele>
        <time>2022-09-29T07:01:07Z</time>
      </trkpt>
      <trkpt lat="44.41343" lon="5.19672">
        <ele>368</ele>
        <time>2022-09-29T07:01:08Z</time>
      </trkpt>
      <trkpt lat="44.41344" lon="5.19672">
        <ele>368</ele>
        <time>2022-09-29T07:01:09Z</time>
      </trkpt>
      <trkpt lat="44.41345" lon="5.19672">
        <ele>368</ele>
        <time>2022-09-29T07:01:10Z</time>
      </trkpt>
      <trkpt lat="44.41346" lon="5.19671">
        <ele>368</ele>
        <time>2022-09-29T07:01:11Z</time>
      </trkpt>
      <trkpt lat="44.41347" lon="5.19671">
        <ele>368</ele>
        <time>2022-09-29T07:01:12Z</time>
      </trkpt>
      <trkpt lat="44.41349" lon="5.19671">
        <ele>368</ele>
        <time>2022-09-29T07:01:13Z</time>
      </trkpt>
      <trkpt lat="44.4135" lon="5.1967">
        <ele>368</ele>
        <time>2022-09-29T07:01:14Z</time>
      </trkpt>
      <trkpt lat="44.41351" lon="5.1967">
        <ele>368</ele>
        <time>2022-09-29T07:01:15Z</time>
      </trkpt>
      <trkpt lat="44.41352" lon="5.19669">
        <ele>368</ele>
        <time>2022-09-29T07:01:16Z</time>
      </trkpt>
      <trkpt lat="44.41353" lon="5.19669">
        <ele>368</ele>
        <time>2022-09-29T07:01:17Z</time>
      </trkpt>
      <trkpt lat="44.41354" lon="5.19669">
        <ele>368</ele>
        <time>2022-09-29T07:01:18Z</time>
      </trkpt>
      <trkpt lat="44.41356" lon="5.19668">
        <ele>369</ele>
        <time>2022-09-29T07:01:19Z</time>
      </trkpt>
      <trkpt lat="44.41357" lon="5.19668">
        <ele>369</ele>
        <time>2022-09-29T07:01:20Z</time>
      </trkpt>
      <trkpt lat="44.41358" lon="5.19668">
        <ele>369</ele>
        <time>2022-09-29T07:01:21Z</time>
      </trkpt>
      <trkpt lat="44.41359" lon="5.19667">
        <ele>369</ele>
        <time>2022-09-29T07:01:22Z</time>
      </trkpt>
      <trkpt lat="44.4136" lon="5.19667">
        <ele>369</ele>
        <time>2022-09-29T07:01:23Z</time>
      </trkpt>
      <trkpt lat="44.41361" lon="5.19666">
        <ele>369</ele>
        <time>2022-09-29T07:01:24Z</time>
      </trkpt>
      <trkpt lat="44.41362" lon="5.19666">
        <ele>369</ele>
        <time>2022-09-29T07:01:25Z</time>
      </trkpt>
      <trkpt lat="44.41363" lon="5.19666">
        <ele>369</ele>
        <time>2022-09-29T07:01:26Z</time>
      </trkpt>
      <trkpt lat="44.41365" lon="5.19665">
        <ele>369</ele>
        <time>2022-09-29T07:01:27Z</time>
      </trkpt>
      <trkpt lat="44.41366" lon="5.19665">
        <ele>369</ele>
        <time>2022-09-29T07:01:28Z</time>
      </trkpt>
      <trkpt lat="44.41367" lon="5.19664">
        <ele>369</ele>
        <time>2022-09-29T07:01:29Z</time>
      </trkpt>
      <trkpt lat="44.41368" lon="5.19664">
        <ele>369</ele>
        <time>2022-09-29T07:01:30Z</time>
      </trkpt>
      <trkpt lat="44.41369" lon="5.19663">
        <ele>369</ele>
        <time>2022-09-29T07:01:31Z</time>
      </trkpt>
      <trkpt lat="44.41371" lon="5.19663">
        <ele>369</ele>
        <time>2022-09-29T07:01:32Z</time>
      </trkpt>
      <trkpt lat="44.41372" lon="5.19662">
        <ele>369</ele>
        <time>2022-09-29T07:01:33Z</time>
      </trkpt>
      <trkpt lat="44.41373" lon="5.19662">
        <ele>369</ele>
        <time>2022-09-29T07:01:34Z</time>
      </trkpt>
      <trkpt lat="44.41374" lon="5.19661">
        <ele>369</ele>
        <time>2022-09-29T07:01:35Z</time>
      </trkpt>
      <trkpt lat="44.41375" lon="5.19661">
        <ele>369</ele>
        <time>2022-09-29T07:01:36Z</time>
      </trkpt>
      <trkpt lat="44.41376" lon="5.1966">
        <ele>369</ele>
        <time>2022-09-29T07:01:37Z</time>
      </trkpt>
      <trkpt lat="44.41377" lon="5.1966">
        <ele>369</ele>
        <time>2022-09-29T07:01:38Z</time>
      </trkpt>
      <trkpt lat="44.41378" lon="5.19659">
        <ele>369</ele>
        <time>2022-09-29T07:01:39Z</time>
      </trkpt>
      <trkpt lat="44.41379" lon="5.19659">
        <ele>369</ele>
        <time>2022-09-29T07:01:40Z</time>
      </trkpt>
      <trkpt lat="44.4138" lon="5.19658">
        <ele>369</ele>
        <time>2022-09-29T07:01:41Z</time>
      </trkpt>
      <trkpt lat="44.41382" lon="5.19657">
        <ele>369</ele>
        <time>2022-09-29T07:01:42Z</time>
      </trkpt>
      <trkpt lat="44.41383" lon="5.19656">
        <ele>369</ele>
        <time>2022-09-29T07:01:43Z</time>
      </trkpt>
      <trkpt lat="44.41384" lon="5.19656">
        <ele>369</ele>
        <time>2022-09-29T07:01:44Z</time>
      </trkpt>
      <trkpt lat="44.41385" lon="5.19655">
        <ele>369</ele>
        <time>2022-09-29T07:01:45Z</time>
      </trkpt>
      <trkpt lat="44.41386" lon="5.19654">
        <ele>369</ele>
        <time>2022-09-29T07:01:46Z</time>
      </trkpt>
      <trkpt lat="44.41387" lon="5.19653">
        <ele>369</ele>
        <time>2022-09-29T07:01:47Z</time>
      </trkpt>
      <trkpt lat="44.41388" lon="5.19652">
        <ele>369</ele>
        <time>2022-09-29T07:01:48Z</time>
      </trkpt>
      <trkpt lat="44.41389" lon="5.19651">
        <ele>369</ele>
        <time>2022-09-29T07:01:49Z</time>
      </trkpt>
      <trkpt lat="44.4139" lon="5.1965">
        <ele>369</ele>
        <time>2022-09-29T07:01:50Z</time>
      </trkpt>
      <trkpt lat="44.41391" lon="5.19649">
        <ele>369</ele>
        <time>2022-09-29T07:01:51Z</time>
      </trkpt>
      <trkpt lat="44.41392" lon="5.19648">
        <ele>369</ele>
        <time>2022-09-29T07:01:52Z</time>
      </trkpt>
      <trkpt lat="44.41393" lon="5.19647">
        <ele>369</ele>
        <time>2022-09-29T07:01:53Z</time>
      </trkpt>
      <trkpt lat="44.41394" lon="5.19646">
        <ele>369</ele>
        <time>2022-09-29T07:01:54Z</time>
      </trkpt>
      <trkpt lat="44.41394" lon="5.19645">
        <ele>369</ele>
        <time>2022-09-29T07:01:55Z</time>
      </trkpt>
      <trkpt lat="44.41395" lon="5.19645">
        <ele>369</ele>
        <time>2022-09-29T07:01:56Z</time>
      </trkpt>
      <trkpt lat="44.41396" lon="5.19644">
        <ele>369</ele>
        <time>2022-09-29T07:01:57Z</time>
      </trkpt>
      <trkpt lat="44.41396" lon="5.19643">
        <ele>369</ele>
        <time>2022-09-29T07:01:58Z</time>
      </trkpt>
      <trkpt lat="44.41397" lon="5.19643">
        <ele>369</ele>
        <time>2022-09-29T07:01:59Z</time>
      </trkpt>
      <trkpt lat="44.41398" lon="5.19642">
        <ele>369</ele>
        <time>2022-09-29T07:02:00Z</time>
      </trkpt>
      <trkpt lat="44.41399" lon="5.19641">
        <ele>369</ele>
        <time>2022-09-29T07:02:01Z</time>
      </trkpt>
      <trkpt lat="44.414" lon="5.1964">
        <ele>369</ele>
        <time>2022-09-29T07:02:02Z</time>
      </trkpt>
      <trkpt lat="44.41401" lon="5.19639">
        <ele>369</ele>
        <time>2022-09-29T07:02:03Z</time>
      </trkpt>
      <trkpt lat="44.41402" lon="5.19638">
        <ele>370</ele>
        <time>2022-09-29T07:02:04Z</time>
      </trkpt>
      <trkpt lat="44.41403" lon="5.19637">
        <ele>370</ele>
        <time>2022-09-29T07:02:05Z</time>
      </trkpt>
      <trkpt lat="44.41404" lon="5.19636">
        <ele>370</ele>
        <time>2022-09-29T07:02:06Z</time>
      </trkpt>
      <trkpt lat="44.41405" lon="5.19635">
        <ele>370</ele>
        <time>2022-09-29T07:02:07Z</time>
      </trkpt>
      <trkpt lat="44.41405" lon="5.19634">
        <ele>370</ele>
        <time>2022-09-29T07:02:08Z</time>
      </trkpt>
      <trkpt lat="44.41406" lon="5.19633">
        <ele>370</ele>
        <time>2022-09-29T07:02:09Z</time>
      </trkpt>
      <trkpt lat="44.41407" lon="5.19632">
        <ele>370</ele>
        <time>2022-09-29T07:02:10Z</time>
      </trkpt>
      <trkpt lat="44.41408" lon="5.19631">
        <ele>370</ele>
        <time>2022-09-29T07:02:11Z</time>
      </trkpt>
      <trkpt lat="44.41409" lon="5.1963">
        <ele>370</ele>
        <time>2022-09-29T07:02:12Z</time>
      </trkpt>
      <trkpt lat="44.4141" lon="5.19629">
        <ele>370</ele>
        <time>2022-09-29T07:02:13Z</time>
      </trkpt>
      <trkpt lat="44.4141" lon="5.19628">
        <ele>370</ele>
        <time>2022-09-29T07:02:14Z</time>
      </trkpt>
      <trkpt lat="44.41411" lon="5.19627">
        <ele>370</ele>
        <time>2022-09-29T07:02:15Z</time>
      </trkpt>
      <trkpt lat="44.41412" lon="5.19626">
        <ele>370</ele>
        <time>2022-09-29T07:02:16Z</time>
      </trkpt>
      <trkpt lat="44.41412" lon="5.19625">
        <ele>370</ele>
        <time>2022-09-29T07:02:17Z</time>
      </trkpt>
      <trkpt lat="44.41413" lon="5.19624">
        <ele>370</ele>
        <time>2022-09-29T07:02:18Z</time>
      </trkpt>
      <trkpt lat="44.41414" lon="5.19623">
        <ele>370</ele>
        <time>2022-09-29T07:02:19Z</time>
      </trkpt>
      <trkpt lat="44.41415" lon="5.19621">
        <ele>370</ele>
        <time>2022-09-29T07:02:20Z</time>
      </trkpt>
      <trkpt lat="44.41416" lon="5.1962">
        <ele>370</ele>
        <time>2022-09-29T07:02:21Z</time>
      </trkpt>
      <trkpt lat="44.41416" lon="5.19619">
        <ele>370</ele>
        <time>2022-09-29T07:02:22Z</time>
      </trkpt>
      <trkpt lat="44.41417" lon="5.19617">
        <ele>370</ele>
        <time>2022-09-29T07:02:23Z</time>
      </trkpt>
      <trkpt lat="44.41418" lon="5.19616">
        <ele>370</ele>
        <time>2022-09-29T07:02:24Z</time>
      </trkpt>
      <trkpt lat="44.41418" lon="5.19614">
        <ele>370</ele>
        <time>2022-09-29T07:02:25Z</time>
      </trkpt>
      <trkpt lat="44.41419" lon="5.19613">
        <ele>370</ele>
        <time>2022-09-29T07:02:26Z</time>
      </trkpt>
      <trkpt lat="44.4142" lon="5.19612">
        <ele>370</ele>
        <time>2022-09-29T07:02:27Z</time>
      </trkpt>
      <trkpt lat="44.4142" lon="5.1961">
        <ele>370</ele>
        <time>2022-09-29T07:02:28Z</time>
      </trkpt>
      <trkpt lat="44.41421" lon="5.19609">
        <ele>370</ele>
        <time>2022-09-29T07:02:29Z</time>
      </trkpt>
      <trkpt lat="44.41422" lon="5.19607">
        <ele>370</ele>
        <time>2022-09-29T07:02:30Z</time>
      </trkpt>
      <trkpt lat="44.41422" lon="5.19606">
        <ele>370</ele>
        <time>2022-09-29T07:02:31Z</time>
      </trkpt>
      <trkpt lat="44.41423" lon="5.19604">
        <ele>370</ele>
        <time>2022-09-29T07:02:32Z</time>
      </trkpt>
      <trkpt lat="44.41423" lon="5.19603">
        <ele>370</ele>
        <time>2022-09-29T07:02:33Z</time>
      </trkpt>
      <trkpt lat="44.41424" lon="5.19601">
        <ele>371</ele>
        <time>2022-09-29T07:02:34Z</time>
      </trkpt>
      <trkpt lat="44.41424" lon="5.196">
        <ele>371</ele>
        <time>2022-09-29T07:02:35Z</time>
      </trkpt>
      <trkpt lat="44.41425" lon="5.19598">
        <ele>371</ele>
        <time>2022-09-29T07:02:36Z</time>
      </trkpt>
      <trkpt lat="44.41425" lon="5.19596">
        <ele>371</ele>
        <time>2022-09-29T07:02:37Z</time>
      </trkpt>
      <trkpt lat="44.41425" lon="5.19595">
        <ele>371</ele>
        <time>2022-09-29T07:02:38Z</time>
      </trkpt>
      <trkpt lat="44.41426" lon="5.19593">
        <ele>371</ele>
        <time>2022-09-29T07:02:39Z</time>
      </trkpt>
      <trkpt lat="44.41426" lon="5.19592">
        <ele>371</ele>
        <time>2022-09-29T07:02:40Z</time>
      </trkpt>
      <trkpt lat="44.41426" lon="5.1959">
        <ele>371</ele>
        <time>2022-09-29T07:02:41Z</time>
      </trkpt>
      <trkpt lat="44.41426" lon="5.19589">
        <ele>371</ele>
        <time>2022-09-29T07:02:42Z</time>
      </trkpt>
      <trkpt lat="44.41426" lon="5.19587">
        <ele>371</ele>
        <time>2022-09-29T07:02:43Z</time>
      </trkpt>
      <trkpt lat="44.41426" lon="5.19586">
        <ele>371</ele>
        <time>2022-09-29T07:02:44Z</time>
      </trkpt>
      <trkpt lat="44.41426" lon="5.19584">
        <ele>371</ele>
        <time>2022-09-29T07:02:45Z</time>
      </trkpt>
      <trkpt lat="44.41426" lon="5.19583">
        <ele>371</ele>
        <time>2022-09-29T07:02:46Z</time>
      </trkpt>
      <trkpt lat="44.41426" lon="5.19581">
        <ele>371</ele>
        <time>2022-09-29T07:02:47Z</time>
      </trkpt>
      <trkpt lat="44.41426" lon="5.1958">
        <ele>371</ele>
        <time>2022-09-29T07:02:48Z</time>
      </trkpt>
      <trkpt lat="44.41426" lon="5.19578">
        <ele>371</ele>
        <time>2022-09-29T07:02:49Z</time>
      </trkpt>
      <trkpt lat="44.41425" lon="5.19577">
        <ele>371</ele>
        <time>2022-09-29T07:02:50Z</time>
      </trkpt>
      <trkpt lat="44.41425" lon="5.19575">
        <ele>371</ele>
        <time>2022-09-29T07:02:51Z</time>
      </trkpt>
      <trkpt lat="44.41425" lon="5.19573">
        <ele>371</ele>
        <time>2022-09-29T07:02:52Z</time>
      </trkpt>
      <trkpt lat="44.41425" lon="5.19572">
        <ele>371</ele>
        <time>2022-09-29T07:02:53Z</time>
      </trkpt>
      <trkpt lat="44.41425" lon="5.1957">
        <ele>371</ele>
        <time>2022-09-29T07:02:54Z</time>
      </trkpt>
      <trkpt lat="44.41425" lon="5.19569">
        <ele>371</ele>
        <time>2022-09-29T07:02:55Z</time>
      </trkpt>
      <trkpt lat="44.41424" lon="5.19568">
        <ele>371</ele>
        <time>2022-09-29T07:02:56Z</time>
      </trkpt>
      <trkpt lat="44.41424" lon="5.19566">
        <ele>371</ele>
        <time>2022-09-29T07:02:57Z</time>
      </trkpt>
      <trkpt lat="44.41423" lon="5.19565">
        <ele>371</ele>
        <time>2022-09-29T07:02:58Z</time>
      </trkpt>
      <trkpt lat="44.41423" lon="5.19564">
        <ele>371</ele>
        <time>2022-09-29T07:02:59Z</time>
      </trkpt>
      <trkpt lat="44.41423" lon="5.19562">
        <ele>371</ele>
        <time>2022-09-29T07:03:00Z</time>
      </trkpt>
      <trkpt lat="44.41423" lon="5.19561">
        <ele>371</ele>
        <time>2022-09-29T07:03:01Z</time>
      </trkpt>
      <trkpt lat="44.41422" lon="5.19559">
        <ele>371</ele>
        <time>2022-09-29T07:03:02Z</time>
      </trkpt>
      <trkpt lat="44.41422" lon="5.19557">
        <ele>371</ele>
        <time>2022-09-29T07:03:03Z</time>
      </trkpt>
      <trkpt lat="44.41422" lon="5.19556">
        <ele>371</ele>
        <time>2022-09-29T07:03:04Z</time>
      </trkpt>
      <trkpt lat="44.41421" lon="5.19554">
        <ele>371</ele>
        <time>2022-09-29T07:03:05Z</time>
      </trkpt>
      <trkpt lat="44.41421" lon="5.19552">
        <ele>371</ele>
        <time>2022-09-29T07:03:06Z</time>
      </trkpt>
      <trkpt lat="44.41421" lon="5.1955">
        <ele>371</ele>
        <time>2022-09-29T07:03:07Z</time>
      </trkpt>
      <trkpt lat="44.41421" lon="5.19549">
        <ele>371</ele>
        <time>2022-09-29T07:03:08Z</time>
      </trkpt>
      <trkpt lat="44.41421" lon="5.19547">
        <ele>371</ele>
        <time>2022-09-29T07:03:09Z</time>
      </trkpt>
      <trkpt lat="44.41421" lon="5.19546">
        <ele>371</ele>
        <time>2022-09-29T07:03:10Z</time>
      </trkpt>
      <trkpt lat="44.41421" lon="5.19544">
        <ele>371</ele>
        <time>2022-09-29T07:03:11Z</time>
      </trkpt>
      <trkpt lat="44.4142" lon="5.19542">
        <ele>371</ele>
        <time>2022-09-29T07:03:12Z</time>
      </trkpt>
      <trkpt lat="44.4142" lon="5.1954">
        <ele>371</ele>
        <time>2022-09-29T07:03:13Z</time>
      </trkpt>
      <trkpt lat="44.4142" lon="5.19539">
        <ele>371</ele>
        <time>2022-09-29T07:03:14Z</time>
      </trkpt>
      <trkpt lat="44.4142" lon="5.19537">
        <ele>371</ele>
        <time>2022-09-29T07:03:15Z</time>
      </trkpt>
      <trkpt lat="44.4142" lon="5.19535">
        <ele>371</ele>
        <time>2022-09-29T07:03:16Z</time>
      </trkpt>
      <trkpt lat="44.4142" lon="5.19534">
        <ele>371</ele>
        <time>2022-09-29T07:03:17Z</time>
      </trkpt>
      <trkpt lat="44.4142" lon="5.19532">
        <ele>371</ele>
        <time>2022-09-29T07:03:18Z</time>
      </trkpt>
      <trkpt lat="44.4142" lon="5.1953">
        <ele>372</ele>
        <time>2022-09-29T07:03:19Z</time>
      </trkpt>
      <trkpt lat="44.4142" lon="5.19529">
        <ele>372</ele>
        <time>2022-09-29T07:03:20Z</time>
      </trkpt>
      <trkpt lat="44.4142" lon="5.19527">
        <ele>372</ele>
        <time>2022-09-29T07:03:21Z</time>
      </trkpt>
      <trkpt lat="44.4142" lon="5.19526">
        <ele>372</ele>
        <time>2022-09-29T07:03:22Z</time>
      </trkpt>
      <trkpt lat="44.4142" lon="5.19524">
        <ele>372</ele>
        <time>2022-09-29T07:03:23Z</time>
      </trkpt>
      <trkpt lat="44.4142" lon="5.19522">
        <ele>372</ele>
        <time>2022-09-29T07:03:24Z</time>
      </trkpt>
      <trkpt lat="44.41421" lon="5.19521">
        <ele>372</ele>
        <time>2022-09-29T07:03:25Z</time>
      </trkpt>
      <trkpt lat="44.41421" lon="5.19519">
        <ele>372</ele>
        <time>2022-09-29T07:03:26Z</time>
      </trkpt>
      <trkpt lat="44.41421" lon="5.19517">
        <ele>372</ele>
        <time>2022-09-29T07:03:27Z</time>
      </trkpt>
      <trkpt lat="44.41421" lon="5.19516">
        <ele>372</ele>
        <time>2022-09-29T07:03:28Z</time>
      </trkpt>
      <trkpt lat="44.41421" lon="5.19514">
        <ele>372</ele>
        <time>2022-09-29T07:03:29Z</time>
      </trkpt>
      <trkpt lat="44.41422" lon="5.19512">
        <ele>372</ele>
        <time>2022-09-29T07:03:30Z</time>
      </trkpt>
      <trkpt lat="44.41422" lon="5.19511">
        <ele>372</ele>
        <time>2022-09-29T07:03:31Z</time>
      </trkpt>
      <trkpt lat="44.41422" lon="5.19509">
        <ele>372</ele>
        <time>2022-09-29T07:03:32Z</time>
      </trkpt>
      <trkpt lat="44.41423" lon="5.19508">
        <ele>372</ele>
        <time>2022-09-29T07:03:33Z</time>
      </trkpt>
      <trkpt lat="44.41423" lon="5.19506">
        <ele>372</ele>
        <time>2022-09-29T07:03:34Z</time>
      </trkpt>
      <trkpt lat="44.41424" lon="5.19504">
        <ele>372</ele>
        <time>2022-09-29T07:03:35Z</time>
      </trkpt>
      <trkpt lat="44.41424" lon="5.19503">
        <ele>372</ele>
        <time>2022-09-29T07:03:36Z</time>
      </trkpt>
      <trkpt lat="44.41425" lon="5.19501">
        <ele>372</ele>
        <time>2022-09-29T07:03:37Z</time>
      </trkpt>
      <trkpt lat="44.41425" lon="5.195">
        <ele>372</ele>
        <time>2022-09-29T07:03:38Z</time>
      </trkpt>
      <trkpt lat="44.41426" lon="5.19499">
        <ele>372</ele>
        <time>2022-09-29T07:03:39Z</time>
      </trkpt>
      <trkpt lat="44.41426" lon="5.19497">
        <ele>372</ele>
        <time>2022-09-29T07:03:40Z</time>
      </trkpt>
      <trkpt lat="44.41427" lon="5.19496">
        <ele>372</ele>
        <time>2022-09-29T07:03:41Z</time>
      </trkpt>
      <trkpt lat="44.41427" lon="5.19495">
        <ele>372</ele>
        <time>2022-09-29T07:03:42Z</time>
      </trkpt>
      <trkpt lat="44.41428" lon="5.19494">
        <ele>372</ele>
        <time>2022-09-29T07:03:43Z</time>
      </trkpt>
      <trkpt lat="44.41428" lon="5.19492">
        <ele>372</ele>
        <time>2022-09-29T07:03:44Z</time>
      </trkpt>
      <trkpt lat="44.41429" lon="5.19491">
        <ele>372</ele>
        <time>2022-09-29T07:03:45Z</time>
      </trkpt>
      <trkpt lat="44.4143" lon="5.1949">
        <ele>372</ele>
        <time>2022-09-29T07:03:46Z</time>
      </trkpt>
      <trkpt lat="44.41431" lon="5.19489">
        <ele>372</ele>
        <time>2022-09-29T07:03:47Z</time>
      </trkpt>
      <trkpt lat="44.41432" lon="5.19487">
        <ele>372</ele>
        <time>2022-09-29T07:03:48Z</time>
      </trkpt>
      <trkpt lat="44.41432" lon="5.19486">
        <ele>372</ele>
        <time>2022-09-29T07:03:49Z</time>
      </trkpt>
      <trkpt lat="44.41433" lon="5.19485">
        <ele>372</ele>
        <time>2022-09-29T07:03:50Z</time>
      </trkpt>
      <trkpt lat="44.41434" lon="5.19484">
        <ele>372</ele>
        <time>2022-09-29T07:03:51Z</time>
      </trkpt>
      <trkpt lat="44.41435" lon="5.19483">
        <ele>372</ele>
        <time>2022-09-29T07:03:52Z</time>
      </trkpt>
      <trkpt lat="44.41436" lon="5.19482">
        <ele>372</ele>
        <time>2022-09-29T07:03:53Z</time>
      </trkpt>
      <trkpt lat="44.41437" lon="5.19481">
        <ele>372</ele>
        <time>2022-09-29T07:03:54Z</time>
      </trkpt>
      <trkpt lat="44.41438" lon="5.1948">
        <ele>372</ele>
        <time>2022-09-29T07:03:55Z</time>
      </trkpt>
      <trkpt lat="44.41439" lon="5.19479">
        <ele>372</ele>
        <time>2022-09-29T07:03:56Z</time>
      </trkpt>
      <trkpt lat="44.4144" lon="5.19478">
        <ele>372</ele>
        <time>2022-09-29T07:03:57Z</time>
      </trkpt>
      <trkpt lat="44.41441" lon="5.19477">
        <ele>372</ele>
        <time>2022-09-29T07:03:58Z</time>
      </trkpt>
      <trkpt lat="44.41442" lon="5.19476">
        <ele>372</ele>
        <time>2022-09-29T07:03:59Z</time>
      </trkpt>
      <trkpt lat="44.41443" lon="5.19476">
        <ele>372</ele>
        <time>2022-09-29T07:04:00Z</time>
      </trkpt>
      <trkpt lat="44.41444" lon="5.19475">
        <ele>372</ele>
        <time>2022-09-29T07:04:01Z</time>
      </trkpt>
      <trkpt lat="44.41445" lon="5.19474">
        <ele>372</ele>
        <time>2022-09-29T07:04:02Z</time>
      </trkpt>
      <trkpt lat="44.41446" lon="5.19474">
        <ele>372</ele>
        <time>2022-09-29T07:04:03Z</time>
      </trkpt>
      <trkpt lat="44.41447" lon="5.19474">
        <ele>372</ele>
        <time>2022-09-29T07:04:04Z</time>
      </trkpt>
      <trkpt lat="44.41448" lon="5.19473">
        <ele>372</ele>
        <time>2022-09-29T07:04:05Z</time>
      </trkpt>
      <trkpt lat="44.41449" lon="5.19473">
        <ele>372</ele>
        <time>2022-09-29T07:04:06Z</time>
      </trkpt>
      <trkpt lat="44.4145" lon="5.19473">
        <ele>372</ele>
        <time>2022-09-29T07:04:07Z</time>
      </trkpt>
      <trkpt lat="44.41451" lon="5.19473">
        <ele>372</ele>
        <time>2022-09-29T07:04:08Z</time>
      </trkpt>
      <trkpt lat="44.41452" lon="5.19473">
        <ele>372</ele>
        <time>2022-09-29T07:04:09Z</time>
      </trkpt>
      <trkpt lat="44.41453" lon="5.19473">
        <ele>372</ele>
        <time>2022-09-29T07:04:10Z</time>
      </trkpt>
      <trkpt lat="44.41454" lon="5.19473">
        <ele>372</ele>
        <time>2022-09-29T07:04:11Z</time>
      </trkpt>
      <trkpt lat="44.41455" lon="5.19472">
        <ele>372</ele>
        <time>2022-09-29T07:04:12Z</time>
      </trkpt>
      <trkpt lat="44.41456" lon="5.19472">
        <ele>372</ele>
        <time>2022-09-29T07:04:13Z</time>
      </trkpt>
      <trkpt lat="44.41457" lon="5.19472">
        <ele>372</ele>
        <time>2022-09-29T07:04:14Z</time>
      </trkpt>
      <trkpt lat="44.41458" lon="5.19471">
        <ele>372</ele>
        <time>2022-09-29T07:04:15Z</time>
      </trkpt>
      <trkpt lat="44.41459" lon="5.19471">
        <ele>372</ele>
        <time>2022-09-29T07:04:16Z</time>
      </trkpt>
      <trkpt lat="44.4146" lon="5.19471">
        <ele>372</ele>
        <time>2022-09-29T07:04:17Z</time>
      </trkpt>
      <trkpt lat="44.41461" lon="5.19471">
        <ele>372</ele>
        <time>2022-09-29T07:04:18Z</time>
      </trkpt>
      <trkpt lat="44.41462" lon="5.19471">
        <ele>373</ele>
        <time>2022-09-29T07:04:19Z</time>
      </trkpt>
      <trkpt lat="44.41463" lon="5.1947">
        <ele>373</ele>
        <time>2022-09-29T07:04:20Z</time>
      </trkpt>
      <trkpt lat="44.41464" lon="5.1947">
        <ele>373</ele>
        <time>2022-09-29T07:04:21Z</time>
      </trkpt>
      <trkpt lat="44.41465" lon="5.1947">
        <ele>373</ele>
        <time>2022-09-29T07:04:22Z</time>
      </trkpt>
      <trkpt lat="44.41466" lon="5.1947">
        <ele>373</ele>
        <time>2022-09-29T07:04:23Z</time>
      </trkpt>
      <trkpt lat="44.41467" lon="5.1947">
        <ele>373</ele>
        <time>2022-09-29T07:04:24Z</time>
      </trkpt>
      <trkpt lat="44.41469" lon="5.1947">
        <ele>373</ele>
        <time>2022-09-29T07:04:25Z</time>
      </trkpt>
      <trkpt lat="44.4147" lon="5.1947">
        <ele>373</ele>
        <time>2022-09-29T07:04:26Z</time>
      </trkpt>
      <trkpt lat="44.41471" lon="5.1947">
        <ele>373</ele>
        <time>2022-09-29T07:04:27Z</time>
      </trkpt>
      <trkpt lat="44.41472" lon="5.1947">
        <ele>373</ele>
        <time>2022-09-29T07:04:28Z</time>
      </trkpt>
      <trkpt lat="44.41473" lon="5.1947">
        <ele>373</ele>
        <time>2022-09-29T07:04:29Z</time>
      </trkpt>
      <trkpt lat="44.41474" lon="5.1947">
        <ele>373</ele>
        <time>2022-09-29T07:04:30Z</time>
      </trkpt>
      <trkpt lat="44.41475" lon="5.1947">
        <ele>373</ele>
        <time>2022-09-29T07:04:31Z</time>
      </trkpt>
      <trkpt lat="44.41476" lon="5.1947">
        <ele>373</ele>
        <time>2022-09-29T07:04:32Z</time>
      </trkpt>
      <trkpt lat="44.41477" lon="5.1947">
        <ele>373</ele>
        <time>2022-09-29T07:04:33Z</time>
      </trkpt>
      <trkpt lat="44.41478" lon="5.1947">
        <ele>373</ele>
        <time>2022-09-29T07:04:34Z</time>
      </trkpt>
      <trkpt lat="44.41479" lon="5.1947">
        <ele>373</ele>
        <time>2022-09-29T07:04:35Z</time>
      </trkpt>
      <trkpt lat="44.41481" lon="5.1947">
        <ele>373</ele>
        <time>2022-09-29T07:04:36Z</time>
      </trkpt>
      <trkpt lat="44.41482" lon="5.1947">
        <ele>373</ele>
        <time>2022-09-29T07:04:37Z</time>
      </trkpt>
      <trkpt lat="44.41483" lon="5.1947">
        <ele>373</ele>
        <time>2022-09-29T07:04:38Z</time>
      </trkpt>
      <trkpt lat="44.41484" lon="5.19471">
        <ele>373</ele>
        <time>2022-09-29T07:04:39Z</time>
      </trkpt>
      <trkpt lat="44.41485" lon="5.19471">
        <ele>373</ele>
        <time>2022-09-29T07:04:40Z</time>
      </trkpt>
      <trkpt lat="44.41486" lon="5.19471">
        <ele>373</ele>
        <time>2022-09-29T07:04:41Z</time>
      </trkpt>
      <trkpt lat="44.41487" lon="5.19471">
        <ele>373</ele>
        <time>2022-09-29T07:04:42Z</time>
      </trkpt>
      <trkpt lat="44.41488" lon="5.19471">
        <ele>373</ele>
        <time>2022-09-29T07:04:43Z</time>
      </trkpt>
      <trkpt lat="44.41489" lon="5.19471">
        <ele>373</ele>
        <time>2022-09-29T07:04:44Z</time>
      </trkpt>
      <trkpt lat="44.4149" lon="5.19471">
        <ele>373</ele>
        <time>2022-09-29T07:04:45Z</time>
      </trkpt>
      <trkpt lat="44.41491" lon="5.19471">
        <ele>373</ele>
        <time>2022-09-29T07:04:46Z</time>
      </trkpt>
      <trkpt lat="44.41492" lon="5.19471">
        <ele>373</ele>
        <time>2022-09-29T07:04:47Z</time>
      </trkpt>
      <trkpt lat="44.41493" lon="5.19471">
        <ele>373</ele>
        <time>2022-09-29T07:04:48Z</time>
      </trkpt>
      <trkpt lat="44.41494" lon="5.19471">
        <ele>373</ele>
        <time>2022-09-29T07:04:49Z</time>
      </trkpt>
      <trkpt lat="44.41495" lon="5.19471">
        <ele>373</ele>
        <time>2022-09-29T07:04:50Z</time>
      </trkpt>
      <trkpt lat="44.41496" lon="5.19471">
        <ele>373</ele>
        <time>2022-09-29T07:04:51Z</time>
      </trkpt>
      <trkpt lat="44.41497" lon="5.19471">
        <ele>373</ele>
        <time>2022-09-29T07:04:52Z</time>
      </trkpt>
      <trkpt lat="44.41498" lon="5.19471">
        <ele>373</ele>
        <time>2022-09-29T07:04:53Z</time>
      </trkpt>
      <trkpt lat="44.41499" lon="5.19471">
        <ele>373</ele>
        <time>2022-09-29T07:04:54Z</time>
      </trkpt>
      <trkpt lat="44.415" lon="5.19471">
        <ele>373</ele>
        <time>2022-09-29T07:04:55Z</time>
      </trkpt>
      <trkpt lat="44.41501" lon="5.19471">
        <ele>373</ele>
        <time>2022-09-29T07:04:56Z</time>
      </trkpt>
      <trkpt lat="44.41502" lon="5.19471">
        <ele>373</ele>
        <time>2022-09-29T07:04:57Z</time>
      </trkpt>
      <trkpt lat="44.41503" lon="5.19471">
        <ele>373</ele>
        <time>2022-09-29T07:04:58Z</time>
      </trkpt>
      <trkpt lat="44.41504" lon="5.19471">
        <ele>373</ele>
        <time>2022-09-29T07:04:59Z</time>
      </trkpt>
      <trkpt lat="44.41505" lon="5.19471">
        <ele>373</ele>
        <time>2022-09-29T07:05:00Z</time>
      </trkpt>
      <trkpt lat="44.41506" lon="5.1947">
        <ele>373</ele>
        <time>2022-09-29T07:05:01Z</time>
      </trkpt>
      <trkpt lat="44.41507" lon="5.1947">
        <ele>373</ele>
        <time>2022-09-29T07:05:02Z</time>
      </trkpt>
      <trkpt lat="44.41508" lon="5.1947">
        <ele>373</ele>
        <time>2022-09-29T07:05:03Z</time>
      </trkpt>
      <trkpt lat="44.41509" lon="5.1947">
        <ele>373</ele>
        <time>2022-09-29T07:05:04Z</time>
      </trkpt>
      <trkpt lat="44.4151" lon="5.1947">
        <ele>373</ele>
        <time>2022-09-29T07:05:05Z</time>
      </trkpt>
      <trkpt lat="44.41511" lon="5.1947">
        <ele>373</ele>
        <time>2022-09-29T07:05:06Z</time>
      </trkpt>
      <trkpt lat="44.41512" lon="5.1947">
        <ele>373</ele>
        <time>2022-09-29T07:05:07Z</time>
      </trkpt>
      <trkpt lat="44.41513" lon="5.1947">
        <ele>373</ele>
        <time>2022-09-29T07:05:08Z</time>
      </trkpt>
      <trkpt lat="44.41514" lon="5.1947">
        <ele>374</ele>
        <time>2022-09-29T07:05:09Z</time>
      </trkpt>
      <trkpt lat="44.41515" lon="5.1947">
        <ele>374</ele>
        <time>2022-09-29T07:05:10Z</time>
      </trkpt>
      <trkpt lat="44.41516" lon="5.1947">
        <ele>374</ele>
        <time>2022-09-29T07:05:11Z</time>
      </trkpt>
      <trkpt lat="44.41518" lon="5.1947">
        <ele>374</ele>
        <time>2022-09-29T07:05:12Z</time>
      </trkpt>
      <trkpt lat="44.41519" lon="5.1947">
        <ele>374</ele>
        <time>2022-09-29T07:05:13Z</time>
      </trkpt>
      <trkpt lat="44.4152" lon="5.1947">
        <ele>374</ele>
        <time>2022-09-29T07:05:14Z</time>
      </trkpt>
      <trkpt lat="44.41521" lon="5.1947">
        <ele>374</ele>
        <time>2022-09-29T07:05:15Z</time>
      </trkpt>
      <trkpt lat="44.41522" lon="5.1947">
        <ele>374</ele>
        <time>2022-09-29T07:05:16Z</time>
      </trkpt>
      <trkpt lat="44.41523" lon="5.1947">
        <ele>374</ele>
        <time>2022-09-29T07:05:17Z</time>
      </trkpt>
      <trkpt lat="44.41524" lon="5.19469">
        <ele>374</ele>
        <time>2022-09-29T07:05:18Z</time>
      </trkpt>
      <trkpt lat="44.41525" lon="5.19469">
        <ele>374</ele>
        <time>2022-09-29T07:05:19Z</time>
      </trkpt>
      <trkpt lat="44.41526" lon="5.19469">
        <ele>374</ele>
        <time>2022-09-29T07:05:20Z</time>
      </trkpt>
      <trkpt lat="44.41527" lon="5.19469">
        <ele>374</ele>
        <time>2022-09-29T07:05:21Z</time>
      </trkpt>
      <trkpt lat="44.41529" lon="5.19469">
        <ele>374</ele>
        <time>2022-09-29T07:05:22Z</time>
      </trkpt>
      <trkpt lat="44.4153" lon="5.19469">
        <ele>374</ele>
        <time>2022-09-29T07:05:23Z</time>
      </trkpt>
      <trkpt lat="44.41531" lon="5.19469">
        <ele>374</ele>
        <time>2022-09-29T07:05:24Z</time>
      </trkpt>
      <trkpt lat="44.41532" lon="5.19469">
        <ele>374</ele>
        <time>2022-09-29T07:05:25Z</time>
      </trkpt>
      <trkpt lat="44.41533" lon="5.19469">
        <ele>374</ele>
        <time>2022-09-29T07:05:26Z</time>
      </trkpt>
      <trkpt lat="44.41535" lon="5.19469">
        <ele>374</ele>
        <time>2022-09-29T07:05:27Z</time>
      </trkpt>
      <trkpt lat="44.41536" lon="5.19469">
        <ele>374</ele>
        <time>2022-09-29T07:05:28Z</time>
      </trkpt>
      <trkpt lat="44.41537" lon="5.19468">
        <ele>375</ele>
        <time>2022-09-29T07:05:29Z</time>
      </trkpt>
      <trkpt lat="44.41538" lon="5.19468">
        <ele>375</ele>
        <time>2022-09-29T07:05:30Z</time>
      </trkpt>
      <trkpt lat="44.41539" lon="5.19468">
        <ele>375</ele>
        <time>2022-09-29T07:05:31Z</time>
      </trkpt>
      <trkpt lat="44.41541" lon="5.19468">
        <ele>375</ele>
        <time>2022-09-29T07:05:32Z</time>
      </trkpt>
      <trkpt lat="44.41542" lon="5.19468">
        <ele>375</ele>
        <time>2022-09-29T07:05:33Z</time>
      </trkpt>
      <trkpt lat="44.41543" lon="5.19468">
        <ele>375</ele>
        <time>2022-09-29T07:05:34Z</time>
      </trkpt>
      <trkpt lat="44.41544" lon="5.19467">
        <ele>375</ele>
        <time>2022-09-29T07:05:35Z</time>
      </trkpt>
      <trkpt lat="44.41545" lon="5.19467">
        <ele>375</ele>
        <time>2022-09-29T07:05:36Z</time>
      </trkpt>
      <trkpt lat="44.41546" lon="5.19467">
        <ele>375</ele>
        <time>2022-09-29T07:05:37Z</time>
      </trkpt>
      <trkpt lat="44.41547" lon="5.19467">
        <ele>375</ele>
        <time>2022-09-29T07:05:38Z</time>
      </trkpt>
      <trkpt lat="44.41548" lon="5.19467">
        <ele>375</ele>
        <time>2022-09-29T07:05:39Z</time>
      </trkpt>
      <trkpt lat="44.41549" lon="5.19468">
        <ele>375</ele>
        <time>2022-09-29T07:05:40Z</time>
      </trkpt>
      <trkpt lat="44.4155" lon="5.19468">
        <ele>375</ele>
        <time>2022-09-29T07:05:41Z</time>
      </trkpt>
      <trkpt lat="44.41552" lon="5.19468">
        <ele>375</ele>
        <time>2022-09-29T07:05:42Z</time>
      </trkpt>
      <trkpt lat="44.41553" lon="5.19468">
        <ele>375</ele>
        <time>2022-09-29T07:05:43Z</time>
      </trkpt>
      <trkpt lat="44.41554" lon="5.19468">
        <ele>375</ele>
        <time>2022-09-29T07:05:44Z</time>
      </trkpt>
      <trkpt lat="44.41555" lon="5.19468">
        <ele>375</ele>
        <time>2022-09-29T07:05:45Z</time>
      </trkpt>
      <trkpt lat="44.41557" lon="5.19468">
        <ele>375</ele>
        <time>2022-09-29T07:05:46Z</time>
      </trkpt>
      <trkpt lat="44.41558" lon="5.19468">
        <ele>375</ele>
        <time>2022-09-29T07:05:47Z</time>
      </trkpt>
      <trkpt lat="44.41559" lon="5.19468">
        <ele>375</ele>
        <time>2022-09-29T07:05:48Z</time>
      </trkpt>
      <trkpt lat="44.4156" lon="5.19468">
        <ele>375</ele>
        <time>2022-09-29T07:05:49Z</time>
      </trkpt>
      <trkpt lat="44.41561" lon="5.19468">
        <ele>375</ele>
        <time>2022-09-29T07:05:50Z</time>
      </trkpt>
      <trkpt lat="44.41562" lon="5.19468">
        <ele>375</ele>
        <time>2022-09-29T07:05:51Z</time>
      </trkpt>
      <trkpt lat="44.41563" lon="5.19468">
        <ele>375</ele>
        <time>2022-09-29T07:05:52Z</time>
      </trkpt>
      <trkpt lat="44.41564" lon="5.19468">
        <ele>375</ele>
        <time>2022-09-29T07:05:53Z</time>
      </trkpt>
      <trkpt lat="44.41566" lon="5.19468">
        <ele>376</ele>
        <time>2022-09-29T07:05:54Z</time>
      </trkpt>
      <trkpt lat="44.41567" lon="5.19468">
        <ele>376</ele>
        <time>2022-09-29T07:05:55Z</time>
      </trkpt>
      <trkpt lat="44.41568" lon="5.19469">
        <ele>376</ele>
        <time>2022-09-29T07:05:56Z</time>
      </trkpt>
      <trkpt lat="44.4157" lon="5.19469">
        <ele>376</ele>
        <time>2022-09-29T07:05:57Z</time>
      </trkpt>
      <trkpt lat="44.41571" lon="5.19469">
        <ele>376</ele>
        <time>2022-09-29T07:05:58Z</time>
      </trkpt>
      <trkpt lat="44.41572" lon="5.19469">
        <ele>376</ele>
        <time>2022-09-29T07:05:59Z</time>
      </trkpt>
      <trkpt lat="44.41573" lon="5.19469">
        <ele>376</ele>
        <time>2022-09-29T07:06:00Z</time>
      </trkpt>
      <trkpt lat="44.41574" lon="5.1947">
        <ele>376</ele>
        <time>2022-09-29T07:06:01Z</time>
      </trkpt>
      <trkpt lat="44.41575" lon="5.1947">
        <ele>376</ele>
        <time>2022-09-29T07:06:02Z</time>
      </trkpt>
      <trkpt lat="44.41576" lon="5.1947">
        <ele>376</ele>
        <time>2022-09-29T07:06:03Z</time>
      </trkpt>
      <trkpt lat="44.41578" lon="5.1947">
        <ele>377</ele>
        <time>2022-09-29T07:06:04Z</time>
      </trkpt>
      <trkpt lat="44.41579" lon="5.1947">
        <ele>377</ele>
        <time>2022-09-29T07:06:05Z</time>
      </trkpt>
      <trkpt lat="44.4158" lon="5.1947">
        <ele>377</ele>
        <time>2022-09-29T07:06:06Z</time>
      </trkpt>
      <trkpt lat="44.41581" lon="5.1947">
        <ele>377</ele>
        <time>2022-09-29T07:06:07Z</time>
      </trkpt>
      <trkpt lat="44.41582" lon="5.1947">
        <ele>377</ele>
        <time>2022-09-29T07:06:08Z</time>
      </trkpt>
      <trkpt lat="44.41583" lon="5.1947">
        <ele>377</ele>
        <time>2022-09-29T07:06:09Z</time>
      </trkpt>
      <trkpt lat="44.41584" lon="5.1947">
        <ele>377</ele>
        <time>2022-09-29T07:06:10Z</time>
      </trkpt>
      <trkpt lat="44.41585" lon="5.1947">
        <ele>377</ele>
        <time>2022-09-29T07:06:11Z</time>
      </trkpt>
      <trkpt lat="44.41586" lon="5.19469">
        <ele>377</ele>
        <time>2022-09-29T07:06:12Z</time>
      </trkpt>
      <trkpt lat="44.41587" lon="5.19469">
        <ele>377</ele>
        <time>2022-09-29T07:06:13Z</time>
      </trkpt>
      <trkpt lat="44.41588" lon="5.19469">
        <ele>377</ele>
        <time>2022-09-29T07:06:14Z</time>
      </trkpt>
      <trkpt lat="44.41589" lon="5.19469">
        <ele>377</ele>
        <time>2022-09-29T07:06:15Z</time>
      </trkpt>
      <trkpt lat="44.4159" lon="5.19469">
        <ele>377</ele>
        <time>2022-09-29T07:06:16Z</time>
      </trkpt>
      <trkpt lat="44.41592" lon="5.19469">
        <ele>377</ele>
        <time>2022-09-29T07:06:17Z</time>
      </trkpt>
      <trkpt lat="44.41593" lon="5.19469">
        <ele>377</ele>
        <time>2022-09-29T07:06:18Z</time>
      </trkpt>
      <trkpt lat="44.41594" lon="5.1947">
        <ele>378</ele>
        <time>2022-09-29T07:06:19Z</time>
      </trkpt>
      <trkpt lat="44.41595" lon="5.1947">
        <ele>378</ele>
        <time>2022-09-29T07:06:20Z</time>
      </trkpt>
      <trkpt lat="44.41596" lon="5.19469">
        <ele>378</ele>
        <time>2022-09-29T07:06:21Z</time>
      </trkpt>
      <trkpt lat="44.41597" lon="5.19469">
        <ele>378</ele>
        <time>2022-09-29T07:06:22Z</time>
      </trkpt>
      <trkpt lat="44.41598" lon="5.19469">
        <ele>378</ele>
        <time>2022-09-29T07:06:23Z</time>
      </trkpt>
      <trkpt lat="44.41599" lon="5.19469">
        <ele>378</ele>
        <time>2022-09-29T07:06:24Z</time>
      </trkpt>
      <trkpt lat="44.416" lon="5.19469">
        <ele>378</ele>
        <time>2022-09-29T07:06:25Z</time>
      </trkpt>
      <trkpt lat="44.41601" lon="5.1947">
        <ele>378</ele>
        <time>2022-09-29T07:06:26Z</time>
      </trkpt>
      <trkpt lat="44.41602" lon="5.1947">
        <ele>378</ele>
        <time>2022-09-29T07:06:27Z</time>
      </trkpt>
      <trkpt lat="44.41603" lon="5.1947">
        <ele>378</ele>
        <time>2022-09-29T07:06:28Z</time>
      </trkpt>
      <trkpt lat="44.41604" lon="5.1947">
        <ele>378</ele>
        <time>2022-09-29T07:06:29Z</time>
      </trkpt>
      <trkpt lat="44.41606" lon="5.1947">
        <ele>378</ele>
        <time>2022-09-29T07:06:30Z</time>
      </trkpt>
      <trkpt lat="44.41607" lon="5.1947">
        <ele>378</ele>
        <time>2022-09-29T07:06:31Z</time>
      </trkpt>
      <trkpt lat="44.41608" lon="5.19469">
        <ele>378</ele>
        <time>2022-09-29T07:06:32Z</time>
      </trkpt>
      <trkpt lat="44.41609" lon="5.19469">
        <ele>378</ele>
        <time>2022-09-29T07:06:33Z</time>
      </trkpt>
      <trkpt lat="44.4161" lon="5.19469">
        <ele>379</ele>
        <time>2022-09-29T07:06:34Z</time>
      </trkpt>
      <trkpt lat="44.41611" lon="5.19469">
        <ele>379</ele>
        <time>2022-09-29T07:06:35Z</time>
      </trkpt>
      <trkpt lat="44.41612" lon="5.19469">
        <ele>379</ele>
        <time>2022-09-29T07:06:36Z</time>
      </trkpt>
      <trkpt lat="44.41613" lon="5.19469">
        <ele>379</ele>
        <time>2022-09-29T07:06:37Z</time>
      </trkpt>
      <trkpt lat="44.41614" lon="5.19469">
        <ele>379</ele>
        <time>2022-09-29T07:06:38Z</time>
      </trkpt>
      <trkpt lat="44.41615" lon="5.19469">
        <ele>379</ele>
        <time>2022-09-29T07:06:39Z</time>
      </trkpt>
      <trkpt lat="44.41616" lon="5.19469">
        <ele>379</ele>
        <time>2022-09-29T07:06:40Z</time>
      </trkpt>
      <trkpt lat="44.41617" lon="5.19469">
        <ele>379</ele>
        <time>2022-09-29T07:06:41Z</time>
      </trkpt>
      <trkpt lat="44.41618" lon="5.19469">
        <ele>379</ele>
        <time>2022-09-29T07:06:42Z</time>
      </trkpt>
      <trkpt lat="44.4162" lon="5.19469">
        <ele>379</ele>
        <time>2022-09-29T07:06:43Z</time>
      </trkpt>
      <trkpt lat="44.41621" lon="5.19469">
        <ele>379</ele>
        <time>2022-09-29T07:06:44Z</time>
      </trkpt>
      <trkpt lat="44.41622" lon="5.1947">
        <ele>379</ele>
        <time>2022-09-29T07:06:45Z</time>
      </trkpt>
      <trkpt lat="44.41623" lon="5.1947">
        <ele>379</ele>
        <time>2022-09-29T07:06:46Z</time>
      </trkpt>
      <trkpt lat="44.41624" lon="5.1947">
        <ele>379</ele>
        <time>2022-09-29T07:06:47Z</time>
      </trkpt>
      <trkpt lat="44.41625" lon="5.1947">
        <ele>379</ele>
        <time>2022-09-29T07:06:48Z</time>
      </trkpt>
      <trkpt lat="44.41626" lon="5.1947">
        <ele>380</ele>
        <time>2022-09-29T07:06:49Z</time>
      </trkpt>
      <trkpt lat="44.41628" lon="5.1947">
        <ele>380</ele>
        <time>2022-09-29T07:06:50Z</time>
      </trkpt>
      <trkpt lat="44.41629" lon="5.1947">
        <ele>380</ele>
        <time>2022-09-29T07:06:51Z</time>
      </trkpt>
      <trkpt lat="44.4163" lon="5.1947">
        <ele>380</ele>
        <time>2022-09-29T07:06:52Z</time>
      </trkpt>
      <trkpt lat="44.41631" lon="5.1947">
        <ele>380</ele>
        <time>2022-09-29T07:06:53Z</time>
      </trkpt>
      <trkpt lat="44.41632" lon="5.1947">
        <ele>380</ele>
        <time>2022-09-29T07:06:54Z</time>
      </trkpt>
      <trkpt lat="44.41633" lon="5.1947">
        <ele>380</ele>
        <time>2022-09-29T07:06:55Z</time>
      </trkpt>
      <trkpt lat="44.41634" lon="5.19469">
        <ele>380</ele>
        <time>2022-09-29T07:06:56Z</time>
      </trkpt>
      <trkpt lat="44.41635" lon="5.19469">
        <ele>380</ele>
        <time>2022-09-29T07:06:57Z</time>
      </trkpt>
      <trkpt lat="44.41636" lon="5.19469">
        <ele>380</ele>
        <time>2022-09-29T07:06:58Z</time>
      </trkpt>
      <trkpt lat="44.41637" lon="5.19469">
        <ele>381</ele>
        <time>2022-09-29T07:06:59Z</time>
      </trkpt>
      <trkpt lat="44.41638" lon="5.19468">
        <ele>381</ele>
        <time>2022-09-29T07:07:00Z</time>
      </trkpt>
      <trkpt lat="44.41639" lon="5.19468">
        <ele>381</ele>
        <time>2022-09-29T07:07:01Z</time>
      </trkpt>
      <trkpt lat="44.4164" lon="5.19468">
        <ele>381</ele>
        <time>2022-09-29T07:07:02Z</time>
      </trkpt>
      <trkpt lat="44.41642" lon="5.19468">
        <ele>381</ele>
        <time>2022-09-29T07:07:03Z</time>
      </trkpt>
      <trkpt lat="44.41643" lon="5.19467">
        <ele>381</ele>
        <time>2022-09-29T07:07:04Z</time>
      </trkpt>
      <trkpt lat="44.41644" lon="5.19467">
        <ele>381</ele>
        <time>2022-09-29T07:07:05Z</time>
      </trkpt>
      <trkpt lat="44.41645" lon="5.19467">
        <ele>381</ele>
        <time>2022-09-29T07:07:06Z</time>
      </trkpt>
      <trkpt lat="44.41646" lon="5.19466">
        <ele>381</ele>
        <time>2022-09-29T07:07:07Z</time>
      </trkpt>
      <trkpt lat="44.41647" lon="5.19465">
        <ele>381</ele>
        <time>2022-09-29T07:07:08Z</time>
      </trkpt>
      <trkpt lat="44.41648" lon="5.19465">
        <ele>381</ele>
        <time>2022-09-29T07:07:09Z</time>
      </trkpt>
      <trkpt lat="44.41649" lon="5.19464">
        <ele>381</ele>
        <time>2022-09-29T07:07:10Z</time>
      </trkpt>
      <trkpt lat="44.4165" lon="5.19463">
        <ele>381</ele>
        <time>2022-09-29T07:07:11Z</time>
      </trkpt>
      <trkpt lat="44.41651" lon="5.19462">
        <ele>381</ele>
        <time>2022-09-29T07:07:12Z</time>
      </trkpt>
      <trkpt lat="44.41652" lon="5.19462">
        <ele>381</ele>
        <time>2022-09-29T07:07:13Z</time>
      </trkpt>
      <trkpt lat="44.41653" lon="5.19461">
        <ele>381</ele>
        <time>2022-09-29T07:07:14Z</time>
      </trkpt>
      <trkpt lat="44.41654" lon="5.1946">
        <ele>381</ele>
        <time>2022-09-29T07:07:15Z</time>
      </trkpt>
      <trkpt lat="44.41655" lon="5.19459">
        <ele>381</ele>
        <time>2022-09-29T07:07:16Z</time>
      </trkpt>
      <trkpt lat="44.41656" lon="5.19459">
        <ele>381</ele>
        <time>2022-09-29T07:07:17Z</time>
      </trkpt>
      <trkpt lat="44.41657" lon="5.19458">
        <ele>381</ele>
        <time>2022-09-29T07:07:18Z</time>
      </trkpt>
      <trkpt lat="44.41658" lon="5.19458">
        <ele>382</ele>
        <time>2022-09-29T07:07:19Z</time>
      </trkpt>
      <trkpt lat="44.41659" lon="5.19457">
        <ele>382</ele>
        <time>2022-09-29T07:07:20Z</time>
      </trkpt>
      <trkpt lat="44.4166" lon="5.19456">
        <ele>382</ele>
        <time>2022-09-29T07:07:21Z</time>
      </trkpt>
      <trkpt lat="44.41661" lon="5.19456">
        <ele>382</ele>
        <time>2022-09-29T07:07:22Z</time>
      </trkpt>
      <trkpt lat="44.41662" lon="5.19455">
        <ele>382</ele>
        <time>2022-09-29T07:07:23Z</time>
      </trkpt>
      <trkpt lat="44.41663" lon="5.19454">
        <ele>382</ele>
        <time>2022-09-29T07:07:24Z</time>
      </trkpt>
      <trkpt lat="44.41664" lon="5.19453">
        <ele>382</ele>
        <time>2022-09-29T07:07:25Z</time>
      </trkpt>
      <trkpt lat="44.41665" lon="5.19453">
        <ele>382</ele>
        <time>2022-09-29T07:07:26Z</time>
      </trkpt>
      <trkpt lat="44.41666" lon="5.19452">
        <ele>382</ele>
        <time>2022-09-29T07:07:27Z</time>
      </trkpt>
      <trkpt lat="44.41667" lon="5.19451">
        <ele>382</ele>
        <time>2022-09-29T07:07:28Z</time>
      </trkpt>
      <trkpt lat="44.41669" lon="5.1945">
        <ele>382</ele>
        <time>2022-09-29T07:07:29Z</time>
      </trkpt>
      <trkpt lat="44.4167" lon="5.19449">
        <ele>382</ele>
        <time>2022-09-29T07:07:30Z</time>
      </trkpt>
      <trkpt lat="44.41671" lon="5.19449">
        <ele>382</ele>
        <time>2022-09-29T07:07:31Z</time>
      </trkpt>
      <trkpt lat="44.41672" lon="5.19448">
        <ele>382</ele>
        <time>2022-09-29T07:07:32Z</time>
      </trkpt>
      <trkpt lat="44.41673" lon="5.19447">
        <ele>382</ele>
        <time>2022-09-29T07:07:33Z</time>
      </trkpt>
      <trkpt lat="44.41674" lon="5.19446">
        <ele>383</ele>
        <time>2022-09-29T07:07:34Z</time>
      </trkpt>
      <trkpt lat="44.41675" lon="5.19445">
        <ele>383</ele>
        <time>2022-09-29T07:07:35Z</time>
      </trkpt>
      <trkpt lat="44.41676" lon="5.19444">
        <ele>383</ele>
        <time>2022-09-29T07:07:36Z</time>
      </trkpt>
      <trkpt lat="44.41677" lon="5.19443">
        <ele>383</ele>
        <time>2022-09-29T07:07:37Z</time>
      </trkpt>
      <trkpt lat="44.41678" lon="5.19442">
        <ele>383</ele>
        <time>2022-09-29T07:07:38Z</time>
      </trkpt>
      <trkpt lat="44.41679" lon="5.19441">
        <ele>383</ele>
        <time>2022-09-29T07:07:39Z</time>
      </trkpt>
      <trkpt lat="44.41679" lon="5.1944">
        <ele>383</ele>
        <time>2022-09-29T07:07:40Z</time>
      </trkpt>
      <trkpt lat="44.4168" lon="5.19439">
        <ele>383</ele>
        <time>2022-09-29T07:07:41Z</time>
      </trkpt>
      <trkpt lat="44.41681" lon="5.19439">
        <ele>383</ele>
        <time>2022-09-29T07:07:42Z</time>
      </trkpt>
      <trkpt lat="44.41682" lon="5.19438">
        <ele>383</ele>
        <time>2022-09-29T07:07:43Z</time>
      </trkpt>
      <trkpt lat="44.41683" lon="5.19437">
        <ele>383</ele>
        <time>2022-09-29T07:07:44Z</time>
      </trkpt>
      <trkpt lat="44.41684" lon="5.19436">
        <ele>383</ele>
        <time>2022-09-29T07:07:45Z</time>
      </trkpt>
      <trkpt lat="44.41684" lon="5.19435">
        <ele>383</ele>
        <time>2022-09-29T07:07:46Z</time>
      </trkpt>
      <trkpt lat="44.41685" lon="5.19434">
        <ele>383</ele>
        <time>2022-09-29T07:07:47Z</time>
      </trkpt>
      <trkpt lat="44.41686" lon="5.19433">
        <ele>383</ele>
        <time>2022-09-29T07:07:48Z</time>
      </trkpt>
      <trkpt lat="44.41686" lon="5.19432">
        <ele>384</ele>
        <time>2022-09-29T07:07:49Z</time>
      </trkpt>
      <trkpt lat="44.41687" lon="5.19432">
        <ele>384</ele>
        <time>2022-09-29T07:07:50Z</time>
      </trkpt>
      <trkpt lat="44.41687" lon="5.19431">
        <ele>384</ele>
        <time>2022-09-29T07:07:51Z</time>
      </trkpt>
      <trkpt lat="44.41688" lon="5.1943">
        <ele>384</ele>
        <time>2022-09-29T07:07:52Z</time>
      </trkpt>
      <trkpt lat="44.41688" lon="5.19429">
        <ele>384</ele>
        <time>2022-09-29T07:07:53Z</time>
      </trkpt>
      <trkpt lat="44.41689" lon="5.19429">
        <ele>384</ele>
        <time>2022-09-29T07:07:54Z</time>
      </trkpt>
      <trkpt lat="44.41689" lon="5.19429">
        <ele>384</ele>
        <time>2022-09-29T07:07:55Z</time>
      </trkpt>
      <trkpt lat="44.41689" lon="5.19428">
        <ele>384</ele>
        <time>2022-09-29T07:07:56Z</time>
      </trkpt>
      <trkpt lat="44.4169" lon="5.19427">
        <ele>384</ele>
        <time>2022-09-29T07:07:57Z</time>
      </trkpt>
      <trkpt lat="44.41691" lon="5.19427">
        <ele>384</ele>
        <time>2022-09-29T07:07:58Z</time>
      </trkpt>
      <trkpt lat="44.41691" lon="5.19426">
        <ele>384</ele>
        <time>2022-09-29T07:07:59Z</time>
      </trkpt>
      <trkpt lat="44.41692" lon="5.19425">
        <ele>384</ele>
        <time>2022-09-29T07:08:00Z</time>
      </trkpt>
      <trkpt lat="44.41693" lon="5.19424">
        <ele>384</ele>
        <time>2022-09-29T07:08:01Z</time>
      </trkpt>
      <trkpt lat="44.41694" lon="5.19423">
        <ele>384</ele>
        <time>2022-09-29T07:08:02Z</time>
      </trkpt>
      <trkpt lat="44.41695" lon="5.19422">
        <ele>384</ele>
        <time>2022-09-29T07:08:03Z</time>
      </trkpt>
      <trkpt lat="44.41696" lon="5.19421">
        <ele>384</ele>
        <time>2022-09-29T07:08:04Z</time>
      </trkpt>
      <trkpt lat="44.41696" lon="5.1942">
        <ele>384</ele>
        <time>2022-09-29T07:08:05Z</time>
      </trkpt>
      <trkpt lat="44.41697" lon="5.19419">
        <ele>384</ele>
        <time>2022-09-29T07:08:06Z</time>
      </trkpt>
      <trkpt lat="44.41698" lon="5.19418">
        <ele>384</ele>
        <time>2022-09-29T07:08:07Z</time>
      </trkpt>
      <trkpt lat="44.41699" lon="5.19417">
        <ele>384</ele>
        <time>2022-09-29T07:08:08Z</time>
      </trkpt>
      <trkpt lat="44.417" lon="5.19416">
        <ele>384</ele>
        <time>2022-09-29T07:08:09Z</time>
      </trkpt>
      <trkpt lat="44.41701" lon="5.19415">
        <ele>384</ele>
        <time>2022-09-29T07:08:10Z</time>
      </trkpt>
      <trkpt lat="44.41702" lon="5.19414">
        <ele>384</ele>
        <time>2022-09-29T07:08:11Z</time>
      </trkpt>
      <trkpt lat="44.41704" lon="5.19412">
        <ele>384</ele>
        <time>2022-09-29T07:08:12Z</time>
      </trkpt>
      <trkpt lat="44.41705" lon="5.19411">
        <ele>384</ele>
        <time>2022-09-29T07:08:13Z</time>
      </trkpt>
      <trkpt lat="44.41705" lon="5.1941">
        <ele>384</ele>
        <time>2022-09-29T07:08:14Z</time>
      </trkpt>
      <trkpt lat="44.41706" lon="5.19409">
        <ele>384</ele>
        <time>2022-09-29T07:08:15Z</time>
      </trkpt>
      <trkpt lat="44.41707" lon="5.19408">
        <ele>384</ele>
        <time>2022-09-29T07:08:16Z</time>
      </trkpt>
      <trkpt lat="44.41708" lon="5.19407">
        <ele>384</ele>
        <time>2022-09-29T07:08:17Z</time>
      </trkpt>
      <trkpt lat="44.41709" lon="5.19406">
        <ele>384</ele>
        <time>2022-09-29T07:08:18Z</time>
      </trkpt>
      <trkpt lat="44.4171" lon="5.19405">
        <ele>384</ele>
        <time>2022-09-29T07:08:19Z</time>
      </trkpt>
      <trkpt lat="44.41711" lon="5.19404">
        <ele>384</ele>
        <time>2022-09-29T07:08:20Z</time>
      </trkpt>
      <trkpt lat="44.41712" lon="5.19403">
        <ele>384</ele>
        <time>2022-09-29T07:08:21Z</time>
      </trkpt>
      <trkpt lat="44.41713" lon="5.19402">
        <ele>384</ele>
        <time>2022-09-29T07:08:22Z</time>
      </trkpt>
      <trkpt lat="44.41714" lon="5.19401">
        <ele>384</ele>
        <time>2022-09-29T07:08:23Z</time>
      </trkpt>
      <trkpt lat="44.41715" lon="5.194">
        <ele>384</ele>
        <time>2022-09-29T07:08:24Z</time>
      </trkpt>
      <trkpt lat="44.41716" lon="5.19399">
        <ele>384</ele>
        <time>2022-09-29T07:08:25Z</time>
      </trkpt>
      <trkpt lat="44.41717" lon="5.19398">
        <ele>384</ele>
        <time>2022-09-29T07:08:26Z</time>
      </trkpt>
      <trkpt lat="44.41718" lon="5.19397">
        <ele>384</ele>
        <time>2022-09-29T07:08:27Z</time>
      </trkpt>
      <trkpt lat="44.41718" lon="5.19396">
        <ele>384</ele>
        <time>2022-09-29T07:08:28Z</time>
      </trkpt>
      <trkpt lat="44.41719" lon="5.19394">
        <ele>384</ele>
        <time>2022-09-29T07:08:29Z</time>
      </trkpt>
      <trkpt lat="44.4172" lon="5.19393">
        <ele>384</ele>
        <time>2022-09-29T07:08:30Z</time>
      </trkpt>
      <trkpt lat="44.41721" lon="5.19392">
        <ele>384</ele>
        <time>2022-09-29T07:08:31Z</time>
      </trkpt>
      <trkpt lat="44.41722" lon="5.19391">
        <ele>384</ele>
        <time>2022-09-29T07:08:32Z</time>
      </trkpt>
      <trkpt lat="44.41723" lon="5.1939">
        <ele>384</ele>
        <time>2022-09-29T07:08:33Z</time>
      </trkpt>
      <trkpt lat="44.41723" lon="5.19389">
        <ele>384</ele>
        <time>2022-09-29T07:08:34Z</time>
      </trkpt>
      <trkpt lat="44.41724" lon="5.19388">
        <ele>384</ele>
        <time>2022-09-29T07:08:35Z</time>
      </trkpt>
      <trkpt lat="44.41725" lon="5.19387">
        <ele>384</ele>
        <time>2022-09-29T07:08:36Z</time>
      </trkpt>
      <trkpt lat="44.41725" lon="5.19386">
        <ele>384</ele>
        <time>2022-09-29T07:08:37Z</time>
      </trkpt>
      <trkpt lat="44.41726" lon="5.19386">
        <ele>384</ele>
        <time>2022-09-29T07:08:38Z</time>
      </trkpt>
      <trkpt lat="44.41727" lon="5.19385">
        <ele>384</ele>
        <time>2022-09-29T07:08:39Z</time>
      </trkpt>
      <trkpt lat="44.41728" lon="5.19384">
        <ele>384</ele>
        <time>2022-09-29T07:08:40Z</time>
      </trkpt>
      <trkpt lat="44.41728" lon="5.19383">
        <ele>384</ele>
        <time>2022-09-29T07:08:41Z</time>
      </trkpt>
      <trkpt lat="44.41729" lon="5.19382">
        <ele>384</ele>
        <time>2022-09-29T07:08:42Z</time>
      </trkpt>
      <trkpt lat="44.4173" lon="5.19381">
        <ele>384</ele>
        <time>2022-09-29T07:08:43Z</time>
      </trkpt>
      <trkpt lat="44.41731" lon="5.1938">
        <ele>384</ele>
        <time>2022-09-29T07:08:44Z</time>
      </trkpt>
      <trkpt lat="44.41732" lon="5.19379">
        <ele>384</ele>
        <time>2022-09-29T07:08:45Z</time>
      </trkpt>
      <trkpt lat="44.41733" lon="5.19378">
        <ele>384</ele>
        <time>2022-09-29T07:08:46Z</time>
      </trkpt>
      <trkpt lat="44.41734" lon="5.19377">
        <ele>384</ele>
        <time>2022-09-29T07:08:47Z</time>
      </trkpt>
      <trkpt lat="44.41735" lon="5.19376">
        <ele>384</ele>
        <time>2022-09-29T07:08:48Z</time>
      </trkpt>
      <trkpt lat="44.41736" lon="5.19375">
        <ele>384</ele>
        <time>2022-09-29T07:08:49Z</time>
      </trkpt>
      <trkpt lat="44.41737" lon="5.19374">
        <ele>384</ele>
        <time>2022-09-29T07:08:50Z</time>
      </trkpt>
      <trkpt lat="44.41738" lon="5.19373">
        <ele>384</ele>
        <time>2022-09-29T07:08:51Z</time>
      </trkpt>
      <trkpt lat="44.41739" lon="5.19372">
        <ele>384</ele>
        <time>2022-09-29T07:08:52Z</time>
      </trkpt>
      <trkpt lat="44.4174" lon="5.19371">
        <ele>384</ele>
        <time>2022-09-29T07:08:53Z</time>
      </trkpt>
      <trkpt lat="44.41741" lon="5.1937">
        <ele>384</ele>
        <time>2022-09-29T07:08:54Z</time>
      </trkpt>
      <trkpt lat="44.41741" lon="5.19369">
        <ele>384</ele>
        <time>2022-09-29T07:08:55Z</time>
      </trkpt>
      <trkpt lat="44.41742" lon="5.19368">
        <ele>384</ele>
        <time>2022-09-29T07:08:56Z</time>
      </trkpt>
      <trkpt lat="44.41743" lon="5.19367">
        <ele>384</ele>
        <time>2022-09-29T07:08:57Z</time>
      </trkpt>
      <trkpt lat="44.41744" lon="5.19366">
        <ele>384</ele>
        <time>2022-09-29T07:08:58Z</time>
      </trkpt>
      <trkpt lat="44.41745" lon="5.19365">
        <ele>384</ele>
        <time>2022-09-29T07:08:59Z</time>
      </trkpt>
      <trkpt lat="44.41746" lon="5.19364">
        <ele>384</ele>
        <time>2022-09-29T07:09:00Z</time>
      </trkpt>
      <trkpt lat="44.41747" lon="5.19362">
        <ele>384</ele>
        <time>2022-09-29T07:09:01Z</time>
      </trkpt>
      <trkpt lat="44.41748" lon="5.19361">
        <ele>384</ele>
        <time>2022-09-29T07:09:02Z</time>
      </trkpt>
      <trkpt lat="44.41749" lon="5.1936">
        <ele>384</ele>
        <time>2022-09-29T07:09:03Z</time>
      </trkpt>
      <trkpt lat="44.41749" lon="5.19359">
        <ele>384</ele>
        <time>2022-09-29T07:09:04Z</time>
      </trkpt>
      <trkpt lat="44.4175" lon="5.19358">
        <ele>384</ele>
        <time>2022-09-29T07:09:05Z</time>
      </trkpt>
      <trkpt lat="44.41751" lon="5.19356">
        <ele>384</ele>
        <time>2022-09-29T07:09:06Z</time>
      </trkpt>
      <trkpt lat="44.41752" lon="5.19355">
        <ele>384</ele>
        <time>2022-09-29T07:09:07Z</time>
      </trkpt>
      <trkpt lat="44.41753" lon="5.19354">
        <ele>384</ele>
        <time>2022-09-29T07:09:08Z</time>
      </trkpt>
      <trkpt lat="44.41754" lon="5.19353">
        <ele>384</ele>
        <time>2022-09-29T07:09:09Z</time>
      </trkpt>
      <trkpt lat="44.41755" lon="5.19352">
        <ele>384</ele>
        <time>2022-09-29T07:09:10Z</time>
      </trkpt>
      <trkpt lat="44.41756" lon="5.19351">
        <ele>384</ele>
        <time>2022-09-29T07:09:11Z</time>
      </trkpt>
      <trkpt lat="44.41757" lon="5.19349">
        <ele>384</ele>
        <time>2022-09-29T07:09:12Z</time>
      </trkpt>
      <trkpt lat="44.41758" lon="5.19348">
        <ele>384</ele>
        <time>2022-09-29T07:09:13Z</time>
      </trkpt>
      <trkpt lat="44.41759" lon="5.19347">
        <ele>384</ele>
        <time>2022-09-29T07:09:14Z</time>
      </trkpt>
      <trkpt lat="44.4176" lon="5.19346">
        <ele>384</ele>
        <time>2022-09-29T07:09:15Z</time>
      </trkpt>
      <trkpt lat="44.41761" lon="5.19345">
        <ele>384</ele>
        <time>2022-09-29T07:09:16Z</time>
      </trkpt>
      <trkpt lat="44.41762" lon="5.19344">
        <ele>384</ele>
        <time>2022-09-29T07:09:17Z</time>
      </trkpt>
      <trkpt lat="44.41763" lon="5.19342">
        <ele>384</ele>
        <time>2022-09-29T07:09:18Z</time>
      </trkpt>
      <trkpt lat="44.41764" lon="5.19341">
        <ele>384</ele>
        <time>2022-09-29T07:09:19Z</time>
      </trkpt>
      <trkpt lat="44.41765" lon="5.1934">
        <ele>384</ele>
        <time>2022-09-29T07:09:20Z</time>
      </trkpt>
      <trkpt lat="44.41766" lon="5.19339">
        <ele>384</ele>
        <time>2022-09-29T07:09:21Z</time>
      </trkpt>
      <trkpt lat="44.41767" lon="5.19338">
        <ele>384</ele>
        <time>2022-09-29T07:09:22Z</time>
      </trkpt>
      <trkpt lat="44.41768" lon="5.19337">
        <ele>384</ele>
        <time>2022-09-29T07:09:23Z</time>
      </trkpt>
      <trkpt lat="44.41769" lon="5.19335">
        <ele>384</ele>
        <time>2022-09-29T07:09:24Z</time>
      </trkpt>
      <trkpt lat="44.4177" lon="5.19334">
        <ele>384</ele>
        <time>2022-09-29T07:09:25Z</time>
      </trkpt>
      <trkpt lat="44.41771" lon="5.19333">
        <ele>384</ele>
        <time>2022-09-29T07:09:26Z</time>
      </trkpt>
      <trkpt lat="44.41772" lon="5.19331">
        <ele>384</ele>
        <time>2022-09-29T07:09:27Z</time>
      </trkpt>
      <trkpt lat="44.41773" lon="5.1933">
        <ele>384</ele>
        <time>2022-09-29T07:09:28Z</time>
      </trkpt>
      <trkpt lat="44.41773" lon="5.19329">
        <ele>384</ele>
        <time>2022-09-29T07:09:29Z</time>
      </trkpt>
      <trkpt lat="44.41774" lon="5.19328">
        <ele>384</ele>
        <time>2022-09-29T07:09:30Z</time>
      </trkpt>
      <trkpt lat="44.41775" lon="5.19327">
        <ele>384</ele>
        <time>2022-09-29T07:09:31Z</time>
      </trkpt>
      <trkpt lat="44.41776" lon="5.19326">
        <ele>384</ele>
        <time>2022-09-29T07:09:32Z</time>
      </trkpt>
      <trkpt lat="44.41777" lon="5.19324">
        <ele>384</ele>
        <time>2022-09-29T07:09:33Z</time>
      </trkpt>
      <trkpt lat="44.41778" lon="5.19323">
        <ele>384</ele>
        <time>2022-09-29T07:09:34Z</time>
      </trkpt>
      <trkpt lat="44.41779" lon="5.19322">
        <ele>384</ele>
        <time>2022-09-29T07:09:35Z</time>
      </trkpt>
      <trkpt lat="44.4178" lon="5.19321">
        <ele>384</ele>
        <time>2022-09-29T07:09:36Z</time>
      </trkpt>
      <trkpt lat="44.41781" lon="5.1932">
        <ele>384</ele>
        <time>2022-09-29T07:09:37Z</time>
      </trkpt>
      <trkpt lat="44.41782" lon="5.19319">
        <ele>384</ele>
        <time>2022-09-29T07:09:38Z</time>
      </trkpt>
      <trkpt lat="44.41783" lon="5.19318">
        <ele>384</ele>
        <time>2022-09-29T07:09:39Z</time>
      </trkpt>
      <trkpt lat="44.41784" lon="5.19317">
        <ele>384</ele>
        <time>2022-09-29T07:09:40Z</time>
      </trkpt>
      <trkpt lat="44.41785" lon="5.19316">
        <ele>384</ele>
        <time>2022-09-29T07:09:41Z</time>
      </trkpt>
      <trkpt lat="44.41786" lon="5.19315">
        <ele>384</ele>
        <time>2022-09-29T07:09:42Z</time>
      </trkpt>
      <trkpt lat="44.41787" lon="5.19314">
        <ele>384</ele>
        <time>2022-09-29T07:09:43Z</time>
      </trkpt>
      <trkpt lat="44.41788" lon="5.19313">
        <ele>384</ele>
        <time>2022-09-29T07:09:44Z</time>
      </trkpt>
      <trkpt lat="44.41789" lon="5.19312">
        <ele>384</ele>
        <time>2022-09-29T07:09:45Z</time>
      </trkpt>
      <trkpt lat="44.4179" lon="5.19311">
        <ele>384</ele>
        <time>2022-09-29T07:09:46Z</time>
      </trkpt>
      <trkpt lat="44.41791" lon="5.1931">
        <ele>384</ele>
        <time>2022-09-29T07:09:47Z</time>
      </trkpt>
      <trkpt lat="44.41792" lon="5.19309">
        <ele>384</ele>
        <time>2022-09-29T07:09:48Z</time>
      </trkpt>
      <trkpt lat="44.41793" lon="5.19308">
        <ele>384</ele>
        <time>2022-09-29T07:09:49Z</time>
      </trkpt>
      <trkpt lat="44.41794" lon="5.19307">
        <ele>384</ele>
        <time>2022-09-29T07:09:50Z</time>
      </trkpt>
      <trkpt lat="44.41795" lon="5.19306">
        <ele>384</ele>
        <time>2022-09-29T07:09:51Z</time>
      </trkpt>
      <trkpt lat="44.41796" lon="5.19305">
        <ele>384</ele>
        <time>2022-09-29T07:09:52Z</time>
      </trkpt>
      <trkpt lat="44.41797" lon="5.19304">
        <ele>384</ele>
        <time>2022-09-29T07:09:53Z</time>
      </trkpt>
      <trkpt lat="44.41798" lon="5.19303">
        <ele>384</ele>
        <time>2022-09-29T07:09:54Z</time>
      </trkpt>
      <trkpt lat="44.41799" lon="5.19302">
        <ele>384</ele>
        <time>2022-09-29T07:09:55Z</time>
      </trkpt>
      <trkpt lat="44.41801" lon="5.19302">
        <ele>384</ele>
        <time>2022-09-29T07:09:56Z</time>
      </trkpt>
      <trkpt lat="44.41802" lon="5.19301">
        <ele>384</ele>
        <time>2022-09-29T07:09:57Z</time>
      </trkpt>
      <trkpt lat="44.41803" lon="5.193">
        <ele>384</ele>
        <time>2022-09-29T07:09:58Z</time>
      </trkpt>
      <trkpt lat="44.41804" lon="5.193">
        <ele>384</ele>
        <time>2022-09-29T07:09:59Z</time>
      </trkpt>
      <trkpt lat="44.41806" lon="5.19299">
        <ele>384</ele>
        <time>2022-09-29T07:10:00Z</time>
      </trkpt>
      <trkpt lat="44.41807" lon="5.19299">
        <ele>384</ele>
        <time>2022-09-29T07:10:01Z</time>
      </trkpt>
      <trkpt lat="44.41808" lon="5.19298">
        <ele>384</ele>
        <time>2022-09-29T07:10:02Z</time>
      </trkpt>
      <trkpt lat="44.41809" lon="5.19298">
        <ele>384</ele>
        <time>2022-09-29T07:10:03Z</time>
      </trkpt>
      <trkpt lat="44.4181" lon="5.19297">
        <ele>384</ele>
        <time>2022-09-29T07:10:04Z</time>
      </trkpt>
      <trkpt lat="44.41811" lon="5.19297">
        <ele>384</ele>
        <time>2022-09-29T07:10:05Z</time>
      </trkpt>
      <trkpt lat="44.41812" lon="5.19296">
        <ele>384</ele>
        <time>2022-09-29T07:10:06Z</time>
      </trkpt>
      <trkpt lat="44.41813" lon="5.19295">
        <ele>384</ele>
        <time>2022-09-29T07:10:07Z</time>
      </trkpt>
      <trkpt lat="44.41814" lon="5.19295">
        <ele>384</ele>
        <time>2022-09-29T07:10:08Z</time>
      </trkpt>
      <trkpt lat="44.41815" lon="5.19294">
        <ele>385</ele>
        <time>2022-09-29T07:10:09Z</time>
      </trkpt>
      <trkpt lat="44.41816" lon="5.19294">
        <ele>384</ele>
        <time>2022-09-29T07:10:10Z</time>
      </trkpt>
      <trkpt lat="44.41817" lon="5.19294">
        <ele>384</ele>
        <time>2022-09-29T07:10:11Z</time>
      </trkpt>
      <trkpt lat="44.41818" lon="5.19293">
        <ele>384</ele>
        <time>2022-09-29T07:10:12Z</time>
      </trkpt>
      <trkpt lat="44.41819" lon="5.19293">
        <ele>384</ele>
        <time>2022-09-29T07:10:13Z</time>
      </trkpt>
      <trkpt lat="44.41821" lon="5.19293">
        <ele>384</ele>
        <time>2022-09-29T07:10:14Z</time>
      </trkpt>
      <trkpt lat="44.41822" lon="5.19293">
        <ele>384</ele>
        <time>2022-09-29T07:10:15Z</time>
      </trkpt>
      <trkpt lat="44.41823" lon="5.19293">
        <ele>384</ele>
        <time>2022-09-29T07:10:16Z</time>
      </trkpt>
      <trkpt lat="44.41824" lon="5.19292">
        <ele>384</ele>
        <time>2022-09-29T07:10:17Z</time>
      </trkpt>
      <trkpt lat="44.41825" lon="5.19292">
        <ele>384</ele>
        <time>2022-09-29T07:10:18Z</time>
      </trkpt>
      <trkpt lat="44.41826" lon="5.19292">
        <ele>384</ele>
        <time>2022-09-29T07:10:19Z</time>
      </trkpt>
      <trkpt lat="44.41828" lon="5.19292">
        <ele>384</ele>
        <time>2022-09-29T07:10:20Z</time>
      </trkpt>
      <trkpt lat="44.41829" lon="5.19292">
        <ele>384</ele>
        <time>2022-09-29T07:10:21Z</time>
      </trkpt>
      <trkpt lat="44.4183" lon="5.19292">
        <ele>384</ele>
        <time>2022-09-29T07:10:22Z</time>
      </trkpt>
      <trkpt lat="44.41831" lon="5.19292">
        <ele>384</ele>
        <time>2022-09-29T07:10:23Z</time>
      </trkpt>
      <trkpt lat="44.41832" lon="5.19292">
        <ele>384</ele>
        <time>2022-09-29T07:10:24Z</time>
      </trkpt>
      <trkpt lat="44.41834" lon="5.19292">
        <ele>384</ele>
        <time>2022-09-29T07:10:25Z</time>
      </trkpt>
      <trkpt lat="44.41835" lon="5.19292">
        <ele>384</ele>
        <time>2022-09-29T07:10:26Z</time>
      </trkpt>
      <trkpt lat="44.41836" lon="5.19292">
        <ele>384</ele>
        <time>2022-09-29T07:10:27Z</time>
      </trkpt>
      <trkpt lat="44.41837" lon="5.19292">
        <ele>384</ele>
        <time>2022-09-29T07:10:28Z</time>
      </trkpt>
      <trkpt lat="44.41839" lon="5.19292">
        <ele>384</ele>
        <time>2022-09-29T07:10:29Z</time>
      </trkpt>
      <trkpt lat="44.4184" lon="5.19292">
        <ele>384</ele>
        <time>2022-09-29T07:10:30Z</time>
      </trkpt>
      <trkpt lat="44.41842" lon="5.19292">
        <ele>384</ele>
        <time>2022-09-29T07:10:31Z</time>
      </trkpt>
      <trkpt lat="44.41843" lon="5.19292">
        <ele>384</ele>
        <time>2022-09-29T07:10:32Z</time>
      </trkpt>
      <trkpt lat="44.41844" lon="5.19291">
        <ele>384</ele>
        <time>2022-09-29T07:10:33Z</time>
      </trkpt>
      <trkpt lat="44.41845" lon="5.19291">
        <ele>384</ele>
        <time>2022-09-29T07:10:34Z</time>
      </trkpt>
      <trkpt lat="44.41847" lon="5.19291">
        <ele>384</ele>
        <time>2022-09-29T07:10:35Z</time>
      </trkpt>
      <trkpt lat="44.41848" lon="5.1929">
        <ele>384</ele>
        <time>2022-09-29T07:10:36Z</time>
      </trkpt>
      <trkpt lat="44.41849" lon="5.19289">
        <ele>384</ele>
        <time>2022-09-29T07:10:37Z</time>
      </trkpt>
      <trkpt lat="44.4185" lon="5.19289">
        <ele>384</ele>
        <time>2022-09-29T07:10:38Z</time>
      </trkpt>
      <trkpt lat="44.41852" lon="5.19288">
        <ele>384</ele>
        <time>2022-09-29T07:10:39Z</time>
      </trkpt>
      <trkpt lat="44.41853" lon="5.19288">
        <ele>384</ele>
        <time>2022-09-29T07:10:40Z</time>
      </trkpt>
      <trkpt lat="44.41854" lon="5.19287">
        <ele>384</ele>
        <time>2022-09-29T07:10:41Z</time>
      </trkpt>
      <trkpt lat="44.41855" lon="5.19287">
        <ele>384</ele>
        <time>2022-09-29T07:10:42Z</time>
      </trkpt>
      <trkpt lat="44.41856" lon="5.19286">
        <ele>384</ele>
        <time>2022-09-29T07:10:43Z</time>
      </trkpt>
      <trkpt lat="44.41857" lon="5.19286">
        <ele>384</ele>
        <time>2022-09-29T07:10:44Z</time>
      </trkpt>
      <trkpt lat="44.41858" lon="5.19285">
        <ele>384</ele>
        <time>2022-09-29T07:10:45Z</time>
      </trkpt>
      <trkpt lat="44.4186" lon="5.19285">
        <ele>384</ele>
        <time>2022-09-29T07:10:46Z</time>
      </trkpt>
      <trkpt lat="44.41861" lon="5.19284">
        <ele>384</ele>
        <time>2022-09-29T07:10:47Z</time>
      </trkpt>
      <trkpt lat="44.41862" lon="5.19284">
        <ele>384</ele>
        <time>2022-09-29T07:10:48Z</time>
      </trkpt>
      <trkpt lat="44.41863" lon="5.19283">
        <ele>385</ele>
        <time>2022-09-29T07:10:49Z</time>
      </trkpt>
      <trkpt lat="44.41864" lon="5.19283">
        <ele>385</ele>
        <time>2022-09-29T07:10:50Z</time>
      </trkpt>
      <trkpt lat="44.41865" lon="5.19282">
        <ele>385</ele>
        <time>2022-09-29T07:10:51Z</time>
      </trkpt>
      <trkpt lat="44.41867" lon="5.19282">
        <ele>385</ele>
        <time>2022-09-29T07:10:52Z</time>
      </trkpt>
      <trkpt lat="44.41868" lon="5.19281">
        <ele>385</ele>
        <time>2022-09-29T07:10:53Z</time>
      </trkpt>
      <trkpt lat="44.41869" lon="5.1928">
        <ele>385</ele>
        <time>2022-09-29T07:10:54Z</time>
      </trkpt>
      <trkpt lat="44.4187" lon="5.1928">
        <ele>385</ele>
        <time>2022-09-29T07:10:55Z</time>
      </trkpt>
      <trkpt lat="44.41871" lon="5.19279">
        <ele>385</ele>
        <time>2022-09-29T07:10:56Z</time>
      </trkpt>
      <trkpt lat="44.41872" lon="5.19278">
        <ele>385</ele>
        <time>2022-09-29T07:10:57Z</time>
      </trkpt>
      <trkpt lat="44.41873" lon="5.19277">
        <ele>385</ele>
        <time>2022-09-29T07:10:58Z</time>
      </trkpt>
      <trkpt lat="44.41874" lon="5.19277">
        <ele>385</ele>
        <time>2022-09-29T07:10:59Z</time>
      </trkpt>
      <trkpt lat="44.41875" lon="5.19276">
        <ele>385</ele>
        <time>2022-09-29T07:11:00Z</time>
      </trkpt>
      <trkpt lat="44.41877" lon="5.19275">
        <ele>385</ele>
        <time>2022-09-29T07:11:01Z</time>
      </trkpt>
      <trkpt lat="44.41877" lon="5.19274">
        <ele>385</ele>
        <time>2022-09-29T07:11:02Z</time>
      </trkpt>
      <trkpt lat="44.41878" lon="5.19274">
        <ele>385</ele>
        <time>2022-09-29T07:11:03Z</time>
      </trkpt>
      <trkpt lat="44.41879" lon="5.19273">
        <ele>385</ele>
        <time>2022-09-29T07:11:04Z</time>
      </trkpt>
      <trkpt lat="44.4188" lon="5.19272">
        <ele>385</ele>
        <time>2022-09-29T07:11:05Z</time>
      </trkpt>
      <trkpt lat="44.41882" lon="5.19271">
        <ele>385</ele>
        <time>2022-09-29T07:11:06Z</time>
      </trkpt>
      <trkpt lat="44.41883" lon="5.1927">
        <ele>385</ele>
        <time>2022-09-29T07:11:07Z</time>
      </trkpt>
      <trkpt lat="44.41884" lon="5.1927">
        <ele>385</ele>
        <time>2022-09-29T07:11:08Z</time>
      </trkpt>
      <trkpt lat="44.41885" lon="5.19269">
        <ele>385</ele>
        <time>2022-09-29T07:11:09Z</time>
      </trkpt>
      <trkpt lat="44.41886" lon="5.19268">
        <ele>385</ele>
        <time>2022-09-29T07:11:10Z</time>
      </trkpt>
      <trkpt lat="44.41887" lon="5.19267">
        <ele>385</ele>
        <time>2022-09-29T07:11:11Z</time>
      </trkpt>
      <trkpt lat="44.41888" lon="5.19266">
        <ele>385</ele>
        <time>2022-09-29T07:11:12Z</time>
      </trkpt>
      <trkpt lat="44.41889" lon="5.19265">
        <ele>385</ele>
        <time>2022-09-29T07:11:13Z</time>
      </trkpt>
      <trkpt lat="44.41891" lon="5.19265">
        <ele>385</ele>
        <time>2022-09-29T07:11:14Z</time>
      </trkpt>
      <trkpt lat="44.41892" lon="5.19264">
        <ele>385</ele>
        <time>2022-09-29T07:11:15Z</time>
      </trkpt>
      <trkpt lat="44.41893" lon="5.19263">
        <ele>385</ele>
        <time>2022-09-29T07:11:16Z</time>
      </trkpt>
      <trkpt lat="44.41894" lon="5.19262">
        <ele>385</ele>
        <time>2022-09-29T07:11:17Z</time>
      </trkpt>
      <trkpt lat="44.41895" lon="5.19261">
        <ele>385</ele>
        <time>2022-09-29T07:11:18Z</time>
      </trkpt>
      <trkpt lat="44.41896" lon="5.1926">
        <ele>386</ele>
        <time>2022-09-29T07:11:19Z</time>
      </trkpt>
      <trkpt lat="44.41897" lon="5.1926">
        <ele>386</ele>
        <time>2022-09-29T07:11:20Z</time>
      </trkpt>
      <trkpt lat="44.41899" lon="5.19259">
        <ele>386</ele>
        <time>2022-09-29T07:11:21Z</time>
      </trkpt>
      <trkpt lat="44.419" lon="5.19258">
        <ele>386</ele>
        <time>2022-09-29T07:11:22Z</time>
      </trkpt>
      <trkpt lat="44.41901" lon="5.19257">
        <ele>386</ele>
        <time>2022-09-29T07:11:23Z</time>
      </trkpt>
      <trkpt lat="44.41902" lon="5.19257">
        <ele>386</ele>
        <time>2022-09-29T07:11:24Z</time>
      </trkpt>
      <trkpt lat="44.41903" lon="5.19256">
        <ele>386</ele>
        <time>2022-09-29T07:11:25Z</time>
      </trkpt>
      <trkpt lat="44.41904" lon="5.19255">
        <ele>386</ele>
        <time>2022-09-29T07:11:26Z</time>
      </trkpt>
      <trkpt lat="44.41906" lon="5.19254">
        <ele>386</ele>
        <time>2022-09-29T07:11:27Z</time>
      </trkpt>
      <trkpt lat="44.41907" lon="5.19253">
        <ele>386</ele>
        <time>2022-09-29T07:11:28Z</time>
      </trkpt>
      <trkpt lat="44.41908" lon="5.19253">
        <ele>386</ele>
        <time>2022-09-29T07:11:29Z</time>
      </trkpt>
      <trkpt lat="44.41909" lon="5.19252">
        <ele>386</ele>
        <time>2022-09-29T07:11:30Z</time>
      </trkpt>
      <trkpt lat="44.4191" lon="5.19251">
        <ele>386</ele>
        <time>2022-09-29T07:11:31Z</time>
      </trkpt>
      <trkpt lat="44.41911" lon="5.1925">
        <ele>386</ele>
        <time>2022-09-29T07:11:32Z</time>
      </trkpt>
      <trkpt lat="44.41912" lon="5.19249">
        <ele>386</ele>
        <time>2022-09-29T07:11:33Z</time>
      </trkpt>
      <trkpt lat="44.41912" lon="5.19248">
        <ele>386</ele>
        <time>2022-09-29T07:11:34Z</time>
      </trkpt>
      <trkpt lat="44.41913" lon="5.19248">
        <ele>386</ele>
        <time>2022-09-29T07:11:35Z</time>
      </trkpt>
      <trkpt lat="44.41914" lon="5.19247">
        <ele>386</ele>
        <time>2022-09-29T07:11:36Z</time>
      </trkpt>
      <trkpt lat="44.41915" lon="5.19247">
        <ele>386</ele>
        <time>2022-09-29T07:11:37Z</time>
      </trkpt>
      <trkpt lat="44.41916" lon="5.19246">
        <ele>386</ele>
        <time>2022-09-29T07:11:38Z</time>
      </trkpt>
      <trkpt lat="44.41917" lon="5.19245">
        <ele>386</ele>
        <time>2022-09-29T07:11:39Z</time>
      </trkpt>
      <trkpt lat="44.41919" lon="5.19245">
        <ele>386</ele>
        <time>2022-09-29T07:11:40Z</time>
      </trkpt>
      <trkpt lat="44.4192" lon="5.19244">
        <ele>386</ele>
        <time>2022-09-29T07:11:41Z</time>
      </trkpt>
      <trkpt lat="44.41921" lon="5.19244">
        <ele>386</ele>
        <time>2022-09-29T07:11:42Z</time>
      </trkpt>
      <trkpt lat="44.41922" lon="5.19243">
        <ele>386</ele>
        <time>2022-09-29T07:11:43Z</time>
      </trkpt>
      <trkpt lat="44.41923" lon="5.19243">
        <ele>387</ele>
        <time>2022-09-29T07:11:44Z</time>
      </trkpt>
      <trkpt lat="44.41924" lon="5.19242">
        <ele>387</ele>
        <time>2022-09-29T07:11:45Z</time>
      </trkpt>
      <trkpt lat="44.41925" lon="5.19242">
        <ele>387</ele>
        <time>2022-09-29T07:11:46Z</time>
      </trkpt>
      <trkpt lat="44.41927" lon="5.19241">
        <ele>387</ele>
        <time>2022-09-29T07:11:47Z</time>
      </trkpt>
      <trkpt lat="44.41928" lon="5.19241">
        <ele>387</ele>
        <time>2022-09-29T07:11:48Z</time>
      </trkpt>
      <trkpt lat="44.41929" lon="5.19241">
        <ele>387</ele>
        <time>2022-09-29T07:11:49Z</time>
      </trkpt>
      <trkpt lat="44.4193" lon="5.19241">
        <ele>387</ele>
        <time>2022-09-29T07:11:50Z</time>
      </trkpt>
      <trkpt lat="44.41931" lon="5.1924">
        <ele>387</ele>
        <time>2022-09-29T07:11:51Z</time>
      </trkpt>
      <trkpt lat="44.41932" lon="5.1924">
        <ele>387</ele>
        <time>2022-09-29T07:11:52Z</time>
      </trkpt>
      <trkpt lat="44.41933" lon="5.1924">
        <ele>387</ele>
        <time>2022-09-29T07:11:53Z</time>
      </trkpt>
      <trkpt lat="44.41934" lon="5.19239">
        <ele>387</ele>
        <time>2022-09-29T07:11:54Z</time>
      </trkpt>
      <trkpt lat="44.41935" lon="5.19239">
        <ele>387</ele>
        <time>2022-09-29T07:11:55Z</time>
      </trkpt>
      <trkpt lat="44.41936" lon="5.19238">
        <ele>387</ele>
        <time>2022-09-29T07:11:56Z</time>
      </trkpt>
      <trkpt lat="44.41937" lon="5.19238">
        <ele>387</ele>
        <time>2022-09-29T07:11:57Z</time>
      </trkpt>
      <trkpt lat="44.41939" lon="5.19238">
        <ele>387</ele>
        <time>2022-09-29T07:11:58Z</time>
      </trkpt>
      <trkpt lat="44.4194" lon="5.19237">
        <ele>388</ele>
        <time>2022-09-29T07:11:59Z</time>
      </trkpt>
      <trkpt lat="44.41941" lon="5.19237">
        <ele>388</ele>
        <time>2022-09-29T07:12:00Z</time>
      </trkpt>
      <trkpt lat="44.41942" lon="5.19237">
        <ele>388</ele>
        <time>2022-09-29T07:12:01Z</time>
      </trkpt>
      <trkpt lat="44.41943" lon="5.19237">
        <ele>388</ele>
        <time>2022-09-29T07:12:02Z</time>
      </trkpt>
      <trkpt lat="44.41944" lon="5.19238">
        <ele>388</ele>
        <time>2022-09-29T07:12:03Z</time>
      </trkpt>
      <trkpt lat="44.41945" lon="5.19237">
        <ele>388</ele>
        <time>2022-09-29T07:12:04Z</time>
      </trkpt>
      <trkpt lat="44.41946" lon="5.19237">
        <ele>388</ele>
        <time>2022-09-29T07:12:05Z</time>
      </trkpt>
      <trkpt lat="44.41947" lon="5.19237">
        <ele>388</ele>
        <time>2022-09-29T07:12:06Z</time>
      </trkpt>
      <trkpt lat="44.41948" lon="5.19237">
        <ele>388</ele>
        <time>2022-09-29T07:12:07Z</time>
      </trkpt>
      <trkpt lat="44.41949" lon="5.19237">
        <ele>388</ele>
        <time>2022-09-29T07:12:08Z</time>
      </trkpt>
      <trkpt lat="44.4195" lon="5.19237">
        <ele>388</ele>
        <time>2022-09-29T07:12:09Z</time>
      </trkpt>
      <trkpt lat="44.41951" lon="5.19237">
        <ele>388</ele>
        <time>2022-09-29T07:12:10Z</time>
      </trkpt>
      <trkpt lat="44.41952" lon="5.19237">
        <ele>388</ele>
        <time>2022-09-29T07:12:11Z</time>
      </trkpt>
      <trkpt lat="44.41953" lon="5.19236">
        <ele>388</ele>
        <time>2022-09-29T07:12:12Z</time>
      </trkpt>
      <trkpt lat="44.41953" lon="5.19236">
        <ele>388</ele>
        <time>2022-09-29T07:12:13Z</time>
      </trkpt>
      <trkpt lat="44.41954" lon="5.19236">
        <ele>388</ele>
        <time>2022-09-29T07:12:14Z</time>
      </trkpt>
      <trkpt lat="44.41955" lon="5.19236">
        <ele>388</ele>
        <time>2022-09-29T07:12:15Z</time>
      </trkpt>
      <trkpt lat="44.41956" lon="5.19236">
        <ele>388</ele>
        <time>2022-09-29T07:12:16Z</time>
      </trkpt>
      <trkpt lat="44.41956" lon="5.19236">
        <ele>388</ele>
        <time>2022-09-29T07:12:17Z</time>
      </trkpt>
      <trkpt lat="44.41957" lon="5.19236">
        <ele>388</ele>
        <time>2022-09-29T07:12:18Z</time>
      </trkpt>
      <trkpt lat="44.41958" lon="5.19235">
        <ele>388</ele>
        <time>2022-09-29T07:12:19Z</time>
      </trkpt>
      <trkpt lat="44.41958" lon="5.19235">
        <ele>388</ele>
        <time>2022-09-29T07:12:20Z</time>
      </trkpt>
      <trkpt lat="44.41959" lon="5.19235">
        <ele>388</ele>
        <time>2022-09-29T07:12:21Z</time>
      </trkpt>
      <trkpt lat="44.41961" lon="5.19234">
        <ele>388</ele>
        <time>2022-09-29T07:12:32Z</time>
      </trkpt>
      <trkpt lat="44.41961" lon="5.19234">
        <ele>388</ele>
        <time>2022-09-29T07:12:33Z</time>
      </trkpt>
      <trkpt lat="44.41962" lon="5.19235">
        <ele>388</ele>
        <time>2022-09-29T07:12:34Z</time>
      </trkpt>
      <trkpt lat="44.41962" lon="5.19236">
        <ele>388</ele>
        <time>2022-09-29T07:12:35Z</time>
      </trkpt>
      <trkpt lat="44.41962" lon="5.19237">
        <ele>388</ele>
        <time>2022-09-29T07:12:36Z</time>
      </trkpt>
      <trkpt lat="44.41962" lon="5.19238">
        <ele>388</ele>
        <time>2022-09-29T07:12:37Z</time>
      </trkpt>
      <trkpt lat="44.41962" lon="5.19239">
        <ele>388</ele>
        <time>2022-09-29T07:12:38Z</time>
      </trkpt>
      <trkpt lat="44.41963" lon="5.1924">
        <ele>388</ele>
        <time>2022-09-29T07:12:39Z</time>
      </trkpt>
      <trkpt lat="44.41963" lon="5.19241">
        <ele>388</ele>
        <time>2022-09-29T07:12:40Z</time>
      </trkpt>
      <trkpt lat="44.41963" lon="5.19243">
        <ele>388</ele>
        <time>2022-09-29T07:15:11Z</time>
      </trkpt>
      <trkpt lat="44.41963" lon="5.19243">
        <ele>388</ele>
        <time>2022-09-29T07:15:12Z</time>
      </trkpt>
      <trkpt lat="44.41963" lon="5.19244">
        <ele>388</ele>
        <time>2022-09-29T07:15:13Z</time>
      </trkpt>
      <trkpt lat="44.41964" lon="5.19245">
        <ele>388</ele>
        <time>2022-09-29T07:15:14Z</time>
      </trkpt>
      <trkpt lat="44.41964" lon="5.19246">
        <ele>388</ele>
        <time>2022-09-29T07:15:15Z</time>
      </trkpt>
      <trkpt lat="44.41966" lon="5.1925">
        <ele>388</ele>
        <time>2022-09-29T07:16:51Z</time>
      </trkpt>
      <trkpt lat="44.41967" lon="5.19251">
        <ele>388</ele>
        <time>2022-09-29T07:16:52Z</time>
      </trkpt>
      <trkpt lat="44.41968" lon="5.19253">
        <ele>388</ele>
        <time>2022-09-29T07:16:53Z</time>
      </trkpt>
      <trkpt lat="44.41968" lon="5.19254">
        <ele>389</ele>
        <time>2022-09-29T07:16:54Z</time>
      </trkpt>
      <trkpt lat="44.41969" lon="5.19255">
        <ele>389</ele>
        <time>2022-09-29T07:16:55Z</time>
      </trkpt>
      <trkpt lat="44.4197" lon="5.19257">
        <ele>389</ele>
        <time>2022-09-29T07:17:04Z</time>
      </trkpt>
      <trkpt lat="44.41971" lon="5.19258">
        <ele>389</ele>
        <time>2022-09-29T07:17:05Z</time>
      </trkpt>
      <trkpt lat="44.41971" lon="5.19259">
        <ele>389</ele>
        <time>2022-09-29T07:17:06Z</time>
      </trkpt>
      <trkpt lat="44.41972" lon="5.19259">
        <ele>389</ele>
        <time>2022-09-29T07:17:07Z</time>
      </trkpt>
      <trkpt lat="44.41973" lon="5.1926">
        <ele>389</ele>
        <time>2022-09-29T07:17:08Z</time>
      </trkpt>
      <trkpt lat="44.41973" lon="5.1926">
        <ele>389</ele>
        <time>2022-09-29T07:17:09Z</time>
      </trkpt>
      <trkpt lat="44.41973" lon="5.19261">
        <ele>389</ele>
        <time>2022-09-29T07:17:10Z</time>
      </trkpt>
      <trkpt lat="44.41974" lon="5.19261">
        <ele>389</ele>
        <time>2022-09-29T07:17:11Z</time>
      </trkpt>
      <trkpt lat="44.41974" lon="5.19261">
        <ele>389</ele>
        <time>2022-09-29T07:17:12Z</time>
      </trkpt>
      <trkpt lat="44.41975" lon="5.19262">
        <ele>389</ele>
        <time>2022-09-29T07:17:13Z</time>
      </trkpt>
      <trkpt lat="44.41976" lon="5.19262">
        <ele>389</ele>
        <time>2022-09-29T07:17:14Z</time>
      </trkpt>
      <trkpt lat="44.41976" lon="5.19263">
        <ele>389</ele>
        <time>2022-09-29T07:17:15Z</time>
      </trkpt>
      <trkpt lat="44.41977" lon="5.19263">
        <ele>389</ele>
        <time>2022-09-29T07:17:16Z</time>
      </trkpt>
      <trkpt lat="44.41978" lon="5.19264">
        <ele>389</ele>
        <time>2022-09-29T07:17:17Z</time>
      </trkpt>
      <trkpt lat="44.41978" lon="5.19264">
        <ele>389</ele>
        <time>2022-09-29T07:17:18Z</time>
      </trkpt>
      <trkpt lat="44.41979" lon="5.19265">
        <ele>390</ele>
        <time>2022-09-29T07:17:19Z</time>
      </trkpt>
      <trkpt lat="44.41979" lon="5.19266">
        <ele>390</ele>
        <time>2022-09-29T07:17:20Z</time>
      </trkpt>
      <trkpt lat="44.4198" lon="5.19266">
        <ele>390</ele>
        <time>2022-09-29T07:17:21Z</time>
      </trkpt>
      <trkpt lat="44.4198" lon="5.19267">
        <ele>390</ele>
        <time>2022-09-29T07:17:22Z</time>
      </trkpt>
      <trkpt lat="44.41981" lon="5.19268">
        <ele>390</ele>
        <time>2022-09-29T07:17:23Z</time>
      </trkpt>
      <trkpt lat="44.41981" lon="5.19269">
        <ele>390</ele>
        <time>2022-09-29T07:17:24Z</time>
      </trkpt>
      <trkpt lat="44.41982" lon="5.1927">
        <ele>390</ele>
        <time>2022-09-29T07:17:25Z</time>
      </trkpt>
      <trkpt lat="44.41982" lon="5.1927">
        <ele>390</ele>
        <time>2022-09-29T07:17:26Z</time>
      </trkpt>
      <trkpt lat="44.41983" lon="5.19271">
        <ele>390</ele>
        <time>2022-09-29T07:17:27Z</time>
      </trkpt>
      <trkpt lat="44.41983" lon="5.19272">
        <ele>390</ele>
        <time>2022-09-29T07:17:28Z</time>
      </trkpt>
      <trkpt lat="44.41984" lon="5.19273">
        <ele>390</ele>
        <time>2022-09-29T07:17:29Z</time>
      </trkpt>
      <trkpt lat="44.41984" lon="5.19274">
        <ele>390</ele>
        <time>2022-09-29T07:17:30Z</time>
      </trkpt>
      <trkpt lat="44.41984" lon="5.19275">
        <ele>390</ele>
        <time>2022-09-29T07:17:31Z</time>
      </trkpt>
      <trkpt lat="44.41985" lon="5.19276">
        <ele>390</ele>
        <time>2022-09-29T07:17:32Z</time>
      </trkpt>
      <trkpt lat="44.41985" lon="5.19277">
        <ele>390</ele>
        <time>2022-09-29T07:17:33Z</time>
      </trkpt>
      <trkpt lat="44.41986" lon="5.19279">
        <ele>390</ele>
        <time>2022-09-29T07:17:34Z</time>
      </trkpt>
      <trkpt lat="44.41986" lon="5.1928">
        <ele>390</ele>
        <time>2022-09-29T07:17:35Z</time>
      </trkpt>
      <trkpt lat="44.41987" lon="5.19281">
        <ele>390</ele>
        <time>2022-09-29T07:17:36Z</time>
      </trkpt>
      <trkpt lat="44.41987" lon="5.19282">
        <ele>390</ele>
        <time>2022-09-29T07:17:37Z</time>
      </trkpt>
      <trkpt lat="44.41988" lon="5.19283">
        <ele>390</ele>
        <time>2022-09-29T07:17:38Z</time>
      </trkpt>
      <trkpt lat="44.41988" lon="5.19284">
        <ele>391</ele>
        <time>2022-09-29T07:17:39Z</time>
      </trkpt>
      <trkpt lat="44.41989" lon="5.19285">
        <ele>391</ele>
        <time>2022-09-29T07:17:40Z</time>
      </trkpt>
      <trkpt lat="44.41989" lon="5.19286">
        <ele>391</ele>
        <time>2022-09-29T07:17:41Z</time>
      </trkpt>
      <trkpt lat="44.4199" lon="5.19287">
        <ele>391</ele>
        <time>2022-09-29T07:17:42Z</time>
      </trkpt>
      <trkpt lat="44.4199" lon="5.19289">
        <ele>391</ele>
        <time>2022-09-29T07:17:43Z</time>
      </trkpt>
      <trkpt lat="44.4199" lon="5.1929">
        <ele>391</ele>
        <time>2022-09-29T07:17:44Z</time>
      </trkpt>
      <trkpt lat="44.4199" lon="5.19291">
        <ele>391</ele>
        <time>2022-09-29T07:17:45Z</time>
      </trkpt>
      <trkpt lat="44.4199" lon="5.19292">
        <ele>391</ele>
        <time>2022-09-29T07:17:46Z</time>
      </trkpt>
      <trkpt lat="44.41991" lon="5.19294">
        <ele>391</ele>
        <time>2022-09-29T07:17:47Z</time>
      </trkpt>
      <trkpt lat="44.41991" lon="5.19295">
        <ele>391</ele>
        <time>2022-09-29T07:17:48Z</time>
      </trkpt>
      <trkpt lat="44.41991" lon="5.19296">
        <ele>392</ele>
        <time>2022-09-29T07:17:49Z</time>
      </trkpt>
      <trkpt lat="44.41992" lon="5.19297">
        <ele>392</ele>
        <time>2022-09-29T07:17:50Z</time>
      </trkpt>
      <trkpt lat="44.41992" lon="5.19298">
        <ele>392</ele>
        <time>2022-09-29T07:17:51Z</time>
      </trkpt>
      <trkpt lat="44.41992" lon="5.19299">
        <ele>392</ele>
        <time>2022-09-29T07:17:52Z</time>
      </trkpt>
      <trkpt lat="44.41993" lon="5.193">
        <ele>392</ele>
        <time>2022-09-29T07:17:53Z</time>
      </trkpt>
      <trkpt lat="44.41993" lon="5.19301">
        <ele>393</ele>
        <time>2022-09-29T07:17:54Z</time>
      </trkpt>
      <trkpt lat="44.41993" lon="5.19303">
        <ele>393</ele>
        <time>2022-09-29T07:17:55Z</time>
      </trkpt>
      <trkpt lat="44.41993" lon="5.19304">
        <ele>393</ele>
        <time>2022-09-29T07:17:56Z</time>
      </trkpt>
      <trkpt lat="44.41993" lon="5.19305">
        <ele>393</ele>
        <time>2022-09-29T07:17:57Z</time>
      </trkpt>
      <trkpt lat="44.41993" lon="5.19306">
        <ele>393</ele>
        <time>2022-09-29T07:17:58Z</time>
      </trkpt>
      <trkpt lat="44.41993" lon="5.19307">
        <ele>393</ele>
        <time>2022-09-29T07:17:59Z</time>
      </trkpt>
      <trkpt lat="44.41993" lon="5.19308">
        <ele>393</ele>
        <time>2022-09-29T07:18:00Z</time>
      </trkpt>
      <trkpt lat="44.41993" lon="5.19309">
        <ele>393</ele>
        <time>2022-09-29T07:18:01Z</time>
      </trkpt>
      <trkpt lat="44.41993" lon="5.1931">
        <ele>393</ele>
        <time>2022-09-29T07:18:02Z</time>
      </trkpt>
      <trkpt lat="44.41993" lon="5.19311">
        <ele>393</ele>
        <time>2022-09-29T07:18:03Z</time>
      </trkpt>
      <trkpt lat="44.41993" lon="5.19312">
        <ele>394</ele>
        <time>2022-09-29T07:18:04Z</time>
      </trkpt>
      <trkpt lat="44.41993" lon="5.19313">
        <ele>394</ele>
        <time>2022-09-29T07:18:05Z</time>
      </trkpt>
      <trkpt lat="44.41994" lon="5.19314">
        <ele>394</ele>
        <time>2022-09-29T07:18:06Z</time>
      </trkpt>
      <trkpt lat="44.41994" lon="5.19315">
        <ele>394</ele>
        <time>2022-09-29T07:18:07Z</time>
      </trkpt>
      <trkpt lat="44.41994" lon="5.19316">
        <ele>394</ele>
        <time>2022-09-29T07:18:08Z</time>
      </trkpt>
      <trkpt lat="44.41994" lon="5.19317">
        <ele>394</ele>
        <time>2022-09-29T07:18:09Z</time>
      </trkpt>
      <trkpt lat="44.41994" lon="5.19318">
        <ele>394</ele>
        <time>2022-09-29T07:18:10Z</time>
      </trkpt>
      <trkpt lat="44.41994" lon="5.19319">
        <ele>394</ele>
        <time>2022-09-29T07:18:11Z</time>
      </trkpt>
      <trkpt lat="44.41993" lon="5.1932">
        <ele>394</ele>
        <time>2022-09-29T07:18:12Z</time>
      </trkpt>
      <trkpt lat="44.41993" lon="5.19321">
        <ele>394</ele>
        <time>2022-09-29T07:18:13Z</time>
      </trkpt>
      <trkpt lat="44.41993" lon="5.19322">
        <ele>395</ele>
        <time>2022-09-29T07:18:14Z</time>
      </trkpt>
      <trkpt lat="44.41993" lon="5.19323">
        <ele>395</ele>
        <time>2022-09-29T07:18:15Z</time>
      </trkpt>
      <trkpt lat="44.41993" lon="5.19324">
        <ele>395</ele>
        <time>2022-09-29T07:18:16Z</time>
      </trkpt>
      <trkpt lat="44.41993" lon="5.19325">
        <ele>395</ele>
        <time>2022-09-29T07:18:17Z</time>
      </trkpt>
      <trkpt lat="44.41993" lon="5.19325">
        <ele>395</ele>
        <time>2022-09-29T07:18:18Z</time>
      </trkpt>
      <trkpt lat="44.41994" lon="5.19326">
        <ele>396</ele>
        <time>2022-09-29T07:18:19Z</time>
      </trkpt>
      <trkpt lat="44.41994" lon="5.19326">
        <ele>396</ele>
        <time>2022-09-29T07:18:20Z</time>
      </trkpt>
      <trkpt lat="44.41994" lon="5.19327">
        <ele>396</ele>
        <time>2022-09-29T07:18:21Z</time>
      </trkpt>
      <trkpt lat="44.41994" lon="5.19327">
        <ele>396</ele>
        <time>2022-09-29T07:18:22Z</time>
      </trkpt>
      <trkpt lat="44.41995" lon="5.19328">
        <ele>396</ele>
        <time>2022-09-29T07:18:23Z</time>
      </trkpt>
      <trkpt lat="44.41995" lon="5.19328">
        <ele>396</ele>
        <time>2022-09-29T07:18:24Z</time>
      </trkpt>
      <trkpt lat="44.41996" lon="5.19328">
        <ele>396</ele>
        <time>2022-09-29T07:18:25Z</time>
      </trkpt>
      <trkpt lat="44.41997" lon="5.19329">
        <ele>396</ele>
        <time>2022-09-29T07:18:26Z</time>
      </trkpt>
      <trkpt lat="44.41997" lon="5.19329">
        <ele>396</ele>
        <time>2022-09-29T07:18:27Z</time>
      </trkpt>
      <trkpt lat="44.41997" lon="5.19329">
        <ele>396</ele>
        <time>2022-09-29T07:18:28Z</time>
      </trkpt>
      <trkpt lat="44.41998" lon="5.19329">
        <ele>397</ele>
        <time>2022-09-29T07:18:29Z</time>
      </trkpt>
      <trkpt lat="44.41998" lon="5.19329">
        <ele>397</ele>
        <time>2022-09-29T07:18:30Z</time>
      </trkpt>
      <trkpt lat="44.41999" lon="5.19329">
        <ele>397</ele>
        <time>2022-09-29T07:18:31Z</time>
      </trkpt>
      <trkpt lat="44.41999" lon="5.19329">
        <ele>397</ele>
        <time>2022-09-29T07:18:32Z</time>
      </trkpt>
      <trkpt lat="44.42" lon="5.19329">
        <ele>397</ele>
        <time>2022-09-29T07:18:33Z</time>
      </trkpt>
      <trkpt lat="44.42001" lon="5.19329">
        <ele>398</ele>
        <time>2022-09-29T07:18:34Z</time>
      </trkpt>
      <trkpt lat="44.42001" lon="5.19329">
        <ele>398</ele>
        <time>2022-09-29T07:18:35Z</time>
      </trkpt>
      <trkpt lat="44.42002" lon="5.19328">
        <ele>398</ele>
        <time>2022-09-29T07:18:36Z</time>
      </trkpt>
      <trkpt lat="44.42003" lon="5.19328">
        <ele>398</ele>
        <time>2022-09-29T07:18:37Z</time>
      </trkpt>
      <trkpt lat="44.42003" lon="5.19328">
        <ele>398</ele>
        <time>2022-09-29T07:18:38Z</time>
      </trkpt>
      <trkpt lat="44.42004" lon="5.19328">
        <ele>399</ele>
        <time>2022-09-29T07:18:39Z</time>
      </trkpt>
      <trkpt lat="44.42005" lon="5.19328">
        <ele>399</ele>
        <time>2022-09-29T07:18:40Z</time>
      </trkpt>
      <trkpt lat="44.42006" lon="5.19328">
        <ele>399</ele>
        <time>2022-09-29T07:18:41Z</time>
      </trkpt>
      <trkpt lat="44.42006" lon="5.19328">
        <ele>399</ele>
        <time>2022-09-29T07:18:42Z</time>
      </trkpt>
      <trkpt lat="44.42007" lon="5.19328">
        <ele>399</ele>
        <time>2022-09-29T07:18:43Z</time>
      </trkpt>
      <trkpt lat="44.42008" lon="5.19328">
        <ele>399</ele>
        <time>2022-09-29T07:18:44Z</time>
      </trkpt>
      <trkpt lat="44.42009" lon="5.19329">
        <ele>399</ele>
        <time>2022-09-29T07:18:45Z</time>
      </trkpt>
      <trkpt lat="44.4201" lon="5.19329">
        <ele>399</ele>
        <time>2022-09-29T07:18:46Z</time>
      </trkpt>
      <trkpt lat="44.42011" lon="5.19329">
        <ele>399</ele>
        <time>2022-09-29T07:18:47Z</time>
      </trkpt>
      <trkpt lat="44.42011" lon="5.19329">
        <ele>399</ele>
        <time>2022-09-29T07:18:48Z</time>
      </trkpt>
      <trkpt lat="44.42012" lon="5.19328">
        <ele>400</ele>
        <time>2022-09-29T07:18:49Z</time>
      </trkpt>
      <trkpt lat="44.42013" lon="5.19328">
        <ele>400</ele>
        <time>2022-09-29T07:18:50Z</time>
      </trkpt>
      <trkpt lat="44.42013" lon="5.19328">
        <ele>400</ele>
        <time>2022-09-29T07:18:51Z</time>
      </trkpt>
      <trkpt lat="44.42014" lon="5.19328">
        <ele>401</ele>
        <time>2022-09-29T07:18:52Z</time>
      </trkpt>
      <trkpt lat="44.42014" lon="5.19328">
        <ele>401</ele>
        <time>2022-09-29T07:18:53Z</time>
      </trkpt>
      <trkpt lat="44.42015" lon="5.19327">
        <ele>402</ele>
        <time>2022-09-29T07:18:54Z</time>
      </trkpt>
      <trkpt lat="44.42016" lon="5.19327">
        <ele>402</ele>
        <time>2022-09-29T07:18:55Z</time>
      </trkpt>
      <trkpt lat="44.42017" lon="5.19327">
        <ele>402</ele>
        <time>2022-09-29T07:18:56Z</time>
      </trkpt>
      <trkpt lat="44.42017" lon="5.19327">
        <ele>402</ele>
        <time>2022-09-29T07:18:57Z</time>
      </trkpt>
      <trkpt lat="44.42018" lon="5.19327">
        <ele>402</ele>
        <time>2022-09-29T07:18:58Z</time>
      </trkpt>
      <trkpt lat="44.42019" lon="5.19327">
        <ele>402</ele>
        <time>2022-09-29T07:18:59Z</time>
      </trkpt>
      <trkpt lat="44.4202" lon="5.19327">
        <ele>402</ele>
        <time>2022-09-29T07:19:00Z</time>
      </trkpt>
      <trkpt lat="44.42021" lon="5.19327">
        <ele>402</ele>
        <time>2022-09-29T07:19:01Z</time>
      </trkpt>
      <trkpt lat="44.42022" lon="5.19327">
        <ele>402</ele>
        <time>2022-09-29T07:19:02Z</time>
      </trkpt>
      <trkpt lat="44.42023" lon="5.19327">
        <ele>402</ele>
        <time>2022-09-29T07:19:03Z</time>
      </trkpt>
      <trkpt lat="44.42024" lon="5.19327">
        <ele>402</ele>
        <time>2022-09-29T07:19:04Z</time>
      </trkpt>
      <trkpt lat="44.42024" lon="5.19327">
        <ele>402</ele>
        <time>2022-09-29T07:19:05Z</time>
      </trkpt>
      <trkpt lat="44.42025" lon="5.19328">
        <ele>402</ele>
        <time>2022-09-29T07:19:06Z</time>
      </trkpt>
      <trkpt lat="44.42026" lon="5.19328">
        <ele>402</ele>
        <time>2022-09-29T07:19:07Z</time>
      </trkpt>
      <trkpt lat="44.42027" lon="5.19328">
        <ele>402</ele>
        <time>2022-09-29T07:19:08Z</time>
      </trkpt>
      <trkpt lat="44.42028" lon="5.19329">
        <ele>403</ele>
        <time>2022-09-29T07:19:09Z</time>
      </trkpt>
      <trkpt lat="44.42029" lon="5.19329">
        <ele>403</ele>
        <time>2022-09-29T07:19:10Z</time>
      </trkpt>
      <trkpt lat="44.42029" lon="5.1933">
        <ele>403</ele>
        <time>2022-09-29T07:19:11Z</time>
      </trkpt>
      <trkpt lat="44.4203" lon="5.1933">
        <ele>403</ele>
        <time>2022-09-29T07:19:12Z</time>
      </trkpt>
      <trkpt lat="44.42031" lon="5.19331">
        <ele>403</ele>
        <time>2022-09-29T07:19:13Z</time>
      </trkpt>
      <trkpt lat="44.42032" lon="5.19331">
        <ele>403</ele>
        <time>2022-09-29T07:19:14Z</time>
      </trkpt>
      <trkpt lat="44.42033" lon="5.19331">
        <ele>403</ele>
        <time>2022-09-29T07:19:15Z</time>
      </trkpt>
      <trkpt lat="44.42034" lon="5.19332">
        <ele>403</ele>
        <time>2022-09-29T07:19:16Z</time>
      </trkpt>
      <trkpt lat="44.42035" lon="5.19332">
        <ele>403</ele>
        <time>2022-09-29T07:19:17Z</time>
      </trkpt>
      <trkpt lat="44.42036" lon="5.19332">
        <ele>403</ele>
        <time>2022-09-29T07:19:18Z</time>
      </trkpt>
      <trkpt lat="44.42037" lon="5.19332">
        <ele>404</ele>
        <time>2022-09-29T07:19:19Z</time>
      </trkpt>
      <trkpt lat="44.42038" lon="5.19332">
        <ele>404</ele>
        <time>2022-09-29T07:19:20Z</time>
      </trkpt>
      <trkpt lat="44.42039" lon="5.19332">
        <ele>404</ele>
        <time>2022-09-29T07:19:21Z</time>
      </trkpt>
      <trkpt lat="44.4204" lon="5.19332">
        <ele>404</ele>
        <time>2022-09-29T07:19:22Z</time>
      </trkpt>
      <trkpt lat="44.42041" lon="5.19332">
        <ele>404</ele>
        <time>2022-09-29T07:19:23Z</time>
      </trkpt>
      <trkpt lat="44.42042" lon="5.19332">
        <ele>405</ele>
        <time>2022-09-29T07:19:24Z</time>
      </trkpt>
      <trkpt lat="44.42042" lon="5.19332">
        <ele>405</ele>
        <time>2022-09-29T07:19:25Z</time>
      </trkpt>
      <trkpt lat="44.42043" lon="5.19332">
        <ele>405</ele>
        <time>2022-09-29T07:19:26Z</time>
      </trkpt>
      <trkpt lat="44.42044" lon="5.19332">
        <ele>405</ele>
        <time>2022-09-29T07:19:27Z</time>
      </trkpt>
      <trkpt lat="44.42045" lon="5.19332">
        <ele>405</ele>
        <time>2022-09-29T07:19:28Z</time>
      </trkpt>
      <trkpt lat="44.42046" lon="5.19332">
        <ele>406</ele>
        <time>2022-09-29T07:19:29Z</time>
      </trkpt>
      <trkpt lat="44.42047" lon="5.19333">
        <ele>406</ele>
        <time>2022-09-29T07:19:30Z</time>
      </trkpt>
      <trkpt lat="44.42048" lon="5.19333">
        <ele>406</ele>
        <time>2022-09-29T07:19:31Z</time>
      </trkpt>
      <trkpt lat="44.42048" lon="5.19333">
        <ele>406</ele>
        <time>2022-09-29T07:19:32Z</time>
      </trkpt>
      <trkpt lat="44.42049" lon="5.19333">
        <ele>406</ele>
        <time>2022-09-29T07:19:33Z</time>
      </trkpt>
      <trkpt lat="44.4205" lon="5.19333">
        <ele>406</ele>
        <time>2022-09-29T07:19:34Z</time>
      </trkpt>
      <trkpt lat="44.42051" lon="5.19333">
        <ele>406</ele>
        <time>2022-09-29T07:19:35Z</time>
      </trkpt>
      <trkpt lat="44.42052" lon="5.19333">
        <ele>406</ele>
        <time>2022-09-29T07:19:36Z</time>
      </trkpt>
      <trkpt lat="44.42053" lon="5.19333">
        <ele>406</ele>
        <time>2022-09-29T07:19:37Z</time>
      </trkpt>
      <trkpt lat="44.42054" lon="5.19333">
        <ele>406</ele>
        <time>2022-09-29T07:19:38Z</time>
      </trkpt>
      <trkpt lat="44.42054" lon="5.19333">
        <ele>407</ele>
        <time>2022-09-29T07:19:39Z</time>
      </trkpt>
      <trkpt lat="44.42055" lon="5.19333">
        <ele>407</ele>
        <time>2022-09-29T07:19:40Z</time>
      </trkpt>
      <trkpt lat="44.42056" lon="5.19333">
        <ele>407</ele>
        <time>2022-09-29T07:19:41Z</time>
      </trkpt>
      <trkpt lat="44.42057" lon="5.19333">
        <ele>407</ele>
        <time>2022-09-29T07:19:42Z</time>
      </trkpt>
      <trkpt lat="44.42058" lon="5.19333">
        <ele>407</ele>
        <time>2022-09-29T07:19:43Z</time>
      </trkpt>
      <trkpt lat="44.42058" lon="5.19333">
        <ele>407</ele>
        <time>2022-09-29T07:19:44Z</time>
      </trkpt>
      <trkpt lat="44.42059" lon="5.19333">
        <ele>407</ele>
        <time>2022-09-29T07:19:45Z</time>
      </trkpt>
      <trkpt lat="44.4206" lon="5.19332">
        <ele>407</ele>
        <time>2022-09-29T07:19:46Z</time>
      </trkpt>
      <trkpt lat="44.42061" lon="5.19332">
        <ele>407</ele>
        <time>2022-09-29T07:19:47Z</time>
      </trkpt>
      <trkpt lat="44.42062" lon="5.19332">
        <ele>407</ele>
        <time>2022-09-29T07:19:48Z</time>
      </trkpt>
      <trkpt lat="44.42063" lon="5.19332">
        <ele>407</ele>
        <time>2022-09-29T07:19:49Z</time>
      </trkpt>
      <trkpt lat="44.42064" lon="5.19332">
        <ele>407</ele>
        <time>2022-09-29T07:19:50Z</time>
      </trkpt>
      <trkpt lat="44.42065" lon="5.19332">
        <ele>407</ele>
        <time>2022-09-29T07:19:51Z</time>
      </trkpt>
      <trkpt lat="44.42066" lon="5.19332">
        <ele>407</ele>
        <time>2022-09-29T07:19:52Z</time>
      </trkpt>
      <trkpt lat="44.42067" lon="5.19332">
        <ele>407</ele>
        <time>2022-09-29T07:19:53Z</time>
      </trkpt>
      <trkpt lat="44.42068" lon="5.19332">
        <ele>408</ele>
        <time>2022-09-29T07:19:54Z</time>
      </trkpt>
      <trkpt lat="44.42069" lon="5.19332">
        <ele>408</ele>
        <time>2022-09-29T07:19:55Z</time>
      </trkpt>
      <trkpt lat="44.4207" lon="5.19333">
        <ele>408</ele>
        <time>2022-09-29T07:19:56Z</time>
      </trkpt>
      <trkpt lat="44.42071" lon="5.19332">
        <ele>408</ele>
        <time>2022-09-29T07:19:57Z</time>
      </trkpt>
      <trkpt lat="44.42072" lon="5.19332">
        <ele>408</ele>
        <time>2022-09-29T07:19:58Z</time>
      </trkpt>
      <trkpt lat="44.42073" lon="5.19332">
        <ele>408</ele>
        <time>2022-09-29T07:19:59Z</time>
      </trkpt>
      <trkpt lat="44.42074" lon="5.19332">
        <ele>408</ele>
        <time>2022-09-29T07:20:00Z</time>
      </trkpt>
      <trkpt lat="44.42075" lon="5.19332">
        <ele>408</ele>
        <time>2022-09-29T07:20:01Z</time>
      </trkpt>
      <trkpt lat="44.42076" lon="5.19333">
        <ele>408</ele>
        <time>2022-09-29T07:20:02Z</time>
      </trkpt>
      <trkpt lat="44.42076" lon="5.19333">
        <ele>408</ele>
        <time>2022-09-29T07:20:03Z</time>
      </trkpt>
      <trkpt lat="44.42077" lon="5.19333">
        <ele>409</ele>
        <time>2022-09-29T07:20:04Z</time>
      </trkpt>
      <trkpt lat="44.42078" lon="5.19333">
        <ele>409</ele>
        <time>2022-09-29T07:20:05Z</time>
      </trkpt>
      <trkpt lat="44.42078" lon="5.19333">
        <ele>409</ele>
        <time>2022-09-29T07:20:06Z</time>
      </trkpt>
      <trkpt lat="44.42079" lon="5.19333">
        <ele>409</ele>
        <time>2022-09-29T07:20:07Z</time>
      </trkpt>
      <trkpt lat="44.4208" lon="5.19333">
        <ele>409</ele>
        <time>2022-09-29T07:20:08Z</time>
      </trkpt>
      <trkpt lat="44.42081" lon="5.19333">
        <ele>409</ele>
        <time>2022-09-29T07:20:09Z</time>
      </trkpt>
      <trkpt lat="44.42082" lon="5.19333">
        <ele>409</ele>
        <time>2022-09-29T07:20:10Z</time>
      </trkpt>
      <trkpt lat="44.42083" lon="5.19333">
        <ele>409</ele>
        <time>2022-09-29T07:20:11Z</time>
      </trkpt>
      <trkpt lat="44.42084" lon="5.19333">
        <ele>409</ele>
        <time>2022-09-29T07:20:12Z</time>
      </trkpt>
      <trkpt lat="44.42085" lon="5.19333">
        <ele>409</ele>
        <time>2022-09-29T07:20:13Z</time>
      </trkpt>
      <trkpt lat="44.42086" lon="5.19333">
        <ele>410</ele>
        <time>2022-09-29T07:20:14Z</time>
      </trkpt>
      <trkpt lat="44.42087" lon="5.19333">
        <ele>410</ele>
        <time>2022-09-29T07:20:15Z</time>
      </trkpt>
      <trkpt lat="44.42088" lon="5.19333">
        <ele>410</ele>
        <time>2022-09-29T07:20:16Z</time>
      </trkpt>
      <trkpt lat="44.42089" lon="5.19333">
        <ele>410</ele>
        <time>2022-09-29T07:20:17Z</time>
      </trkpt>
      <trkpt lat="44.4209" lon="5.19333">
        <ele>410</ele>
        <time>2022-09-29T07:20:18Z</time>
      </trkpt>
      <trkpt lat="44.42091" lon="5.19332">
        <ele>410</ele>
        <time>2022-09-29T07:20:19Z</time>
      </trkpt>
      <trkpt lat="44.42092" lon="5.19332">
        <ele>410</ele>
        <time>2022-09-29T07:20:20Z</time>
      </trkpt>
      <trkpt lat="44.42092" lon="5.19332">
        <ele>410</ele>
        <time>2022-09-29T07:20:21Z</time>
      </trkpt>
      <trkpt lat="44.42093" lon="5.19332">
        <ele>410</ele>
        <time>2022-09-29T07:20:22Z</time>
      </trkpt>
      <trkpt lat="44.42094" lon="5.19332">
        <ele>410</ele>
        <time>2022-09-29T07:20:23Z</time>
      </trkpt>
      <trkpt lat="44.42095" lon="5.19332">
        <ele>411</ele>
        <time>2022-09-29T07:20:24Z</time>
      </trkpt>
      <trkpt lat="44.42096" lon="5.19332">
        <ele>411</ele>
        <time>2022-09-29T07:20:25Z</time>
      </trkpt>
      <trkpt lat="44.42097" lon="5.19332">
        <ele>411</ele>
        <time>2022-09-29T07:20:26Z</time>
      </trkpt>
      <trkpt lat="44.42097" lon="5.19333">
        <ele>411</ele>
        <time>2022-09-29T07:20:27Z</time>
      </trkpt>
      <trkpt lat="44.42098" lon="5.19333">
        <ele>411</ele>
        <time>2022-09-29T07:20:28Z</time>
      </trkpt>
      <trkpt lat="44.42099" lon="5.19333">
        <ele>412</ele>
        <time>2022-09-29T07:20:29Z</time>
      </trkpt>
      <trkpt lat="44.421" lon="5.19333">
        <ele>412</ele>
        <time>2022-09-29T07:20:30Z</time>
      </trkpt>
      <trkpt lat="44.42101" lon="5.19333">
        <ele>412</ele>
        <time>2022-09-29T07:20:31Z</time>
      </trkpt>
      <trkpt lat="44.42102" lon="5.19333">
        <ele>412</ele>
        <time>2022-09-29T07:20:32Z</time>
      </trkpt>
      <trkpt lat="44.42103" lon="5.19333">
        <ele>412</ele>
        <time>2022-09-29T07:20:33Z</time>
      </trkpt>
      <trkpt lat="44.42104" lon="5.19333">
        <ele>412</ele>
        <time>2022-09-29T07:20:34Z</time>
      </trkpt>
      <trkpt lat="44.42105" lon="5.19333">
        <ele>412</ele>
        <time>2022-09-29T07:20:35Z</time>
      </trkpt>
      <trkpt lat="44.42106" lon="5.19333">
        <ele>412</ele>
        <time>2022-09-29T07:20:36Z</time>
      </trkpt>
      <trkpt lat="44.42107" lon="5.19333">
        <ele>412</ele>
        <time>2022-09-29T07:20:37Z</time>
      </trkpt>
      <trkpt lat="44.42107" lon="5.19333">
        <ele>412</ele>
        <time>2022-09-29T07:20:38Z</time>
      </trkpt>
      <trkpt lat="44.42108" lon="5.19333">
        <ele>413</ele>
        <time>2022-09-29T07:20:39Z</time>
      </trkpt>
      <trkpt lat="44.42109" lon="5.19334">
        <ele>413</ele>
        <time>2022-09-29T07:20:40Z</time>
      </trkpt>
      <trkpt lat="44.4211" lon="5.19334">
        <ele>413</ele>
        <time>2022-09-29T07:20:41Z</time>
      </trkpt>
      <trkpt lat="44.42111" lon="5.19334">
        <ele>413</ele>
        <time>2022-09-29T07:20:42Z</time>
      </trkpt>
      <trkpt lat="44.42112" lon="5.19334">
        <ele>413</ele>
        <time>2022-09-29T07:20:43Z</time>
      </trkpt>
      <trkpt lat="44.42113" lon="5.19333">
        <ele>414</ele>
        <time>2022-09-29T07:20:44Z</time>
      </trkpt>
      <trkpt lat="44.42113" lon="5.19333">
        <ele>414</ele>
        <time>2022-09-29T07:20:45Z</time>
      </trkpt>
      <trkpt lat="44.42114" lon="5.19333">
        <ele>414</ele>
        <time>2022-09-29T07:20:46Z</time>
      </trkpt>
      <trkpt lat="44.42115" lon="5.19333">
        <ele>414</ele>
        <time>2022-09-29T07:20:47Z</time>
      </trkpt>
      <trkpt lat="44.42116" lon="5.19333">
        <ele>414</ele>
        <time>2022-09-29T07:20:48Z</time>
      </trkpt>
      <trkpt lat="44.42117" lon="5.19333">
        <ele>414</ele>
        <time>2022-09-29T07:20:49Z</time>
      </trkpt>
      <trkpt lat="44.42118" lon="5.19332">
        <ele>414</ele>
        <time>2022-09-29T07:20:50Z</time>
      </trkpt>
      <trkpt lat="44.42118" lon="5.19332">
        <ele>414</ele>
        <time>2022-09-29T07:20:51Z</time>
      </trkpt>
      <trkpt lat="44.42119" lon="5.19332">
        <ele>414</ele>
        <time>2022-09-29T07:20:52Z</time>
      </trkpt>
      <trkpt lat="44.4212" lon="5.19332">
        <ele>414</ele>
        <time>2022-09-29T07:20:53Z</time>
      </trkpt>
      <trkpt lat="44.42121" lon="5.19332">
        <ele>415</ele>
        <time>2022-09-29T07:20:54Z</time>
      </trkpt>
      <trkpt lat="44.42122" lon="5.19332">
        <ele>415</ele>
        <time>2022-09-29T07:20:55Z</time>
      </trkpt>
      <trkpt lat="44.42122" lon="5.19332">
        <ele>415</ele>
        <time>2022-09-29T07:20:56Z</time>
      </trkpt>
      <trkpt lat="44.42123" lon="5.19332">
        <ele>416</ele>
        <time>2022-09-29T07:20:57Z</time>
      </trkpt>
      <trkpt lat="44.42124" lon="5.19332">
        <ele>416</ele>
        <time>2022-09-29T07:20:58Z</time>
      </trkpt>
      <trkpt lat="44.42125" lon="5.19331">
        <ele>417</ele>
        <time>2022-09-29T07:20:59Z</time>
      </trkpt>
      <trkpt lat="44.42125" lon="5.19331">
        <ele>417</ele>
        <time>2022-09-29T07:21:00Z</time>
      </trkpt>
      <trkpt lat="44.42126" lon="5.1933">
        <ele>417</ele>
        <time>2022-09-29T07:21:01Z</time>
      </trkpt>
      <trkpt lat="44.42127" lon="5.1933">
        <ele>417</ele>
        <time>2022-09-29T07:21:02Z</time>
      </trkpt>
      <trkpt lat="44.42128" lon="5.1933">
        <ele>417</ele>
        <time>2022-09-29T07:21:03Z</time>
      </trkpt>
      <trkpt lat="44.42129" lon="5.19329">
        <ele>417</ele>
        <time>2022-09-29T07:21:04Z</time>
      </trkpt>
      <trkpt lat="44.4213" lon="5.19329">
        <ele>417</ele>
        <time>2022-09-29T07:21:05Z</time>
      </trkpt>
      <trkpt lat="44.42131" lon="5.19329">
        <ele>417</ele>
        <time>2022-09-29T07:21:06Z</time>
      </trkpt>
      <trkpt lat="44.42132" lon="5.19329">
        <ele>417</ele>
        <time>2022-09-29T07:21:07Z</time>
      </trkpt>
      <trkpt lat="44.42133" lon="5.19329">
        <ele>417</ele>
        <time>2022-09-29T07:21:08Z</time>
      </trkpt>
      <trkpt lat="44.42134" lon="5.19329">
        <ele>418</ele>
        <time>2022-09-29T07:21:09Z</time>
      </trkpt>
      <trkpt lat="44.42135" lon="5.1933">
        <ele>418</ele>
        <time>2022-09-29T07:21:10Z</time>
      </trkpt>
      <trkpt lat="44.42136" lon="5.1933">
        <ele>418</ele>
        <time>2022-09-29T07:21:11Z</time>
      </trkpt>
      <trkpt lat="44.42137" lon="5.1933">
        <ele>418</ele>
        <time>2022-09-29T07:21:12Z</time>
      </trkpt>
      <trkpt lat="44.42139" lon="5.1933">
        <ele>418</ele>
        <time>2022-09-29T07:21:13Z</time>
      </trkpt>
      <trkpt lat="44.4214" lon="5.1933">
        <ele>419</ele>
        <time>2022-09-29T07:21:14Z</time>
      </trkpt>
      <trkpt lat="44.4214" lon="5.1933">
        <ele>419</ele>
        <time>2022-09-29T07:21:15Z</time>
      </trkpt>
      <trkpt lat="44.42141" lon="5.1933">
        <ele>419</ele>
        <time>2022-09-29T07:21:16Z</time>
      </trkpt>
      <trkpt lat="44.42142" lon="5.19331">
        <ele>419</ele>
        <time>2022-09-29T07:21:17Z</time>
      </trkpt>
      <trkpt lat="44.42143" lon="5.19331">
        <ele>419</ele>
        <time>2022-09-29T07:21:18Z</time>
      </trkpt>
      <trkpt lat="44.42144" lon="5.19331">
        <ele>419</ele>
        <time>2022-09-29T07:21:19Z</time>
      </trkpt>
      <trkpt lat="44.42145" lon="5.19332">
        <ele>419</ele>
        <time>2022-09-29T07:21:20Z</time>
      </trkpt>
      <trkpt lat="44.42146" lon="5.19333">
        <ele>419</ele>
        <time>2022-09-29T07:21:21Z</time>
      </trkpt>
      <trkpt lat="44.42147" lon="5.19333">
        <ele>419</ele>
        <time>2022-09-29T07:21:22Z</time>
      </trkpt>
      <trkpt lat="44.42148" lon="5.19334">
        <ele>419</ele>
        <time>2022-09-29T07:21:23Z</time>
      </trkpt>
      <trkpt lat="44.42148" lon="5.19335">
        <ele>420</ele>
        <time>2022-09-29T07:21:24Z</time>
      </trkpt>
      <trkpt lat="44.42149" lon="5.19336">
        <ele>420</ele>
        <time>2022-09-29T07:21:25Z</time>
      </trkpt>
      <trkpt lat="44.4215" lon="5.19337">
        <ele>420</ele>
        <time>2022-09-29T07:21:26Z</time>
      </trkpt>
      <trkpt lat="44.42151" lon="5.19338">
        <ele>420</ele>
        <time>2022-09-29T07:21:27Z</time>
      </trkpt>
      <trkpt lat="44.42151" lon="5.19339">
        <ele>420</ele>
        <time>2022-09-29T07:21:28Z</time>
      </trkpt>
      <trkpt lat="44.42152" lon="5.1934">
        <ele>420</ele>
        <time>2022-09-29T07:21:29Z</time>
      </trkpt>
      <trkpt lat="44.42153" lon="5.19341">
        <ele>420</ele>
        <time>2022-09-29T07:21:30Z</time>
      </trkpt>
      <trkpt lat="44.42154" lon="5.19342">
        <ele>420</ele>
        <time>2022-09-29T07:21:31Z</time>
      </trkpt>
      <trkpt lat="44.42154" lon="5.19344">
        <ele>420</ele>
        <time>2022-09-29T07:21:32Z</time>
      </trkpt>
      <trkpt lat="44.42155" lon="5.19345">
        <ele>420</ele>
        <time>2022-09-29T07:21:33Z</time>
      </trkpt>
      <trkpt lat="44.42156" lon="5.19346">
        <ele>421</ele>
        <time>2022-09-29T07:21:34Z</time>
      </trkpt>
      <trkpt lat="44.42157" lon="5.19347">
        <ele>421</ele>
        <time>2022-09-29T07:21:35Z</time>
      </trkpt>
      <trkpt lat="44.42157" lon="5.19348">
        <ele>421</ele>
        <time>2022-09-29T07:21:36Z</time>
      </trkpt>
      <trkpt lat="44.42158" lon="5.19349">
        <ele>421</ele>
        <time>2022-09-29T07:21:37Z</time>
      </trkpt>
      <trkpt lat="44.42159" lon="5.19351">
        <ele>421</ele>
        <time>2022-09-29T07:21:38Z</time>
      </trkpt>
      <trkpt lat="44.42159" lon="5.19352">
        <ele>421</ele>
        <time>2022-09-29T07:21:39Z</time>
      </trkpt>
      <trkpt lat="44.4216" lon="5.19353">
        <ele>421</ele>
        <time>2022-09-29T07:21:40Z</time>
      </trkpt>
      <trkpt lat="44.4216" lon="5.19354">
        <ele>421</ele>
        <time>2022-09-29T07:21:41Z</time>
      </trkpt>
      <trkpt lat="44.42161" lon="5.19355">
        <ele>421</ele>
        <time>2022-09-29T07:21:42Z</time>
      </trkpt>
      <trkpt lat="44.42161" lon="5.19356">
        <ele>421</ele>
        <time>2022-09-29T07:21:43Z</time>
      </trkpt>
      <trkpt lat="44.42162" lon="5.19357">
        <ele>422</ele>
        <time>2022-09-29T07:21:44Z</time>
      </trkpt>
      <trkpt lat="44.42163" lon="5.19358">
        <ele>422</ele>
        <time>2022-09-29T07:21:45Z</time>
      </trkpt>
      <trkpt lat="44.42163" lon="5.19359">
        <ele>422</ele>
        <time>2022-09-29T07:21:46Z</time>
      </trkpt>
      <trkpt lat="44.42164" lon="5.1936">
        <ele>422</ele>
        <time>2022-09-29T07:21:47Z</time>
      </trkpt>
      <trkpt lat="44.42164" lon="5.19361">
        <ele>422</ele>
        <time>2022-09-29T07:21:48Z</time>
      </trkpt>
      <trkpt lat="44.42164" lon="5.19362">
        <ele>422</ele>
        <time>2022-09-29T07:21:49Z</time>
      </trkpt>
      <trkpt lat="44.42165" lon="5.19363">
        <ele>422</ele>
        <time>2022-09-29T07:21:50Z</time>
      </trkpt>
      <trkpt lat="44.42165" lon="5.19363">
        <ele>422</ele>
        <time>2022-09-29T07:21:51Z</time>
      </trkpt>
      <trkpt lat="44.42166" lon="5.19364">
        <ele>422</ele>
        <time>2022-09-29T07:21:52Z</time>
      </trkpt>
      <trkpt lat="44.42167" lon="5.19365">
        <ele>422</ele>
        <time>2022-09-29T07:21:53Z</time>
      </trkpt>
      <trkpt lat="44.42167" lon="5.19366">
        <ele>422</ele>
        <time>2022-09-29T07:21:54Z</time>
      </trkpt>
      <trkpt lat="44.42168" lon="5.19367">
        <ele>422</ele>
        <time>2022-09-29T07:21:55Z</time>
      </trkpt>
      <trkpt lat="44.42169" lon="5.19368">
        <ele>422</ele>
        <time>2022-09-29T07:21:56Z</time>
      </trkpt>
      <trkpt lat="44.42169" lon="5.19368">
        <ele>422</ele>
        <time>2022-09-29T07:21:57Z</time>
      </trkpt>
      <trkpt lat="44.4217" lon="5.19369">
        <ele>422</ele>
        <time>2022-09-29T07:21:58Z</time>
      </trkpt>
      <trkpt lat="44.42171" lon="5.1937">
        <ele>423</ele>
        <time>2022-09-29T07:21:59Z</time>
      </trkpt>
      <trkpt lat="44.42172" lon="5.19371">
        <ele>423</ele>
        <time>2022-09-29T07:22:00Z</time>
      </trkpt>
      <trkpt lat="44.42172" lon="5.19372">
        <ele>423</ele>
        <time>2022-09-29T07:22:01Z</time>
      </trkpt>
      <trkpt lat="44.42173" lon="5.19372">
        <ele>423</ele>
        <time>2022-09-29T07:22:02Z</time>
      </trkpt>
      <trkpt lat="44.42173" lon="5.19373">
        <ele>423</ele>
        <time>2022-09-29T07:22:03Z</time>
      </trkpt>
      <trkpt lat="44.42174" lon="5.19373">
        <ele>424</ele>
        <time>2022-09-29T07:22:04Z</time>
      </trkpt>
      <trkpt lat="44.42174" lon="5.19374">
        <ele>424</ele>
        <time>2022-09-29T07:22:05Z</time>
      </trkpt>
      <trkpt lat="44.42175" lon="5.19374">
        <ele>424</ele>
        <time>2022-09-29T07:22:06Z</time>
      </trkpt>
      <trkpt lat="44.42176" lon="5.19375">
        <ele>424</ele>
        <time>2022-09-29T07:22:07Z</time>
      </trkpt>
      <trkpt lat="44.42177" lon="5.19376">
        <ele>424</ele>
        <time>2022-09-29T07:22:08Z</time>
      </trkpt>
      <trkpt lat="44.42177" lon="5.19377">
        <ele>424</ele>
        <time>2022-09-29T07:22:09Z</time>
      </trkpt>
      <trkpt lat="44.42178" lon="5.19378">
        <ele>424</ele>
        <time>2022-09-29T07:22:10Z</time>
      </trkpt>
      <trkpt lat="44.42179" lon="5.19379">
        <ele>424</ele>
        <time>2022-09-29T07:22:11Z</time>
      </trkpt>
      <trkpt lat="44.42179" lon="5.19379">
        <ele>424</ele>
        <time>2022-09-29T07:22:12Z</time>
      </trkpt>
      <trkpt lat="44.4218" lon="5.1938">
        <ele>424</ele>
        <time>2022-09-29T07:22:13Z</time>
      </trkpt>
      <trkpt lat="44.42181" lon="5.19381">
        <ele>425</ele>
        <time>2022-09-29T07:22:14Z</time>
      </trkpt>
      <trkpt lat="44.42181" lon="5.19382">
        <ele>425</ele>
        <time>2022-09-29T07:22:15Z</time>
      </trkpt>
      <trkpt lat="44.42182" lon="5.19383">
        <ele>425</ele>
        <time>2022-09-29T07:22:16Z</time>
      </trkpt>
      <trkpt lat="44.42183" lon="5.19384">
        <ele>425</ele>
        <time>2022-09-29T07:22:17Z</time>
      </trkpt>
      <trkpt lat="44.42184" lon="5.19385">
        <ele>425</ele>
        <time>2022-09-29T07:22:18Z</time>
      </trkpt>
      <trkpt lat="44.42184" lon="5.19385">
        <ele>425</ele>
        <time>2022-09-29T07:22:19Z</time>
      </trkpt>
      <trkpt lat="44.42185" lon="5.19386">
        <ele>425</ele>
        <time>2022-09-29T07:22:20Z</time>
      </trkpt>
      <trkpt lat="44.42186" lon="5.19387">
        <ele>425</ele>
        <time>2022-09-29T07:22:21Z</time>
      </trkpt>
      <trkpt lat="44.42187" lon="5.19388">
        <ele>425</ele>
        <time>2022-09-29T07:22:22Z</time>
      </trkpt>
      <trkpt lat="44.42187" lon="5.19389">
        <ele>425</ele>
        <time>2022-09-29T07:22:23Z</time>
      </trkpt>
      <trkpt lat="44.42188" lon="5.1939">
        <ele>426</ele>
        <time>2022-09-29T07:22:24Z</time>
      </trkpt>
      <trkpt lat="44.42188" lon="5.19391">
        <ele>426</ele>
        <time>2022-09-29T07:22:25Z</time>
      </trkpt>
      <trkpt lat="44.42189" lon="5.19392">
        <ele>426</ele>
        <time>2022-09-29T07:22:26Z</time>
      </trkpt>
      <trkpt lat="44.42189" lon="5.19393">
        <ele>426</ele>
        <time>2022-09-29T07:22:27Z</time>
      </trkpt>
      <trkpt lat="44.4219" lon="5.19394">
        <ele>426</ele>
        <time>2022-09-29T07:22:28Z</time>
      </trkpt>
      <trkpt lat="44.4219" lon="5.19395">
        <ele>427</ele>
        <time>2022-09-29T07:22:29Z</time>
      </trkpt>
      <trkpt lat="44.42191" lon="5.19395">
        <ele>427</ele>
        <time>2022-09-29T07:22:30Z</time>
      </trkpt>
      <trkpt lat="44.42191" lon="5.19396">
        <ele>427</ele>
        <time>2022-09-29T07:22:31Z</time>
      </trkpt>
      <trkpt lat="44.42192" lon="5.19397">
        <ele>427</ele>
        <time>2022-09-29T07:22:32Z</time>
      </trkpt>
      <trkpt lat="44.42192" lon="5.19398">
        <ele>427</ele>
        <time>2022-09-29T07:22:33Z</time>
      </trkpt>
      <trkpt lat="44.42193" lon="5.19398">
        <ele>427</ele>
        <time>2022-09-29T07:22:34Z</time>
      </trkpt>
      <trkpt lat="44.42193" lon="5.19399">
        <ele>427</ele>
        <time>2022-09-29T07:22:35Z</time>
      </trkpt>
      <trkpt lat="44.42194" lon="5.194">
        <ele>427</ele>
        <time>2022-09-29T07:22:36Z</time>
      </trkpt>
      <trkpt lat="44.42194" lon="5.194">
        <ele>427</ele>
        <time>2022-09-29T07:22:37Z</time>
      </trkpt>
      <trkpt lat="44.42195" lon="5.19401">
        <ele>427</ele>
        <time>2022-09-29T07:22:38Z</time>
      </trkpt>
      <trkpt lat="44.42195" lon="5.19402">
        <ele>428</ele>
        <time>2022-09-29T07:22:39Z</time>
      </trkpt>
      <trkpt lat="44.42196" lon="5.19403">
        <ele>428</ele>
        <time>2022-09-29T07:22:40Z</time>
      </trkpt>
      <trkpt lat="44.42196" lon="5.19403">
        <ele>428</ele>
        <time>2022-09-29T07:22:41Z</time>
      </trkpt>
      <trkpt lat="44.42197" lon="5.19404">
        <ele>428</ele>
        <time>2022-09-29T07:22:42Z</time>
      </trkpt>
      <trkpt lat="44.42197" lon="5.19405">
        <ele>428</ele>
        <time>2022-09-29T07:22:43Z</time>
      </trkpt>
      <trkpt lat="44.42198" lon="5.19406">
        <ele>428</ele>
        <time>2022-09-29T07:22:44Z</time>
      </trkpt>
      <trkpt lat="44.42198" lon="5.19407">
        <ele>428</ele>
        <time>2022-09-29T07:22:45Z</time>
      </trkpt>
      <trkpt lat="44.42199" lon="5.19408">
        <ele>428</ele>
        <time>2022-09-29T07:22:46Z</time>
      </trkpt>
      <trkpt lat="44.42199" lon="5.1941">
        <ele>428</ele>
        <time>2022-09-29T07:22:47Z</time>
      </trkpt>
      <trkpt lat="44.422" lon="5.1941">
        <ele>428</ele>
        <time>2022-09-29T07:22:48Z</time>
      </trkpt>
      <trkpt lat="44.422" lon="5.19411">
        <ele>429</ele>
        <time>2022-09-29T07:22:49Z</time>
      </trkpt>
      <trkpt lat="44.42201" lon="5.19412">
        <ele>429</ele>
        <time>2022-09-29T07:22:50Z</time>
      </trkpt>
      <trkpt lat="44.42202" lon="5.19413">
        <ele>429</ele>
        <time>2022-09-29T07:22:51Z</time>
      </trkpt>
      <trkpt lat="44.42202" lon="5.19414">
        <ele>429</ele>
        <time>2022-09-29T07:22:52Z</time>
      </trkpt>
      <trkpt lat="44.42203" lon="5.19415">
        <ele>429</ele>
        <time>2022-09-29T07:22:53Z</time>
      </trkpt>
      <trkpt lat="44.42204" lon="5.19415">
        <ele>430</ele>
        <time>2022-09-29T07:22:54Z</time>
      </trkpt>
      <trkpt lat="44.42205" lon="5.19416">
        <ele>430</ele>
        <time>2022-09-29T07:22:55Z</time>
      </trkpt>
      <trkpt lat="44.42205" lon="5.19417">
        <ele>430</ele>
        <time>2022-09-29T07:22:56Z</time>
      </trkpt>
      <trkpt lat="44.42206" lon="5.19417">
        <ele>430</ele>
        <time>2022-09-29T07:22:57Z</time>
      </trkpt>
      <trkpt lat="44.42207" lon="5.19418">
        <ele>430</ele>
        <time>2022-09-29T07:22:58Z</time>
      </trkpt>
      <trkpt lat="44.42208" lon="5.1942">
        <ele>430</ele>
        <time>2022-09-29T07:22:59Z</time>
      </trkpt>
      <trkpt lat="44.42208" lon="5.1942">
        <ele>430</ele>
        <time>2022-09-29T07:23:00Z</time>
      </trkpt>
      <trkpt lat="44.42209" lon="5.19421">
        <ele>430</ele>
        <time>2022-09-29T07:23:01Z</time>
      </trkpt>
      <trkpt lat="44.42209" lon="5.19422">
        <ele>430</ele>
        <time>2022-09-29T07:23:02Z</time>
      </trkpt>
      <trkpt lat="44.4221" lon="5.19422">
        <ele>430</ele>
        <time>2022-09-29T07:23:03Z</time>
      </trkpt>
      <trkpt lat="44.4221" lon="5.19422">
        <ele>431</ele>
        <time>2022-09-29T07:23:04Z</time>
      </trkpt>
      <trkpt lat="44.42211" lon="5.19422">
        <ele>431</ele>
        <time>2022-09-29T07:23:05Z</time>
      </trkpt>
      <trkpt lat="44.42212" lon="5.19422">
        <ele>431</ele>
        <time>2022-09-29T07:23:06Z</time>
      </trkpt>
      <trkpt lat="44.42212" lon="5.19422">
        <ele>431</ele>
        <time>2022-09-29T07:23:07Z</time>
      </trkpt>
      <trkpt lat="44.42213" lon="5.19422">
        <ele>431</ele>
        <time>2022-09-29T07:23:08Z</time>
      </trkpt>
      <trkpt lat="44.42214" lon="5.19422">
        <ele>431</ele>
        <time>2022-09-29T07:23:09Z</time>
      </trkpt>
      <trkpt lat="44.42215" lon="5.19422">
        <ele>431</ele>
        <time>2022-09-29T07:23:10Z</time>
      </trkpt>
      <trkpt lat="44.42216" lon="5.19421">
        <ele>431</ele>
        <time>2022-09-29T07:23:11Z</time>
      </trkpt>
      <trkpt lat="44.42216" lon="5.19421">
        <ele>431</ele>
        <time>2022-09-29T07:23:12Z</time>
      </trkpt>
      <trkpt lat="44.42217" lon="5.1942">
        <ele>431</ele>
        <time>2022-09-29T07:23:13Z</time>
      </trkpt>
      <trkpt lat="44.42218" lon="5.19419">
        <ele>432</ele>
        <time>2022-09-29T07:23:14Z</time>
      </trkpt>
      <trkpt lat="44.42218" lon="5.19419">
        <ele>432</ele>
        <time>2022-09-29T07:23:15Z</time>
      </trkpt>
      <trkpt lat="44.42219" lon="5.19418">
        <ele>432</ele>
        <time>2022-09-29T07:23:16Z</time>
      </trkpt>
      <trkpt lat="44.42219" lon="5.19417">
        <ele>432</ele>
        <time>2022-09-29T07:23:17Z</time>
      </trkpt>
      <trkpt lat="44.4222" lon="5.19417">
        <ele>432</ele>
        <time>2022-09-29T07:23:18Z</time>
      </trkpt>
      <trkpt lat="44.4222" lon="5.19416">
        <ele>433</ele>
        <time>2022-09-29T07:23:19Z</time>
      </trkpt>
      <trkpt lat="44.4222" lon="5.19415">
        <ele>433</ele>
        <time>2022-09-29T07:23:20Z</time>
      </trkpt>
      <trkpt lat="44.42221" lon="5.19414">
        <ele>433</ele>
        <time>2022-09-29T07:23:21Z</time>
      </trkpt>
      <trkpt lat="44.42221" lon="5.19414">
        <ele>433</ele>
        <time>2022-09-29T07:23:22Z</time>
      </trkpt>
      <trkpt lat="44.42221" lon="5.19413">
        <ele>433</ele>
        <time>2022-09-29T07:23:23Z</time>
      </trkpt>
      <trkpt lat="44.42221" lon="5.19412">
        <ele>433</ele>
        <time>2022-09-29T07:23:24Z</time>
      </trkpt>
      <trkpt lat="44.42222" lon="5.19411">
        <ele>433</ele>
        <time>2022-09-29T07:23:25Z</time>
      </trkpt>
      <trkpt lat="44.42222" lon="5.1941">
        <ele>433</ele>
        <time>2022-09-29T07:23:26Z</time>
      </trkpt>
      <trkpt lat="44.42222" lon="5.1941">
        <ele>433</ele>
        <time>2022-09-29T07:23:27Z</time>
      </trkpt>
      <trkpt lat="44.42223" lon="5.19409">
        <ele>433</ele>
        <time>2022-09-29T07:23:28Z</time>
      </trkpt>
      <trkpt lat="44.42223" lon="5.19408">
        <ele>434</ele>
        <time>2022-09-29T07:23:29Z</time>
      </trkpt>
      <trkpt lat="44.42223" lon="5.19408">
        <ele>434</ele>
        <time>2022-09-29T07:23:30Z</time>
      </trkpt>
      <trkpt lat="44.42224" lon="5.19408">
        <ele>434</ele>
        <time>2022-09-29T07:23:31Z</time>
      </trkpt>
      <trkpt lat="44.42225" lon="5.19407">
        <ele>434</ele>
        <time>2022-09-29T07:23:32Z</time>
      </trkpt>
      <trkpt lat="44.42226" lon="5.19407">
        <ele>434</ele>
        <time>2022-09-29T07:23:33Z</time>
      </trkpt>
      <trkpt lat="44.42226" lon="5.19407">
        <ele>435</ele>
        <time>2022-09-29T07:23:34Z</time>
      </trkpt>
      <trkpt lat="44.42227" lon="5.19407">
        <ele>435</ele>
        <time>2022-09-29T07:23:35Z</time>
      </trkpt>
      <trkpt lat="44.42228" lon="5.19407">
        <ele>435</ele>
        <time>2022-09-29T07:23:36Z</time>
      </trkpt>
      <trkpt lat="44.42229" lon="5.19408">
        <ele>436</ele>
        <time>2022-09-29T07:23:37Z</time>
      </trkpt>
      <trkpt lat="44.4223" lon="5.19409">
        <ele>436</ele>
        <time>2022-09-29T07:23:38Z</time>
      </trkpt>
      <trkpt lat="44.42231" lon="5.1941">
        <ele>437</ele>
        <time>2022-09-29T07:23:39Z</time>
      </trkpt>
      <trkpt lat="44.42231" lon="5.19411">
        <ele>437</ele>
        <time>2022-09-29T07:23:40Z</time>
      </trkpt>
      <trkpt lat="44.42232" lon="5.19412">
        <ele>437</ele>
        <time>2022-09-29T07:23:41Z</time>
      </trkpt>
      <trkpt lat="44.42232" lon="5.19413">
        <ele>437</ele>
        <time>2022-09-29T07:23:42Z</time>
      </trkpt>
      <trkpt lat="44.42232" lon="5.19414">
        <ele>437</ele>
        <time>2022-09-29T07:23:43Z</time>
      </trkpt>
      <trkpt lat="44.42233" lon="5.19415">
        <ele>437</ele>
        <time>2022-09-29T07:23:44Z</time>
      </trkpt>
      <trkpt lat="44.42233" lon="5.19416">
        <ele>437</ele>
        <time>2022-09-29T07:23:45Z</time>
      </trkpt>
      <trkpt lat="44.42233" lon="5.19417">
        <ele>437</ele>
        <time>2022-09-29T07:23:46Z</time>
      </trkpt>
      <trkpt lat="44.42233" lon="5.19419">
        <ele>438</ele>
        <time>2022-09-29T07:24:33Z</time>
      </trkpt>
      <trkpt lat="44.42233" lon="5.19419">
        <ele>438</ele>
        <time>2022-09-29T07:24:34Z</time>
      </trkpt>
      <trkpt lat="44.42233" lon="5.1942">
        <ele>438</ele>
        <time>2022-09-29T07:24:35Z</time>
      </trkpt>
      <trkpt lat="44.42233" lon="5.1942">
        <ele>438</ele>
        <time>2022-09-29T07:24:36Z</time>
      </trkpt>
      <trkpt lat="44.42233" lon="5.19421">
        <ele>438</ele>
        <time>2022-09-29T07:24:37Z</time>
      </trkpt>
      <trkpt lat="44.42234" lon="5.19421">
        <ele>438</ele>
        <time>2022-09-29T07:24:38Z</time>
      </trkpt>
      <trkpt lat="44.42234" lon="5.19421">
        <ele>438</ele>
        <time>2022-09-29T07:24:39Z</time>
      </trkpt>
      <trkpt lat="44.42235" lon="5.19422">
        <ele>438</ele>
        <time>2022-09-29T07:24:40Z</time>
      </trkpt>
      <trkpt lat="44.42236" lon="5.19422">
        <ele>438</ele>
        <time>2022-09-29T07:24:41Z</time>
      </trkpt>
      <trkpt lat="44.42236" lon="5.19422">
        <ele>438</ele>
        <time>2022-09-29T07:24:42Z</time>
      </trkpt>
      <trkpt lat="44.42237" lon="5.19422">
        <ele>438</ele>
        <time>2022-09-29T07:24:43Z</time>
      </trkpt>
      <trkpt lat="44.42238" lon="5.19422">
        <ele>439</ele>
        <time>2022-09-29T07:24:44Z</time>
      </trkpt>
      <trkpt lat="44.42239" lon="5.19421">
        <ele>439</ele>
        <time>2022-09-29T07:24:45Z</time>
      </trkpt>
      <trkpt lat="44.4224" lon="5.19421">
        <ele>439</ele>
        <time>2022-09-29T07:24:46Z</time>
      </trkpt>
      <trkpt lat="44.4224" lon="5.19421">
        <ele>439</ele>
        <time>2022-09-29T07:24:47Z</time>
      </trkpt>
      <trkpt lat="44.42241" lon="5.19421">
        <ele>439</ele>
        <time>2022-09-29T07:24:48Z</time>
      </trkpt>
      <trkpt lat="44.42241" lon="5.19421">
        <ele>439</ele>
        <time>2022-09-29T07:24:49Z</time>
      </trkpt>
      <trkpt lat="44.42242" lon="5.19421">
        <ele>439</ele>
        <time>2022-09-29T07:24:50Z</time>
      </trkpt>
      <trkpt lat="44.42243" lon="5.19421">
        <ele>439</ele>
        <time>2022-09-29T07:24:51Z</time>
      </trkpt>
      <trkpt lat="44.42243" lon="5.19421">
        <ele>439</ele>
        <time>2022-09-29T07:24:52Z</time>
      </trkpt>
      <trkpt lat="44.42244" lon="5.1942">
        <ele>439</ele>
        <time>2022-09-29T07:24:53Z</time>
      </trkpt>
      <trkpt lat="44.42245" lon="5.19421">
        <ele>440</ele>
        <time>2022-09-29T07:24:54Z</time>
      </trkpt>
      <trkpt lat="44.42245" lon="5.19421">
        <ele>440</ele>
        <time>2022-09-29T07:24:55Z</time>
      </trkpt>
      <trkpt lat="44.42246" lon="5.19421">
        <ele>440</ele>
        <time>2022-09-29T07:24:56Z</time>
      </trkpt>
      <trkpt lat="44.42246" lon="5.19421">
        <ele>440</ele>
        <time>2022-09-29T07:24:57Z</time>
      </trkpt>
      <trkpt lat="44.42247" lon="5.19422">
        <ele>440</ele>
        <time>2022-09-29T07:24:58Z</time>
      </trkpt>
      <trkpt lat="44.42248" lon="5.19423">
        <ele>440</ele>
        <time>2022-09-29T07:24:59Z</time>
      </trkpt>
      <trkpt lat="44.42249" lon="5.19423">
        <ele>440</ele>
        <time>2022-09-29T07:25:00Z</time>
      </trkpt>
      <trkpt lat="44.42249" lon="5.19424">
        <ele>440</ele>
        <time>2022-09-29T07:25:01Z</time>
      </trkpt>
      <trkpt lat="44.42249" lon="5.19424">
        <ele>440</ele>
        <time>2022-09-29T07:25:02Z</time>
      </trkpt>
      <trkpt lat="44.4225" lon="5.19424">
        <ele>440</ele>
        <time>2022-09-29T07:25:03Z</time>
      </trkpt>
      <trkpt lat="44.4225" lon="5.19424">
        <ele>441</ele>
        <time>2022-09-29T07:25:04Z</time>
      </trkpt>
      <trkpt lat="44.4225" lon="5.19424">
        <ele>441</ele>
        <time>2022-09-29T07:25:05Z</time>
      </trkpt>
      <trkpt lat="44.42251" lon="5.19425">
        <ele>441</ele>
        <time>2022-09-29T07:25:06Z</time>
      </trkpt>
      <trkpt lat="44.42251" lon="5.19425">
        <ele>441</ele>
        <time>2022-09-29T07:25:07Z</time>
      </trkpt>
      <trkpt lat="44.42252" lon="5.19425">
        <ele>441</ele>
        <time>2022-09-29T07:25:08Z</time>
      </trkpt>
      <trkpt lat="44.42253" lon="5.19425">
        <ele>442</ele>
        <time>2022-09-29T07:25:09Z</time>
      </trkpt>
      <trkpt lat="44.42253" lon="5.19425">
        <ele>442</ele>
        <time>2022-09-29T07:25:10Z</time>
      </trkpt>
      <trkpt lat="44.42254" lon="5.19424">
        <ele>442</ele>
        <time>2022-09-29T07:25:11Z</time>
      </trkpt>
      <trkpt lat="44.42255" lon="5.19424">
        <ele>442</ele>
        <time>2022-09-29T07:25:12Z</time>
      </trkpt>
      <trkpt lat="44.42255" lon="5.19423">
        <ele>442</ele>
        <time>2022-09-29T07:25:13Z</time>
      </trkpt>
      <trkpt lat="44.42256" lon="5.19423">
        <ele>442</ele>
        <time>2022-09-29T07:25:14Z</time>
      </trkpt>
      <trkpt lat="44.42257" lon="5.19422">
        <ele>442</ele>
        <time>2022-09-29T07:25:15Z</time>
      </trkpt>
      <trkpt lat="44.42258" lon="5.19421">
        <ele>442</ele>
        <time>2022-09-29T07:25:16Z</time>
      </trkpt>
      <trkpt lat="44.42259" lon="5.19421">
        <ele>442</ele>
        <time>2022-09-29T07:25:17Z</time>
      </trkpt>
      <trkpt lat="44.4226" lon="5.1942">
        <ele>442</ele>
        <time>2022-09-29T07:25:18Z</time>
      </trkpt>
      <trkpt lat="44.4226" lon="5.19419">
        <ele>443</ele>
        <time>2022-09-29T07:25:19Z</time>
      </trkpt>
      <trkpt lat="44.42261" lon="5.19419">
        <ele>443</ele>
        <time>2022-09-29T07:25:20Z</time>
      </trkpt>
      <trkpt lat="44.42263" lon="5.19418">
        <ele>443</ele>
        <time>2022-09-29T07:25:21Z</time>
      </trkpt>
      <trkpt lat="44.42264" lon="5.19418">
        <ele>443</ele>
        <time>2022-09-29T07:25:22Z</time>
      </trkpt>
      <trkpt lat="44.42265" lon="5.19418">
        <ele>443</ele>
        <time>2022-09-29T07:25:23Z</time>
      </trkpt>
      <trkpt lat="44.42266" lon="5.19417">
        <ele>443</ele>
        <time>2022-09-29T07:25:24Z</time>
      </trkpt>
      <trkpt lat="44.42267" lon="5.19417">
        <ele>443</ele>
        <time>2022-09-29T07:25:25Z</time>
      </trkpt>
      <trkpt lat="44.42268" lon="5.19418">
        <ele>443</ele>
        <time>2022-09-29T07:25:26Z</time>
      </trkpt>
      <trkpt lat="44.42269" lon="5.19418">
        <ele>443</ele>
        <time>2022-09-29T07:25:27Z</time>
      </trkpt>
      <trkpt lat="44.42269" lon="5.19418">
        <ele>443</ele>
        <time>2022-09-29T07:25:28Z</time>
      </trkpt>
      <trkpt lat="44.4227" lon="5.19418">
        <ele>443</ele>
        <time>2022-09-29T07:25:29Z</time>
      </trkpt>
      <trkpt lat="44.42271" lon="5.19419">
        <ele>443</ele>
        <time>2022-09-29T07:25:30Z</time>
      </trkpt>
      <trkpt lat="44.42271" lon="5.19419">
        <ele>443</ele>
        <time>2022-09-29T07:25:31Z</time>
      </trkpt>
      <trkpt lat="44.42272" lon="5.19419">
        <ele>443</ele>
        <time>2022-09-29T07:25:32Z</time>
      </trkpt>
      <trkpt lat="44.42272" lon="5.1942">
        <ele>443</ele>
        <time>2022-09-29T07:25:33Z</time>
      </trkpt>
      <trkpt lat="44.42273" lon="5.1942">
        <ele>444</ele>
        <time>2022-09-29T07:25:34Z</time>
      </trkpt>
      <trkpt lat="44.42274" lon="5.19421">
        <ele>444</ele>
        <time>2022-09-29T07:25:35Z</time>
      </trkpt>
      <trkpt lat="44.42274" lon="5.19421">
        <ele>444</ele>
        <time>2022-09-29T07:25:36Z</time>
      </trkpt>
      <trkpt lat="44.42275" lon="5.19422">
        <ele>444</ele>
        <time>2022-09-29T07:25:37Z</time>
      </trkpt>
      <trkpt lat="44.42276" lon="5.19423">
        <ele>444</ele>
        <time>2022-09-29T07:25:38Z</time>
      </trkpt>
      <trkpt lat="44.42276" lon="5.19424">
        <ele>444</ele>
        <time>2022-09-29T07:25:39Z</time>
      </trkpt>
      <trkpt lat="44.42277" lon="5.19424">
        <ele>444</ele>
        <time>2022-09-29T07:25:40Z</time>
      </trkpt>
      <trkpt lat="44.42277" lon="5.19424">
        <ele>444</ele>
        <time>2022-09-29T07:25:41Z</time>
      </trkpt>
      <trkpt lat="44.42278" lon="5.19425">
        <ele>444</ele>
        <time>2022-09-29T07:25:42Z</time>
      </trkpt>
      <trkpt lat="44.42278" lon="5.19425">
        <ele>444</ele>
        <time>2022-09-29T07:25:43Z</time>
      </trkpt>
      <trkpt lat="44.42279" lon="5.19426">
        <ele>445</ele>
        <time>2022-09-29T07:25:44Z</time>
      </trkpt>
      <trkpt lat="44.4228" lon="5.19426">
        <ele>445</ele>
        <time>2022-09-29T07:25:45Z</time>
      </trkpt>
      <trkpt lat="44.42281" lon="5.19427">
        <ele>445</ele>
        <time>2022-09-29T07:25:46Z</time>
      </trkpt>
      <trkpt lat="44.42282" lon="5.19428">
        <ele>445</ele>
        <time>2022-09-29T07:25:47Z</time>
      </trkpt>
      <trkpt lat="44.42282" lon="5.19429">
        <ele>445</ele>
        <time>2022-09-29T07:25:48Z</time>
      </trkpt>
      <trkpt lat="44.42283" lon="5.19429">
        <ele>446</ele>
        <time>2022-09-29T07:25:49Z</time>
      </trkpt>
      <trkpt lat="44.42284" lon="5.1943">
        <ele>446</ele>
        <time>2022-09-29T07:25:50Z</time>
      </trkpt>
      <trkpt lat="44.42285" lon="5.19431">
        <ele>446</ele>
        <time>2022-09-29T07:25:51Z</time>
      </trkpt>
      <trkpt lat="44.42285" lon="5.19431">
        <ele>446</ele>
        <time>2022-09-29T07:25:52Z</time>
      </trkpt>
      <trkpt lat="44.42286" lon="5.19432">
        <ele>446</ele>
        <time>2022-09-29T07:25:53Z</time>
      </trkpt>
      <trkpt lat="44.42286" lon="5.19432">
        <ele>447</ele>
        <time>2022-09-29T07:25:54Z</time>
      </trkpt>
      <trkpt lat="44.42287" lon="5.19432">
        <ele>447</ele>
        <time>2022-09-29T07:25:55Z</time>
      </trkpt>
      <trkpt lat="44.42287" lon="5.19433">
        <ele>447</ele>
        <time>2022-09-29T07:25:56Z</time>
      </trkpt>
      <trkpt lat="44.42288" lon="5.19433">
        <ele>447</ele>
        <time>2022-09-29T07:25:57Z</time>
      </trkpt>
      <trkpt lat="44.42289" lon="5.19433">
        <ele>447</ele>
        <time>2022-09-29T07:25:58Z</time>
      </trkpt>
      <trkpt lat="44.42289" lon="5.19434">
        <ele>448</ele>
        <time>2022-09-29T07:25:59Z</time>
      </trkpt>
      <trkpt lat="44.4229" lon="5.19434">
        <ele>448</ele>
        <time>2022-09-29T07:26:00Z</time>
      </trkpt>
      <trkpt lat="44.42291" lon="5.19434">
        <ele>448</ele>
        <time>2022-09-29T07:26:01Z</time>
      </trkpt>
      <trkpt lat="44.42292" lon="5.19434">
        <ele>448</ele>
        <time>2022-09-29T07:26:08Z</time>
      </trkpt>
      <trkpt lat="44.42293" lon="5.19435">
        <ele>449</ele>
        <time>2022-09-29T07:26:09Z</time>
      </trkpt>
      <trkpt lat="44.42294" lon="5.19435">
        <ele>449</ele>
        <time>2022-09-29T07:26:10Z</time>
      </trkpt>
      <trkpt lat="44.42295" lon="5.19435">
        <ele>449</ele>
        <time>2022-09-29T07:26:11Z</time>
      </trkpt>
      <trkpt lat="44.42295" lon="5.19436">
        <ele>449</ele>
        <time>2022-09-29T07:26:12Z</time>
      </trkpt>
      <trkpt lat="44.42296" lon="5.19436">
        <ele>449</ele>
        <time>2022-09-29T07:26:13Z</time>
      </trkpt>
      <trkpt lat="44.42296" lon="5.19436">
        <ele>450</ele>
        <time>2022-09-29T07:26:14Z</time>
      </trkpt>
      <trkpt lat="44.42297" lon="5.19437">
        <ele>450</ele>
        <time>2022-09-29T07:26:15Z</time>
      </trkpt>
      <trkpt lat="44.42297" lon="5.19437">
        <ele>450</ele>
        <time>2022-09-29T07:26:16Z</time>
      </trkpt>
      <trkpt lat="44.42297" lon="5.19437">
        <ele>450</ele>
        <time>2022-09-29T07:26:17Z</time>
      </trkpt>
      <trkpt lat="44.42297" lon="5.19437">
        <ele>450</ele>
        <time>2022-09-29T07:26:18Z</time>
      </trkpt>
      <trkpt lat="44.42298" lon="5.19438">
        <ele>451</ele>
        <time>2022-09-29T07:26:19Z</time>
      </trkpt>
      <trkpt lat="44.42298" lon="5.19438">
        <ele>451</ele>
        <time>2022-09-29T07:26:20Z</time>
      </trkpt>
      <trkpt lat="44.42298" lon="5.19438">
        <ele>451</ele>
        <time>2022-09-29T07:26:21Z</time>
      </trkpt>
      <trkpt lat="44.42299" lon="5.19439">
        <ele>451</ele>
        <time>2022-09-29T07:26:22Z</time>
      </trkpt>
      <trkpt lat="44.423" lon="5.19439">
        <ele>451</ele>
        <time>2022-09-29T07:26:23Z</time>
      </trkpt>
      <trkpt lat="44.423" lon="5.1944">
        <ele>452</ele>
        <time>2022-09-29T07:26:24Z</time>
      </trkpt>
      <trkpt lat="44.42301" lon="5.1944">
        <ele>452</ele>
        <time>2022-09-29T07:26:25Z</time>
      </trkpt>
      <trkpt lat="44.42302" lon="5.19441">
        <ele>452</ele>
        <time>2022-09-29T07:26:26Z</time>
      </trkpt>
      <trkpt lat="44.42304" lon="5.19442">
        <ele>453</ele>
        <time>2022-09-29T07:26:35Z</time>
      </trkpt>
      <trkpt lat="44.42305" lon="5.19443">
        <ele>453</ele>
        <time>2022-09-29T07:26:36Z</time>
      </trkpt>
      <trkpt lat="44.42306" lon="5.19443">
        <ele>453</ele>
        <time>2022-09-29T07:26:37Z</time>
      </trkpt>
      <trkpt lat="44.42307" lon="5.19444">
        <ele>453</ele>
        <time>2022-09-29T07:26:38Z</time>
      </trkpt>
      <trkpt lat="44.42307" lon="5.19444">
        <ele>454</ele>
        <time>2022-09-29T07:26:39Z</time>
      </trkpt>
      <trkpt lat="44.42308" lon="5.19446">
        <ele>455</ele>
        <time>2022-09-29T07:26:48Z</time>
      </trkpt>
      <trkpt lat="44.42309" lon="5.19446">
        <ele>456</ele>
        <time>2022-09-29T07:26:49Z</time>
      </trkpt>
      <trkpt lat="44.4231" lon="5.19447">
        <ele>456</ele>
        <time>2022-09-29T07:26:50Z</time>
      </trkpt>
      <trkpt lat="44.42311" lon="5.19448">
        <ele>456</ele>
        <time>2022-09-29T07:26:51Z</time>
      </trkpt>
      <trkpt lat="44.42311" lon="5.19448">
        <ele>456</ele>
        <time>2022-09-29T07:26:52Z</time>
      </trkpt>
      <trkpt lat="44.42312" lon="5.19448">
        <ele>456</ele>
        <time>2022-09-29T07:26:53Z</time>
      </trkpt>
      <trkpt lat="44.42313" lon="5.19449">
        <ele>457</ele>
        <time>2022-09-29T07:26:54Z</time>
      </trkpt>
      <trkpt lat="44.42314" lon="5.19449">
        <ele>457</ele>
        <time>2022-09-29T07:26:55Z</time>
      </trkpt>
      <trkpt lat="44.42314" lon="5.19449">
        <ele>457</ele>
        <time>2022-09-29T07:26:56Z</time>
      </trkpt>
      <trkpt lat="44.42315" lon="5.1945">
        <ele>457</ele>
        <time>2022-09-29T07:26:57Z</time>
      </trkpt>
      <trkpt lat="44.42316" lon="5.1945">
        <ele>457</ele>
        <time>2022-09-29T07:26:58Z</time>
      </trkpt>
      <trkpt lat="44.42316" lon="5.19451">
        <ele>458</ele>
        <time>2022-09-29T07:26:59Z</time>
      </trkpt>
      <trkpt lat="44.42317" lon="5.19451">
        <ele>458</ele>
        <time>2022-09-29T07:27:00Z</time>
      </trkpt>
      <trkpt lat="44.42317" lon="5.19452">
        <ele>458</ele>
        <time>2022-09-29T07:27:01Z</time>
      </trkpt>
      <trkpt lat="44.42318" lon="5.19452">
        <ele>458</ele>
        <time>2022-09-29T07:27:02Z</time>
      </trkpt>
      <trkpt lat="44.42318" lon="5.19453">
        <ele>458</ele>
        <time>2022-09-29T07:27:03Z</time>
      </trkpt>
      <trkpt lat="44.42319" lon="5.19453">
        <ele>458</ele>
        <time>2022-09-29T07:27:04Z</time>
      </trkpt>
      <trkpt lat="44.4232" lon="5.19454">
        <ele>458</ele>
        <time>2022-09-29T07:27:05Z</time>
      </trkpt>
      <trkpt lat="44.42321" lon="5.19454">
        <ele>458</ele>
        <time>2022-09-29T07:27:06Z</time>
      </trkpt>
      <trkpt lat="44.42321" lon="5.19454">
        <ele>458</ele>
        <time>2022-09-29T07:27:07Z</time>
      </trkpt>
      <trkpt lat="44.42321" lon="5.19454">
        <ele>458</ele>
        <time>2022-09-29T07:27:08Z</time>
      </trkpt>
      <trkpt lat="44.42322" lon="5.19455">
        <ele>459</ele>
        <time>2022-09-29T07:27:09Z</time>
      </trkpt>
      <trkpt lat="44.42323" lon="5.19455">
        <ele>459</ele>
        <time>2022-09-29T07:27:10Z</time>
      </trkpt>
      <trkpt lat="44.42324" lon="5.19455">
        <ele>459</ele>
        <time>2022-09-29T07:27:11Z</time>
      </trkpt>
      <trkpt lat="44.42324" lon="5.19456">
        <ele>459</ele>
        <time>2022-09-29T07:27:12Z</time>
      </trkpt>
      <trkpt lat="44.42325" lon="5.19456">
        <ele>459</ele>
        <time>2022-09-29T07:27:13Z</time>
      </trkpt>
      <trkpt lat="44.42326" lon="5.19456">
        <ele>460</ele>
        <time>2022-09-29T07:27:14Z</time>
      </trkpt>
      <trkpt lat="44.42327" lon="5.19456">
        <ele>460</ele>
        <time>2022-09-29T07:27:15Z</time>
      </trkpt>
      <trkpt lat="44.42328" lon="5.19456">
        <ele>460</ele>
        <time>2022-09-29T07:27:16Z</time>
      </trkpt>
      <trkpt lat="44.42328" lon="5.19456">
        <ele>460</ele>
        <time>2022-09-29T07:27:17Z</time>
      </trkpt>
      <trkpt lat="44.42329" lon="5.19456">
        <ele>460</ele>
        <time>2022-09-29T07:27:18Z</time>
      </trkpt>
      <trkpt lat="44.42329" lon="5.19456">
        <ele>460</ele>
        <time>2022-09-29T07:27:19Z</time>
      </trkpt>
      <trkpt lat="44.4233" lon="5.19456">
        <ele>460</ele>
        <time>2022-09-29T07:27:20Z</time>
      </trkpt>
      <trkpt lat="44.42331" lon="5.19456">
        <ele>460</ele>
        <time>2022-09-29T07:27:21Z</time>
      </trkpt>
      <trkpt lat="44.42331" lon="5.19456">
        <ele>460</ele>
        <time>2022-09-29T07:27:22Z</time>
      </trkpt>
      <trkpt lat="44.42332" lon="5.19456">
        <ele>460</ele>
        <time>2022-09-29T07:27:23Z</time>
      </trkpt>
      <trkpt lat="44.42333" lon="5.19456">
        <ele>461</ele>
        <time>2022-09-29T07:27:24Z</time>
      </trkpt>
      <trkpt lat="44.42333" lon="5.19456">
        <ele>461</ele>
        <time>2022-09-29T07:27:25Z</time>
      </trkpt>
      <trkpt lat="44.42334" lon="5.19455">
        <ele>461</ele>
        <time>2022-09-29T07:27:26Z</time>
      </trkpt>
      <trkpt lat="44.42335" lon="5.19455">
        <ele>461</ele>
        <time>2022-09-29T07:27:27Z</time>
      </trkpt>
      <trkpt lat="44.42335" lon="5.19455">
        <ele>461</ele>
        <time>2022-09-29T07:27:28Z</time>
      </trkpt>
      <trkpt lat="44.42336" lon="5.19455">
        <ele>462</ele>
        <time>2022-09-29T07:27:29Z</time>
      </trkpt>
      <trkpt lat="44.42336" lon="5.19455">
        <ele>462</ele>
        <time>2022-09-29T07:27:30Z</time>
      </trkpt>
      <trkpt lat="44.42337" lon="5.19455">
        <ele>462</ele>
        <time>2022-09-29T07:27:31Z</time>
      </trkpt>
      <trkpt lat="44.42337" lon="5.19455">
        <ele>462</ele>
        <time>2022-09-29T07:27:32Z</time>
      </trkpt>
      <trkpt lat="44.42338" lon="5.19455">
        <ele>462</ele>
        <time>2022-09-29T07:27:33Z</time>
      </trkpt>
      <trkpt lat="44.42339" lon="5.19455">
        <ele>463</ele>
        <time>2022-09-29T07:27:34Z</time>
      </trkpt>
      <trkpt lat="44.42339" lon="5.19456">
        <ele>463</ele>
        <time>2022-09-29T07:27:35Z</time>
      </trkpt>
      <trkpt lat="44.4234" lon="5.19456">
        <ele>463</ele>
        <time>2022-09-29T07:27:36Z</time>
      </trkpt>
      <trkpt lat="44.4234" lon="5.19456">
        <ele>463</ele>
        <time>2022-09-29T07:27:37Z</time>
      </trkpt>
      <trkpt lat="44.42341" lon="5.19456">
        <ele>463</ele>
        <time>2022-09-29T07:27:38Z</time>
      </trkpt>
      <trkpt lat="44.42342" lon="5.19456">
        <ele>464</ele>
        <time>2022-09-29T07:27:39Z</time>
      </trkpt>
      <trkpt lat="44.42342" lon="5.19456">
        <ele>464</ele>
        <time>2022-09-29T07:27:40Z</time>
      </trkpt>
      <trkpt lat="44.42343" lon="5.19456">
        <ele>464</ele>
        <time>2022-09-29T07:27:41Z</time>
      </trkpt>
      <trkpt lat="44.42343" lon="5.19456">
        <ele>464</ele>
        <time>2022-09-29T07:27:42Z</time>
      </trkpt>
      <trkpt lat="44.42344" lon="5.19456">
        <ele>464</ele>
        <time>2022-09-29T07:27:43Z</time>
      </trkpt>
      <trkpt lat="44.42345" lon="5.19457">
        <ele>464</ele>
        <time>2022-09-29T07:27:44Z</time>
      </trkpt>
      <trkpt lat="44.42346" lon="5.19457">
        <ele>464</ele>
        <time>2022-09-29T07:27:45Z</time>
      </trkpt>
      <trkpt lat="44.42347" lon="5.19457">
        <ele>464</ele>
        <time>2022-09-29T07:27:46Z</time>
      </trkpt>
      <trkpt lat="44.42347" lon="5.19457">
        <ele>464</ele>
        <time>2022-09-29T07:27:47Z</time>
      </trkpt>
      <trkpt lat="44.42348" lon="5.19457">
        <ele>464</ele>
        <time>2022-09-29T07:27:48Z</time>
      </trkpt>
      <trkpt lat="44.42349" lon="5.19457">
        <ele>465</ele>
        <time>2022-09-29T07:27:49Z</time>
      </trkpt>
      <trkpt lat="44.4235" lon="5.19457">
        <ele>465</ele>
        <time>2022-09-29T07:27:50Z</time>
      </trkpt>
      <trkpt lat="44.42351" lon="5.19457">
        <ele>465</ele>
        <time>2022-09-29T07:27:51Z</time>
      </trkpt>
      <trkpt lat="44.42352" lon="5.19457">
        <ele>465</ele>
        <time>2022-09-29T07:27:52Z</time>
      </trkpt>
      <trkpt lat="44.42353" lon="5.19457">
        <ele>465</ele>
        <time>2022-09-29T07:27:53Z</time>
      </trkpt>
      <trkpt lat="44.42353" lon="5.19457">
        <ele>466</ele>
        <time>2022-09-29T07:27:54Z</time>
      </trkpt>
      <trkpt lat="44.42354" lon="5.19457">
        <ele>466</ele>
        <time>2022-09-29T07:27:55Z</time>
      </trkpt>
      <trkpt lat="44.42355" lon="5.19457">
        <ele>466</ele>
        <time>2022-09-29T07:27:56Z</time>
      </trkpt>
      <trkpt lat="44.42356" lon="5.19456">
        <ele>466</ele>
        <time>2022-09-29T07:27:57Z</time>
      </trkpt>
      <trkpt lat="44.42357" lon="5.19457">
        <ele>466</ele>
        <time>2022-09-29T07:27:58Z</time>
      </trkpt>
      <trkpt lat="44.42358" lon="5.19457">
        <ele>466</ele>
        <time>2022-09-29T07:27:59Z</time>
      </trkpt>
      <trkpt lat="44.42359" lon="5.19457">
        <ele>466</ele>
        <time>2022-09-29T07:28:00Z</time>
      </trkpt>
      <trkpt lat="44.4236" lon="5.19457">
        <ele>466</ele>
        <time>2022-09-29T07:28:01Z</time>
      </trkpt>
      <trkpt lat="44.42361" lon="5.19458">
        <ele>466</ele>
        <time>2022-09-29T07:28:02Z</time>
      </trkpt>
      <trkpt lat="44.42362" lon="5.19458">
        <ele>466</ele>
        <time>2022-09-29T07:28:03Z</time>
      </trkpt>
      <trkpt lat="44.42362" lon="5.19459">
        <ele>467</ele>
        <time>2022-09-29T07:28:04Z</time>
      </trkpt>
      <trkpt lat="44.42363" lon="5.1946">
        <ele>467</ele>
        <time>2022-09-29T07:28:05Z</time>
      </trkpt>
      <trkpt lat="44.42363" lon="5.19461">
        <ele>467</ele>
        <time>2022-09-29T07:28:06Z</time>
      </trkpt>
      <trkpt lat="44.42364" lon="5.19462">
        <ele>467</ele>
        <time>2022-09-29T07:28:07Z</time>
      </trkpt>
      <trkpt lat="44.42364" lon="5.19464">
        <ele>467</ele>
        <time>2022-09-29T07:28:08Z</time>
      </trkpt>
      <trkpt lat="44.42365" lon="5.19465">
        <ele>467</ele>
        <time>2022-09-29T07:28:09Z</time>
      </trkpt>
      <trkpt lat="44.42365" lon="5.19466">
        <ele>467</ele>
        <time>2022-09-29T07:28:10Z</time>
      </trkpt>
      <trkpt lat="44.42366" lon="5.19468">
        <ele>467</ele>
        <time>2022-09-29T07:28:11Z</time>
      </trkpt>
      <trkpt lat="44.42367" lon="5.19469">
        <ele>467</ele>
        <time>2022-09-29T07:28:12Z</time>
      </trkpt>
      <trkpt lat="44.42367" lon="5.1947">
        <ele>467</ele>
        <time>2022-09-29T07:28:13Z</time>
      </trkpt>
      <trkpt lat="44.42368" lon="5.19471">
        <ele>468</ele>
        <time>2022-09-29T07:28:14Z</time>
      </trkpt>
      <trkpt lat="44.42369" lon="5.19472">
        <ele>468</ele>
        <time>2022-09-29T07:28:15Z</time>
      </trkpt>
      <trkpt lat="44.4237" lon="5.19472">
        <ele>468</ele>
        <time>2022-09-29T07:28:16Z</time>
      </trkpt>
      <trkpt lat="44.4237" lon="5.19473">
        <ele>468</ele>
        <time>2022-09-29T07:28:17Z</time>
      </trkpt>
      <trkpt lat="44.42371" lon="5.19474">
        <ele>468</ele>
        <time>2022-09-29T07:28:18Z</time>
      </trkpt>
      <trkpt lat="44.42371" lon="5.19475">
        <ele>468</ele>
        <time>2022-09-29T07:28:19Z</time>
      </trkpt>
      <trkpt lat="44.42372" lon="5.19476">
        <ele>468</ele>
        <time>2022-09-29T07:28:20Z</time>
      </trkpt>
      <trkpt lat="44.42373" lon="5.19477">
        <ele>468</ele>
        <time>2022-09-29T07:28:21Z</time>
      </trkpt>
      <trkpt lat="44.42373" lon="5.19478">
        <ele>468</ele>
        <time>2022-09-29T07:28:22Z</time>
      </trkpt>
      <trkpt lat="44.42374" lon="5.19479">
        <ele>468</ele>
        <time>2022-09-29T07:28:23Z</time>
      </trkpt>
      <trkpt lat="44.42375" lon="5.19479">
        <ele>468</ele>
        <time>2022-09-29T07:28:24Z</time>
      </trkpt>
      <trkpt lat="44.42375" lon="5.1948">
        <ele>468</ele>
        <time>2022-09-29T07:28:25Z</time>
      </trkpt>
      <trkpt lat="44.42376" lon="5.1948">
        <ele>468</ele>
        <time>2022-09-29T07:28:26Z</time>
      </trkpt>
      <trkpt lat="44.42377" lon="5.19481">
        <ele>468</ele>
        <time>2022-09-29T07:28:27Z</time>
      </trkpt>
      <trkpt lat="44.42378" lon="5.19482">
        <ele>468</ele>
        <time>2022-09-29T07:28:28Z</time>
      </trkpt>
      <trkpt lat="44.42378" lon="5.19482">
        <ele>468</ele>
        <time>2022-09-29T07:28:29Z</time>
      </trkpt>
      <trkpt lat="44.42379" lon="5.19483">
        <ele>468</ele>
        <time>2022-09-29T07:28:30Z</time>
      </trkpt>
      <trkpt lat="44.4238" lon="5.19483">
        <ele>468</ele>
        <time>2022-09-29T07:28:31Z</time>
      </trkpt>
      <trkpt lat="44.42381" lon="5.19484">
        <ele>468</ele>
        <time>2022-09-29T07:28:32Z</time>
      </trkpt>
      <trkpt lat="44.42382" lon="5.19484">
        <ele>468</ele>
        <time>2022-09-29T07:28:33Z</time>
      </trkpt>
      <trkpt lat="44.42382" lon="5.19484">
        <ele>468</ele>
        <time>2022-09-29T07:28:34Z</time>
      </trkpt>
      <trkpt lat="44.42383" lon="5.19485">
        <ele>468</ele>
        <time>2022-09-29T07:28:35Z</time>
      </trkpt>
      <trkpt lat="44.42383" lon="5.19485">
        <ele>468</ele>
        <time>2022-09-29T07:28:36Z</time>
      </trkpt>
      <trkpt lat="44.42384" lon="5.19485">
        <ele>468</ele>
        <time>2022-09-29T07:28:37Z</time>
      </trkpt>
      <trkpt lat="44.42384" lon="5.19485">
        <ele>468</ele>
        <time>2022-09-29T07:28:38Z</time>
      </trkpt>
      <trkpt lat="44.42384" lon="5.19485">
        <ele>469</ele>
        <time>2022-09-29T07:28:39Z</time>
      </trkpt>
      <trkpt lat="44.42385" lon="5.19485">
        <ele>469</ele>
        <time>2022-09-29T07:28:40Z</time>
      </trkpt>
      <trkpt lat="44.42386" lon="5.19486">
        <ele>469</ele>
        <time>2022-09-29T07:28:41Z</time>
      </trkpt>
      <trkpt lat="44.42386" lon="5.19486">
        <ele>469</ele>
        <time>2022-09-29T07:28:42Z</time>
      </trkpt>
      <trkpt lat="44.42387" lon="5.19487">
        <ele>469</ele>
        <time>2022-09-29T07:28:43Z</time>
      </trkpt>
      <trkpt lat="44.42388" lon="5.19487">
        <ele>469</ele>
        <time>2022-09-29T07:28:44Z</time>
      </trkpt>
      <trkpt lat="44.42389" lon="5.19488">
        <ele>469</ele>
        <time>2022-09-29T07:28:45Z</time>
      </trkpt>
      <trkpt lat="44.4239" lon="5.19488">
        <ele>469</ele>
        <time>2022-09-29T07:28:46Z</time>
      </trkpt>
      <trkpt lat="44.42391" lon="5.19489">
        <ele>469</ele>
        <time>2022-09-29T07:28:47Z</time>
      </trkpt>
      <trkpt lat="44.42392" lon="5.19489">
        <ele>469</ele>
        <time>2022-09-29T07:28:48Z</time>
      </trkpt>
      <trkpt lat="44.42393" lon="5.1949">
        <ele>469</ele>
        <time>2022-09-29T07:28:49Z</time>
      </trkpt>
      <trkpt lat="44.42394" lon="5.1949">
        <ele>469</ele>
        <time>2022-09-29T07:28:50Z</time>
      </trkpt>
      <trkpt lat="44.42394" lon="5.1949">
        <ele>469</ele>
        <time>2022-09-29T07:28:51Z</time>
      </trkpt>
      <trkpt lat="44.42395" lon="5.19491">
        <ele>469</ele>
        <time>2022-09-29T07:28:52Z</time>
      </trkpt>
      <trkpt lat="44.42396" lon="5.19491">
        <ele>469</ele>
        <time>2022-09-29T07:28:53Z</time>
      </trkpt>
      <trkpt lat="44.42396" lon="5.19492">
        <ele>469</ele>
        <time>2022-09-29T07:28:54Z</time>
      </trkpt>
      <trkpt lat="44.42397" lon="5.19492">
        <ele>469</ele>
        <time>2022-09-29T07:28:55Z</time>
      </trkpt>
      <trkpt lat="44.42397" lon="5.19493">
        <ele>469</ele>
        <time>2022-09-29T07:28:56Z</time>
      </trkpt>
      <trkpt lat="44.42398" lon="5.19494">
        <ele>469</ele>
        <time>2022-09-29T07:28:57Z</time>
      </trkpt>
      <trkpt lat="44.42398" lon="5.19494">
        <ele>469</ele>
        <time>2022-09-29T07:28:58Z</time>
      </trkpt>
      <trkpt lat="44.42399" lon="5.19495">
        <ele>469</ele>
        <time>2022-09-29T07:28:59Z</time>
      </trkpt>
      <trkpt lat="44.424" lon="5.19496">
        <ele>468</ele>
        <time>2022-09-29T07:29:00Z</time>
      </trkpt>
      <trkpt lat="44.42401" lon="5.19497">
        <ele>468</ele>
        <time>2022-09-29T07:29:01Z</time>
      </trkpt>
      <trkpt lat="44.42402" lon="5.19498">
        <ele>468</ele>
        <time>2022-09-29T07:29:02Z</time>
      </trkpt>
      <trkpt lat="44.42403" lon="5.19499">
        <ele>468</ele>
        <time>2022-09-29T07:29:03Z</time>
      </trkpt>
      <trkpt lat="44.42403" lon="5.195">
        <ele>468</ele>
        <time>2022-09-29T07:29:04Z</time>
      </trkpt>
      <trkpt lat="44.42404" lon="5.19501">
        <ele>468</ele>
        <time>2022-09-29T07:29:05Z</time>
      </trkpt>
      <trkpt lat="44.42405" lon="5.19502">
        <ele>468</ele>
        <time>2022-09-29T07:29:06Z</time>
      </trkpt>
      <trkpt lat="44.42406" lon="5.19503">
        <ele>468</ele>
        <time>2022-09-29T07:29:07Z</time>
      </trkpt>
      <trkpt lat="44.42407" lon="5.19504">
        <ele>468</ele>
        <time>2022-09-29T07:29:08Z</time>
      </trkpt>
      <trkpt lat="44.42407" lon="5.19504">
        <ele>468</ele>
        <time>2022-09-29T07:29:09Z</time>
      </trkpt>
      <trkpt lat="44.42408" lon="5.19505">
        <ele>468</ele>
        <time>2022-09-29T07:29:10Z</time>
      </trkpt>
      <trkpt lat="44.42409" lon="5.19506">
        <ele>468</ele>
        <time>2022-09-29T07:29:11Z</time>
      </trkpt>
      <trkpt lat="44.4241" lon="5.19507">
        <ele>468</ele>
        <time>2022-09-29T07:29:12Z</time>
      </trkpt>
      <trkpt lat="44.4241" lon="5.19508">
        <ele>468</ele>
        <time>2022-09-29T07:29:13Z</time>
      </trkpt>
      <trkpt lat="44.42411" lon="5.19509">
        <ele>469</ele>
        <time>2022-09-29T07:29:14Z</time>
      </trkpt>
      <trkpt lat="44.42412" lon="5.1951">
        <ele>469</ele>
        <time>2022-09-29T07:29:15Z</time>
      </trkpt>
      <trkpt lat="44.42412" lon="5.1951">
        <ele>469</ele>
        <time>2022-09-29T07:29:16Z</time>
      </trkpt>
      <trkpt lat="44.42413" lon="5.19511">
        <ele>469</ele>
        <time>2022-09-29T07:29:17Z</time>
      </trkpt>
      <trkpt lat="44.42414" lon="5.19512">
        <ele>469</ele>
        <time>2022-09-29T07:29:18Z</time>
      </trkpt>
      <trkpt lat="44.42415" lon="5.19512">
        <ele>469</ele>
        <time>2022-09-29T07:29:19Z</time>
      </trkpt>
      <trkpt lat="44.42415" lon="5.19512">
        <ele>469</ele>
        <time>2022-09-29T07:29:20Z</time>
      </trkpt>
      <trkpt lat="44.42416" lon="5.19512">
        <ele>469</ele>
        <time>2022-09-29T07:29:21Z</time>
      </trkpt>
      <trkpt lat="44.42417" lon="5.19513">
        <ele>469</ele>
        <time>2022-09-29T07:29:22Z</time>
      </trkpt>
      <trkpt lat="44.42417" lon="5.19513">
        <ele>469</ele>
        <time>2022-09-29T07:29:23Z</time>
      </trkpt>
      <trkpt lat="44.42418" lon="5.19513">
        <ele>470</ele>
        <time>2022-09-29T07:29:24Z</time>
      </trkpt>
      <trkpt lat="44.42419" lon="5.19514">
        <ele>470</ele>
        <time>2022-09-29T07:29:25Z</time>
      </trkpt>
      <trkpt lat="44.42419" lon="5.19514">
        <ele>470</ele>
        <time>2022-09-29T07:29:26Z</time>
      </trkpt>
      <trkpt lat="44.4242" lon="5.19514">
        <ele>470</ele>
        <time>2022-09-29T07:29:27Z</time>
      </trkpt>
      <trkpt lat="44.42421" lon="5.19515">
        <ele>470</ele>
        <time>2022-09-29T07:29:28Z</time>
      </trkpt>
      <trkpt lat="44.42422" lon="5.19515">
        <ele>470</ele>
        <time>2022-09-29T07:29:29Z</time>
      </trkpt>
      <trkpt lat="44.42422" lon="5.19515">
        <ele>470</ele>
        <time>2022-09-29T07:29:30Z</time>
      </trkpt>
      <trkpt lat="44.42423" lon="5.19516">
        <ele>470</ele>
        <time>2022-09-29T07:29:31Z</time>
      </trkpt>
      <trkpt lat="44.42424" lon="5.19516">
        <ele>470</ele>
        <time>2022-09-29T07:29:32Z</time>
      </trkpt>
      <trkpt lat="44.42424" lon="5.19516">
        <ele>470</ele>
        <time>2022-09-29T07:29:33Z</time>
      </trkpt>
      <trkpt lat="44.42425" lon="5.19517">
        <ele>471</ele>
        <time>2022-09-29T07:29:34Z</time>
      </trkpt>
      <trkpt lat="44.42426" lon="5.19517">
        <ele>471</ele>
        <time>2022-09-29T07:29:35Z</time>
      </trkpt>
      <trkpt lat="44.42426" lon="5.19517">
        <ele>471</ele>
        <time>2022-09-29T07:29:36Z</time>
      </trkpt>
      <trkpt lat="44.42427" lon="5.19517">
        <ele>471</ele>
        <time>2022-09-29T07:29:37Z</time>
      </trkpt>
      <trkpt lat="44.42428" lon="5.19517">
        <ele>471</ele>
        <time>2022-09-29T07:29:38Z</time>
      </trkpt>
      <trkpt lat="44.42429" lon="5.19517">
        <ele>472</ele>
        <time>2022-09-29T07:29:39Z</time>
      </trkpt>
      <trkpt lat="44.4243" lon="5.19517">
        <ele>472</ele>
        <time>2022-09-29T07:29:40Z</time>
      </trkpt>
      <trkpt lat="44.4243" lon="5.19517">
        <ele>472</ele>
        <time>2022-09-29T07:29:41Z</time>
      </trkpt>
      <trkpt lat="44.42431" lon="5.19518">
        <ele>472</ele>
        <time>2022-09-29T07:29:42Z</time>
      </trkpt>
      <trkpt lat="44.42432" lon="5.19518">
        <ele>472</ele>
        <time>2022-09-29T07:29:43Z</time>
      </trkpt>
      <trkpt lat="44.42433" lon="5.19518">
        <ele>472</ele>
        <time>2022-09-29T07:29:44Z</time>
      </trkpt>
      <trkpt lat="44.42434" lon="5.19519">
        <ele>472</ele>
        <time>2022-09-29T07:29:45Z</time>
      </trkpt>
      <trkpt lat="44.42434" lon="5.19519">
        <ele>472</ele>
        <time>2022-09-29T07:29:46Z</time>
      </trkpt>
      <trkpt lat="44.42435" lon="5.1952">
        <ele>472</ele>
        <time>2022-09-29T07:29:47Z</time>
      </trkpt>
      <trkpt lat="44.42436" lon="5.19521">
        <ele>472</ele>
        <time>2022-09-29T07:29:48Z</time>
      </trkpt>
      <trkpt lat="44.42437" lon="5.19521">
        <ele>473</ele>
        <time>2022-09-29T07:29:49Z</time>
      </trkpt>
      <trkpt lat="44.42438" lon="5.19522">
        <ele>473</ele>
        <time>2022-09-29T07:29:50Z</time>
      </trkpt>
      <trkpt lat="44.42439" lon="5.19523">
        <ele>473</ele>
        <time>2022-09-29T07:29:51Z</time>
      </trkpt>
      <trkpt lat="44.42439" lon="5.19524">
        <ele>473</ele>
        <time>2022-09-29T07:29:52Z</time>
      </trkpt>
      <trkpt lat="44.4244" lon="5.19525">
        <ele>473</ele>
        <time>2022-09-29T07:29:53Z</time>
      </trkpt>
      <trkpt lat="44.42441" lon="5.19526">
        <ele>474</ele>
        <time>2022-09-29T07:29:54Z</time>
      </trkpt>
      <trkpt lat="44.42441" lon="5.19528">
        <ele>474</ele>
        <time>2022-09-29T07:29:55Z</time>
      </trkpt>
      <trkpt lat="44.42442" lon="5.19529">
        <ele>474</ele>
        <time>2022-09-29T07:29:56Z</time>
      </trkpt>
      <trkpt lat="44.42442" lon="5.1953">
        <ele>474</ele>
        <time>2022-09-29T07:29:57Z</time>
      </trkpt>
      <trkpt lat="44.42443" lon="5.19531">
        <ele>474</ele>
        <time>2022-09-29T07:29:58Z</time>
      </trkpt>
      <trkpt lat="44.42443" lon="5.19532">
        <ele>474</ele>
        <time>2022-09-29T07:29:59Z</time>
      </trkpt>
      <trkpt lat="44.42444" lon="5.19533">
        <ele>474</ele>
        <time>2022-09-29T07:30:00Z</time>
      </trkpt>
      <trkpt lat="44.42444" lon="5.19535">
        <ele>474</ele>
        <time>2022-09-29T07:30:01Z</time>
      </trkpt>
      <trkpt lat="44.42445" lon="5.19536">
        <ele>474</ele>
        <time>2022-09-29T07:30:02Z</time>
      </trkpt>
      <trkpt lat="44.42445" lon="5.19537">
        <ele>474</ele>
        <time>2022-09-29T07:30:03Z</time>
      </trkpt>
      <trkpt lat="44.42446" lon="5.19539">
        <ele>474</ele>
        <time>2022-09-29T07:30:04Z</time>
      </trkpt>
      <trkpt lat="44.42446" lon="5.1954">
        <ele>474</ele>
        <time>2022-09-29T07:30:05Z</time>
      </trkpt>
      <trkpt lat="44.42447" lon="5.19541">
        <ele>474</ele>
        <time>2022-09-29T07:30:06Z</time>
      </trkpt>
      <trkpt lat="44.42447" lon="5.19543">
        <ele>474</ele>
        <time>2022-09-29T07:30:07Z</time>
      </trkpt>
      <trkpt lat="44.42448" lon="5.19544">
        <ele>474</ele>
        <time>2022-09-29T07:30:08Z</time>
      </trkpt>
      <trkpt lat="44.42449" lon="5.19545">
        <ele>474</ele>
        <time>2022-09-29T07:30:09Z</time>
      </trkpt>
      <trkpt lat="44.4245" lon="5.19546">
        <ele>474</ele>
        <time>2022-09-29T07:30:10Z</time>
      </trkpt>
      <trkpt lat="44.4245" lon="5.19547">
        <ele>474</ele>
        <time>2022-09-29T07:30:11Z</time>
      </trkpt>
      <trkpt lat="44.42451" lon="5.19548">
        <ele>474</ele>
        <time>2022-09-29T07:30:12Z</time>
      </trkpt>
      <trkpt lat="44.42452" lon="5.19548">
        <ele>474</ele>
        <time>2022-09-29T07:30:13Z</time>
      </trkpt>
      <trkpt lat="44.42453" lon="5.19549">
        <ele>475</ele>
        <time>2022-09-29T07:30:14Z</time>
      </trkpt>
      <trkpt lat="44.42454" lon="5.1955">
        <ele>475</ele>
        <time>2022-09-29T07:30:15Z</time>
      </trkpt>
      <trkpt lat="44.42455" lon="5.1955">
        <ele>475</ele>
        <time>2022-09-29T07:30:16Z</time>
      </trkpt>
      <trkpt lat="44.42456" lon="5.19551">
        <ele>475</ele>
        <time>2022-09-29T07:30:17Z</time>
      </trkpt>
      <trkpt lat="44.42457" lon="5.19551">
        <ele>475</ele>
        <time>2022-09-29T07:30:18Z</time>
      </trkpt>
      <trkpt lat="44.42458" lon="5.19552">
        <ele>475</ele>
        <time>2022-09-29T07:30:19Z</time>
      </trkpt>
      <trkpt lat="44.42459" lon="5.19552">
        <ele>475</ele>
        <time>2022-09-29T07:30:20Z</time>
      </trkpt>
      <trkpt lat="44.42459" lon="5.19553">
        <ele>475</ele>
        <time>2022-09-29T07:30:21Z</time>
      </trkpt>
      <trkpt lat="44.4246" lon="5.19553">
        <ele>475</ele>
        <time>2022-09-29T07:30:22Z</time>
      </trkpt>
      <trkpt lat="44.42461" lon="5.19554">
        <ele>475</ele>
        <time>2022-09-29T07:30:23Z</time>
      </trkpt>
      <trkpt lat="44.42462" lon="5.19555">
        <ele>475</ele>
        <time>2022-09-29T07:30:24Z</time>
      </trkpt>
      <trkpt lat="44.42463" lon="5.19555">
        <ele>475</ele>
        <time>2022-09-29T07:30:25Z</time>
      </trkpt>
      <trkpt lat="44.42464" lon="5.19556">
        <ele>475</ele>
        <time>2022-09-29T07:30:26Z</time>
      </trkpt>
      <trkpt lat="44.42465" lon="5.19556">
        <ele>475</ele>
        <time>2022-09-29T07:30:27Z</time>
      </trkpt>
      <trkpt lat="44.42465" lon="5.19557">
        <ele>475</ele>
        <time>2022-09-29T07:30:28Z</time>
      </trkpt>
      <trkpt lat="44.42466" lon="5.19558">
        <ele>475</ele>
        <time>2022-09-29T07:30:29Z</time>
      </trkpt>
      <trkpt lat="44.42466" lon="5.19558">
        <ele>475</ele>
        <time>2022-09-29T07:30:30Z</time>
      </trkpt>
      <trkpt lat="44.42467" lon="5.19559">
        <ele>475</ele>
        <time>2022-09-29T07:30:31Z</time>
      </trkpt>
      <trkpt lat="44.42467" lon="5.1956">
        <ele>475</ele>
        <time>2022-09-29T07:30:32Z</time>
      </trkpt>
      <trkpt lat="44.42468" lon="5.19561">
        <ele>475</ele>
        <time>2022-09-29T07:30:33Z</time>
      </trkpt>
      <trkpt lat="44.42469" lon="5.19561">
        <ele>476</ele>
        <time>2022-09-29T07:30:34Z</time>
      </trkpt>
      <trkpt lat="44.42469" lon="5.19562">
        <ele>476</ele>
        <time>2022-09-29T07:30:35Z</time>
      </trkpt>
      <trkpt lat="44.42469" lon="5.19563">
        <ele>476</ele>
        <time>2022-09-29T07:30:36Z</time>
      </trkpt>
      <trkpt lat="44.4247" lon="5.19564">
        <ele>476</ele>
        <time>2022-09-29T07:30:37Z</time>
      </trkpt>
      <trkpt lat="44.4247" lon="5.19565">
        <ele>476</ele>
        <time>2022-09-29T07:30:38Z</time>
      </trkpt>
      <trkpt lat="44.4247" lon="5.19565">
        <ele>476</ele>
        <time>2022-09-29T07:30:39Z</time>
      </trkpt>
      <trkpt lat="44.4247" lon="5.19565">
        <ele>476</ele>
        <time>2022-09-29T07:30:40Z</time>
      </trkpt>
      <trkpt lat="44.42471" lon="5.19565">
        <ele>476</ele>
        <time>2022-09-29T07:30:41Z</time>
      </trkpt>
      <trkpt lat="44.42471" lon="5.19566">
        <ele>476</ele>
        <time>2022-09-29T07:30:42Z</time>
      </trkpt>
      <trkpt lat="44.42471" lon="5.19566">
        <ele>476</ele>
        <time>2022-09-29T07:30:43Z</time>
      </trkpt>
      <trkpt lat="44.42472" lon="5.19566">
        <ele>477</ele>
        <time>2022-09-29T07:30:44Z</time>
      </trkpt>
      <trkpt lat="44.42472" lon="5.19567">
        <ele>477</ele>
        <time>2022-09-29T07:30:45Z</time>
      </trkpt>
      <trkpt lat="44.42473" lon="5.19567">
        <ele>477</ele>
        <time>2022-09-29T07:30:46Z</time>
      </trkpt>
      <trkpt lat="44.42474" lon="5.19568">
        <ele>477</ele>
        <time>2022-09-29T07:30:47Z</time>
      </trkpt>
      <trkpt lat="44.42475" lon="5.19568">
        <ele>477</ele>
        <time>2022-09-29T07:30:48Z</time>
      </trkpt>
      <trkpt lat="44.42475" lon="5.19569">
        <ele>478</ele>
        <time>2022-09-29T07:30:49Z</time>
      </trkpt>
      <trkpt lat="44.42476" lon="5.1957">
        <ele>478</ele>
        <time>2022-09-29T07:30:50Z</time>
      </trkpt>
      <trkpt lat="44.42477" lon="5.1957">
        <ele>478</ele>
        <time>2022-09-29T07:30:51Z</time>
      </trkpt>
      <trkpt lat="44.42478" lon="5.19571">
        <ele>478</ele>
        <time>2022-09-29T07:30:52Z</time>
      </trkpt>
      <trkpt lat="44.42479" lon="5.19572">
        <ele>478</ele>
        <time>2022-09-29T07:30:53Z</time>
      </trkpt>
      <trkpt lat="44.42479" lon="5.19572">
        <ele>478</ele>
        <time>2022-09-29T07:30:54Z</time>
      </trkpt>
      <trkpt lat="44.4248" lon="5.19573">
        <ele>478</ele>
        <time>2022-09-29T07:30:55Z</time>
      </trkpt>
      <trkpt lat="44.42481" lon="5.19574">
        <ele>478</ele>
        <time>2022-09-29T07:30:56Z</time>
      </trkpt>
      <trkpt lat="44.42482" lon="5.19574">
        <ele>478</ele>
        <time>2022-09-29T07:30:57Z</time>
      </trkpt>
      <trkpt lat="44.42483" lon="5.19575">
        <ele>478</ele>
        <time>2022-09-29T07:30:58Z</time>
      </trkpt>
      <trkpt lat="44.42484" lon="5.19576">
        <ele>478</ele>
        <time>2022-09-29T07:30:59Z</time>
      </trkpt>
      <trkpt lat="44.42485" lon="5.19577">
        <ele>478</ele>
        <time>2022-09-29T07:31:00Z</time>
      </trkpt>
      <trkpt lat="44.42485" lon="5.19578">
        <ele>478</ele>
        <time>2022-09-29T07:31:01Z</time>
      </trkpt>
      <trkpt lat="44.42486" lon="5.19579">
        <ele>478</ele>
        <time>2022-09-29T07:31:02Z</time>
      </trkpt>
      <trkpt lat="44.42486" lon="5.1958">
        <ele>478</ele>
        <time>2022-09-29T07:31:03Z</time>
      </trkpt>
      <trkpt lat="44.42487" lon="5.19581">
        <ele>479</ele>
        <time>2022-09-29T07:31:04Z</time>
      </trkpt>
      <trkpt lat="44.42488" lon="5.19581">
        <ele>479</ele>
        <time>2022-09-29T07:31:05Z</time>
      </trkpt>
      <trkpt lat="44.42488" lon="5.19582">
        <ele>479</ele>
        <time>2022-09-29T07:31:06Z</time>
      </trkpt>
      <trkpt lat="44.42489" lon="5.19583">
        <ele>479</ele>
        <time>2022-09-29T07:31:07Z</time>
      </trkpt>
      <trkpt lat="44.4249" lon="5.19583">
        <ele>479</ele>
        <time>2022-09-29T07:31:08Z</time>
      </trkpt>
      <trkpt lat="44.42491" lon="5.19584">
        <ele>479</ele>
        <time>2022-09-29T07:31:09Z</time>
      </trkpt>
      <trkpt lat="44.42491" lon="5.19585">
        <ele>479</ele>
        <time>2022-09-29T07:31:10Z</time>
      </trkpt>
      <trkpt lat="44.42492" lon="5.19586">
        <ele>479</ele>
        <time>2022-09-29T07:31:11Z</time>
      </trkpt>
      <trkpt lat="44.42493" lon="5.19587">
        <ele>479</ele>
        <time>2022-09-29T07:31:12Z</time>
      </trkpt>
      <trkpt lat="44.42493" lon="5.19588">
        <ele>479</ele>
        <time>2022-09-29T07:31:13Z</time>
      </trkpt>
      <trkpt lat="44.42494" lon="5.19588">
        <ele>480</ele>
        <time>2022-09-29T07:31:14Z</time>
      </trkpt>
      <trkpt lat="44.42495" lon="5.19589">
        <ele>480</ele>
        <time>2022-09-29T07:31:15Z</time>
      </trkpt>
      <trkpt lat="44.42495" lon="5.1959">
        <ele>480</ele>
        <time>2022-09-29T07:31:16Z</time>
      </trkpt>
      <trkpt lat="44.42496" lon="5.19591">
        <ele>480</ele>
        <time>2022-09-29T07:31:17Z</time>
      </trkpt>
      <trkpt lat="44.42496" lon="5.19591">
        <ele>480</ele>
        <time>2022-09-29T07:31:18Z</time>
      </trkpt>
      <trkpt lat="44.42497" lon="5.19592">
        <ele>480</ele>
        <time>2022-09-29T07:31:19Z</time>
      </trkpt>
      <trkpt lat="44.42498" lon="5.19593">
        <ele>480</ele>
        <time>2022-09-29T07:31:20Z</time>
      </trkpt>
      <trkpt lat="44.42498" lon="5.19594">
        <ele>480</ele>
        <time>2022-09-29T07:31:21Z</time>
      </trkpt>
      <trkpt lat="44.42499" lon="5.19594">
        <ele>480</ele>
        <time>2022-09-29T07:31:22Z</time>
      </trkpt>
      <trkpt lat="44.425" lon="5.19595">
        <ele>480</ele>
        <time>2022-09-29T07:31:23Z</time>
      </trkpt>
      <trkpt lat="44.42501" lon="5.19596">
        <ele>481</ele>
        <time>2022-09-29T07:31:24Z</time>
      </trkpt>
      <trkpt lat="44.42501" lon="5.19596">
        <ele>481</ele>
        <time>2022-09-29T07:31:25Z</time>
      </trkpt>
      <trkpt lat="44.42502" lon="5.19597">
        <ele>481</ele>
        <time>2022-09-29T07:31:26Z</time>
      </trkpt>
      <trkpt lat="44.42503" lon="5.19597">
        <ele>481</ele>
        <time>2022-09-29T07:31:27Z</time>
      </trkpt>
      <trkpt lat="44.42504" lon="5.19598">
        <ele>481</ele>
        <time>2022-09-29T07:31:28Z</time>
      </trkpt>
      <trkpt lat="44.42504" lon="5.19599">
        <ele>481</ele>
        <time>2022-09-29T07:31:29Z</time>
      </trkpt>
      <trkpt lat="44.42505" lon="5.19599">
        <ele>481</ele>
        <time>2022-09-29T07:31:30Z</time>
      </trkpt>
      <trkpt lat="44.42506" lon="5.196">
        <ele>481</ele>
        <time>2022-09-29T07:31:31Z</time>
      </trkpt>
      <trkpt lat="44.42506" lon="5.19601">
        <ele>481</ele>
        <time>2022-09-29T07:31:32Z</time>
      </trkpt>
      <trkpt lat="44.42507" lon="5.19602">
        <ele>481</ele>
        <time>2022-09-29T07:31:33Z</time>
      </trkpt>
      <trkpt lat="44.42508" lon="5.19603">
        <ele>482</ele>
        <time>2022-09-29T07:31:34Z</time>
      </trkpt>
      <trkpt lat="44.42509" lon="5.19604">
        <ele>482</ele>
        <time>2022-09-29T07:31:35Z</time>
      </trkpt>
      <trkpt lat="44.42509" lon="5.19605">
        <ele>482</ele>
        <time>2022-09-29T07:31:36Z</time>
      </trkpt>
      <trkpt lat="44.42509" lon="5.19605">
        <ele>482</ele>
        <time>2022-09-29T07:31:37Z</time>
      </trkpt>
      <trkpt lat="44.4251" lon="5.19606">
        <ele>482</ele>
        <time>2022-09-29T07:31:38Z</time>
      </trkpt>
      <trkpt lat="44.42511" lon="5.19607">
        <ele>482</ele>
        <time>2022-09-29T07:31:39Z</time>
      </trkpt>
      <trkpt lat="44.42512" lon="5.19607">
        <ele>482</ele>
        <time>2022-09-29T07:31:40Z</time>
      </trkpt>
      <trkpt lat="44.42512" lon="5.19608">
        <ele>482</ele>
        <time>2022-09-29T07:31:41Z</time>
      </trkpt>
      <trkpt lat="44.42513" lon="5.19609">
        <ele>482</ele>
        <time>2022-09-29T07:31:42Z</time>
      </trkpt>
      <trkpt lat="44.42514" lon="5.19609">
        <ele>482</ele>
        <time>2022-09-29T07:31:43Z</time>
      </trkpt>
      <trkpt lat="44.42514" lon="5.1961">
        <ele>483</ele>
        <time>2022-09-29T07:31:44Z</time>
      </trkpt>
      <trkpt lat="44.42515" lon="5.19611">
        <ele>483</ele>
        <time>2022-09-29T07:31:45Z</time>
      </trkpt>
      <trkpt lat="44.42516" lon="5.19611">
        <ele>483</ele>
        <time>2022-09-29T07:31:46Z</time>
      </trkpt>
      <trkpt lat="44.42516" lon="5.19612">
        <ele>483</ele>
        <time>2022-09-29T07:31:47Z</time>
      </trkpt>
      <trkpt lat="44.42517" lon="5.19613">
        <ele>483</ele>
        <time>2022-09-29T07:31:48Z</time>
      </trkpt>
      <trkpt lat="44.42518" lon="5.19614">
        <ele>483</ele>
        <time>2022-09-29T07:31:49Z</time>
      </trkpt>
      <trkpt lat="44.42518" lon="5.19614">
        <ele>483</ele>
        <time>2022-09-29T07:31:50Z</time>
      </trkpt>
      <trkpt lat="44.42518" lon="5.19615">
        <ele>483</ele>
        <time>2022-09-29T07:31:51Z</time>
      </trkpt>
      <trkpt lat="44.42519" lon="5.19616">
        <ele>483</ele>
        <time>2022-09-29T07:31:52Z</time>
      </trkpt>
      <trkpt lat="44.42519" lon="5.19617">
        <ele>483</ele>
        <time>2022-09-29T07:31:53Z</time>
      </trkpt>
      <trkpt lat="44.4252" lon="5.19618">
        <ele>483</ele>
        <time>2022-09-29T07:31:54Z</time>
      </trkpt>
      <trkpt lat="44.4252" lon="5.19619">
        <ele>483</ele>
        <time>2022-09-29T07:31:55Z</time>
      </trkpt>
      <trkpt lat="44.42521" lon="5.19619">
        <ele>483</ele>
        <time>2022-09-29T07:31:56Z</time>
      </trkpt>
      <trkpt lat="44.42522" lon="5.1962">
        <ele>484</ele>
        <time>2022-09-29T07:31:57Z</time>
      </trkpt>
      <trkpt lat="44.42523" lon="5.19621">
        <ele>484</ele>
        <time>2022-09-29T07:31:58Z</time>
      </trkpt>
      <trkpt lat="44.42523" lon="5.19621">
        <ele>485</ele>
        <time>2022-09-29T07:31:59Z</time>
      </trkpt>
      <trkpt lat="44.42524" lon="5.19622">
        <ele>485</ele>
        <time>2022-09-29T07:32:00Z</time>
      </trkpt>
      <trkpt lat="44.42525" lon="5.19623">
        <ele>485</ele>
        <time>2022-09-29T07:32:01Z</time>
      </trkpt>
      <trkpt lat="44.42526" lon="5.19623">
        <ele>485</ele>
        <time>2022-09-29T07:32:02Z</time>
      </trkpt>
      <trkpt lat="44.42527" lon="5.19624">
        <ele>485</ele>
        <time>2022-09-29T07:32:03Z</time>
      </trkpt>
      <trkpt lat="44.42527" lon="5.19625">
        <ele>485</ele>
        <time>2022-09-29T07:32:04Z</time>
      </trkpt>
      <trkpt lat="44.42528" lon="5.19625">
        <ele>485</ele>
        <time>2022-09-29T07:32:05Z</time>
      </trkpt>
      <trkpt lat="44.42529" lon="5.19626">
        <ele>485</ele>
        <time>2022-09-29T07:32:06Z</time>
      </trkpt>
      <trkpt lat="44.42529" lon="5.19627">
        <ele>485</ele>
        <time>2022-09-29T07:32:07Z</time>
      </trkpt>
      <trkpt lat="44.4253" lon="5.19628">
        <ele>485</ele>
        <time>2022-09-29T07:32:08Z</time>
      </trkpt>
      <trkpt lat="44.42531" lon="5.19629">
        <ele>485</ele>
        <time>2022-09-29T07:32:09Z</time>
      </trkpt>
      <trkpt lat="44.42531" lon="5.1963">
        <ele>485</ele>
        <time>2022-09-29T07:32:10Z</time>
      </trkpt>
      <trkpt lat="44.42532" lon="5.1963">
        <ele>485</ele>
        <time>2022-09-29T07:32:11Z</time>
      </trkpt>
      <trkpt lat="44.42533" lon="5.19631">
        <ele>485</ele>
        <time>2022-09-29T07:32:12Z</time>
      </trkpt>
      <trkpt lat="44.42534" lon="5.19632">
        <ele>485</ele>
        <time>2022-09-29T07:32:13Z</time>
      </trkpt>
      <trkpt lat="44.42534" lon="5.19633">
        <ele>486</ele>
        <time>2022-09-29T07:32:14Z</time>
      </trkpt>
      <trkpt lat="44.42535" lon="5.19634">
        <ele>486</ele>
        <time>2022-09-29T07:32:15Z</time>
      </trkpt>
      <trkpt lat="44.42536" lon="5.19634">
        <ele>486</ele>
        <time>2022-09-29T07:32:16Z</time>
      </trkpt>
      <trkpt lat="44.42537" lon="5.19635">
        <ele>486</ele>
        <time>2022-09-29T07:32:17Z</time>
      </trkpt>
      <trkpt lat="44.42538" lon="5.19636">
        <ele>486</ele>
        <time>2022-09-29T07:32:18Z</time>
      </trkpt>
      <trkpt lat="44.42539" lon="5.19636">
        <ele>486</ele>
        <time>2022-09-29T07:32:19Z</time>
      </trkpt>
      <trkpt lat="44.4254" lon="5.19637">
        <ele>486</ele>
        <time>2022-09-29T07:32:20Z</time>
      </trkpt>
      <trkpt lat="44.42541" lon="5.19637">
        <ele>486</ele>
        <time>2022-09-29T07:32:21Z</time>
      </trkpt>
      <trkpt lat="44.42542" lon="5.19638">
        <ele>486</ele>
        <time>2022-09-29T07:32:22Z</time>
      </trkpt>
      <trkpt lat="44.42543" lon="5.19639">
        <ele>486</ele>
        <time>2022-09-29T07:32:23Z</time>
      </trkpt>
      <trkpt lat="44.42544" lon="5.19639">
        <ele>486</ele>
        <time>2022-09-29T07:32:24Z</time>
      </trkpt>
      <trkpt lat="44.42545" lon="5.1964">
        <ele>486</ele>
        <time>2022-09-29T07:32:25Z</time>
      </trkpt>
      <trkpt lat="44.42546" lon="5.1964">
        <ele>486</ele>
        <time>2022-09-29T07:32:26Z</time>
      </trkpt>
      <trkpt lat="44.42547" lon="5.19641">
        <ele>486</ele>
        <time>2022-09-29T07:32:27Z</time>
      </trkpt>
      <trkpt lat="44.42548" lon="5.19641">
        <ele>486</ele>
        <time>2022-09-29T07:32:28Z</time>
      </trkpt>
      <trkpt lat="44.42549" lon="5.19642">
        <ele>487</ele>
        <time>2022-09-29T07:32:29Z</time>
      </trkpt>
      <trkpt lat="44.4255" lon="5.19642">
        <ele>487</ele>
        <time>2022-09-29T07:32:30Z</time>
      </trkpt>
      <trkpt lat="44.42551" lon="5.19643">
        <ele>487</ele>
        <time>2022-09-29T07:32:31Z</time>
      </trkpt>
      <trkpt lat="44.42551" lon="5.19644">
        <ele>487</ele>
        <time>2022-09-29T07:32:32Z</time>
      </trkpt>
      <trkpt lat="44.42552" lon="5.19644">
        <ele>487</ele>
        <time>2022-09-29T07:32:33Z</time>
      </trkpt>
      <trkpt lat="44.42553" lon="5.19645">
        <ele>487</ele>
        <time>2022-09-29T07:32:34Z</time>
      </trkpt>
      <trkpt lat="44.42553" lon="5.19646">
        <ele>487</ele>
        <time>2022-09-29T07:32:35Z</time>
      </trkpt>
      <trkpt lat="44.42554" lon="5.19647">
        <ele>487</ele>
        <time>2022-09-29T07:32:36Z</time>
      </trkpt>
      <trkpt lat="44.42555" lon="5.19647">
        <ele>487</ele>
        <time>2022-09-29T07:32:37Z</time>
      </trkpt>
      <trkpt lat="44.42556" lon="5.19648">
        <ele>487</ele>
        <time>2022-09-29T07:32:38Z</time>
      </trkpt>
      <trkpt lat="44.42556" lon="5.19648">
        <ele>487</ele>
        <time>2022-09-29T07:32:39Z</time>
      </trkpt>
      <trkpt lat="44.42557" lon="5.19649">
        <ele>487</ele>
        <time>2022-09-29T07:32:40Z</time>
      </trkpt>
      <trkpt lat="44.42558" lon="5.1965">
        <ele>487</ele>
        <time>2022-09-29T07:32:41Z</time>
      </trkpt>
      <trkpt lat="44.42559" lon="5.1965">
        <ele>487</ele>
        <time>2022-09-29T07:32:42Z</time>
      </trkpt>
      <trkpt lat="44.4256" lon="5.19651">
        <ele>487</ele>
        <time>2022-09-29T07:32:43Z</time>
      </trkpt>
      <trkpt lat="44.42561" lon="5.19652">
        <ele>488</ele>
        <time>2022-09-29T07:32:44Z</time>
      </trkpt>
      <trkpt lat="44.42562" lon="5.19652">
        <ele>488</ele>
        <time>2022-09-29T07:32:45Z</time>
      </trkpt>
      <trkpt lat="44.42563" lon="5.19653">
        <ele>488</ele>
        <time>2022-09-29T07:32:46Z</time>
      </trkpt>
      <trkpt lat="44.42563" lon="5.19654">
        <ele>488</ele>
        <time>2022-09-29T07:32:47Z</time>
      </trkpt>
      <trkpt lat="44.42564" lon="5.19655">
        <ele>488</ele>
        <time>2022-09-29T07:32:48Z</time>
      </trkpt>
      <trkpt lat="44.42565" lon="5.19655">
        <ele>488</ele>
        <time>2022-09-29T07:32:49Z</time>
      </trkpt>
      <trkpt lat="44.42566" lon="5.19656">
        <ele>488</ele>
        <time>2022-09-29T07:32:50Z</time>
      </trkpt>
      <trkpt lat="44.42566" lon="5.19656">
        <ele>488</ele>
        <time>2022-09-29T07:32:51Z</time>
      </trkpt>
      <trkpt lat="44.42567" lon="5.19657">
        <ele>488</ele>
        <time>2022-09-29T07:32:52Z</time>
      </trkpt>
      <trkpt lat="44.42568" lon="5.19658">
        <ele>488</ele>
        <time>2022-09-29T07:32:53Z</time>
      </trkpt>
      <trkpt lat="44.42568" lon="5.19658">
        <ele>489</ele>
        <time>2022-09-29T07:32:54Z</time>
      </trkpt>
      <trkpt lat="44.42569" lon="5.19659">
        <ele>489</ele>
        <time>2022-09-29T07:32:55Z</time>
      </trkpt>
      <trkpt lat="44.4257" lon="5.1966">
        <ele>489</ele>
        <time>2022-09-29T07:32:56Z</time>
      </trkpt>
      <trkpt lat="44.4257" lon="5.19661">
        <ele>489</ele>
        <time>2022-09-29T07:32:57Z</time>
      </trkpt>
      <trkpt lat="44.42571" lon="5.19662">
        <ele>489</ele>
        <time>2022-09-29T07:32:58Z</time>
      </trkpt>
      <trkpt lat="44.42572" lon="5.19663">
        <ele>489</ele>
        <time>2022-09-29T07:32:59Z</time>
      </trkpt>
      <trkpt lat="44.42572" lon="5.19663">
        <ele>489</ele>
        <time>2022-09-29T07:33:00Z</time>
      </trkpt>
      <trkpt lat="44.42573" lon="5.19664">
        <ele>489</ele>
        <time>2022-09-29T07:33:01Z</time>
      </trkpt>
      <trkpt lat="44.42574" lon="5.19665">
        <ele>489</ele>
        <time>2022-09-29T07:33:02Z</time>
      </trkpt>
      <trkpt lat="44.42574" lon="5.19665">
        <ele>489</ele>
        <time>2022-09-29T07:33:03Z</time>
      </trkpt>
      <trkpt lat="44.42575" lon="5.19666">
        <ele>489</ele>
        <time>2022-09-29T07:33:04Z</time>
      </trkpt>
      <trkpt lat="44.42576" lon="5.19667">
        <ele>489</ele>
        <time>2022-09-29T07:33:05Z</time>
      </trkpt>
      <trkpt lat="44.42576" lon="5.19667">
        <ele>489</ele>
        <time>2022-09-29T07:33:06Z</time>
      </trkpt>
      <trkpt lat="44.42577" lon="5.19668">
        <ele>489</ele>
        <time>2022-09-29T07:33:07Z</time>
      </trkpt>
      <trkpt lat="44.42578" lon="5.19669">
        <ele>489</ele>
        <time>2022-09-29T07:33:08Z</time>
      </trkpt>
      <trkpt lat="44.42578" lon="5.19669">
        <ele>490</ele>
        <time>2022-09-29T07:33:09Z</time>
      </trkpt>
      <trkpt lat="44.42579" lon="5.1967">
        <ele>490</ele>
        <time>2022-09-29T07:33:10Z</time>
      </trkpt>
      <trkpt lat="44.4258" lon="5.19671">
        <ele>490</ele>
        <time>2022-09-29T07:33:11Z</time>
      </trkpt>
      <trkpt lat="44.42581" lon="5.19672">
        <ele>490</ele>
        <time>2022-09-29T07:33:12Z</time>
      </trkpt>
      <trkpt lat="44.42582" lon="5.19672">
        <ele>490</ele>
        <time>2022-09-29T07:33:13Z</time>
      </trkpt>
      <trkpt lat="44.42583" lon="5.19673">
        <ele>490</ele>
        <time>2022-09-29T07:33:14Z</time>
      </trkpt>
      <trkpt lat="44.42583" lon="5.19674">
        <ele>490</ele>
        <time>2022-09-29T07:33:15Z</time>
      </trkpt>
      <trkpt lat="44.42584" lon="5.19675">
        <ele>490</ele>
        <time>2022-09-29T07:33:16Z</time>
      </trkpt>
      <trkpt lat="44.42585" lon="5.19675">
        <ele>490</ele>
        <time>2022-09-29T07:33:17Z</time>
      </trkpt>
      <trkpt lat="44.42586" lon="5.19676">
        <ele>490</ele>
        <time>2022-09-29T07:33:18Z</time>
      </trkpt>
      <trkpt lat="44.42587" lon="5.19676">
        <ele>491</ele>
        <time>2022-09-29T07:33:19Z</time>
      </trkpt>
      <trkpt lat="44.42588" lon="5.19677">
        <ele>491</ele>
        <time>2022-09-29T07:33:20Z</time>
      </trkpt>
      <trkpt lat="44.42589" lon="5.19678">
        <ele>491</ele>
        <time>2022-09-29T07:33:21Z</time>
      </trkpt>
      <trkpt lat="44.4259" lon="5.19678">
        <ele>491</ele>
        <time>2022-09-29T07:33:22Z</time>
      </trkpt>
      <trkpt lat="44.42591" lon="5.19679">
        <ele>491</ele>
        <time>2022-09-29T07:33:23Z</time>
      </trkpt>
      <trkpt lat="44.42592" lon="5.1968">
        <ele>491</ele>
        <time>2022-09-29T07:33:24Z</time>
      </trkpt>
      <trkpt lat="44.42593" lon="5.19681">
        <ele>491</ele>
        <time>2022-09-29T07:33:25Z</time>
      </trkpt>
      <trkpt lat="44.42593" lon="5.19681">
        <ele>491</ele>
        <time>2022-09-29T07:33:26Z</time>
      </trkpt>
      <trkpt lat="44.42594" lon="5.19682">
        <ele>491</ele>
        <time>2022-09-29T07:33:27Z</time>
      </trkpt>
      <trkpt lat="44.42595" lon="5.19683">
        <ele>491</ele>
        <time>2022-09-29T07:33:28Z</time>
      </trkpt>
      <trkpt lat="44.42595" lon="5.19684">
        <ele>491</ele>
        <time>2022-09-29T07:33:29Z</time>
      </trkpt>
      <trkpt lat="44.42596" lon="5.19685">
        <ele>491</ele>
        <time>2022-09-29T07:33:30Z</time>
      </trkpt>
      <trkpt lat="44.42597" lon="5.19686">
        <ele>491</ele>
        <time>2022-09-29T07:33:31Z</time>
      </trkpt>
      <trkpt lat="44.42597" lon="5.19687">
        <ele>491</ele>
        <time>2022-09-29T07:33:32Z</time>
      </trkpt>
      <trkpt lat="44.42598" lon="5.19688">
        <ele>491</ele>
        <time>2022-09-29T07:33:33Z</time>
      </trkpt>
      <trkpt lat="44.42599" lon="5.19689">
        <ele>492</ele>
        <time>2022-09-29T07:33:34Z</time>
      </trkpt>
      <trkpt lat="44.42599" lon="5.1969">
        <ele>492</ele>
        <time>2022-09-29T07:33:35Z</time>
      </trkpt>
      <trkpt lat="44.426" lon="5.19691">
        <ele>492</ele>
        <time>2022-09-29T07:33:36Z</time>
      </trkpt>
      <trkpt lat="44.426" lon="5.19693">
        <ele>492</ele>
        <time>2022-09-29T07:33:37Z</time>
      </trkpt>
      <trkpt lat="44.42601" lon="5.19694">
        <ele>492</ele>
        <time>2022-09-29T07:33:38Z</time>
      </trkpt>
      <trkpt lat="44.42601" lon="5.19695">
        <ele>492</ele>
        <time>2022-09-29T07:33:39Z</time>
      </trkpt>
      <trkpt lat="44.42601" lon="5.19696">
        <ele>492</ele>
        <time>2022-09-29T07:33:40Z</time>
      </trkpt>
      <trkpt lat="44.42602" lon="5.19697">
        <ele>492</ele>
        <time>2022-09-29T07:33:41Z</time>
      </trkpt>
      <trkpt lat="44.42602" lon="5.19698">
        <ele>492</ele>
        <time>2022-09-29T07:33:42Z</time>
      </trkpt>
      <trkpt lat="44.42602" lon="5.19699">
        <ele>492</ele>
        <time>2022-09-29T07:33:43Z</time>
      </trkpt>
      <trkpt lat="44.42603" lon="5.19701">
        <ele>493</ele>
        <time>2022-09-29T07:33:44Z</time>
      </trkpt>
      <trkpt lat="44.42603" lon="5.19702">
        <ele>493</ele>
        <time>2022-09-29T07:33:45Z</time>
      </trkpt>
      <trkpt lat="44.42604" lon="5.19703">
        <ele>493</ele>
        <time>2022-09-29T07:33:46Z</time>
      </trkpt>
      <trkpt lat="44.42604" lon="5.19704">
        <ele>493</ele>
        <time>2022-09-29T07:33:47Z</time>
      </trkpt>
      <trkpt lat="44.42605" lon="5.19705">
        <ele>493</ele>
        <time>2022-09-29T07:33:48Z</time>
      </trkpt>
      <trkpt lat="44.42605" lon="5.19706">
        <ele>493</ele>
        <time>2022-09-29T07:33:49Z</time>
      </trkpt>
      <trkpt lat="44.42605" lon="5.19707">
        <ele>493</ele>
        <time>2022-09-29T07:33:50Z</time>
      </trkpt>
      <trkpt lat="44.42606" lon="5.19708">
        <ele>493</ele>
        <time>2022-09-29T07:33:51Z</time>
      </trkpt>
      <trkpt lat="44.42606" lon="5.19709">
        <ele>493</ele>
        <time>2022-09-29T07:33:52Z</time>
      </trkpt>
      <trkpt lat="44.42607" lon="5.1971">
        <ele>493</ele>
        <time>2022-09-29T07:33:53Z</time>
      </trkpt>
      <trkpt lat="44.42607" lon="5.19712">
        <ele>494</ele>
        <time>2022-09-29T07:33:54Z</time>
      </trkpt>
      <trkpt lat="44.42608" lon="5.19713">
        <ele>494</ele>
        <time>2022-09-29T07:33:55Z</time>
      </trkpt>
      <trkpt lat="44.42608" lon="5.19714">
        <ele>494</ele>
        <time>2022-09-29T07:33:56Z</time>
      </trkpt>
      <trkpt lat="44.42609" lon="5.19715">
        <ele>494</ele>
        <time>2022-09-29T07:33:57Z</time>
      </trkpt>
      <trkpt lat="44.42609" lon="5.19716">
        <ele>494</ele>
        <time>2022-09-29T07:33:58Z</time>
      </trkpt>
      <trkpt lat="44.4261" lon="5.19717">
        <ele>494</ele>
        <time>2022-09-29T07:33:59Z</time>
      </trkpt>
      <trkpt lat="44.42611" lon="5.19718">
        <ele>494</ele>
        <time>2022-09-29T07:34:00Z</time>
      </trkpt>
      <trkpt lat="44.42611" lon="5.19718">
        <ele>494</ele>
        <time>2022-09-29T07:34:01Z</time>
      </trkpt>
      <trkpt lat="44.42612" lon="5.19719">
        <ele>494</ele>
        <time>2022-09-29T07:34:02Z</time>
      </trkpt>
      <trkpt lat="44.42612" lon="5.1972">
        <ele>494</ele>
        <time>2022-09-29T07:34:03Z</time>
      </trkpt>
      <trkpt lat="44.42613" lon="5.1972">
        <ele>495</ele>
        <time>2022-09-29T07:34:04Z</time>
      </trkpt>
      <trkpt lat="44.42613" lon="5.1972">
        <ele>495</ele>
        <time>2022-09-29T07:34:05Z</time>
      </trkpt>
      <trkpt lat="44.42614" lon="5.1972">
        <ele>495</ele>
        <time>2022-09-29T07:34:06Z</time>
      </trkpt>
      <trkpt lat="44.42615" lon="5.19721">
        <ele>495</ele>
        <time>2022-09-29T07:34:07Z</time>
      </trkpt>
      <trkpt lat="44.42615" lon="5.19721">
        <ele>495</ele>
        <time>2022-09-29T07:34:08Z</time>
      </trkpt>
      <trkpt lat="44.42616" lon="5.19721">
        <ele>495</ele>
        <time>2022-09-29T07:34:09Z</time>
      </trkpt>
      <trkpt lat="44.42617" lon="5.19722">
        <ele>495</ele>
        <time>2022-09-29T07:34:10Z</time>
      </trkpt>
      <trkpt lat="44.42617" lon="5.19723">
        <ele>495</ele>
        <time>2022-09-29T07:34:11Z</time>
      </trkpt>
      <trkpt lat="44.42618" lon="5.19724">
        <ele>495</ele>
        <time>2022-09-29T07:34:12Z</time>
      </trkpt>
      <trkpt lat="44.42619" lon="5.19725">
        <ele>495</ele>
        <time>2022-09-29T07:34:13Z</time>
      </trkpt>
      <trkpt lat="44.42619" lon="5.19726">
        <ele>496</ele>
        <time>2022-09-29T07:34:14Z</time>
      </trkpt>
      <trkpt lat="44.4262" lon="5.19727">
        <ele>496</ele>
        <time>2022-09-29T07:34:15Z</time>
      </trkpt>
      <trkpt lat="44.4262" lon="5.19728">
        <ele>496</ele>
        <time>2022-09-29T07:34:16Z</time>
      </trkpt>
      <trkpt lat="44.4262" lon="5.19729">
        <ele>496</ele>
        <time>2022-09-29T07:34:17Z</time>
      </trkpt>
      <trkpt lat="44.42621" lon="5.1973">
        <ele>496</ele>
        <time>2022-09-29T07:34:18Z</time>
      </trkpt>
      <trkpt lat="44.42622" lon="5.19731">
        <ele>496</ele>
        <time>2022-09-29T07:34:19Z</time>
      </trkpt>
      <trkpt lat="44.42622" lon="5.19732">
        <ele>496</ele>
        <time>2022-09-29T07:34:20Z</time>
      </trkpt>
      <trkpt lat="44.42623" lon="5.19733">
        <ele>496</ele>
        <time>2022-09-29T07:34:21Z</time>
      </trkpt>
      <trkpt lat="44.42624" lon="5.19734">
        <ele>496</ele>
        <time>2022-09-29T07:34:22Z</time>
      </trkpt>
      <trkpt lat="44.42624" lon="5.19734">
        <ele>496</ele>
        <time>2022-09-29T07:34:23Z</time>
      </trkpt>
      <trkpt lat="44.42625" lon="5.19735">
        <ele>497</ele>
        <time>2022-09-29T07:34:24Z</time>
      </trkpt>
      <trkpt lat="44.42626" lon="5.19736">
        <ele>497</ele>
        <time>2022-09-29T07:34:25Z</time>
      </trkpt>
      <trkpt lat="44.42627" lon="5.19736">
        <ele>497</ele>
        <time>2022-09-29T07:34:26Z</time>
      </trkpt>
      <trkpt lat="44.42627" lon="5.19737">
        <ele>497</ele>
        <time>2022-09-29T07:34:27Z</time>
      </trkpt>
      <trkpt lat="44.42628" lon="5.19737">
        <ele>497</ele>
        <time>2022-09-29T07:34:28Z</time>
      </trkpt>
      <trkpt lat="44.42629" lon="5.19738">
        <ele>498</ele>
        <time>2022-09-29T07:34:29Z</time>
      </trkpt>
      <trkpt lat="44.4263" lon="5.19739">
        <ele>498</ele>
        <time>2022-09-29T07:34:30Z</time>
      </trkpt>
      <trkpt lat="44.42631" lon="5.19739">
        <ele>498</ele>
        <time>2022-09-29T07:34:31Z</time>
      </trkpt>
      <trkpt lat="44.42632" lon="5.1974">
        <ele>498</ele>
        <time>2022-09-29T07:34:32Z</time>
      </trkpt>
      <trkpt lat="44.42632" lon="5.1974">
        <ele>498</ele>
        <time>2022-09-29T07:34:33Z</time>
      </trkpt>
      <trkpt lat="44.42633" lon="5.1974">
        <ele>498</ele>
        <time>2022-09-29T07:34:34Z</time>
      </trkpt>
      <trkpt lat="44.42634" lon="5.19741">
        <ele>498</ele>
        <time>2022-09-29T07:34:35Z</time>
      </trkpt>
      <trkpt lat="44.42635" lon="5.19741">
        <ele>498</ele>
        <time>2022-09-29T07:34:36Z</time>
      </trkpt>
      <trkpt lat="44.42635" lon="5.19742">
        <ele>498</ele>
        <time>2022-09-29T07:34:37Z</time>
      </trkpt>
      <trkpt lat="44.42636" lon="5.19742">
        <ele>498</ele>
        <time>2022-09-29T07:34:38Z</time>
      </trkpt>
      <trkpt lat="44.42637" lon="5.19743">
        <ele>498</ele>
        <time>2022-09-29T07:34:39Z</time>
      </trkpt>
      <trkpt lat="44.42638" lon="5.19743">
        <ele>498</ele>
        <time>2022-09-29T07:34:40Z</time>
      </trkpt>
      <trkpt lat="44.42639" lon="5.19744">
        <ele>498</ele>
        <time>2022-09-29T07:34:41Z</time>
      </trkpt>
      <trkpt lat="44.4264" lon="5.19744">
        <ele>498</ele>
        <time>2022-09-29T07:34:42Z</time>
      </trkpt>
      <trkpt lat="44.42641" lon="5.19745">
        <ele>498</ele>
        <time>2022-09-29T07:34:43Z</time>
      </trkpt>
      <trkpt lat="44.42642" lon="5.19746">
        <ele>499</ele>
        <time>2022-09-29T07:34:44Z</time>
      </trkpt>
      <trkpt lat="44.42643" lon="5.19747">
        <ele>499</ele>
        <time>2022-09-29T07:34:45Z</time>
      </trkpt>
      <trkpt lat="44.42643" lon="5.19748">
        <ele>499</ele>
        <time>2022-09-29T07:34:46Z</time>
      </trkpt>
      <trkpt lat="44.42644" lon="5.19748">
        <ele>499</ele>
        <time>2022-09-29T07:34:47Z</time>
      </trkpt>
      <trkpt lat="44.42645" lon="5.19749">
        <ele>499</ele>
        <time>2022-09-29T07:34:48Z</time>
      </trkpt>
      <trkpt lat="44.42645" lon="5.1975">
        <ele>499</ele>
        <time>2022-09-29T07:34:49Z</time>
      </trkpt>
      <trkpt lat="44.42646" lon="5.19751">
        <ele>499</ele>
        <time>2022-09-29T07:34:50Z</time>
      </trkpt>
      <trkpt lat="44.42647" lon="5.19752">
        <ele>499</ele>
        <time>2022-09-29T07:34:51Z</time>
      </trkpt>
      <trkpt lat="44.42647" lon="5.19753">
        <ele>499</ele>
        <time>2022-09-29T07:34:52Z</time>
      </trkpt>
      <trkpt lat="44.42648" lon="5.19754">
        <ele>499</ele>
        <time>2022-09-29T07:34:53Z</time>
      </trkpt>
      <trkpt lat="44.42648" lon="5.19755">
        <ele>499</ele>
        <time>2022-09-29T07:34:54Z</time>
      </trkpt>
      <trkpt lat="44.42649" lon="5.19756">
        <ele>499</ele>
        <time>2022-09-29T07:34:55Z</time>
      </trkpt>
      <trkpt lat="44.4265" lon="5.19757">
        <ele>499</ele>
        <time>2022-09-29T07:34:56Z</time>
      </trkpt>
      <trkpt lat="44.4265" lon="5.19758">
        <ele>499</ele>
        <time>2022-09-29T07:34:57Z</time>
      </trkpt>
      <trkpt lat="44.42651" lon="5.19759">
        <ele>499</ele>
        <time>2022-09-29T07:34:58Z</time>
      </trkpt>
      <trkpt lat="44.42652" lon="5.1976">
        <ele>500</ele>
        <time>2022-09-29T07:34:59Z</time>
      </trkpt>
      <trkpt lat="44.42653" lon="5.19761">
        <ele>500</ele>
        <time>2022-09-29T07:35:00Z</time>
      </trkpt>
      <trkpt lat="44.42653" lon="5.19762">
        <ele>500</ele>
        <time>2022-09-29T07:35:01Z</time>
      </trkpt>
      <trkpt lat="44.42654" lon="5.19763">
        <ele>500</ele>
        <time>2022-09-29T07:35:02Z</time>
      </trkpt>
      <trkpt lat="44.42655" lon="5.19764">
        <ele>500</ele>
        <time>2022-09-29T07:35:03Z</time>
      </trkpt>
      <trkpt lat="44.42655" lon="5.19765">
        <ele>500</ele>
        <time>2022-09-29T07:35:04Z</time>
      </trkpt>
      <trkpt lat="44.42656" lon="5.19766">
        <ele>500</ele>
        <time>2022-09-29T07:35:05Z</time>
      </trkpt>
      <trkpt lat="44.42657" lon="5.19767">
        <ele>500</ele>
        <time>2022-09-29T07:35:06Z</time>
      </trkpt>
      <trkpt lat="44.42658" lon="5.19768">
        <ele>500</ele>
        <time>2022-09-29T07:35:07Z</time>
      </trkpt>
      <trkpt lat="44.42658" lon="5.19769">
        <ele>500</ele>
        <time>2022-09-29T07:35:08Z</time>
      </trkpt>
      <trkpt lat="44.42659" lon="5.1977">
        <ele>500</ele>
        <time>2022-09-29T07:35:09Z</time>
      </trkpt>
      <trkpt lat="44.4266" lon="5.19771">
        <ele>500</ele>
        <time>2022-09-29T07:35:10Z</time>
      </trkpt>
      <trkpt lat="44.4266" lon="5.19772">
        <ele>500</ele>
        <time>2022-09-29T07:35:11Z</time>
      </trkpt>
      <trkpt lat="44.42661" lon="5.19773">
        <ele>500</ele>
        <time>2022-09-29T07:35:12Z</time>
      </trkpt>
      <trkpt lat="44.42662" lon="5.19774">
        <ele>500</ele>
        <time>2022-09-29T07:35:13Z</time>
      </trkpt>
      <trkpt lat="44.42662" lon="5.19775">
        <ele>500</ele>
        <time>2022-09-29T07:35:14Z</time>
      </trkpt>
      <trkpt lat="44.42663" lon="5.19776">
        <ele>500</ele>
        <time>2022-09-29T07:35:15Z</time>
      </trkpt>
      <trkpt lat="44.42664" lon="5.19777">
        <ele>500</ele>
        <time>2022-09-29T07:35:16Z</time>
      </trkpt>
      <trkpt lat="44.42664" lon="5.19778">
        <ele>500</ele>
        <time>2022-09-29T07:35:17Z</time>
      </trkpt>
      <trkpt lat="44.42665" lon="5.19779">
        <ele>500</ele>
        <time>2022-09-29T07:35:18Z</time>
      </trkpt>
      <trkpt lat="44.42666" lon="5.1978">
        <ele>501</ele>
        <time>2022-09-29T07:35:19Z</time>
      </trkpt>
      <trkpt lat="44.42666" lon="5.19781">
        <ele>501</ele>
        <time>2022-09-29T07:35:20Z</time>
      </trkpt>
      <trkpt lat="44.42667" lon="5.19782">
        <ele>501</ele>
        <time>2022-09-29T07:35:21Z</time>
      </trkpt>
      <trkpt lat="44.42667" lon="5.19783">
        <ele>501</ele>
        <time>2022-09-29T07:35:22Z</time>
      </trkpt>
      <trkpt lat="44.42668" lon="5.19784">
        <ele>501</ele>
        <time>2022-09-29T07:35:23Z</time>
      </trkpt>
      <trkpt lat="44.42669" lon="5.19785">
        <ele>501</ele>
        <time>2022-09-29T07:35:24Z</time>
      </trkpt>
      <trkpt lat="44.42669" lon="5.19787">
        <ele>501</ele>
        <time>2022-09-29T07:35:25Z</time>
      </trkpt>
      <trkpt lat="44.4267" lon="5.19788">
        <ele>501</ele>
        <time>2022-09-29T07:35:26Z</time>
      </trkpt>
      <trkpt lat="44.42671" lon="5.19789">
        <ele>501</ele>
        <time>2022-09-29T07:35:27Z</time>
      </trkpt>
      <trkpt lat="44.42671" lon="5.19789">
        <ele>501</ele>
        <time>2022-09-29T07:35:28Z</time>
      </trkpt>
      <trkpt lat="44.42672" lon="5.1979">
        <ele>501</ele>
        <time>2022-09-29T07:35:29Z</time>
      </trkpt>
      <trkpt lat="44.42673" lon="5.19791">
        <ele>501</ele>
        <time>2022-09-29T07:35:30Z</time>
      </trkpt>
      <trkpt lat="44.42673" lon="5.19792">
        <ele>501</ele>
        <time>2022-09-29T07:35:31Z</time>
      </trkpt>
      <trkpt lat="44.42674" lon="5.19793">
        <ele>501</ele>
        <time>2022-09-29T07:35:32Z</time>
      </trkpt>
      <trkpt lat="44.42675" lon="5.19795">
        <ele>501</ele>
        <time>2022-09-29T07:35:33Z</time>
      </trkpt>
      <trkpt lat="44.42676" lon="5.19796">
        <ele>501</ele>
        <time>2022-09-29T07:35:34Z</time>
      </trkpt>
      <trkpt lat="44.42677" lon="5.19797">
        <ele>501</ele>
        <time>2022-09-29T07:35:35Z</time>
      </trkpt>
      <trkpt lat="44.42677" lon="5.19799">
        <ele>501</ele>
        <time>2022-09-29T07:35:36Z</time>
      </trkpt>
      <trkpt lat="44.42678" lon="5.198">
        <ele>501</ele>
        <time>2022-09-29T07:35:37Z</time>
      </trkpt>
      <trkpt lat="44.42679" lon="5.19801">
        <ele>501</ele>
        <time>2022-09-29T07:35:38Z</time>
      </trkpt>
      <trkpt lat="44.42679" lon="5.19802">
        <ele>501</ele>
        <time>2022-09-29T07:35:39Z</time>
      </trkpt>
      <trkpt lat="44.4268" lon="5.19803">
        <ele>501</ele>
        <time>2022-09-29T07:35:40Z</time>
      </trkpt>
      <trkpt lat="44.42681" lon="5.19805">
        <ele>501</ele>
        <time>2022-09-29T07:35:41Z</time>
      </trkpt>
      <trkpt lat="44.42681" lon="5.19806">
        <ele>501</ele>
        <time>2022-09-29T07:35:42Z</time>
      </trkpt>
      <trkpt lat="44.42681" lon="5.19808">
        <ele>501</ele>
        <time>2022-09-29T07:35:43Z</time>
      </trkpt>
      <trkpt lat="44.42681" lon="5.19809">
        <ele>501</ele>
        <time>2022-09-29T07:35:44Z</time>
      </trkpt>
      <trkpt lat="44.42681" lon="5.1981">
        <ele>501</ele>
        <time>2022-09-29T07:35:45Z</time>
      </trkpt>
      <trkpt lat="44.42681" lon="5.19812">
        <ele>501</ele>
        <time>2022-09-29T07:35:46Z</time>
      </trkpt>
      <trkpt lat="44.42681" lon="5.19813">
        <ele>501</ele>
        <time>2022-09-29T07:35:47Z</time>
      </trkpt>
      <trkpt lat="44.42681" lon="5.19815">
        <ele>501</ele>
        <time>2022-09-29T07:35:48Z</time>
      </trkpt>
      <trkpt lat="44.4268" lon="5.19816">
        <ele>501</ele>
        <time>2022-09-29T07:35:49Z</time>
      </trkpt>
      <trkpt lat="44.4268" lon="5.19818">
        <ele>501</ele>
        <time>2022-09-29T07:35:50Z</time>
      </trkpt>
      <trkpt lat="44.4268" lon="5.19819">
        <ele>501</ele>
        <time>2022-09-29T07:35:51Z</time>
      </trkpt>
      <trkpt lat="44.4268" lon="5.1982">
        <ele>501</ele>
        <time>2022-09-29T07:35:52Z</time>
      </trkpt>
      <trkpt lat="44.4268" lon="5.19821">
        <ele>501</ele>
        <time>2022-09-29T07:35:53Z</time>
      </trkpt>
      <trkpt lat="44.42679" lon="5.19823">
        <ele>501</ele>
        <time>2022-09-29T07:35:54Z</time>
      </trkpt>
      <trkpt lat="44.42679" lon="5.19824">
        <ele>500</ele>
        <time>2022-09-29T07:35:55Z</time>
      </trkpt>
      <trkpt lat="44.42679" lon="5.19825">
        <ele>500</ele>
        <time>2022-09-29T07:35:56Z</time>
      </trkpt>
      <trkpt lat="44.42679" lon="5.19827">
        <ele>500</ele>
        <time>2022-09-29T07:35:57Z</time>
      </trkpt>
      <trkpt lat="44.42679" lon="5.19828">
        <ele>500</ele>
        <time>2022-09-29T07:35:58Z</time>
      </trkpt>
      <trkpt lat="44.42679" lon="5.19829">
        <ele>500</ele>
        <time>2022-09-29T07:35:59Z</time>
      </trkpt>
      <trkpt lat="44.42679" lon="5.19831">
        <ele>500</ele>
        <time>2022-09-29T07:36:00Z</time>
      </trkpt>
      <trkpt lat="44.42679" lon="5.19832">
        <ele>500</ele>
        <time>2022-09-29T07:36:01Z</time>
      </trkpt>
      <trkpt lat="44.42679" lon="5.19833">
        <ele>500</ele>
        <time>2022-09-29T07:36:02Z</time>
      </trkpt>
      <trkpt lat="44.42678" lon="5.19834">
        <ele>500</ele>
        <time>2022-09-29T07:36:03Z</time>
      </trkpt>
      <trkpt lat="44.42678" lon="5.19835">
        <ele>500</ele>
        <time>2022-09-29T07:36:04Z</time>
      </trkpt>
      <trkpt lat="44.42678" lon="5.19836">
        <ele>500</ele>
        <time>2022-09-29T07:36:05Z</time>
      </trkpt>
      <trkpt lat="44.42678" lon="5.19837">
        <ele>500</ele>
        <time>2022-09-29T07:36:06Z</time>
      </trkpt>
      <trkpt lat="44.42679" lon="5.19838">
        <ele>500</ele>
        <time>2022-09-29T07:36:07Z</time>
      </trkpt>
      <trkpt lat="44.42678" lon="5.19841">
        <ele>500</ele>
        <time>2022-09-29T07:38:34Z</time>
      </trkpt>
      <trkpt lat="44.42677" lon="5.19842">
        <ele>500</ele>
        <time>2022-09-29T07:38:35Z</time>
      </trkpt>
      <trkpt lat="44.42677" lon="5.19843">
        <ele>500</ele>
        <time>2022-09-29T07:38:36Z</time>
      </trkpt>
      <trkpt lat="44.42677" lon="5.19844">
        <ele>500</ele>
        <time>2022-09-29T07:38:37Z</time>
      </trkpt>
      <trkpt lat="44.42677" lon="5.19845">
        <ele>500</ele>
        <time>2022-09-29T07:38:38Z</time>
      </trkpt>
      <trkpt lat="44.42678" lon="5.19846">
        <ele>500</ele>
        <time>2022-09-29T07:38:39Z</time>
      </trkpt>
      <trkpt lat="44.42678" lon="5.19846">
        <ele>500</ele>
        <time>2022-09-29T07:38:40Z</time>
      </trkpt>
      <trkpt lat="44.42679" lon="5.19847">
        <ele>500</ele>
        <time>2022-09-29T07:38:41Z</time>
      </trkpt>
      <trkpt lat="44.42679" lon="5.19848">
        <ele>500</ele>
        <time>2022-09-29T07:38:42Z</time>
      </trkpt>
      <trkpt lat="44.4268" lon="5.19848">
        <ele>500</ele>
        <time>2022-09-29T07:38:43Z</time>
      </trkpt>
      <trkpt lat="44.42681" lon="5.19849">
        <ele>500</ele>
        <time>2022-09-29T07:38:44Z</time>
      </trkpt>
      <trkpt lat="44.42682" lon="5.19849">
        <ele>500</ele>
        <time>2022-09-29T07:38:45Z</time>
      </trkpt>
      <trkpt lat="44.42683" lon="5.1985">
        <ele>500</ele>
        <time>2022-09-29T07:38:46Z</time>
      </trkpt>
      <trkpt lat="44.42683" lon="5.1985">
        <ele>500</ele>
        <time>2022-09-29T07:38:47Z</time>
      </trkpt>
      <trkpt lat="44.42684" lon="5.19851">
        <ele>500</ele>
        <time>2022-09-29T07:38:48Z</time>
      </trkpt>
      <trkpt lat="44.42685" lon="5.19851">
        <ele>500</ele>
        <time>2022-09-29T07:38:49Z</time>
      </trkpt>
      <trkpt lat="44.42686" lon="5.19851">
        <ele>500</ele>
        <time>2022-09-29T07:38:50Z</time>
      </trkpt>
      <trkpt lat="44.42687" lon="5.19851">
        <ele>500</ele>
        <time>2022-09-29T07:38:51Z</time>
      </trkpt>
      <trkpt lat="44.42688" lon="5.19852">
        <ele>500</ele>
        <time>2022-09-29T07:38:52Z</time>
      </trkpt>
      <trkpt lat="44.42689" lon="5.19852">
        <ele>500</ele>
        <time>2022-09-29T07:38:53Z</time>
      </trkpt>
      <trkpt lat="44.4269" lon="5.19852">
        <ele>500</ele>
        <time>2022-09-29T07:38:54Z</time>
      </trkpt>
      <trkpt lat="44.42691" lon="5.19853">
        <ele>500</ele>
        <time>2022-09-29T07:38:55Z</time>
      </trkpt>
      <trkpt lat="44.42692" lon="5.19854">
        <ele>500</ele>
        <time>2022-09-29T07:38:56Z</time>
      </trkpt>
      <trkpt lat="44.42693" lon="5.19854">
        <ele>500</ele>
        <time>2022-09-29T07:38:57Z</time>
      </trkpt>
      <trkpt lat="44.42694" lon="5.19854">
        <ele>500</ele>
        <time>2022-09-29T07:38:58Z</time>
      </trkpt>
      <trkpt lat="44.42695" lon="5.19854">
        <ele>500</ele>
        <time>2022-09-29T07:38:59Z</time>
      </trkpt>
      <trkpt lat="44.42696" lon="5.19855">
        <ele>500</ele>
        <time>2022-09-29T07:39:00Z</time>
      </trkpt>
      <trkpt lat="44.42696" lon="5.19855">
        <ele>500</ele>
        <time>2022-09-29T07:39:01Z</time>
      </trkpt>
      <trkpt lat="44.42697" lon="5.19855">
        <ele>500</ele>
        <time>2022-09-29T07:39:02Z</time>
      </trkpt>
      <trkpt lat="44.42698" lon="5.19855">
        <ele>500</ele>
        <time>2022-09-29T07:39:03Z</time>
      </trkpt>
      <trkpt lat="44.42699" lon="5.19855">
        <ele>500</ele>
        <time>2022-09-29T07:39:04Z</time>
      </trkpt>
      <trkpt lat="44.427" lon="5.19855">
        <ele>500</ele>
        <time>2022-09-29T07:39:05Z</time>
      </trkpt>
      <trkpt lat="44.427" lon="5.19855">
        <ele>500</ele>
        <time>2022-09-29T07:39:06Z</time>
      </trkpt>
      <trkpt lat="44.42701" lon="5.19855">
        <ele>500</ele>
        <time>2022-09-29T07:39:07Z</time>
      </trkpt>
      <trkpt lat="44.42702" lon="5.19855">
        <ele>500</ele>
        <time>2022-09-29T07:39:08Z</time>
      </trkpt>
      <trkpt lat="44.42703" lon="5.19855">
        <ele>500</ele>
        <time>2022-09-29T07:39:09Z</time>
      </trkpt>
      <trkpt lat="44.42703" lon="5.19855">
        <ele>500</ele>
        <time>2022-09-29T07:39:10Z</time>
      </trkpt>
      <trkpt lat="44.42704" lon="5.19855">
        <ele>500</ele>
        <time>2022-09-29T07:39:11Z</time>
      </trkpt>
      <trkpt lat="44.42705" lon="5.19855">
        <ele>500</ele>
        <time>2022-09-29T07:39:12Z</time>
      </trkpt>
      <trkpt lat="44.42706" lon="5.19855">
        <ele>500</ele>
        <time>2022-09-29T07:39:13Z</time>
      </trkpt>
      <trkpt lat="44.42707" lon="5.19855">
        <ele>500</ele>
        <time>2022-09-29T07:39:14Z</time>
      </trkpt>
      <trkpt lat="44.42707" lon="5.19855">
        <ele>500</ele>
        <time>2022-09-29T07:39:15Z</time>
      </trkpt>
      <trkpt lat="44.42708" lon="5.19855">
        <ele>500</ele>
        <time>2022-09-29T07:39:16Z</time>
      </trkpt>
      <trkpt lat="44.42709" lon="5.19855">
        <ele>500</ele>
        <time>2022-09-29T07:39:17Z</time>
      </trkpt>
      <trkpt lat="44.4271" lon="5.19856">
        <ele>500</ele>
        <time>2022-09-29T07:39:18Z</time>
      </trkpt>
      <trkpt lat="44.4271" lon="5.19856">
        <ele>500</ele>
        <time>2022-09-29T07:39:19Z</time>
      </trkpt>
      <trkpt lat="44.42711" lon="5.19857">
        <ele>500</ele>
        <time>2022-09-29T07:39:20Z</time>
      </trkpt>
      <trkpt lat="44.42712" lon="5.19857">
        <ele>500</ele>
        <time>2022-09-29T07:39:21Z</time>
      </trkpt>
      <trkpt lat="44.42713" lon="5.19858">
        <ele>500</ele>
        <time>2022-09-29T07:39:22Z</time>
      </trkpt>
      <trkpt lat="44.42713" lon="5.19859">
        <ele>500</ele>
        <time>2022-09-29T07:39:23Z</time>
      </trkpt>
      <trkpt lat="44.42714" lon="5.19859">
        <ele>501</ele>
        <time>2022-09-29T07:39:24Z</time>
      </trkpt>
      <trkpt lat="44.42715" lon="5.1986">
        <ele>501</ele>
        <time>2022-09-29T07:39:25Z</time>
      </trkpt>
      <trkpt lat="44.42715" lon="5.19861">
        <ele>501</ele>
        <time>2022-09-29T07:39:26Z</time>
      </trkpt>
      <trkpt lat="44.42716" lon="5.19862">
        <ele>501</ele>
        <time>2022-09-29T07:39:27Z</time>
      </trkpt>
      <trkpt lat="44.42717" lon="5.19863">
        <ele>501</ele>
        <time>2022-09-29T07:39:28Z</time>
      </trkpt>
      <trkpt lat="44.42717" lon="5.19864">
        <ele>501</ele>
        <time>2022-09-29T07:39:29Z</time>
      </trkpt>
      <trkpt lat="44.42718" lon="5.19865">
        <ele>502</ele>
        <time>2022-09-29T07:39:57Z</time>
      </trkpt>
      <trkpt lat="44.42719" lon="5.19866">
        <ele>502</ele>
        <time>2022-09-29T07:39:58Z</time>
      </trkpt>
      <trkpt lat="44.42719" lon="5.19867">
        <ele>502</ele>
        <time>2022-09-29T07:39:59Z</time>
      </trkpt>
      <trkpt lat="44.4272" lon="5.19868">
        <ele>502</ele>
        <time>2022-09-29T07:40:00Z</time>
      </trkpt>
      <trkpt lat="44.4272" lon="5.19869">
        <ele>502</ele>
        <time>2022-09-29T07:40:01Z</time>
      </trkpt>
      <trkpt lat="44.4272" lon="5.1987">
        <ele>502</ele>
        <time>2022-09-29T07:40:02Z</time>
      </trkpt>
      <trkpt lat="44.42721" lon="5.19871">
        <ele>502</ele>
        <time>2022-09-29T07:40:03Z</time>
      </trkpt>
      <trkpt lat="44.42721" lon="5.19872">
        <ele>502</ele>
        <time>2022-09-29T07:40:04Z</time>
      </trkpt>
      <trkpt lat="44.42721" lon="5.19874">
        <ele>502</ele>
        <time>2022-09-29T07:40:05Z</time>
      </trkpt>
      <trkpt lat="44.42721" lon="5.19875">
        <ele>502</ele>
        <time>2022-09-29T07:40:06Z</time>
      </trkpt>
      <trkpt lat="44.42721" lon="5.19877">
        <ele>502</ele>
        <time>2022-09-29T07:40:07Z</time>
      </trkpt>
      <trkpt lat="44.42721" lon="5.19878">
        <ele>502</ele>
        <time>2022-09-29T07:40:08Z</time>
      </trkpt>
      <trkpt lat="44.42721" lon="5.1988">
        <ele>502</ele>
        <time>2022-09-29T07:40:09Z</time>
      </trkpt>
      <trkpt lat="44.42721" lon="5.19881">
        <ele>502</ele>
        <time>2022-09-29T07:40:10Z</time>
      </trkpt>
      <trkpt lat="44.42721" lon="5.19883">
        <ele>502</ele>
        <time>2022-09-29T07:40:11Z</time>
      </trkpt>
      <trkpt lat="44.42721" lon="5.19884">
        <ele>502</ele>
        <time>2022-09-29T07:40:12Z</time>
      </trkpt>
      <trkpt lat="44.42721" lon="5.19886">
        <ele>502</ele>
        <time>2022-09-29T07:40:13Z</time>
      </trkpt>
      <trkpt lat="44.42721" lon="5.19887">
        <ele>502</ele>
        <time>2022-09-29T07:40:14Z</time>
      </trkpt>
      <trkpt lat="44.42722" lon="5.19888">
        <ele>502</ele>
        <time>2022-09-29T07:40:15Z</time>
      </trkpt>
      <trkpt lat="44.42722" lon="5.1989">
        <ele>502</ele>
        <time>2022-09-29T07:40:16Z</time>
      </trkpt>
      <trkpt lat="44.42722" lon="5.19891">
        <ele>502</ele>
        <time>2022-09-29T07:40:17Z</time>
      </trkpt>
      <trkpt lat="44.42723" lon="5.19892">
        <ele>502</ele>
        <time>2022-09-29T07:40:18Z</time>
      </trkpt>
      <trkpt lat="44.42723" lon="5.19893">
        <ele>502</ele>
        <time>2022-09-29T07:40:19Z</time>
      </trkpt>
      <trkpt lat="44.42723" lon="5.19894">
        <ele>502</ele>
        <time>2022-09-29T07:40:20Z</time>
      </trkpt>
      <trkpt lat="44.42724" lon="5.19895">
        <ele>502</ele>
        <time>2022-09-29T07:40:21Z</time>
      </trkpt>
      <trkpt lat="44.42724" lon="5.19896">
        <ele>502</ele>
        <time>2022-09-29T07:40:22Z</time>
      </trkpt>
      <trkpt lat="44.42725" lon="5.19897">
        <ele>502</ele>
        <time>2022-09-29T07:40:23Z</time>
      </trkpt>
      <trkpt lat="44.42725" lon="5.19899">
        <ele>503</ele>
        <time>2022-09-29T07:40:24Z</time>
      </trkpt>
      <trkpt lat="44.42726" lon="5.199">
        <ele>503</ele>
        <time>2022-09-29T07:40:25Z</time>
      </trkpt>
      <trkpt lat="44.42726" lon="5.19901">
        <ele>503</ele>
        <time>2022-09-29T07:40:26Z</time>
      </trkpt>
      <trkpt lat="44.42727" lon="5.19903">
        <ele>503</ele>
        <time>2022-09-29T07:40:27Z</time>
      </trkpt>
      <trkpt lat="44.42727" lon="5.19904">
        <ele>503</ele>
        <time>2022-09-29T07:40:28Z</time>
      </trkpt>
      <trkpt lat="44.42728" lon="5.19906">
        <ele>503</ele>
        <time>2022-09-29T07:40:29Z</time>
      </trkpt>
      <trkpt lat="44.42728" lon="5.19907">
        <ele>503</ele>
        <time>2022-09-29T07:40:30Z</time>
      </trkpt>
      <trkpt lat="44.42729" lon="5.19908">
        <ele>503</ele>
        <time>2022-09-29T07:40:31Z</time>
      </trkpt>
      <trkpt lat="44.42729" lon="5.1991">
        <ele>503</ele>
        <time>2022-09-29T07:40:32Z</time>
      </trkpt>
      <trkpt lat="44.4273" lon="5.19911">
        <ele>503</ele>
        <time>2022-09-29T07:40:33Z</time>
      </trkpt>
      <trkpt lat="44.4273" lon="5.19912">
        <ele>503</ele>
        <time>2022-09-29T07:40:34Z</time>
      </trkpt>
      <trkpt lat="44.42731" lon="5.19913">
        <ele>503</ele>
        <time>2022-09-29T07:40:35Z</time>
      </trkpt>
      <trkpt lat="44.42731" lon="5.19915">
        <ele>503</ele>
        <time>2022-09-29T07:40:36Z</time>
      </trkpt>
      <trkpt lat="44.42732" lon="5.19916">
        <ele>503</ele>
        <time>2022-09-29T07:40:37Z</time>
      </trkpt>
      <trkpt lat="44.42733" lon="5.19917">
        <ele>503</ele>
        <time>2022-09-29T07:40:38Z</time>
      </trkpt>
      <trkpt lat="44.42733" lon="5.19918">
        <ele>503</ele>
        <time>2022-09-29T07:40:39Z</time>
      </trkpt>
      <trkpt lat="44.42734" lon="5.19919">
        <ele>503</ele>
        <time>2022-09-29T07:40:40Z</time>
      </trkpt>
      <trkpt lat="44.42734" lon="5.1992">
        <ele>503</ele>
        <time>2022-09-29T07:40:41Z</time>
      </trkpt>
      <trkpt lat="44.42735" lon="5.19921">
        <ele>503</ele>
        <time>2022-09-29T07:40:42Z</time>
      </trkpt>
      <trkpt lat="44.42736" lon="5.19922">
        <ele>503</ele>
        <time>2022-09-29T07:40:43Z</time>
      </trkpt>
      <trkpt lat="44.42736" lon="5.19923">
        <ele>504</ele>
        <time>2022-09-29T07:40:44Z</time>
      </trkpt>
      <trkpt lat="44.42737" lon="5.19923">
        <ele>504</ele>
        <time>2022-09-29T07:40:45Z</time>
      </trkpt>
      <trkpt lat="44.42738" lon="5.19924">
        <ele>504</ele>
        <time>2022-09-29T07:40:46Z</time>
      </trkpt>
      <trkpt lat="44.42738" lon="5.19925">
        <ele>504</ele>
        <time>2022-09-29T07:40:47Z</time>
      </trkpt>
      <trkpt lat="44.42739" lon="5.19926">
        <ele>504</ele>
        <time>2022-09-29T07:40:48Z</time>
      </trkpt>
      <trkpt lat="44.42739" lon="5.19927">
        <ele>504</ele>
        <time>2022-09-29T07:40:49Z</time>
      </trkpt>
      <trkpt lat="44.4274" lon="5.19928">
        <ele>504</ele>
        <time>2022-09-29T07:40:50Z</time>
      </trkpt>
      <trkpt lat="44.42741" lon="5.19929">
        <ele>504</ele>
        <time>2022-09-29T07:40:51Z</time>
      </trkpt>
      <trkpt lat="44.42741" lon="5.1993">
        <ele>504</ele>
        <time>2022-09-29T07:40:52Z</time>
      </trkpt>
      <trkpt lat="44.42742" lon="5.19931">
        <ele>504</ele>
        <time>2022-09-29T07:40:53Z</time>
      </trkpt>
      <trkpt lat="44.42742" lon="5.19933">
        <ele>505</ele>
        <time>2022-09-29T07:40:54Z</time>
      </trkpt>
      <trkpt lat="44.42742" lon="5.19934">
        <ele>505</ele>
        <time>2022-09-29T07:40:55Z</time>
      </trkpt>
      <trkpt lat="44.42742" lon="5.19935">
        <ele>505</ele>
        <time>2022-09-29T07:40:56Z</time>
      </trkpt>
      <trkpt lat="44.42743" lon="5.19936">
        <ele>505</ele>
        <time>2022-09-29T07:40:57Z</time>
      </trkpt>
      <trkpt lat="44.42743" lon="5.19938">
        <ele>505</ele>
        <time>2022-09-29T07:40:58Z</time>
      </trkpt>
      <trkpt lat="44.42743" lon="5.19939">
        <ele>505</ele>
        <time>2022-09-29T07:40:59Z</time>
      </trkpt>
      <trkpt lat="44.42743" lon="5.1994">
        <ele>505</ele>
        <time>2022-09-29T07:41:00Z</time>
      </trkpt>
      <trkpt lat="44.42743" lon="5.19942">
        <ele>505</ele>
        <time>2022-09-29T07:41:01Z</time>
      </trkpt>
      <trkpt lat="44.42743" lon="5.19943">
        <ele>505</ele>
        <time>2022-09-29T07:41:02Z</time>
      </trkpt>
      <trkpt lat="44.42743" lon="5.19944">
        <ele>505</ele>
        <time>2022-09-29T07:41:03Z</time>
      </trkpt>
      <trkpt lat="44.42743" lon="5.19946">
        <ele>506</ele>
        <time>2022-09-29T07:41:04Z</time>
      </trkpt>
      <trkpt lat="44.42743" lon="5.19947">
        <ele>506</ele>
        <time>2022-09-29T07:41:05Z</time>
      </trkpt>
      <trkpt lat="44.42743" lon="5.19948">
        <ele>506</ele>
        <time>2022-09-29T07:41:06Z</time>
      </trkpt>
      <trkpt lat="44.42743" lon="5.19949">
        <ele>506</ele>
        <time>2022-09-29T07:41:07Z</time>
      </trkpt>
      <trkpt lat="44.42742" lon="5.1995">
        <ele>506</ele>
        <time>2022-09-29T07:41:08Z</time>
      </trkpt>
      <trkpt lat="44.42742" lon="5.19951">
        <ele>507</ele>
        <time>2022-09-29T07:41:09Z</time>
      </trkpt>
      <trkpt lat="44.42742" lon="5.19952">
        <ele>507</ele>
        <time>2022-09-29T07:41:10Z</time>
      </trkpt>
      <trkpt lat="44.42742" lon="5.19953">
        <ele>507</ele>
        <time>2022-09-29T07:41:11Z</time>
      </trkpt>
      <trkpt lat="44.42742" lon="5.19954">
        <ele>507</ele>
        <time>2022-09-29T07:41:12Z</time>
      </trkpt>
      <trkpt lat="44.42742" lon="5.19955">
        <ele>507</ele>
        <time>2022-09-29T07:41:13Z</time>
      </trkpt>
      <trkpt lat="44.42742" lon="5.19956">
        <ele>507</ele>
        <time>2022-09-29T07:41:14Z</time>
      </trkpt>
      <trkpt lat="44.42742" lon="5.19958">
        <ele>507</ele>
        <time>2022-09-29T07:41:15Z</time>
      </trkpt>
      <trkpt lat="44.42742" lon="5.19959">
        <ele>507</ele>
        <time>2022-09-29T07:41:16Z</time>
      </trkpt>
      <trkpt lat="44.42742" lon="5.1996">
        <ele>507</ele>
        <time>2022-09-29T07:41:17Z</time>
      </trkpt>
      <trkpt lat="44.42742" lon="5.19962">
        <ele>507</ele>
        <time>2022-09-29T07:41:18Z</time>
      </trkpt>
      <trkpt lat="44.42742" lon="5.19963">
        <ele>508</ele>
        <time>2022-09-29T07:41:19Z</time>
      </trkpt>
      <trkpt lat="44.42742" lon="5.19964">
        <ele>508</ele>
        <time>2022-09-29T07:41:20Z</time>
      </trkpt>
      <trkpt lat="44.42742" lon="5.19966">
        <ele>508</ele>
        <time>2022-09-29T07:41:21Z</time>
      </trkpt>
      <trkpt lat="44.42742" lon="5.19967">
        <ele>508</ele>
        <time>2022-09-29T07:41:22Z</time>
      </trkpt>
      <trkpt lat="44.42742" lon="5.19968">
        <ele>508</ele>
        <time>2022-09-29T07:41:23Z</time>
      </trkpt>
      <trkpt lat="44.42742" lon="5.19969">
        <ele>508</ele>
        <time>2022-09-29T07:41:24Z</time>
      </trkpt>
      <trkpt lat="44.42742" lon="5.1997">
        <ele>508</ele>
        <time>2022-09-29T07:41:25Z</time>
      </trkpt>
      <trkpt lat="44.42742" lon="5.19972">
        <ele>508</ele>
        <time>2022-09-29T07:41:26Z</time>
      </trkpt>
      <trkpt lat="44.42742" lon="5.19973">
        <ele>508</ele>
        <time>2022-09-29T07:41:27Z</time>
      </trkpt>
      <trkpt lat="44.42742" lon="5.19974">
        <ele>508</ele>
        <time>2022-09-29T07:41:28Z</time>
      </trkpt>
      <trkpt lat="44.42742" lon="5.19975">
        <ele>509</ele>
        <time>2022-09-29T07:41:29Z</time>
      </trkpt>
      <trkpt lat="44.42743" lon="5.19976">
        <ele>509</ele>
        <time>2022-09-29T07:41:30Z</time>
      </trkpt>
      <trkpt lat="44.42743" lon="5.19978">
        <ele>509</ele>
        <time>2022-09-29T07:41:31Z</time>
      </trkpt>
      <trkpt lat="44.42743" lon="5.19979">
        <ele>509</ele>
        <time>2022-09-29T07:41:32Z</time>
      </trkpt>
      <trkpt lat="44.42743" lon="5.1998">
        <ele>509</ele>
        <time>2022-09-29T07:41:33Z</time>
      </trkpt>
      <trkpt lat="44.42743" lon="5.19981">
        <ele>509</ele>
        <time>2022-09-29T07:41:34Z</time>
      </trkpt>
      <trkpt lat="44.42744" lon="5.19982">
        <ele>509</ele>
        <time>2022-09-29T07:41:35Z</time>
      </trkpt>
      <trkpt lat="44.42744" lon="5.19983">
        <ele>509</ele>
        <time>2022-09-29T07:41:36Z</time>
      </trkpt>
      <trkpt lat="44.42744" lon="5.19984">
        <ele>509</ele>
        <time>2022-09-29T07:41:37Z</time>
      </trkpt>
      <trkpt lat="44.42744" lon="5.19985">
        <ele>509</ele>
        <time>2022-09-29T07:41:38Z</time>
      </trkpt>
      <trkpt lat="44.42744" lon="5.19987">
        <ele>510</ele>
        <time>2022-09-29T07:41:39Z</time>
      </trkpt>
      <trkpt lat="44.42744" lon="5.19988">
        <ele>510</ele>
        <time>2022-09-29T07:41:40Z</time>
      </trkpt>
      <trkpt lat="44.42744" lon="5.19989">
        <ele>510</ele>
        <time>2022-09-29T07:41:41Z</time>
      </trkpt>
      <trkpt lat="44.42743" lon="5.1999">
        <ele>510</ele>
        <time>2022-09-29T07:41:42Z</time>
      </trkpt>
      <trkpt lat="44.42743" lon="5.19991">
        <ele>510</ele>
        <time>2022-09-29T07:41:43Z</time>
      </trkpt>
      <trkpt lat="44.42743" lon="5.19992">
        <ele>511</ele>
        <time>2022-09-29T07:41:44Z</time>
      </trkpt>
      <trkpt lat="44.42742" lon="5.19992">
        <ele>511</ele>
        <time>2022-09-29T07:41:45Z</time>
      </trkpt>
      <trkpt lat="44.42741" lon="5.19992">
        <ele>511</ele>
        <time>2022-09-29T07:41:46Z</time>
      </trkpt>
      <trkpt lat="44.42741" lon="5.19992">
        <ele>511</ele>
        <time>2022-09-29T07:41:47Z</time>
      </trkpt>
      <trkpt lat="44.4274" lon="5.19992">
        <ele>511</ele>
        <time>2022-09-29T07:41:48Z</time>
      </trkpt>
      <trkpt lat="44.42739" lon="5.19991">
        <ele>511</ele>
        <time>2022-09-29T07:41:49Z</time>
      </trkpt>
      <trkpt lat="44.42738" lon="5.1999">
        <ele>511</ele>
        <time>2022-09-29T07:41:50Z</time>
      </trkpt>
      <trkpt lat="44.42738" lon="5.19989">
        <ele>511</ele>
        <time>2022-09-29T07:41:51Z</time>
      </trkpt>
      <trkpt lat="44.42737" lon="5.19988">
        <ele>511</ele>
        <time>2022-09-29T07:41:52Z</time>
      </trkpt>
      <trkpt lat="44.42737" lon="5.19986">
        <ele>511</ele>
        <time>2022-09-29T07:41:53Z</time>
      </trkpt>
      <trkpt lat="44.42736" lon="5.19985">
        <ele>512</ele>
        <time>2022-09-29T07:41:54Z</time>
      </trkpt>
      <trkpt lat="44.42735" lon="5.19984">
        <ele>512</ele>
        <time>2022-09-29T07:41:55Z</time>
      </trkpt>
      <trkpt lat="44.42735" lon="5.19983">
        <ele>512</ele>
        <time>2022-09-29T07:41:56Z</time>
      </trkpt>
      <trkpt lat="44.42734" lon="5.19982">
        <ele>512</ele>
        <time>2022-09-29T07:41:57Z</time>
      </trkpt>
      <trkpt lat="44.42734" lon="5.19981">
        <ele>512</ele>
        <time>2022-09-29T07:41:58Z</time>
      </trkpt>
      <trkpt lat="44.42733" lon="5.1998">
        <ele>513</ele>
        <time>2022-09-29T07:41:59Z</time>
      </trkpt>
      <trkpt lat="44.42733" lon="5.19979">
        <ele>513</ele>
        <time>2022-09-29T07:42:00Z</time>
      </trkpt>
      <trkpt lat="44.42732" lon="5.19978">
        <ele>513</ele>
        <time>2022-09-29T07:42:01Z</time>
      </trkpt>
      <trkpt lat="44.42731" lon="5.19977">
        <ele>513</ele>
        <time>2022-09-29T07:42:02Z</time>
      </trkpt>
      <trkpt lat="44.42731" lon="5.19976">
        <ele>513</ele>
        <time>2022-09-29T07:42:03Z</time>
      </trkpt>
      <trkpt lat="44.4273" lon="5.19975">
        <ele>514</ele>
        <time>2022-09-29T07:42:04Z</time>
      </trkpt>
      <trkpt lat="44.42729" lon="5.19974">
        <ele>514</ele>
        <time>2022-09-29T07:42:05Z</time>
      </trkpt>
      <trkpt lat="44.42729" lon="5.19973">
        <ele>514</ele>
        <time>2022-09-29T07:42:06Z</time>
      </trkpt>
      <trkpt lat="44.42728" lon="5.19972">
        <ele>514</ele>
        <time>2022-09-29T07:42:07Z</time>
      </trkpt>
      <trkpt lat="44.42728" lon="5.19972">
        <ele>514</ele>
        <time>2022-09-29T07:42:08Z</time>
      </trkpt>
      <trkpt lat="44.42727" lon="5.19971">
        <ele>514</ele>
        <time>2022-09-29T07:42:09Z</time>
      </trkpt>
      <trkpt lat="44.42726" lon="5.1997">
        <ele>514</ele>
        <time>2022-09-29T07:42:10Z</time>
      </trkpt>
      <trkpt lat="44.42726" lon="5.19969">
        <ele>514</ele>
        <time>2022-09-29T07:42:11Z</time>
      </trkpt>
      <trkpt lat="44.42725" lon="5.19969">
        <ele>514</ele>
        <time>2022-09-29T07:42:12Z</time>
      </trkpt>
      <trkpt lat="44.42725" lon="5.19968">
        <ele>514</ele>
        <time>2022-09-29T07:42:13Z</time>
      </trkpt>
      <trkpt lat="44.42724" lon="5.19967">
        <ele>515</ele>
        <time>2022-09-29T07:42:14Z</time>
      </trkpt>
      <trkpt lat="44.42724" lon="5.19966">
        <ele>515</ele>
        <time>2022-09-29T07:42:15Z</time>
      </trkpt>
      <trkpt lat="44.42723" lon="5.19966">
        <ele>515</ele>
        <time>2022-09-29T07:42:16Z</time>
      </trkpt>
      <trkpt lat="44.42722" lon="5.19965">
        <ele>515</ele>
        <time>2022-09-29T07:42:17Z</time>
      </trkpt>
      <trkpt lat="44.42722" lon="5.19965">
        <ele>515</ele>
        <time>2022-09-29T07:42:18Z</time>
      </trkpt>
      <trkpt lat="44.42721" lon="5.19964">
        <ele>515</ele>
        <time>2022-09-29T07:42:19Z</time>
      </trkpt>
      <trkpt lat="44.4272" lon="5.19963">
        <ele>515</ele>
        <time>2022-09-29T07:42:20Z</time>
      </trkpt>
      <trkpt lat="44.4272" lon="5.19963">
        <ele>515</ele>
        <time>2022-09-29T07:42:21Z</time>
      </trkpt>
      <trkpt lat="44.42719" lon="5.19963">
        <ele>515</ele>
        <time>2022-09-29T07:42:22Z</time>
      </trkpt>
      <trkpt lat="44.42718" lon="5.19962">
        <ele>515</ele>
        <time>2022-09-29T07:42:23Z</time>
      </trkpt>
      <trkpt lat="44.42718" lon="5.19961">
        <ele>516</ele>
        <time>2022-09-29T07:42:24Z</time>
      </trkpt>
      <trkpt lat="44.42717" lon="5.19961">
        <ele>516</ele>
        <time>2022-09-29T07:42:25Z</time>
      </trkpt>
      <trkpt lat="44.42716" lon="5.1996">
        <ele>516</ele>
        <time>2022-09-29T07:42:26Z</time>
      </trkpt>
      <trkpt lat="44.42716" lon="5.1996">
        <ele>516</ele>
        <time>2022-09-29T07:42:27Z</time>
      </trkpt>
      <trkpt lat="44.42715" lon="5.19959">
        <ele>516</ele>
        <time>2022-09-29T07:42:28Z</time>
      </trkpt>
      <trkpt lat="44.42714" lon="5.19959">
        <ele>517</ele>
        <time>2022-09-29T07:42:29Z</time>
      </trkpt>
      <trkpt lat="44.42714" lon="5.19958">
        <ele>517</ele>
        <time>2022-09-29T07:42:30Z</time>
      </trkpt>
      <trkpt lat="44.42713" lon="5.19957">
        <ele>517</ele>
        <time>2022-09-29T07:42:31Z</time>
      </trkpt>
      <trkpt lat="44.42712" lon="5.19957">
        <ele>517</ele>
        <time>2022-09-29T07:42:32Z</time>
      </trkpt>
      <trkpt lat="44.42711" lon="5.19956">
        <ele>517</ele>
        <time>2022-09-29T07:42:33Z</time>
      </trkpt>
      <trkpt lat="44.4271" lon="5.19956">
        <ele>517</ele>
        <time>2022-09-29T07:42:34Z</time>
      </trkpt>
      <trkpt lat="44.42709" lon="5.19955">
        <ele>517</ele>
        <time>2022-09-29T07:42:35Z</time>
      </trkpt>
      <trkpt lat="44.42709" lon="5.19955">
        <ele>517</ele>
        <time>2022-09-29T07:42:36Z</time>
      </trkpt>
      <trkpt lat="44.42708" lon="5.19954">
        <ele>517</ele>
        <time>2022-09-29T07:42:37Z</time>
      </trkpt>
      <trkpt lat="44.42707" lon="5.19954">
        <ele>517</ele>
        <time>2022-09-29T07:42:38Z</time>
      </trkpt>
      <trkpt lat="44.42706" lon="5.19953">
        <ele>518</ele>
        <time>2022-09-29T07:42:39Z</time>
      </trkpt>
      <trkpt lat="44.42705" lon="5.19953">
        <ele>518</ele>
        <time>2022-09-29T07:42:40Z</time>
      </trkpt>
      <trkpt lat="44.42704" lon="5.19952">
        <ele>518</ele>
        <time>2022-09-29T07:42:41Z</time>
      </trkpt>
      <trkpt lat="44.42703" lon="5.19952">
        <ele>518</ele>
        <time>2022-09-29T07:42:42Z</time>
      </trkpt>
      <trkpt lat="44.42703" lon="5.19951">
        <ele>518</ele>
        <time>2022-09-29T07:42:43Z</time>
      </trkpt>
      <trkpt lat="44.42702" lon="5.19951">
        <ele>518</ele>
        <time>2022-09-29T07:42:44Z</time>
      </trkpt>
      <trkpt lat="44.42701" lon="5.1995">
        <ele>518</ele>
        <time>2022-09-29T07:42:45Z</time>
      </trkpt>
      <trkpt lat="44.42701" lon="5.19949">
        <ele>518</ele>
        <time>2022-09-29T07:42:46Z</time>
      </trkpt>
      <trkpt lat="44.427" lon="5.19949">
        <ele>518</ele>
        <time>2022-09-29T07:42:47Z</time>
      </trkpt>
      <trkpt lat="44.42699" lon="5.19948">
        <ele>518</ele>
        <time>2022-09-29T07:42:48Z</time>
      </trkpt>
      <trkpt lat="44.42699" lon="5.19948">
        <ele>519</ele>
        <time>2022-09-29T07:42:49Z</time>
      </trkpt>
      <trkpt lat="44.42698" lon="5.19947">
        <ele>519</ele>
        <time>2022-09-29T07:42:50Z</time>
      </trkpt>
      <trkpt lat="44.42698" lon="5.19947">
        <ele>519</ele>
        <time>2022-09-29T07:42:51Z</time>
      </trkpt>
      <trkpt lat="44.42697" lon="5.19947">
        <ele>519</ele>
        <time>2022-09-29T07:42:52Z</time>
      </trkpt>
      <trkpt lat="44.42696" lon="5.19947">
        <ele>519</ele>
        <time>2022-09-29T07:42:53Z</time>
      </trkpt>
      <trkpt lat="44.42696" lon="5.19946">
        <ele>519</ele>
        <time>2022-09-29T07:42:54Z</time>
      </trkpt>
      <trkpt lat="44.42695" lon="5.19947">
        <ele>519</ele>
        <time>2022-09-29T07:42:55Z</time>
      </trkpt>
      <trkpt lat="44.42694" lon="5.19947">
        <ele>519</ele>
        <time>2022-09-29T07:42:56Z</time>
      </trkpt>
      <trkpt lat="44.42693" lon="5.19948">
        <ele>521</ele>
        <time>2022-09-29T07:43:06Z</time>
      </trkpt>
      <trkpt lat="44.42693" lon="5.1995">
        <ele>521</ele>
        <time>2022-09-29T07:43:07Z</time>
      </trkpt>
      <trkpt lat="44.42692" lon="5.19951">
        <ele>521</ele>
        <time>2022-09-29T07:43:08Z</time>
      </trkpt>
      <trkpt lat="44.42692" lon="5.19952">
        <ele>522</ele>
        <time>2022-09-29T07:43:09Z</time>
      </trkpt>
      <trkpt lat="44.42691" lon="5.19953">
        <ele>522</ele>
        <time>2022-09-29T07:43:10Z</time>
      </trkpt>
      <trkpt lat="44.42691" lon="5.19954">
        <ele>522</ele>
        <time>2022-09-29T07:43:11Z</time>
      </trkpt>
      <trkpt lat="44.42691" lon="5.19955">
        <ele>522</ele>
        <time>2022-09-29T07:43:12Z</time>
      </trkpt>
      <trkpt lat="44.42691" lon="5.19956">
        <ele>522</ele>
        <time>2022-09-29T07:43:13Z</time>
      </trkpt>
      <trkpt lat="44.42691" lon="5.19957">
        <ele>522</ele>
        <time>2022-09-29T07:43:14Z</time>
      </trkpt>
      <trkpt lat="44.42692" lon="5.19958">
        <ele>522</ele>
        <time>2022-09-29T07:43:15Z</time>
      </trkpt>
      <trkpt lat="44.42692" lon="5.19959">
        <ele>522</ele>
        <time>2022-09-29T07:43:16Z</time>
      </trkpt>
      <trkpt lat="44.42692" lon="5.1996">
        <ele>522</ele>
        <time>2022-09-29T07:43:17Z</time>
      </trkpt>
      <trkpt lat="44.42693" lon="5.19961">
        <ele>522</ele>
        <time>2022-09-29T07:43:18Z</time>
      </trkpt>
      <trkpt lat="44.42693" lon="5.19962">
        <ele>523</ele>
        <time>2022-09-29T07:43:19Z</time>
      </trkpt>
      <trkpt lat="44.42693" lon="5.19963">
        <ele>523</ele>
        <time>2022-09-29T07:43:20Z</time>
      </trkpt>
      <trkpt lat="44.42694" lon="5.19964">
        <ele>523</ele>
        <time>2022-09-29T07:43:21Z</time>
      </trkpt>
      <trkpt lat="44.42694" lon="5.19965">
        <ele>523</ele>
        <time>2022-09-29T07:43:22Z</time>
      </trkpt>
      <trkpt lat="44.42695" lon="5.19966">
        <ele>523</ele>
        <time>2022-09-29T07:43:23Z</time>
      </trkpt>
      <trkpt lat="44.42695" lon="5.19967">
        <ele>523</ele>
        <time>2022-09-29T07:43:24Z</time>
      </trkpt>
      <trkpt lat="44.42696" lon="5.19968">
        <ele>523</ele>
        <time>2022-09-29T07:43:25Z</time>
      </trkpt>
      <trkpt lat="44.42696" lon="5.19969">
        <ele>523</ele>
        <time>2022-09-29T07:43:26Z</time>
      </trkpt>
      <trkpt lat="44.42696" lon="5.1997">
        <ele>523</ele>
        <time>2022-09-29T07:43:27Z</time>
      </trkpt>
      <trkpt lat="44.42697" lon="5.19971">
        <ele>523</ele>
        <time>2022-09-29T07:43:28Z</time>
      </trkpt>
      <trkpt lat="44.42697" lon="5.19972">
        <ele>524</ele>
        <time>2022-09-29T07:43:29Z</time>
      </trkpt>
      <trkpt lat="44.42698" lon="5.19973">
        <ele>524</ele>
        <time>2022-09-29T07:43:30Z</time>
      </trkpt>
      <trkpt lat="44.42698" lon="5.19974">
        <ele>524</ele>
        <time>2022-09-29T07:43:31Z</time>
      </trkpt>
      <trkpt lat="44.42699" lon="5.19974">
        <ele>524</ele>
        <time>2022-09-29T07:43:32Z</time>
      </trkpt>
      <trkpt lat="44.42699" lon="5.19975">
        <ele>524</ele>
        <time>2022-09-29T07:43:33Z</time>
      </trkpt>
      <trkpt lat="44.42699" lon="5.19976">
        <ele>524</ele>
        <time>2022-09-29T07:43:34Z</time>
      </trkpt>
      <trkpt lat="44.427" lon="5.19977">
        <ele>524</ele>
        <time>2022-09-29T07:43:35Z</time>
      </trkpt>
      <trkpt lat="44.427" lon="5.19978">
        <ele>524</ele>
        <time>2022-09-29T07:43:36Z</time>
      </trkpt>
      <trkpt lat="44.42701" lon="5.19979">
        <ele>524</ele>
        <time>2022-09-29T07:43:37Z</time>
      </trkpt>
      <trkpt lat="44.42701" lon="5.1998">
        <ele>524</ele>
        <time>2022-09-29T07:43:38Z</time>
      </trkpt>
      <trkpt lat="44.42702" lon="5.19981">
        <ele>525</ele>
        <time>2022-09-29T07:43:39Z</time>
      </trkpt>
      <trkpt lat="44.42702" lon="5.19982">
        <ele>525</ele>
        <time>2022-09-29T07:43:40Z</time>
      </trkpt>
      <trkpt lat="44.42703" lon="5.19983">
        <ele>525</ele>
        <time>2022-09-29T07:43:41Z</time>
      </trkpt>
      <trkpt lat="44.42703" lon="5.19984">
        <ele>525</ele>
        <time>2022-09-29T07:43:42Z</time>
      </trkpt>
      <trkpt lat="44.42703" lon="5.19985">
        <ele>525</ele>
        <time>2022-09-29T07:43:43Z</time>
      </trkpt>
      <trkpt lat="44.42704" lon="5.19986">
        <ele>526</ele>
        <time>2022-09-29T07:43:44Z</time>
      </trkpt>
      <trkpt lat="44.42704" lon="5.19987">
        <ele>526</ele>
        <time>2022-09-29T07:43:45Z</time>
      </trkpt>
      <trkpt lat="44.42705" lon="5.19989">
        <ele>526</ele>
        <time>2022-09-29T07:43:46Z</time>
      </trkpt>
      <trkpt lat="44.42705" lon="5.1999">
        <ele>526</ele>
        <time>2022-09-29T07:43:47Z</time>
      </trkpt>
      <trkpt lat="44.42705" lon="5.19991">
        <ele>526</ele>
        <time>2022-09-29T07:43:48Z</time>
      </trkpt>
      <trkpt lat="44.42706" lon="5.19992">
        <ele>526</ele>
        <time>2022-09-29T07:43:49Z</time>
      </trkpt>
      <trkpt lat="44.42706" lon="5.19993">
        <ele>526</ele>
        <time>2022-09-29T07:43:50Z</time>
      </trkpt>
      <trkpt lat="44.42706" lon="5.19994">
        <ele>526</ele>
        <time>2022-09-29T07:43:51Z</time>
      </trkpt>
      <trkpt lat="44.42707" lon="5.19995">
        <ele>526</ele>
        <time>2022-09-29T07:43:52Z</time>
      </trkpt>
      <trkpt lat="44.42707" lon="5.19996">
        <ele>526</ele>
        <time>2022-09-29T07:43:53Z</time>
      </trkpt>
      <trkpt lat="44.42708" lon="5.19997">
        <ele>527</ele>
        <time>2022-09-29T07:43:54Z</time>
      </trkpt>
      <trkpt lat="44.42708" lon="5.19998">
        <ele>527</ele>
        <time>2022-09-29T07:43:55Z</time>
      </trkpt>
      <trkpt lat="44.42708" lon="5.19999">
        <ele>527</ele>
        <time>2022-09-29T07:43:56Z</time>
      </trkpt>
      <trkpt lat="44.42709" lon="5.20001">
        <ele>527</ele>
        <time>2022-09-29T07:43:57Z</time>
      </trkpt>
      <trkpt lat="44.42709" lon="5.20002">
        <ele>527</ele>
        <time>2022-09-29T07:43:58Z</time>
      </trkpt>
      <trkpt lat="44.42709" lon="5.20003">
        <ele>527</ele>
        <time>2022-09-29T07:43:59Z</time>
      </trkpt>
      <trkpt lat="44.42709" lon="5.20004">
        <ele>527</ele>
        <time>2022-09-29T07:44:00Z</time>
      </trkpt>
      <trkpt lat="44.42709" lon="5.20006">
        <ele>527</ele>
        <time>2022-09-29T07:44:01Z</time>
      </trkpt>
      <trkpt lat="44.42709" lon="5.20007">
        <ele>527</ele>
        <time>2022-09-29T07:44:02Z</time>
      </trkpt>
      <trkpt lat="44.42709" lon="5.20008">
        <ele>527</ele>
        <time>2022-09-29T07:44:03Z</time>
      </trkpt>
      <trkpt lat="44.42709" lon="5.20009">
        <ele>528</ele>
        <time>2022-09-29T07:44:04Z</time>
      </trkpt>
      <trkpt lat="44.42709" lon="5.2001">
        <ele>528</ele>
        <time>2022-09-29T07:44:05Z</time>
      </trkpt>
      <trkpt lat="44.42709" lon="5.20012">
        <ele>528</ele>
        <time>2022-09-29T07:44:06Z</time>
      </trkpt>
      <trkpt lat="44.42709" lon="5.20013">
        <ele>528</ele>
        <time>2022-09-29T07:44:07Z</time>
      </trkpt>
      <trkpt lat="44.42709" lon="5.20014">
        <ele>528</ele>
        <time>2022-09-29T07:44:08Z</time>
      </trkpt>
      <trkpt lat="44.42709" lon="5.20015">
        <ele>529</ele>
        <time>2022-09-29T07:44:09Z</time>
      </trkpt>
      <trkpt lat="44.42709" lon="5.20016">
        <ele>529</ele>
        <time>2022-09-29T07:44:10Z</time>
      </trkpt>
      <trkpt lat="44.42709" lon="5.20018">
        <ele>529</ele>
        <time>2022-09-29T07:44:11Z</time>
      </trkpt>
      <trkpt lat="44.42709" lon="5.20019">
        <ele>529</ele>
        <time>2022-09-29T07:44:12Z</time>
      </trkpt>
      <trkpt lat="44.4271" lon="5.2002">
        <ele>529</ele>
        <time>2022-09-29T07:44:13Z</time>
      </trkpt>
      <trkpt lat="44.4271" lon="5.20021">
        <ele>529</ele>
        <time>2022-09-29T07:44:14Z</time>
      </trkpt>
      <trkpt lat="44.4271" lon="5.20022">
        <ele>529</ele>
        <time>2022-09-29T07:44:15Z</time>
      </trkpt>
      <trkpt lat="44.4271" lon="5.20023">
        <ele>529</ele>
        <time>2022-09-29T07:44:16Z</time>
      </trkpt>
      <trkpt lat="44.4271" lon="5.20024">
        <ele>529</ele>
        <time>2022-09-29T07:44:17Z</time>
      </trkpt>
      <trkpt lat="44.4271" lon="5.20026">
        <ele>529</ele>
        <time>2022-09-29T07:44:18Z</time>
      </trkpt>
      <trkpt lat="44.4271" lon="5.20027">
        <ele>530</ele>
        <time>2022-09-29T07:44:19Z</time>
      </trkpt>
      <trkpt lat="44.42711" lon="5.20028">
        <ele>530</ele>
        <time>2022-09-29T07:44:20Z</time>
      </trkpt>
      <trkpt lat="44.42711" lon="5.20029">
        <ele>530</ele>
        <time>2022-09-29T07:44:21Z</time>
      </trkpt>
      <trkpt lat="44.42711" lon="5.2003">
        <ele>530</ele>
        <time>2022-09-29T07:44:22Z</time>
      </trkpt>
      <trkpt lat="44.42711" lon="5.20031">
        <ele>530</ele>
        <time>2022-09-29T07:44:23Z</time>
      </trkpt>
      <trkpt lat="44.42711" lon="5.20032">
        <ele>530</ele>
        <time>2022-09-29T07:44:24Z</time>
      </trkpt>
      <trkpt lat="44.42711" lon="5.20033">
        <ele>530</ele>
        <time>2022-09-29T07:44:25Z</time>
      </trkpt>
      <trkpt lat="44.42711" lon="5.20035">
        <ele>530</ele>
        <time>2022-09-29T07:44:26Z</time>
      </trkpt>
      <trkpt lat="44.42711" lon="5.20036">
        <ele>530</ele>
        <time>2022-09-29T07:44:27Z</time>
      </trkpt>
      <trkpt lat="44.42711" lon="5.20037">
        <ele>530</ele>
        <time>2022-09-29T07:44:28Z</time>
      </trkpt>
      <trkpt lat="44.42711" lon="5.20038">
        <ele>531</ele>
        <time>2022-09-29T07:44:29Z</time>
      </trkpt>
      <trkpt lat="44.42711" lon="5.2004">
        <ele>531</ele>
        <time>2022-09-29T07:44:30Z</time>
      </trkpt>
      <trkpt lat="44.42711" lon="5.20041">
        <ele>531</ele>
        <time>2022-09-29T07:44:31Z</time>
      </trkpt>
      <trkpt lat="44.42711" lon="5.20042">
        <ele>531</ele>
        <time>2022-09-29T07:44:32Z</time>
      </trkpt>
      <trkpt lat="44.42711" lon="5.20043">
        <ele>531</ele>
        <time>2022-09-29T07:44:33Z</time>
      </trkpt>
      <trkpt lat="44.42711" lon="5.20044">
        <ele>531</ele>
        <time>2022-09-29T07:44:34Z</time>
      </trkpt>
      <trkpt lat="44.42711" lon="5.20045">
        <ele>531</ele>
        <time>2022-09-29T07:44:35Z</time>
      </trkpt>
      <trkpt lat="44.42711" lon="5.20047">
        <ele>531</ele>
        <time>2022-09-29T07:44:36Z</time>
      </trkpt>
      <trkpt lat="44.42711" lon="5.20048">
        <ele>531</ele>
        <time>2022-09-29T07:44:37Z</time>
      </trkpt>
      <trkpt lat="44.42711" lon="5.20049">
        <ele>531</ele>
        <time>2022-09-29T07:44:38Z</time>
      </trkpt>
      <trkpt lat="44.42711" lon="5.2005">
        <ele>532</ele>
        <time>2022-09-29T07:44:39Z</time>
      </trkpt>
      <trkpt lat="44.42711" lon="5.20051">
        <ele>532</ele>
        <time>2022-09-29T07:44:40Z</time>
      </trkpt>
      <trkpt lat="44.42711" lon="5.20052">
        <ele>532</ele>
        <time>2022-09-29T07:44:41Z</time>
      </trkpt>
      <trkpt lat="44.42712" lon="5.20053">
        <ele>532</ele>
        <time>2022-09-29T07:44:42Z</time>
      </trkpt>
      <trkpt lat="44.42712" lon="5.20055">
        <ele>532</ele>
        <time>2022-09-29T07:44:43Z</time>
      </trkpt>
      <trkpt lat="44.42712" lon="5.20056">
        <ele>533</ele>
        <time>2022-09-29T07:44:44Z</time>
      </trkpt>
      <trkpt lat="44.42712" lon="5.20057">
        <ele>533</ele>
        <time>2022-09-29T07:44:45Z</time>
      </trkpt>
      <trkpt lat="44.42712" lon="5.20058">
        <ele>533</ele>
        <time>2022-09-29T07:44:46Z</time>
      </trkpt>
      <trkpt lat="44.42712" lon="5.2006">
        <ele>533</ele>
        <time>2022-09-29T07:44:47Z</time>
      </trkpt>
      <trkpt lat="44.42712" lon="5.20061">
        <ele>533</ele>
        <time>2022-09-29T07:44:48Z</time>
      </trkpt>
      <trkpt lat="44.42712" lon="5.20062">
        <ele>533</ele>
        <time>2022-09-29T07:44:49Z</time>
      </trkpt>
      <trkpt lat="44.42712" lon="5.20063">
        <ele>533</ele>
        <time>2022-09-29T07:44:50Z</time>
      </trkpt>
      <trkpt lat="44.42712" lon="5.20064">
        <ele>533</ele>
        <time>2022-09-29T07:44:51Z</time>
      </trkpt>
      <trkpt lat="44.42712" lon="5.20066">
        <ele>533</ele>
        <time>2022-09-29T07:44:52Z</time>
      </trkpt>
      <trkpt lat="44.42712" lon="5.20067">
        <ele>533</ele>
        <time>2022-09-29T07:44:53Z</time>
      </trkpt>
      <trkpt lat="44.42712" lon="5.20068">
        <ele>534</ele>
        <time>2022-09-29T07:44:54Z</time>
      </trkpt>
      <trkpt lat="44.42712" lon="5.20069">
        <ele>534</ele>
        <time>2022-09-29T07:44:55Z</time>
      </trkpt>
      <trkpt lat="44.42712" lon="5.2007">
        <ele>534</ele>
        <time>2022-09-29T07:44:56Z</time>
      </trkpt>
      <trkpt lat="44.42711" lon="5.20071">
        <ele>534</ele>
        <time>2022-09-29T07:44:57Z</time>
      </trkpt>
      <trkpt lat="44.42711" lon="5.20072">
        <ele>534</ele>
        <time>2022-09-29T07:44:58Z</time>
      </trkpt>
      <trkpt lat="44.42711" lon="5.20073">
        <ele>534</ele>
        <time>2022-09-29T07:44:59Z</time>
      </trkpt>
      <trkpt lat="44.42711" lon="5.20074">
        <ele>534</ele>
        <time>2022-09-29T07:45:00Z</time>
      </trkpt>
      <trkpt lat="44.42711" lon="5.20075">
        <ele>534</ele>
        <time>2022-09-29T07:45:01Z</time>
      </trkpt>
      <trkpt lat="44.4271" lon="5.20076">
        <ele>534</ele>
        <time>2022-09-29T07:45:02Z</time>
      </trkpt>
      <trkpt lat="44.4271" lon="5.20078">
        <ele>534</ele>
        <time>2022-09-29T07:45:03Z</time>
      </trkpt>
      <trkpt lat="44.4271" lon="5.20079">
        <ele>535</ele>
        <time>2022-09-29T07:45:04Z</time>
      </trkpt>
      <trkpt lat="44.42709" lon="5.2008">
        <ele>535</ele>
        <time>2022-09-29T07:45:05Z</time>
      </trkpt>
      <trkpt lat="44.42709" lon="5.20081">
        <ele>535</ele>
        <time>2022-09-29T07:45:06Z</time>
      </trkpt>
      <trkpt lat="44.42709" lon="5.20082">
        <ele>535</ele>
        <time>2022-09-29T07:45:07Z</time>
      </trkpt>
      <trkpt lat="44.42708" lon="5.20083">
        <ele>535</ele>
        <time>2022-09-29T07:45:08Z</time>
      </trkpt>
      <trkpt lat="44.42708" lon="5.20084">
        <ele>536</ele>
        <time>2022-09-29T07:45:09Z</time>
      </trkpt>
      <trkpt lat="44.42707" lon="5.20085">
        <ele>536</ele>
        <time>2022-09-29T07:45:10Z</time>
      </trkpt>
      <trkpt lat="44.42707" lon="5.20087">
        <ele>536</ele>
        <time>2022-09-29T07:45:11Z</time>
      </trkpt>
      <trkpt lat="44.42707" lon="5.20088">
        <ele>536</ele>
        <time>2022-09-29T07:45:12Z</time>
      </trkpt>
      <trkpt lat="44.42706" lon="5.20089">
        <ele>536</ele>
        <time>2022-09-29T07:45:13Z</time>
      </trkpt>
      <trkpt lat="44.42706" lon="5.2009">
        <ele>536</ele>
        <time>2022-09-29T07:45:14Z</time>
      </trkpt>
      <trkpt lat="44.42705" lon="5.20091">
        <ele>536</ele>
        <time>2022-09-29T07:45:15Z</time>
      </trkpt>
      <trkpt lat="44.42705" lon="5.20093">
        <ele>536</ele>
        <time>2022-09-29T07:45:16Z</time>
      </trkpt>
      <trkpt lat="44.42704" lon="5.20094">
        <ele>536</ele>
        <time>2022-09-29T07:45:17Z</time>
      </trkpt>
      <trkpt lat="44.42704" lon="5.20095">
        <ele>536</ele>
        <time>2022-09-29T07:45:18Z</time>
      </trkpt>
      <trkpt lat="44.42703" lon="5.20096">
        <ele>537</ele>
        <time>2022-09-29T07:45:19Z</time>
      </trkpt>
      <trkpt lat="44.42703" lon="5.20097">
        <ele>537</ele>
        <time>2022-09-29T07:45:20Z</time>
      </trkpt>
      <trkpt lat="44.42702" lon="5.20098">
        <ele>537</ele>
        <time>2022-09-29T07:45:21Z</time>
      </trkpt>
      <trkpt lat="44.42702" lon="5.20099">
        <ele>537</ele>
        <time>2022-09-29T07:45:22Z</time>
      </trkpt>
      <trkpt lat="44.42701" lon="5.201">
        <ele>537</ele>
        <time>2022-09-29T07:45:23Z</time>
      </trkpt>
      <trkpt lat="44.42701" lon="5.20101">
        <ele>537</ele>
        <time>2022-09-29T07:45:24Z</time>
      </trkpt>
      <trkpt lat="44.42701" lon="5.20102">
        <ele>537</ele>
        <time>2022-09-29T07:45:25Z</time>
      </trkpt>
      <trkpt lat="44.42699" lon="5.20105">
        <ele>538</ele>
        <time>2022-09-29T07:46:17Z</time>
      </trkpt>
      <trkpt lat="44.42698" lon="5.20107">
        <ele>538</ele>
        <time>2022-09-29T07:46:18Z</time>
      </trkpt>
      <trkpt lat="44.42697" lon="5.20109">
        <ele>538</ele>
        <time>2022-09-29T07:46:19Z</time>
      </trkpt>
      <trkpt lat="44.42697" lon="5.2011">
        <ele>538</ele>
        <time>2022-09-29T07:46:20Z</time>
      </trkpt>
      <trkpt lat="44.42696" lon="5.20111">
        <ele>538</ele>
        <time>2022-09-29T07:46:21Z</time>
      </trkpt>
      <trkpt lat="44.42696" lon="5.20112">
        <ele>538</ele>
        <time>2022-09-29T07:46:22Z</time>
      </trkpt>
      <trkpt lat="44.42696" lon="5.20113">
        <ele>538</ele>
        <time>2022-09-29T07:46:23Z</time>
      </trkpt>
      <trkpt lat="44.42695" lon="5.20114">
        <ele>538</ele>
        <time>2022-09-29T07:46:24Z</time>
      </trkpt>
      <trkpt lat="44.42695" lon="5.20115">
        <ele>538</ele>
        <time>2022-09-29T07:46:25Z</time>
      </trkpt>
      <trkpt lat="44.42694" lon="5.20115">
        <ele>538</ele>
        <time>2022-09-29T07:46:26Z</time>
      </trkpt>
      <trkpt lat="44.42694" lon="5.20116">
        <ele>538</ele>
        <time>2022-09-29T07:46:27Z</time>
      </trkpt>
      <trkpt lat="44.42693" lon="5.20117">
        <ele>538</ele>
        <time>2022-09-29T07:46:28Z</time>
      </trkpt>
      <trkpt lat="44.42693" lon="5.20118">
        <ele>538</ele>
        <time>2022-09-29T07:46:29Z</time>
      </trkpt>
      <trkpt lat="44.42692" lon="5.20119">
        <ele>538</ele>
        <time>2022-09-29T07:46:30Z</time>
      </trkpt>
      <trkpt lat="44.42692" lon="5.2012">
        <ele>538</ele>
        <time>2022-09-29T07:46:31Z</time>
      </trkpt>
      <trkpt lat="44.42691" lon="5.20121">
        <ele>539</ele>
        <time>2022-09-29T07:46:45Z</time>
      </trkpt>
      <trkpt lat="44.42691" lon="5.20122">
        <ele>539</ele>
        <time>2022-09-29T07:46:46Z</time>
      </trkpt>
      <trkpt lat="44.42691" lon="5.20123">
        <ele>539</ele>
        <time>2022-09-29T07:46:47Z</time>
      </trkpt>
      <trkpt lat="44.4269" lon="5.20124">
        <ele>539</ele>
        <time>2022-09-29T07:46:48Z</time>
      </trkpt>
      <trkpt lat="44.4269" lon="5.20125">
        <ele>539</ele>
        <time>2022-09-29T07:46:49Z</time>
      </trkpt>
      <trkpt lat="44.4269" lon="5.20126">
        <ele>539</ele>
        <time>2022-09-29T07:46:50Z</time>
      </trkpt>
      <trkpt lat="44.4269" lon="5.20127">
        <ele>539</ele>
        <time>2022-09-29T07:46:51Z</time>
      </trkpt>
      <trkpt lat="44.42689" lon="5.20129">
        <ele>539</ele>
        <time>2022-09-29T07:46:52Z</time>
      </trkpt>
      <trkpt lat="44.42689" lon="5.2013">
        <ele>539</ele>
        <time>2022-09-29T07:46:53Z</time>
      </trkpt>
      <trkpt lat="44.42689" lon="5.20131">
        <ele>539</ele>
        <time>2022-09-29T07:46:54Z</time>
      </trkpt>
      <trkpt lat="44.42688" lon="5.20133">
        <ele>539</ele>
        <time>2022-09-29T07:46:55Z</time>
      </trkpt>
      <trkpt lat="44.42688" lon="5.20134">
        <ele>539</ele>
        <time>2022-09-29T07:46:56Z</time>
      </trkpt>
      <trkpt lat="44.42688" lon="5.20136">
        <ele>539</ele>
        <time>2022-09-29T07:46:57Z</time>
      </trkpt>
      <trkpt lat="44.42688" lon="5.20137">
        <ele>539</ele>
        <time>2022-09-29T07:46:58Z</time>
      </trkpt>
      <trkpt lat="44.42688" lon="5.20139">
        <ele>539</ele>
        <time>2022-09-29T07:46:59Z</time>
      </trkpt>
      <trkpt lat="44.42688" lon="5.2014">
        <ele>539</ele>
        <time>2022-09-29T07:47:00Z</time>
      </trkpt>
      <trkpt lat="44.42688" lon="5.20142">
        <ele>539</ele>
        <time>2022-09-29T07:47:01Z</time>
      </trkpt>
      <trkpt lat="44.42688" lon="5.20143">
        <ele>539</ele>
        <time>2022-09-29T07:47:02Z</time>
      </trkpt>
      <trkpt lat="44.42688" lon="5.20145">
        <ele>539</ele>
        <time>2022-09-29T07:47:03Z</time>
      </trkpt>
      <trkpt lat="44.42688" lon="5.20146">
        <ele>540</ele>
        <time>2022-09-29T07:47:04Z</time>
      </trkpt>
      <trkpt lat="44.42688" lon="5.20147">
        <ele>540</ele>
        <time>2022-09-29T07:47:05Z</time>
      </trkpt>
      <trkpt lat="44.42688" lon="5.20148">
        <ele>540</ele>
        <time>2022-09-29T07:47:06Z</time>
      </trkpt>
      <trkpt lat="44.42688" lon="5.20149">
        <ele>540</ele>
        <time>2022-09-29T07:47:07Z</time>
      </trkpt>
      <trkpt lat="44.42688" lon="5.2015">
        <ele>540</ele>
        <time>2022-09-29T07:47:08Z</time>
      </trkpt>
      <trkpt lat="44.42688" lon="5.20151">
        <ele>540</ele>
        <time>2022-09-29T07:47:09Z</time>
      </trkpt>
      <trkpt lat="44.42688" lon="5.20152">
        <ele>540</ele>
        <time>2022-09-29T07:47:10Z</time>
      </trkpt>
      <trkpt lat="44.42688" lon="5.20154">
        <ele>540</ele>
        <time>2022-09-29T07:47:11Z</time>
      </trkpt>
      <trkpt lat="44.42688" lon="5.20155">
        <ele>540</ele>
        <time>2022-09-29T07:47:12Z</time>
      </trkpt>
      <trkpt lat="44.42688" lon="5.20156">
        <ele>540</ele>
        <time>2022-09-29T07:47:13Z</time>
      </trkpt>
      <trkpt lat="44.42688" lon="5.20158">
        <ele>540</ele>
        <time>2022-09-29T07:47:14Z</time>
      </trkpt>
      <trkpt lat="44.42688" lon="5.20159">
        <ele>540</ele>
        <time>2022-09-29T07:47:15Z</time>
      </trkpt>
      <trkpt lat="44.42688" lon="5.20161">
        <ele>540</ele>
        <time>2022-09-29T07:47:16Z</time>
      </trkpt>
      <trkpt lat="44.42688" lon="5.20162">
        <ele>540</ele>
        <time>2022-09-29T07:47:17Z</time>
      </trkpt>
      <trkpt lat="44.42688" lon="5.20164">
        <ele>540</ele>
        <time>2022-09-29T07:47:18Z</time>
      </trkpt>
      <trkpt lat="44.42689" lon="5.20165">
        <ele>540</ele>
        <time>2022-09-29T07:47:19Z</time>
      </trkpt>
      <trkpt lat="44.42689" lon="5.20167">
        <ele>540</ele>
        <time>2022-09-29T07:47:20Z</time>
      </trkpt>
      <trkpt lat="44.42689" lon="5.20168">
        <ele>540</ele>
        <time>2022-09-29T07:47:21Z</time>
      </trkpt>
      <trkpt lat="44.42689" lon="5.2017">
        <ele>540</ele>
        <time>2022-09-29T07:47:22Z</time>
      </trkpt>
      <trkpt lat="44.42689" lon="5.20171">
        <ele>540</ele>
        <time>2022-09-29T07:47:23Z</time>
      </trkpt>
      <trkpt lat="44.4269" lon="5.20172">
        <ele>541</ele>
        <time>2022-09-29T07:47:24Z</time>
      </trkpt>
      <trkpt lat="44.4269" lon="5.20174">
        <ele>541</ele>
        <time>2022-09-29T07:47:25Z</time>
      </trkpt>
      <trkpt lat="44.4269" lon="5.20175">
        <ele>541</ele>
        <time>2022-09-29T07:47:26Z</time>
      </trkpt>
      <trkpt lat="44.4269" lon="5.20176">
        <ele>541</ele>
        <time>2022-09-29T07:47:27Z</time>
      </trkpt>
      <trkpt lat="44.4269" lon="5.20177">
        <ele>541</ele>
        <time>2022-09-29T07:47:28Z</time>
      </trkpt>
      <trkpt lat="44.4269" lon="5.20178">
        <ele>541</ele>
        <time>2022-09-29T07:47:29Z</time>
      </trkpt>
      <trkpt lat="44.4269" lon="5.2018">
        <ele>541</ele>
        <time>2022-09-29T07:47:30Z</time>
      </trkpt>
      <trkpt lat="44.4269" lon="5.20181">
        <ele>541</ele>
        <time>2022-09-29T07:47:31Z</time>
      </trkpt>
      <trkpt lat="44.4269" lon="5.20183">
        <ele>541</ele>
        <time>2022-09-29T07:47:32Z</time>
      </trkpt>
      <trkpt lat="44.4269" lon="5.20184">
        <ele>541</ele>
        <time>2022-09-29T07:47:33Z</time>
      </trkpt>
      <trkpt lat="44.4269" lon="5.20186">
        <ele>541</ele>
        <time>2022-09-29T07:47:34Z</time>
      </trkpt>
      <trkpt lat="44.4269" lon="5.20187">
        <ele>541</ele>
        <time>2022-09-29T07:47:35Z</time>
      </trkpt>
      <trkpt lat="44.4269" lon="5.20188">
        <ele>541</ele>
        <time>2022-09-29T07:47:36Z</time>
      </trkpt>
      <trkpt lat="44.4269" lon="5.2019">
        <ele>541</ele>
        <time>2022-09-29T07:47:37Z</time>
      </trkpt>
      <trkpt lat="44.4269" lon="5.20191">
        <ele>541</ele>
        <time>2022-09-29T07:47:38Z</time>
      </trkpt>
      <trkpt lat="44.42691" lon="5.20193">
        <ele>542</ele>
        <time>2022-09-29T07:47:39Z</time>
      </trkpt>
      <trkpt lat="44.42691" lon="5.20194">
        <ele>542</ele>
        <time>2022-09-29T07:47:40Z</time>
      </trkpt>
      <trkpt lat="44.42691" lon="5.20196">
        <ele>542</ele>
        <time>2022-09-29T07:47:41Z</time>
      </trkpt>
      <trkpt lat="44.42691" lon="5.20197">
        <ele>542</ele>
        <time>2022-09-29T07:47:42Z</time>
      </trkpt>
      <trkpt lat="44.42691" lon="5.20199">
        <ele>542</ele>
        <time>2022-09-29T07:47:43Z</time>
      </trkpt>
      <trkpt lat="44.42691" lon="5.202">
        <ele>542</ele>
        <time>2022-09-29T07:47:44Z</time>
      </trkpt>
      <trkpt lat="44.42691" lon="5.20201">
        <ele>542</ele>
        <time>2022-09-29T07:47:45Z</time>
      </trkpt>
      <trkpt lat="44.42691" lon="5.20203">
        <ele>542</ele>
        <time>2022-09-29T07:47:46Z</time>
      </trkpt>
      <trkpt lat="44.4269" lon="5.20204">
        <ele>542</ele>
        <time>2022-09-29T07:47:47Z</time>
      </trkpt>
      <trkpt lat="44.4269" lon="5.20206">
        <ele>542</ele>
        <time>2022-09-29T07:47:48Z</time>
      </trkpt>
      <trkpt lat="44.42691" lon="5.20207">
        <ele>543</ele>
        <time>2022-09-29T07:47:49Z</time>
      </trkpt>
      <trkpt lat="44.42691" lon="5.20209">
        <ele>543</ele>
        <time>2022-09-29T07:47:50Z</time>
      </trkpt>
      <trkpt lat="44.42691" lon="5.2021">
        <ele>543</ele>
        <time>2022-09-29T07:47:51Z</time>
      </trkpt>
      <trkpt lat="44.42691" lon="5.20211">
        <ele>543</ele>
        <time>2022-09-29T07:47:52Z</time>
      </trkpt>
      <trkpt lat="44.42692" lon="5.20213">
        <ele>543</ele>
        <time>2022-09-29T07:47:53Z</time>
      </trkpt>
      <trkpt lat="44.42692" lon="5.20214">
        <ele>543</ele>
        <time>2022-09-29T07:47:54Z</time>
      </trkpt>
      <trkpt lat="44.42692" lon="5.20215">
        <ele>543</ele>
        <time>2022-09-29T07:47:55Z</time>
      </trkpt>
      <trkpt lat="44.42693" lon="5.20217">
        <ele>543</ele>
        <time>2022-09-29T07:47:56Z</time>
      </trkpt>
      <trkpt lat="44.42693" lon="5.20218">
        <ele>543</ele>
        <time>2022-09-29T07:47:57Z</time>
      </trkpt>
      <trkpt lat="44.42694" lon="5.20219">
        <ele>543</ele>
        <time>2022-09-29T07:47:58Z</time>
      </trkpt>
      <trkpt lat="44.42694" lon="5.20221">
        <ele>544</ele>
        <time>2022-09-29T07:47:59Z</time>
      </trkpt>
      <trkpt lat="44.42695" lon="5.20222">
        <ele>544</ele>
        <time>2022-09-29T07:48:00Z</time>
      </trkpt>
      <trkpt lat="44.42696" lon="5.20223">
        <ele>544</ele>
        <time>2022-09-29T07:48:01Z</time>
      </trkpt>
      <trkpt lat="44.42697" lon="5.20224">
        <ele>544</ele>
        <time>2022-09-29T07:48:02Z</time>
      </trkpt>
      <trkpt lat="44.42698" lon="5.20226">
        <ele>544</ele>
        <time>2022-09-29T07:48:03Z</time>
      </trkpt>
      <trkpt lat="44.42699" lon="5.20227">
        <ele>544</ele>
        <time>2022-09-29T07:48:04Z</time>
      </trkpt>
      <trkpt lat="44.42699" lon="5.20228">
        <ele>544</ele>
        <time>2022-09-29T07:48:05Z</time>
      </trkpt>
      <trkpt lat="44.427" lon="5.2023">
        <ele>544</ele>
        <time>2022-09-29T07:48:06Z</time>
      </trkpt>
      <trkpt lat="44.42701" lon="5.20231">
        <ele>544</ele>
        <time>2022-09-29T07:48:07Z</time>
      </trkpt>
      <trkpt lat="44.42701" lon="5.20232">
        <ele>544</ele>
        <time>2022-09-29T07:48:08Z</time>
      </trkpt>
      <trkpt lat="44.42702" lon="5.20233">
        <ele>544</ele>
        <time>2022-09-29T07:48:09Z</time>
      </trkpt>
      <trkpt lat="44.42702" lon="5.20234">
        <ele>544</ele>
        <time>2022-09-29T07:48:10Z</time>
      </trkpt>
      <trkpt lat="44.42703" lon="5.20236">
        <ele>544</ele>
        <time>2022-09-29T07:48:11Z</time>
      </trkpt>
      <trkpt lat="44.42704" lon="5.20237">
        <ele>544</ele>
        <time>2022-09-29T07:48:12Z</time>
      </trkpt>
      <trkpt lat="44.42704" lon="5.20238">
        <ele>544</ele>
        <time>2022-09-29T07:48:13Z</time>
      </trkpt>
      <trkpt lat="44.42705" lon="5.20239">
        <ele>545</ele>
        <time>2022-09-29T07:48:14Z</time>
      </trkpt>
      <trkpt lat="44.42706" lon="5.2024">
        <ele>545</ele>
        <time>2022-09-29T07:48:15Z</time>
      </trkpt>
      <trkpt lat="44.42706" lon="5.20241">
        <ele>545</ele>
        <time>2022-09-29T07:48:16Z</time>
      </trkpt>
      <trkpt lat="44.42707" lon="5.20242">
        <ele>545</ele>
        <time>2022-09-29T07:48:17Z</time>
      </trkpt>
      <trkpt lat="44.42707" lon="5.20244">
        <ele>545</ele>
        <time>2022-09-29T07:48:18Z</time>
      </trkpt>
      <trkpt lat="44.42708" lon="5.20245">
        <ele>545</ele>
        <time>2022-09-29T07:48:19Z</time>
      </trkpt>
      <trkpt lat="44.42708" lon="5.20246">
        <ele>545</ele>
        <time>2022-09-29T07:48:20Z</time>
      </trkpt>
      <trkpt lat="44.42709" lon="5.20247">
        <ele>545</ele>
        <time>2022-09-29T07:48:21Z</time>
      </trkpt>
      <trkpt lat="44.42709" lon="5.20248">
        <ele>545</ele>
        <time>2022-09-29T07:48:22Z</time>
      </trkpt>
      <trkpt lat="44.4271" lon="5.2025">
        <ele>545</ele>
        <time>2022-09-29T07:48:23Z</time>
      </trkpt>
      <trkpt lat="44.42711" lon="5.20251">
        <ele>545</ele>
        <time>2022-09-29T07:48:24Z</time>
      </trkpt>
      <trkpt lat="44.42711" lon="5.20252">
        <ele>545</ele>
        <time>2022-09-29T07:48:25Z</time>
      </trkpt>
      <trkpt lat="44.42712" lon="5.20253">
        <ele>545</ele>
        <time>2022-09-29T07:48:26Z</time>
      </trkpt>
      <trkpt lat="44.42713" lon="5.20254">
        <ele>545</ele>
        <time>2022-09-29T07:48:27Z</time>
      </trkpt>
      <trkpt lat="44.42714" lon="5.20255">
        <ele>545</ele>
        <time>2022-09-29T07:48:28Z</time>
      </trkpt>
      <trkpt lat="44.42715" lon="5.20257">
        <ele>545</ele>
        <time>2022-09-29T07:48:29Z</time>
      </trkpt>
      <trkpt lat="44.42715" lon="5.20258">
        <ele>545</ele>
        <time>2022-09-29T07:48:30Z</time>
      </trkpt>
      <trkpt lat="44.42716" lon="5.20259">
        <ele>545</ele>
        <time>2022-09-29T07:48:31Z</time>
      </trkpt>
      <trkpt lat="44.42717" lon="5.2026">
        <ele>545</ele>
        <time>2022-09-29T07:48:32Z</time>
      </trkpt>
      <trkpt lat="44.42718" lon="5.20261">
        <ele>545</ele>
        <time>2022-09-29T07:48:33Z</time>
      </trkpt>
      <trkpt lat="44.42719" lon="5.20263">
        <ele>545</ele>
        <time>2022-09-29T07:48:34Z</time>
      </trkpt>
      <trkpt lat="44.4272" lon="5.20264">
        <ele>545</ele>
        <time>2022-09-29T07:48:35Z</time>
      </trkpt>
      <trkpt lat="44.4272" lon="5.20265">
        <ele>545</ele>
        <time>2022-09-29T07:48:36Z</time>
      </trkpt>
      <trkpt lat="44.42721" lon="5.20266">
        <ele>545</ele>
        <time>2022-09-29T07:48:37Z</time>
      </trkpt>
      <trkpt lat="44.42722" lon="5.20266">
        <ele>545</ele>
        <time>2022-09-29T07:48:38Z</time>
      </trkpt>
      <trkpt lat="44.42723" lon="5.20267">
        <ele>545</ele>
        <time>2022-09-29T07:48:39Z</time>
      </trkpt>
      <trkpt lat="44.42724" lon="5.20268">
        <ele>545</ele>
        <time>2022-09-29T07:48:40Z</time>
      </trkpt>
      <trkpt lat="44.42724" lon="5.20269">
        <ele>545</ele>
        <time>2022-09-29T07:48:41Z</time>
      </trkpt>
      <trkpt lat="44.42725" lon="5.2027">
        <ele>545</ele>
        <time>2022-09-29T07:48:42Z</time>
      </trkpt>
      <trkpt lat="44.42726" lon="5.20271">
        <ele>545</ele>
        <time>2022-09-29T07:48:43Z</time>
      </trkpt>
      <trkpt lat="44.42727" lon="5.20272">
        <ele>546</ele>
        <time>2022-09-29T07:48:44Z</time>
      </trkpt>
      <trkpt lat="44.42728" lon="5.20273">
        <ele>546</ele>
        <time>2022-09-29T07:48:45Z</time>
      </trkpt>
      <trkpt lat="44.42729" lon="5.20274">
        <ele>546</ele>
        <time>2022-09-29T07:48:46Z</time>
      </trkpt>
      <trkpt lat="44.4273" lon="5.20274">
        <ele>546</ele>
        <time>2022-09-29T07:48:47Z</time>
      </trkpt>
      <trkpt lat="44.42731" lon="5.20275">
        <ele>546</ele>
        <time>2022-09-29T07:48:48Z</time>
      </trkpt>
      <trkpt lat="44.42732" lon="5.20276">
        <ele>546</ele>
        <time>2022-09-29T07:48:49Z</time>
      </trkpt>
      <trkpt lat="44.42733" lon="5.20277">
        <ele>546</ele>
        <time>2022-09-29T07:48:50Z</time>
      </trkpt>
      <trkpt lat="44.42734" lon="5.20277">
        <ele>546</ele>
        <time>2022-09-29T07:48:51Z</time>
      </trkpt>
      <trkpt lat="44.42735" lon="5.20278">
        <ele>546</ele>
        <time>2022-09-29T07:48:52Z</time>
      </trkpt>
      <trkpt lat="44.42736" lon="5.20279">
        <ele>546</ele>
        <time>2022-09-29T07:48:53Z</time>
      </trkpt>
      <trkpt lat="44.42736" lon="5.20279">
        <ele>546</ele>
        <time>2022-09-29T07:48:54Z</time>
      </trkpt>
      <trkpt lat="44.42737" lon="5.2028">
        <ele>546</ele>
        <time>2022-09-29T07:48:55Z</time>
      </trkpt>
      <trkpt lat="44.42738" lon="5.20281">
        <ele>546</ele>
        <time>2022-09-29T07:48:56Z</time>
      </trkpt>
      <trkpt lat="44.42739" lon="5.20281">
        <ele>546</ele>
        <time>2022-09-29T07:48:57Z</time>
      </trkpt>
      <trkpt lat="44.4274" lon="5.20282">
        <ele>546</ele>
        <time>2022-09-29T07:48:58Z</time>
      </trkpt>
      <trkpt lat="44.42741" lon="5.20283">
        <ele>547</ele>
        <time>2022-09-29T07:48:59Z</time>
      </trkpt>
      <trkpt lat="44.42742" lon="5.20283">
        <ele>547</ele>
        <time>2022-09-29T07:49:00Z</time>
      </trkpt>
      <trkpt lat="44.42742" lon="5.20284">
        <ele>547</ele>
        <time>2022-09-29T07:49:01Z</time>
      </trkpt>
      <trkpt lat="44.42743" lon="5.20285">
        <ele>547</ele>
        <time>2022-09-29T07:49:02Z</time>
      </trkpt>
      <trkpt lat="44.42744" lon="5.20286">
        <ele>547</ele>
        <time>2022-09-29T07:49:03Z</time>
      </trkpt>
      <trkpt lat="44.42745" lon="5.20287">
        <ele>547</ele>
        <time>2022-09-29T07:49:04Z</time>
      </trkpt>
      <trkpt lat="44.42746" lon="5.20288">
        <ele>547</ele>
        <time>2022-09-29T07:49:05Z</time>
      </trkpt>
      <trkpt lat="44.42747" lon="5.20289">
        <ele>547</ele>
        <time>2022-09-29T07:49:06Z</time>
      </trkpt>
      <trkpt lat="44.42748" lon="5.2029">
        <ele>547</ele>
        <time>2022-09-29T07:49:07Z</time>
      </trkpt>
      <trkpt lat="44.42749" lon="5.20291">
        <ele>547</ele>
        <time>2022-09-29T07:49:08Z</time>
      </trkpt>
      <trkpt lat="44.4275" lon="5.20291">
        <ele>547</ele>
        <time>2022-09-29T07:49:09Z</time>
      </trkpt>
      <trkpt lat="44.4275" lon="5.20292">
        <ele>547</ele>
        <time>2022-09-29T07:49:10Z</time>
      </trkpt>
      <trkpt lat="44.42751" lon="5.20293">
        <ele>547</ele>
        <time>2022-09-29T07:49:11Z</time>
      </trkpt>
      <trkpt lat="44.42752" lon="5.20294">
        <ele>547</ele>
        <time>2022-09-29T07:49:12Z</time>
      </trkpt>
      <trkpt lat="44.42753" lon="5.20295">
        <ele>547</ele>
        <time>2022-09-29T07:49:13Z</time>
      </trkpt>
      <trkpt lat="44.42753" lon="5.20296">
        <ele>548</ele>
        <time>2022-09-29T07:49:14Z</time>
      </trkpt>
      <trkpt lat="44.42754" lon="5.20297">
        <ele>548</ele>
        <time>2022-09-29T07:49:15Z</time>
      </trkpt>
      <trkpt lat="44.42755" lon="5.20298">
        <ele>548</ele>
        <time>2022-09-29T07:49:16Z</time>
      </trkpt>
      <trkpt lat="44.42755" lon="5.20299">
        <ele>548</ele>
        <time>2022-09-29T07:49:17Z</time>
      </trkpt>
      <trkpt lat="44.42756" lon="5.203">
        <ele>548</ele>
        <time>2022-09-29T07:49:18Z</time>
      </trkpt>
      <trkpt lat="44.42756" lon="5.20301">
        <ele>548</ele>
        <time>2022-09-29T07:49:19Z</time>
      </trkpt>
      <trkpt lat="44.42757" lon="5.20302">
        <ele>548</ele>
        <time>2022-09-29T07:49:20Z</time>
      </trkpt>
      <trkpt lat="44.42758" lon="5.20303">
        <ele>548</ele>
        <time>2022-09-29T07:49:21Z</time>
      </trkpt>
      <trkpt lat="44.42758" lon="5.20304">
        <ele>548</ele>
        <time>2022-09-29T07:49:22Z</time>
      </trkpt>
      <trkpt lat="44.42759" lon="5.20306">
        <ele>549</ele>
        <time>2022-09-29T07:49:35Z</time>
      </trkpt>
      <trkpt lat="44.42759" lon="5.20307">
        <ele>549</ele>
        <time>2022-09-29T07:49:36Z</time>
      </trkpt>
      <trkpt lat="44.4276" lon="5.20308">
        <ele>549</ele>
        <time>2022-09-29T07:49:37Z</time>
      </trkpt>
      <trkpt lat="44.4276" lon="5.20308">
        <ele>549</ele>
        <time>2022-09-29T07:49:38Z</time>
      </trkpt>
      <trkpt lat="44.4276" lon="5.20309">
        <ele>550</ele>
        <time>2022-09-29T07:49:39Z</time>
      </trkpt>
      <trkpt lat="44.42761" lon="5.20311">
        <ele>550</ele>
        <time>2022-09-29T07:49:40Z</time>
      </trkpt>
      <trkpt lat="44.42761" lon="5.20312">
        <ele>550</ele>
        <time>2022-09-29T07:49:41Z</time>
      </trkpt>
      <trkpt lat="44.42761" lon="5.20313">
        <ele>550</ele>
        <time>2022-09-29T07:49:42Z</time>
      </trkpt>
      <trkpt lat="44.42762" lon="5.20314">
        <ele>550</ele>
        <time>2022-09-29T07:49:43Z</time>
      </trkpt>
      <trkpt lat="44.42762" lon="5.20316">
        <ele>550</ele>
        <time>2022-09-29T07:49:44Z</time>
      </trkpt>
      <trkpt lat="44.42762" lon="5.20317">
        <ele>550</ele>
        <time>2022-09-29T07:49:45Z</time>
      </trkpt>
      <trkpt lat="44.42762" lon="5.20318">
        <ele>550</ele>
        <time>2022-09-29T07:49:46Z</time>
      </trkpt>
      <trkpt lat="44.42762" lon="5.20318">
        <ele>550</ele>
        <time>2022-09-29T07:49:47Z</time>
      </trkpt>
      <trkpt lat="44.42762" lon="5.20319">
        <ele>550</ele>
        <time>2022-09-29T07:49:48Z</time>
      </trkpt>
      <trkpt lat="44.42762" lon="5.2032">
        <ele>550</ele>
        <time>2022-09-29T07:49:49Z</time>
      </trkpt>
      <trkpt lat="44.42762" lon="5.20321">
        <ele>550</ele>
        <time>2022-09-29T07:49:50Z</time>
      </trkpt>
      <trkpt lat="44.42762" lon="5.20322">
        <ele>550</ele>
        <time>2022-09-29T07:49:51Z</time>
      </trkpt>
      <trkpt lat="44.42763" lon="5.20323">
        <ele>550</ele>
        <time>2022-09-29T07:49:52Z</time>
      </trkpt>
      <trkpt lat="44.42763" lon="5.20324">
        <ele>550</ele>
        <time>2022-09-29T07:49:53Z</time>
      </trkpt>
      <trkpt lat="44.42763" lon="5.20324">
        <ele>550</ele>
        <time>2022-09-29T07:49:54Z</time>
      </trkpt>
      <trkpt lat="44.42763" lon="5.20325">
        <ele>550</ele>
        <time>2022-09-29T07:49:55Z</time>
      </trkpt>
      <trkpt lat="44.42763" lon="5.20326">
        <ele>550</ele>
        <time>2022-09-29T07:49:56Z</time>
      </trkpt>
      <trkpt lat="44.42763" lon="5.20327">
        <ele>550</ele>
        <time>2022-09-29T07:49:57Z</time>
      </trkpt>
      <trkpt lat="44.42764" lon="5.20328">
        <ele>550</ele>
        <time>2022-09-29T07:49:58Z</time>
      </trkpt>
      <trkpt lat="44.42764" lon="5.20329">
        <ele>551</ele>
        <time>2022-09-29T07:49:59Z</time>
      </trkpt>
      <trkpt lat="44.42764" lon="5.2033">
        <ele>551</ele>
        <time>2022-09-29T07:50:00Z</time>
      </trkpt>
      <trkpt lat="44.42764" lon="5.20331">
        <ele>551</ele>
        <time>2022-09-29T07:50:01Z</time>
      </trkpt>
      <trkpt lat="44.42765" lon="5.20332">
        <ele>551</ele>
        <time>2022-09-29T07:50:02Z</time>
      </trkpt>
      <trkpt lat="44.42765" lon="5.20333">
        <ele>551</ele>
        <time>2022-09-29T07:50:03Z</time>
      </trkpt>
      <trkpt lat="44.42765" lon="5.20334">
        <ele>551</ele>
        <time>2022-09-29T07:50:04Z</time>
      </trkpt>
      <trkpt lat="44.42766" lon="5.20335">
        <ele>551</ele>
        <time>2022-09-29T07:50:05Z</time>
      </trkpt>
      <trkpt lat="44.42766" lon="5.20336">
        <ele>551</ele>
        <time>2022-09-29T07:50:06Z</time>
      </trkpt>
      <trkpt lat="44.42766" lon="5.20337">
        <ele>551</ele>
        <time>2022-09-29T07:50:07Z</time>
      </trkpt>
      <trkpt lat="44.42767" lon="5.20339">
        <ele>551</ele>
        <time>2022-09-29T07:50:18Z</time>
      </trkpt>
      <trkpt lat="44.42768" lon="5.2034">
        <ele>551</ele>
        <time>2022-09-29T07:50:19Z</time>
      </trkpt>
      <trkpt lat="44.42768" lon="5.20341">
        <ele>551</ele>
        <time>2022-09-29T07:50:20Z</time>
      </trkpt>
      <trkpt lat="44.42768" lon="5.20341">
        <ele>551</ele>
        <time>2022-09-29T07:50:21Z</time>
      </trkpt>
      <trkpt lat="44.42769" lon="5.20342">
        <ele>552</ele>
        <time>2022-09-29T07:50:22Z</time>
      </trkpt>
      <trkpt lat="44.42769" lon="5.20343">
        <ele>552</ele>
        <time>2022-09-29T07:50:23Z</time>
      </trkpt>
      <trkpt lat="44.4277" lon="5.20344">
        <ele>553</ele>
        <time>2022-09-29T07:50:24Z</time>
      </trkpt>
      <trkpt lat="44.4277" lon="5.20345">
        <ele>553</ele>
        <time>2022-09-29T07:50:25Z</time>
      </trkpt>
      <trkpt lat="44.42771" lon="5.20346">
        <ele>553</ele>
        <time>2022-09-29T07:50:26Z</time>
      </trkpt>
      <trkpt lat="44.42771" lon="5.20346">
        <ele>553</ele>
        <time>2022-09-29T07:50:27Z</time>
      </trkpt>
      <trkpt lat="44.42771" lon="5.20347">
        <ele>553</ele>
        <time>2022-09-29T07:50:28Z</time>
      </trkpt>
      <trkpt lat="44.42771" lon="5.20348">
        <ele>553</ele>
        <time>2022-09-29T07:50:29Z</time>
      </trkpt>
      <trkpt lat="44.42771" lon="5.20349">
        <ele>553</ele>
        <time>2022-09-29T07:50:30Z</time>
      </trkpt>
      <trkpt lat="44.42771" lon="5.2035">
        <ele>553</ele>
        <time>2022-09-29T07:50:31Z</time>
      </trkpt>
      <trkpt lat="44.42771" lon="5.2035">
        <ele>553</ele>
        <time>2022-09-29T07:50:32Z</time>
      </trkpt>
      <trkpt lat="44.42771" lon="5.20351">
        <ele>553</ele>
        <time>2022-09-29T07:50:33Z</time>
      </trkpt>
      <trkpt lat="44.42771" lon="5.20352">
        <ele>553</ele>
        <time>2022-09-29T07:50:34Z</time>
      </trkpt>
      <trkpt lat="44.42771" lon="5.20353">
        <ele>553</ele>
        <time>2022-09-29T07:50:35Z</time>
      </trkpt>
      <trkpt lat="44.42772" lon="5.20354">
        <ele>553</ele>
        <time>2022-09-29T07:50:36Z</time>
      </trkpt>
      <trkpt lat="44.42772" lon="5.20355">
        <ele>553</ele>
        <time>2022-09-29T07:50:37Z</time>
      </trkpt>
      <trkpt lat="44.42772" lon="5.20356">
        <ele>553</ele>
        <time>2022-09-29T07:50:38Z</time>
      </trkpt>
      <trkpt lat="44.42772" lon="5.20357">
        <ele>554</ele>
        <time>2022-09-29T07:50:39Z</time>
      </trkpt>
      <trkpt lat="44.42772" lon="5.20358">
        <ele>554</ele>
        <time>2022-09-29T07:50:40Z</time>
      </trkpt>
      <trkpt lat="44.42772" lon="5.20359">
        <ele>554</ele>
        <time>2022-09-29T07:50:41Z</time>
      </trkpt>
      <trkpt lat="44.42772" lon="5.2036">
        <ele>554</ele>
        <time>2022-09-29T07:50:42Z</time>
      </trkpt>
      <trkpt lat="44.42772" lon="5.20361">
        <ele>554</ele>
        <time>2022-09-29T07:50:43Z</time>
      </trkpt>
      <trkpt lat="44.42771" lon="5.20362">
        <ele>554</ele>
        <time>2022-09-29T07:50:44Z</time>
      </trkpt>
      <trkpt lat="44.42771" lon="5.20363">
        <ele>554</ele>
        <time>2022-09-29T07:50:45Z</time>
      </trkpt>
      <trkpt lat="44.42771" lon="5.20364">
        <ele>554</ele>
        <time>2022-09-29T07:50:46Z</time>
      </trkpt>
      <trkpt lat="44.4277" lon="5.20365">
        <ele>554</ele>
        <time>2022-09-29T07:50:47Z</time>
      </trkpt>
      <trkpt lat="44.4277" lon="5.20366">
        <ele>554</ele>
        <time>2022-09-29T07:50:48Z</time>
      </trkpt>
      <trkpt lat="44.4277" lon="5.20367">
        <ele>554</ele>
        <time>2022-09-29T07:50:49Z</time>
      </trkpt>
      <trkpt lat="44.4277" lon="5.20368">
        <ele>554</ele>
        <time>2022-09-29T07:50:50Z</time>
      </trkpt>
      <trkpt lat="44.4277" lon="5.20369">
        <ele>554</ele>
        <time>2022-09-29T07:50:51Z</time>
      </trkpt>
      <trkpt lat="44.4277" lon="5.2037">
        <ele>554</ele>
        <time>2022-09-29T07:50:52Z</time>
      </trkpt>
      <trkpt lat="44.4277" lon="5.20371">
        <ele>554</ele>
        <time>2022-09-29T07:50:53Z</time>
      </trkpt>
      <trkpt lat="44.4277" lon="5.20372">
        <ele>555</ele>
        <time>2022-09-29T07:50:54Z</time>
      </trkpt>
      <trkpt lat="44.42771" lon="5.20376">
        <ele>555</ele>
        <time>2022-09-29T07:53:42Z</time>
      </trkpt>
      <trkpt lat="44.42771" lon="5.20378">
        <ele>555</ele>
        <time>2022-09-29T07:53:43Z</time>
      </trkpt>
      <trkpt lat="44.42771" lon="5.2038">
        <ele>555</ele>
        <time>2022-09-29T07:53:44Z</time>
      </trkpt>
      <trkpt lat="44.42771" lon="5.20381">
        <ele>555</ele>
        <time>2022-09-29T07:53:45Z</time>
      </trkpt>
      <trkpt lat="44.4277" lon="5.20382">
        <ele>555</ele>
        <time>2022-09-29T07:53:46Z</time>
      </trkpt>
      <trkpt lat="44.4277" lon="5.20382">
        <ele>555</ele>
        <time>2022-09-29T07:53:47Z</time>
      </trkpt>
      <trkpt lat="44.42769" lon="5.20383">
        <ele>555</ele>
        <time>2022-09-29T07:53:48Z</time>
      </trkpt>
      <trkpt lat="44.42768" lon="5.20383">
        <ele>555</ele>
        <time>2022-09-29T07:53:49Z</time>
      </trkpt>
      <trkpt lat="44.42768" lon="5.20384">
        <ele>555</ele>
        <time>2022-09-29T07:53:50Z</time>
      </trkpt>
      <trkpt lat="44.42767" lon="5.20385">
        <ele>555</ele>
        <time>2022-09-29T07:53:51Z</time>
      </trkpt>
      <trkpt lat="44.42767" lon="5.20386">
        <ele>555</ele>
        <time>2022-09-29T07:53:52Z</time>
      </trkpt>
      <trkpt lat="44.42766" lon="5.20386">
        <ele>555</ele>
        <time>2022-09-29T07:53:53Z</time>
      </trkpt>
      <trkpt lat="44.42766" lon="5.20387">
        <ele>555</ele>
        <time>2022-09-29T07:53:54Z</time>
      </trkpt>
      <trkpt lat="44.42765" lon="5.20387">
        <ele>555</ele>
        <time>2022-09-29T07:53:55Z</time>
      </trkpt>
      <trkpt lat="44.42765" lon="5.20388">
        <ele>555</ele>
        <time>2022-09-29T07:53:56Z</time>
      </trkpt>
      <trkpt lat="44.42764" lon="5.20389">
        <ele>555</ele>
        <time>2022-09-29T07:53:57Z</time>
      </trkpt>
      <trkpt lat="44.42764" lon="5.2039">
        <ele>555</ele>
        <time>2022-09-29T07:53:58Z</time>
      </trkpt>
      <trkpt lat="44.42763" lon="5.20391">
        <ele>555</ele>
        <time>2022-09-29T07:53:59Z</time>
      </trkpt>
      <trkpt lat="44.42763" lon="5.20391">
        <ele>555</ele>
        <time>2022-09-29T07:54:00Z</time>
      </trkpt>
      <trkpt lat="44.42762" lon="5.20392">
        <ele>555</ele>
        <time>2022-09-29T07:54:01Z</time>
      </trkpt>
      <trkpt lat="44.42762" lon="5.20393">
        <ele>555</ele>
        <time>2022-09-29T07:54:02Z</time>
      </trkpt>
      <trkpt lat="44.42761" lon="5.20394">
        <ele>555</ele>
        <time>2022-09-29T07:54:03Z</time>
      </trkpt>
      <trkpt lat="44.4276" lon="5.20394">
        <ele>555</ele>
        <time>2022-09-29T07:54:04Z</time>
      </trkpt>
      <trkpt lat="44.42759" lon="5.20395">
        <ele>555</ele>
        <time>2022-09-29T07:54:05Z</time>
      </trkpt>
      <trkpt lat="44.42759" lon="5.20395">
        <ele>555</ele>
        <time>2022-09-29T07:54:06Z</time>
      </trkpt>
      <trkpt lat="44.42758" lon="5.20396">
        <ele>555</ele>
        <time>2022-09-29T07:54:07Z</time>
      </trkpt>
      <trkpt lat="44.42758" lon="5.20396">
        <ele>555</ele>
        <time>2022-09-29T07:54:08Z</time>
      </trkpt>
      <trkpt lat="44.42757" lon="5.20397">
        <ele>556</ele>
        <time>2022-09-29T07:54:09Z</time>
      </trkpt>
      <trkpt lat="44.42756" lon="5.20397">
        <ele>556</ele>
        <time>2022-09-29T07:54:10Z</time>
      </trkpt>
      <trkpt lat="44.42755" lon="5.20398">
        <ele>556</ele>
        <time>2022-09-29T07:54:11Z</time>
      </trkpt>
      <trkpt lat="44.42755" lon="5.20399">
        <ele>556</ele>
        <time>2022-09-29T07:54:12Z</time>
      </trkpt>
      <trkpt lat="44.42754" lon="5.204">
        <ele>556</ele>
        <time>2022-09-29T07:54:13Z</time>
      </trkpt>
      <trkpt lat="44.42754" lon="5.20401">
        <ele>556</ele>
        <time>2022-09-29T07:54:14Z</time>
      </trkpt>
      <trkpt lat="44.42753" lon="5.20401">
        <ele>556</ele>
        <time>2022-09-29T07:54:15Z</time>
      </trkpt>
      <trkpt lat="44.42753" lon="5.20402">
        <ele>556</ele>
        <time>2022-09-29T07:54:16Z</time>
      </trkpt>
      <trkpt lat="44.42752" lon="5.20403">
        <ele>556</ele>
        <time>2022-09-29T07:54:17Z</time>
      </trkpt>
      <trkpt lat="44.42752" lon="5.20404">
        <ele>556</ele>
        <time>2022-09-29T07:54:18Z</time>
      </trkpt>
      <trkpt lat="44.42752" lon="5.20405">
        <ele>557</ele>
        <time>2022-09-29T07:54:19Z</time>
      </trkpt>
      <trkpt lat="44.42751" lon="5.20406">
        <ele>557</ele>
        <time>2022-09-29T07:54:20Z</time>
      </trkpt>
      <trkpt lat="44.42751" lon="5.20407">
        <ele>557</ele>
        <time>2022-09-29T07:54:21Z</time>
      </trkpt>
      <trkpt lat="44.4275" lon="5.2041">
        <ele>558</ele>
        <time>2022-09-29T07:54:36Z</time>
      </trkpt>
      <trkpt lat="44.42749" lon="5.20411">
        <ele>558</ele>
        <time>2022-09-29T07:54:37Z</time>
      </trkpt>
      <trkpt lat="44.42748" lon="5.20412">
        <ele>558</ele>
        <time>2022-09-29T07:54:38Z</time>
      </trkpt>
      <trkpt lat="44.42748" lon="5.20413">
        <ele>558</ele>
        <time>2022-09-29T07:54:39Z</time>
      </trkpt>
      <trkpt lat="44.42747" lon="5.20413">
        <ele>558</ele>
        <time>2022-09-29T07:54:40Z</time>
      </trkpt>
      <trkpt lat="44.42747" lon="5.20414">
        <ele>558</ele>
        <time>2022-09-29T07:54:41Z</time>
      </trkpt>
      <trkpt lat="44.42746" lon="5.20415">
        <ele>558</ele>
        <time>2022-09-29T07:54:42Z</time>
      </trkpt>
      <trkpt lat="44.42745" lon="5.20415">
        <ele>558</ele>
        <time>2022-09-29T07:54:43Z</time>
      </trkpt>
      <trkpt lat="44.42745" lon="5.20416">
        <ele>559</ele>
        <time>2022-09-29T07:54:44Z</time>
      </trkpt>
      <trkpt lat="44.42743" lon="5.20417">
        <ele>560</ele>
        <time>2022-09-29T07:56:47Z</time>
      </trkpt>
      <trkpt lat="44.42743" lon="5.20418">
        <ele>560</ele>
        <time>2022-09-29T07:56:48Z</time>
      </trkpt>
      <trkpt lat="44.42742" lon="5.20418">
        <ele>560</ele>
        <time>2022-09-29T07:56:49Z</time>
      </trkpt>
      <trkpt lat="44.4274" lon="5.2042">
        <ele>560</ele>
        <time>2022-09-29T08:00:55Z</time>
      </trkpt>
      <trkpt lat="44.42739" lon="5.20422">
        <ele>560</ele>
        <time>2022-09-29T08:00:56Z</time>
      </trkpt>
      <trkpt lat="44.42738" lon="5.20423">
        <ele>560</ele>
        <time>2022-09-29T08:00:57Z</time>
      </trkpt>
      <trkpt lat="44.42738" lon="5.20424">
        <ele>560</ele>
        <time>2022-09-29T08:00:58Z</time>
      </trkpt>
      <trkpt lat="44.42737" lon="5.20425">
        <ele>560</ele>
        <time>2022-09-29T08:00:59Z</time>
      </trkpt>
      <trkpt lat="44.42737" lon="5.20426">
        <ele>560</ele>
        <time>2022-09-29T08:01:00Z</time>
      </trkpt>
      <trkpt lat="44.42737" lon="5.20427">
        <ele>560</ele>
        <time>2022-09-29T08:01:01Z</time>
      </trkpt>
      <trkpt lat="44.42737" lon="5.20428">
        <ele>560</ele>
        <time>2022-09-29T08:01:02Z</time>
      </trkpt>
      <trkpt lat="44.42737" lon="5.20429">
        <ele>560</ele>
        <time>2022-09-29T08:01:03Z</time>
      </trkpt>
      <trkpt lat="44.42737" lon="5.2043">
        <ele>560</ele>
        <time>2022-09-29T08:01:04Z</time>
      </trkpt>
      <trkpt lat="44.42737" lon="5.20431">
        <ele>560</ele>
        <time>2022-09-29T08:01:05Z</time>
      </trkpt>
      <trkpt lat="44.42738" lon="5.20432">
        <ele>560</ele>
        <time>2022-09-29T08:01:06Z</time>
      </trkpt>
      <trkpt lat="44.42738" lon="5.20433">
        <ele>560</ele>
        <time>2022-09-29T08:01:07Z</time>
      </trkpt>
      <trkpt lat="44.42738" lon="5.20434">
        <ele>560</ele>
        <time>2022-09-29T08:01:08Z</time>
      </trkpt>
      <trkpt lat="44.42738" lon="5.20435">
        <ele>561</ele>
        <time>2022-09-29T08:01:09Z</time>
      </trkpt>
      <trkpt lat="44.42738" lon="5.20436">
        <ele>561</ele>
        <time>2022-09-29T08:01:10Z</time>
      </trkpt>
      <trkpt lat="44.42738" lon="5.20438">
        <ele>561</ele>
        <time>2022-09-29T08:01:11Z</time>
      </trkpt>
      <trkpt lat="44.42738" lon="5.20439">
        <ele>561</ele>
        <time>2022-09-29T08:01:12Z</time>
      </trkpt>
      <trkpt lat="44.42737" lon="5.2044">
        <ele>561</ele>
        <time>2022-09-29T08:01:13Z</time>
      </trkpt>
      <trkpt lat="44.42737" lon="5.20441">
        <ele>561</ele>
        <time>2022-09-29T08:01:14Z</time>
      </trkpt>
      <trkpt lat="44.42737" lon="5.20442">
        <ele>561</ele>
        <time>2022-09-29T08:01:15Z</time>
      </trkpt>
      <trkpt lat="44.42737" lon="5.20443">
        <ele>561</ele>
        <time>2022-09-29T08:01:16Z</time>
      </trkpt>
      <trkpt lat="44.42737" lon="5.20444">
        <ele>561</ele>
        <time>2022-09-29T08:01:17Z</time>
      </trkpt>
      <trkpt lat="44.42736" lon="5.20445">
        <ele>561</ele>
        <time>2022-09-29T08:01:18Z</time>
      </trkpt>
      <trkpt lat="44.42736" lon="5.20447">
        <ele>561</ele>
        <time>2022-09-29T08:01:19Z</time>
      </trkpt>
      <trkpt lat="44.42736" lon="5.20447">
        <ele>561</ele>
        <time>2022-09-29T08:01:20Z</time>
      </trkpt>
      <trkpt lat="44.42736" lon="5.20448">
        <ele>561</ele>
        <time>2022-09-29T08:01:21Z</time>
      </trkpt>
      <trkpt lat="44.42735" lon="5.20449">
        <ele>561</ele>
        <time>2022-09-29T08:01:22Z</time>
      </trkpt>
      <trkpt lat="44.42735" lon="5.2045">
        <ele>561</ele>
        <time>2022-09-29T08:01:23Z</time>
      </trkpt>
      <trkpt lat="44.42735" lon="5.20451">
        <ele>562</ele>
        <time>2022-09-29T08:01:24Z</time>
      </trkpt>
      <trkpt lat="44.42735" lon="5.20452">
        <ele>562</ele>
        <time>2022-09-29T08:01:25Z</time>
      </trkpt>
      <trkpt lat="44.42735" lon="5.20453">
        <ele>562</ele>
        <time>2022-09-29T08:01:26Z</time>
      </trkpt>
      <trkpt lat="44.42735" lon="5.20454">
        <ele>562</ele>
        <time>2022-09-29T08:01:27Z</time>
      </trkpt>
      <trkpt lat="44.42735" lon="5.20455">
        <ele>562</ele>
        <time>2022-09-29T08:01:28Z</time>
      </trkpt>
      <trkpt lat="44.42735" lon="5.20455">
        <ele>562</ele>
        <time>2022-09-29T08:01:29Z</time>
      </trkpt>
      <trkpt lat="44.42735" lon="5.20456">
        <ele>562</ele>
        <time>2022-09-29T08:01:30Z</time>
      </trkpt>
      <trkpt lat="44.42735" lon="5.20456">
        <ele>562</ele>
        <time>2022-09-29T08:01:31Z</time>
      </trkpt>
      <trkpt lat="44.42735" lon="5.20457">
        <ele>562</ele>
        <time>2022-09-29T08:01:32Z</time>
      </trkpt>
      <trkpt lat="44.42735" lon="5.20458">
        <ele>562</ele>
        <time>2022-09-29T08:01:33Z</time>
      </trkpt>
      <trkpt lat="44.42735" lon="5.20459">
        <ele>563</ele>
        <time>2022-09-29T08:01:34Z</time>
      </trkpt>
      <trkpt lat="44.42735" lon="5.2046">
        <ele>563</ele>
        <time>2022-09-29T08:01:35Z</time>
      </trkpt>
      <trkpt lat="44.42735" lon="5.20461">
        <ele>563</ele>
        <time>2022-09-29T08:01:36Z</time>
      </trkpt>
      <trkpt lat="44.42735" lon="5.20462">
        <ele>563</ele>
        <time>2022-09-29T08:01:37Z</time>
      </trkpt>
      <trkpt lat="44.42736" lon="5.20463">
        <ele>563</ele>
        <time>2022-09-29T08:01:38Z</time>
      </trkpt>
      <trkpt lat="44.42736" lon="5.20464">
        <ele>564</ele>
        <time>2022-09-29T08:01:39Z</time>
      </trkpt>
      <trkpt lat="44.42736" lon="5.20465">
        <ele>564</ele>
        <time>2022-09-29T08:01:40Z</time>
      </trkpt>
      <trkpt lat="44.42737" lon="5.20466">
        <ele>564</ele>
        <time>2022-09-29T08:01:41Z</time>
      </trkpt>
      <trkpt lat="44.42737" lon="5.20467">
        <ele>564</ele>
        <time>2022-09-29T08:01:42Z</time>
      </trkpt>
      <trkpt lat="44.42737" lon="5.20468">
        <ele>564</ele>
        <time>2022-09-29T08:01:43Z</time>
      </trkpt>
      <trkpt lat="44.42737" lon="5.20469">
        <ele>564</ele>
        <time>2022-09-29T08:01:44Z</time>
      </trkpt>
      <trkpt lat="44.42738" lon="5.2047">
        <ele>564</ele>
        <time>2022-09-29T08:01:45Z</time>
      </trkpt>
      <trkpt lat="44.42738" lon="5.2047">
        <ele>564</ele>
        <time>2022-09-29T08:01:46Z</time>
      </trkpt>
      <trkpt lat="44.42738" lon="5.20471">
        <ele>564</ele>
        <time>2022-09-29T08:01:47Z</time>
      </trkpt>
      <trkpt lat="44.42738" lon="5.20472">
        <ele>564</ele>
        <time>2022-09-29T08:01:48Z</time>
      </trkpt>
      <trkpt lat="44.42738" lon="5.20473">
        <ele>565</ele>
        <time>2022-09-29T08:01:49Z</time>
      </trkpt>
      <trkpt lat="44.42738" lon="5.20474">
        <ele>565</ele>
        <time>2022-09-29T08:01:50Z</time>
      </trkpt>
      <trkpt lat="44.42738" lon="5.20474">
        <ele>565</ele>
        <time>2022-09-29T08:01:51Z</time>
      </trkpt>
      <trkpt lat="44.42738" lon="5.20475">
        <ele>565</ele>
        <time>2022-09-29T08:01:52Z</time>
      </trkpt>
      <trkpt lat="44.42739" lon="5.20476">
        <ele>565</ele>
        <time>2022-09-29T08:01:53Z</time>
      </trkpt>
      <trkpt lat="44.42739" lon="5.20477">
        <ele>566</ele>
        <time>2022-09-29T08:01:54Z</time>
      </trkpt>
      <trkpt lat="44.42739" lon="5.20478">
        <ele>566</ele>
        <time>2022-09-29T08:01:55Z</time>
      </trkpt>
      <trkpt lat="44.42739" lon="5.20479">
        <ele>566</ele>
        <time>2022-09-29T08:01:56Z</time>
      </trkpt>
      <trkpt lat="44.4274" lon="5.2048">
        <ele>566</ele>
        <time>2022-09-29T08:01:57Z</time>
      </trkpt>
      <trkpt lat="44.4274" lon="5.20481">
        <ele>566</ele>
        <time>2022-09-29T08:01:58Z</time>
      </trkpt>
      <trkpt lat="44.4274" lon="5.20482">
        <ele>566</ele>
        <time>2022-09-29T08:01:59Z</time>
      </trkpt>
      <trkpt lat="44.4274" lon="5.20482">
        <ele>566</ele>
        <time>2022-09-29T08:02:00Z</time>
      </trkpt>
      <trkpt lat="44.4274" lon="5.20483">
        <ele>566</ele>
        <time>2022-09-29T08:02:01Z</time>
      </trkpt>
      <trkpt lat="44.4274" lon="5.20484">
        <ele>566</ele>
        <time>2022-09-29T08:02:02Z</time>
      </trkpt>
      <trkpt lat="44.4274" lon="5.20485">
        <ele>566</ele>
        <time>2022-09-29T08:02:03Z</time>
      </trkpt>
      <trkpt lat="44.4274" lon="5.20486">
        <ele>567</ele>
        <time>2022-09-29T08:02:04Z</time>
      </trkpt>
      <trkpt lat="44.42739" lon="5.20487">
        <ele>567</ele>
        <time>2022-09-29T08:02:05Z</time>
      </trkpt>
      <trkpt lat="44.42739" lon="5.20488">
        <ele>567</ele>
        <time>2022-09-29T08:02:06Z</time>
      </trkpt>
      <trkpt lat="44.42739" lon="5.20489">
        <ele>568</ele>
        <time>2022-09-29T08:02:07Z</time>
      </trkpt>
      <trkpt lat="44.42739" lon="5.2049">
        <ele>568</ele>
        <time>2022-09-29T08:02:08Z</time>
      </trkpt>
      <trkpt lat="44.42739" lon="5.20491">
        <ele>569</ele>
        <time>2022-09-29T08:02:09Z</time>
      </trkpt>
      <trkpt lat="44.42739" lon="5.20492">
        <ele>569</ele>
        <time>2022-09-29T08:02:10Z</time>
      </trkpt>
      <trkpt lat="44.42739" lon="5.20492">
        <ele>569</ele>
        <time>2022-09-29T08:02:11Z</time>
      </trkpt>
      <trkpt lat="44.42739" lon="5.20493">
        <ele>569</ele>
        <time>2022-09-29T08:02:12Z</time>
      </trkpt>
      <trkpt lat="44.42739" lon="5.20494">
        <ele>569</ele>
        <time>2022-09-29T08:02:13Z</time>
      </trkpt>
      <trkpt lat="44.42739" lon="5.20495">
        <ele>569</ele>
        <time>2022-09-29T08:02:14Z</time>
      </trkpt>
      <trkpt lat="44.42739" lon="5.20496">
        <ele>569</ele>
        <time>2022-09-29T08:02:15Z</time>
      </trkpt>
      <trkpt lat="44.42739" lon="5.20496">
        <ele>569</ele>
        <time>2022-09-29T08:02:16Z</time>
      </trkpt>
      <trkpt lat="44.42739" lon="5.20498">
        <ele>569</ele>
        <time>2022-09-29T08:02:17Z</time>
      </trkpt>
      <trkpt lat="44.42738" lon="5.20499">
        <ele>569</ele>
        <time>2022-09-29T08:02:18Z</time>
      </trkpt>
      <trkpt lat="44.42738" lon="5.205">
        <ele>569</ele>
        <time>2022-09-29T08:02:19Z</time>
      </trkpt>
      <trkpt lat="44.42738" lon="5.20501">
        <ele>569</ele>
        <time>2022-09-29T08:02:20Z</time>
      </trkpt>
      <trkpt lat="44.42738" lon="5.20502">
        <ele>569</ele>
        <time>2022-09-29T08:02:21Z</time>
      </trkpt>
      <trkpt lat="44.42738" lon="5.20503">
        <ele>569</ele>
        <time>2022-09-29T08:02:22Z</time>
      </trkpt>
      <trkpt lat="44.42738" lon="5.20504">
        <ele>569</ele>
        <time>2022-09-29T08:02:23Z</time>
      </trkpt>
      <trkpt lat="44.42738" lon="5.20505">
        <ele>570</ele>
        <time>2022-09-29T08:02:24Z</time>
      </trkpt>
      <trkpt lat="44.42738" lon="5.20506">
        <ele>570</ele>
        <time>2022-09-29T08:02:25Z</time>
      </trkpt>
      <trkpt lat="44.42738" lon="5.20507">
        <ele>570</ele>
        <time>2022-09-29T08:02:26Z</time>
      </trkpt>
      <trkpt lat="44.42738" lon="5.20508">
        <ele>570</ele>
        <time>2022-09-29T08:02:27Z</time>
      </trkpt>
      <trkpt lat="44.42738" lon="5.20509">
        <ele>570</ele>
        <time>2022-09-29T08:02:28Z</time>
      </trkpt>
      <trkpt lat="44.42738" lon="5.2051">
        <ele>570</ele>
        <time>2022-09-29T08:02:29Z</time>
      </trkpt>
      <trkpt lat="44.42738" lon="5.20512">
        <ele>570</ele>
        <time>2022-09-29T08:02:30Z</time>
      </trkpt>
      <trkpt lat="44.42738" lon="5.20513">
        <ele>570</ele>
        <time>2022-09-29T08:02:31Z</time>
      </trkpt>
      <trkpt lat="44.42738" lon="5.20514">
        <ele>570</ele>
        <time>2022-09-29T08:02:32Z</time>
      </trkpt>
      <trkpt lat="44.42738" lon="5.20515">
        <ele>570</ele>
        <time>2022-09-29T08:02:33Z</time>
      </trkpt>
      <trkpt lat="44.42737" lon="5.20516">
        <ele>571</ele>
        <time>2022-09-29T08:02:34Z</time>
      </trkpt>
      <trkpt lat="44.42737" lon="5.20517">
        <ele>571</ele>
        <time>2022-09-29T08:02:35Z</time>
      </trkpt>
      <trkpt lat="44.42737" lon="5.20518">
        <ele>571</ele>
        <time>2022-09-29T08:02:36Z</time>
      </trkpt>
      <trkpt lat="44.42737" lon="5.2052">
        <ele>571</ele>
        <time>2022-09-29T08:02:37Z</time>
      </trkpt>
      <trkpt lat="44.42738" lon="5.20521">
        <ele>571</ele>
        <time>2022-09-29T08:02:38Z</time>
      </trkpt>
      <trkpt lat="44.42738" lon="5.20522">
        <ele>571</ele>
        <time>2022-09-29T08:02:39Z</time>
      </trkpt>
      <trkpt lat="44.42738" lon="5.20523">
        <ele>571</ele>
        <time>2022-09-29T08:02:40Z</time>
      </trkpt>
      <trkpt lat="44.42738" lon="5.20524">
        <ele>571</ele>
        <time>2022-09-29T08:02:41Z</time>
      </trkpt>
      <trkpt lat="44.42739" lon="5.20525">
        <ele>571</ele>
        <time>2022-09-29T08:02:42Z</time>
      </trkpt>
      <trkpt lat="44.42739" lon="5.20526">
        <ele>571</ele>
        <time>2022-09-29T08:02:43Z</time>
      </trkpt>
      <trkpt lat="44.42738" lon="5.20527">
        <ele>572</ele>
        <time>2022-09-29T08:02:44Z</time>
      </trkpt>
      <trkpt lat="44.42738" lon="5.20529">
        <ele>572</ele>
        <time>2022-09-29T08:02:45Z</time>
      </trkpt>
      <trkpt lat="44.42738" lon="5.2053">
        <ele>572</ele>
        <time>2022-09-29T08:02:46Z</time>
      </trkpt>
      <trkpt lat="44.42738" lon="5.20531">
        <ele>572</ele>
        <time>2022-09-29T08:02:47Z</time>
      </trkpt>
      <trkpt lat="44.42738" lon="5.20533">
        <ele>572</ele>
        <time>2022-09-29T08:02:48Z</time>
      </trkpt>
      <trkpt lat="44.42738" lon="5.20534">
        <ele>572</ele>
        <time>2022-09-29T08:02:49Z</time>
      </trkpt>
      <trkpt lat="44.42739" lon="5.20536">
        <ele>572</ele>
        <time>2022-09-29T08:02:50Z</time>
      </trkpt>
      <trkpt lat="44.42739" lon="5.20537">
        <ele>572</ele>
        <time>2022-09-29T08:02:51Z</time>
      </trkpt>
      <trkpt lat="44.42739" lon="5.20538">
        <ele>572</ele>
        <time>2022-09-29T08:02:52Z</time>
      </trkpt>
      <trkpt lat="44.4274" lon="5.2054">
        <ele>572</ele>
        <time>2022-09-29T08:02:53Z</time>
      </trkpt>
      <trkpt lat="44.4274" lon="5.20541">
        <ele>573</ele>
        <time>2022-09-29T08:02:54Z</time>
      </trkpt>
      <trkpt lat="44.4274" lon="5.20542">
        <ele>573</ele>
        <time>2022-09-29T08:02:55Z</time>
      </trkpt>
      <trkpt lat="44.4274" lon="5.20543">
        <ele>573</ele>
        <time>2022-09-29T08:02:56Z</time>
      </trkpt>
      <trkpt lat="44.4274" lon="5.20544">
        <ele>573</ele>
        <time>2022-09-29T08:02:57Z</time>
      </trkpt>
      <trkpt lat="44.4274" lon="5.20546">
        <ele>573</ele>
        <time>2022-09-29T08:02:58Z</time>
      </trkpt>
      <trkpt lat="44.4274" lon="5.20547">
        <ele>573</ele>
        <time>2022-09-29T08:02:59Z</time>
      </trkpt>
      <trkpt lat="44.4274" lon="5.20548">
        <ele>573</ele>
        <time>2022-09-29T08:03:00Z</time>
      </trkpt>
      <trkpt lat="44.4274" lon="5.20549">
        <ele>573</ele>
        <time>2022-09-29T08:03:01Z</time>
      </trkpt>
      <trkpt lat="44.4274" lon="5.20551">
        <ele>573</ele>
        <time>2022-09-29T08:03:02Z</time>
      </trkpt>
      <trkpt lat="44.4274" lon="5.20552">
        <ele>573</ele>
        <time>2022-09-29T08:03:03Z</time>
      </trkpt>
      <trkpt lat="44.4274" lon="5.20553">
        <ele>574</ele>
        <time>2022-09-29T08:03:04Z</time>
      </trkpt>
      <trkpt lat="44.42741" lon="5.20554">
        <ele>574</ele>
        <time>2022-09-29T08:03:05Z</time>
      </trkpt>
      <trkpt lat="44.42741" lon="5.20556">
        <ele>574</ele>
        <time>2022-09-29T08:03:06Z</time>
      </trkpt>
      <trkpt lat="44.42741" lon="5.20557">
        <ele>574</ele>
        <time>2022-09-29T08:03:07Z</time>
      </trkpt>
      <trkpt lat="44.42741" lon="5.20558">
        <ele>574</ele>
        <time>2022-09-29T08:03:08Z</time>
      </trkpt>
      <trkpt lat="44.42741" lon="5.20559">
        <ele>574</ele>
        <time>2022-09-29T08:03:09Z</time>
      </trkpt>
      <trkpt lat="44.42742" lon="5.2056">
        <ele>574</ele>
        <time>2022-09-29T08:03:10Z</time>
      </trkpt>
      <trkpt lat="44.42742" lon="5.20561">
        <ele>574</ele>
        <time>2022-09-29T08:03:11Z</time>
      </trkpt>
      <trkpt lat="44.42742" lon="5.20563">
        <ele>574</ele>
        <time>2022-09-29T08:03:12Z</time>
      </trkpt>
      <trkpt lat="44.42743" lon="5.20564">
        <ele>574</ele>
        <time>2022-09-29T08:03:13Z</time>
      </trkpt>
      <trkpt lat="44.42743" lon="5.20565">
        <ele>575</ele>
        <time>2022-09-29T08:03:14Z</time>
      </trkpt>
      <trkpt lat="44.42743" lon="5.20566">
        <ele>575</ele>
        <time>2022-09-29T08:03:15Z</time>
      </trkpt>
      <trkpt lat="44.42744" lon="5.20567">
        <ele>575</ele>
        <time>2022-09-29T08:03:16Z</time>
      </trkpt>
      <trkpt lat="44.42744" lon="5.20568">
        <ele>575</ele>
        <time>2022-09-29T08:03:17Z</time>
      </trkpt>
      <trkpt lat="44.42744" lon="5.20569">
        <ele>575</ele>
        <time>2022-09-29T08:03:18Z</time>
      </trkpt>
      <trkpt lat="44.42744" lon="5.2057">
        <ele>575</ele>
        <time>2022-09-29T08:03:19Z</time>
      </trkpt>
      <trkpt lat="44.42744" lon="5.20572">
        <ele>575</ele>
        <time>2022-09-29T08:03:20Z</time>
      </trkpt>
      <trkpt lat="44.42745" lon="5.20573">
        <ele>575</ele>
        <time>2022-09-29T08:03:21Z</time>
      </trkpt>
      <trkpt lat="44.42745" lon="5.20574">
        <ele>575</ele>
        <time>2022-09-29T08:03:22Z</time>
      </trkpt>
      <trkpt lat="44.42745" lon="5.20576">
        <ele>575</ele>
        <time>2022-09-29T08:03:23Z</time>
      </trkpt>
      <trkpt lat="44.42745" lon="5.20577">
        <ele>576</ele>
        <time>2022-09-29T08:03:24Z</time>
      </trkpt>
      <trkpt lat="44.42745" lon="5.20578">
        <ele>576</ele>
        <time>2022-09-29T08:03:25Z</time>
      </trkpt>
      <trkpt lat="44.42745" lon="5.20579">
        <ele>576</ele>
        <time>2022-09-29T08:03:26Z</time>
      </trkpt>
      <trkpt lat="44.42745" lon="5.2058">
        <ele>576</ele>
        <time>2022-09-29T08:03:27Z</time>
      </trkpt>
      <trkpt lat="44.42745" lon="5.20582">
        <ele>576</ele>
        <time>2022-09-29T08:03:28Z</time>
      </trkpt>
      <trkpt lat="44.42745" lon="5.20583">
        <ele>577</ele>
        <time>2022-09-29T08:03:29Z</time>
      </trkpt>
      <trkpt lat="44.42745" lon="5.20584">
        <ele>577</ele>
        <time>2022-09-29T08:03:30Z</time>
      </trkpt>
      <trkpt lat="44.42745" lon="5.20585">
        <ele>577</ele>
        <time>2022-09-29T08:03:31Z</time>
      </trkpt>
      <trkpt lat="44.42745" lon="5.20587">
        <ele>577</ele>
        <time>2022-09-29T08:03:32Z</time>
      </trkpt>
      <trkpt lat="44.42745" lon="5.20588">
        <ele>577</ele>
        <time>2022-09-29T08:03:33Z</time>
      </trkpt>
      <trkpt lat="44.42745" lon="5.20589">
        <ele>577</ele>
        <time>2022-09-29T08:03:34Z</time>
      </trkpt>
      <trkpt lat="44.42745" lon="5.20591">
        <ele>577</ele>
        <time>2022-09-29T08:03:35Z</time>
      </trkpt>
      <trkpt lat="44.42745" lon="5.20592">
        <ele>577</ele>
        <time>2022-09-29T08:03:36Z</time>
      </trkpt>
      <trkpt lat="44.42745" lon="5.20593">
        <ele>577</ele>
        <time>2022-09-29T08:03:37Z</time>
      </trkpt>
      <trkpt lat="44.42745" lon="5.20595">
        <ele>577</ele>
        <time>2022-09-29T08:03:38Z</time>
      </trkpt>
      <trkpt lat="44.42745" lon="5.20596">
        <ele>578</ele>
        <time>2022-09-29T08:03:39Z</time>
      </trkpt>
      <trkpt lat="44.42745" lon="5.20597">
        <ele>578</ele>
        <time>2022-09-29T08:03:40Z</time>
      </trkpt>
      <trkpt lat="44.42745" lon="5.20598">
        <ele>578</ele>
        <time>2022-09-29T08:03:41Z</time>
      </trkpt>
      <trkpt lat="44.42746" lon="5.20599">
        <ele>578</ele>
        <time>2022-09-29T08:03:42Z</time>
      </trkpt>
      <trkpt lat="44.42746" lon="5.20601">
        <ele>578</ele>
        <time>2022-09-29T08:03:43Z</time>
      </trkpt>
      <trkpt lat="44.42746" lon="5.20602">
        <ele>578</ele>
        <time>2022-09-29T08:03:44Z</time>
      </trkpt>
      <trkpt lat="44.42746" lon="5.20603">
        <ele>578</ele>
        <time>2022-09-29T08:03:45Z</time>
      </trkpt>
      <trkpt lat="44.42746" lon="5.20605">
        <ele>578</ele>
        <time>2022-09-29T08:03:46Z</time>
      </trkpt>
      <trkpt lat="44.42746" lon="5.20606">
        <ele>578</ele>
        <time>2022-09-29T08:03:47Z</time>
      </trkpt>
      <trkpt lat="44.42746" lon="5.20607">
        <ele>578</ele>
        <time>2022-09-29T08:03:48Z</time>
      </trkpt>
      <trkpt lat="44.42746" lon="5.20609">
        <ele>578</ele>
        <time>2022-09-29T08:03:49Z</time>
      </trkpt>
      <trkpt lat="44.42746" lon="5.2061">
        <ele>578</ele>
        <time>2022-09-29T08:03:50Z</time>
      </trkpt>
      <trkpt lat="44.42747" lon="5.20612">
        <ele>578</ele>
        <time>2022-09-29T08:03:51Z</time>
      </trkpt>
      <trkpt lat="44.42747" lon="5.20613">
        <ele>578</ele>
        <time>2022-09-29T08:03:52Z</time>
      </trkpt>
      <trkpt lat="44.42747" lon="5.20614">
        <ele>578</ele>
        <time>2022-09-29T08:03:53Z</time>
      </trkpt>
      <trkpt lat="44.42747" lon="5.20616">
        <ele>578</ele>
        <time>2022-09-29T08:03:54Z</time>
      </trkpt>
      <trkpt lat="44.42747" lon="5.20617">
        <ele>578</ele>
        <time>2022-09-29T08:03:55Z</time>
      </trkpt>
      <trkpt lat="44.42748" lon="5.20618">
        <ele>578</ele>
        <time>2022-09-29T08:03:56Z</time>
      </trkpt>
      <trkpt lat="44.42748" lon="5.20619">
        <ele>578</ele>
        <time>2022-09-29T08:03:57Z</time>
      </trkpt>
      <trkpt lat="44.42748" lon="5.2062">
        <ele>578</ele>
        <time>2022-09-29T08:03:58Z</time>
      </trkpt>
      <trkpt lat="44.42748" lon="5.20622">
        <ele>579</ele>
        <time>2022-09-29T08:03:59Z</time>
      </trkpt>
      <trkpt lat="44.42748" lon="5.20623">
        <ele>579</ele>
        <time>2022-09-29T08:04:00Z</time>
      </trkpt>
      <trkpt lat="44.42748" lon="5.20625">
        <ele>579</ele>
        <time>2022-09-29T08:04:01Z</time>
      </trkpt>
      <trkpt lat="44.42748" lon="5.20626">
        <ele>579</ele>
        <time>2022-09-29T08:04:02Z</time>
      </trkpt>
      <trkpt lat="44.42749" lon="5.20627">
        <ele>579</ele>
        <time>2022-09-29T08:04:03Z</time>
      </trkpt>
      <trkpt lat="44.42749" lon="5.20629">
        <ele>579</ele>
        <time>2022-09-29T08:04:04Z</time>
      </trkpt>
      <trkpt lat="44.42749" lon="5.20629">
        <ele>579</ele>
        <time>2022-09-29T08:04:05Z</time>
      </trkpt>
      <trkpt lat="44.42749" lon="5.20629">
        <ele>579</ele>
        <time>2022-09-29T08:04:06Z</time>
      </trkpt>
      <trkpt lat="44.42749" lon="5.2063">
        <ele>579</ele>
        <time>2022-09-29T08:04:07Z</time>
      </trkpt>
      <trkpt lat="44.42749" lon="5.2063">
        <ele>579</ele>
        <time>2022-09-29T08:04:08Z</time>
      </trkpt>
      <trkpt lat="44.4275" lon="5.20631">
        <ele>579</ele>
        <time>2022-09-29T08:04:09Z</time>
      </trkpt>
      <trkpt lat="44.4275" lon="5.20631">
        <ele>579</ele>
        <time>2022-09-29T08:04:10Z</time>
      </trkpt>
      <trkpt lat="44.4275" lon="5.20632">
        <ele>579</ele>
        <time>2022-09-29T08:04:11Z</time>
      </trkpt>
      <trkpt lat="44.42751" lon="5.20633">
        <ele>579</ele>
        <time>2022-09-29T08:04:12Z</time>
      </trkpt>
      <trkpt lat="44.42751" lon="5.20634">
        <ele>579</ele>
        <time>2022-09-29T08:04:13Z</time>
      </trkpt>
      <trkpt lat="44.42751" lon="5.20635">
        <ele>579</ele>
        <time>2022-09-29T08:04:14Z</time>
      </trkpt>
      <trkpt lat="44.42752" lon="5.20636">
        <ele>579</ele>
        <time>2022-09-29T08:04:15Z</time>
      </trkpt>
      <trkpt lat="44.42752" lon="5.20637">
        <ele>579</ele>
        <time>2022-09-29T08:04:16Z</time>
      </trkpt>
      <trkpt lat="44.42753" lon="5.20638">
        <ele>579</ele>
        <time>2022-09-29T08:04:17Z</time>
      </trkpt>
      <trkpt lat="44.42754" lon="5.20639">
        <ele>579</ele>
        <time>2022-09-29T08:04:18Z</time>
      </trkpt>
      <trkpt lat="44.42754" lon="5.20641">
        <ele>579</ele>
        <time>2022-09-29T08:04:19Z</time>
      </trkpt>
      <trkpt lat="44.42754" lon="5.20642">
        <ele>579</ele>
        <time>2022-09-29T08:04:20Z</time>
      </trkpt>
      <trkpt lat="44.42755" lon="5.20644">
        <ele>579</ele>
        <time>2022-09-29T08:04:41Z</time>
      </trkpt>
      <trkpt lat="44.42755" lon="5.20645">
        <ele>579</ele>
        <time>2022-09-29T08:04:42Z</time>
      </trkpt>
      <trkpt lat="44.42756" lon="5.20646">
        <ele>579</ele>
        <time>2022-09-29T08:04:43Z</time>
      </trkpt>
      <trkpt lat="44.42756" lon="5.20647">
        <ele>579</ele>
        <time>2022-09-29T08:04:44Z</time>
      </trkpt>
      <trkpt lat="44.42756" lon="5.20648">
        <ele>579</ele>
        <time>2022-09-29T08:04:45Z</time>
      </trkpt>
      <trkpt lat="44.42756" lon="5.20649">
        <ele>579</ele>
        <time>2022-09-29T08:04:46Z</time>
      </trkpt>
      <trkpt lat="44.42757" lon="5.2065">
        <ele>579</ele>
        <time>2022-09-29T08:04:47Z</time>
      </trkpt>
      <trkpt lat="44.42757" lon="5.20651">
        <ele>579</ele>
        <time>2022-09-29T08:04:48Z</time>
      </trkpt>
      <trkpt lat="44.42757" lon="5.20652">
        <ele>579</ele>
        <time>2022-09-29T08:04:49Z</time>
      </trkpt>
      <trkpt lat="44.42758" lon="5.20654">
        <ele>578</ele>
        <time>2022-09-29T08:04:50Z</time>
      </trkpt>
      <trkpt lat="44.42758" lon="5.20655">
        <ele>578</ele>
        <time>2022-09-29T08:04:51Z</time>
      </trkpt>
      <trkpt lat="44.42758" lon="5.20656">
        <ele>578</ele>
        <time>2022-09-29T08:04:52Z</time>
      </trkpt>
      <trkpt lat="44.42759" lon="5.20657">
        <ele>578</ele>
        <time>2022-09-29T08:04:53Z</time>
      </trkpt>
      <trkpt lat="44.42759" lon="5.20659">
        <ele>578</ele>
        <time>2022-09-29T08:04:54Z</time>
      </trkpt>
      <trkpt lat="44.4276" lon="5.2066">
        <ele>578</ele>
        <time>2022-09-29T08:04:55Z</time>
      </trkpt>
      <trkpt lat="44.4276" lon="5.20661">
        <ele>578</ele>
        <time>2022-09-29T08:04:56Z</time>
      </trkpt>
      <trkpt lat="44.4276" lon="5.20662">
        <ele>578</ele>
        <time>2022-09-29T08:04:57Z</time>
      </trkpt>
      <trkpt lat="44.42761" lon="5.20663">
        <ele>578</ele>
        <time>2022-09-29T08:04:58Z</time>
      </trkpt>
      <trkpt lat="44.42761" lon="5.20664">
        <ele>578</ele>
        <time>2022-09-29T08:04:59Z</time>
      </trkpt>
      <trkpt lat="44.42762" lon="5.20665">
        <ele>578</ele>
        <time>2022-09-29T08:05:00Z</time>
      </trkpt>
      <trkpt lat="44.42763" lon="5.20666">
        <ele>578</ele>
        <time>2022-09-29T08:05:01Z</time>
      </trkpt>
      <trkpt lat="44.42763" lon="5.20667">
        <ele>578</ele>
        <time>2022-09-29T08:05:02Z</time>
      </trkpt>
      <trkpt lat="44.42764" lon="5.20668">
        <ele>578</ele>
        <time>2022-09-29T08:05:03Z</time>
      </trkpt>
      <trkpt lat="44.42764" lon="5.2067">
        <ele>578</ele>
        <time>2022-09-29T08:05:04Z</time>
      </trkpt>
      <trkpt lat="44.42765" lon="5.20671">
        <ele>578</ele>
        <time>2022-09-29T08:05:05Z</time>
      </trkpt>
      <trkpt lat="44.42765" lon="5.20672">
        <ele>578</ele>
        <time>2022-09-29T08:05:06Z</time>
      </trkpt>
      <trkpt lat="44.42766" lon="5.20674">
        <ele>578</ele>
        <time>2022-09-29T08:05:07Z</time>
      </trkpt>
      <trkpt lat="44.42766" lon="5.20675">
        <ele>578</ele>
        <time>2022-09-29T08:05:08Z</time>
      </trkpt>
      <trkpt lat="44.42766" lon="5.20676">
        <ele>579</ele>
        <time>2022-09-29T08:05:09Z</time>
      </trkpt>
      <trkpt lat="44.42766" lon="5.20677">
        <ele>578</ele>
        <time>2022-09-29T08:05:10Z</time>
      </trkpt>
      <trkpt lat="44.42767" lon="5.20679">
        <ele>578</ele>
        <time>2022-09-29T08:05:11Z</time>
      </trkpt>
      <trkpt lat="44.42767" lon="5.2068">
        <ele>578</ele>
        <time>2022-09-29T08:05:12Z</time>
      </trkpt>
      <trkpt lat="44.42767" lon="5.20681">
        <ele>578</ele>
        <time>2022-09-29T08:05:13Z</time>
      </trkpt>
      <trkpt lat="44.42767" lon="5.20682">
        <ele>578</ele>
        <time>2022-09-29T08:05:14Z</time>
      </trkpt>
      <trkpt lat="44.42767" lon="5.20683">
        <ele>578</ele>
        <time>2022-09-29T08:05:15Z</time>
      </trkpt>
      <trkpt lat="44.42768" lon="5.20684">
        <ele>578</ele>
        <time>2022-09-29T08:05:16Z</time>
      </trkpt>
      <trkpt lat="44.42768" lon="5.20685">
        <ele>578</ele>
        <time>2022-09-29T08:05:17Z</time>
      </trkpt>
      <trkpt lat="44.42768" lon="5.20687">
        <ele>578</ele>
        <time>2022-09-29T08:05:18Z</time>
      </trkpt>
      <trkpt lat="44.42769" lon="5.20688">
        <ele>578</ele>
        <time>2022-09-29T08:05:19Z</time>
      </trkpt>
      <trkpt lat="44.42769" lon="5.20689">
        <ele>578</ele>
        <time>2022-09-29T08:05:20Z</time>
      </trkpt>
      <trkpt lat="44.4277" lon="5.2069">
        <ele>578</ele>
        <time>2022-09-29T08:05:21Z</time>
      </trkpt>
      <trkpt lat="44.4277" lon="5.20692">
        <ele>578</ele>
        <time>2022-09-29T08:05:22Z</time>
      </trkpt>
      <trkpt lat="44.4277" lon="5.20693">
        <ele>578</ele>
        <time>2022-09-29T08:05:23Z</time>
      </trkpt>
      <trkpt lat="44.42771" lon="5.20694">
        <ele>578</ele>
        <time>2022-09-29T08:05:24Z</time>
      </trkpt>
      <trkpt lat="44.42771" lon="5.20695">
        <ele>578</ele>
        <time>2022-09-29T08:05:25Z</time>
      </trkpt>
      <trkpt lat="44.42772" lon="5.20697">
        <ele>578</ele>
        <time>2022-09-29T08:05:26Z</time>
      </trkpt>
      <trkpt lat="44.42772" lon="5.20698">
        <ele>578</ele>
        <time>2022-09-29T08:05:27Z</time>
      </trkpt>
      <trkpt lat="44.42772" lon="5.20699">
        <ele>578</ele>
        <time>2022-09-29T08:05:28Z</time>
      </trkpt>
      <trkpt lat="44.42773" lon="5.207">
        <ele>578</ele>
        <time>2022-09-29T08:05:29Z</time>
      </trkpt>
      <trkpt lat="44.42773" lon="5.20702">
        <ele>578</ele>
        <time>2022-09-29T08:05:30Z</time>
      </trkpt>
      <trkpt lat="44.42773" lon="5.20703">
        <ele>578</ele>
        <time>2022-09-29T08:05:31Z</time>
      </trkpt>
      <trkpt lat="44.42774" lon="5.20704">
        <ele>578</ele>
        <time>2022-09-29T08:05:32Z</time>
      </trkpt>
      <trkpt lat="44.42774" lon="5.20706">
        <ele>578</ele>
        <time>2022-09-29T08:05:33Z</time>
      </trkpt>
      <trkpt lat="44.42774" lon="5.20707">
        <ele>578</ele>
        <time>2022-09-29T08:05:34Z</time>
      </trkpt>
      <trkpt lat="44.42775" lon="5.20708">
        <ele>578</ele>
        <time>2022-09-29T08:05:35Z</time>
      </trkpt>
      <trkpt lat="44.42775" lon="5.2071">
        <ele>578</ele>
        <time>2022-09-29T08:05:36Z</time>
      </trkpt>
      <trkpt lat="44.42775" lon="5.20711">
        <ele>578</ele>
        <time>2022-09-29T08:05:37Z</time>
      </trkpt>
      <trkpt lat="44.42775" lon="5.20713">
        <ele>578</ele>
        <time>2022-09-29T08:05:38Z</time>
      </trkpt>
      <trkpt lat="44.42776" lon="5.20714">
        <ele>579</ele>
        <time>2022-09-29T08:05:39Z</time>
      </trkpt>
      <trkpt lat="44.42776" lon="5.20716">
        <ele>579</ele>
        <time>2022-09-29T08:05:40Z</time>
      </trkpt>
      <trkpt lat="44.42776" lon="5.20717">
        <ele>579</ele>
        <time>2022-09-29T08:05:41Z</time>
      </trkpt>
      <trkpt lat="44.42776" lon="5.20719">
        <ele>579</ele>
        <time>2022-09-29T08:05:42Z</time>
      </trkpt>
      <trkpt lat="44.42777" lon="5.2072">
        <ele>579</ele>
        <time>2022-09-29T08:05:43Z</time>
      </trkpt>
      <trkpt lat="44.42777" lon="5.20722">
        <ele>579</ele>
        <time>2022-09-29T08:05:44Z</time>
      </trkpt>
      <trkpt lat="44.42778" lon="5.20724">
        <ele>579</ele>
        <time>2022-09-29T08:05:45Z</time>
      </trkpt>
      <trkpt lat="44.42778" lon="5.20725">
        <ele>579</ele>
        <time>2022-09-29T08:05:46Z</time>
      </trkpt>
      <trkpt lat="44.42779" lon="5.20727">
        <ele>579</ele>
        <time>2022-09-29T08:05:47Z</time>
      </trkpt>
      <trkpt lat="44.42779" lon="5.20729">
        <ele>579</ele>
        <time>2022-09-29T08:05:48Z</time>
      </trkpt>
      <trkpt lat="44.4278" lon="5.2073">
        <ele>579</ele>
        <time>2022-09-29T08:05:49Z</time>
      </trkpt>
      <trkpt lat="44.4278" lon="5.20732">
        <ele>579</ele>
        <time>2022-09-29T08:05:50Z</time>
      </trkpt>
      <trkpt lat="44.4278" lon="5.20733">
        <ele>579</ele>
        <time>2022-09-29T08:05:51Z</time>
      </trkpt>
      <trkpt lat="44.42781" lon="5.20734">
        <ele>580</ele>
        <time>2022-09-29T08:05:52Z</time>
      </trkpt>
      <trkpt lat="44.42781" lon="5.20735">
        <ele>580</ele>
        <time>2022-09-29T08:05:53Z</time>
      </trkpt>
      <trkpt lat="44.42781" lon="5.20736">
        <ele>581</ele>
        <time>2022-09-29T08:05:54Z</time>
      </trkpt>
      <trkpt lat="44.42782" lon="5.20737">
        <ele>581</ele>
        <time>2022-09-29T08:05:55Z</time>
      </trkpt>
      <trkpt lat="44.42782" lon="5.20739">
        <ele>581</ele>
        <time>2022-09-29T08:05:56Z</time>
      </trkpt>
      <trkpt lat="44.42782" lon="5.2074">
        <ele>581</ele>
        <time>2022-09-29T08:05:57Z</time>
      </trkpt>
      <trkpt lat="44.42783" lon="5.20741">
        <ele>581</ele>
        <time>2022-09-29T08:05:58Z</time>
      </trkpt>
      <trkpt lat="44.42783" lon="5.20742">
        <ele>581</ele>
        <time>2022-09-29T08:05:59Z</time>
      </trkpt>
      <trkpt lat="44.42784" lon="5.20743">
        <ele>580</ele>
        <time>2022-09-29T08:06:00Z</time>
      </trkpt>
      <trkpt lat="44.42784" lon="5.20744">
        <ele>580</ele>
        <time>2022-09-29T08:06:01Z</time>
      </trkpt>
      <trkpt lat="44.42784" lon="5.20745">
        <ele>580</ele>
        <time>2022-09-29T08:06:02Z</time>
      </trkpt>
      <trkpt lat="44.42785" lon="5.20747">
        <ele>580</ele>
        <time>2022-09-29T08:06:03Z</time>
      </trkpt>
      <trkpt lat="44.42785" lon="5.20748">
        <ele>580</ele>
        <time>2022-09-29T08:06:04Z</time>
      </trkpt>
      <trkpt lat="44.42785" lon="5.20749">
        <ele>580</ele>
        <time>2022-09-29T08:06:05Z</time>
      </trkpt>
      <trkpt lat="44.42785" lon="5.2075">
        <ele>580</ele>
        <time>2022-09-29T08:06:06Z</time>
      </trkpt>
      <trkpt lat="44.42786" lon="5.20752">
        <ele>580</ele>
        <time>2022-09-29T08:06:07Z</time>
      </trkpt>
      <trkpt lat="44.42786" lon="5.20753">
        <ele>580</ele>
        <time>2022-09-29T08:06:08Z</time>
      </trkpt>
      <trkpt lat="44.42786" lon="5.20754">
        <ele>580</ele>
        <time>2022-09-29T08:06:09Z</time>
      </trkpt>
      <trkpt lat="44.42786" lon="5.20756">
        <ele>580</ele>
        <time>2022-09-29T08:06:10Z</time>
      </trkpt>
      <trkpt lat="44.42786" lon="5.20757">
        <ele>580</ele>
        <time>2022-09-29T08:06:11Z</time>
      </trkpt>
      <trkpt lat="44.42785" lon="5.20759">
        <ele>580</ele>
        <time>2022-09-29T08:06:12Z</time>
      </trkpt>
      <trkpt lat="44.42785" lon="5.2076">
        <ele>580</ele>
        <time>2022-09-29T08:06:13Z</time>
      </trkpt>
      <trkpt lat="44.42785" lon="5.20761">
        <ele>581</ele>
        <time>2022-09-29T08:06:14Z</time>
      </trkpt>
      <trkpt lat="44.42785" lon="5.20762">
        <ele>581</ele>
        <time>2022-09-29T08:06:15Z</time>
      </trkpt>
      <trkpt lat="44.42785" lon="5.20764">
        <ele>581</ele>
        <time>2022-09-29T08:06:16Z</time>
      </trkpt>
      <trkpt lat="44.42785" lon="5.20765">
        <ele>581</ele>
        <time>2022-09-29T08:06:17Z</time>
      </trkpt>
      <trkpt lat="44.42785" lon="5.20766">
        <ele>581</ele>
        <time>2022-09-29T08:06:18Z</time>
      </trkpt>
      <trkpt lat="44.42785" lon="5.20767">
        <ele>581</ele>
        <time>2022-09-29T08:06:19Z</time>
      </trkpt>
      <trkpt lat="44.42785" lon="5.20768">
        <ele>581</ele>
        <time>2022-09-29T08:06:20Z</time>
      </trkpt>
      <trkpt lat="44.42785" lon="5.20769">
        <ele>581</ele>
        <time>2022-09-29T08:06:21Z</time>
      </trkpt>
      <trkpt lat="44.42785" lon="5.2077">
        <ele>581</ele>
        <time>2022-09-29T08:06:22Z</time>
      </trkpt>
      <trkpt lat="44.42785" lon="5.20771">
        <ele>581</ele>
        <time>2022-09-29T08:06:23Z</time>
      </trkpt>
      <trkpt lat="44.42784" lon="5.20772">
        <ele>581</ele>
        <time>2022-09-29T08:06:24Z</time>
      </trkpt>
      <trkpt lat="44.42784" lon="5.20773">
        <ele>581</ele>
        <time>2022-09-29T08:06:25Z</time>
      </trkpt>
      <trkpt lat="44.42784" lon="5.20774">
        <ele>581</ele>
        <time>2022-09-29T08:06:26Z</time>
      </trkpt>
      <trkpt lat="44.42784" lon="5.20776">
        <ele>581</ele>
        <time>2022-09-29T08:06:27Z</time>
      </trkpt>
      <trkpt lat="44.42784" lon="5.20777">
        <ele>581</ele>
        <time>2022-09-29T08:06:28Z</time>
      </trkpt>
      <trkpt lat="44.42784" lon="5.20778">
        <ele>582</ele>
        <time>2022-09-29T08:06:29Z</time>
      </trkpt>
      <trkpt lat="44.42783" lon="5.2078">
        <ele>583</ele>
        <time>2022-09-29T08:07:43Z</time>
      </trkpt>
      <trkpt lat="44.42782" lon="5.20781">
        <ele>583</ele>
        <time>2022-09-29T08:07:44Z</time>
      </trkpt>
      <trkpt lat="44.42782" lon="5.20781">
        <ele>583</ele>
        <time>2022-09-29T08:07:45Z</time>
      </trkpt>
      <trkpt lat="44.42782" lon="5.20782">
        <ele>583</ele>
        <time>2022-09-29T08:07:46Z</time>
      </trkpt>
      <trkpt lat="44.42782" lon="5.20783">
        <ele>583</ele>
        <time>2022-09-29T08:07:47Z</time>
      </trkpt>
      <trkpt lat="44.42782" lon="5.20784">
        <ele>583</ele>
        <time>2022-09-29T08:07:48Z</time>
      </trkpt>
      <trkpt lat="44.42782" lon="5.20785">
        <ele>583</ele>
        <time>2022-09-29T08:07:49Z</time>
      </trkpt>
      <trkpt lat="44.42782" lon="5.20786">
        <ele>583</ele>
        <time>2022-09-29T08:07:50Z</time>
      </trkpt>
      <trkpt lat="44.42782" lon="5.20787">
        <ele>583</ele>
        <time>2022-09-29T08:07:51Z</time>
      </trkpt>
      <trkpt lat="44.42782" lon="5.20788">
        <ele>583</ele>
        <time>2022-09-29T08:07:52Z</time>
      </trkpt>
      <trkpt lat="44.42782" lon="5.20789">
        <ele>583</ele>
        <time>2022-09-29T08:07:53Z</time>
      </trkpt>
      <trkpt lat="44.42782" lon="5.2079">
        <ele>584</ele>
        <time>2022-09-29T08:07:54Z</time>
      </trkpt>
      <trkpt lat="44.42782" lon="5.20791">
        <ele>584</ele>
        <time>2022-09-29T08:07:55Z</time>
      </trkpt>
      <trkpt lat="44.42782" lon="5.20792">
        <ele>584</ele>
        <time>2022-09-29T08:07:56Z</time>
      </trkpt>
      <trkpt lat="44.42782" lon="5.20793">
        <ele>584</ele>
        <time>2022-09-29T08:07:57Z</time>
      </trkpt>
      <trkpt lat="44.42781" lon="5.20794">
        <ele>584</ele>
        <time>2022-09-29T08:07:58Z</time>
      </trkpt>
      <trkpt lat="44.42781" lon="5.20796">
        <ele>584</ele>
        <time>2022-09-29T08:07:59Z</time>
      </trkpt>
      <trkpt lat="44.42781" lon="5.20797">
        <ele>584</ele>
        <time>2022-09-29T08:08:00Z</time>
      </trkpt>
      <trkpt lat="44.42781" lon="5.20798">
        <ele>584</ele>
        <time>2022-09-29T08:08:01Z</time>
      </trkpt>
      <trkpt lat="44.42781" lon="5.20799">
        <ele>584</ele>
        <time>2022-09-29T08:08:02Z</time>
      </trkpt>
      <trkpt lat="44.4278" lon="5.20801">
        <ele>584</ele>
        <time>2022-09-29T08:08:03Z</time>
      </trkpt>
      <trkpt lat="44.4278" lon="5.20802">
        <ele>585</ele>
        <time>2022-09-29T08:08:04Z</time>
      </trkpt>
      <trkpt lat="44.4278" lon="5.20803">
        <ele>585</ele>
        <time>2022-09-29T08:08:05Z</time>
      </trkpt>
      <trkpt lat="44.4278" lon="5.20804">
        <ele>585</ele>
        <time>2022-09-29T08:08:06Z</time>
      </trkpt>
      <trkpt lat="44.4278" lon="5.20805">
        <ele>585</ele>
        <time>2022-09-29T08:08:07Z</time>
      </trkpt>
      <trkpt lat="44.42779" lon="5.20807">
        <ele>585</ele>
        <time>2022-09-29T08:08:08Z</time>
      </trkpt>
      <trkpt lat="44.42779" lon="5.20808">
        <ele>586</ele>
        <time>2022-09-29T08:08:09Z</time>
      </trkpt>
      <trkpt lat="44.42779" lon="5.20809">
        <ele>586</ele>
        <time>2022-09-29T08:08:10Z</time>
      </trkpt>
      <trkpt lat="44.42778" lon="5.2081">
        <ele>586</ele>
        <time>2022-09-29T08:08:11Z</time>
      </trkpt>
      <trkpt lat="44.42778" lon="5.2081">
        <ele>586</ele>
        <time>2022-09-29T08:08:12Z</time>
      </trkpt>
      <trkpt lat="44.42778" lon="5.20811">
        <ele>586</ele>
        <time>2022-09-29T08:08:13Z</time>
      </trkpt>
      <trkpt lat="44.42778" lon="5.20812">
        <ele>586</ele>
        <time>2022-09-29T08:08:14Z</time>
      </trkpt>
      <trkpt lat="44.42777" lon="5.20813">
        <ele>586</ele>
        <time>2022-09-29T08:08:15Z</time>
      </trkpt>
      <trkpt lat="44.42777" lon="5.20814">
        <ele>586</ele>
        <time>2022-09-29T08:08:16Z</time>
      </trkpt>
      <trkpt lat="44.42777" lon="5.20815">
        <ele>586</ele>
        <time>2022-09-29T08:08:17Z</time>
      </trkpt>
      <trkpt lat="44.42777" lon="5.20816">
        <ele>586</ele>
        <time>2022-09-29T08:08:18Z</time>
      </trkpt>
      <trkpt lat="44.42776" lon="5.20816">
        <ele>587</ele>
        <time>2022-09-29T08:08:19Z</time>
      </trkpt>
      <trkpt lat="44.42776" lon="5.20817">
        <ele>587</ele>
        <time>2022-09-29T08:08:20Z</time>
      </trkpt>
      <trkpt lat="44.42776" lon="5.20818">
        <ele>587</ele>
        <time>2022-09-29T08:08:21Z</time>
      </trkpt>
      <trkpt lat="44.42776" lon="5.20819">
        <ele>587</ele>
        <time>2022-09-29T08:08:22Z</time>
      </trkpt>
      <trkpt lat="44.42776" lon="5.2082">
        <ele>587</ele>
        <time>2022-09-29T08:08:23Z</time>
      </trkpt>
      <trkpt lat="44.42777" lon="5.20821">
        <ele>587</ele>
        <time>2022-09-29T08:08:24Z</time>
      </trkpt>
      <trkpt lat="44.42777" lon="5.20823">
        <ele>587</ele>
        <time>2022-09-29T08:08:25Z</time>
      </trkpt>
      <trkpt lat="44.42777" lon="5.20824">
        <ele>587</ele>
        <time>2022-09-29T08:08:26Z</time>
      </trkpt>
      <trkpt lat="44.42777" lon="5.20825">
        <ele>587</ele>
        <time>2022-09-29T08:08:27Z</time>
      </trkpt>
      <trkpt lat="44.42777" lon="5.20827">
        <ele>587</ele>
        <time>2022-09-29T08:08:28Z</time>
      </trkpt>
      <trkpt lat="44.42776" lon="5.20828">
        <ele>587</ele>
        <time>2022-09-29T08:08:29Z</time>
      </trkpt>
      <trkpt lat="44.42776" lon="5.20829">
        <ele>587</ele>
        <time>2022-09-29T08:08:30Z</time>
      </trkpt>
      <trkpt lat="44.42776" lon="5.2083">
        <ele>587</ele>
        <time>2022-09-29T08:08:31Z</time>
      </trkpt>
      <trkpt lat="44.42776" lon="5.20831">
        <ele>587</ele>
        <time>2022-09-29T08:08:32Z</time>
      </trkpt>
      <trkpt lat="44.42776" lon="5.20832">
        <ele>587</ele>
        <time>2022-09-29T08:08:33Z</time>
      </trkpt>
      <trkpt lat="44.42776" lon="5.20834">
        <ele>588</ele>
        <time>2022-09-29T08:08:34Z</time>
      </trkpt>
      <trkpt lat="44.42775" lon="5.20835">
        <ele>588</ele>
        <time>2022-09-29T08:08:35Z</time>
      </trkpt>
      <trkpt lat="44.42775" lon="5.20836">
        <ele>588</ele>
        <time>2022-09-29T08:08:36Z</time>
      </trkpt>
      <trkpt lat="44.42775" lon="5.20837">
        <ele>588</ele>
        <time>2022-09-29T08:08:37Z</time>
      </trkpt>
      <trkpt lat="44.42774" lon="5.20838">
        <ele>588</ele>
        <time>2022-09-29T08:08:38Z</time>
      </trkpt>
      <trkpt lat="44.42774" lon="5.20839">
        <ele>588</ele>
        <time>2022-09-29T08:08:39Z</time>
      </trkpt>
      <trkpt lat="44.42773" lon="5.2084">
        <ele>588</ele>
        <time>2022-09-29T08:08:40Z</time>
      </trkpt>
      <trkpt lat="44.42773" lon="5.20841">
        <ele>588</ele>
        <time>2022-09-29T08:08:41Z</time>
      </trkpt>
      <trkpt lat="44.42772" lon="5.20842">
        <ele>588</ele>
        <time>2022-09-29T08:08:42Z</time>
      </trkpt>
      <trkpt lat="44.42772" lon="5.20843">
        <ele>588</ele>
        <time>2022-09-29T08:08:43Z</time>
      </trkpt>
      <trkpt lat="44.42771" lon="5.20843">
        <ele>589</ele>
        <time>2022-09-29T08:08:44Z</time>
      </trkpt>
      <trkpt lat="44.4277" lon="5.20843">
        <ele>589</ele>
        <time>2022-09-29T08:08:45Z</time>
      </trkpt>
      <trkpt lat="44.42769" lon="5.20844">
        <ele>589</ele>
        <time>2022-09-29T08:08:46Z</time>
      </trkpt>
      <trkpt lat="44.42768" lon="5.20844">
        <ele>589</ele>
        <time>2022-09-29T08:08:47Z</time>
      </trkpt>
      <trkpt lat="44.42768" lon="5.20844">
        <ele>589</ele>
        <time>2022-09-29T08:08:48Z</time>
      </trkpt>
      <trkpt lat="44.42767" lon="5.20843">
        <ele>589</ele>
        <time>2022-09-29T08:08:49Z</time>
      </trkpt>
      <trkpt lat="44.42767" lon="5.20843">
        <ele>589</ele>
        <time>2022-09-29T08:08:50Z</time>
      </trkpt>
      <trkpt lat="44.42766" lon="5.20843">
        <ele>589</ele>
        <time>2022-09-29T08:08:51Z</time>
      </trkpt>
      <trkpt lat="44.42766" lon="5.20843">
        <ele>589</ele>
        <time>2022-09-29T08:08:52Z</time>
      </trkpt>
      <trkpt lat="44.42766" lon="5.20843">
        <ele>589</ele>
        <time>2022-09-29T08:08:53Z</time>
      </trkpt>
      <trkpt lat="44.42766" lon="5.20843">
        <ele>590</ele>
        <time>2022-09-29T08:08:54Z</time>
      </trkpt>
      <trkpt lat="44.42765" lon="5.20843">
        <ele>590</ele>
        <time>2022-09-29T08:08:55Z</time>
      </trkpt>
      <trkpt lat="44.42764" lon="5.20843">
        <ele>590</ele>
        <time>2022-09-29T08:08:56Z</time>
      </trkpt>
      <trkpt lat="44.42763" lon="5.20843">
        <ele>590</ele>
        <time>2022-09-29T08:08:57Z</time>
      </trkpt>
      <trkpt lat="44.42763" lon="5.20843">
        <ele>590</ele>
        <time>2022-09-29T08:08:58Z</time>
      </trkpt>
      <trkpt lat="44.42762" lon="5.20843">
        <ele>591</ele>
        <time>2022-09-29T08:08:59Z</time>
      </trkpt>
      <trkpt lat="44.42762" lon="5.20844">
        <ele>591</ele>
        <time>2022-09-29T08:09:00Z</time>
      </trkpt>
      <trkpt lat="44.42761" lon="5.20844">
        <ele>591</ele>
        <time>2022-09-29T08:09:01Z</time>
      </trkpt>
      <trkpt lat="44.42761" lon="5.20845">
        <ele>591</ele>
        <time>2022-09-29T08:09:02Z</time>
      </trkpt>
      <trkpt lat="44.4276" lon="5.20845">
        <ele>591</ele>
        <time>2022-09-29T08:09:03Z</time>
      </trkpt>
      <trkpt lat="44.4276" lon="5.20846">
        <ele>591</ele>
        <time>2022-09-29T08:09:04Z</time>
      </trkpt>
      <trkpt lat="44.42759" lon="5.20847">
        <ele>591</ele>
        <time>2022-09-29T08:09:05Z</time>
      </trkpt>
      <trkpt lat="44.42759" lon="5.20847">
        <ele>591</ele>
        <time>2022-09-29T08:09:06Z</time>
      </trkpt>
      <trkpt lat="44.42758" lon="5.20848">
        <ele>591</ele>
        <time>2022-09-29T08:09:07Z</time>
      </trkpt>
      <trkpt lat="44.42758" lon="5.20849">
        <ele>591</ele>
        <time>2022-09-29T08:09:08Z</time>
      </trkpt>
      <trkpt lat="44.42758" lon="5.2085">
        <ele>592</ele>
        <time>2022-09-29T08:09:09Z</time>
      </trkpt>
      <trkpt lat="44.42757" lon="5.20851">
        <ele>592</ele>
        <time>2022-09-29T08:09:10Z</time>
      </trkpt>
      <trkpt lat="44.42757" lon="5.20851">
        <ele>592</ele>
        <time>2022-09-29T08:09:11Z</time>
      </trkpt>
      <trkpt lat="44.42757" lon="5.20852">
        <ele>592</ele>
        <time>2022-09-29T08:09:12Z</time>
      </trkpt>
      <trkpt lat="44.42756" lon="5.20853">
        <ele>592</ele>
        <time>2022-09-29T08:09:13Z</time>
      </trkpt>
      <trkpt lat="44.42756" lon="5.20855">
        <ele>592</ele>
        <time>2022-09-29T08:09:14Z</time>
      </trkpt>
      <trkpt lat="44.42756" lon="5.20856">
        <ele>592</ele>
        <time>2022-09-29T08:09:15Z</time>
      </trkpt>
      <trkpt lat="44.42756" lon="5.20857">
        <ele>592</ele>
        <time>2022-09-29T08:09:16Z</time>
      </trkpt>
      <trkpt lat="44.42756" lon="5.20858">
        <ele>592</ele>
        <time>2022-09-29T08:09:17Z</time>
      </trkpt>
      <trkpt lat="44.42756" lon="5.20859">
        <ele>592</ele>
        <time>2022-09-29T08:09:18Z</time>
      </trkpt>
      <trkpt lat="44.42756" lon="5.2086">
        <ele>592</ele>
        <time>2022-09-29T08:09:19Z</time>
      </trkpt>
      <trkpt lat="44.42756" lon="5.20861">
        <ele>592</ele>
        <time>2022-09-29T08:09:20Z</time>
      </trkpt>
      <trkpt lat="44.42756" lon="5.20862">
        <ele>592</ele>
        <time>2022-09-29T08:09:21Z</time>
      </trkpt>
      <trkpt lat="44.42756" lon="5.20864">
        <ele>592</ele>
        <time>2022-09-29T08:09:22Z</time>
      </trkpt>
      <trkpt lat="44.42755" lon="5.20865">
        <ele>592</ele>
        <time>2022-09-29T08:09:23Z</time>
      </trkpt>
      <trkpt lat="44.42755" lon="5.20866">
        <ele>592</ele>
        <time>2022-09-29T08:09:24Z</time>
      </trkpt>
      <trkpt lat="44.42755" lon="5.20868">
        <ele>592</ele>
        <time>2022-09-29T08:09:25Z</time>
      </trkpt>
      <trkpt lat="44.42755" lon="5.20869">
        <ele>592</ele>
        <time>2022-09-29T08:09:26Z</time>
      </trkpt>
      <trkpt lat="44.42755" lon="5.2087">
        <ele>592</ele>
        <time>2022-09-29T08:09:27Z</time>
      </trkpt>
      <trkpt lat="44.42754" lon="5.20871">
        <ele>592</ele>
        <time>2022-09-29T08:09:28Z</time>
      </trkpt>
      <trkpt lat="44.42754" lon="5.20872">
        <ele>592</ele>
        <time>2022-09-29T08:09:29Z</time>
      </trkpt>
      <trkpt lat="44.42753" lon="5.20872">
        <ele>592</ele>
        <time>2022-09-29T08:09:30Z</time>
      </trkpt>
      <trkpt lat="44.42753" lon="5.20873">
        <ele>592</ele>
        <time>2022-09-29T08:09:31Z</time>
      </trkpt>
      <trkpt lat="44.42752" lon="5.20874">
        <ele>592</ele>
        <time>2022-09-29T08:09:32Z</time>
      </trkpt>
      <trkpt lat="44.42752" lon="5.20876">
        <ele>592</ele>
        <time>2022-09-29T08:09:33Z</time>
      </trkpt>
      <trkpt lat="44.42751" lon="5.20877">
        <ele>592</ele>
        <time>2022-09-29T08:09:34Z</time>
      </trkpt>
      <trkpt lat="44.42751" lon="5.20878">
        <ele>592</ele>
        <time>2022-09-29T08:09:35Z</time>
      </trkpt>
      <trkpt lat="44.4275" lon="5.20878">
        <ele>592</ele>
        <time>2022-09-29T08:09:36Z</time>
      </trkpt>
      <trkpt lat="44.42749" lon="5.20879">
        <ele>592</ele>
        <time>2022-09-29T08:09:37Z</time>
      </trkpt>
      <trkpt lat="44.42749" lon="5.2088">
        <ele>592</ele>
        <time>2022-09-29T08:09:38Z</time>
      </trkpt>
      <trkpt lat="44.42748" lon="5.2088">
        <ele>593</ele>
        <time>2022-09-29T08:09:39Z</time>
      </trkpt>
      <trkpt lat="44.42747" lon="5.20881">
        <ele>593</ele>
        <time>2022-09-29T08:09:40Z</time>
      </trkpt>
      <trkpt lat="44.42746" lon="5.20881">
        <ele>593</ele>
        <time>2022-09-29T08:09:41Z</time>
      </trkpt>
      <trkpt lat="44.42746" lon="5.20881">
        <ele>593</ele>
        <time>2022-09-29T08:09:42Z</time>
      </trkpt>
      <trkpt lat="44.42745" lon="5.20881">
        <ele>593</ele>
        <time>2022-09-29T08:09:43Z</time>
      </trkpt>
      <trkpt lat="44.42744" lon="5.20882">
        <ele>593</ele>
        <time>2022-09-29T08:09:44Z</time>
      </trkpt>
      <trkpt lat="44.42743" lon="5.20882">
        <ele>593</ele>
        <time>2022-09-29T08:09:45Z</time>
      </trkpt>
      <trkpt lat="44.42742" lon="5.20882">
        <ele>593</ele>
        <time>2022-09-29T08:09:46Z</time>
      </trkpt>
      <trkpt lat="44.42742" lon="5.20883">
        <ele>593</ele>
        <time>2022-09-29T08:09:47Z</time>
      </trkpt>
      <trkpt lat="44.42741" lon="5.20883">
        <ele>593</ele>
        <time>2022-09-29T08:09:48Z</time>
      </trkpt>
      <trkpt lat="44.4274" lon="5.20883">
        <ele>593</ele>
        <time>2022-09-29T08:09:49Z</time>
      </trkpt>
      <trkpt lat="44.42739" lon="5.20883">
        <ele>593</ele>
        <time>2022-09-29T08:09:50Z</time>
      </trkpt>
      <trkpt lat="44.42738" lon="5.20883">
        <ele>593</ele>
        <time>2022-09-29T08:09:51Z</time>
      </trkpt>
      <trkpt lat="44.42737" lon="5.20883">
        <ele>593</ele>
        <time>2022-09-29T08:09:52Z</time>
      </trkpt>
      <trkpt lat="44.42736" lon="5.20883">
        <ele>593</ele>
        <time>2022-09-29T08:09:53Z</time>
      </trkpt>
      <trkpt lat="44.42736" lon="5.20883">
        <ele>593</ele>
        <time>2022-09-29T08:09:54Z</time>
      </trkpt>
      <trkpt lat="44.42736" lon="5.20883">
        <ele>593</ele>
        <time>2022-09-29T08:09:55Z</time>
      </trkpt>
      <trkpt lat="44.42735" lon="5.20883">
        <ele>593</ele>
        <time>2022-09-29T08:09:56Z</time>
      </trkpt>
      <trkpt lat="44.42735" lon="5.20883">
        <ele>593</ele>
        <time>2022-09-29T08:09:57Z</time>
      </trkpt>
      <trkpt lat="44.42735" lon="5.20883">
        <ele>593</ele>
        <time>2022-09-29T08:09:58Z</time>
      </trkpt>
      <trkpt lat="44.42734" lon="5.20883">
        <ele>593</ele>
        <time>2022-09-29T08:09:59Z</time>
      </trkpt>
      <trkpt lat="44.42734" lon="5.20883">
        <ele>593</ele>
        <time>2022-09-29T08:10:00Z</time>
      </trkpt>
      <trkpt lat="44.42733" lon="5.20883">
        <ele>593</ele>
        <time>2022-09-29T08:10:01Z</time>
      </trkpt>
      <trkpt lat="44.42732" lon="5.20883">
        <ele>593</ele>
        <time>2022-09-29T08:10:02Z</time>
      </trkpt>
      <trkpt lat="44.42732" lon="5.20883">
        <ele>593</ele>
        <time>2022-09-29T08:10:03Z</time>
      </trkpt>
      <trkpt lat="44.42731" lon="5.20884">
        <ele>593</ele>
        <time>2022-09-29T08:10:04Z</time>
      </trkpt>
      <trkpt lat="44.4273" lon="5.20885">
        <ele>592</ele>
        <time>2022-09-29T08:10:05Z</time>
      </trkpt>
      <trkpt lat="44.42729" lon="5.20885">
        <ele>592</ele>
        <time>2022-09-29T08:10:06Z</time>
      </trkpt>
      <trkpt lat="44.42729" lon="5.20886">
        <ele>592</ele>
        <time>2022-09-29T08:10:07Z</time>
      </trkpt>
      <trkpt lat="44.42728" lon="5.20886">
        <ele>592</ele>
        <time>2022-09-29T08:10:08Z</time>
      </trkpt>
      <trkpt lat="44.42727" lon="5.20887">
        <ele>592</ele>
        <time>2022-09-29T08:10:09Z</time>
      </trkpt>
      <trkpt lat="44.42727" lon="5.20887">
        <ele>592</ele>
        <time>2022-09-29T08:10:10Z</time>
      </trkpt>
      <trkpt lat="44.42726" lon="5.20888">
        <ele>592</ele>
        <time>2022-09-29T08:10:11Z</time>
      </trkpt>
      <trkpt lat="44.42726" lon="5.20888">
        <ele>592</ele>
        <time>2022-09-29T08:10:12Z</time>
      </trkpt>
      <trkpt lat="44.42725" lon="5.20888">
        <ele>592</ele>
        <time>2022-09-29T08:10:13Z</time>
      </trkpt>
      <trkpt lat="44.42725" lon="5.20888">
        <ele>592</ele>
        <time>2022-09-29T08:10:14Z</time>
      </trkpt>
      <trkpt lat="44.42724" lon="5.20888">
        <ele>591</ele>
        <time>2022-09-29T08:10:15Z</time>
      </trkpt>
      <trkpt lat="44.42723" lon="5.20889">
        <ele>591</ele>
        <time>2022-09-29T08:10:16Z</time>
      </trkpt>
      <trkpt lat="44.42722" lon="5.20889">
        <ele>591</ele>
        <time>2022-09-29T08:10:17Z</time>
      </trkpt>
      <trkpt lat="44.42721" lon="5.20889">
        <ele>591</ele>
        <time>2022-09-29T08:10:18Z</time>
      </trkpt>
      <trkpt lat="44.42721" lon="5.2089">
        <ele>591</ele>
        <time>2022-09-29T08:10:19Z</time>
      </trkpt>
      <trkpt lat="44.4272" lon="5.2089">
        <ele>591</ele>
        <time>2022-09-29T08:10:20Z</time>
      </trkpt>
      <trkpt lat="44.42719" lon="5.20891">
        <ele>591</ele>
        <time>2022-09-29T08:10:21Z</time>
      </trkpt>
      <trkpt lat="44.42718" lon="5.20891">
        <ele>591</ele>
        <time>2022-09-29T08:10:22Z</time>
      </trkpt>
      <trkpt lat="44.42718" lon="5.20892">
        <ele>591</ele>
        <time>2022-09-29T08:10:23Z</time>
      </trkpt>
      <trkpt lat="44.42717" lon="5.20892">
        <ele>591</ele>
        <time>2022-09-29T08:10:24Z</time>
      </trkpt>
      <trkpt lat="44.42716" lon="5.20893">
        <ele>591</ele>
        <time>2022-09-29T08:10:25Z</time>
      </trkpt>
      <trkpt lat="44.42716" lon="5.20894">
        <ele>591</ele>
        <time>2022-09-29T08:10:26Z</time>
      </trkpt>
      <trkpt lat="44.42716" lon="5.20895">
        <ele>591</ele>
        <time>2022-09-29T08:10:27Z</time>
      </trkpt>
      <trkpt lat="44.42715" lon="5.20896">
        <ele>591</ele>
        <time>2022-09-29T08:10:28Z</time>
      </trkpt>
      <trkpt lat="44.42715" lon="5.20897">
        <ele>591</ele>
        <time>2022-09-29T08:10:29Z</time>
      </trkpt>
      <trkpt lat="44.42715" lon="5.20898">
        <ele>590</ele>
        <time>2022-09-29T08:10:30Z</time>
      </trkpt>
      <trkpt lat="44.42714" lon="5.20898">
        <ele>590</ele>
        <time>2022-09-29T08:10:31Z</time>
      </trkpt>
      <trkpt lat="44.42714" lon="5.20899">
        <ele>590</ele>
        <time>2022-09-29T08:10:32Z</time>
      </trkpt>
      <trkpt lat="44.42712" lon="5.209">
        <ele>590</ele>
        <time>2022-09-29T08:10:39Z</time>
      </trkpt>
      <trkpt lat="44.42711" lon="5.209">
        <ele>589</ele>
        <time>2022-09-29T08:10:40Z</time>
      </trkpt>
      <trkpt lat="44.42711" lon="5.20901">
        <ele>589</ele>
        <time>2022-09-29T08:10:41Z</time>
      </trkpt>
      <trkpt lat="44.4271" lon="5.20902">
        <ele>589</ele>
        <time>2022-09-29T08:10:42Z</time>
      </trkpt>
      <trkpt lat="44.42709" lon="5.20902">
        <ele>589</ele>
        <time>2022-09-29T08:10:43Z</time>
      </trkpt>
      <trkpt lat="44.42709" lon="5.20903">
        <ele>589</ele>
        <time>2022-09-29T08:10:44Z</time>
      </trkpt>
      <trkpt lat="44.42708" lon="5.20904">
        <ele>589</ele>
        <time>2022-09-29T08:10:45Z</time>
      </trkpt>
      <trkpt lat="44.42707" lon="5.20905">
        <ele>589</ele>
        <time>2022-09-29T08:10:46Z</time>
      </trkpt>
      <trkpt lat="44.42707" lon="5.20906">
        <ele>589</ele>
        <time>2022-09-29T08:10:47Z</time>
      </trkpt>
      <trkpt lat="44.42706" lon="5.20907">
        <ele>589</ele>
        <time>2022-09-29T08:10:48Z</time>
      </trkpt>
      <trkpt lat="44.42706" lon="5.20909">
        <ele>589</ele>
        <time>2022-09-29T08:10:49Z</time>
      </trkpt>
      <trkpt lat="44.42705" lon="5.2091">
        <ele>588</ele>
        <time>2022-09-29T08:10:50Z</time>
      </trkpt>
      <trkpt lat="44.42705" lon="5.20911">
        <ele>588</ele>
        <time>2022-09-29T08:10:51Z</time>
      </trkpt>
      <trkpt lat="44.42704" lon="5.20912">
        <ele>588</ele>
        <time>2022-09-29T08:10:52Z</time>
      </trkpt>
      <trkpt lat="44.42704" lon="5.20914">
        <ele>588</ele>
        <time>2022-09-29T08:10:53Z</time>
      </trkpt>
      <trkpt lat="44.42704" lon="5.20915">
        <ele>588</ele>
        <time>2022-09-29T08:10:54Z</time>
      </trkpt>
      <trkpt lat="44.42704" lon="5.20916">
        <ele>587</ele>
        <time>2022-09-29T08:10:55Z</time>
      </trkpt>
      <trkpt lat="44.42703" lon="5.20917">
        <ele>587</ele>
        <time>2022-09-29T08:10:56Z</time>
      </trkpt>
      <trkpt lat="44.42703" lon="5.20918">
        <ele>587</ele>
        <time>2022-09-29T08:10:57Z</time>
      </trkpt>
      <trkpt lat="44.42703" lon="5.20919">
        <ele>587</ele>
        <time>2022-09-29T08:10:58Z</time>
      </trkpt>
      <trkpt lat="44.42703" lon="5.2092">
        <ele>587</ele>
        <time>2022-09-29T08:10:59Z</time>
      </trkpt>
      <trkpt lat="44.42702" lon="5.20921">
        <ele>587</ele>
        <time>2022-09-29T08:11:00Z</time>
      </trkpt>
      <trkpt lat="44.42702" lon="5.20922">
        <ele>587</ele>
        <time>2022-09-29T08:11:01Z</time>
      </trkpt>
      <trkpt lat="44.42701" lon="5.20923">
        <ele>587</ele>
        <time>2022-09-29T08:11:02Z</time>
      </trkpt>
      <trkpt lat="44.42701" lon="5.20923">
        <ele>587</ele>
        <time>2022-09-29T08:11:03Z</time>
      </trkpt>
      <trkpt lat="44.427" lon="5.20924">
        <ele>587</ele>
        <time>2022-09-29T08:11:04Z</time>
      </trkpt>
      <trkpt lat="44.427" lon="5.20925">
        <ele>586</ele>
        <time>2022-09-29T08:11:05Z</time>
      </trkpt>
      <trkpt lat="44.42699" lon="5.20926">
        <ele>586</ele>
        <time>2022-09-29T08:11:06Z</time>
      </trkpt>
      <trkpt lat="44.42699" lon="5.20927">
        <ele>586</ele>
        <time>2022-09-29T08:11:07Z</time>
      </trkpt>
      <trkpt lat="44.42699" lon="5.20928">
        <ele>586</ele>
        <time>2022-09-29T08:11:08Z</time>
      </trkpt>
      <trkpt lat="44.42698" lon="5.20929">
        <ele>586</ele>
        <time>2022-09-29T08:11:09Z</time>
      </trkpt>
      <trkpt lat="44.42698" lon="5.2093">
        <ele>585</ele>
        <time>2022-09-29T08:11:10Z</time>
      </trkpt>
      <trkpt lat="44.42698" lon="5.2093">
        <ele>585</ele>
        <time>2022-09-29T08:11:11Z</time>
      </trkpt>
      <trkpt lat="44.42697" lon="5.20931">
        <ele>585</ele>
        <time>2022-09-29T08:11:12Z</time>
      </trkpt>
      <trkpt lat="44.42697" lon="5.20932">
        <ele>585</ele>
        <time>2022-09-29T08:11:13Z</time>
      </trkpt>
      <trkpt lat="44.42697" lon="5.20933">
        <ele>585</ele>
        <time>2022-09-29T08:11:14Z</time>
      </trkpt>
      <trkpt lat="44.42697" lon="5.20933">
        <ele>585</ele>
        <time>2022-09-29T08:11:15Z</time>
      </trkpt>
      <trkpt lat="44.42696" lon="5.20934">
        <ele>585</ele>
        <time>2022-09-29T08:11:16Z</time>
      </trkpt>
      <trkpt lat="44.42696" lon="5.20936">
        <ele>583</ele>
        <time>2022-09-29T08:11:25Z</time>
      </trkpt>
      <trkpt lat="44.42696" lon="5.20937">
        <ele>583</ele>
        <time>2022-09-29T08:11:26Z</time>
      </trkpt>
      <trkpt lat="44.42696" lon="5.20939">
        <ele>583</ele>
        <time>2022-09-29T08:11:27Z</time>
      </trkpt>
      <trkpt lat="44.42696" lon="5.20939">
        <ele>583</ele>
        <time>2022-09-29T08:11:28Z</time>
      </trkpt>
      <trkpt lat="44.42696" lon="5.2094">
        <ele>583</ele>
        <time>2022-09-29T08:11:29Z</time>
      </trkpt>
      <trkpt lat="44.42697" lon="5.20941">
        <ele>582</ele>
        <time>2022-09-29T08:11:30Z</time>
      </trkpt>
      <trkpt lat="44.42697" lon="5.20941">
        <ele>582</ele>
        <time>2022-09-29T08:11:31Z</time>
      </trkpt>
      <trkpt lat="44.42697" lon="5.20942">
        <ele>582</ele>
        <time>2022-09-29T08:11:32Z</time>
      </trkpt>
      <trkpt lat="44.42697" lon="5.20943">
        <ele>582</ele>
        <time>2022-09-29T08:11:33Z</time>
      </trkpt>
      <trkpt lat="44.42698" lon="5.20944">
        <ele>582</ele>
        <time>2022-09-29T08:11:34Z</time>
      </trkpt>
      <trkpt lat="44.42698" lon="5.20944">
        <ele>581</ele>
        <time>2022-09-29T08:11:35Z</time>
      </trkpt>
      <trkpt lat="44.42699" lon="5.20945">
        <ele>581</ele>
        <time>2022-09-29T08:11:36Z</time>
      </trkpt>
      <trkpt lat="44.42699" lon="5.20946">
        <ele>581</ele>
        <time>2022-09-29T08:11:37Z</time>
      </trkpt>
      <trkpt lat="44.427" lon="5.20946">
        <ele>581</ele>
        <time>2022-09-29T08:11:38Z</time>
      </trkpt>
      <trkpt lat="44.427" lon="5.20947">
        <ele>581</ele>
        <time>2022-09-29T08:11:39Z</time>
      </trkpt>
      <trkpt lat="44.42701" lon="5.20947">
        <ele>580</ele>
        <time>2022-09-29T08:11:40Z</time>
      </trkpt>
      <trkpt lat="44.42701" lon="5.20948">
        <ele>580</ele>
        <time>2022-09-29T08:11:41Z</time>
      </trkpt>
      <trkpt lat="44.42702" lon="5.20948">
        <ele>580</ele>
        <time>2022-09-29T08:11:42Z</time>
      </trkpt>
      <trkpt lat="44.42702" lon="5.20948">
        <ele>580</ele>
        <time>2022-09-29T08:11:43Z</time>
      </trkpt>
      <trkpt lat="44.42703" lon="5.20948">
        <ele>580</ele>
        <time>2022-09-29T08:11:44Z</time>
      </trkpt>
      <trkpt lat="44.42704" lon="5.20949">
        <ele>580</ele>
        <time>2022-09-29T08:11:45Z</time>
      </trkpt>
      <trkpt lat="44.42705" lon="5.20948">
        <ele>580</ele>
        <time>2022-09-29T08:11:46Z</time>
      </trkpt>
      <trkpt lat="44.42706" lon="5.20948">
        <ele>580</ele>
        <time>2022-09-29T08:11:47Z</time>
      </trkpt>
      <trkpt lat="44.42707" lon="5.20948">
        <ele>580</ele>
        <time>2022-09-29T08:11:48Z</time>
      </trkpt>
      <trkpt lat="44.42708" lon="5.20948">
        <ele>580</ele>
        <time>2022-09-29T08:11:49Z</time>
      </trkpt>
      <trkpt lat="44.42708" lon="5.20948">
        <ele>579</ele>
        <time>2022-09-29T08:11:50Z</time>
      </trkpt>
      <trkpt lat="44.42709" lon="5.20948">
        <ele>579</ele>
        <time>2022-09-29T08:11:51Z</time>
      </trkpt>
      <trkpt lat="44.4271" lon="5.20948">
        <ele>579</ele>
        <time>2022-09-29T08:11:52Z</time>
      </trkpt>
      <trkpt lat="44.4271" lon="5.20948">
        <ele>579</ele>
        <time>2022-09-29T08:11:53Z</time>
      </trkpt>
      <trkpt lat="44.42711" lon="5.20948">
        <ele>579</ele>
        <time>2022-09-29T08:11:54Z</time>
      </trkpt>
      <trkpt lat="44.42712" lon="5.20948">
        <ele>578</ele>
        <time>2022-09-29T08:11:55Z</time>
      </trkpt>
      <trkpt lat="44.42713" lon="5.20948">
        <ele>578</ele>
        <time>2022-09-29T08:11:56Z</time>
      </trkpt>
      <trkpt lat="44.42713" lon="5.20948">
        <ele>578</ele>
        <time>2022-09-29T08:11:57Z</time>
      </trkpt>
      <trkpt lat="44.42714" lon="5.20948">
        <ele>578</ele>
        <time>2022-09-29T08:11:58Z</time>
      </trkpt>
      <trkpt lat="44.42715" lon="5.20949">
        <ele>578</ele>
        <time>2022-09-29T08:11:59Z</time>
      </trkpt>
      <trkpt lat="44.42716" lon="5.2095">
        <ele>577</ele>
        <time>2022-09-29T08:12:00Z</time>
      </trkpt>
      <trkpt lat="44.42717" lon="5.2095">
        <ele>577</ele>
        <time>2022-09-29T08:12:01Z</time>
      </trkpt>
      <trkpt lat="44.42718" lon="5.20951">
        <ele>577</ele>
        <time>2022-09-29T08:12:02Z</time>
      </trkpt>
      <trkpt lat="44.42719" lon="5.20951">
        <ele>577</ele>
        <time>2022-09-29T08:12:03Z</time>
      </trkpt>
      <trkpt lat="44.4272" lon="5.20952">
        <ele>577</ele>
        <time>2022-09-29T08:12:04Z</time>
      </trkpt>
      <trkpt lat="44.4272" lon="5.20953">
        <ele>576</ele>
        <time>2022-09-29T08:12:05Z</time>
      </trkpt>
      <trkpt lat="44.42721" lon="5.20953">
        <ele>576</ele>
        <time>2022-09-29T08:12:06Z</time>
      </trkpt>
      <trkpt lat="44.42722" lon="5.20954">
        <ele>576</ele>
        <time>2022-09-29T08:12:07Z</time>
      </trkpt>
      <trkpt lat="44.42723" lon="5.20954">
        <ele>576</ele>
        <time>2022-09-29T08:12:08Z</time>
      </trkpt>
      <trkpt lat="44.42723" lon="5.20955">
        <ele>576</ele>
        <time>2022-09-29T08:12:09Z</time>
      </trkpt>
      <trkpt lat="44.42724" lon="5.20955">
        <ele>576</ele>
        <time>2022-09-29T08:12:10Z</time>
      </trkpt>
      <trkpt lat="44.42724" lon="5.20956">
        <ele>576</ele>
        <time>2022-09-29T08:12:11Z</time>
      </trkpt>
      <trkpt lat="44.42725" lon="5.20956">
        <ele>576</ele>
        <time>2022-09-29T08:12:12Z</time>
      </trkpt>
      <trkpt lat="44.42726" lon="5.20957">
        <ele>576</ele>
        <time>2022-09-29T08:12:13Z</time>
      </trkpt>
      <trkpt lat="44.42726" lon="5.20957">
        <ele>576</ele>
        <time>2022-09-29T08:12:14Z</time>
      </trkpt>
      <trkpt lat="44.42727" lon="5.20958">
        <ele>575</ele>
        <time>2022-09-29T08:12:15Z</time>
      </trkpt>
      <trkpt lat="44.42727" lon="5.20958">
        <ele>575</ele>
        <time>2022-09-29T08:12:16Z</time>
      </trkpt>
      <trkpt lat="44.42728" lon="5.20959">
        <ele>575</ele>
        <time>2022-09-29T08:12:17Z</time>
      </trkpt>
      <trkpt lat="44.42728" lon="5.20959">
        <ele>575</ele>
        <time>2022-09-29T08:12:18Z</time>
      </trkpt>
      <trkpt lat="44.42728" lon="5.2096">
        <ele>575</ele>
        <time>2022-09-29T08:12:19Z</time>
      </trkpt>
      <trkpt lat="44.42729" lon="5.2096">
        <ele>574</ele>
        <time>2022-09-29T08:12:20Z</time>
      </trkpt>
      <trkpt lat="44.42729" lon="5.20961">
        <ele>574</ele>
        <time>2022-09-29T08:12:21Z</time>
      </trkpt>
      <trkpt lat="44.42729" lon="5.20962">
        <ele>574</ele>
        <time>2022-09-29T08:12:22Z</time>
      </trkpt>
      <trkpt lat="44.42729" lon="5.20963">
        <ele>574</ele>
        <time>2022-09-29T08:12:23Z</time>
      </trkpt>
      <trkpt lat="44.4273" lon="5.20964">
        <ele>574</ele>
        <time>2022-09-29T08:12:24Z</time>
      </trkpt>
      <trkpt lat="44.4273" lon="5.20965">
        <ele>573</ele>
        <time>2022-09-29T08:12:25Z</time>
      </trkpt>
      <trkpt lat="44.4273" lon="5.20966">
        <ele>573</ele>
        <time>2022-09-29T08:12:26Z</time>
      </trkpt>
      <trkpt lat="44.42731" lon="5.20967">
        <ele>573</ele>
        <time>2022-09-29T08:12:27Z</time>
      </trkpt>
      <trkpt lat="44.42731" lon="5.20967">
        <ele>573</ele>
        <time>2022-09-29T08:12:28Z</time>
      </trkpt>
      <trkpt lat="44.42732" lon="5.20968">
        <ele>573</ele>
        <time>2022-09-29T08:12:29Z</time>
      </trkpt>
      <trkpt lat="44.42732" lon="5.20969">
        <ele>572</ele>
        <time>2022-09-29T08:12:30Z</time>
      </trkpt>
      <trkpt lat="44.42733" lon="5.2097">
        <ele>572</ele>
        <time>2022-09-29T08:12:31Z</time>
      </trkpt>
      <trkpt lat="44.42733" lon="5.2097">
        <ele>572</ele>
        <time>2022-09-29T08:12:32Z</time>
      </trkpt>
      <trkpt lat="44.42734" lon="5.20971">
        <ele>572</ele>
        <time>2022-09-29T08:12:33Z</time>
      </trkpt>
      <trkpt lat="44.42734" lon="5.20971">
        <ele>572</ele>
        <time>2022-09-29T08:12:34Z</time>
      </trkpt>
      <trkpt lat="44.42735" lon="5.20972">
        <ele>571</ele>
        <time>2022-09-29T08:12:35Z</time>
      </trkpt>
      <trkpt lat="44.42735" lon="5.20973">
        <ele>571</ele>
        <time>2022-09-29T08:12:36Z</time>
      </trkpt>
      <trkpt lat="44.42736" lon="5.20974">
        <ele>571</ele>
        <time>2022-09-29T08:12:37Z</time>
      </trkpt>
      <trkpt lat="44.42736" lon="5.20975">
        <ele>571</ele>
        <time>2022-09-29T08:12:38Z</time>
      </trkpt>
      <trkpt lat="44.42737" lon="5.20976">
        <ele>571</ele>
        <time>2022-09-29T08:12:39Z</time>
      </trkpt>
      <trkpt lat="44.42737" lon="5.20976">
        <ele>570</ele>
        <time>2022-09-29T08:12:40Z</time>
      </trkpt>
      <trkpt lat="44.42738" lon="5.20977">
        <ele>570</ele>
        <time>2022-09-29T08:12:41Z</time>
      </trkpt>
      <trkpt lat="44.42738" lon="5.20977">
        <ele>570</ele>
        <time>2022-09-29T08:12:42Z</time>
      </trkpt>
      <trkpt lat="44.42739" lon="5.20978">
        <ele>570</ele>
        <time>2022-09-29T08:12:43Z</time>
      </trkpt>
      <trkpt lat="44.42739" lon="5.20978">
        <ele>570</ele>
        <time>2022-09-29T08:12:44Z</time>
      </trkpt>
      <trkpt lat="44.4274" lon="5.20979">
        <ele>569</ele>
        <time>2022-09-29T08:12:45Z</time>
      </trkpt>
      <trkpt lat="44.42741" lon="5.20979">
        <ele>569</ele>
        <time>2022-09-29T08:12:46Z</time>
      </trkpt>
      <trkpt lat="44.42741" lon="5.20979">
        <ele>569</ele>
        <time>2022-09-29T08:12:47Z</time>
      </trkpt>
      <trkpt lat="44.42742" lon="5.2098">
        <ele>569</ele>
        <time>2022-09-29T08:12:48Z</time>
      </trkpt>
      <trkpt lat="44.42743" lon="5.2098">
        <ele>569</ele>
        <time>2022-09-29T08:12:49Z</time>
      </trkpt>
      <trkpt lat="44.42743" lon="5.20981">
        <ele>568</ele>
        <time>2022-09-29T08:12:50Z</time>
      </trkpt>
      <trkpt lat="44.42744" lon="5.20981">
        <ele>568</ele>
        <time>2022-09-29T08:12:51Z</time>
      </trkpt>
      <trkpt lat="44.42745" lon="5.20982">
        <ele>568</ele>
        <time>2022-09-29T08:12:52Z</time>
      </trkpt>
      <trkpt lat="44.42745" lon="5.20983">
        <ele>568</ele>
        <time>2022-09-29T08:12:53Z</time>
      </trkpt>
      <trkpt lat="44.42746" lon="5.20984">
        <ele>568</ele>
        <time>2022-09-29T08:12:54Z</time>
      </trkpt>
      <trkpt lat="44.42747" lon="5.20985">
        <ele>567</ele>
        <time>2022-09-29T08:12:55Z</time>
      </trkpt>
      <trkpt lat="44.42748" lon="5.20986">
        <ele>567</ele>
        <time>2022-09-29T08:13:01Z</time>
      </trkpt>
      <trkpt lat="44.42749" lon="5.20987">
        <ele>567</ele>
        <time>2022-09-29T08:13:02Z</time>
      </trkpt>
      <trkpt lat="44.42749" lon="5.20988">
        <ele>567</ele>
        <time>2022-09-29T08:13:03Z</time>
      </trkpt>
      <trkpt lat="44.4275" lon="5.20989">
        <ele>567</ele>
        <time>2022-09-29T08:13:04Z</time>
      </trkpt>
      <trkpt lat="44.42751" lon="5.2099">
        <ele>566</ele>
        <time>2022-09-29T08:13:05Z</time>
      </trkpt>
      <trkpt lat="44.42751" lon="5.20991">
        <ele>566</ele>
        <time>2022-09-29T08:13:06Z</time>
      </trkpt>
      <trkpt lat="44.42752" lon="5.20991">
        <ele>566</ele>
        <time>2022-09-29T08:13:07Z</time>
      </trkpt>
      <trkpt lat="44.42752" lon="5.20992">
        <ele>566</ele>
        <time>2022-09-29T08:13:08Z</time>
      </trkpt>
      <trkpt lat="44.42753" lon="5.20993">
        <ele>566</ele>
        <time>2022-09-29T08:13:09Z</time>
      </trkpt>
      <trkpt lat="44.42754" lon="5.20994">
        <ele>565</ele>
        <time>2022-09-29T08:13:10Z</time>
      </trkpt>
      <trkpt lat="44.42755" lon="5.20995">
        <ele>565</ele>
        <time>2022-09-29T08:13:11Z</time>
      </trkpt>
      <trkpt lat="44.42756" lon="5.20996">
        <ele>565</ele>
        <time>2022-09-29T08:13:12Z</time>
      </trkpt>
      <trkpt lat="44.42756" lon="5.20997">
        <ele>565</ele>
        <time>2022-09-29T08:13:13Z</time>
      </trkpt>
      <trkpt lat="44.42756" lon="5.20998">
        <ele>565</ele>
        <time>2022-09-29T08:13:14Z</time>
      </trkpt>
      <trkpt lat="44.42757" lon="5.20999">
        <ele>564</ele>
        <time>2022-09-29T08:13:15Z</time>
      </trkpt>
      <trkpt lat="44.42757" lon="5.21">
        <ele>564</ele>
        <time>2022-09-29T08:13:16Z</time>
      </trkpt>
      <trkpt lat="44.42758" lon="5.21">
        <ele>564</ele>
        <time>2022-09-29T08:13:17Z</time>
      </trkpt>
      <trkpt lat="44.42758" lon="5.21001">
        <ele>564</ele>
        <time>2022-09-29T08:13:18Z</time>
      </trkpt>
      <trkpt lat="44.42759" lon="5.21002">
        <ele>564</ele>
        <time>2022-09-29T08:13:19Z</time>
      </trkpt>
      <trkpt lat="44.42759" lon="5.21002">
        <ele>564</ele>
        <time>2022-09-29T08:13:20Z</time>
      </trkpt>
      <trkpt lat="44.4276" lon="5.21002">
        <ele>564</ele>
        <time>2022-09-29T08:13:21Z</time>
      </trkpt>
      <trkpt lat="44.42761" lon="5.21003">
        <ele>564</ele>
        <time>2022-09-29T08:13:22Z</time>
      </trkpt>
      <trkpt lat="44.42762" lon="5.21004">
        <ele>564</ele>
        <time>2022-09-29T08:13:23Z</time>
      </trkpt>
      <trkpt lat="44.42762" lon="5.21004">
        <ele>564</ele>
        <time>2022-09-29T08:13:24Z</time>
      </trkpt>
      <trkpt lat="44.42763" lon="5.21006">
        <ele>563</ele>
        <time>2022-09-29T08:13:25Z</time>
      </trkpt>
      <trkpt lat="44.42764" lon="5.21007">
        <ele>563</ele>
        <time>2022-09-29T08:13:26Z</time>
      </trkpt>
      <trkpt lat="44.42765" lon="5.21008">
        <ele>563</ele>
        <time>2022-09-29T08:13:27Z</time>
      </trkpt>
      <trkpt lat="44.42766" lon="5.21009">
        <ele>563</ele>
        <time>2022-09-29T08:13:28Z</time>
      </trkpt>
      <trkpt lat="44.42767" lon="5.2101">
        <ele>563</ele>
        <time>2022-09-29T08:13:29Z</time>
      </trkpt>
      <trkpt lat="44.42768" lon="5.2101">
        <ele>562</ele>
        <time>2022-09-29T08:13:30Z</time>
      </trkpt>
      <trkpt lat="44.42768" lon="5.21011">
        <ele>562</ele>
        <time>2022-09-29T08:13:31Z</time>
      </trkpt>
      <trkpt lat="44.42769" lon="5.21012">
        <ele>562</ele>
        <time>2022-09-29T08:13:32Z</time>
      </trkpt>
      <trkpt lat="44.4277" lon="5.21012">
        <ele>562</ele>
        <time>2022-09-29T08:13:33Z</time>
      </trkpt>
      <trkpt lat="44.42771" lon="5.21013">
        <ele>562</ele>
        <time>2022-09-29T08:13:34Z</time>
      </trkpt>
      <trkpt lat="44.42772" lon="5.21013">
        <ele>562</ele>
        <time>2022-09-29T08:13:35Z</time>
      </trkpt>
      <trkpt lat="44.42773" lon="5.21014">
        <ele>562</ele>
        <time>2022-09-29T08:13:36Z</time>
      </trkpt>
      <trkpt lat="44.42773" lon="5.21015">
        <ele>562</ele>
        <time>2022-09-29T08:13:37Z</time>
      </trkpt>
      <trkpt lat="44.42774" lon="5.21016">
        <ele>562</ele>
        <time>2022-09-29T08:13:38Z</time>
      </trkpt>
      <trkpt lat="44.42774" lon="5.21016">
        <ele>562</ele>
        <time>2022-09-29T08:13:39Z</time>
      </trkpt>
      <trkpt lat="44.42774" lon="5.21017">
        <ele>561</ele>
        <time>2022-09-29T08:13:40Z</time>
      </trkpt>
      <trkpt lat="44.42774" lon="5.21021">
        <ele>560</ele>
        <time>2022-09-29T08:13:54Z</time>
      </trkpt>
      <trkpt lat="44.42774" lon="5.21023">
        <ele>560</ele>
        <time>2022-09-29T08:13:55Z</time>
      </trkpt>
      <trkpt lat="44.42773" lon="5.21025">
        <ele>560</ele>
        <time>2022-09-29T08:13:56Z</time>
      </trkpt>
      <trkpt lat="44.42773" lon="5.21026">
        <ele>560</ele>
        <time>2022-09-29T08:13:57Z</time>
      </trkpt>
      <trkpt lat="44.42773" lon="5.21028">
        <ele>560</ele>
        <time>2022-09-29T08:13:58Z</time>
      </trkpt>
      <trkpt lat="44.42772" lon="5.21029">
        <ele>560</ele>
        <time>2022-09-29T08:13:59Z</time>
      </trkpt>
      <trkpt lat="44.42771" lon="5.21029">
        <ele>559</ele>
        <time>2022-09-29T08:14:00Z</time>
      </trkpt>
      <trkpt lat="44.4277" lon="5.2103">
        <ele>559</ele>
        <time>2022-09-29T08:14:01Z</time>
      </trkpt>
      <trkpt lat="44.4277" lon="5.21031">
        <ele>559</ele>
        <time>2022-09-29T08:14:02Z</time>
      </trkpt>
      <trkpt lat="44.42769" lon="5.21031">
        <ele>559</ele>
        <time>2022-09-29T08:14:03Z</time>
      </trkpt>
      <trkpt lat="44.42768" lon="5.21032">
        <ele>559</ele>
        <time>2022-09-29T08:14:04Z</time>
      </trkpt>
      <trkpt lat="44.42768" lon="5.21032">
        <ele>558</ele>
        <time>2022-09-29T08:14:05Z</time>
      </trkpt>
      <trkpt lat="44.42767" lon="5.21033">
        <ele>558</ele>
        <time>2022-09-29T08:14:06Z</time>
      </trkpt>
      <trkpt lat="44.42767" lon="5.21033">
        <ele>558</ele>
        <time>2022-09-29T08:14:07Z</time>
      </trkpt>
      <trkpt lat="44.42767" lon="5.21034">
        <ele>558</ele>
        <time>2022-09-29T08:14:08Z</time>
      </trkpt>
      <trkpt lat="44.42766" lon="5.21035">
        <ele>558</ele>
        <time>2022-09-29T08:14:09Z</time>
      </trkpt>
      <trkpt lat="44.42766" lon="5.21035">
        <ele>557</ele>
        <time>2022-09-29T08:14:10Z</time>
      </trkpt>
      <trkpt lat="44.42765" lon="5.21036">
        <ele>557</ele>
        <time>2022-09-29T08:14:11Z</time>
      </trkpt>
      <trkpt lat="44.42765" lon="5.21036">
        <ele>557</ele>
        <time>2022-09-29T08:14:12Z</time>
      </trkpt>
      <trkpt lat="44.42765" lon="5.21037">
        <ele>557</ele>
        <time>2022-09-29T08:14:13Z</time>
      </trkpt>
      <trkpt lat="44.42764" lon="5.21038">
        <ele>557</ele>
        <time>2022-09-29T08:14:14Z</time>
      </trkpt>
      <trkpt lat="44.42764" lon="5.21038">
        <ele>556</ele>
        <time>2022-09-29T08:14:15Z</time>
      </trkpt>
      <trkpt lat="44.42763" lon="5.21038">
        <ele>556</ele>
        <time>2022-09-29T08:14:16Z</time>
      </trkpt>
      <trkpt lat="44.42763" lon="5.21039">
        <ele>556</ele>
        <time>2022-09-29T08:14:17Z</time>
      </trkpt>
      <trkpt lat="44.42763" lon="5.21039">
        <ele>556</ele>
        <time>2022-09-29T08:14:18Z</time>
      </trkpt>
      <trkpt lat="44.42762" lon="5.21039">
        <ele>556</ele>
        <time>2022-09-29T08:14:19Z</time>
      </trkpt>
      <trkpt lat="44.42761" lon="5.2104">
        <ele>556</ele>
        <time>2022-09-29T08:14:20Z</time>
      </trkpt>
      <trkpt lat="44.4276" lon="5.2104">
        <ele>556</ele>
        <time>2022-09-29T08:14:21Z</time>
      </trkpt>
      <trkpt lat="44.4276" lon="5.2104">
        <ele>556</ele>
        <time>2022-09-29T08:14:22Z</time>
      </trkpt>
      <trkpt lat="44.42759" lon="5.2104">
        <ele>556</ele>
        <time>2022-09-29T08:14:23Z</time>
      </trkpt>
      <trkpt lat="44.42758" lon="5.21041">
        <ele>556</ele>
        <time>2022-09-29T08:14:24Z</time>
      </trkpt>
      <trkpt lat="44.42757" lon="5.21041">
        <ele>555</ele>
        <time>2022-09-29T08:14:25Z</time>
      </trkpt>
      <trkpt lat="44.42757" lon="5.21042">
        <ele>555</ele>
        <time>2022-09-29T08:14:26Z</time>
      </trkpt>
      <trkpt lat="44.42756" lon="5.21042">
        <ele>555</ele>
        <time>2022-09-29T08:14:27Z</time>
      </trkpt>
      <trkpt lat="44.42755" lon="5.21043">
        <ele>555</ele>
        <time>2022-09-29T08:14:28Z</time>
      </trkpt>
      <trkpt lat="44.42754" lon="5.21043">
        <ele>555</ele>
        <time>2022-09-29T08:14:29Z</time>
      </trkpt>
      <trkpt lat="44.42754" lon="5.21044">
        <ele>554</ele>
        <time>2022-09-29T08:14:30Z</time>
      </trkpt>
      <trkpt lat="44.42753" lon="5.21044">
        <ele>554</ele>
        <time>2022-09-29T08:14:31Z</time>
      </trkpt>
      <trkpt lat="44.42752" lon="5.21044">
        <ele>554</ele>
        <time>2022-09-29T08:14:32Z</time>
      </trkpt>
      <trkpt lat="44.4275" lon="5.21044">
        <ele>554</ele>
        <time>2022-09-29T08:14:33Z</time>
      </trkpt>
      <trkpt lat="44.42749" lon="5.21044">
        <ele>554</ele>
        <time>2022-09-29T08:14:34Z</time>
      </trkpt>
      <trkpt lat="44.42748" lon="5.21044">
        <ele>554</ele>
        <time>2022-09-29T08:14:35Z</time>
      </trkpt>
      <trkpt lat="44.42747" lon="5.21044">
        <ele>554</ele>
        <time>2022-09-29T08:14:36Z</time>
      </trkpt>
      <trkpt lat="44.42746" lon="5.21044">
        <ele>554</ele>
        <time>2022-09-29T08:14:37Z</time>
      </trkpt>
      <trkpt lat="44.42745" lon="5.21045">
        <ele>554</ele>
        <time>2022-09-29T08:14:38Z</time>
      </trkpt>
      <trkpt lat="44.42744" lon="5.21045">
        <ele>554</ele>
        <time>2022-09-29T08:14:39Z</time>
      </trkpt>
      <trkpt lat="44.42743" lon="5.21045">
        <ele>553</ele>
        <time>2022-09-29T08:14:40Z</time>
      </trkpt>
      <trkpt lat="44.42743" lon="5.21045">
        <ele>553</ele>
        <time>2022-09-29T08:14:41Z</time>
      </trkpt>
      <trkpt lat="44.42742" lon="5.21045">
        <ele>553</ele>
        <time>2022-09-29T08:14:42Z</time>
      </trkpt>
      <trkpt lat="44.42742" lon="5.21045">
        <ele>553</ele>
        <time>2022-09-29T08:14:43Z</time>
      </trkpt>
      <trkpt lat="44.42741" lon="5.21045">
        <ele>553</ele>
        <time>2022-09-29T08:14:44Z</time>
      </trkpt>
      <trkpt lat="44.42741" lon="5.21045">
        <ele>552</ele>
        <time>2022-09-29T08:14:45Z</time>
      </trkpt>
      <trkpt lat="44.4274" lon="5.21045">
        <ele>552</ele>
        <time>2022-09-29T08:14:46Z</time>
      </trkpt>
      <trkpt lat="44.4274" lon="5.21045">
        <ele>551</ele>
        <time>2022-09-29T08:14:47Z</time>
      </trkpt>
      <trkpt lat="44.42739" lon="5.21045">
        <ele>551</ele>
        <time>2022-09-29T08:14:48Z</time>
      </trkpt>
      <trkpt lat="44.42738" lon="5.21045">
        <ele>551</ele>
        <time>2022-09-29T08:14:49Z</time>
      </trkpt>
      <trkpt lat="44.42738" lon="5.21045">
        <ele>550</ele>
        <time>2022-09-29T08:14:50Z</time>
      </trkpt>
      <trkpt lat="44.42737" lon="5.21045">
        <ele>550</ele>
        <time>2022-09-29T08:14:51Z</time>
      </trkpt>
      <trkpt lat="44.42737" lon="5.21045">
        <ele>550</ele>
        <time>2022-09-29T08:14:52Z</time>
      </trkpt>
      <trkpt lat="44.42737" lon="5.21045">
        <ele>550</ele>
        <time>2022-09-29T08:14:53Z</time>
      </trkpt>
      <trkpt lat="44.42736" lon="5.21046">
        <ele>550</ele>
        <time>2022-09-29T08:14:54Z</time>
      </trkpt>
      <trkpt lat="44.42735" lon="5.21046">
        <ele>549</ele>
        <time>2022-09-29T08:14:55Z</time>
      </trkpt>
      <trkpt lat="44.42735" lon="5.21047">
        <ele>549</ele>
        <time>2022-09-29T08:14:56Z</time>
      </trkpt>
      <trkpt lat="44.42734" lon="5.21047">
        <ele>549</ele>
        <time>2022-09-29T08:14:57Z</time>
      </trkpt>
      <trkpt lat="44.42733" lon="5.21048">
        <ele>549</ele>
        <time>2022-09-29T08:14:58Z</time>
      </trkpt>
      <trkpt lat="44.42732" lon="5.21048">
        <ele>549</ele>
        <time>2022-09-29T08:14:59Z</time>
      </trkpt>
      <trkpt lat="44.42732" lon="5.21049">
        <ele>549</ele>
        <time>2022-09-29T08:15:00Z</time>
      </trkpt>
      <trkpt lat="44.42731" lon="5.21049">
        <ele>549</ele>
        <time>2022-09-29T08:15:01Z</time>
      </trkpt>
      <trkpt lat="44.4273" lon="5.21049">
        <ele>549</ele>
        <time>2022-09-29T08:15:02Z</time>
      </trkpt>
      <trkpt lat="44.42729" lon="5.2105">
        <ele>549</ele>
        <time>2022-09-29T08:15:03Z</time>
      </trkpt>
      <trkpt lat="44.42729" lon="5.2105">
        <ele>549</ele>
        <time>2022-09-29T08:15:04Z</time>
      </trkpt>
      <trkpt lat="44.42729" lon="5.2105">
        <ele>548</ele>
        <time>2022-09-29T08:15:05Z</time>
      </trkpt>
      <trkpt lat="44.42729" lon="5.2105">
        <ele>548</ele>
        <time>2022-09-29T08:15:06Z</time>
      </trkpt>
      <trkpt lat="44.42728" lon="5.2105">
        <ele>548</ele>
        <time>2022-09-29T08:15:07Z</time>
      </trkpt>
      <trkpt lat="44.42727" lon="5.2105">
        <ele>548</ele>
        <time>2022-09-29T08:15:08Z</time>
      </trkpt>
      <trkpt lat="44.42727" lon="5.2105">
        <ele>548</ele>
        <time>2022-09-29T08:15:09Z</time>
      </trkpt>
      <trkpt lat="44.42726" lon="5.21051">
        <ele>547</ele>
        <time>2022-09-29T08:15:10Z</time>
      </trkpt>
      <trkpt lat="44.42726" lon="5.21051">
        <ele>547</ele>
        <time>2022-09-29T08:15:11Z</time>
      </trkpt>
      <trkpt lat="44.42725" lon="5.21051">
        <ele>547</ele>
        <time>2022-09-29T08:15:12Z</time>
      </trkpt>
      <trkpt lat="44.42724" lon="5.21052">
        <ele>547</ele>
        <time>2022-09-29T08:15:13Z</time>
      </trkpt>
      <trkpt lat="44.42723" lon="5.21052">
        <ele>547</ele>
        <time>2022-09-29T08:15:14Z</time>
      </trkpt>
      <trkpt lat="44.42722" lon="5.21052">
        <ele>547</ele>
        <time>2022-09-29T08:15:15Z</time>
      </trkpt>
      <trkpt lat="44.42721" lon="5.21053">
        <ele>547</ele>
        <time>2022-09-29T08:15:16Z</time>
      </trkpt>
      <trkpt lat="44.42721" lon="5.21053">
        <ele>547</ele>
        <time>2022-09-29T08:15:17Z</time>
      </trkpt>
      <trkpt lat="44.42721" lon="5.21053">
        <ele>547</ele>
        <time>2022-09-29T08:15:18Z</time>
      </trkpt>
      <trkpt lat="44.4272" lon="5.21053">
        <ele>547</ele>
        <time>2022-09-29T08:15:19Z</time>
      </trkpt>
      <trkpt lat="44.42719" lon="5.21053">
        <ele>546</ele>
        <time>2022-09-29T08:15:20Z</time>
      </trkpt>
      <trkpt lat="44.42719" lon="5.21054">
        <ele>546</ele>
        <time>2022-09-29T08:15:21Z</time>
      </trkpt>
      <trkpt lat="44.42718" lon="5.21054">
        <ele>546</ele>
        <time>2022-09-29T08:15:22Z</time>
      </trkpt>
      <trkpt lat="44.42717" lon="5.21054">
        <ele>546</ele>
        <time>2022-09-29T08:15:23Z</time>
      </trkpt>
      <trkpt lat="44.42717" lon="5.21054">
        <ele>546</ele>
        <time>2022-09-29T08:15:24Z</time>
      </trkpt>
      <trkpt lat="44.42716" lon="5.21054">
        <ele>545</ele>
        <time>2022-09-29T08:15:25Z</time>
      </trkpt>
      <trkpt lat="44.42715" lon="5.21055">
        <ele>545</ele>
        <time>2022-09-29T08:15:26Z</time>
      </trkpt>
      <trkpt lat="44.42714" lon="5.21054">
        <ele>545</ele>
        <time>2022-09-29T08:15:27Z</time>
      </trkpt>
      <trkpt lat="44.42714" lon="5.21054">
        <ele>545</ele>
        <time>2022-09-29T08:15:28Z</time>
      </trkpt>
      <trkpt lat="44.42713" lon="5.21054">
        <ele>545</ele>
        <time>2022-09-29T08:15:29Z</time>
      </trkpt>
      <trkpt lat="44.42712" lon="5.21054">
        <ele>544</ele>
        <time>2022-09-29T08:15:30Z</time>
      </trkpt>
      <trkpt lat="44.42712" lon="5.21055">
        <ele>544</ele>
        <time>2022-09-29T08:15:31Z</time>
      </trkpt>
      <trkpt lat="44.42711" lon="5.21055">
        <ele>544</ele>
        <time>2022-09-29T08:15:32Z</time>
      </trkpt>
      <trkpt lat="44.4271" lon="5.21055">
        <ele>544</ele>
        <time>2022-09-29T08:15:33Z</time>
      </trkpt>
      <trkpt lat="44.4271" lon="5.21055">
        <ele>544</ele>
        <time>2022-09-29T08:15:34Z</time>
      </trkpt>
      <trkpt lat="44.42709" lon="5.21056">
        <ele>544</ele>
        <time>2022-09-29T08:15:35Z</time>
      </trkpt>
      <trkpt lat="44.42709" lon="5.21056">
        <ele>544</ele>
        <time>2022-09-29T08:15:36Z</time>
      </trkpt>
      <trkpt lat="44.42708" lon="5.21057">
        <ele>544</ele>
        <time>2022-09-29T08:15:37Z</time>
      </trkpt>
      <trkpt lat="44.42707" lon="5.21057">
        <ele>544</ele>
        <time>2022-09-29T08:15:38Z</time>
      </trkpt>
      <trkpt lat="44.42707" lon="5.21057">
        <ele>544</ele>
        <time>2022-09-29T08:15:39Z</time>
      </trkpt>
      <trkpt lat="44.42706" lon="5.21057">
        <ele>543</ele>
        <time>2022-09-29T08:15:40Z</time>
      </trkpt>
      <trkpt lat="44.42705" lon="5.21057">
        <ele>543</ele>
        <time>2022-09-29T08:15:41Z</time>
      </trkpt>
      <trkpt lat="44.42704" lon="5.21057">
        <ele>543</ele>
        <time>2022-09-29T08:15:42Z</time>
      </trkpt>
      <trkpt lat="44.42703" lon="5.21058">
        <ele>543</ele>
        <time>2022-09-29T08:15:43Z</time>
      </trkpt>
      <trkpt lat="44.42702" lon="5.21058">
        <ele>543</ele>
        <time>2022-09-29T08:15:44Z</time>
      </trkpt>
      <trkpt lat="44.42701" lon="5.21058">
        <ele>543</ele>
        <time>2022-09-29T08:15:45Z</time>
      </trkpt>
      <trkpt lat="44.427" lon="5.21058">
        <ele>543</ele>
        <time>2022-09-29T08:15:46Z</time>
      </trkpt>
      <trkpt lat="44.42699" lon="5.21058">
        <ele>543</ele>
        <time>2022-09-29T08:15:47Z</time>
      </trkpt>
      <trkpt lat="44.42698" lon="5.21058">
        <ele>543</ele>
        <time>2022-09-29T08:15:48Z</time>
      </trkpt>
      <trkpt lat="44.42697" lon="5.21058">
        <ele>544</ele>
        <time>2022-09-29T08:15:49Z</time>
      </trkpt>
      <trkpt lat="44.42696" lon="5.21058">
        <ele>543</ele>
        <time>2022-09-29T08:15:50Z</time>
      </trkpt>
      <trkpt lat="44.42695" lon="5.21058">
        <ele>543</ele>
        <time>2022-09-29T08:15:51Z</time>
      </trkpt>
      <trkpt lat="44.42694" lon="5.21058">
        <ele>542</ele>
        <time>2022-09-29T08:15:52Z</time>
      </trkpt>
      <trkpt lat="44.42693" lon="5.21058">
        <ele>542</ele>
        <time>2022-09-29T08:15:53Z</time>
      </trkpt>
      <trkpt lat="44.42693" lon="5.21058">
        <ele>542</ele>
        <time>2022-09-29T08:15:54Z</time>
      </trkpt>
      <trkpt lat="44.42692" lon="5.21058">
        <ele>542</ele>
        <time>2022-09-29T08:15:55Z</time>
      </trkpt>
      <trkpt lat="44.42691" lon="5.21058">
        <ele>542</ele>
        <time>2022-09-29T08:15:56Z</time>
      </trkpt>
      <trkpt lat="44.42691" lon="5.21058">
        <ele>542</ele>
        <time>2022-09-29T08:15:57Z</time>
      </trkpt>
      <trkpt lat="44.4269" lon="5.21058">
        <ele>542</ele>
        <time>2022-09-29T08:15:58Z</time>
      </trkpt>
      <trkpt lat="44.4269" lon="5.21058">
        <ele>542</ele>
        <time>2022-09-29T08:15:59Z</time>
      </trkpt>
      <trkpt lat="44.42689" lon="5.21058">
        <ele>541</ele>
        <time>2022-09-29T08:16:00Z</time>
      </trkpt>
      <trkpt lat="44.42689" lon="5.21058">
        <ele>541</ele>
        <time>2022-09-29T08:16:01Z</time>
      </trkpt>
      <trkpt lat="44.42688" lon="5.21059">
        <ele>541</ele>
        <time>2022-09-29T08:16:02Z</time>
      </trkpt>
      <trkpt lat="44.42688" lon="5.21059">
        <ele>541</ele>
        <time>2022-09-29T08:16:03Z</time>
      </trkpt>
      <trkpt lat="44.42687" lon="5.2106">
        <ele>541</ele>
        <time>2022-09-29T08:16:04Z</time>
      </trkpt>
      <trkpt lat="44.42686" lon="5.2106">
        <ele>540</ele>
        <time>2022-09-29T08:16:05Z</time>
      </trkpt>
      <trkpt lat="44.42686" lon="5.21061">
        <ele>540</ele>
        <time>2022-09-29T08:16:06Z</time>
      </trkpt>
      <trkpt lat="44.42685" lon="5.21062">
        <ele>540</ele>
        <time>2022-09-29T08:16:07Z</time>
      </trkpt>
      <trkpt lat="44.42684" lon="5.21063">
        <ele>540</ele>
        <time>2022-09-29T08:16:08Z</time>
      </trkpt>
      <trkpt lat="44.42683" lon="5.21064">
        <ele>540</ele>
        <time>2022-09-29T08:16:09Z</time>
      </trkpt>
      <trkpt lat="44.42683" lon="5.21065">
        <ele>539</ele>
        <time>2022-09-29T08:16:10Z</time>
      </trkpt>
      <trkpt lat="44.42682" lon="5.21066">
        <ele>539</ele>
        <time>2022-09-29T08:16:11Z</time>
      </trkpt>
      <trkpt lat="44.42681" lon="5.21067">
        <ele>539</ele>
        <time>2022-09-29T08:16:12Z</time>
      </trkpt>
      <trkpt lat="44.4268" lon="5.21068">
        <ele>539</ele>
        <time>2022-09-29T08:16:13Z</time>
      </trkpt>
      <trkpt lat="44.4268" lon="5.21068">
        <ele>539</ele>
        <time>2022-09-29T08:16:14Z</time>
      </trkpt>
      <trkpt lat="44.42679" lon="5.21069">
        <ele>538</ele>
        <time>2022-09-29T08:16:15Z</time>
      </trkpt>
      <trkpt lat="44.42678" lon="5.2107">
        <ele>538</ele>
        <time>2022-09-29T08:16:16Z</time>
      </trkpt>
      <trkpt lat="44.42677" lon="5.21071">
        <ele>538</ele>
        <time>2022-09-29T08:16:17Z</time>
      </trkpt>
      <trkpt lat="44.42676" lon="5.21072">
        <ele>538</ele>
        <time>2022-09-29T08:16:18Z</time>
      </trkpt>
      <trkpt lat="44.42675" lon="5.21074">
        <ele>538</ele>
        <time>2022-09-29T08:16:19Z</time>
      </trkpt>
      <trkpt lat="44.42674" lon="5.21074">
        <ele>537</ele>
        <time>2022-09-29T08:16:20Z</time>
      </trkpt>
      <trkpt lat="44.42673" lon="5.21074">
        <ele>537</ele>
        <time>2022-09-29T08:16:21Z</time>
      </trkpt>
      <trkpt lat="44.42673" lon="5.21075">
        <ele>537</ele>
        <time>2022-09-29T08:16:22Z</time>
      </trkpt>
      <trkpt lat="44.42672" lon="5.21075">
        <ele>537</ele>
        <time>2022-09-29T08:16:23Z</time>
      </trkpt>
      <trkpt lat="44.42671" lon="5.21076">
        <ele>537</ele>
        <time>2022-09-29T08:16:24Z</time>
      </trkpt>
      <trkpt lat="44.42671" lon="5.21076">
        <ele>536</ele>
        <time>2022-09-29T08:16:25Z</time>
      </trkpt>
      <trkpt lat="44.4267" lon="5.21077">
        <ele>536</ele>
        <time>2022-09-29T08:16:26Z</time>
      </trkpt>
      <trkpt lat="44.42669" lon="5.21078">
        <ele>536</ele>
        <time>2022-09-29T08:16:27Z</time>
      </trkpt>
      <trkpt lat="44.42669" lon="5.21078">
        <ele>536</ele>
        <time>2022-09-29T08:16:28Z</time>
      </trkpt>
      <trkpt lat="44.42668" lon="5.2108">
        <ele>536</ele>
        <time>2022-09-29T08:16:29Z</time>
      </trkpt>
      <trkpt lat="44.42668" lon="5.21081">
        <ele>535</ele>
        <time>2022-09-29T08:16:30Z</time>
      </trkpt>
      <trkpt lat="44.42667" lon="5.21081">
        <ele>535</ele>
        <time>2022-09-29T08:16:31Z</time>
      </trkpt>
      <trkpt lat="44.42667" lon="5.21082">
        <ele>535</ele>
        <time>2022-09-29T08:16:32Z</time>
      </trkpt>
      <trkpt lat="44.42666" lon="5.21083">
        <ele>535</ele>
        <time>2022-09-29T08:16:33Z</time>
      </trkpt>
      <trkpt lat="44.42665" lon="5.21084">
        <ele>535</ele>
        <time>2022-09-29T08:16:34Z</time>
      </trkpt>
      <trkpt lat="44.42665" lon="5.21085">
        <ele>534</ele>
        <time>2022-09-29T08:16:35Z</time>
      </trkpt>
      <trkpt lat="44.42664" lon="5.21086">
        <ele>534</ele>
        <time>2022-09-29T08:16:36Z</time>
      </trkpt>
      <trkpt lat="44.42663" lon="5.21086">
        <ele>534</ele>
        <time>2022-09-29T08:16:37Z</time>
      </trkpt>
      <trkpt lat="44.42663" lon="5.21087">
        <ele>534</ele>
        <time>2022-09-29T08:16:38Z</time>
      </trkpt>
      <trkpt lat="44.42662" lon="5.21088">
        <ele>534</ele>
        <time>2022-09-29T08:16:39Z</time>
      </trkpt>
      <trkpt lat="44.42662" lon="5.21089">
        <ele>533</ele>
        <time>2022-09-29T08:16:40Z</time>
      </trkpt>
      <trkpt lat="44.42661" lon="5.2109">
        <ele>533</ele>
        <time>2022-09-29T08:16:41Z</time>
      </trkpt>
      <trkpt lat="44.42661" lon="5.21091">
        <ele>533</ele>
        <time>2022-09-29T08:16:42Z</time>
      </trkpt>
      <trkpt lat="44.4266" lon="5.21092">
        <ele>533</ele>
        <time>2022-09-29T08:16:43Z</time>
      </trkpt>
      <trkpt lat="44.4266" lon="5.21092">
        <ele>533</ele>
        <time>2022-09-29T08:16:44Z</time>
      </trkpt>
      <trkpt lat="44.42659" lon="5.21093">
        <ele>532</ele>
        <time>2022-09-29T08:16:45Z</time>
      </trkpt>
      <trkpt lat="44.42659" lon="5.21094">
        <ele>532</ele>
        <time>2022-09-29T08:16:46Z</time>
      </trkpt>
      <trkpt lat="44.42658" lon="5.21095">
        <ele>532</ele>
        <time>2022-09-29T08:16:47Z</time>
      </trkpt>
      <trkpt lat="44.42657" lon="5.21095">
        <ele>532</ele>
        <time>2022-09-29T08:16:48Z</time>
      </trkpt>
      <trkpt lat="44.42656" lon="5.21096">
        <ele>532</ele>
        <time>2022-09-29T08:16:49Z</time>
      </trkpt>
      <trkpt lat="44.42656" lon="5.21097">
        <ele>532</ele>
        <time>2022-09-29T08:16:50Z</time>
      </trkpt>
      <trkpt lat="44.42655" lon="5.21098">
        <ele>532</ele>
        <time>2022-09-29T08:16:51Z</time>
      </trkpt>
      <trkpt lat="44.42654" lon="5.21098">
        <ele>532</ele>
        <time>2022-09-29T08:16:52Z</time>
      </trkpt>
      <trkpt lat="44.42653" lon="5.21099">
        <ele>532</ele>
        <time>2022-09-29T08:16:53Z</time>
      </trkpt>
      <trkpt lat="44.42653" lon="5.211">
        <ele>532</ele>
        <time>2022-09-29T08:16:54Z</time>
      </trkpt>
      <trkpt lat="44.42652" lon="5.21101">
        <ele>531</ele>
        <time>2022-09-29T08:16:55Z</time>
      </trkpt>
      <trkpt lat="44.42651" lon="5.21102">
        <ele>531</ele>
        <time>2022-09-29T08:16:56Z</time>
      </trkpt>
      <trkpt lat="44.4265" lon="5.21102">
        <ele>531</ele>
        <time>2022-09-29T08:16:57Z</time>
      </trkpt>
      <trkpt lat="44.4265" lon="5.21103">
        <ele>531</ele>
        <time>2022-09-29T08:16:58Z</time>
      </trkpt>
      <trkpt lat="44.42649" lon="5.21104">
        <ele>531</ele>
        <time>2022-09-29T08:16:59Z</time>
      </trkpt>
      <trkpt lat="44.42648" lon="5.21105">
        <ele>530</ele>
        <time>2022-09-29T08:17:00Z</time>
      </trkpt>
      <trkpt lat="44.42648" lon="5.21106">
        <ele>530</ele>
        <time>2022-09-29T08:17:01Z</time>
      </trkpt>
      <trkpt lat="44.42647" lon="5.21107">
        <ele>530</ele>
        <time>2022-09-29T08:17:02Z</time>
      </trkpt>
      <trkpt lat="44.42647" lon="5.21108">
        <ele>530</ele>
        <time>2022-09-29T08:17:03Z</time>
      </trkpt>
      <trkpt lat="44.42646" lon="5.21108">
        <ele>530</ele>
        <time>2022-09-29T08:17:04Z</time>
      </trkpt>
      <trkpt lat="44.42646" lon="5.21109">
        <ele>530</ele>
        <time>2022-09-29T08:17:05Z</time>
      </trkpt>
      <trkpt lat="44.42645" lon="5.2111">
        <ele>530</ele>
        <time>2022-09-29T08:17:06Z</time>
      </trkpt>
      <trkpt lat="44.42645" lon="5.21111">
        <ele>530</ele>
        <time>2022-09-29T08:17:07Z</time>
      </trkpt>
      <trkpt lat="44.42644" lon="5.21112">
        <ele>530</ele>
        <time>2022-09-29T08:17:08Z</time>
      </trkpt>
      <trkpt lat="44.42644" lon="5.21113">
        <ele>530</ele>
        <time>2022-09-29T08:17:09Z</time>
      </trkpt>
      <trkpt lat="44.42643" lon="5.21114">
        <ele>529</ele>
        <time>2022-09-29T08:17:10Z</time>
      </trkpt>
      <trkpt lat="44.42643" lon="5.21116">
        <ele>529</ele>
        <time>2022-09-29T08:17:11Z</time>
      </trkpt>
      <trkpt lat="44.42642" lon="5.21117">
        <ele>529</ele>
        <time>2022-09-29T08:17:12Z</time>
      </trkpt>
      <trkpt lat="44.42642" lon="5.21118">
        <ele>529</ele>
        <time>2022-09-29T08:17:13Z</time>
      </trkpt>
      <trkpt lat="44.42641" lon="5.21119">
        <ele>529</ele>
        <time>2022-09-29T08:17:14Z</time>
      </trkpt>
      <trkpt lat="44.42641" lon="5.2112">
        <ele>528</ele>
        <time>2022-09-29T08:17:15Z</time>
      </trkpt>
      <trkpt lat="44.4264" lon="5.21121">
        <ele>528</ele>
        <time>2022-09-29T08:17:16Z</time>
      </trkpt>
      <trkpt lat="44.42639" lon="5.21122">
        <ele>528</ele>
        <time>2022-09-29T08:17:17Z</time>
      </trkpt>
      <trkpt lat="44.42638" lon="5.21123">
        <ele>528</ele>
        <time>2022-09-29T08:17:18Z</time>
      </trkpt>
      <trkpt lat="44.42638" lon="5.21124">
        <ele>528</ele>
        <time>2022-09-29T08:17:19Z</time>
      </trkpt>
      <trkpt lat="44.42637" lon="5.21125">
        <ele>528</ele>
        <time>2022-09-29T08:17:20Z</time>
      </trkpt>
      <trkpt lat="44.42636" lon="5.21126">
        <ele>528</ele>
        <time>2022-09-29T08:17:21Z</time>
      </trkpt>
      <trkpt lat="44.42635" lon="5.21127">
        <ele>528</ele>
        <time>2022-09-29T08:17:22Z</time>
      </trkpt>
      <trkpt lat="44.42635" lon="5.21127">
        <ele>528</ele>
        <time>2022-09-29T08:17:23Z</time>
      </trkpt>
      <trkpt lat="44.42634" lon="5.21128">
        <ele>528</ele>
        <time>2022-09-29T08:17:24Z</time>
      </trkpt>
      <trkpt lat="44.42634" lon="5.21129">
        <ele>527</ele>
        <time>2022-09-29T08:17:25Z</time>
      </trkpt>
      <trkpt lat="44.42633" lon="5.21129">
        <ele>527</ele>
        <time>2022-09-29T08:17:26Z</time>
      </trkpt>
      <trkpt lat="44.42633" lon="5.2113">
        <ele>527</ele>
        <time>2022-09-29T08:17:27Z</time>
      </trkpt>
      <trkpt lat="44.42632" lon="5.21131">
        <ele>527</ele>
        <time>2022-09-29T08:17:28Z</time>
      </trkpt>
      <trkpt lat="44.42632" lon="5.21132">
        <ele>527</ele>
        <time>2022-09-29T08:17:29Z</time>
      </trkpt>
      <trkpt lat="44.42631" lon="5.21133">
        <ele>527</ele>
        <time>2022-09-29T08:17:30Z</time>
      </trkpt>
      <trkpt lat="44.42631" lon="5.21134">
        <ele>527</ele>
        <time>2022-09-29T08:17:31Z</time>
      </trkpt>
      <trkpt lat="44.4263" lon="5.21135">
        <ele>527</ele>
        <time>2022-09-29T08:17:32Z</time>
      </trkpt>
      <trkpt lat="44.4263" lon="5.21136">
        <ele>527</ele>
        <time>2022-09-29T08:17:33Z</time>
      </trkpt>
      <trkpt lat="44.42629" lon="5.21137">
        <ele>527</ele>
        <time>2022-09-29T08:17:34Z</time>
      </trkpt>
      <trkpt lat="44.42628" lon="5.21138">
        <ele>526</ele>
        <time>2022-09-29T08:17:35Z</time>
      </trkpt>
      <trkpt lat="44.42628" lon="5.21139">
        <ele>526</ele>
        <time>2022-09-29T08:17:36Z</time>
      </trkpt>
      <trkpt lat="44.42628" lon="5.2114">
        <ele>526</ele>
        <time>2022-09-29T08:17:37Z</time>
      </trkpt>
      <trkpt lat="44.42627" lon="5.21141">
        <ele>526</ele>
        <time>2022-09-29T08:17:38Z</time>
      </trkpt>
      <trkpt lat="44.42627" lon="5.21142">
        <ele>526</ele>
        <time>2022-09-29T08:17:39Z</time>
      </trkpt>
      <trkpt lat="44.42626" lon="5.21143">
        <ele>525</ele>
        <time>2022-09-29T08:17:40Z</time>
      </trkpt>
      <trkpt lat="44.42626" lon="5.21145">
        <ele>525</ele>
        <time>2022-09-29T08:17:41Z</time>
      </trkpt>
      <trkpt lat="44.42626" lon="5.21146">
        <ele>525</ele>
        <time>2022-09-29T08:17:42Z</time>
      </trkpt>
      <trkpt lat="44.42626" lon="5.21147">
        <ele>525</ele>
        <time>2022-09-29T08:17:43Z</time>
      </trkpt>
      <trkpt lat="44.42626" lon="5.21149">
        <ele>525</ele>
        <time>2022-09-29T08:17:44Z</time>
      </trkpt>
      <trkpt lat="44.42625" lon="5.2115">
        <ele>525</ele>
        <time>2022-09-29T08:17:45Z</time>
      </trkpt>
      <trkpt lat="44.42625" lon="5.21151">
        <ele>525</ele>
        <time>2022-09-29T08:17:46Z</time>
      </trkpt>
      <trkpt lat="44.42625" lon="5.21153">
        <ele>525</ele>
        <time>2022-09-29T08:17:47Z</time>
      </trkpt>
      <trkpt lat="44.42625" lon="5.21154">
        <ele>525</ele>
        <time>2022-09-29T08:17:48Z</time>
      </trkpt>
      <trkpt lat="44.42624" lon="5.21155">
        <ele>525</ele>
        <time>2022-09-29T08:17:49Z</time>
      </trkpt>
      <trkpt lat="44.42624" lon="5.21156">
        <ele>524</ele>
        <time>2022-09-29T08:17:50Z</time>
      </trkpt>
      <trkpt lat="44.42624" lon="5.21158">
        <ele>524</ele>
        <time>2022-09-29T08:17:51Z</time>
      </trkpt>
      <trkpt lat="44.42624" lon="5.21159">
        <ele>524</ele>
        <time>2022-09-29T08:17:52Z</time>
      </trkpt>
      <trkpt lat="44.42623" lon="5.2116">
        <ele>524</ele>
        <time>2022-09-29T08:17:53Z</time>
      </trkpt>
      <trkpt lat="44.42623" lon="5.21162">
        <ele>524</ele>
        <time>2022-09-29T08:17:54Z</time>
      </trkpt>
      <trkpt lat="44.42623" lon="5.21163">
        <ele>523</ele>
        <time>2022-09-29T08:17:55Z</time>
      </trkpt>
      <trkpt lat="44.42623" lon="5.21164">
        <ele>523</ele>
        <time>2022-09-29T08:17:56Z</time>
      </trkpt>
      <trkpt lat="44.42623" lon="5.21165">
        <ele>523</ele>
        <time>2022-09-29T08:17:57Z</time>
      </trkpt>
      <trkpt lat="44.42623" lon="5.21167">
        <ele>523</ele>
        <time>2022-09-29T08:17:58Z</time>
      </trkpt>
      <trkpt lat="44.42623" lon="5.21168">
        <ele>523</ele>
        <time>2022-09-29T08:17:59Z</time>
      </trkpt>
      <trkpt lat="44.42623" lon="5.21169">
        <ele>523</ele>
        <time>2022-09-29T08:18:00Z</time>
      </trkpt>
      <trkpt lat="44.42622" lon="5.2117">
        <ele>523</ele>
        <time>2022-09-29T08:18:01Z</time>
      </trkpt>
      <trkpt lat="44.42623" lon="5.21178">
        <ele>521</ele>
        <time>2022-09-29T08:19:51Z</time>
      </trkpt>
      <trkpt lat="44.42623" lon="5.21181">
        <ele>521</ele>
        <time>2022-09-29T08:19:52Z</time>
      </trkpt>
      <trkpt lat="44.42623" lon="5.21185">
        <ele>521</ele>
        <time>2022-09-29T08:19:53Z</time>
      </trkpt>
      <trkpt lat="44.42624" lon="5.21187">
        <ele>521</ele>
        <time>2022-09-29T08:19:54Z</time>
      </trkpt>
      <trkpt lat="44.42624" lon="5.21189">
        <ele>521</ele>
        <time>2022-09-29T08:19:55Z</time>
      </trkpt>
      <trkpt lat="44.42623" lon="5.2119">
        <ele>521</ele>
        <time>2022-09-29T08:19:56Z</time>
      </trkpt>
      <trkpt lat="44.42623" lon="5.21192">
        <ele>521</ele>
        <time>2022-09-29T08:19:57Z</time>
      </trkpt>
      <trkpt lat="44.42623" lon="5.21193">
        <ele>521</ele>
        <time>2022-09-29T08:19:58Z</time>
      </trkpt>
      <trkpt lat="44.42623" lon="5.21194">
        <ele>521</ele>
        <time>2022-09-29T08:19:59Z</time>
      </trkpt>
      <trkpt lat="44.42622" lon="5.21195">
        <ele>521</ele>
        <time>2022-09-29T08:20:00Z</time>
      </trkpt>
      <trkpt lat="44.42622" lon="5.21197">
        <ele>521</ele>
        <time>2022-09-29T08:20:01Z</time>
      </trkpt>
      <trkpt lat="44.42621" lon="5.21198">
        <ele>521</ele>
        <time>2022-09-29T08:20:02Z</time>
      </trkpt>
      <trkpt lat="44.42621" lon="5.21199">
        <ele>521</ele>
        <time>2022-09-29T08:20:03Z</time>
      </trkpt>
      <trkpt lat="44.42621" lon="5.212">
        <ele>521</ele>
        <time>2022-09-29T08:20:04Z</time>
      </trkpt>
      <trkpt lat="44.4262" lon="5.21201">
        <ele>520</ele>
        <time>2022-09-29T08:20:05Z</time>
      </trkpt>
      <trkpt lat="44.4262" lon="5.21203">
        <ele>520</ele>
        <time>2022-09-29T08:20:06Z</time>
      </trkpt>
      <trkpt lat="44.42619" lon="5.21204">
        <ele>520</ele>
        <time>2022-09-29T08:20:07Z</time>
      </trkpt>
      <trkpt lat="44.42619" lon="5.21205">
        <ele>520</ele>
        <time>2022-09-29T08:20:08Z</time>
      </trkpt>
      <trkpt lat="44.42619" lon="5.21206">
        <ele>520</ele>
        <time>2022-09-29T08:20:09Z</time>
      </trkpt>
      <trkpt lat="44.42618" lon="5.21207">
        <ele>520</ele>
        <time>2022-09-29T08:20:10Z</time>
      </trkpt>
      <trkpt lat="44.42618" lon="5.21208">
        <ele>520</ele>
        <time>2022-09-29T08:20:11Z</time>
      </trkpt>
      <trkpt lat="44.42617" lon="5.21209">
        <ele>520</ele>
        <time>2022-09-29T08:20:12Z</time>
      </trkpt>
      <trkpt lat="44.42617" lon="5.2121">
        <ele>520</ele>
        <time>2022-09-29T08:20:13Z</time>
      </trkpt>
      <trkpt lat="44.42617" lon="5.21211">
        <ele>520</ele>
        <time>2022-09-29T08:20:14Z</time>
      </trkpt>
      <trkpt lat="44.42616" lon="5.21212">
        <ele>519</ele>
        <time>2022-09-29T08:20:15Z</time>
      </trkpt>
      <trkpt lat="44.42616" lon="5.21213">
        <ele>519</ele>
        <time>2022-09-29T08:20:16Z</time>
      </trkpt>
      <trkpt lat="44.42616" lon="5.21214">
        <ele>519</ele>
        <time>2022-09-29T08:20:17Z</time>
      </trkpt>
      <trkpt lat="44.42618" lon="5.21216">
        <ele>518</ele>
        <time>2022-09-29T08:20:24Z</time>
      </trkpt>
      <trkpt lat="44.42618" lon="5.21217">
        <ele>518</ele>
        <time>2022-09-29T08:20:25Z</time>
      </trkpt>
      <trkpt lat="44.42619" lon="5.21217">
        <ele>518</ele>
        <time>2022-09-29T08:20:26Z</time>
      </trkpt>
      <trkpt lat="44.4262" lon="5.21217">
        <ele>518</ele>
        <time>2022-09-29T08:20:27Z</time>
      </trkpt>
      <trkpt lat="44.42621" lon="5.21217">
        <ele>518</ele>
        <time>2022-09-29T08:20:28Z</time>
      </trkpt>
      <trkpt lat="44.42622" lon="5.21218">
        <ele>518</ele>
        <time>2022-09-29T08:20:29Z</time>
      </trkpt>
      <trkpt lat="44.42623" lon="5.21218">
        <ele>517</ele>
        <time>2022-09-29T08:20:30Z</time>
      </trkpt>
      <trkpt lat="44.42623" lon="5.21219">
        <ele>517</ele>
        <time>2022-09-29T08:20:31Z</time>
      </trkpt>
      <trkpt lat="44.42624" lon="5.2122">
        <ele>516</ele>
        <time>2022-09-29T08:20:32Z</time>
      </trkpt>
      <trkpt lat="44.42624" lon="5.2122">
        <ele>516</ele>
        <time>2022-09-29T08:20:33Z</time>
      </trkpt>
      <trkpt lat="44.42624" lon="5.21221">
        <ele>516</ele>
        <time>2022-09-29T08:20:34Z</time>
      </trkpt>
      <trkpt lat="44.42625" lon="5.21222">
        <ele>515</ele>
        <time>2022-09-29T08:20:35Z</time>
      </trkpt>
      <trkpt lat="44.42625" lon="5.21224">
        <ele>515</ele>
        <time>2022-09-29T08:20:36Z</time>
      </trkpt>
      <trkpt lat="44.42625" lon="5.21225">
        <ele>515</ele>
        <time>2022-09-29T08:20:37Z</time>
      </trkpt>
      <trkpt lat="44.42625" lon="5.21226">
        <ele>515</ele>
        <time>2022-09-29T08:20:38Z</time>
      </trkpt>
      <trkpt lat="44.42626" lon="5.21227">
        <ele>515</ele>
        <time>2022-09-29T08:20:39Z</time>
      </trkpt>
      <trkpt lat="44.42626" lon="5.21228">
        <ele>514</ele>
        <time>2022-09-29T08:20:40Z</time>
      </trkpt>
      <trkpt lat="44.42627" lon="5.21229">
        <ele>514</ele>
        <time>2022-09-29T08:20:41Z</time>
      </trkpt>
      <trkpt lat="44.42627" lon="5.2123">
        <ele>514</ele>
        <time>2022-09-29T08:20:42Z</time>
      </trkpt>
      <trkpt lat="44.42628" lon="5.21231">
        <ele>514</ele>
        <time>2022-09-29T08:20:43Z</time>
      </trkpt>
      <trkpt lat="44.42628" lon="5.21232">
        <ele>514</ele>
        <time>2022-09-29T08:20:44Z</time>
      </trkpt>
      <trkpt lat="44.42629" lon="5.21233">
        <ele>513</ele>
        <time>2022-09-29T08:20:45Z</time>
      </trkpt>
      <trkpt lat="44.42629" lon="5.21234">
        <ele>513</ele>
        <time>2022-09-29T08:20:46Z</time>
      </trkpt>
      <trkpt lat="44.4263" lon="5.21236">
        <ele>513</ele>
        <time>2022-09-29T08:20:47Z</time>
      </trkpt>
      <trkpt lat="44.42631" lon="5.21237">
        <ele>513</ele>
        <time>2022-09-29T08:20:48Z</time>
      </trkpt>
      <trkpt lat="44.42631" lon="5.21238">
        <ele>513</ele>
        <time>2022-09-29T08:20:49Z</time>
      </trkpt>
      <trkpt lat="44.42631" lon="5.2124">
        <ele>512</ele>
        <time>2022-09-29T08:20:50Z</time>
      </trkpt>
      <trkpt lat="44.42631" lon="5.21241">
        <ele>512</ele>
        <time>2022-09-29T08:20:51Z</time>
      </trkpt>
      <trkpt lat="44.42631" lon="5.21242">
        <ele>512</ele>
        <time>2022-09-29T08:20:52Z</time>
      </trkpt>
      <trkpt lat="44.42632" lon="5.21243">
        <ele>512</ele>
        <time>2022-09-29T08:20:53Z</time>
      </trkpt>
      <trkpt lat="44.42632" lon="5.21244">
        <ele>512</ele>
        <time>2022-09-29T08:20:54Z</time>
      </trkpt>
      <trkpt lat="44.42632" lon="5.21245">
        <ele>511</ele>
        <time>2022-09-29T08:20:55Z</time>
      </trkpt>
      <trkpt lat="44.42632" lon="5.21246">
        <ele>511</ele>
        <time>2022-09-29T08:20:56Z</time>
      </trkpt>
      <trkpt lat="44.42632" lon="5.21247">
        <ele>511</ele>
        <time>2022-09-29T08:20:57Z</time>
      </trkpt>
      <trkpt lat="44.42632" lon="5.21248">
        <ele>511</ele>
        <time>2022-09-29T08:20:58Z</time>
      </trkpt>
      <trkpt lat="44.42632" lon="5.21249">
        <ele>511</ele>
        <time>2022-09-29T08:20:59Z</time>
      </trkpt>
      <trkpt lat="44.42632" lon="5.2125">
        <ele>510</ele>
        <time>2022-09-29T08:21:00Z</time>
      </trkpt>
      <trkpt lat="44.42632" lon="5.21251">
        <ele>510</ele>
        <time>2022-09-29T08:21:01Z</time>
      </trkpt>
      <trkpt lat="44.42632" lon="5.21252">
        <ele>510</ele>
        <time>2022-09-29T08:21:02Z</time>
      </trkpt>
      <trkpt lat="44.42632" lon="5.21253">
        <ele>510</ele>
        <time>2022-09-29T08:21:03Z</time>
      </trkpt>
      <trkpt lat="44.42632" lon="5.21254">
        <ele>510</ele>
        <time>2022-09-29T08:21:04Z</time>
      </trkpt>
      <trkpt lat="44.42632" lon="5.21255">
        <ele>509</ele>
        <time>2022-09-29T08:21:05Z</time>
      </trkpt>
      <trkpt lat="44.42633" lon="5.21256">
        <ele>509</ele>
        <time>2022-09-29T08:21:06Z</time>
      </trkpt>
      <trkpt lat="44.42633" lon="5.21257">
        <ele>509</ele>
        <time>2022-09-29T08:21:07Z</time>
      </trkpt>
      <trkpt lat="44.42633" lon="5.21257">
        <ele>509</ele>
        <time>2022-09-29T08:21:08Z</time>
      </trkpt>
      <trkpt lat="44.42634" lon="5.21258">
        <ele>509</ele>
        <time>2022-09-29T08:21:09Z</time>
      </trkpt>
      <trkpt lat="44.42634" lon="5.21259">
        <ele>508</ele>
        <time>2022-09-29T08:21:10Z</time>
      </trkpt>
      <trkpt lat="44.42635" lon="5.21259">
        <ele>508</ele>
        <time>2022-09-29T08:21:11Z</time>
      </trkpt>
      <trkpt lat="44.42635" lon="5.2126">
        <ele>508</ele>
        <time>2022-09-29T08:21:12Z</time>
      </trkpt>
      <trkpt lat="44.42636" lon="5.2126">
        <ele>508</ele>
        <time>2022-09-29T08:21:13Z</time>
      </trkpt>
      <trkpt lat="44.42637" lon="5.2126">
        <ele>508</ele>
        <time>2022-09-29T08:21:14Z</time>
      </trkpt>
      <trkpt lat="44.42638" lon="5.2126">
        <ele>507</ele>
        <time>2022-09-29T08:21:15Z</time>
      </trkpt>
      <trkpt lat="44.42638" lon="5.21261">
        <ele>507</ele>
        <time>2022-09-29T08:21:16Z</time>
      </trkpt>
      <trkpt lat="44.42639" lon="5.21262">
        <ele>507</ele>
        <time>2022-09-29T08:21:17Z</time>
      </trkpt>
      <trkpt lat="44.42639" lon="5.21263">
        <ele>507</ele>
        <time>2022-09-29T08:21:18Z</time>
      </trkpt>
      <trkpt lat="44.4264" lon="5.21264">
        <ele>507</ele>
        <time>2022-09-29T08:21:19Z</time>
      </trkpt>
      <trkpt lat="44.4264" lon="5.21265">
        <ele>506</ele>
        <time>2022-09-29T08:21:20Z</time>
      </trkpt>
      <trkpt lat="44.4264" lon="5.21266">
        <ele>506</ele>
        <time>2022-09-29T08:21:21Z</time>
      </trkpt>
      <trkpt lat="44.4264" lon="5.21267">
        <ele>506</ele>
        <time>2022-09-29T08:21:22Z</time>
      </trkpt>
      <trkpt lat="44.4264" lon="5.21267">
        <ele>506</ele>
        <time>2022-09-29T08:21:23Z</time>
      </trkpt>
      <trkpt lat="44.4264" lon="5.21268">
        <ele>506</ele>
        <time>2022-09-29T08:21:24Z</time>
      </trkpt>
      <trkpt lat="44.4264" lon="5.21269">
        <ele>505</ele>
        <time>2022-09-29T08:21:25Z</time>
      </trkpt>
      <trkpt lat="44.4264" lon="5.2127">
        <ele>505</ele>
        <time>2022-09-29T08:21:26Z</time>
      </trkpt>
      <trkpt lat="44.4264" lon="5.21271">
        <ele>505</ele>
        <time>2022-09-29T08:21:27Z</time>
      </trkpt>
      <trkpt lat="44.4264" lon="5.21272">
        <ele>505</ele>
        <time>2022-09-29T08:21:28Z</time>
      </trkpt>
      <trkpt lat="44.42641" lon="5.21273">
        <ele>505</ele>
        <time>2022-09-29T08:21:29Z</time>
      </trkpt>
      <trkpt lat="44.42641" lon="5.21275">
        <ele>504</ele>
        <time>2022-09-29T08:21:30Z</time>
      </trkpt>
      <trkpt lat="44.42641" lon="5.21276">
        <ele>504</ele>
        <time>2022-09-29T08:21:31Z</time>
      </trkpt>
      <trkpt lat="44.42641" lon="5.21277">
        <ele>504</ele>
        <time>2022-09-29T08:21:32Z</time>
      </trkpt>
      <trkpt lat="44.42642" lon="5.21278">
        <ele>504</ele>
        <time>2022-09-29T08:21:33Z</time>
      </trkpt>
      <trkpt lat="44.42642" lon="5.21279">
        <ele>504</ele>
        <time>2022-09-29T08:21:34Z</time>
      </trkpt>
      <trkpt lat="44.42643" lon="5.2128">
        <ele>503</ele>
        <time>2022-09-29T08:21:35Z</time>
      </trkpt>
      <trkpt lat="44.42643" lon="5.2128">
        <ele>503</ele>
        <time>2022-09-29T08:21:36Z</time>
      </trkpt>
      <trkpt lat="44.42644" lon="5.21281">
        <ele>503</ele>
        <time>2022-09-29T08:21:37Z</time>
      </trkpt>
      <trkpt lat="44.42645" lon="5.21282">
        <ele>503</ele>
        <time>2022-09-29T08:21:38Z</time>
      </trkpt>
      <trkpt lat="44.42645" lon="5.21283">
        <ele>503</ele>
        <time>2022-09-29T08:21:39Z</time>
      </trkpt>
      <trkpt lat="44.42646" lon="5.21283">
        <ele>502</ele>
        <time>2022-09-29T08:21:40Z</time>
      </trkpt>
      <trkpt lat="44.42646" lon="5.21284">
        <ele>502</ele>
        <time>2022-09-29T08:21:41Z</time>
      </trkpt>
      <trkpt lat="44.42647" lon="5.21285">
        <ele>502</ele>
        <time>2022-09-29T08:21:42Z</time>
      </trkpt>
      <trkpt lat="44.42648" lon="5.21286">
        <ele>502</ele>
        <time>2022-09-29T08:21:43Z</time>
      </trkpt>
      <trkpt lat="44.42648" lon="5.21286">
        <ele>502</ele>
        <time>2022-09-29T08:21:44Z</time>
      </trkpt>
      <trkpt lat="44.42648" lon="5.21287">
        <ele>501</ele>
        <time>2022-09-29T08:21:45Z</time>
      </trkpt>
      <trkpt lat="44.42649" lon="5.21287">
        <ele>501</ele>
        <time>2022-09-29T08:21:46Z</time>
      </trkpt>
      <trkpt lat="44.42649" lon="5.21288">
        <ele>500</ele>
        <time>2022-09-29T08:21:47Z</time>
      </trkpt>
      <trkpt lat="44.42649" lon="5.21288">
        <ele>500</ele>
        <time>2022-09-29T08:21:48Z</time>
      </trkpt>
      <trkpt lat="44.4265" lon="5.2129">
        <ele>500</ele>
        <time>2022-09-29T08:21:49Z</time>
      </trkpt>
      <trkpt lat="44.42651" lon="5.21291">
        <ele>499</ele>
        <time>2022-09-29T08:21:50Z</time>
      </trkpt>
      <trkpt lat="44.42652" lon="5.21292">
        <ele>499</ele>
        <time>2022-09-29T08:21:51Z</time>
      </trkpt>
      <trkpt lat="44.42653" lon="5.21293">
        <ele>499</ele>
        <time>2022-09-29T08:21:52Z</time>
      </trkpt>
      <trkpt lat="44.42653" lon="5.21293">
        <ele>499</ele>
        <time>2022-09-29T08:21:53Z</time>
      </trkpt>
      <trkpt lat="44.42654" lon="5.21294">
        <ele>499</ele>
        <time>2022-09-29T08:21:54Z</time>
      </trkpt>
      <trkpt lat="44.42654" lon="5.21295">
        <ele>498</ele>
        <time>2022-09-29T08:21:55Z</time>
      </trkpt>
      <trkpt lat="44.42655" lon="5.21297">
        <ele>497</ele>
        <time>2022-09-29T08:22:04Z</time>
      </trkpt>
      <trkpt lat="44.42656" lon="5.21298">
        <ele>496</ele>
        <time>2022-09-29T08:22:05Z</time>
      </trkpt>
      <trkpt lat="44.42657" lon="5.21299">
        <ele>496</ele>
        <time>2022-09-29T08:22:06Z</time>
      </trkpt>
      <trkpt lat="44.42657" lon="5.213">
        <ele>496</ele>
        <time>2022-09-29T08:22:07Z</time>
      </trkpt>
      <trkpt lat="44.42658" lon="5.21301">
        <ele>496</ele>
        <time>2022-09-29T08:22:08Z</time>
      </trkpt>
      <trkpt lat="44.42659" lon="5.21302">
        <ele>496</ele>
        <time>2022-09-29T08:22:09Z</time>
      </trkpt>
      <trkpt lat="44.42659" lon="5.21302">
        <ele>495</ele>
        <time>2022-09-29T08:22:10Z</time>
      </trkpt>
      <trkpt lat="44.42661" lon="5.21304">
        <ele>494</ele>
        <time>2022-09-29T08:22:18Z</time>
      </trkpt>
      <trkpt lat="44.42662" lon="5.21305">
        <ele>494</ele>
        <time>2022-09-29T08:22:19Z</time>
      </trkpt>
      <trkpt lat="44.42663" lon="5.21306">
        <ele>493</ele>
        <time>2022-09-29T08:22:20Z</time>
      </trkpt>
      <trkpt lat="44.42664" lon="5.21307">
        <ele>493</ele>
        <time>2022-09-29T08:22:21Z</time>
      </trkpt>
      <trkpt lat="44.42665" lon="5.21308">
        <ele>493</ele>
        <time>2022-09-29T08:22:22Z</time>
      </trkpt>
      <trkpt lat="44.42666" lon="5.21308">
        <ele>493</ele>
        <time>2022-09-29T08:22:23Z</time>
      </trkpt>
      <trkpt lat="44.42667" lon="5.21309">
        <ele>493</ele>
        <time>2022-09-29T08:22:24Z</time>
      </trkpt>
      <trkpt lat="44.42668" lon="5.21309">
        <ele>492</ele>
        <time>2022-09-29T08:22:25Z</time>
      </trkpt>
      <trkpt lat="44.42669" lon="5.2131">
        <ele>492</ele>
        <time>2022-09-29T08:22:26Z</time>
      </trkpt>
      <trkpt lat="44.4267" lon="5.2131">
        <ele>492</ele>
        <time>2022-09-29T08:22:27Z</time>
      </trkpt>
      <trkpt lat="44.4267" lon="5.21311">
        <ele>492</ele>
        <time>2022-09-29T08:22:28Z</time>
      </trkpt>
      <trkpt lat="44.42671" lon="5.21312">
        <ele>492</ele>
        <time>2022-09-29T08:22:29Z</time>
      </trkpt>
      <trkpt lat="44.42672" lon="5.21313">
        <ele>491</ele>
        <time>2022-09-29T08:22:30Z</time>
      </trkpt>
      <trkpt lat="44.42672" lon="5.21315">
        <ele>491</ele>
        <time>2022-09-29T08:22:31Z</time>
      </trkpt>
      <trkpt lat="44.42672" lon="5.21316">
        <ele>491</ele>
        <time>2022-09-29T08:22:32Z</time>
      </trkpt>
      <trkpt lat="44.42672" lon="5.21317">
        <ele>491</ele>
        <time>2022-09-29T08:22:33Z</time>
      </trkpt>
      <trkpt lat="44.42672" lon="5.21318">
        <ele>491</ele>
        <time>2022-09-29T08:22:34Z</time>
      </trkpt>
      <trkpt lat="44.42672" lon="5.21319">
        <ele>490</ele>
        <time>2022-09-29T08:22:35Z</time>
      </trkpt>
      <trkpt lat="44.42672" lon="5.2132">
        <ele>490</ele>
        <time>2022-09-29T08:22:36Z</time>
      </trkpt>
      <trkpt lat="44.42672" lon="5.21321">
        <ele>490</ele>
        <time>2022-09-29T08:22:37Z</time>
      </trkpt>
      <trkpt lat="44.42672" lon="5.21322">
        <ele>490</ele>
        <time>2022-09-29T08:22:38Z</time>
      </trkpt>
      <trkpt lat="44.42672" lon="5.21323">
        <ele>490</ele>
        <time>2022-09-29T08:22:39Z</time>
      </trkpt>
      <trkpt lat="44.42673" lon="5.21323">
        <ele>489</ele>
        <time>2022-09-29T08:22:40Z</time>
      </trkpt>
      <trkpt lat="44.42673" lon="5.21324">
        <ele>489</ele>
        <time>2022-09-29T08:22:41Z</time>
      </trkpt>
      <trkpt lat="44.42674" lon="5.21325">
        <ele>489</ele>
        <time>2022-09-29T08:22:42Z</time>
      </trkpt>
      <trkpt lat="44.42675" lon="5.21325">
        <ele>489</ele>
        <time>2022-09-29T08:22:43Z</time>
      </trkpt>
      <trkpt lat="44.42677" lon="5.21326">
        <ele>489</ele>
        <time>2022-09-29T08:22:44Z</time>
      </trkpt>
      <trkpt lat="44.42678" lon="5.21326">
        <ele>488</ele>
        <time>2022-09-29T08:22:45Z</time>
      </trkpt>
      <trkpt lat="44.42679" lon="5.21327">
        <ele>488</ele>
        <time>2022-09-29T08:22:46Z</time>
      </trkpt>
      <trkpt lat="44.42679" lon="5.21328">
        <ele>488</ele>
        <time>2022-09-29T08:22:47Z</time>
      </trkpt>
      <trkpt lat="44.4268" lon="5.21329">
        <ele>488</ele>
        <time>2022-09-29T08:22:48Z</time>
      </trkpt>
      <trkpt lat="44.4268" lon="5.21329">
        <ele>488</ele>
        <time>2022-09-29T08:22:49Z</time>
      </trkpt>
      <trkpt lat="44.42681" lon="5.2133">
        <ele>487</ele>
        <time>2022-09-29T08:22:50Z</time>
      </trkpt>
      <trkpt lat="44.42681" lon="5.21331">
        <ele>487</ele>
        <time>2022-09-29T08:22:51Z</time>
      </trkpt>
      <trkpt lat="44.42681" lon="5.21331">
        <ele>487</ele>
        <time>2022-09-29T08:22:52Z</time>
      </trkpt>
      <trkpt lat="44.42682" lon="5.21332">
        <ele>487</ele>
        <time>2022-09-29T08:22:53Z</time>
      </trkpt>
      <trkpt lat="44.42682" lon="5.21332">
        <ele>487</ele>
        <time>2022-09-29T08:22:54Z</time>
      </trkpt>
      <trkpt lat="44.42683" lon="5.21333">
        <ele>486</ele>
        <time>2022-09-29T08:22:55Z</time>
      </trkpt>
      <trkpt lat="44.42683" lon="5.21333">
        <ele>486</ele>
        <time>2022-09-29T08:22:56Z</time>
      </trkpt>
      <trkpt lat="44.42684" lon="5.21334">
        <ele>486</ele>
        <time>2022-09-29T08:22:57Z</time>
      </trkpt>
      <trkpt lat="44.42685" lon="5.21335">
        <ele>486</ele>
        <time>2022-09-29T08:22:58Z</time>
      </trkpt>
      <trkpt lat="44.42685" lon="5.21335">
        <ele>486</ele>
        <time>2022-09-29T08:22:59Z</time>
      </trkpt>
      <trkpt lat="44.42686" lon="5.21336">
        <ele>485</ele>
        <time>2022-09-29T08:23:00Z</time>
      </trkpt>
      <trkpt lat="44.42687" lon="5.21336">
        <ele>484</ele>
        <time>2022-09-29T08:23:01Z</time>
      </trkpt>
      <trkpt lat="44.42688" lon="5.21337">
        <ele>484</ele>
        <time>2022-09-29T08:23:02Z</time>
      </trkpt>
      <trkpt lat="44.42688" lon="5.21337">
        <ele>483</ele>
        <time>2022-09-29T08:23:03Z</time>
      </trkpt>
      <trkpt lat="44.42689" lon="5.21337">
        <ele>483</ele>
        <time>2022-09-29T08:23:04Z</time>
      </trkpt>
      <trkpt lat="44.4269" lon="5.21336">
        <ele>482</ele>
        <time>2022-09-29T08:23:05Z</time>
      </trkpt>
      <trkpt lat="44.4269" lon="5.21336">
        <ele>482</ele>
        <time>2022-09-29T08:23:06Z</time>
      </trkpt>
      <trkpt lat="44.42691" lon="5.21337">
        <ele>482</ele>
        <time>2022-09-29T08:23:07Z</time>
      </trkpt>
      <trkpt lat="44.42691" lon="5.21337">
        <ele>482</ele>
        <time>2022-09-29T08:23:08Z</time>
      </trkpt>
      <trkpt lat="44.42691" lon="5.21337">
        <ele>482</ele>
        <time>2022-09-29T08:23:09Z</time>
      </trkpt>
      <trkpt lat="44.42692" lon="5.21337">
        <ele>482</ele>
        <time>2022-09-29T08:23:10Z</time>
      </trkpt>
      <trkpt lat="44.42692" lon="5.21337">
        <ele>482</ele>
        <time>2022-09-29T08:23:11Z</time>
      </trkpt>
      <trkpt lat="44.42692" lon="5.21337">
        <ele>482</ele>
        <time>2022-09-29T08:23:12Z</time>
      </trkpt>
      <trkpt lat="44.42693" lon="5.21337">
        <ele>482</ele>
        <time>2022-09-29T08:23:13Z</time>
      </trkpt>
      <trkpt lat="44.42694" lon="5.21337">
        <ele>482</ele>
        <time>2022-09-29T08:23:14Z</time>
      </trkpt>
      <trkpt lat="44.42694" lon="5.21337">
        <ele>481</ele>
        <time>2022-09-29T08:23:15Z</time>
      </trkpt>
      <trkpt lat="44.42695" lon="5.21337">
        <ele>481</ele>
        <time>2022-09-29T08:23:16Z</time>
      </trkpt>
      <trkpt lat="44.42696" lon="5.21339">
        <ele>477</ele>
        <time>2022-09-29T08:23:35Z</time>
      </trkpt>
      <trkpt lat="44.42697" lon="5.2134">
        <ele>477</ele>
        <time>2022-09-29T08:23:36Z</time>
      </trkpt>
      <trkpt lat="44.42698" lon="5.21341">
        <ele>477</ele>
        <time>2022-09-29T08:23:37Z</time>
      </trkpt>
      <trkpt lat="44.42699" lon="5.21342">
        <ele>477</ele>
        <time>2022-09-29T08:23:38Z</time>
      </trkpt>
      <trkpt lat="44.42699" lon="5.21342">
        <ele>477</ele>
        <time>2022-09-29T08:23:39Z</time>
      </trkpt>
      <trkpt lat="44.427" lon="5.21343">
        <ele>476</ele>
        <time>2022-09-29T08:23:40Z</time>
      </trkpt>
      <trkpt lat="44.427" lon="5.21343">
        <ele>476</ele>
        <time>2022-09-29T08:23:41Z</time>
      </trkpt>
      <trkpt lat="44.42701" lon="5.21344">
        <ele>476</ele>
        <time>2022-09-29T08:23:42Z</time>
      </trkpt>
      <trkpt lat="44.42702" lon="5.21345">
        <ele>476</ele>
        <time>2022-09-29T08:23:43Z</time>
      </trkpt>
      <trkpt lat="44.42702" lon="5.21346">
        <ele>476</ele>
        <time>2022-09-29T08:23:44Z</time>
      </trkpt>
      <trkpt lat="44.42703" lon="5.21346">
        <ele>475</ele>
        <time>2022-09-29T08:23:45Z</time>
      </trkpt>
      <trkpt lat="44.42704" lon="5.21346">
        <ele>475</ele>
        <time>2022-09-29T08:23:46Z</time>
      </trkpt>
      <trkpt lat="44.42705" lon="5.21346">
        <ele>475</ele>
        <time>2022-09-29T08:23:47Z</time>
      </trkpt>
      <trkpt lat="44.42705" lon="5.21346">
        <ele>475</ele>
        <time>2022-09-29T08:23:48Z</time>
      </trkpt>
      <trkpt lat="44.42706" lon="5.21346">
        <ele>475</ele>
        <time>2022-09-29T08:23:49Z</time>
      </trkpt>
      <trkpt lat="44.42707" lon="5.21345">
        <ele>474</ele>
        <time>2022-09-29T08:23:50Z</time>
      </trkpt>
      <trkpt lat="44.42708" lon="5.21344">
        <ele>474</ele>
        <time>2022-09-29T08:23:51Z</time>
      </trkpt>
      <trkpt lat="44.42708" lon="5.21344">
        <ele>474</ele>
        <time>2022-09-29T08:23:52Z</time>
      </trkpt>
      <trkpt lat="44.42709" lon="5.21344">
        <ele>474</ele>
        <time>2022-09-29T08:23:53Z</time>
      </trkpt>
      <trkpt lat="44.4271" lon="5.21344">
        <ele>474</ele>
        <time>2022-09-29T08:23:54Z</time>
      </trkpt>
      <trkpt lat="44.42711" lon="5.21344">
        <ele>474</ele>
        <time>2022-09-29T08:23:55Z</time>
      </trkpt>
      <trkpt lat="44.42711" lon="5.21344">
        <ele>474</ele>
        <time>2022-09-29T08:23:56Z</time>
      </trkpt>
      <trkpt lat="44.42712" lon="5.21344">
        <ele>474</ele>
        <time>2022-09-29T08:23:57Z</time>
      </trkpt>
      <trkpt lat="44.42712" lon="5.21344">
        <ele>474</ele>
        <time>2022-09-29T08:23:58Z</time>
      </trkpt>
      <trkpt lat="44.42713" lon="5.21344">
        <ele>474</ele>
        <time>2022-09-29T08:23:59Z</time>
      </trkpt>
      <trkpt lat="44.42714" lon="5.21344">
        <ele>473</ele>
        <time>2022-09-29T08:24:00Z</time>
      </trkpt>
      <trkpt lat="44.42714" lon="5.21344">
        <ele>473</ele>
        <time>2022-09-29T08:24:01Z</time>
      </trkpt>
      <trkpt lat="44.42715" lon="5.21344">
        <ele>473</ele>
        <time>2022-09-29T08:24:02Z</time>
      </trkpt>
      <trkpt lat="44.42716" lon="5.21344">
        <ele>473</ele>
        <time>2022-09-29T08:24:03Z</time>
      </trkpt>
      <trkpt lat="44.42717" lon="5.21344">
        <ele>473</ele>
        <time>2022-09-29T08:24:04Z</time>
      </trkpt>
      <trkpt lat="44.42717" lon="5.21344">
        <ele>472</ele>
        <time>2022-09-29T08:24:05Z</time>
      </trkpt>
      <trkpt lat="44.42718" lon="5.21344">
        <ele>472</ele>
        <time>2022-09-29T08:24:06Z</time>
      </trkpt>
      <trkpt lat="44.42719" lon="5.21344">
        <ele>472</ele>
        <time>2022-09-29T08:24:07Z</time>
      </trkpt>
      <trkpt lat="44.4272" lon="5.21344">
        <ele>471</ele>
        <time>2022-09-29T08:24:13Z</time>
      </trkpt>
      <trkpt lat="44.42721" lon="5.21344">
        <ele>471</ele>
        <time>2022-09-29T08:24:14Z</time>
      </trkpt>
      <trkpt lat="44.42722" lon="5.21344">
        <ele>470</ele>
        <time>2022-09-29T08:24:15Z</time>
      </trkpt>
      <trkpt lat="44.42723" lon="5.21344">
        <ele>470</ele>
        <time>2022-09-29T08:24:16Z</time>
      </trkpt>
      <trkpt lat="44.42724" lon="5.21345">
        <ele>470</ele>
        <time>2022-09-29T08:24:17Z</time>
      </trkpt>
      <trkpt lat="44.42724" lon="5.21345">
        <ele>470</ele>
        <time>2022-09-29T08:24:18Z</time>
      </trkpt>
      <trkpt lat="44.42725" lon="5.21345">
        <ele>470</ele>
        <time>2022-09-29T08:24:19Z</time>
      </trkpt>
      <trkpt lat="44.42725" lon="5.21345">
        <ele>469</ele>
        <time>2022-09-29T08:24:20Z</time>
      </trkpt>
      <trkpt lat="44.42725" lon="5.21345">
        <ele>469</ele>
        <time>2022-09-29T08:24:21Z</time>
      </trkpt>
      <trkpt lat="44.42726" lon="5.21345">
        <ele>469</ele>
        <time>2022-09-29T08:24:22Z</time>
      </trkpt>
      <trkpt lat="44.42728" lon="5.21345">
        <ele>469</ele>
        <time>2022-09-29T08:24:23Z</time>
      </trkpt>
      <trkpt lat="44.42728" lon="5.21345">
        <ele>469</ele>
        <time>2022-09-29T08:24:24Z</time>
      </trkpt>
      <trkpt lat="44.42729" lon="5.21345">
        <ele>469</ele>
        <time>2022-09-29T08:24:25Z</time>
      </trkpt>
      <trkpt lat="44.42729" lon="5.21345">
        <ele>469</ele>
        <time>2022-09-29T08:24:26Z</time>
      </trkpt>
      <trkpt lat="44.4273" lon="5.21345">
        <ele>469</ele>
        <time>2022-09-29T08:24:27Z</time>
      </trkpt>
      <trkpt lat="44.42731" lon="5.21345">
        <ele>469</ele>
        <time>2022-09-29T08:24:28Z</time>
      </trkpt>
      <trkpt lat="44.42732" lon="5.21345">
        <ele>469</ele>
        <time>2022-09-29T08:24:29Z</time>
      </trkpt>
      <trkpt lat="44.42732" lon="5.21345">
        <ele>468</ele>
        <time>2022-09-29T08:24:30Z</time>
      </trkpt>
      <trkpt lat="44.42734" lon="5.21346">
        <ele>466</ele>
        <time>2022-09-29T08:24:40Z</time>
      </trkpt>
      <trkpt lat="44.42735" lon="5.21347">
        <ele>466</ele>
        <time>2022-09-29T08:24:41Z</time>
      </trkpt>
      <trkpt lat="44.42736" lon="5.21347">
        <ele>466</ele>
        <time>2022-09-29T08:24:42Z</time>
      </trkpt>
      <trkpt lat="44.42737" lon="5.21348">
        <ele>466</ele>
        <time>2022-09-29T08:24:43Z</time>
      </trkpt>
      <trkpt lat="44.42737" lon="5.21349">
        <ele>466</ele>
        <time>2022-09-29T08:24:44Z</time>
      </trkpt>
      <trkpt lat="44.42738" lon="5.21349">
        <ele>465</ele>
        <time>2022-09-29T08:24:45Z</time>
      </trkpt>
      <trkpt lat="44.42738" lon="5.21349">
        <ele>465</ele>
        <time>2022-09-29T08:24:46Z</time>
      </trkpt>
      <trkpt lat="44.42739" lon="5.2135">
        <ele>465</ele>
        <time>2022-09-29T08:24:47Z</time>
      </trkpt>
      <trkpt lat="44.4274" lon="5.2135">
        <ele>465</ele>
        <time>2022-09-29T08:24:48Z</time>
      </trkpt>
      <trkpt lat="44.42741" lon="5.21351">
        <ele>464</ele>
        <time>2022-09-29T08:24:54Z</time>
      </trkpt>
      <trkpt lat="44.42742" lon="5.21352">
        <ele>463</ele>
        <time>2022-09-29T08:24:55Z</time>
      </trkpt>
      <trkpt lat="44.42743" lon="5.21352">
        <ele>463</ele>
        <time>2022-09-29T08:24:56Z</time>
      </trkpt>
      <trkpt lat="44.42744" lon="5.21356">
        <ele>460</ele>
        <time>2022-09-29T08:25:19Z</time>
      </trkpt>
      <trkpt lat="44.42745" lon="5.21358">
        <ele>460</ele>
        <time>2022-09-29T08:25:20Z</time>
      </trkpt>
      <trkpt lat="44.42745" lon="5.21359">
        <ele>460</ele>
        <time>2022-09-29T08:25:21Z</time>
      </trkpt>
      <trkpt lat="44.42746" lon="5.21361">
        <ele>460</ele>
        <time>2022-09-29T08:25:22Z</time>
      </trkpt>
      <trkpt lat="44.42746" lon="5.21362">
        <ele>460</ele>
        <time>2022-09-29T08:25:23Z</time>
      </trkpt>
      <trkpt lat="44.42748" lon="5.21365">
        <ele>456</ele>
        <time>2022-09-29T08:26:24Z</time>
      </trkpt>
      <trkpt lat="44.42749" lon="5.21366">
        <ele>456</ele>
        <time>2022-09-29T08:26:25Z</time>
      </trkpt>
      <trkpt lat="44.4275" lon="5.21368">
        <ele>456</ele>
        <time>2022-09-29T08:26:26Z</time>
      </trkpt>
      <trkpt lat="44.4275" lon="5.21369">
        <ele>456</ele>
        <time>2022-09-29T08:26:27Z</time>
      </trkpt>
      <trkpt lat="44.4275" lon="5.2137">
        <ele>456</ele>
        <time>2022-09-29T08:26:28Z</time>
      </trkpt>
      <trkpt lat="44.4275" lon="5.2137">
        <ele>456</ele>
        <time>2022-09-29T08:26:29Z</time>
      </trkpt>
      <trkpt lat="44.4275" lon="5.21372">
        <ele>455</ele>
        <time>2022-09-29T08:27:19Z</time>
      </trkpt>
      <trkpt lat="44.42749" lon="5.21373">
        <ele>455</ele>
        <time>2022-09-29T08:27:20Z</time>
      </trkpt>
      <trkpt lat="44.42749" lon="5.21374">
        <ele>455</ele>
        <time>2022-09-29T08:27:21Z</time>
      </trkpt>
      <trkpt lat="44.42749" lon="5.21374">
        <ele>455</ele>
        <time>2022-09-29T08:27:22Z</time>
      </trkpt>
      <trkpt lat="44.42749" lon="5.21375">
        <ele>455</ele>
        <time>2022-09-29T08:27:23Z</time>
      </trkpt>
      <trkpt lat="44.42749" lon="5.21376">
        <ele>455</ele>
        <time>2022-09-29T08:27:24Z</time>
      </trkpt>
      <trkpt lat="44.42748" lon="5.21377">
        <ele>455</ele>
        <time>2022-09-29T08:27:25Z</time>
      </trkpt>
      <trkpt lat="44.42749" lon="5.21379">
        <ele>455</ele>
        <time>2022-09-29T08:27:34Z</time>
      </trkpt>
      <trkpt lat="44.4275" lon="5.2138">
        <ele>454</ele>
        <time>2022-09-29T08:27:35Z</time>
      </trkpt>
      <trkpt lat="44.4275" lon="5.21381">
        <ele>454</ele>
        <time>2022-09-29T08:27:36Z</time>
      </trkpt>
      <trkpt lat="44.42751" lon="5.21382">
        <ele>454</ele>
        <time>2022-09-29T08:27:37Z</time>
      </trkpt>
      <trkpt lat="44.42751" lon="5.21383">
        <ele>454</ele>
        <time>2022-09-29T08:27:38Z</time>
      </trkpt>
      <trkpt lat="44.42752" lon="5.21384">
        <ele>454</ele>
        <time>2022-09-29T08:27:39Z</time>
      </trkpt>
      <trkpt lat="44.42752" lon="5.21385">
        <ele>453</ele>
        <time>2022-09-29T08:27:40Z</time>
      </trkpt>
      <trkpt lat="44.42752" lon="5.21385">
        <ele>453</ele>
        <time>2022-09-29T08:27:41Z</time>
      </trkpt>
      <trkpt lat="44.42753" lon="5.21386">
        <ele>453</ele>
        <time>2022-09-29T08:27:42Z</time>
      </trkpt>
      <trkpt lat="44.42753" lon="5.21387">
        <ele>453</ele>
        <time>2022-09-29T08:27:43Z</time>
      </trkpt>
      <trkpt lat="44.42754" lon="5.21388">
        <ele>453</ele>
        <time>2022-09-29T08:27:44Z</time>
      </trkpt>
      <trkpt lat="44.42754" lon="5.21389">
        <ele>452</ele>
        <time>2022-09-29T08:27:45Z</time>
      </trkpt>
      <trkpt lat="44.42754" lon="5.2139">
        <ele>452</ele>
        <time>2022-09-29T08:27:46Z</time>
      </trkpt>
      <trkpt lat="44.42754" lon="5.21391">
        <ele>452</ele>
        <time>2022-09-29T08:27:47Z</time>
      </trkpt>
      <trkpt lat="44.42754" lon="5.21392">
        <ele>452</ele>
        <time>2022-09-29T08:27:48Z</time>
      </trkpt>
      <trkpt lat="44.42755" lon="5.21393">
        <ele>452</ele>
        <time>2022-09-29T08:27:49Z</time>
      </trkpt>
      <trkpt lat="44.42755" lon="5.21394">
        <ele>451</ele>
        <time>2022-09-29T08:27:50Z</time>
      </trkpt>
      <trkpt lat="44.42756" lon="5.21394">
        <ele>451</ele>
        <time>2022-09-29T08:27:51Z</time>
      </trkpt>
      <trkpt lat="44.42756" lon="5.21395">
        <ele>451</ele>
        <time>2022-09-29T08:27:52Z</time>
      </trkpt>
      <trkpt lat="44.42757" lon="5.21396">
        <ele>451</ele>
        <time>2022-09-29T08:27:53Z</time>
      </trkpt>
      <trkpt lat="44.42758" lon="5.21396">
        <ele>451</ele>
        <time>2022-09-29T08:27:54Z</time>
      </trkpt>
      <trkpt lat="44.42758" lon="5.21397">
        <ele>450</ele>
        <time>2022-09-29T08:27:55Z</time>
      </trkpt>
      <trkpt lat="44.42759" lon="5.21398">
        <ele>450</ele>
        <time>2022-09-29T08:27:56Z</time>
      </trkpt>
      <trkpt lat="44.4276" lon="5.21398">
        <ele>450</ele>
        <time>2022-09-29T08:27:57Z</time>
      </trkpt>
      <trkpt lat="44.4276" lon="5.21398">
        <ele>450</ele>
        <time>2022-09-29T08:27:58Z</time>
      </trkpt>
      <trkpt lat="44.4276" lon="5.21399">
        <ele>450</ele>
        <time>2022-09-29T08:27:59Z</time>
      </trkpt>
      <trkpt lat="44.42761" lon="5.214">
        <ele>449</ele>
        <time>2022-09-29T08:28:00Z</time>
      </trkpt>
      <trkpt lat="44.42762" lon="5.214">
        <ele>449</ele>
        <time>2022-09-29T08:28:01Z</time>
      </trkpt>
      <trkpt lat="44.42762" lon="5.21401">
        <ele>449</ele>
        <time>2022-09-29T08:28:02Z</time>
      </trkpt>
      <trkpt lat="44.42763" lon="5.21401">
        <ele>449</ele>
        <time>2022-09-29T08:28:03Z</time>
      </trkpt>
      <trkpt lat="44.42763" lon="5.21402">
        <ele>449</ele>
        <time>2022-09-29T08:28:04Z</time>
      </trkpt>
      <trkpt lat="44.42763" lon="5.21402">
        <ele>448</ele>
        <time>2022-09-29T08:28:05Z</time>
      </trkpt>
      <trkpt lat="44.42764" lon="5.21402">
        <ele>448</ele>
        <time>2022-09-29T08:28:06Z</time>
      </trkpt>
      <trkpt lat="44.42764" lon="5.21402">
        <ele>448</ele>
        <time>2022-09-29T08:28:07Z</time>
      </trkpt>
      <trkpt lat="44.42765" lon="5.21403">
        <ele>448</ele>
        <time>2022-09-29T08:28:08Z</time>
      </trkpt>
      <trkpt lat="44.42765" lon="5.21404">
        <ele>448</ele>
        <time>2022-09-29T08:28:09Z</time>
      </trkpt>
      <trkpt lat="44.42766" lon="5.21406">
        <ele>447</ele>
        <time>2022-09-29T08:28:10Z</time>
      </trkpt>
      <trkpt lat="44.42767" lon="5.21407">
        <ele>447</ele>
        <time>2022-09-29T08:28:11Z</time>
      </trkpt>
      <trkpt lat="44.42768" lon="5.2141">
        <ele>445</ele>
        <time>2022-09-29T08:28:20Z</time>
      </trkpt>
      <trkpt lat="44.42769" lon="5.21412">
        <ele>445</ele>
        <time>2022-09-29T08:28:21Z</time>
      </trkpt>
      <trkpt lat="44.42769" lon="5.21414">
        <ele>445</ele>
        <time>2022-09-29T08:28:22Z</time>
      </trkpt>
      <trkpt lat="44.4277" lon="5.21415">
        <ele>445</ele>
        <time>2022-09-29T08:28:23Z</time>
      </trkpt>
      <trkpt lat="44.42771" lon="5.21416">
        <ele>445</ele>
        <time>2022-09-29T08:28:24Z</time>
      </trkpt>
      <trkpt lat="44.42772" lon="5.21417">
        <ele>444</ele>
        <time>2022-09-29T08:28:25Z</time>
      </trkpt>
      <trkpt lat="44.42773" lon="5.21418">
        <ele>444</ele>
        <time>2022-09-29T08:28:26Z</time>
      </trkpt>
      <trkpt lat="44.42773" lon="5.21418">
        <ele>443</ele>
        <time>2022-09-29T08:28:27Z</time>
      </trkpt>
      <trkpt lat="44.42774" lon="5.21419">
        <ele>443</ele>
        <time>2022-09-29T08:28:28Z</time>
      </trkpt>
      <trkpt lat="44.42775" lon="5.2142">
        <ele>443</ele>
        <time>2022-09-29T08:28:29Z</time>
      </trkpt>
      <trkpt lat="44.42776" lon="5.21421">
        <ele>442</ele>
        <time>2022-09-29T08:28:30Z</time>
      </trkpt>
      <trkpt lat="44.42776" lon="5.21423">
        <ele>442</ele>
        <time>2022-09-29T08:28:31Z</time>
      </trkpt>
      <trkpt lat="44.42777" lon="5.21424">
        <ele>442</ele>
        <time>2022-09-29T08:28:32Z</time>
      </trkpt>
      <trkpt lat="44.42778" lon="5.21425">
        <ele>442</ele>
        <time>2022-09-29T08:28:33Z</time>
      </trkpt>
      <trkpt lat="44.42778" lon="5.21427">
        <ele>442</ele>
        <time>2022-09-29T08:28:34Z</time>
      </trkpt>
      <trkpt lat="44.42779" lon="5.21428">
        <ele>441</ele>
        <time>2022-09-29T08:28:35Z</time>
      </trkpt>
      <trkpt lat="44.42779" lon="5.21429">
        <ele>441</ele>
        <time>2022-09-29T08:28:36Z</time>
      </trkpt>
      <trkpt lat="44.42779" lon="5.2143">
        <ele>441</ele>
        <time>2022-09-29T08:28:37Z</time>
      </trkpt>
      <trkpt lat="44.4278" lon="5.2143">
        <ele>441</ele>
        <time>2022-09-29T08:28:38Z</time>
      </trkpt>
      <trkpt lat="44.42781" lon="5.21432">
        <ele>439</ele>
        <time>2022-09-29T08:28:45Z</time>
      </trkpt>
      <trkpt lat="44.42782" lon="5.21433">
        <ele>439</ele>
        <time>2022-09-29T08:28:46Z</time>
      </trkpt>
      <trkpt lat="44.42783" lon="5.21434">
        <ele>439</ele>
        <time>2022-09-29T08:28:47Z</time>
      </trkpt>
      <trkpt lat="44.42783" lon="5.21435">
        <ele>439</ele>
        <time>2022-09-29T08:28:48Z</time>
      </trkpt>
      <trkpt lat="44.42784" lon="5.21436">
        <ele>439</ele>
        <time>2022-09-29T08:28:49Z</time>
      </trkpt>
      <trkpt lat="44.42784" lon="5.21436">
        <ele>438</ele>
        <time>2022-09-29T08:28:50Z</time>
      </trkpt>
      <trkpt lat="44.42784" lon="5.21437">
        <ele>438</ele>
        <time>2022-09-29T08:28:51Z</time>
      </trkpt>
      <trkpt lat="44.42784" lon="5.21438">
        <ele>438</ele>
        <time>2022-09-29T08:28:52Z</time>
      </trkpt>
      <trkpt lat="44.42784" lon="5.21438">
        <ele>438</ele>
        <time>2022-09-29T08:28:53Z</time>
      </trkpt>
      <trkpt lat="44.42784" lon="5.21439">
        <ele>438</ele>
        <time>2022-09-29T08:28:54Z</time>
      </trkpt>
      <trkpt lat="44.42785" lon="5.21439">
        <ele>437</ele>
        <time>2022-09-29T08:28:55Z</time>
      </trkpt>
      <trkpt lat="44.42785" lon="5.2144">
        <ele>437</ele>
        <time>2022-09-29T08:28:56Z</time>
      </trkpt>
      <trkpt lat="44.42785" lon="5.21441">
        <ele>437</ele>
        <time>2022-09-29T08:28:57Z</time>
      </trkpt>
      <trkpt lat="44.42785" lon="5.21442">
        <ele>437</ele>
        <time>2022-09-29T08:28:58Z</time>
      </trkpt>
      <trkpt lat="44.42785" lon="5.21442">
        <ele>437</ele>
        <time>2022-09-29T08:28:59Z</time>
      </trkpt>
      <trkpt lat="44.42786" lon="5.21443">
        <ele>436</ele>
        <time>2022-09-29T08:29:00Z</time>
      </trkpt>
      <trkpt lat="44.42786" lon="5.21443">
        <ele>436</ele>
        <time>2022-09-29T08:29:01Z</time>
      </trkpt>
      <trkpt lat="44.42786" lon="5.21443">
        <ele>436</ele>
        <time>2022-09-29T08:29:02Z</time>
      </trkpt>
      <trkpt lat="44.42787" lon="5.21444">
        <ele>436</ele>
        <time>2022-09-29T08:29:03Z</time>
      </trkpt>
      <trkpt lat="44.42787" lon="5.21444">
        <ele>436</ele>
        <time>2022-09-29T08:29:04Z</time>
      </trkpt>
      <trkpt lat="44.42788" lon="5.21444">
        <ele>435</ele>
        <time>2022-09-29T08:29:05Z</time>
      </trkpt>
      <trkpt lat="44.42789" lon="5.21443">
        <ele>435</ele>
        <time>2022-09-29T08:29:06Z</time>
      </trkpt>
      <trkpt lat="44.4279" lon="5.21443">
        <ele>435</ele>
        <time>2022-09-29T08:29:07Z</time>
      </trkpt>
      <trkpt lat="44.4279" lon="5.21442">
        <ele>435</ele>
        <time>2022-09-29T08:29:08Z</time>
      </trkpt>
      <trkpt lat="44.42791" lon="5.21442">
        <ele>435</ele>
        <time>2022-09-29T08:29:09Z</time>
      </trkpt>
      <trkpt lat="44.42792" lon="5.21441">
        <ele>434</ele>
        <time>2022-09-29T08:29:10Z</time>
      </trkpt>
      <trkpt lat="44.42792" lon="5.21441">
        <ele>434</ele>
        <time>2022-09-29T08:29:11Z</time>
      </trkpt>
      <trkpt lat="44.42793" lon="5.21441">
        <ele>434</ele>
        <time>2022-09-29T08:29:12Z</time>
      </trkpt>
      <trkpt lat="44.42794" lon="5.2144">
        <ele>434</ele>
        <time>2022-09-29T08:29:13Z</time>
      </trkpt>
      <trkpt lat="44.42795" lon="5.2144">
        <ele>434</ele>
        <time>2022-09-29T08:29:14Z</time>
      </trkpt>
      <trkpt lat="44.42796" lon="5.21439">
        <ele>433</ele>
        <time>2022-09-29T08:29:15Z</time>
      </trkpt>
      <trkpt lat="44.42797" lon="5.21439">
        <ele>433</ele>
        <time>2022-09-29T08:29:16Z</time>
      </trkpt>
      <trkpt lat="44.42798" lon="5.21438">
        <ele>433</ele>
        <time>2022-09-29T08:29:17Z</time>
      </trkpt>
      <trkpt lat="44.42799" lon="5.21438">
        <ele>432</ele>
        <time>2022-09-29T08:29:24Z</time>
      </trkpt>
      <trkpt lat="44.428" lon="5.21438">
        <ele>432</ele>
        <time>2022-09-29T08:29:25Z</time>
      </trkpt>
      <trkpt lat="44.42801" lon="5.21438">
        <ele>432</ele>
        <time>2022-09-29T08:29:26Z</time>
      </trkpt>
      <trkpt lat="44.42801" lon="5.21438">
        <ele>432</ele>
        <time>2022-09-29T08:29:27Z</time>
      </trkpt>
      <trkpt lat="44.42802" lon="5.21439">
        <ele>432</ele>
        <time>2022-09-29T08:29:28Z</time>
      </trkpt>
      <trkpt lat="44.42802" lon="5.2144">
        <ele>431</ele>
        <time>2022-09-29T08:29:35Z</time>
      </trkpt>
      <trkpt lat="44.42803" lon="5.21441">
        <ele>431</ele>
        <time>2022-09-29T08:29:36Z</time>
      </trkpt>
      <trkpt lat="44.42803" lon="5.21443">
        <ele>431</ele>
        <time>2022-09-29T08:29:37Z</time>
      </trkpt>
      <trkpt lat="44.42803" lon="5.21443">
        <ele>431</ele>
        <time>2022-09-29T08:29:38Z</time>
      </trkpt>
      <trkpt lat="44.42804" lon="5.21444">
        <ele>431</ele>
        <time>2022-09-29T08:29:39Z</time>
      </trkpt>
      <trkpt lat="44.42804" lon="5.21445">
        <ele>430</ele>
        <time>2022-09-29T08:29:40Z</time>
      </trkpt>
      <trkpt lat="44.42805" lon="5.21446">
        <ele>430</ele>
        <time>2022-09-29T08:29:41Z</time>
      </trkpt>
      <trkpt lat="44.42805" lon="5.21447">
        <ele>430</ele>
        <time>2022-09-29T08:29:42Z</time>
      </trkpt>
      <trkpt lat="44.42805" lon="5.21448">
        <ele>430</ele>
        <time>2022-09-29T08:29:43Z</time>
      </trkpt>
      <trkpt lat="44.42805" lon="5.21449">
        <ele>430</ele>
        <time>2022-09-29T08:29:44Z</time>
      </trkpt>
      <trkpt lat="44.42805" lon="5.2145">
        <ele>430</ele>
        <time>2022-09-29T08:29:45Z</time>
      </trkpt>
      <trkpt lat="44.42804" lon="5.21451">
        <ele>430</ele>
        <time>2022-09-29T08:29:46Z</time>
      </trkpt>
      <trkpt lat="44.42804" lon="5.21452">
        <ele>430</ele>
        <time>2022-09-29T08:29:47Z</time>
      </trkpt>
      <trkpt lat="44.42804" lon="5.21453">
        <ele>430</ele>
        <time>2022-09-29T08:29:48Z</time>
      </trkpt>
      <trkpt lat="44.42804" lon="5.21454">
        <ele>430</ele>
        <time>2022-09-29T08:29:49Z</time>
      </trkpt>
      <trkpt lat="44.42803" lon="5.21455">
        <ele>429</ele>
        <time>2022-09-29T08:29:50Z</time>
      </trkpt>
      <trkpt lat="44.42803" lon="5.21456">
        <ele>429</ele>
        <time>2022-09-29T08:29:51Z</time>
      </trkpt>
      <trkpt lat="44.42803" lon="5.21457">
        <ele>429</ele>
        <time>2022-09-29T08:29:52Z</time>
      </trkpt>
      <trkpt lat="44.42803" lon="5.21458">
        <ele>429</ele>
        <time>2022-09-29T08:29:53Z</time>
      </trkpt>
      <trkpt lat="44.42803" lon="5.21459">
        <ele>429</ele>
        <time>2022-09-29T08:29:54Z</time>
      </trkpt>
      <trkpt lat="44.42803" lon="5.21459">
        <ele>429</ele>
        <time>2022-09-29T08:29:55Z</time>
      </trkpt>
      <trkpt lat="44.42803" lon="5.2146">
        <ele>429</ele>
        <time>2022-09-29T08:29:56Z</time>
      </trkpt>
      <trkpt lat="44.42803" lon="5.21461">
        <ele>429</ele>
        <time>2022-09-29T08:29:57Z</time>
      </trkpt>
      <trkpt lat="44.42804" lon="5.21463">
        <ele>428</ele>
        <time>2022-09-29T08:31:17Z</time>
      </trkpt>
      <trkpt lat="44.42804" lon="5.21463">
        <ele>428</ele>
        <time>2022-09-29T08:31:18Z</time>
      </trkpt>
      <trkpt lat="44.42804" lon="5.21464">
        <ele>428</ele>
        <time>2022-09-29T08:31:19Z</time>
      </trkpt>
      <trkpt lat="44.42803" lon="5.21465">
        <ele>428</ele>
        <time>2022-09-29T08:31:20Z</time>
      </trkpt>
      <trkpt lat="44.42803" lon="5.21466">
        <ele>428</ele>
        <time>2022-09-29T08:31:21Z</time>
      </trkpt>
      <trkpt lat="44.42802" lon="5.21467">
        <ele>428</ele>
        <time>2022-09-29T08:31:22Z</time>
      </trkpt>
      <trkpt lat="44.42802" lon="5.21468">
        <ele>428</ele>
        <time>2022-09-29T08:31:23Z</time>
      </trkpt>
      <trkpt lat="44.42801" lon="5.21469">
        <ele>428</ele>
        <time>2022-09-29T08:31:24Z</time>
      </trkpt>
      <trkpt lat="44.428" lon="5.2147">
        <ele>428</ele>
        <time>2022-09-29T08:31:25Z</time>
      </trkpt>
      <trkpt lat="44.428" lon="5.21472">
        <ele>428</ele>
        <time>2022-09-29T08:31:26Z</time>
      </trkpt>
      <trkpt lat="44.42799" lon="5.21473">
        <ele>428</ele>
        <time>2022-09-29T08:31:27Z</time>
      </trkpt>
      <trkpt lat="44.42799" lon="5.21474">
        <ele>428</ele>
        <time>2022-09-29T08:31:28Z</time>
      </trkpt>
      <trkpt lat="44.42798" lon="5.21476">
        <ele>428</ele>
        <time>2022-09-29T08:31:29Z</time>
      </trkpt>
      <trkpt lat="44.42798" lon="5.21477">
        <ele>428</ele>
        <time>2022-09-29T08:31:30Z</time>
      </trkpt>
      <trkpt lat="44.42797" lon="5.21478">
        <ele>428</ele>
        <time>2022-09-29T08:31:31Z</time>
      </trkpt>
      <trkpt lat="44.42796" lon="5.21481">
        <ele>428</ele>
        <time>2022-09-29T08:32:34Z</time>
      </trkpt>
      <trkpt lat="44.42795" lon="5.21482">
        <ele>428</ele>
        <time>2022-09-29T08:32:35Z</time>
      </trkpt>
      <trkpt lat="44.42795" lon="5.21482">
        <ele>428</ele>
        <time>2022-09-29T08:32:36Z</time>
      </trkpt>
      <trkpt lat="44.42795" lon="5.21482">
        <ele>428</ele>
        <time>2022-09-29T08:32:37Z</time>
      </trkpt>
      <trkpt lat="44.42795" lon="5.21482">
        <ele>428</ele>
        <time>2022-09-29T08:32:38Z</time>
      </trkpt>
      <trkpt lat="44.42796" lon="5.21482">
        <ele>428</ele>
        <time>2022-09-29T08:32:39Z</time>
      </trkpt>
      <trkpt lat="44.42796" lon="5.21482">
        <ele>428</ele>
        <time>2022-09-29T08:32:40Z</time>
      </trkpt>
      <trkpt lat="44.42796" lon="5.21482">
        <ele>428</ele>
        <time>2022-09-29T08:32:41Z</time>
      </trkpt>
      <trkpt lat="44.42797" lon="5.21482">
        <ele>428</ele>
        <time>2022-09-29T08:32:42Z</time>
      </trkpt>
      <trkpt lat="44.42797" lon="5.21482">
        <ele>428</ele>
        <time>2022-09-29T08:32:43Z</time>
      </trkpt>
      <trkpt lat="44.42797" lon="5.21482">
        <ele>428</ele>
        <time>2022-09-29T08:32:44Z</time>
      </trkpt>
      <trkpt lat="44.42798" lon="5.21482">
        <ele>428</ele>
        <time>2022-09-29T08:32:45Z</time>
      </trkpt>
      <trkpt lat="44.42799" lon="5.21482">
        <ele>428</ele>
        <time>2022-09-29T08:32:46Z</time>
      </trkpt>
      <trkpt lat="44.428" lon="5.21482">
        <ele>428</ele>
        <time>2022-09-29T08:32:47Z</time>
      </trkpt>
      <trkpt lat="44.428" lon="5.21483">
        <ele>428</ele>
        <time>2022-09-29T08:32:48Z</time>
      </trkpt>
      <trkpt lat="44.42801" lon="5.21483">
        <ele>428</ele>
        <time>2022-09-29T08:32:49Z</time>
      </trkpt>
      <trkpt lat="44.42801" lon="5.21484">
        <ele>428</ele>
        <time>2022-09-29T08:32:50Z</time>
      </trkpt>
      <trkpt lat="44.42802" lon="5.21484">
        <ele>428</ele>
        <time>2022-09-29T08:32:51Z</time>
      </trkpt>
      <trkpt lat="44.42802" lon="5.21485">
        <ele>428</ele>
        <time>2022-09-29T08:32:52Z</time>
      </trkpt>
      <trkpt lat="44.42802" lon="5.21485">
        <ele>428</ele>
        <time>2022-09-29T08:32:53Z</time>
      </trkpt>
      <trkpt lat="44.42802" lon="5.21486">
        <ele>428</ele>
        <time>2022-09-29T08:32:54Z</time>
      </trkpt>
      <trkpt lat="44.42803" lon="5.21487">
        <ele>428</ele>
        <time>2022-09-29T08:32:55Z</time>
      </trkpt>
      <trkpt lat="44.42803" lon="5.21488">
        <ele>428</ele>
        <time>2022-09-29T08:32:56Z</time>
      </trkpt>
      <trkpt lat="44.42803" lon="5.21488">
        <ele>428</ele>
        <time>2022-09-29T08:32:57Z</time>
      </trkpt>
      <trkpt lat="44.42803" lon="5.21489">
        <ele>428</ele>
        <time>2022-09-29T08:32:58Z</time>
      </trkpt>
      <trkpt lat="44.42803" lon="5.2149">
        <ele>428</ele>
        <time>2022-09-29T08:32:59Z</time>
      </trkpt>
      <trkpt lat="44.42803" lon="5.21491">
        <ele>428</ele>
        <time>2022-09-29T08:33:00Z</time>
      </trkpt>
      <trkpt lat="44.42803" lon="5.21492">
        <ele>428</ele>
        <time>2022-09-29T08:33:01Z</time>
      </trkpt>
      <trkpt lat="44.42803" lon="5.21492">
        <ele>428</ele>
        <time>2022-09-29T08:33:02Z</time>
      </trkpt>
      <trkpt lat="44.42803" lon="5.21493">
        <ele>428</ele>
        <time>2022-09-29T08:33:03Z</time>
      </trkpt>
      <trkpt lat="44.42803" lon="5.21494">
        <ele>428</ele>
        <time>2022-09-29T08:33:04Z</time>
      </trkpt>
      <trkpt lat="44.42803" lon="5.21495">
        <ele>427</ele>
        <time>2022-09-29T08:33:05Z</time>
      </trkpt>
      <trkpt lat="44.42803" lon="5.21496">
        <ele>427</ele>
        <time>2022-09-29T08:33:06Z</time>
      </trkpt>
      <trkpt lat="44.42803" lon="5.21497">
        <ele>427</ele>
        <time>2022-09-29T08:33:07Z</time>
      </trkpt>
      <trkpt lat="44.42803" lon="5.21498">
        <ele>427</ele>
        <time>2022-09-29T08:33:08Z</time>
      </trkpt>
      <trkpt lat="44.42803" lon="5.21499">
        <ele>427</ele>
        <time>2022-09-29T08:33:09Z</time>
      </trkpt>
      <trkpt lat="44.42803" lon="5.215">
        <ele>427</ele>
        <time>2022-09-29T08:33:10Z</time>
      </trkpt>
      <trkpt lat="44.42803" lon="5.21501">
        <ele>427</ele>
        <time>2022-09-29T08:33:11Z</time>
      </trkpt>
      <trkpt lat="44.42803" lon="5.21502">
        <ele>427</ele>
        <time>2022-09-29T08:33:12Z</time>
      </trkpt>
      <trkpt lat="44.42802" lon="5.21503">
        <ele>427</ele>
        <time>2022-09-29T08:33:13Z</time>
      </trkpt>
      <trkpt lat="44.42802" lon="5.21504">
        <ele>427</ele>
        <time>2022-09-29T08:33:14Z</time>
      </trkpt>
      <trkpt lat="44.42802" lon="5.21505">
        <ele>427</ele>
        <time>2022-09-29T08:33:15Z</time>
      </trkpt>
      <trkpt lat="44.42801" lon="5.21506">
        <ele>427</ele>
        <time>2022-09-29T08:33:16Z</time>
      </trkpt>
      <trkpt lat="44.42801" lon="5.21506">
        <ele>427</ele>
        <time>2022-09-29T08:33:17Z</time>
      </trkpt>
      <trkpt lat="44.42801" lon="5.21507">
        <ele>427</ele>
        <time>2022-09-29T08:33:18Z</time>
      </trkpt>
      <trkpt lat="44.42801" lon="5.21507">
        <ele>427</ele>
        <time>2022-09-29T08:33:19Z</time>
      </trkpt>
      <trkpt lat="44.428" lon="5.21507">
        <ele>427</ele>
        <time>2022-09-29T08:33:20Z</time>
      </trkpt>
      <trkpt lat="44.428" lon="5.21507">
        <ele>427</ele>
        <time>2022-09-29T08:33:21Z</time>
      </trkpt>
      <trkpt lat="44.428" lon="5.21506">
        <ele>427</ele>
        <time>2022-09-29T08:33:22Z</time>
      </trkpt>
      <trkpt lat="44.428" lon="5.21505">
        <ele>427</ele>
        <time>2022-09-29T08:33:23Z</time>
      </trkpt>
      <trkpt lat="44.428" lon="5.21503">
        <ele>427</ele>
        <time>2022-09-29T08:33:24Z</time>
      </trkpt>
      <trkpt lat="44.428" lon="5.21501">
        <ele>427</ele>
        <time>2022-09-29T08:33:25Z</time>
      </trkpt>
      <trkpt lat="44.428" lon="5.215">
        <ele>427</ele>
        <time>2022-09-29T08:33:26Z</time>
      </trkpt>
      <trkpt lat="44.428" lon="5.21498">
        <ele>427</ele>
        <time>2022-09-29T08:33:27Z</time>
      </trkpt>
      <trkpt lat="44.428" lon="5.21496">
        <ele>427</ele>
        <time>2022-09-29T08:33:28Z</time>
      </trkpt>
      <trkpt lat="44.428" lon="5.21495">
        <ele>427</ele>
        <time>2022-09-29T08:33:29Z</time>
      </trkpt>
      <trkpt lat="44.42801" lon="5.21493">
        <ele>427</ele>
        <time>2022-09-29T08:33:30Z</time>
      </trkpt>
      <trkpt lat="44.42801" lon="5.21492">
        <ele>427</ele>
        <time>2022-09-29T08:33:31Z</time>
      </trkpt>
      <trkpt lat="44.42801" lon="5.21491">
        <ele>427</ele>
        <time>2022-09-29T08:33:32Z</time>
      </trkpt>
      <trkpt lat="44.42801" lon="5.21489">
        <ele>427</ele>
        <time>2022-09-29T08:33:33Z</time>
      </trkpt>
      <trkpt lat="44.42801" lon="5.21488">
        <ele>427</ele>
        <time>2022-09-29T08:33:34Z</time>
      </trkpt>
      <trkpt lat="44.42802" lon="5.21487">
        <ele>427</ele>
        <time>2022-09-29T08:33:35Z</time>
      </trkpt>
      <trkpt lat="44.42802" lon="5.21485">
        <ele>427</ele>
        <time>2022-09-29T08:33:36Z</time>
      </trkpt>
      <trkpt lat="44.42801" lon="5.21484">
        <ele>427</ele>
        <time>2022-09-29T08:33:37Z</time>
      </trkpt>
      <trkpt lat="44.42802" lon="5.21482">
        <ele>427</ele>
        <time>2022-09-29T08:33:38Z</time>
      </trkpt>
      <trkpt lat="44.42802" lon="5.21481">
        <ele>427</ele>
        <time>2022-09-29T08:33:39Z</time>
      </trkpt>
      <trkpt lat="44.42802" lon="5.21479">
        <ele>427</ele>
        <time>2022-09-29T08:33:40Z</time>
      </trkpt>
      <trkpt lat="44.42802" lon="5.21478">
        <ele>427</ele>
        <time>2022-09-29T08:33:41Z</time>
      </trkpt>
      <trkpt lat="44.42802" lon="5.21476">
        <ele>427</ele>
        <time>2022-09-29T08:33:42Z</time>
      </trkpt>
      <trkpt lat="44.42802" lon="5.21475">
        <ele>427</ele>
        <time>2022-09-29T08:33:43Z</time>
      </trkpt>
      <trkpt lat="44.42802" lon="5.21474">
        <ele>428</ele>
        <time>2022-09-29T08:33:44Z</time>
      </trkpt>
      <trkpt lat="44.42802" lon="5.21472">
        <ele>428</ele>
        <time>2022-09-29T08:33:45Z</time>
      </trkpt>
      <trkpt lat="44.42802" lon="5.21471">
        <ele>428</ele>
        <time>2022-09-29T08:33:46Z</time>
      </trkpt>
      <trkpt lat="44.42802" lon="5.2147">
        <ele>428</ele>
        <time>2022-09-29T08:33:47Z</time>
      </trkpt>
      <trkpt lat="44.42801" lon="5.21469">
        <ele>428</ele>
        <time>2022-09-29T08:33:48Z</time>
      </trkpt>
      <trkpt lat="44.42801" lon="5.21467">
        <ele>428</ele>
        <time>2022-09-29T08:33:49Z</time>
      </trkpt>
      <trkpt lat="44.42801" lon="5.21466">
        <ele>428</ele>
        <time>2022-09-29T08:33:50Z</time>
      </trkpt>
      <trkpt lat="44.42801" lon="5.21465">
        <ele>428</ele>
        <time>2022-09-29T08:33:51Z</time>
      </trkpt>
      <trkpt lat="44.42801" lon="5.21464">
        <ele>428</ele>
        <time>2022-09-29T08:33:52Z</time>
      </trkpt>
      <trkpt lat="44.42801" lon="5.21463">
        <ele>428</ele>
        <time>2022-09-29T08:33:53Z</time>
      </trkpt>
      <trkpt lat="44.42801" lon="5.21462">
        <ele>428</ele>
        <time>2022-09-29T08:33:54Z</time>
      </trkpt>
      <trkpt lat="44.42802" lon="5.21461">
        <ele>428</ele>
        <time>2022-09-29T08:33:55Z</time>
      </trkpt>
      <trkpt lat="44.42802" lon="5.21461">
        <ele>428</ele>
        <time>2022-09-29T08:33:56Z</time>
      </trkpt>
      <trkpt lat="44.42802" lon="5.2146">
        <ele>428</ele>
        <time>2022-09-29T08:33:57Z</time>
      </trkpt>
      <trkpt lat="44.42803" lon="5.2146">
        <ele>428</ele>
        <time>2022-09-29T08:33:58Z</time>
      </trkpt>
      <trkpt lat="44.42803" lon="5.2146">
        <ele>428</ele>
        <time>2022-09-29T08:33:59Z</time>
      </trkpt>
      <trkpt lat="44.42804" lon="5.2146">
        <ele>428</ele>
        <time>2022-09-29T08:34:00Z</time>
      </trkpt>
      <trkpt lat="44.42805" lon="5.2146">
        <ele>428</ele>
        <time>2022-09-29T08:34:01Z</time>
      </trkpt>
      <trkpt lat="44.42805" lon="5.2146">
        <ele>428</ele>
        <time>2022-09-29T08:34:02Z</time>
      </trkpt>
      <trkpt lat="44.42806" lon="5.2146">
        <ele>428</ele>
        <time>2022-09-29T08:34:03Z</time>
      </trkpt>
      <trkpt lat="44.42807" lon="5.21461">
        <ele>428</ele>
        <time>2022-09-29T08:34:04Z</time>
      </trkpt>
      <trkpt lat="44.42808" lon="5.21461">
        <ele>427</ele>
        <time>2022-09-29T08:34:05Z</time>
      </trkpt>
      <trkpt lat="44.42808" lon="5.21462">
        <ele>427</ele>
        <time>2022-09-29T08:34:06Z</time>
      </trkpt>
      <trkpt lat="44.42809" lon="5.21463">
        <ele>427</ele>
        <time>2022-09-29T08:34:07Z</time>
      </trkpt>
      <trkpt lat="44.42809" lon="5.21463">
        <ele>427</ele>
        <time>2022-09-29T08:34:08Z</time>
      </trkpt>
      <trkpt lat="44.4281" lon="5.21464">
        <ele>427</ele>
        <time>2022-09-29T08:34:09Z</time>
      </trkpt>
      <trkpt lat="44.4281" lon="5.21465">
        <ele>427</ele>
        <time>2022-09-29T08:34:10Z</time>
      </trkpt>
      <trkpt lat="44.42811" lon="5.21466">
        <ele>427</ele>
        <time>2022-09-29T08:34:11Z</time>
      </trkpt>
      <trkpt lat="44.42811" lon="5.21467">
        <ele>427</ele>
        <time>2022-09-29T08:34:12Z</time>
      </trkpt>
      <trkpt lat="44.42811" lon="5.21468">
        <ele>427</ele>
        <time>2022-09-29T08:34:13Z</time>
      </trkpt>
      <trkpt lat="44.42812" lon="5.21469">
        <ele>427</ele>
        <time>2022-09-29T08:34:14Z</time>
      </trkpt>
      <trkpt lat="44.42812" lon="5.2147">
        <ele>426</ele>
        <time>2022-09-29T08:34:15Z</time>
      </trkpt>
      <trkpt lat="44.42812" lon="5.21471">
        <ele>426</ele>
        <time>2022-09-29T08:34:16Z</time>
      </trkpt>
      <trkpt lat="44.42812" lon="5.21472">
        <ele>426</ele>
        <time>2022-09-29T08:34:17Z</time>
      </trkpt>
      <trkpt lat="44.42813" lon="5.21473">
        <ele>426</ele>
        <time>2022-09-29T08:34:18Z</time>
      </trkpt>
      <trkpt lat="44.42813" lon="5.21474">
        <ele>426</ele>
        <time>2022-09-29T08:34:19Z</time>
      </trkpt>
      <trkpt lat="44.42813" lon="5.21475">
        <ele>426</ele>
        <time>2022-09-29T08:34:20Z</time>
      </trkpt>
      <trkpt lat="44.42814" lon="5.21476">
        <ele>426</ele>
        <time>2022-09-29T08:34:21Z</time>
      </trkpt>
      <trkpt lat="44.42814" lon="5.21477">
        <ele>426</ele>
        <time>2022-09-29T08:34:22Z</time>
      </trkpt>
      <trkpt lat="44.42815" lon="5.21478">
        <ele>426</ele>
        <time>2022-09-29T08:34:23Z</time>
      </trkpt>
      <trkpt lat="44.42815" lon="5.21479">
        <ele>426</ele>
        <time>2022-09-29T08:34:24Z</time>
      </trkpt>
      <trkpt lat="44.42815" lon="5.2148">
        <ele>425</ele>
        <time>2022-09-29T08:34:25Z</time>
      </trkpt>
      <trkpt lat="44.42816" lon="5.21481">
        <ele>425</ele>
        <time>2022-09-29T08:34:26Z</time>
      </trkpt>
      <trkpt lat="44.42816" lon="5.21481">
        <ele>425</ele>
        <time>2022-09-29T08:34:27Z</time>
      </trkpt>
      <trkpt lat="44.42816" lon="5.21482">
        <ele>425</ele>
        <time>2022-09-29T08:34:28Z</time>
      </trkpt>
      <trkpt lat="44.42817" lon="5.21483">
        <ele>425</ele>
        <time>2022-09-29T08:34:29Z</time>
      </trkpt>
      <trkpt lat="44.42817" lon="5.21484">
        <ele>424</ele>
        <time>2022-09-29T08:34:30Z</time>
      </trkpt>
      <trkpt lat="44.42817" lon="5.21485">
        <ele>424</ele>
        <time>2022-09-29T08:34:31Z</time>
      </trkpt>
      <trkpt lat="44.42817" lon="5.21487">
        <ele>424</ele>
        <time>2022-09-29T08:34:32Z</time>
      </trkpt>
      <trkpt lat="44.42818" lon="5.21488">
        <ele>424</ele>
        <time>2022-09-29T08:34:33Z</time>
      </trkpt>
      <trkpt lat="44.42818" lon="5.21489">
        <ele>424</ele>
        <time>2022-09-29T08:34:34Z</time>
      </trkpt>
      <trkpt lat="44.42819" lon="5.2149">
        <ele>423</ele>
        <time>2022-09-29T08:34:35Z</time>
      </trkpt>
      <trkpt lat="44.42819" lon="5.21491">
        <ele>423</ele>
        <time>2022-09-29T08:34:36Z</time>
      </trkpt>
      <trkpt lat="44.42819" lon="5.21492">
        <ele>423</ele>
        <time>2022-09-29T08:34:37Z</time>
      </trkpt>
      <trkpt lat="44.4282" lon="5.21493">
        <ele>423</ele>
        <time>2022-09-29T08:34:38Z</time>
      </trkpt>
      <trkpt lat="44.42821" lon="5.21494">
        <ele>423</ele>
        <time>2022-09-29T08:34:39Z</time>
      </trkpt>
      <trkpt lat="44.42821" lon="5.21495">
        <ele>422</ele>
        <time>2022-09-29T08:34:40Z</time>
      </trkpt>
      <trkpt lat="44.42822" lon="5.21496">
        <ele>422</ele>
        <time>2022-09-29T08:34:41Z</time>
      </trkpt>
      <trkpt lat="44.42823" lon="5.21497">
        <ele>422</ele>
        <time>2022-09-29T08:34:42Z</time>
      </trkpt>
      <trkpt lat="44.42823" lon="5.21498">
        <ele>422</ele>
        <time>2022-09-29T08:34:43Z</time>
      </trkpt>
      <trkpt lat="44.42824" lon="5.21499">
        <ele>422</ele>
        <time>2022-09-29T08:34:44Z</time>
      </trkpt>
      <trkpt lat="44.42825" lon="5.215">
        <ele>421</ele>
        <time>2022-09-29T08:34:45Z</time>
      </trkpt>
      <trkpt lat="44.42826" lon="5.21501">
        <ele>421</ele>
        <time>2022-09-29T08:34:46Z</time>
      </trkpt>
      <trkpt lat="44.42826" lon="5.21502">
        <ele>421</ele>
        <time>2022-09-29T08:34:47Z</time>
      </trkpt>
      <trkpt lat="44.42827" lon="5.21502">
        <ele>421</ele>
        <time>2022-09-29T08:34:48Z</time>
      </trkpt>
      <trkpt lat="44.42827" lon="5.21503">
        <ele>421</ele>
        <time>2022-09-29T08:34:49Z</time>
      </trkpt>
      <trkpt lat="44.42828" lon="5.21504">
        <ele>420</ele>
        <time>2022-09-29T08:34:50Z</time>
      </trkpt>
      <trkpt lat="44.42828" lon="5.21505">
        <ele>420</ele>
        <time>2022-09-29T08:34:51Z</time>
      </trkpt>
      <trkpt lat="44.42828" lon="5.21506">
        <ele>420</ele>
        <time>2022-09-29T08:34:52Z</time>
      </trkpt>
      <trkpt lat="44.42829" lon="5.21507">
        <ele>420</ele>
        <time>2022-09-29T08:34:53Z</time>
      </trkpt>
      <trkpt lat="44.42829" lon="5.21508">
        <ele>420</ele>
        <time>2022-09-29T08:34:54Z</time>
      </trkpt>
      <trkpt lat="44.42829" lon="5.21509">
        <ele>420</ele>
        <time>2022-09-29T08:34:55Z</time>
      </trkpt>
      <trkpt lat="44.4283" lon="5.2151">
        <ele>420</ele>
        <time>2022-09-29T08:34:56Z</time>
      </trkpt>
      <trkpt lat="44.4283" lon="5.2151">
        <ele>420</ele>
        <time>2022-09-29T08:34:57Z</time>
      </trkpt>
      <trkpt lat="44.42831" lon="5.21511">
        <ele>420</ele>
        <time>2022-09-29T08:34:58Z</time>
      </trkpt>
      <trkpt lat="44.42832" lon="5.21512">
        <ele>420</ele>
        <time>2022-09-29T08:34:59Z</time>
      </trkpt>
      <trkpt lat="44.42833" lon="5.21513">
        <ele>419</ele>
        <time>2022-09-29T08:35:00Z</time>
      </trkpt>
      <trkpt lat="44.42834" lon="5.21514">
        <ele>419</ele>
        <time>2022-09-29T08:35:01Z</time>
      </trkpt>
      <trkpt lat="44.42835" lon="5.21514">
        <ele>419</ele>
        <time>2022-09-29T08:35:02Z</time>
      </trkpt>
      <trkpt lat="44.42835" lon="5.21515">
        <ele>419</ele>
        <time>2022-09-29T08:35:03Z</time>
      </trkpt>
      <trkpt lat="44.42836" lon="5.21516">
        <ele>419</ele>
        <time>2022-09-29T08:35:04Z</time>
      </trkpt>
      <trkpt lat="44.42837" lon="5.21517">
        <ele>418</ele>
        <time>2022-09-29T08:35:05Z</time>
      </trkpt>
      <trkpt lat="44.42838" lon="5.21518">
        <ele>418</ele>
        <time>2022-09-29T08:35:06Z</time>
      </trkpt>
      <trkpt lat="44.42838" lon="5.21519">
        <ele>418</ele>
        <time>2022-09-29T08:35:07Z</time>
      </trkpt>
      <trkpt lat="44.42839" lon="5.2152">
        <ele>418</ele>
        <time>2022-09-29T08:35:08Z</time>
      </trkpt>
      <trkpt lat="44.42839" lon="5.21522">
        <ele>418</ele>
        <time>2022-09-29T08:35:09Z</time>
      </trkpt>
      <trkpt lat="44.4284" lon="5.21523">
        <ele>418</ele>
        <time>2022-09-29T08:35:10Z</time>
      </trkpt>
      <trkpt lat="44.4284" lon="5.21524">
        <ele>418</ele>
        <time>2022-09-29T08:35:11Z</time>
      </trkpt>
      <trkpt lat="44.4284" lon="5.21525">
        <ele>418</ele>
        <time>2022-09-29T08:35:12Z</time>
      </trkpt>
      <trkpt lat="44.42841" lon="5.21526">
        <ele>418</ele>
        <time>2022-09-29T08:35:13Z</time>
      </trkpt>
      <trkpt lat="44.42841" lon="5.21527">
        <ele>418</ele>
        <time>2022-09-29T08:35:14Z</time>
      </trkpt>
      <trkpt lat="44.42842" lon="5.21528">
        <ele>417</ele>
        <time>2022-09-29T08:35:15Z</time>
      </trkpt>
      <trkpt lat="44.42843" lon="5.21529">
        <ele>417</ele>
        <time>2022-09-29T08:35:16Z</time>
      </trkpt>
      <trkpt lat="44.42843" lon="5.2153">
        <ele>417</ele>
        <time>2022-09-29T08:35:17Z</time>
      </trkpt>
      <trkpt lat="44.42844" lon="5.21532">
        <ele>417</ele>
        <time>2022-09-29T08:35:18Z</time>
      </trkpt>
      <trkpt lat="44.42845" lon="5.21533">
        <ele>417</ele>
        <time>2022-09-29T08:35:19Z</time>
      </trkpt>
      <trkpt lat="44.42846" lon="5.21534">
        <ele>416</ele>
        <time>2022-09-29T08:35:20Z</time>
      </trkpt>
      <trkpt lat="44.42846" lon="5.21536">
        <ele>416</ele>
        <time>2022-09-29T08:35:21Z</time>
      </trkpt>
      <trkpt lat="44.42847" lon="5.21537">
        <ele>415</ele>
        <time>2022-09-29T08:35:22Z</time>
      </trkpt>
      <trkpt lat="44.42848" lon="5.21539">
        <ele>415</ele>
        <time>2022-09-29T08:35:23Z</time>
      </trkpt>
      <trkpt lat="44.42848" lon="5.2154">
        <ele>415</ele>
        <time>2022-09-29T08:35:24Z</time>
      </trkpt>
      <trkpt lat="44.42849" lon="5.21541">
        <ele>415</ele>
        <time>2022-09-29T08:35:25Z</time>
      </trkpt>
      <trkpt lat="44.42849" lon="5.21542">
        <ele>415</ele>
        <time>2022-09-29T08:35:26Z</time>
      </trkpt>
      <trkpt lat="44.4285" lon="5.21543">
        <ele>415</ele>
        <time>2022-09-29T08:35:27Z</time>
      </trkpt>
      <trkpt lat="44.4285" lon="5.21544">
        <ele>415</ele>
        <time>2022-09-29T08:35:28Z</time>
      </trkpt>
      <trkpt lat="44.42851" lon="5.21545">
        <ele>415</ele>
        <time>2022-09-29T08:35:29Z</time>
      </trkpt>
      <trkpt lat="44.42851" lon="5.21546">
        <ele>414</ele>
        <time>2022-09-29T08:35:30Z</time>
      </trkpt>
      <trkpt lat="44.42852" lon="5.21547">
        <ele>414</ele>
        <time>2022-09-29T08:35:31Z</time>
      </trkpt>
      <trkpt lat="44.42853" lon="5.21548">
        <ele>414</ele>
        <time>2022-09-29T08:35:32Z</time>
      </trkpt>
      <trkpt lat="44.42853" lon="5.21549">
        <ele>414</ele>
        <time>2022-09-29T08:35:33Z</time>
      </trkpt>
      <trkpt lat="44.42854" lon="5.2155">
        <ele>414</ele>
        <time>2022-09-29T08:35:34Z</time>
      </trkpt>
      <trkpt lat="44.42855" lon="5.21551">
        <ele>414</ele>
        <time>2022-09-29T08:35:35Z</time>
      </trkpt>
      <trkpt lat="44.42855" lon="5.21552">
        <ele>414</ele>
        <time>2022-09-29T08:35:36Z</time>
      </trkpt>
      <trkpt lat="44.42856" lon="5.21553">
        <ele>414</ele>
        <time>2022-09-29T08:35:37Z</time>
      </trkpt>
      <trkpt lat="44.42856" lon="5.21554">
        <ele>414</ele>
        <time>2022-09-29T08:35:38Z</time>
      </trkpt>
      <trkpt lat="44.42857" lon="5.21555">
        <ele>414</ele>
        <time>2022-09-29T08:35:39Z</time>
      </trkpt>
      <trkpt lat="44.42857" lon="5.21556">
        <ele>414</ele>
        <time>2022-09-29T08:35:40Z</time>
      </trkpt>
      <trkpt lat="44.42857" lon="5.21557">
        <ele>414</ele>
        <time>2022-09-29T08:35:41Z</time>
      </trkpt>
      <trkpt lat="44.42858" lon="5.21558">
        <ele>414</ele>
        <time>2022-09-29T08:35:42Z</time>
      </trkpt>
      <trkpt lat="44.42858" lon="5.2156">
        <ele>414</ele>
        <time>2022-09-29T08:35:43Z</time>
      </trkpt>
      <trkpt lat="44.42859" lon="5.21561">
        <ele>414</ele>
        <time>2022-09-29T08:35:44Z</time>
      </trkpt>
      <trkpt lat="44.42859" lon="5.21562">
        <ele>414</ele>
        <time>2022-09-29T08:35:45Z</time>
      </trkpt>
      <trkpt lat="44.4286" lon="5.21563">
        <ele>414</ele>
        <time>2022-09-29T08:35:46Z</time>
      </trkpt>
      <trkpt lat="44.42861" lon="5.21564">
        <ele>414</ele>
        <time>2022-09-29T08:35:47Z</time>
      </trkpt>
      <trkpt lat="44.42861" lon="5.21566">
        <ele>414</ele>
        <time>2022-09-29T08:35:48Z</time>
      </trkpt>
      <trkpt lat="44.42862" lon="5.21567">
        <ele>414</ele>
        <time>2022-09-29T08:35:49Z</time>
      </trkpt>
      <trkpt lat="44.42863" lon="5.21568">
        <ele>413</ele>
        <time>2022-09-29T08:35:50Z</time>
      </trkpt>
      <trkpt lat="44.42863" lon="5.21569">
        <ele>413</ele>
        <time>2022-09-29T08:35:51Z</time>
      </trkpt>
      <trkpt lat="44.42864" lon="5.21571">
        <ele>413</ele>
        <time>2022-09-29T08:35:52Z</time>
      </trkpt>
      <trkpt lat="44.42865" lon="5.21572">
        <ele>413</ele>
        <time>2022-09-29T08:35:53Z</time>
      </trkpt>
      <trkpt lat="44.42866" lon="5.21573">
        <ele>413</ele>
        <time>2022-09-29T08:35:54Z</time>
      </trkpt>
      <trkpt lat="44.42866" lon="5.21575">
        <ele>413</ele>
        <time>2022-09-29T08:35:55Z</time>
      </trkpt>
      <trkpt lat="44.42867" lon="5.21576">
        <ele>413</ele>
        <time>2022-09-29T08:35:56Z</time>
      </trkpt>
      <trkpt lat="44.42868" lon="5.21577">
        <ele>413</ele>
        <time>2022-09-29T08:35:57Z</time>
      </trkpt>
      <trkpt lat="44.42868" lon="5.21579">
        <ele>413</ele>
        <time>2022-09-29T08:35:58Z</time>
      </trkpt>
      <trkpt lat="44.42869" lon="5.2158">
        <ele>413</ele>
        <time>2022-09-29T08:35:59Z</time>
      </trkpt>
      <trkpt lat="44.4287" lon="5.21582">
        <ele>413</ele>
        <time>2022-09-29T08:36:00Z</time>
      </trkpt>
      <trkpt lat="44.4287" lon="5.21583">
        <ele>413</ele>
        <time>2022-09-29T08:36:01Z</time>
      </trkpt>
      <trkpt lat="44.4287" lon="5.21584">
        <ele>413</ele>
        <time>2022-09-29T08:36:02Z</time>
      </trkpt>
      <trkpt lat="44.42871" lon="5.21586">
        <ele>413</ele>
        <time>2022-09-29T08:36:03Z</time>
      </trkpt>
      <trkpt lat="44.42871" lon="5.21587">
        <ele>413</ele>
        <time>2022-09-29T08:36:04Z</time>
      </trkpt>
      <trkpt lat="44.42872" lon="5.21589">
        <ele>413</ele>
        <time>2022-09-29T08:36:05Z</time>
      </trkpt>
      <trkpt lat="44.42872" lon="5.2159">
        <ele>413</ele>
        <time>2022-09-29T08:36:06Z</time>
      </trkpt>
      <trkpt lat="44.42873" lon="5.21592">
        <ele>413</ele>
        <time>2022-09-29T08:36:07Z</time>
      </trkpt>
      <trkpt lat="44.42873" lon="5.21593">
        <ele>413</ele>
        <time>2022-09-29T08:36:08Z</time>
      </trkpt>
      <trkpt lat="44.42873" lon="5.21595">
        <ele>413</ele>
        <time>2022-09-29T08:36:09Z</time>
      </trkpt>
      <trkpt lat="44.42874" lon="5.21596">
        <ele>413</ele>
        <time>2022-09-29T08:36:10Z</time>
      </trkpt>
      <trkpt lat="44.42874" lon="5.21598">
        <ele>413</ele>
        <time>2022-09-29T08:36:11Z</time>
      </trkpt>
      <trkpt lat="44.42874" lon="5.21599">
        <ele>413</ele>
        <time>2022-09-29T08:36:12Z</time>
      </trkpt>
      <trkpt lat="44.42874" lon="5.21601">
        <ele>413</ele>
        <time>2022-09-29T08:36:13Z</time>
      </trkpt>
      <trkpt lat="44.42874" lon="5.21602">
        <ele>413</ele>
        <time>2022-09-29T08:36:14Z</time>
      </trkpt>
      <trkpt lat="44.42873" lon="5.21603">
        <ele>413</ele>
        <time>2022-09-29T08:36:15Z</time>
      </trkpt>
      <trkpt lat="44.42873" lon="5.21604">
        <ele>413</ele>
        <time>2022-09-29T08:36:16Z</time>
      </trkpt>
      <trkpt lat="44.42873" lon="5.21605">
        <ele>413</ele>
        <time>2022-09-29T08:36:17Z</time>
      </trkpt>
      <trkpt lat="44.42872" lon="5.21606">
        <ele>413</ele>
        <time>2022-09-29T08:36:18Z</time>
      </trkpt>
      <trkpt lat="44.42872" lon="5.21607">
        <ele>413</ele>
        <time>2022-09-29T08:36:19Z</time>
      </trkpt>
      <trkpt lat="44.42872" lon="5.21608">
        <ele>413</ele>
        <time>2022-09-29T08:36:20Z</time>
      </trkpt>
      <trkpt lat="44.42871" lon="5.21609">
        <ele>413</ele>
        <time>2022-09-29T08:36:21Z</time>
      </trkpt>
      <trkpt lat="44.4287" lon="5.21609">
        <ele>413</ele>
        <time>2022-09-29T08:36:22Z</time>
      </trkpt>
      <trkpt lat="44.4287" lon="5.2161">
        <ele>413</ele>
        <time>2022-09-29T08:36:23Z</time>
      </trkpt>
      <trkpt lat="44.42869" lon="5.21611">
        <ele>413</ele>
        <time>2022-09-29T08:36:24Z</time>
      </trkpt>
      <trkpt lat="44.42868" lon="5.21611">
        <ele>413</ele>
        <time>2022-09-29T08:36:25Z</time>
      </trkpt>
      <trkpt lat="44.42867" lon="5.21612">
        <ele>413</ele>
        <time>2022-09-29T08:36:26Z</time>
      </trkpt>
      <trkpt lat="44.42867" lon="5.21613">
        <ele>413</ele>
        <time>2022-09-29T08:36:27Z</time>
      </trkpt>
      <trkpt lat="44.42866" lon="5.21613">
        <ele>413</ele>
        <time>2022-09-29T08:36:28Z</time>
      </trkpt>
      <trkpt lat="44.42865" lon="5.21614">
        <ele>413</ele>
        <time>2022-09-29T08:36:29Z</time>
      </trkpt>
      <trkpt lat="44.42865" lon="5.21615">
        <ele>412</ele>
        <time>2022-09-29T08:36:30Z</time>
      </trkpt>
      <trkpt lat="44.42864" lon="5.21616">
        <ele>412</ele>
        <time>2022-09-29T08:36:31Z</time>
      </trkpt>
      <trkpt lat="44.42863" lon="5.21617">
        <ele>412</ele>
        <time>2022-09-29T08:36:32Z</time>
      </trkpt>
      <trkpt lat="44.42863" lon="5.21618">
        <ele>412</ele>
        <time>2022-09-29T08:36:33Z</time>
      </trkpt>
      <trkpt lat="44.42862" lon="5.21619">
        <ele>412</ele>
        <time>2022-09-29T08:36:34Z</time>
      </trkpt>
      <trkpt lat="44.42861" lon="5.2162">
        <ele>412</ele>
        <time>2022-09-29T08:36:35Z</time>
      </trkpt>
      <trkpt lat="44.42861" lon="5.21621">
        <ele>412</ele>
        <time>2022-09-29T08:36:36Z</time>
      </trkpt>
      <trkpt lat="44.4286" lon="5.21622">
        <ele>412</ele>
        <time>2022-09-29T08:36:37Z</time>
      </trkpt>
      <trkpt lat="44.4286" lon="5.21623">
        <ele>412</ele>
        <time>2022-09-29T08:36:38Z</time>
      </trkpt>
      <trkpt lat="44.4286" lon="5.21625">
        <ele>412</ele>
        <time>2022-09-29T08:36:39Z</time>
      </trkpt>
      <trkpt lat="44.4286" lon="5.21626">
        <ele>412</ele>
        <time>2022-09-29T08:36:40Z</time>
      </trkpt>
      <trkpt lat="44.42859" lon="5.21627">
        <ele>412</ele>
        <time>2022-09-29T08:36:41Z</time>
      </trkpt>
      <trkpt lat="44.42859" lon="5.21628">
        <ele>412</ele>
        <time>2022-09-29T08:36:42Z</time>
      </trkpt>
      <trkpt lat="44.42859" lon="5.21629">
        <ele>412</ele>
        <time>2022-09-29T08:36:43Z</time>
      </trkpt>
      <trkpt lat="44.42859" lon="5.2163">
        <ele>413</ele>
        <time>2022-09-29T08:36:44Z</time>
      </trkpt>
      <trkpt lat="44.42858" lon="5.21632">
        <ele>413</ele>
        <time>2022-09-29T08:36:45Z</time>
      </trkpt>
      <trkpt lat="44.42858" lon="5.21633">
        <ele>413</ele>
        <time>2022-09-29T08:36:46Z</time>
      </trkpt>
      <trkpt lat="44.42857" lon="5.21635">
        <ele>413</ele>
        <time>2022-09-29T08:36:47Z</time>
      </trkpt>
      <trkpt lat="44.42857" lon="5.21636">
        <ele>413</ele>
        <time>2022-09-29T08:36:48Z</time>
      </trkpt>
      <trkpt lat="44.42856" lon="5.21637">
        <ele>413</ele>
        <time>2022-09-29T08:36:49Z</time>
      </trkpt>
      <trkpt lat="44.42856" lon="5.21639">
        <ele>412</ele>
        <time>2022-09-29T08:36:50Z</time>
      </trkpt>
      <trkpt lat="44.42855" lon="5.2164">
        <ele>412</ele>
        <time>2022-09-29T08:36:51Z</time>
      </trkpt>
      <trkpt lat="44.42855" lon="5.21641">
        <ele>412</ele>
        <time>2022-09-29T08:36:52Z</time>
      </trkpt>
      <trkpt lat="44.42854" lon="5.21642">
        <ele>412</ele>
        <time>2022-09-29T08:36:53Z</time>
      </trkpt>
      <trkpt lat="44.42854" lon="5.21643">
        <ele>412</ele>
        <time>2022-09-29T08:36:54Z</time>
      </trkpt>
      <trkpt lat="44.42853" lon="5.21644">
        <ele>411</ele>
        <time>2022-09-29T08:36:55Z</time>
      </trkpt>
      <trkpt lat="44.42852" lon="5.21645">
        <ele>411</ele>
        <time>2022-09-29T08:36:56Z</time>
      </trkpt>
      <trkpt lat="44.42851" lon="5.21646">
        <ele>411</ele>
        <time>2022-09-29T08:36:57Z</time>
      </trkpt>
      <trkpt lat="44.42851" lon="5.21647">
        <ele>411</ele>
        <time>2022-09-29T08:36:58Z</time>
      </trkpt>
      <trkpt lat="44.4285" lon="5.21647">
        <ele>411</ele>
        <time>2022-09-29T08:36:59Z</time>
      </trkpt>
      <trkpt lat="44.42849" lon="5.21648">
        <ele>411</ele>
        <time>2022-09-29T08:37:00Z</time>
      </trkpt>
      <trkpt lat="44.42849" lon="5.21649">
        <ele>411</ele>
        <time>2022-09-29T08:37:01Z</time>
      </trkpt>
      <trkpt lat="44.42848" lon="5.2165">
        <ele>411</ele>
        <time>2022-09-29T08:37:02Z</time>
      </trkpt>
      <trkpt lat="44.42848" lon="5.21651">
        <ele>411</ele>
        <time>2022-09-29T08:37:03Z</time>
      </trkpt>
      <trkpt lat="44.42847" lon="5.21652">
        <ele>411</ele>
        <time>2022-09-29T08:37:04Z</time>
      </trkpt>
      <trkpt lat="44.42846" lon="5.21653">
        <ele>411</ele>
        <time>2022-09-29T08:37:05Z</time>
      </trkpt>
      <trkpt lat="44.42846" lon="5.21653">
        <ele>411</ele>
        <time>2022-09-29T08:37:06Z</time>
      </trkpt>
      <trkpt lat="44.42845" lon="5.21654">
        <ele>411</ele>
        <time>2022-09-29T08:37:07Z</time>
      </trkpt>
      <trkpt lat="44.42844" lon="5.21655">
        <ele>411</ele>
        <time>2022-09-29T08:37:08Z</time>
      </trkpt>
      <trkpt lat="44.42843" lon="5.21657">
        <ele>411</ele>
        <time>2022-09-29T08:37:09Z</time>
      </trkpt>
      <trkpt lat="44.42842" lon="5.21658">
        <ele>411</ele>
        <time>2022-09-29T08:37:10Z</time>
      </trkpt>
      <trkpt lat="44.42841" lon="5.21659">
        <ele>411</ele>
        <time>2022-09-29T08:37:11Z</time>
      </trkpt>
      <trkpt lat="44.4284" lon="5.2166">
        <ele>411</ele>
        <time>2022-09-29T08:37:12Z</time>
      </trkpt>
      <trkpt lat="44.4284" lon="5.21661">
        <ele>411</ele>
        <time>2022-09-29T08:37:13Z</time>
      </trkpt>
      <trkpt lat="44.42839" lon="5.21662">
        <ele>411</ele>
        <time>2022-09-29T08:37:14Z</time>
      </trkpt>
      <trkpt lat="44.42838" lon="5.21663">
        <ele>411</ele>
        <time>2022-09-29T08:37:15Z</time>
      </trkpt>
      <trkpt lat="44.42837" lon="5.21664">
        <ele>411</ele>
        <time>2022-09-29T08:37:16Z</time>
      </trkpt>
      <trkpt lat="44.42836" lon="5.21665">
        <ele>411</ele>
        <time>2022-09-29T08:37:17Z</time>
      </trkpt>
      <trkpt lat="44.42836" lon="5.21666">
        <ele>411</ele>
        <time>2022-09-29T08:37:18Z</time>
      </trkpt>
      <trkpt lat="44.42835" lon="5.21667">
        <ele>411</ele>
        <time>2022-09-29T08:37:19Z</time>
      </trkpt>
      <trkpt lat="44.42834" lon="5.21669">
        <ele>410</ele>
        <time>2022-09-29T08:37:20Z</time>
      </trkpt>
      <trkpt lat="44.42833" lon="5.2167">
        <ele>410</ele>
        <time>2022-09-29T08:37:21Z</time>
      </trkpt>
      <trkpt lat="44.42832" lon="5.21671">
        <ele>410</ele>
        <time>2022-09-29T08:37:22Z</time>
      </trkpt>
      <trkpt lat="44.42832" lon="5.21672">
        <ele>410</ele>
        <time>2022-09-29T08:37:23Z</time>
      </trkpt>
      <trkpt lat="44.42831" lon="5.21673">
        <ele>410</ele>
        <time>2022-09-29T08:37:24Z</time>
      </trkpt>
      <trkpt lat="44.4283" lon="5.21674">
        <ele>410</ele>
        <time>2022-09-29T08:37:25Z</time>
      </trkpt>
      <trkpt lat="44.42829" lon="5.21675">
        <ele>410</ele>
        <time>2022-09-29T08:37:26Z</time>
      </trkpt>
      <trkpt lat="44.42829" lon="5.21676">
        <ele>410</ele>
        <time>2022-09-29T08:37:27Z</time>
      </trkpt>
      <trkpt lat="44.42828" lon="5.21676">
        <ele>410</ele>
        <time>2022-09-29T08:37:28Z</time>
      </trkpt>
      <trkpt lat="44.42827" lon="5.21677">
        <ele>410</ele>
        <time>2022-09-29T08:37:29Z</time>
      </trkpt>
      <trkpt lat="44.42826" lon="5.21678">
        <ele>410</ele>
        <time>2022-09-29T08:37:30Z</time>
      </trkpt>
      <trkpt lat="44.42826" lon="5.21679">
        <ele>410</ele>
        <time>2022-09-29T08:37:31Z</time>
      </trkpt>
      <trkpt lat="44.42825" lon="5.21679">
        <ele>410</ele>
        <time>2022-09-29T08:37:32Z</time>
      </trkpt>
      <trkpt lat="44.42824" lon="5.2168">
        <ele>410</ele>
        <time>2022-09-29T08:37:33Z</time>
      </trkpt>
      <trkpt lat="44.42823" lon="5.21681">
        <ele>410</ele>
        <time>2022-09-29T08:37:34Z</time>
      </trkpt>
      <trkpt lat="44.42822" lon="5.21681">
        <ele>410</ele>
        <time>2022-09-29T08:37:35Z</time>
      </trkpt>
      <trkpt lat="44.42821" lon="5.21682">
        <ele>410</ele>
        <time>2022-09-29T08:37:36Z</time>
      </trkpt>
      <trkpt lat="44.4282" lon="5.21683">
        <ele>410</ele>
        <time>2022-09-29T08:37:37Z</time>
      </trkpt>
      <trkpt lat="44.42819" lon="5.21683">
        <ele>410</ele>
        <time>2022-09-29T08:37:38Z</time>
      </trkpt>
      <trkpt lat="44.42818" lon="5.21684">
        <ele>410</ele>
        <time>2022-09-29T08:37:39Z</time>
      </trkpt>
      <trkpt lat="44.42817" lon="5.21684">
        <ele>410</ele>
        <time>2022-09-29T08:37:40Z</time>
      </trkpt>
      <trkpt lat="44.42816" lon="5.21685">
        <ele>410</ele>
        <time>2022-09-29T08:37:41Z</time>
      </trkpt>
      <trkpt lat="44.42814" lon="5.21686">
        <ele>410</ele>
        <time>2022-09-29T08:37:42Z</time>
      </trkpt>
      <trkpt lat="44.42813" lon="5.21686">
        <ele>410</ele>
        <time>2022-09-29T08:37:43Z</time>
      </trkpt>
      <trkpt lat="44.42812" lon="5.21687">
        <ele>410</ele>
        <time>2022-09-29T08:37:44Z</time>
      </trkpt>
      <trkpt lat="44.42811" lon="5.21687">
        <ele>410</ele>
        <time>2022-09-29T08:37:45Z</time>
      </trkpt>
      <trkpt lat="44.42809" lon="5.21688">
        <ele>410</ele>
        <time>2022-09-29T08:37:46Z</time>
      </trkpt>
      <trkpt lat="44.42808" lon="5.21688">
        <ele>410</ele>
        <time>2022-09-29T08:37:47Z</time>
      </trkpt>
      <trkpt lat="44.42807" lon="5.21689">
        <ele>410</ele>
        <time>2022-09-29T08:37:48Z</time>
      </trkpt>
      <trkpt lat="44.42806" lon="5.21689">
        <ele>410</ele>
        <time>2022-09-29T08:37:49Z</time>
      </trkpt>
      <trkpt lat="44.42805" lon="5.2169">
        <ele>410</ele>
        <time>2022-09-29T08:37:50Z</time>
      </trkpt>
      <trkpt lat="44.42804" lon="5.2169">
        <ele>410</ele>
        <time>2022-09-29T08:37:51Z</time>
      </trkpt>
      <trkpt lat="44.42803" lon="5.21691">
        <ele>410</ele>
        <time>2022-09-29T08:37:52Z</time>
      </trkpt>
      <trkpt lat="44.42802" lon="5.21691">
        <ele>410</ele>
        <time>2022-09-29T08:37:53Z</time>
      </trkpt>
      <trkpt lat="44.428" lon="5.21691">
        <ele>410</ele>
        <time>2022-09-29T08:37:54Z</time>
      </trkpt>
      <trkpt lat="44.42799" lon="5.21692">
        <ele>410</ele>
        <time>2022-09-29T08:37:55Z</time>
      </trkpt>
      <trkpt lat="44.42798" lon="5.21692">
        <ele>410</ele>
        <time>2022-09-29T08:37:56Z</time>
      </trkpt>
      <trkpt lat="44.42797" lon="5.21692">
        <ele>410</ele>
        <time>2022-09-29T08:37:57Z</time>
      </trkpt>
      <trkpt lat="44.42796" lon="5.21692">
        <ele>410</ele>
        <time>2022-09-29T08:37:58Z</time>
      </trkpt>
      <trkpt lat="44.42795" lon="5.21692">
        <ele>410</ele>
        <time>2022-09-29T08:37:59Z</time>
      </trkpt>
      <trkpt lat="44.42794" lon="5.21692">
        <ele>410</ele>
        <time>2022-09-29T08:38:00Z</time>
      </trkpt>
      <trkpt lat="44.42793" lon="5.21692">
        <ele>410</ele>
        <time>2022-09-29T08:38:01Z</time>
      </trkpt>
      <trkpt lat="44.42792" lon="5.21692">
        <ele>410</ele>
        <time>2022-09-29T08:38:02Z</time>
      </trkpt>
      <trkpt lat="44.42791" lon="5.21692">
        <ele>410</ele>
        <time>2022-09-29T08:38:03Z</time>
      </trkpt>
      <trkpt lat="44.4279" lon="5.21692">
        <ele>410</ele>
        <time>2022-09-29T08:38:04Z</time>
      </trkpt>
      <trkpt lat="44.42789" lon="5.21692">
        <ele>410</ele>
        <time>2022-09-29T08:38:05Z</time>
      </trkpt>
      <trkpt lat="44.42788" lon="5.21692">
        <ele>410</ele>
        <time>2022-09-29T08:38:06Z</time>
      </trkpt>
      <trkpt lat="44.42787" lon="5.21692">
        <ele>410</ele>
        <time>2022-09-29T08:38:07Z</time>
      </trkpt>
      <trkpt lat="44.42786" lon="5.21692">
        <ele>410</ele>
        <time>2022-09-29T08:38:08Z</time>
      </trkpt>
      <trkpt lat="44.42785" lon="5.21692">
        <ele>410</ele>
        <time>2022-09-29T08:38:09Z</time>
      </trkpt>
      <trkpt lat="44.42784" lon="5.21692">
        <ele>410</ele>
        <time>2022-09-29T08:38:10Z</time>
      </trkpt>
      <trkpt lat="44.42783" lon="5.21691">
        <ele>410</ele>
        <time>2022-09-29T08:38:11Z</time>
      </trkpt>
      <trkpt lat="44.42782" lon="5.21691">
        <ele>410</ele>
        <time>2022-09-29T08:38:12Z</time>
      </trkpt>
      <trkpt lat="44.42781" lon="5.21691">
        <ele>410</ele>
        <time>2022-09-29T08:38:13Z</time>
      </trkpt>
      <trkpt lat="44.4278" lon="5.21691">
        <ele>411</ele>
        <time>2022-09-29T08:38:14Z</time>
      </trkpt>
      <trkpt lat="44.42779" lon="5.21691">
        <ele>411</ele>
        <time>2022-09-29T08:38:15Z</time>
      </trkpt>
      <trkpt lat="44.42778" lon="5.21691">
        <ele>411</ele>
        <time>2022-09-29T08:38:16Z</time>
      </trkpt>
      <trkpt lat="44.42777" lon="5.21691">
        <ele>411</ele>
        <time>2022-09-29T08:38:17Z</time>
      </trkpt>
      <trkpt lat="44.42776" lon="5.21691">
        <ele>411</ele>
        <time>2022-09-29T08:38:18Z</time>
      </trkpt>
      <trkpt lat="44.42775" lon="5.21691">
        <ele>411</ele>
        <time>2022-09-29T08:38:19Z</time>
      </trkpt>
      <trkpt lat="44.42774" lon="5.21692">
        <ele>411</ele>
        <time>2022-09-29T08:38:20Z</time>
      </trkpt>
      <trkpt lat="44.42773" lon="5.21692">
        <ele>411</ele>
        <time>2022-09-29T08:38:21Z</time>
      </trkpt>
      <trkpt lat="44.42772" lon="5.21692">
        <ele>411</ele>
        <time>2022-09-29T08:38:22Z</time>
      </trkpt>
      <trkpt lat="44.42771" lon="5.21692">
        <ele>411</ele>
        <time>2022-09-29T08:38:23Z</time>
      </trkpt>
      <trkpt lat="44.4277" lon="5.21693">
        <ele>411</ele>
        <time>2022-09-29T08:38:24Z</time>
      </trkpt>
      <trkpt lat="44.42769" lon="5.21693">
        <ele>411</ele>
        <time>2022-09-29T08:38:25Z</time>
      </trkpt>
      <trkpt lat="44.42768" lon="5.21693">
        <ele>411</ele>
        <time>2022-09-29T08:38:26Z</time>
      </trkpt>
      <trkpt lat="44.42767" lon="5.21693">
        <ele>411</ele>
        <time>2022-09-29T08:38:27Z</time>
      </trkpt>
      <trkpt lat="44.42766" lon="5.21694">
        <ele>411</ele>
        <time>2022-09-29T08:38:28Z</time>
      </trkpt>
      <trkpt lat="44.42765" lon="5.21694">
        <ele>411</ele>
        <time>2022-09-29T08:38:29Z</time>
      </trkpt>
      <trkpt lat="44.42764" lon="5.21694">
        <ele>411</ele>
        <time>2022-09-29T08:38:30Z</time>
      </trkpt>
      <trkpt lat="44.42764" lon="5.21694">
        <ele>411</ele>
        <time>2022-09-29T08:38:31Z</time>
      </trkpt>
      <trkpt lat="44.42763" lon="5.21694">
        <ele>411</ele>
        <time>2022-09-29T08:38:32Z</time>
      </trkpt>
      <trkpt lat="44.42762" lon="5.21695">
        <ele>411</ele>
        <time>2022-09-29T08:38:33Z</time>
      </trkpt>
      <trkpt lat="44.42761" lon="5.21695">
        <ele>412</ele>
        <time>2022-09-29T08:38:34Z</time>
      </trkpt>
      <trkpt lat="44.4276" lon="5.21695">
        <ele>412</ele>
        <time>2022-09-29T08:38:35Z</time>
      </trkpt>
      <trkpt lat="44.42759" lon="5.21696">
        <ele>412</ele>
        <time>2022-09-29T08:38:36Z</time>
      </trkpt>
      <trkpt lat="44.42758" lon="5.21696">
        <ele>412</ele>
        <time>2022-09-29T08:38:37Z</time>
      </trkpt>
      <trkpt lat="44.42757" lon="5.21696">
        <ele>412</ele>
        <time>2022-09-29T08:38:38Z</time>
      </trkpt>
      <trkpt lat="44.42756" lon="5.21696">
        <ele>412</ele>
        <time>2022-09-29T08:38:39Z</time>
      </trkpt>
      <trkpt lat="44.42756" lon="5.21697">
        <ele>412</ele>
        <time>2022-09-29T08:38:40Z</time>
      </trkpt>
      <trkpt lat="44.42755" lon="5.21697">
        <ele>412</ele>
        <time>2022-09-29T08:38:41Z</time>
      </trkpt>
      <trkpt lat="44.42754" lon="5.21697">
        <ele>412</ele>
        <time>2022-09-29T08:38:42Z</time>
      </trkpt>
      <trkpt lat="44.42753" lon="5.21698">
        <ele>412</ele>
        <time>2022-09-29T08:38:52Z</time>
      </trkpt>
      <trkpt lat="44.42752" lon="5.21698">
        <ele>412</ele>
        <time>2022-09-29T08:38:53Z</time>
      </trkpt>
      <trkpt lat="44.42752" lon="5.21698">
        <ele>412</ele>
        <time>2022-09-29T08:38:54Z</time>
      </trkpt>
      <trkpt lat="44.42751" lon="5.21698">
        <ele>412</ele>
        <time>2022-09-29T08:38:55Z</time>
      </trkpt>
      <trkpt lat="44.4275" lon="5.21699">
        <ele>412</ele>
        <time>2022-09-29T08:38:56Z</time>
      </trkpt>
      <trkpt lat="44.4275" lon="5.21699">
        <ele>412</ele>
        <time>2022-09-29T08:38:57Z</time>
      </trkpt>
      <trkpt lat="44.42749" lon="5.217">
        <ele>412</ele>
        <time>2022-09-29T08:38:58Z</time>
      </trkpt>
      <trkpt lat="44.42748" lon="5.217">
        <ele>412</ele>
        <time>2022-09-29T08:38:59Z</time>
      </trkpt>
      <trkpt lat="44.42747" lon="5.21701">
        <ele>412</ele>
        <time>2022-09-29T08:39:00Z</time>
      </trkpt>
      <trkpt lat="44.42747" lon="5.21702">
        <ele>412</ele>
        <time>2022-09-29T08:39:01Z</time>
      </trkpt>
      <trkpt lat="44.42746" lon="5.21702">
        <ele>412</ele>
        <time>2022-09-29T08:39:02Z</time>
      </trkpt>
      <trkpt lat="44.42745" lon="5.21703">
        <ele>412</ele>
        <time>2022-09-29T08:39:03Z</time>
      </trkpt>
      <trkpt lat="44.42745" lon="5.21704">
        <ele>412</ele>
        <time>2022-09-29T08:39:04Z</time>
      </trkpt>
      <trkpt lat="44.42744" lon="5.21705">
        <ele>412</ele>
        <time>2022-09-29T08:39:05Z</time>
      </trkpt>
      <trkpt lat="44.42744" lon="5.21705">
        <ele>412</ele>
        <time>2022-09-29T08:39:06Z</time>
      </trkpt>
      <trkpt lat="44.42743" lon="5.21706">
        <ele>412</ele>
        <time>2022-09-29T08:39:07Z</time>
      </trkpt>
      <trkpt lat="44.42743" lon="5.21707">
        <ele>412</ele>
        <time>2022-09-29T08:39:08Z</time>
      </trkpt>
      <trkpt lat="44.42742" lon="5.21708">
        <ele>412</ele>
        <time>2022-09-29T08:39:39Z</time>
      </trkpt>
      <trkpt lat="44.42741" lon="5.21709">
        <ele>412</ele>
        <time>2022-09-29T08:39:40Z</time>
      </trkpt>
      <trkpt lat="44.42741" lon="5.21709">
        <ele>412</ele>
        <time>2022-09-29T08:39:41Z</time>
      </trkpt>
      <trkpt lat="44.42741" lon="5.2171">
        <ele>412</ele>
        <time>2022-09-29T08:39:42Z</time>
      </trkpt>
      <trkpt lat="44.42741" lon="5.21711">
        <ele>412</ele>
        <time>2022-09-29T08:39:43Z</time>
      </trkpt>
      <trkpt lat="44.4274" lon="5.21712">
        <ele>412</ele>
        <time>2022-09-29T08:39:44Z</time>
      </trkpt>
      <trkpt lat="44.4274" lon="5.21712">
        <ele>411</ele>
        <time>2022-09-29T08:39:45Z</time>
      </trkpt>
      <trkpt lat="44.4274" lon="5.21713">
        <ele>411</ele>
        <time>2022-09-29T08:39:46Z</time>
      </trkpt>
      <trkpt lat="44.4274" lon="5.21714">
        <ele>411</ele>
        <time>2022-09-29T08:39:47Z</time>
      </trkpt>
      <trkpt lat="44.4274" lon="5.21715">
        <ele>411</ele>
        <time>2022-09-29T08:39:48Z</time>
      </trkpt>
      <trkpt lat="44.42739" lon="5.21716">
        <ele>411</ele>
        <time>2022-09-29T08:39:49Z</time>
      </trkpt>
      <trkpt lat="44.42739" lon="5.21716">
        <ele>411</ele>
        <time>2022-09-29T08:39:50Z</time>
      </trkpt>
      <trkpt lat="44.42739" lon="5.21717">
        <ele>411</ele>
        <time>2022-09-29T08:39:51Z</time>
      </trkpt>
      <trkpt lat="44.4274" lon="5.21718">
        <ele>411</ele>
        <time>2022-09-29T08:39:52Z</time>
      </trkpt>
      <trkpt lat="44.4274" lon="5.21718">
        <ele>411</ele>
        <time>2022-09-29T08:39:53Z</time>
      </trkpt>
      <trkpt lat="44.42741" lon="5.21719">
        <ele>411</ele>
        <time>2022-09-29T08:39:54Z</time>
      </trkpt>
      <trkpt lat="44.42741" lon="5.2172">
        <ele>411</ele>
        <time>2022-09-29T08:39:55Z</time>
      </trkpt>
      <trkpt lat="44.42742" lon="5.21721">
        <ele>411</ele>
        <time>2022-09-29T08:39:56Z</time>
      </trkpt>
      <trkpt lat="44.42743" lon="5.21721">
        <ele>411</ele>
        <time>2022-09-29T08:39:57Z</time>
      </trkpt>
      <trkpt lat="44.42743" lon="5.21722">
        <ele>411</ele>
        <time>2022-09-29T08:39:58Z</time>
      </trkpt>
      <trkpt lat="44.42744" lon="5.21723">
        <ele>411</ele>
        <time>2022-09-29T08:39:59Z</time>
      </trkpt>
      <trkpt lat="44.42745" lon="5.21723">
        <ele>411</ele>
        <time>2022-09-29T08:40:00Z</time>
      </trkpt>
      <trkpt lat="44.42745" lon="5.21723">
        <ele>411</ele>
        <time>2022-09-29T08:40:01Z</time>
      </trkpt>
      <trkpt lat="44.42746" lon="5.21724">
        <ele>411</ele>
        <time>2022-09-29T08:40:02Z</time>
      </trkpt>
      <trkpt lat="44.42747" lon="5.21725">
        <ele>411</ele>
        <time>2022-09-29T08:40:03Z</time>
      </trkpt>
      <trkpt lat="44.42747" lon="5.21725">
        <ele>411</ele>
        <time>2022-09-29T08:40:04Z</time>
      </trkpt>
      <trkpt lat="44.42748" lon="5.21726">
        <ele>411</ele>
        <time>2022-09-29T08:40:05Z</time>
      </trkpt>
      <trkpt lat="44.42749" lon="5.21727">
        <ele>411</ele>
        <time>2022-09-29T08:40:06Z</time>
      </trkpt>
      <trkpt lat="44.42749" lon="5.21727">
        <ele>411</ele>
        <time>2022-09-29T08:40:07Z</time>
      </trkpt>
      <trkpt lat="44.4275" lon="5.21728">
        <ele>411</ele>
        <time>2022-09-29T08:40:08Z</time>
      </trkpt>
      <trkpt lat="44.42751" lon="5.21729">
        <ele>412</ele>
        <time>2022-09-29T08:40:09Z</time>
      </trkpt>
      <trkpt lat="44.42751" lon="5.2173">
        <ele>411</ele>
        <time>2022-09-29T08:40:10Z</time>
      </trkpt>
      <trkpt lat="44.42752" lon="5.21731">
        <ele>411</ele>
        <time>2022-09-29T08:40:11Z</time>
      </trkpt>
      <trkpt lat="44.42753" lon="5.21732">
        <ele>411</ele>
        <time>2022-09-29T08:40:12Z</time>
      </trkpt>
      <trkpt lat="44.42754" lon="5.21733">
        <ele>411</ele>
        <time>2022-09-29T08:40:13Z</time>
      </trkpt>
      <trkpt lat="44.42755" lon="5.21734">
        <ele>411</ele>
        <time>2022-09-29T08:40:14Z</time>
      </trkpt>
      <trkpt lat="44.42755" lon="5.21735">
        <ele>411</ele>
        <time>2022-09-29T08:40:15Z</time>
      </trkpt>
      <trkpt lat="44.42756" lon="5.21735">
        <ele>411</ele>
        <time>2022-09-29T08:40:16Z</time>
      </trkpt>
      <trkpt lat="44.42757" lon="5.21736">
        <ele>411</ele>
        <time>2022-09-29T08:40:17Z</time>
      </trkpt>
      <trkpt lat="44.42758" lon="5.21737">
        <ele>411</ele>
        <time>2022-09-29T08:40:18Z</time>
      </trkpt>
      <trkpt lat="44.42759" lon="5.21738">
        <ele>411</ele>
        <time>2022-09-29T08:40:19Z</time>
      </trkpt>
      <trkpt lat="44.4276" lon="5.21738">
        <ele>411</ele>
        <time>2022-09-29T08:40:20Z</time>
      </trkpt>
      <trkpt lat="44.4276" lon="5.21739">
        <ele>411</ele>
        <time>2022-09-29T08:40:21Z</time>
      </trkpt>
      <trkpt lat="44.42761" lon="5.21739">
        <ele>411</ele>
        <time>2022-09-29T08:40:22Z</time>
      </trkpt>
      <trkpt lat="44.42762" lon="5.2174">
        <ele>411</ele>
        <time>2022-09-29T08:40:23Z</time>
      </trkpt>
      <trkpt lat="44.42763" lon="5.2174">
        <ele>411</ele>
        <time>2022-09-29T08:40:24Z</time>
      </trkpt>
      <trkpt lat="44.42764" lon="5.21741">
        <ele>411</ele>
        <time>2022-09-29T08:40:25Z</time>
      </trkpt>
      <trkpt lat="44.42765" lon="5.21742">
        <ele>411</ele>
        <time>2022-09-29T08:40:26Z</time>
      </trkpt>
      <trkpt lat="44.42766" lon="5.21743">
        <ele>411</ele>
        <time>2022-09-29T08:40:27Z</time>
      </trkpt>
      <trkpt lat="44.42767" lon="5.21743">
        <ele>411</ele>
        <time>2022-09-29T08:40:28Z</time>
      </trkpt>
      <trkpt lat="44.42767" lon="5.21744">
        <ele>411</ele>
        <time>2022-09-29T08:40:29Z</time>
      </trkpt>
      <trkpt lat="44.42768" lon="5.21745">
        <ele>411</ele>
        <time>2022-09-29T08:40:30Z</time>
      </trkpt>
      <trkpt lat="44.42769" lon="5.21746">
        <ele>411</ele>
        <time>2022-09-29T08:40:31Z</time>
      </trkpt>
      <trkpt lat="44.4277" lon="5.21747">
        <ele>411</ele>
        <time>2022-09-29T08:40:32Z</time>
      </trkpt>
      <trkpt lat="44.4277" lon="5.21748">
        <ele>411</ele>
        <time>2022-09-29T08:40:33Z</time>
      </trkpt>
      <trkpt lat="44.42771" lon="5.21748">
        <ele>412</ele>
        <time>2022-09-29T08:40:34Z</time>
      </trkpt>
      <trkpt lat="44.42772" lon="5.21749">
        <ele>412</ele>
        <time>2022-09-29T08:40:35Z</time>
      </trkpt>
      <trkpt lat="44.42772" lon="5.21749">
        <ele>412</ele>
        <time>2022-09-29T08:40:36Z</time>
      </trkpt>
      <trkpt lat="44.42773" lon="5.21749">
        <ele>412</ele>
        <time>2022-09-29T08:40:37Z</time>
      </trkpt>
      <trkpt lat="44.42774" lon="5.2175">
        <ele>412</ele>
        <time>2022-09-29T08:40:38Z</time>
      </trkpt>
      <trkpt lat="44.42775" lon="5.2175">
        <ele>412</ele>
        <time>2022-09-29T08:40:39Z</time>
      </trkpt>
      <trkpt lat="44.42776" lon="5.2175">
        <ele>412</ele>
        <time>2022-09-29T08:40:40Z</time>
      </trkpt>
      <trkpt lat="44.42777" lon="5.21751">
        <ele>412</ele>
        <time>2022-09-29T08:40:41Z</time>
      </trkpt>
      <trkpt lat="44.42778" lon="5.21751">
        <ele>412</ele>
        <time>2022-09-29T08:40:42Z</time>
      </trkpt>
      <trkpt lat="44.42779" lon="5.21751">
        <ele>412</ele>
        <time>2022-09-29T08:40:43Z</time>
      </trkpt>
      <trkpt lat="44.42779" lon="5.21751">
        <ele>412</ele>
        <time>2022-09-29T08:40:44Z</time>
      </trkpt>
      <trkpt lat="44.4278" lon="5.21752">
        <ele>412</ele>
        <time>2022-09-29T08:40:45Z</time>
      </trkpt>
      <trkpt lat="44.4278" lon="5.21752">
        <ele>412</ele>
        <time>2022-09-29T08:40:46Z</time>
      </trkpt>
      <trkpt lat="44.42781" lon="5.21753">
        <ele>412</ele>
        <time>2022-09-29T08:40:47Z</time>
      </trkpt>
      <trkpt lat="44.42781" lon="5.21754">
        <ele>412</ele>
        <time>2022-09-29T08:40:48Z</time>
      </trkpt>
      <trkpt lat="44.42782" lon="5.21755">
        <ele>412</ele>
        <time>2022-09-29T08:40:49Z</time>
      </trkpt>
      <trkpt lat="44.42782" lon="5.21756">
        <ele>412</ele>
        <time>2022-09-29T08:40:50Z</time>
      </trkpt>
      <trkpt lat="44.42782" lon="5.21758">
        <ele>412</ele>
        <time>2022-09-29T08:40:51Z</time>
      </trkpt>
      <trkpt lat="44.42782" lon="5.21759">
        <ele>412</ele>
        <time>2022-09-29T08:40:52Z</time>
      </trkpt>
      <trkpt lat="44.42782" lon="5.2176">
        <ele>412</ele>
        <time>2022-09-29T08:40:53Z</time>
      </trkpt>
      <trkpt lat="44.42782" lon="5.21762">
        <ele>412</ele>
        <time>2022-09-29T08:40:54Z</time>
      </trkpt>
      <trkpt lat="44.42782" lon="5.21763">
        <ele>412</ele>
        <time>2022-09-29T08:40:55Z</time>
      </trkpt>
      <trkpt lat="44.42782" lon="5.21764">
        <ele>412</ele>
        <time>2022-09-29T08:40:56Z</time>
      </trkpt>
      <trkpt lat="44.42783" lon="5.21766">
        <ele>412</ele>
        <time>2022-09-29T08:40:57Z</time>
      </trkpt>
      <trkpt lat="44.42783" lon="5.21767">
        <ele>412</ele>
        <time>2022-09-29T08:40:58Z</time>
      </trkpt>
      <trkpt lat="44.42783" lon="5.21768">
        <ele>412</ele>
        <time>2022-09-29T08:40:59Z</time>
      </trkpt>
      <trkpt lat="44.42784" lon="5.21769">
        <ele>412</ele>
        <time>2022-09-29T08:41:00Z</time>
      </trkpt>
      <trkpt lat="44.42784" lon="5.2177">
        <ele>412</ele>
        <time>2022-09-29T08:41:01Z</time>
      </trkpt>
      <trkpt lat="44.42784" lon="5.21771">
        <ele>412</ele>
        <time>2022-09-29T08:41:02Z</time>
      </trkpt>
      <trkpt lat="44.42784" lon="5.21772">
        <ele>412</ele>
        <time>2022-09-29T08:41:03Z</time>
      </trkpt>
      <trkpt lat="44.42785" lon="5.21773">
        <ele>412</ele>
        <time>2022-09-29T08:41:04Z</time>
      </trkpt>
      <trkpt lat="44.42785" lon="5.21774">
        <ele>412</ele>
        <time>2022-09-29T08:41:05Z</time>
      </trkpt>
      <trkpt lat="44.42785" lon="5.21774">
        <ele>412</ele>
        <time>2022-09-29T08:41:06Z</time>
      </trkpt>
      <trkpt lat="44.42786" lon="5.21775">
        <ele>412</ele>
        <time>2022-09-29T08:41:07Z</time>
      </trkpt>
      <trkpt lat="44.42786" lon="5.21776">
        <ele>412</ele>
        <time>2022-09-29T08:41:08Z</time>
      </trkpt>
      <trkpt lat="44.42787" lon="5.21777">
        <ele>413</ele>
        <time>2022-09-29T08:41:09Z</time>
      </trkpt>
      <trkpt lat="44.42787" lon="5.21777">
        <ele>413</ele>
        <time>2022-09-29T08:41:10Z</time>
      </trkpt>
      <trkpt lat="44.42788" lon="5.21778">
        <ele>413</ele>
        <time>2022-09-29T08:41:11Z</time>
      </trkpt>
      <trkpt lat="44.42789" lon="5.21779">
        <ele>413</ele>
        <time>2022-09-29T08:41:12Z</time>
      </trkpt>
      <trkpt lat="44.42789" lon="5.21779">
        <ele>413</ele>
        <time>2022-09-29T08:41:13Z</time>
      </trkpt>
      <trkpt lat="44.4279" lon="5.2178">
        <ele>413</ele>
        <time>2022-09-29T08:41:14Z</time>
      </trkpt>
      <trkpt lat="44.4279" lon="5.2178">
        <ele>413</ele>
        <time>2022-09-29T08:41:15Z</time>
      </trkpt>
      <trkpt lat="44.42791" lon="5.2178">
        <ele>413</ele>
        <time>2022-09-29T08:41:16Z</time>
      </trkpt>
      <trkpt lat="44.42792" lon="5.21781">
        <ele>413</ele>
        <time>2022-09-29T08:41:17Z</time>
      </trkpt>
      <trkpt lat="44.42793" lon="5.21781">
        <ele>413</ele>
        <time>2022-09-29T08:41:18Z</time>
      </trkpt>
      <trkpt lat="44.42793" lon="5.21782">
        <ele>413</ele>
        <time>2022-09-29T08:41:19Z</time>
      </trkpt>
      <trkpt lat="44.42794" lon="5.21782">
        <ele>413</ele>
        <time>2022-09-29T08:41:20Z</time>
      </trkpt>
      <trkpt lat="44.42795" lon="5.21783">
        <ele>413</ele>
        <time>2022-09-29T08:41:21Z</time>
      </trkpt>
      <trkpt lat="44.42796" lon="5.21783">
        <ele>413</ele>
        <time>2022-09-29T08:41:22Z</time>
      </trkpt>
      <trkpt lat="44.42797" lon="5.21784">
        <ele>413</ele>
        <time>2022-09-29T08:41:23Z</time>
      </trkpt>
      <trkpt lat="44.42798" lon="5.21785">
        <ele>413</ele>
        <time>2022-09-29T08:41:24Z</time>
      </trkpt>
      <trkpt lat="44.428" lon="5.21785">
        <ele>413</ele>
        <time>2022-09-29T08:41:25Z</time>
      </trkpt>
      <trkpt lat="44.42801" lon="5.21786">
        <ele>413</ele>
        <time>2022-09-29T08:41:26Z</time>
      </trkpt>
      <trkpt lat="44.42803" lon="5.21787">
        <ele>413</ele>
        <time>2022-09-29T08:41:27Z</time>
      </trkpt>
      <trkpt lat="44.42804" lon="5.21787">
        <ele>413</ele>
        <time>2022-09-29T08:41:28Z</time>
      </trkpt>
      <trkpt lat="44.42806" lon="5.21788">
        <ele>413</ele>
        <time>2022-09-29T08:41:29Z</time>
      </trkpt>
      <trkpt lat="44.42807" lon="5.21788">
        <ele>413</ele>
        <time>2022-09-29T08:41:30Z</time>
      </trkpt>
      <trkpt lat="44.42809" lon="5.21789">
        <ele>413</ele>
        <time>2022-09-29T08:41:31Z</time>
      </trkpt>
      <trkpt lat="44.4281" lon="5.21789">
        <ele>413</ele>
        <time>2022-09-29T08:41:32Z</time>
      </trkpt>
      <trkpt lat="44.42812" lon="5.2179">
        <ele>413</ele>
        <time>2022-09-29T08:41:33Z</time>
      </trkpt>
      <trkpt lat="44.42813" lon="5.21791">
        <ele>413</ele>
        <time>2022-09-29T08:41:34Z</time>
      </trkpt>
      <trkpt lat="44.42814" lon="5.21791">
        <ele>413</ele>
        <time>2022-09-29T08:41:35Z</time>
      </trkpt>
      <trkpt lat="44.42815" lon="5.21792">
        <ele>413</ele>
        <time>2022-09-29T08:41:36Z</time>
      </trkpt>
      <trkpt lat="44.42817" lon="5.21793">
        <ele>413</ele>
        <time>2022-09-29T08:41:37Z</time>
      </trkpt>
      <trkpt lat="44.42817" lon="5.21793">
        <ele>413</ele>
        <time>2022-09-29T08:41:38Z</time>
      </trkpt>
      <trkpt lat="44.42818" lon="5.21794">
        <ele>413</ele>
        <time>2022-09-29T08:41:39Z</time>
      </trkpt>
      <trkpt lat="44.42819" lon="5.21795">
        <ele>413</ele>
        <time>2022-09-29T08:41:40Z</time>
      </trkpt>
      <trkpt lat="44.42819" lon="5.21796">
        <ele>413</ele>
        <time>2022-09-29T08:41:41Z</time>
      </trkpt>
      <trkpt lat="44.4282" lon="5.21797">
        <ele>413</ele>
        <time>2022-09-29T08:41:42Z</time>
      </trkpt>
      <trkpt lat="44.42821" lon="5.21798">
        <ele>413</ele>
        <time>2022-09-29T08:41:43Z</time>
      </trkpt>
      <trkpt lat="44.42822" lon="5.218">
        <ele>412</ele>
        <time>2022-09-29T08:43:16Z</time>
      </trkpt>
      <trkpt lat="44.42822" lon="5.218">
        <ele>412</ele>
        <time>2022-09-29T08:43:17Z</time>
      </trkpt>
      <trkpt lat="44.42823" lon="5.21801">
        <ele>412</ele>
        <time>2022-09-29T08:43:18Z</time>
      </trkpt>
      <trkpt lat="44.42823" lon="5.21801">
        <ele>412</ele>
        <time>2022-09-29T08:43:19Z</time>
      </trkpt>
      <trkpt lat="44.42824" lon="5.21802">
        <ele>412</ele>
        <time>2022-09-29T08:43:20Z</time>
      </trkpt>
      <trkpt lat="44.42824" lon="5.21802">
        <ele>412</ele>
        <time>2022-09-29T08:43:21Z</time>
      </trkpt>
      <trkpt lat="44.42825" lon="5.21803">
        <ele>412</ele>
        <time>2022-09-29T08:43:22Z</time>
      </trkpt>
      <trkpt lat="44.42825" lon="5.21803">
        <ele>412</ele>
        <time>2022-09-29T08:43:23Z</time>
      </trkpt>
      <trkpt lat="44.42826" lon="5.21804">
        <ele>412</ele>
        <time>2022-09-29T08:43:24Z</time>
      </trkpt>
      <trkpt lat="44.42826" lon="5.21804">
        <ele>412</ele>
        <time>2022-09-29T08:43:25Z</time>
      </trkpt>
      <trkpt lat="44.42827" lon="5.21805">
        <ele>412</ele>
        <time>2022-09-29T08:43:26Z</time>
      </trkpt>
      <trkpt lat="44.42827" lon="5.21806">
        <ele>412</ele>
        <time>2022-09-29T08:43:27Z</time>
      </trkpt>
      <trkpt lat="44.42828" lon="5.21807">
        <ele>412</ele>
        <time>2022-09-29T08:43:28Z</time>
      </trkpt>
      <trkpt lat="44.42828" lon="5.21807">
        <ele>412</ele>
        <time>2022-09-29T08:43:29Z</time>
      </trkpt>
      <trkpt lat="44.42829" lon="5.21808">
        <ele>412</ele>
        <time>2022-09-29T08:43:30Z</time>
      </trkpt>
      <trkpt lat="44.4283" lon="5.21808">
        <ele>412</ele>
        <time>2022-09-29T08:43:31Z</time>
      </trkpt>
      <trkpt lat="44.4283" lon="5.21809">
        <ele>412</ele>
        <time>2022-09-29T08:43:32Z</time>
      </trkpt>
      <trkpt lat="44.42831" lon="5.21809">
        <ele>412</ele>
        <time>2022-09-29T08:43:33Z</time>
      </trkpt>
      <trkpt lat="44.42832" lon="5.2181">
        <ele>412</ele>
        <time>2022-09-29T08:43:34Z</time>
      </trkpt>
      <trkpt lat="44.42833" lon="5.21811">
        <ele>412</ele>
        <time>2022-09-29T08:43:35Z</time>
      </trkpt>
      <trkpt lat="44.42833" lon="5.21811">
        <ele>412</ele>
        <time>2022-09-29T08:43:36Z</time>
      </trkpt>
      <trkpt lat="44.42834" lon="5.21812">
        <ele>412</ele>
        <time>2022-09-29T08:43:37Z</time>
      </trkpt>
      <trkpt lat="44.42835" lon="5.21813">
        <ele>412</ele>
        <time>2022-09-29T08:43:38Z</time>
      </trkpt>
      <trkpt lat="44.42835" lon="5.21814">
        <ele>412</ele>
        <time>2022-09-29T08:43:39Z</time>
      </trkpt>
      <trkpt lat="44.42836" lon="5.21814">
        <ele>412</ele>
        <time>2022-09-29T08:43:40Z</time>
      </trkpt>
      <trkpt lat="44.42836" lon="5.21815">
        <ele>412</ele>
        <time>2022-09-29T08:43:41Z</time>
      </trkpt>
      <trkpt lat="44.42836" lon="5.21816">
        <ele>412</ele>
        <time>2022-09-29T08:43:42Z</time>
      </trkpt>
      <trkpt lat="44.42837" lon="5.21817">
        <ele>412</ele>
        <time>2022-09-29T08:43:43Z</time>
      </trkpt>
      <trkpt lat="44.42837" lon="5.21817">
        <ele>412</ele>
        <time>2022-09-29T08:43:44Z</time>
      </trkpt>
      <trkpt lat="44.42838" lon="5.21818">
        <ele>412</ele>
        <time>2022-09-29T08:43:45Z</time>
      </trkpt>
      <trkpt lat="44.42838" lon="5.21819">
        <ele>412</ele>
        <time>2022-09-29T08:43:46Z</time>
      </trkpt>
      <trkpt lat="44.42839" lon="5.2182">
        <ele>412</ele>
        <time>2022-09-29T08:43:47Z</time>
      </trkpt>
      <trkpt lat="44.4284" lon="5.21821">
        <ele>412</ele>
        <time>2022-09-29T08:43:48Z</time>
      </trkpt>
      <trkpt lat="44.4284" lon="5.21822">
        <ele>412</ele>
        <time>2022-09-29T08:43:49Z</time>
      </trkpt>
      <trkpt lat="44.42841" lon="5.21823">
        <ele>412</ele>
        <time>2022-09-29T08:43:50Z</time>
      </trkpt>
      <trkpt lat="44.42842" lon="5.21823">
        <ele>412</ele>
        <time>2022-09-29T08:43:51Z</time>
      </trkpt>
      <trkpt lat="44.42842" lon="5.21824">
        <ele>412</ele>
        <time>2022-09-29T08:43:52Z</time>
      </trkpt>
      <trkpt lat="44.42843" lon="5.21825">
        <ele>412</ele>
        <time>2022-09-29T08:43:53Z</time>
      </trkpt>
      <trkpt lat="44.42844" lon="5.21826">
        <ele>412</ele>
        <time>2022-09-29T08:43:54Z</time>
      </trkpt>
      <trkpt lat="44.42844" lon="5.21827">
        <ele>412</ele>
        <time>2022-09-29T08:43:55Z</time>
      </trkpt>
      <trkpt lat="44.42845" lon="5.21828">
        <ele>412</ele>
        <time>2022-09-29T08:43:56Z</time>
      </trkpt>
      <trkpt lat="44.42845" lon="5.21828">
        <ele>412</ele>
        <time>2022-09-29T08:43:57Z</time>
      </trkpt>
      <trkpt lat="44.42846" lon="5.21829">
        <ele>412</ele>
        <time>2022-09-29T08:43:58Z</time>
      </trkpt>
      <trkpt lat="44.42846" lon="5.2183">
        <ele>412</ele>
        <time>2022-09-29T08:43:59Z</time>
      </trkpt>
      <trkpt lat="44.42847" lon="5.21831">
        <ele>412</ele>
        <time>2022-09-29T08:44:00Z</time>
      </trkpt>
      <trkpt lat="44.42847" lon="5.21832">
        <ele>412</ele>
        <time>2022-09-29T08:44:01Z</time>
      </trkpt>
      <trkpt lat="44.42848" lon="5.21833">
        <ele>412</ele>
        <time>2022-09-29T08:44:02Z</time>
      </trkpt>
      <trkpt lat="44.42848" lon="5.21834">
        <ele>412</ele>
        <time>2022-09-29T08:44:03Z</time>
      </trkpt>
      <trkpt lat="44.42849" lon="5.21835">
        <ele>412</ele>
        <time>2022-09-29T08:44:04Z</time>
      </trkpt>
      <trkpt lat="44.42849" lon="5.21836">
        <ele>412</ele>
        <time>2022-09-29T08:44:05Z</time>
      </trkpt>
      <trkpt lat="44.4285" lon="5.21838">
        <ele>412</ele>
        <time>2022-09-29T08:44:06Z</time>
      </trkpt>
      <trkpt lat="44.42851" lon="5.21838">
        <ele>412</ele>
        <time>2022-09-29T08:44:07Z</time>
      </trkpt>
      <trkpt lat="44.42851" lon="5.21839">
        <ele>412</ele>
        <time>2022-09-29T08:44:08Z</time>
      </trkpt>
      <trkpt lat="44.42852" lon="5.2184">
        <ele>412</ele>
        <time>2022-09-29T08:44:09Z</time>
      </trkpt>
      <trkpt lat="44.42853" lon="5.21841">
        <ele>412</ele>
        <time>2022-09-29T08:44:10Z</time>
      </trkpt>
      <trkpt lat="44.42854" lon="5.21842">
        <ele>412</ele>
        <time>2022-09-29T08:44:11Z</time>
      </trkpt>
      <trkpt lat="44.42854" lon="5.21843">
        <ele>412</ele>
        <time>2022-09-29T08:44:12Z</time>
      </trkpt>
      <trkpt lat="44.42855" lon="5.21845">
        <ele>412</ele>
        <time>2022-09-29T08:44:13Z</time>
      </trkpt>
      <trkpt lat="44.42856" lon="5.21846">
        <ele>412</ele>
        <time>2022-09-29T08:44:14Z</time>
      </trkpt>
      <trkpt lat="44.42856" lon="5.21847">
        <ele>412</ele>
        <time>2022-09-29T08:44:15Z</time>
      </trkpt>
      <trkpt lat="44.42857" lon="5.21848">
        <ele>412</ele>
        <time>2022-09-29T08:44:16Z</time>
      </trkpt>
      <trkpt lat="44.42857" lon="5.21849">
        <ele>412</ele>
        <time>2022-09-29T08:44:17Z</time>
      </trkpt>
      <trkpt lat="44.42858" lon="5.21849">
        <ele>412</ele>
        <time>2022-09-29T08:44:18Z</time>
      </trkpt>
      <trkpt lat="44.42858" lon="5.2185">
        <ele>412</ele>
        <time>2022-09-29T08:44:19Z</time>
      </trkpt>
      <trkpt lat="44.42859" lon="5.21851">
        <ele>412</ele>
        <time>2022-09-29T08:44:20Z</time>
      </trkpt>
      <trkpt lat="44.42859" lon="5.21852">
        <ele>412</ele>
        <time>2022-09-29T08:44:21Z</time>
      </trkpt>
      <trkpt lat="44.4286" lon="5.21853">
        <ele>412</ele>
        <time>2022-09-29T08:44:22Z</time>
      </trkpt>
      <trkpt lat="44.4286" lon="5.21854">
        <ele>412</ele>
        <time>2022-09-29T08:44:23Z</time>
      </trkpt>
      <trkpt lat="44.42861" lon="5.21855">
        <ele>412</ele>
        <time>2022-09-29T08:44:24Z</time>
      </trkpt>
      <trkpt lat="44.42861" lon="5.21856">
        <ele>412</ele>
        <time>2022-09-29T08:44:25Z</time>
      </trkpt>
      <trkpt lat="44.42862" lon="5.21857">
        <ele>412</ele>
        <time>2022-09-29T08:44:26Z</time>
      </trkpt>
      <trkpt lat="44.42863" lon="5.21858">
        <ele>412</ele>
        <time>2022-09-29T08:44:27Z</time>
      </trkpt>
      <trkpt lat="44.42863" lon="5.21859">
        <ele>412</ele>
        <time>2022-09-29T08:44:28Z</time>
      </trkpt>
      <trkpt lat="44.42864" lon="5.2186">
        <ele>412</ele>
        <time>2022-09-29T08:44:29Z</time>
      </trkpt>
      <trkpt lat="44.42864" lon="5.21862">
        <ele>412</ele>
        <time>2022-09-29T08:44:30Z</time>
      </trkpt>
      <trkpt lat="44.42865" lon="5.21863">
        <ele>412</ele>
        <time>2022-09-29T08:44:31Z</time>
      </trkpt>
      <trkpt lat="44.42865" lon="5.21864">
        <ele>412</ele>
        <time>2022-09-29T08:44:32Z</time>
      </trkpt>
      <trkpt lat="44.42866" lon="5.21865">
        <ele>412</ele>
        <time>2022-09-29T08:44:33Z</time>
      </trkpt>
      <trkpt lat="44.42866" lon="5.21867">
        <ele>412</ele>
        <time>2022-09-29T08:44:34Z</time>
      </trkpt>
      <trkpt lat="44.42867" lon="5.21868">
        <ele>412</ele>
        <time>2022-09-29T08:44:35Z</time>
      </trkpt>
      <trkpt lat="44.42867" lon="5.2187">
        <ele>412</ele>
        <time>2022-09-29T08:44:36Z</time>
      </trkpt>
      <trkpt lat="44.42868" lon="5.21871">
        <ele>412</ele>
        <time>2022-09-29T08:44:37Z</time>
      </trkpt>
      <trkpt lat="44.42868" lon="5.21872">
        <ele>412</ele>
        <time>2022-09-29T08:44:38Z</time>
      </trkpt>
      <trkpt lat="44.42868" lon="5.21873">
        <ele>412</ele>
        <time>2022-09-29T08:44:39Z</time>
      </trkpt>
      <trkpt lat="44.42869" lon="5.21874">
        <ele>412</ele>
        <time>2022-09-29T08:44:40Z</time>
      </trkpt>
      <trkpt lat="44.42869" lon="5.21875">
        <ele>412</ele>
        <time>2022-09-29T08:44:41Z</time>
      </trkpt>
      <trkpt lat="44.42869" lon="5.21876">
        <ele>412</ele>
        <time>2022-09-29T08:44:42Z</time>
      </trkpt>
      <trkpt lat="44.4287" lon="5.21877">
        <ele>412</ele>
        <time>2022-09-29T08:44:43Z</time>
      </trkpt>
      <trkpt lat="44.4287" lon="5.21878">
        <ele>413</ele>
        <time>2022-09-29T08:44:44Z</time>
      </trkpt>
      <trkpt lat="44.4287" lon="5.21879">
        <ele>413</ele>
        <time>2022-09-29T08:44:45Z</time>
      </trkpt>
      <trkpt lat="44.4287" lon="5.2188">
        <ele>413</ele>
        <time>2022-09-29T08:44:46Z</time>
      </trkpt>
      <trkpt lat="44.42871" lon="5.21881">
        <ele>413</ele>
        <time>2022-09-29T08:44:47Z</time>
      </trkpt>
      <trkpt lat="44.42871" lon="5.21882">
        <ele>413</ele>
        <time>2022-09-29T08:44:48Z</time>
      </trkpt>
      <trkpt lat="44.42872" lon="5.21883">
        <ele>413</ele>
        <time>2022-09-29T08:44:49Z</time>
      </trkpt>
      <trkpt lat="44.42872" lon="5.21884">
        <ele>413</ele>
        <time>2022-09-29T08:44:50Z</time>
      </trkpt>
      <trkpt lat="44.42873" lon="5.21885">
        <ele>413</ele>
        <time>2022-09-29T08:44:51Z</time>
      </trkpt>
      <trkpt lat="44.42873" lon="5.21886">
        <ele>413</ele>
        <time>2022-09-29T08:44:52Z</time>
      </trkpt>
      <trkpt lat="44.42874" lon="5.21888">
        <ele>413</ele>
        <time>2022-09-29T08:44:53Z</time>
      </trkpt>
      <trkpt lat="44.42874" lon="5.21889">
        <ele>413</ele>
        <time>2022-09-29T08:44:54Z</time>
      </trkpt>
      <trkpt lat="44.42875" lon="5.2189">
        <ele>413</ele>
        <time>2022-09-29T08:44:55Z</time>
      </trkpt>
      <trkpt lat="44.42875" lon="5.21891">
        <ele>413</ele>
        <time>2022-09-29T08:44:56Z</time>
      </trkpt>
      <trkpt lat="44.42876" lon="5.21893">
        <ele>413</ele>
        <time>2022-09-29T08:44:57Z</time>
      </trkpt>
      <trkpt lat="44.42876" lon="5.21894">
        <ele>413</ele>
        <time>2022-09-29T08:44:58Z</time>
      </trkpt>
      <trkpt lat="44.42876" lon="5.21895">
        <ele>413</ele>
        <time>2022-09-29T08:44:59Z</time>
      </trkpt>
      <trkpt lat="44.42876" lon="5.21896">
        <ele>413</ele>
        <time>2022-09-29T08:45:00Z</time>
      </trkpt>
      <trkpt lat="44.42876" lon="5.21897">
        <ele>413</ele>
        <time>2022-09-29T08:45:01Z</time>
      </trkpt>
      <trkpt lat="44.42877" lon="5.21899">
        <ele>413</ele>
        <time>2022-09-29T08:45:02Z</time>
      </trkpt>
      <trkpt lat="44.42877" lon="5.219">
        <ele>413</ele>
        <time>2022-09-29T08:45:03Z</time>
      </trkpt>
      <trkpt lat="44.42877" lon="5.21901">
        <ele>413</ele>
        <time>2022-09-29T08:45:04Z</time>
      </trkpt>
      <trkpt lat="44.42878" lon="5.21903">
        <ele>413</ele>
        <time>2022-09-29T08:45:05Z</time>
      </trkpt>
      <trkpt lat="44.42878" lon="5.21904">
        <ele>413</ele>
        <time>2022-09-29T08:45:06Z</time>
      </trkpt>
      <trkpt lat="44.42879" lon="5.21905">
        <ele>413</ele>
        <time>2022-09-29T08:45:07Z</time>
      </trkpt>
      <trkpt lat="44.42879" lon="5.21906">
        <ele>413</ele>
        <time>2022-09-29T08:45:08Z</time>
      </trkpt>
      <trkpt lat="44.4288" lon="5.21907">
        <ele>413</ele>
        <time>2022-09-29T08:45:09Z</time>
      </trkpt>
      <trkpt lat="44.4288" lon="5.21908">
        <ele>413</ele>
        <time>2022-09-29T08:45:10Z</time>
      </trkpt>
      <trkpt lat="44.4288" lon="5.21909">
        <ele>413</ele>
        <time>2022-09-29T08:45:11Z</time>
      </trkpt>
      <trkpt lat="44.42881" lon="5.21912">
        <ele>413</ele>
        <time>2022-09-29T08:45:26Z</time>
      </trkpt>
      <trkpt lat="44.42881" lon="5.21913">
        <ele>413</ele>
        <time>2022-09-29T08:45:27Z</time>
      </trkpt>
      <trkpt lat="44.42882" lon="5.21914">
        <ele>413</ele>
        <time>2022-09-29T08:45:28Z</time>
      </trkpt>
      <trkpt lat="44.42882" lon="5.21915">
        <ele>413</ele>
        <time>2022-09-29T08:45:29Z</time>
      </trkpt>
      <trkpt lat="44.42882" lon="5.21916">
        <ele>413</ele>
        <time>2022-09-29T08:45:30Z</time>
      </trkpt>
      <trkpt lat="44.42883" lon="5.21918">
        <ele>413</ele>
        <time>2022-09-29T08:45:31Z</time>
      </trkpt>
      <trkpt lat="44.42883" lon="5.21919">
        <ele>413</ele>
        <time>2022-09-29T08:45:32Z</time>
      </trkpt>
      <trkpt lat="44.42883" lon="5.2192">
        <ele>413</ele>
        <time>2022-09-29T08:45:33Z</time>
      </trkpt>
      <trkpt lat="44.42884" lon="5.21921">
        <ele>413</ele>
        <time>2022-09-29T08:45:34Z</time>
      </trkpt>
      <trkpt lat="44.42884" lon="5.21923">
        <ele>413</ele>
        <time>2022-09-29T08:45:35Z</time>
      </trkpt>
      <trkpt lat="44.42884" lon="5.21924">
        <ele>413</ele>
        <time>2022-09-29T08:45:36Z</time>
      </trkpt>
      <trkpt lat="44.42884" lon="5.21926">
        <ele>413</ele>
        <time>2022-09-29T08:45:37Z</time>
      </trkpt>
      <trkpt lat="44.42885" lon="5.21927">
        <ele>413</ele>
        <time>2022-09-29T08:45:38Z</time>
      </trkpt>
      <trkpt lat="44.42885" lon="5.21929">
        <ele>413</ele>
        <time>2022-09-29T08:45:39Z</time>
      </trkpt>
      <trkpt lat="44.42885" lon="5.2193">
        <ele>413</ele>
        <time>2022-09-29T08:45:40Z</time>
      </trkpt>
      <trkpt lat="44.42885" lon="5.21932">
        <ele>413</ele>
        <time>2022-09-29T08:45:41Z</time>
      </trkpt>
      <trkpt lat="44.42885" lon="5.21933">
        <ele>413</ele>
        <time>2022-09-29T08:45:42Z</time>
      </trkpt>
      <trkpt lat="44.42886" lon="5.21934">
        <ele>413</ele>
        <time>2022-09-29T08:45:43Z</time>
      </trkpt>
      <trkpt lat="44.42886" lon="5.21935">
        <ele>413</ele>
        <time>2022-09-29T08:45:44Z</time>
      </trkpt>
      <trkpt lat="44.42886" lon="5.21936">
        <ele>413</ele>
        <time>2022-09-29T08:45:45Z</time>
      </trkpt>
      <trkpt lat="44.42886" lon="5.21937">
        <ele>413</ele>
        <time>2022-09-29T08:45:46Z</time>
      </trkpt>
      <trkpt lat="44.42886" lon="5.21937">
        <ele>413</ele>
        <time>2022-09-29T08:45:47Z</time>
      </trkpt>
      <trkpt lat="44.42886" lon="5.21938">
        <ele>413</ele>
        <time>2022-09-29T08:45:48Z</time>
      </trkpt>
      <trkpt lat="44.42886" lon="5.21938">
        <ele>413</ele>
        <time>2022-09-29T08:45:49Z</time>
      </trkpt>
      <trkpt lat="44.42886" lon="5.21939">
        <ele>413</ele>
        <time>2022-09-29T08:45:50Z</time>
      </trkpt>
      <trkpt lat="44.42887" lon="5.21939">
        <ele>413</ele>
        <time>2022-09-29T08:45:51Z</time>
      </trkpt>
      <trkpt lat="44.42887" lon="5.2194">
        <ele>413</ele>
        <time>2022-09-29T08:45:52Z</time>
      </trkpt>
      <trkpt lat="44.42887" lon="5.21941">
        <ele>413</ele>
        <time>2022-09-29T08:45:53Z</time>
      </trkpt>
      <trkpt lat="44.42887" lon="5.21942">
        <ele>413</ele>
        <time>2022-09-29T08:45:54Z</time>
      </trkpt>
      <trkpt lat="44.42887" lon="5.21943">
        <ele>413</ele>
        <time>2022-09-29T08:45:55Z</time>
      </trkpt>
      <trkpt lat="44.42887" lon="5.21944">
        <ele>413</ele>
        <time>2022-09-29T08:45:56Z</time>
      </trkpt>
      <trkpt lat="44.42887" lon="5.21945">
        <ele>413</ele>
        <time>2022-09-29T08:45:57Z</time>
      </trkpt>
      <trkpt lat="44.42887" lon="5.21946">
        <ele>413</ele>
        <time>2022-09-29T08:45:58Z</time>
      </trkpt>
      <trkpt lat="44.42887" lon="5.21947">
        <ele>413</ele>
        <time>2022-09-29T08:45:59Z</time>
      </trkpt>
      <trkpt lat="44.42887" lon="5.21949">
        <ele>413</ele>
        <time>2022-09-29T08:46:00Z</time>
      </trkpt>
      <trkpt lat="44.42888" lon="5.2195">
        <ele>413</ele>
        <time>2022-09-29T08:46:01Z</time>
      </trkpt>
      <trkpt lat="44.42888" lon="5.21951">
        <ele>413</ele>
        <time>2022-09-29T08:46:02Z</time>
      </trkpt>
      <trkpt lat="44.42888" lon="5.21952">
        <ele>413</ele>
        <time>2022-09-29T08:46:03Z</time>
      </trkpt>
      <trkpt lat="44.42888" lon="5.21954">
        <ele>413</ele>
        <time>2022-09-29T08:46:04Z</time>
      </trkpt>
      <trkpt lat="44.42889" lon="5.21955">
        <ele>413</ele>
        <time>2022-09-29T08:46:05Z</time>
      </trkpt>
      <trkpt lat="44.42889" lon="5.21956">
        <ele>413</ele>
        <time>2022-09-29T08:46:06Z</time>
      </trkpt>
      <trkpt lat="44.42889" lon="5.21958">
        <ele>413</ele>
        <time>2022-09-29T08:46:07Z</time>
      </trkpt>
      <trkpt lat="44.4289" lon="5.21959">
        <ele>413</ele>
        <time>2022-09-29T08:46:08Z</time>
      </trkpt>
      <trkpt lat="44.4289" lon="5.2196">
        <ele>413</ele>
        <time>2022-09-29T08:46:09Z</time>
      </trkpt>
      <trkpt lat="44.4289" lon="5.21961">
        <ele>413</ele>
        <time>2022-09-29T08:46:10Z</time>
      </trkpt>
      <trkpt lat="44.4289" lon="5.21963">
        <ele>413</ele>
        <time>2022-09-29T08:46:11Z</time>
      </trkpt>
      <trkpt lat="44.42891" lon="5.21964">
        <ele>413</ele>
        <time>2022-09-29T08:46:12Z</time>
      </trkpt>
      <trkpt lat="44.42891" lon="5.21965">
        <ele>413</ele>
        <time>2022-09-29T08:46:13Z</time>
      </trkpt>
      <trkpt lat="44.42891" lon="5.21967">
        <ele>413</ele>
        <time>2022-09-29T08:46:14Z</time>
      </trkpt>
      <trkpt lat="44.42892" lon="5.21968">
        <ele>413</ele>
        <time>2022-09-29T08:46:15Z</time>
      </trkpt>
      <trkpt lat="44.42892" lon="5.2197">
        <ele>413</ele>
        <time>2022-09-29T08:46:16Z</time>
      </trkpt>
      <trkpt lat="44.42893" lon="5.21971">
        <ele>413</ele>
        <time>2022-09-29T08:46:17Z</time>
      </trkpt>
      <trkpt lat="44.42893" lon="5.21972">
        <ele>413</ele>
        <time>2022-09-29T08:46:18Z</time>
      </trkpt>
      <trkpt lat="44.42894" lon="5.21973">
        <ele>413</ele>
        <time>2022-09-29T08:46:19Z</time>
      </trkpt>
      <trkpt lat="44.42894" lon="5.21975">
        <ele>413</ele>
        <time>2022-09-29T08:46:20Z</time>
      </trkpt>
      <trkpt lat="44.42894" lon="5.21976">
        <ele>413</ele>
        <time>2022-09-29T08:46:21Z</time>
      </trkpt>
      <trkpt lat="44.42894" lon="5.21977">
        <ele>413</ele>
        <time>2022-09-29T08:46:22Z</time>
      </trkpt>
      <trkpt lat="44.42895" lon="5.21978">
        <ele>413</ele>
        <time>2022-09-29T08:46:23Z</time>
      </trkpt>
      <trkpt lat="44.42895" lon="5.2198">
        <ele>413</ele>
        <time>2022-09-29T08:46:24Z</time>
      </trkpt>
      <trkpt lat="44.42895" lon="5.21981">
        <ele>413</ele>
        <time>2022-09-29T08:46:25Z</time>
      </trkpt>
      <trkpt lat="44.42896" lon="5.21982">
        <ele>413</ele>
        <time>2022-09-29T08:46:26Z</time>
      </trkpt>
      <trkpt lat="44.42896" lon="5.21984">
        <ele>413</ele>
        <time>2022-09-29T08:46:27Z</time>
      </trkpt>
      <trkpt lat="44.42896" lon="5.21985">
        <ele>413</ele>
        <time>2022-09-29T08:46:28Z</time>
      </trkpt>
      <trkpt lat="44.42896" lon="5.21986">
        <ele>414</ele>
        <time>2022-09-29T08:46:29Z</time>
      </trkpt>
      <trkpt lat="44.42896" lon="5.21988">
        <ele>414</ele>
        <time>2022-09-29T08:46:30Z</time>
      </trkpt>
      <trkpt lat="44.42897" lon="5.21989">
        <ele>414</ele>
        <time>2022-09-29T08:46:31Z</time>
      </trkpt>
      <trkpt lat="44.42897" lon="5.2199">
        <ele>414</ele>
        <time>2022-09-29T08:46:32Z</time>
      </trkpt>
      <trkpt lat="44.42897" lon="5.21991">
        <ele>414</ele>
        <time>2022-09-29T08:46:33Z</time>
      </trkpt>
      <trkpt lat="44.42897" lon="5.21993">
        <ele>414</ele>
        <time>2022-09-29T08:46:34Z</time>
      </trkpt>
      <trkpt lat="44.42898" lon="5.21994">
        <ele>414</ele>
        <time>2022-09-29T08:46:35Z</time>
      </trkpt>
      <trkpt lat="44.42898" lon="5.21995">
        <ele>414</ele>
        <time>2022-09-29T08:46:36Z</time>
      </trkpt>
      <trkpt lat="44.42898" lon="5.21997">
        <ele>414</ele>
        <time>2022-09-29T08:46:37Z</time>
      </trkpt>
      <trkpt lat="44.42899" lon="5.21998">
        <ele>414</ele>
        <time>2022-09-29T08:46:38Z</time>
      </trkpt>
      <trkpt lat="44.42899" lon="5.21999">
        <ele>414</ele>
        <time>2022-09-29T08:46:39Z</time>
      </trkpt>
      <trkpt lat="44.429" lon="5.22001">
        <ele>414</ele>
        <time>2022-09-29T08:46:40Z</time>
      </trkpt>
      <trkpt lat="44.429" lon="5.22002">
        <ele>414</ele>
        <time>2022-09-29T08:46:41Z</time>
      </trkpt>
      <trkpt lat="44.42901" lon="5.22004">
        <ele>414</ele>
        <time>2022-09-29T08:46:42Z</time>
      </trkpt>
      <trkpt lat="44.42902" lon="5.22005">
        <ele>414</ele>
        <time>2022-09-29T08:46:43Z</time>
      </trkpt>
      <trkpt lat="44.42902" lon="5.22006">
        <ele>414</ele>
        <time>2022-09-29T08:46:44Z</time>
      </trkpt>
      <trkpt lat="44.42903" lon="5.22008">
        <ele>414</ele>
        <time>2022-09-29T08:46:45Z</time>
      </trkpt>
      <trkpt lat="44.42903" lon="5.22009">
        <ele>414</ele>
        <time>2022-09-29T08:46:46Z</time>
      </trkpt>
      <trkpt lat="44.42904" lon="5.2201">
        <ele>414</ele>
        <time>2022-09-29T08:46:47Z</time>
      </trkpt>
      <trkpt lat="44.42904" lon="5.22011">
        <ele>414</ele>
        <time>2022-09-29T08:46:48Z</time>
      </trkpt>
      <trkpt lat="44.42904" lon="5.22012">
        <ele>414</ele>
        <time>2022-09-29T08:46:49Z</time>
      </trkpt>
      <trkpt lat="44.42905" lon="5.22013">
        <ele>414</ele>
        <time>2022-09-29T08:46:50Z</time>
      </trkpt>
      <trkpt lat="44.42905" lon="5.22014">
        <ele>414</ele>
        <time>2022-09-29T08:46:51Z</time>
      </trkpt>
      <trkpt lat="44.42906" lon="5.22016">
        <ele>414</ele>
        <time>2022-09-29T08:46:52Z</time>
      </trkpt>
      <trkpt lat="44.42906" lon="5.22017">
        <ele>414</ele>
        <time>2022-09-29T08:46:53Z</time>
      </trkpt>
      <trkpt lat="44.42906" lon="5.22018">
        <ele>414</ele>
        <time>2022-09-29T08:46:54Z</time>
      </trkpt>
      <trkpt lat="44.42907" lon="5.22019">
        <ele>414</ele>
        <time>2022-09-29T08:46:55Z</time>
      </trkpt>
      <trkpt lat="44.42907" lon="5.22021">
        <ele>414</ele>
        <time>2022-09-29T08:46:56Z</time>
      </trkpt>
      <trkpt lat="44.42907" lon="5.22022">
        <ele>414</ele>
        <time>2022-09-29T08:46:57Z</time>
      </trkpt>
      <trkpt lat="44.42907" lon="5.22024">
        <ele>414</ele>
        <time>2022-09-29T08:46:58Z</time>
      </trkpt>
      <trkpt lat="44.42907" lon="5.22025">
        <ele>414</ele>
        <time>2022-09-29T08:46:59Z</time>
      </trkpt>
      <trkpt lat="44.42908" lon="5.22026">
        <ele>414</ele>
        <time>2022-09-29T08:47:00Z</time>
      </trkpt>
      <trkpt lat="44.42908" lon="5.22028">
        <ele>414</ele>
        <time>2022-09-29T08:47:01Z</time>
      </trkpt>
      <trkpt lat="44.42909" lon="5.22029">
        <ele>414</ele>
        <time>2022-09-29T08:47:02Z</time>
      </trkpt>
      <trkpt lat="44.4291" lon="5.2203">
        <ele>414</ele>
        <time>2022-09-29T08:47:03Z</time>
      </trkpt>
      <trkpt lat="44.4291" lon="5.22031">
        <ele>414</ele>
        <time>2022-09-29T08:47:04Z</time>
      </trkpt>
      <trkpt lat="44.42911" lon="5.22032">
        <ele>414</ele>
        <time>2022-09-29T08:47:05Z</time>
      </trkpt>
      <trkpt lat="44.42911" lon="5.22033">
        <ele>414</ele>
        <time>2022-09-29T08:47:06Z</time>
      </trkpt>
      <trkpt lat="44.42912" lon="5.22034">
        <ele>414</ele>
        <time>2022-09-29T08:47:07Z</time>
      </trkpt>
      <trkpt lat="44.42912" lon="5.22035">
        <ele>414</ele>
        <time>2022-09-29T08:47:08Z</time>
      </trkpt>
      <trkpt lat="44.42913" lon="5.22036">
        <ele>414</ele>
        <time>2022-09-29T08:47:09Z</time>
      </trkpt>
      <trkpt lat="44.42913" lon="5.22037">
        <ele>414</ele>
        <time>2022-09-29T08:47:10Z</time>
      </trkpt>
      <trkpt lat="44.42914" lon="5.22038">
        <ele>414</ele>
        <time>2022-09-29T08:47:11Z</time>
      </trkpt>
      <trkpt lat="44.42915" lon="5.22038">
        <ele>414</ele>
        <time>2022-09-29T08:47:12Z</time>
      </trkpt>
      <trkpt lat="44.42916" lon="5.22039">
        <ele>414</ele>
        <time>2022-09-29T08:47:13Z</time>
      </trkpt>
      <trkpt lat="44.42916" lon="5.2204">
        <ele>415</ele>
        <time>2022-09-29T08:47:14Z</time>
      </trkpt>
      <trkpt lat="44.42917" lon="5.22041">
        <ele>415</ele>
        <time>2022-09-29T08:47:15Z</time>
      </trkpt>
      <trkpt lat="44.42918" lon="5.22042">
        <ele>415</ele>
        <time>2022-09-29T08:47:16Z</time>
      </trkpt>
      <trkpt lat="44.42919" lon="5.22044">
        <ele>415</ele>
        <time>2022-09-29T08:47:17Z</time>
      </trkpt>
      <trkpt lat="44.4292" lon="5.22045">
        <ele>415</ele>
        <time>2022-09-29T08:47:18Z</time>
      </trkpt>
      <trkpt lat="44.42921" lon="5.22046">
        <ele>415</ele>
        <time>2022-09-29T08:47:19Z</time>
      </trkpt>
      <trkpt lat="44.42922" lon="5.22047">
        <ele>415</ele>
        <time>2022-09-29T08:47:20Z</time>
      </trkpt>
      <trkpt lat="44.42923" lon="5.22048">
        <ele>415</ele>
        <time>2022-09-29T08:47:21Z</time>
      </trkpt>
      <trkpt lat="44.42924" lon="5.22049">
        <ele>415</ele>
        <time>2022-09-29T08:47:22Z</time>
      </trkpt>
      <trkpt lat="44.42925" lon="5.2205">
        <ele>415</ele>
        <time>2022-09-29T08:47:23Z</time>
      </trkpt>
      <trkpt lat="44.42926" lon="5.22051">
        <ele>415</ele>
        <time>2022-09-29T08:47:24Z</time>
      </trkpt>
      <trkpt lat="44.42926" lon="5.22052">
        <ele>415</ele>
        <time>2022-09-29T08:47:25Z</time>
      </trkpt>
      <trkpt lat="44.42927" lon="5.22053">
        <ele>415</ele>
        <time>2022-09-29T08:47:26Z</time>
      </trkpt>
      <trkpt lat="44.42928" lon="5.22054">
        <ele>415</ele>
        <time>2022-09-29T08:47:27Z</time>
      </trkpt>
      <trkpt lat="44.42928" lon="5.22055">
        <ele>415</ele>
        <time>2022-09-29T08:47:28Z</time>
      </trkpt>
      <trkpt lat="44.42929" lon="5.22056">
        <ele>415</ele>
        <time>2022-09-29T08:47:29Z</time>
      </trkpt>
      <trkpt lat="44.42929" lon="5.22057">
        <ele>415</ele>
        <time>2022-09-29T08:47:30Z</time>
      </trkpt>
      <trkpt lat="44.4293" lon="5.22058">
        <ele>415</ele>
        <time>2022-09-29T08:47:31Z</time>
      </trkpt>
      <trkpt lat="44.4293" lon="5.22059">
        <ele>415</ele>
        <time>2022-09-29T08:47:32Z</time>
      </trkpt>
      <trkpt lat="44.42931" lon="5.2206">
        <ele>415</ele>
        <time>2022-09-29T08:47:33Z</time>
      </trkpt>
      <trkpt lat="44.42931" lon="5.22062">
        <ele>415</ele>
        <time>2022-09-29T08:47:34Z</time>
      </trkpt>
      <trkpt lat="44.42932" lon="5.22063">
        <ele>415</ele>
        <time>2022-09-29T08:47:35Z</time>
      </trkpt>
      <trkpt lat="44.42932" lon="5.22064">
        <ele>415</ele>
        <time>2022-09-29T08:47:36Z</time>
      </trkpt>
      <trkpt lat="44.42933" lon="5.22065">
        <ele>415</ele>
        <time>2022-09-29T08:47:37Z</time>
      </trkpt>
      <trkpt lat="44.42934" lon="5.22066">
        <ele>415</ele>
        <time>2022-09-29T08:47:38Z</time>
      </trkpt>
      <trkpt lat="44.42934" lon="5.22068">
        <ele>415</ele>
        <time>2022-09-29T08:47:39Z</time>
      </trkpt>
      <trkpt lat="44.42935" lon="5.22069">
        <ele>415</ele>
        <time>2022-09-29T08:47:40Z</time>
      </trkpt>
      <trkpt lat="44.42936" lon="5.2207">
        <ele>415</ele>
        <time>2022-09-29T08:47:41Z</time>
      </trkpt>
      <trkpt lat="44.42937" lon="5.22072">
        <ele>415</ele>
        <time>2022-09-29T08:47:42Z</time>
      </trkpt>
      <trkpt lat="44.42938" lon="5.22073">
        <ele>415</ele>
        <time>2022-09-29T08:47:43Z</time>
      </trkpt>
      <trkpt lat="44.42938" lon="5.22074">
        <ele>415</ele>
        <time>2022-09-29T08:47:44Z</time>
      </trkpt>
      <trkpt lat="44.42939" lon="5.22075">
        <ele>415</ele>
        <time>2022-09-29T08:47:45Z</time>
      </trkpt>
      <trkpt lat="44.4294" lon="5.22076">
        <ele>415</ele>
        <time>2022-09-29T08:47:46Z</time>
      </trkpt>
      <trkpt lat="44.4294" lon="5.22077">
        <ele>415</ele>
        <time>2022-09-29T08:47:47Z</time>
      </trkpt>
      <trkpt lat="44.42941" lon="5.22078">
        <ele>415</ele>
        <time>2022-09-29T08:47:48Z</time>
      </trkpt>
      <trkpt lat="44.42941" lon="5.22079">
        <ele>415</ele>
        <time>2022-09-29T08:47:49Z</time>
      </trkpt>
      <trkpt lat="44.42941" lon="5.22081">
        <ele>415</ele>
        <time>2022-09-29T08:47:50Z</time>
      </trkpt>
      <trkpt lat="44.42942" lon="5.22082">
        <ele>415</ele>
        <time>2022-09-29T08:47:51Z</time>
      </trkpt>
      <trkpt lat="44.42942" lon="5.22083">
        <ele>415</ele>
        <time>2022-09-29T08:47:52Z</time>
      </trkpt>
      <trkpt lat="44.42942" lon="5.22084">
        <ele>415</ele>
        <time>2022-09-29T08:47:53Z</time>
      </trkpt>
      <trkpt lat="44.42942" lon="5.22086">
        <ele>415</ele>
        <time>2022-09-29T08:47:54Z</time>
      </trkpt>
      <trkpt lat="44.42943" lon="5.22087">
        <ele>415</ele>
        <time>2022-09-29T08:47:55Z</time>
      </trkpt>
      <trkpt lat="44.42943" lon="5.22088">
        <ele>415</ele>
        <time>2022-09-29T08:47:56Z</time>
      </trkpt>
      <trkpt lat="44.42943" lon="5.2209">
        <ele>416</ele>
        <time>2022-09-29T08:47:57Z</time>
      </trkpt>
      <trkpt lat="44.42944" lon="5.22091">
        <ele>416</ele>
        <time>2022-09-29T08:47:58Z</time>
      </trkpt>
      <trkpt lat="44.42944" lon="5.22092">
        <ele>417</ele>
        <time>2022-09-29T08:47:59Z</time>
      </trkpt>
      <trkpt lat="44.42944" lon="5.22094">
        <ele>417</ele>
        <time>2022-09-29T08:48:00Z</time>
      </trkpt>
      <trkpt lat="44.42944" lon="5.22095">
        <ele>417</ele>
        <time>2022-09-29T08:48:01Z</time>
      </trkpt>
      <trkpt lat="44.42944" lon="5.22096">
        <ele>417</ele>
        <time>2022-09-29T08:48:02Z</time>
      </trkpt>
      <trkpt lat="44.42944" lon="5.22097">
        <ele>417</ele>
        <time>2022-09-29T08:48:03Z</time>
      </trkpt>
      <trkpt lat="44.42944" lon="5.22098">
        <ele>417</ele>
        <time>2022-09-29T08:48:04Z</time>
      </trkpt>
      <trkpt lat="44.42944" lon="5.22099">
        <ele>416</ele>
        <time>2022-09-29T08:48:05Z</time>
      </trkpt>
      <trkpt lat="44.42944" lon="5.221">
        <ele>416</ele>
        <time>2022-09-29T08:48:22Z</time>
      </trkpt>
      <trkpt lat="44.42945" lon="5.22101">
        <ele>416</ele>
        <time>2022-09-29T08:48:23Z</time>
      </trkpt>
      <trkpt lat="44.42945" lon="5.22102">
        <ele>417</ele>
        <time>2022-09-29T08:48:24Z</time>
      </trkpt>
      <trkpt lat="44.42946" lon="5.22103">
        <ele>417</ele>
        <time>2022-09-29T08:48:25Z</time>
      </trkpt>
      <trkpt lat="44.42946" lon="5.22104">
        <ele>417</ele>
        <time>2022-09-29T08:48:26Z</time>
      </trkpt>
      <trkpt lat="44.42946" lon="5.22104">
        <ele>417</ele>
        <time>2022-09-29T08:48:27Z</time>
      </trkpt>
      <trkpt lat="44.42946" lon="5.22105">
        <ele>417</ele>
        <time>2022-09-29T08:48:28Z</time>
      </trkpt>
      <trkpt lat="44.42946" lon="5.22106">
        <ele>417</ele>
        <time>2022-09-29T08:48:29Z</time>
      </trkpt>
      <trkpt lat="44.42946" lon="5.22107">
        <ele>417</ele>
        <time>2022-09-29T08:48:30Z</time>
      </trkpt>
      <trkpt lat="44.42946" lon="5.22108">
        <ele>417</ele>
        <time>2022-09-29T08:48:31Z</time>
      </trkpt>
      <trkpt lat="44.42945" lon="5.2211">
        <ele>417</ele>
        <time>2022-09-29T08:49:20Z</time>
      </trkpt>
      <trkpt lat="44.42945" lon="5.22111">
        <ele>417</ele>
        <time>2022-09-29T08:49:21Z</time>
      </trkpt>
      <trkpt lat="44.42944" lon="5.22112">
        <ele>417</ele>
        <time>2022-09-29T08:49:22Z</time>
      </trkpt>
      <trkpt lat="44.42943" lon="5.22113">
        <ele>417</ele>
        <time>2022-09-29T08:49:23Z</time>
      </trkpt>
      <trkpt lat="44.42943" lon="5.22113">
        <ele>417</ele>
        <time>2022-09-29T08:49:24Z</time>
      </trkpt>
      <trkpt lat="44.42942" lon="5.22113">
        <ele>417</ele>
        <time>2022-09-29T08:49:25Z</time>
      </trkpt>
      <trkpt lat="44.42941" lon="5.22114">
        <ele>417</ele>
        <time>2022-09-29T08:49:26Z</time>
      </trkpt>
      <trkpt lat="44.4294" lon="5.22114">
        <ele>417</ele>
        <time>2022-09-29T08:49:27Z</time>
      </trkpt>
      <trkpt lat="44.4294" lon="5.22115">
        <ele>417</ele>
        <time>2022-09-29T08:49:28Z</time>
      </trkpt>
      <trkpt lat="44.42939" lon="5.22115">
        <ele>417</ele>
        <time>2022-09-29T08:49:29Z</time>
      </trkpt>
      <trkpt lat="44.42938" lon="5.22116">
        <ele>416</ele>
        <time>2022-09-29T08:49:30Z</time>
      </trkpt>
      <trkpt lat="44.42938" lon="5.22116">
        <ele>416</ele>
        <time>2022-09-29T08:49:31Z</time>
      </trkpt>
      <trkpt lat="44.42937" lon="5.22117">
        <ele>415</ele>
        <time>2022-09-29T08:49:32Z</time>
      </trkpt>
      <trkpt lat="44.42936" lon="5.22117">
        <ele>415</ele>
        <time>2022-09-29T08:49:33Z</time>
      </trkpt>
      <trkpt lat="44.42936" lon="5.22118">
        <ele>415</ele>
        <time>2022-09-29T08:49:34Z</time>
      </trkpt>
      <trkpt lat="44.42935" lon="5.22118">
        <ele>415</ele>
        <time>2022-09-29T08:49:35Z</time>
      </trkpt>
      <trkpt lat="44.42934" lon="5.22119">
        <ele>415</ele>
        <time>2022-09-29T08:49:36Z</time>
      </trkpt>
      <trkpt lat="44.42933" lon="5.2212">
        <ele>415</ele>
        <time>2022-09-29T08:49:37Z</time>
      </trkpt>
      <trkpt lat="44.42932" lon="5.2212">
        <ele>415</ele>
        <time>2022-09-29T08:49:38Z</time>
      </trkpt>
      <trkpt lat="44.42931" lon="5.22121">
        <ele>415</ele>
        <time>2022-09-29T08:49:39Z</time>
      </trkpt>
      <trkpt lat="44.4293" lon="5.22121">
        <ele>415</ele>
        <time>2022-09-29T08:49:40Z</time>
      </trkpt>
      <trkpt lat="44.42929" lon="5.22122">
        <ele>415</ele>
        <time>2022-09-29T08:49:41Z</time>
      </trkpt>
      <trkpt lat="44.42927" lon="5.22122">
        <ele>415</ele>
        <time>2022-09-29T08:49:42Z</time>
      </trkpt>
      <trkpt lat="44.42926" lon="5.22123">
        <ele>415</ele>
        <time>2022-09-29T08:49:43Z</time>
      </trkpt>
      <trkpt lat="44.42925" lon="5.22123">
        <ele>415</ele>
        <time>2022-09-29T08:49:44Z</time>
      </trkpt>
      <trkpt lat="44.42923" lon="5.22123">
        <ele>415</ele>
        <time>2022-09-29T08:49:45Z</time>
      </trkpt>
      <trkpt lat="44.42922" lon="5.22124">
        <ele>415</ele>
        <time>2022-09-29T08:49:46Z</time>
      </trkpt>
      <trkpt lat="44.42921" lon="5.22124">
        <ele>415</ele>
        <time>2022-09-29T08:49:47Z</time>
      </trkpt>
      <trkpt lat="44.4292" lon="5.22124">
        <ele>415</ele>
        <time>2022-09-29T08:49:48Z</time>
      </trkpt>
      <trkpt lat="44.42919" lon="5.22124">
        <ele>415</ele>
        <time>2022-09-29T08:49:49Z</time>
      </trkpt>
      <trkpt lat="44.42918" lon="5.22124">
        <ele>415</ele>
        <time>2022-09-29T08:49:50Z</time>
      </trkpt>
      <trkpt lat="44.42917" lon="5.22124">
        <ele>415</ele>
        <time>2022-09-29T08:49:51Z</time>
      </trkpt>
      <trkpt lat="44.42915" lon="5.22123">
        <ele>415</ele>
        <time>2022-09-29T08:49:52Z</time>
      </trkpt>
      <trkpt lat="44.42914" lon="5.22123">
        <ele>415</ele>
        <time>2022-09-29T08:49:53Z</time>
      </trkpt>
      <trkpt lat="44.42913" lon="5.22123">
        <ele>415</ele>
        <time>2022-09-29T08:49:54Z</time>
      </trkpt>
      <trkpt lat="44.42911" lon="5.22123">
        <ele>415</ele>
        <time>2022-09-29T08:49:55Z</time>
      </trkpt>
      <trkpt lat="44.4291" lon="5.22123">
        <ele>415</ele>
        <time>2022-09-29T08:49:56Z</time>
      </trkpt>
      <trkpt lat="44.42909" lon="5.22123">
        <ele>415</ele>
        <time>2022-09-29T08:49:57Z</time>
      </trkpt>
      <trkpt lat="44.42907" lon="5.22123">
        <ele>415</ele>
        <time>2022-09-29T08:49:58Z</time>
      </trkpt>
      <trkpt lat="44.42906" lon="5.22123">
        <ele>415</ele>
        <time>2022-09-29T08:49:59Z</time>
      </trkpt>
      <trkpt lat="44.42905" lon="5.22123">
        <ele>415</ele>
        <time>2022-09-29T08:50:00Z</time>
      </trkpt>
      <trkpt lat="44.42905" lon="5.22123">
        <ele>415</ele>
        <time>2022-09-29T08:50:01Z</time>
      </trkpt>
      <trkpt lat="44.42904" lon="5.22123">
        <ele>415</ele>
        <time>2022-09-29T08:50:02Z</time>
      </trkpt>
      <trkpt lat="44.42903" lon="5.22123">
        <ele>415</ele>
        <time>2022-09-29T08:50:03Z</time>
      </trkpt>
      <trkpt lat="44.42902" lon="5.22123">
        <ele>415</ele>
        <time>2022-09-29T08:50:04Z</time>
      </trkpt>
      <trkpt lat="44.42901" lon="5.22123">
        <ele>415</ele>
        <time>2022-09-29T08:50:05Z</time>
      </trkpt>
      <trkpt lat="44.429" lon="5.22123">
        <ele>415</ele>
        <time>2022-09-29T08:50:06Z</time>
      </trkpt>
      <trkpt lat="44.42899" lon="5.22124">
        <ele>415</ele>
        <time>2022-09-29T08:50:07Z</time>
      </trkpt>
      <trkpt lat="44.42898" lon="5.22124">
        <ele>415</ele>
        <time>2022-09-29T08:50:08Z</time>
      </trkpt>
      <trkpt lat="44.42897" lon="5.22124">
        <ele>415</ele>
        <time>2022-09-29T08:50:09Z</time>
      </trkpt>
      <trkpt lat="44.42895" lon="5.22125">
        <ele>414</ele>
        <time>2022-09-29T08:50:10Z</time>
      </trkpt>
      <trkpt lat="44.42894" lon="5.22125">
        <ele>414</ele>
        <time>2022-09-29T08:50:11Z</time>
      </trkpt>
      <trkpt lat="44.42893" lon="5.22125">
        <ele>414</ele>
        <time>2022-09-29T08:50:12Z</time>
      </trkpt>
      <trkpt lat="44.42892" lon="5.22126">
        <ele>414</ele>
        <time>2022-09-29T08:50:13Z</time>
      </trkpt>
      <trkpt lat="44.42891" lon="5.22126">
        <ele>414</ele>
        <time>2022-09-29T08:50:14Z</time>
      </trkpt>
      <trkpt lat="44.4289" lon="5.22126">
        <ele>414</ele>
        <time>2022-09-29T08:50:15Z</time>
      </trkpt>
      <trkpt lat="44.42889" lon="5.22127">
        <ele>414</ele>
        <time>2022-09-29T08:50:16Z</time>
      </trkpt>
      <trkpt lat="44.42888" lon="5.22127">
        <ele>414</ele>
        <time>2022-09-29T08:50:17Z</time>
      </trkpt>
      <trkpt lat="44.42887" lon="5.22127">
        <ele>414</ele>
        <time>2022-09-29T08:50:18Z</time>
      </trkpt>
      <trkpt lat="44.42886" lon="5.22128">
        <ele>414</ele>
        <time>2022-09-29T08:50:19Z</time>
      </trkpt>
      <trkpt lat="44.42885" lon="5.22128">
        <ele>414</ele>
        <time>2022-09-29T08:50:20Z</time>
      </trkpt>
      <trkpt lat="44.42884" lon="5.22129">
        <ele>414</ele>
        <time>2022-09-29T08:50:21Z</time>
      </trkpt>
      <trkpt lat="44.42883" lon="5.22129">
        <ele>414</ele>
        <time>2022-09-29T08:50:22Z</time>
      </trkpt>
      <trkpt lat="44.42882" lon="5.22129">
        <ele>414</ele>
        <time>2022-09-29T08:50:23Z</time>
      </trkpt>
      <trkpt lat="44.42881" lon="5.2213">
        <ele>415</ele>
        <time>2022-09-29T08:50:24Z</time>
      </trkpt>
      <trkpt lat="44.4288" lon="5.22131">
        <ele>414</ele>
        <time>2022-09-29T08:50:25Z</time>
      </trkpt>
      <trkpt lat="44.42879" lon="5.22131">
        <ele>414</ele>
        <time>2022-09-29T08:50:26Z</time>
      </trkpt>
      <trkpt lat="44.42878" lon="5.22132">
        <ele>414</ele>
        <time>2022-09-29T08:50:27Z</time>
      </trkpt>
      <trkpt lat="44.42877" lon="5.22132">
        <ele>414</ele>
        <time>2022-09-29T08:50:28Z</time>
      </trkpt>
      <trkpt lat="44.42876" lon="5.22133">
        <ele>414</ele>
        <time>2022-09-29T08:50:29Z</time>
      </trkpt>
      <trkpt lat="44.42875" lon="5.22134">
        <ele>414</ele>
        <time>2022-09-29T08:50:30Z</time>
      </trkpt>
      <trkpt lat="44.42874" lon="5.22134">
        <ele>414</ele>
        <time>2022-09-29T08:50:31Z</time>
      </trkpt>
      <trkpt lat="44.42873" lon="5.22135">
        <ele>414</ele>
        <time>2022-09-29T08:50:32Z</time>
      </trkpt>
      <trkpt lat="44.42872" lon="5.22135">
        <ele>414</ele>
        <time>2022-09-29T08:50:33Z</time>
      </trkpt>
      <trkpt lat="44.42871" lon="5.22136">
        <ele>414</ele>
        <time>2022-09-29T08:50:34Z</time>
      </trkpt>
      <trkpt lat="44.4287" lon="5.22136">
        <ele>414</ele>
        <time>2022-09-29T08:50:35Z</time>
      </trkpt>
      <trkpt lat="44.42869" lon="5.22137">
        <ele>414</ele>
        <time>2022-09-29T08:50:36Z</time>
      </trkpt>
      <trkpt lat="44.42868" lon="5.22137">
        <ele>414</ele>
        <time>2022-09-29T08:50:37Z</time>
      </trkpt>
      <trkpt lat="44.42867" lon="5.22138">
        <ele>414</ele>
        <time>2022-09-29T08:50:38Z</time>
      </trkpt>
      <trkpt lat="44.42866" lon="5.22139">
        <ele>414</ele>
        <time>2022-09-29T08:50:39Z</time>
      </trkpt>
      <trkpt lat="44.42865" lon="5.22139">
        <ele>414</ele>
        <time>2022-09-29T08:50:40Z</time>
      </trkpt>
      <trkpt lat="44.42864" lon="5.2214">
        <ele>414</ele>
        <time>2022-09-29T08:50:41Z</time>
      </trkpt>
      <trkpt lat="44.42863" lon="5.2214">
        <ele>414</ele>
        <time>2022-09-29T08:50:42Z</time>
      </trkpt>
      <trkpt lat="44.42862" lon="5.22141">
        <ele>414</ele>
        <time>2022-09-29T08:50:43Z</time>
      </trkpt>
      <trkpt lat="44.42861" lon="5.22142">
        <ele>415</ele>
        <time>2022-09-29T08:50:44Z</time>
      </trkpt>
      <trkpt lat="44.4286" lon="5.22142">
        <ele>415</ele>
        <time>2022-09-29T08:50:45Z</time>
      </trkpt>
      <trkpt lat="44.4286" lon="5.22143">
        <ele>415</ele>
        <time>2022-09-29T08:50:46Z</time>
      </trkpt>
      <trkpt lat="44.42859" lon="5.22143">
        <ele>415</ele>
        <time>2022-09-29T08:50:47Z</time>
      </trkpt>
      <trkpt lat="44.42858" lon="5.22144">
        <ele>415</ele>
        <time>2022-09-29T08:50:48Z</time>
      </trkpt>
      <trkpt lat="44.42857" lon="5.22144">
        <ele>415</ele>
        <time>2022-09-29T08:50:49Z</time>
      </trkpt>
      <trkpt lat="44.42856" lon="5.22145">
        <ele>415</ele>
        <time>2022-09-29T08:50:50Z</time>
      </trkpt>
      <trkpt lat="44.42856" lon="5.22146">
        <ele>415</ele>
        <time>2022-09-29T08:50:51Z</time>
      </trkpt>
      <trkpt lat="44.42855" lon="5.22146">
        <ele>415</ele>
        <time>2022-09-29T08:50:52Z</time>
      </trkpt>
      <trkpt lat="44.42854" lon="5.22147">
        <ele>415</ele>
        <time>2022-09-29T08:50:53Z</time>
      </trkpt>
      <trkpt lat="44.42853" lon="5.22147">
        <ele>415</ele>
        <time>2022-09-29T08:50:54Z</time>
      </trkpt>
      <trkpt lat="44.42853" lon="5.22148">
        <ele>415</ele>
        <time>2022-09-29T08:50:55Z</time>
      </trkpt>
      <trkpt lat="44.42852" lon="5.22149">
        <ele>415</ele>
        <time>2022-09-29T08:50:56Z</time>
      </trkpt>
      <trkpt lat="44.42851" lon="5.22149">
        <ele>416</ele>
        <time>2022-09-29T08:50:57Z</time>
      </trkpt>
      <trkpt lat="44.42851" lon="5.2215">
        <ele>416</ele>
        <time>2022-09-29T08:50:58Z</time>
      </trkpt>
      <trkpt lat="44.4285" lon="5.2215">
        <ele>417</ele>
        <time>2022-09-29T08:50:59Z</time>
      </trkpt>
      <trkpt lat="44.4285" lon="5.22151">
        <ele>417</ele>
        <time>2022-09-29T08:51:00Z</time>
      </trkpt>
      <trkpt lat="44.4285" lon="5.22151">
        <ele>417</ele>
        <time>2022-09-29T08:51:01Z</time>
      </trkpt>
      <trkpt lat="44.42849" lon="5.22152">
        <ele>417</ele>
        <time>2022-09-29T08:51:02Z</time>
      </trkpt>
      <trkpt lat="44.42849" lon="5.22152">
        <ele>417</ele>
        <time>2022-09-29T08:51:03Z</time>
      </trkpt>
      <trkpt lat="44.42849" lon="5.22152">
        <ele>418</ele>
        <time>2022-09-29T08:51:04Z</time>
      </trkpt>
      <trkpt lat="44.42848" lon="5.22153">
        <ele>418</ele>
        <time>2022-09-29T08:51:05Z</time>
      </trkpt>
      <trkpt lat="44.42848" lon="5.22154">
        <ele>418</ele>
        <time>2022-09-29T08:51:06Z</time>
      </trkpt>
      <trkpt lat="44.42847" lon="5.22154">
        <ele>418</ele>
        <time>2022-09-29T08:51:07Z</time>
      </trkpt>
      <trkpt lat="44.42846" lon="5.22155">
        <ele>418</ele>
        <time>2022-09-29T08:51:08Z</time>
      </trkpt>
      <trkpt lat="44.42846" lon="5.22156">
        <ele>418</ele>
        <time>2022-09-29T08:51:09Z</time>
      </trkpt>
      <trkpt lat="44.42845" lon="5.22157">
        <ele>418</ele>
        <time>2022-09-29T08:51:10Z</time>
      </trkpt>
      <trkpt lat="44.42845" lon="5.22158">
        <ele>418</ele>
        <time>2022-09-29T08:51:11Z</time>
      </trkpt>
      <trkpt lat="44.42844" lon="5.22158">
        <ele>418</ele>
        <time>2022-09-29T08:51:12Z</time>
      </trkpt>
      <trkpt lat="44.42844" lon="5.22159">
        <ele>418</ele>
        <time>2022-09-29T08:51:13Z</time>
      </trkpt>
      <trkpt lat="44.42843" lon="5.2216">
        <ele>419</ele>
        <time>2022-09-29T08:51:14Z</time>
      </trkpt>
      <trkpt lat="44.42843" lon="5.22161">
        <ele>419</ele>
        <time>2022-09-29T08:51:15Z</time>
      </trkpt>
      <trkpt lat="44.42843" lon="5.22162">
        <ele>419</ele>
        <time>2022-09-29T08:51:16Z</time>
      </trkpt>
      <trkpt lat="44.42843" lon="5.22163">
        <ele>419</ele>
        <time>2022-09-29T08:51:17Z</time>
      </trkpt>
      <trkpt lat="44.42842" lon="5.22164">
        <ele>419</ele>
        <time>2022-09-29T08:51:18Z</time>
      </trkpt>
      <trkpt lat="44.42842" lon="5.22165">
        <ele>420</ele>
        <time>2022-09-29T08:51:19Z</time>
      </trkpt>
      <trkpt lat="44.42842" lon="5.22166">
        <ele>420</ele>
        <time>2022-09-29T08:51:20Z</time>
      </trkpt>
      <trkpt lat="44.42842" lon="5.22167">
        <ele>420</ele>
        <time>2022-09-29T08:51:21Z</time>
      </trkpt>
      <trkpt lat="44.42841" lon="5.22168">
        <ele>420</ele>
        <time>2022-09-29T08:51:22Z</time>
      </trkpt>
      <trkpt lat="44.42841" lon="5.22169">
        <ele>420</ele>
        <time>2022-09-29T08:51:23Z</time>
      </trkpt>
      <trkpt lat="44.42841" lon="5.22171">
        <ele>420</ele>
        <time>2022-09-29T08:51:24Z</time>
      </trkpt>
      <trkpt lat="44.4284" lon="5.22172">
        <ele>420</ele>
        <time>2022-09-29T08:51:25Z</time>
      </trkpt>
      <trkpt lat="44.4284" lon="5.22173">
        <ele>420</ele>
        <time>2022-09-29T08:51:26Z</time>
      </trkpt>
      <trkpt lat="44.4284" lon="5.22174">
        <ele>420</ele>
        <time>2022-09-29T08:51:27Z</time>
      </trkpt>
      <trkpt lat="44.42839" lon="5.22175">
        <ele>420</ele>
        <time>2022-09-29T08:51:28Z</time>
      </trkpt>
      <trkpt lat="44.42839" lon="5.22176">
        <ele>421</ele>
        <time>2022-09-29T08:51:29Z</time>
      </trkpt>
      <trkpt lat="44.42839" lon="5.22177">
        <ele>421</ele>
        <time>2022-09-29T08:51:30Z</time>
      </trkpt>
      <trkpt lat="44.42839" lon="5.22178">
        <ele>421</ele>
        <time>2022-09-29T08:51:31Z</time>
      </trkpt>
      <trkpt lat="44.42839" lon="5.22179">
        <ele>421</ele>
        <time>2022-09-29T08:51:32Z</time>
      </trkpt>
      <trkpt lat="44.4284" lon="5.22181">
        <ele>421</ele>
        <time>2022-09-29T08:51:33Z</time>
      </trkpt>
      <trkpt lat="44.4284" lon="5.22182">
        <ele>421</ele>
        <time>2022-09-29T08:51:34Z</time>
      </trkpt>
      <trkpt lat="44.4284" lon="5.22183">
        <ele>421</ele>
        <time>2022-09-29T08:51:35Z</time>
      </trkpt>
      <trkpt lat="44.4284" lon="5.22184">
        <ele>421</ele>
        <time>2022-09-29T08:51:36Z</time>
      </trkpt>
      <trkpt lat="44.42841" lon="5.22185">
        <ele>421</ele>
        <time>2022-09-29T08:51:37Z</time>
      </trkpt>
      <trkpt lat="44.42841" lon="5.22186">
        <ele>421</ele>
        <time>2022-09-29T08:51:38Z</time>
      </trkpt>
      <trkpt lat="44.42841" lon="5.22188">
        <ele>422</ele>
        <time>2022-09-29T08:51:39Z</time>
      </trkpt>
      <trkpt lat="44.42842" lon="5.22189">
        <ele>422</ele>
        <time>2022-09-29T08:51:40Z</time>
      </trkpt>
      <trkpt lat="44.42842" lon="5.2219">
        <ele>422</ele>
        <time>2022-09-29T08:51:41Z</time>
      </trkpt>
      <trkpt lat="44.42843" lon="5.22192">
        <ele>422</ele>
        <time>2022-09-29T08:51:42Z</time>
      </trkpt>
      <trkpt lat="44.42843" lon="5.22193">
        <ele>422</ele>
        <time>2022-09-29T08:51:43Z</time>
      </trkpt>
      <trkpt lat="44.42844" lon="5.22194">
        <ele>423</ele>
        <time>2022-09-29T08:51:44Z</time>
      </trkpt>
      <trkpt lat="44.42844" lon="5.22196">
        <ele>423</ele>
        <time>2022-09-29T08:51:45Z</time>
      </trkpt>
      <trkpt lat="44.42845" lon="5.22197">
        <ele>423</ele>
        <time>2022-09-29T08:51:46Z</time>
      </trkpt>
      <trkpt lat="44.42846" lon="5.22198">
        <ele>423</ele>
        <time>2022-09-29T08:51:47Z</time>
      </trkpt>
      <trkpt lat="44.42846" lon="5.222">
        <ele>423</ele>
        <time>2022-09-29T08:51:48Z</time>
      </trkpt>
      <trkpt lat="44.42846" lon="5.22201">
        <ele>423</ele>
        <time>2022-09-29T08:51:49Z</time>
      </trkpt>
      <trkpt lat="44.42847" lon="5.22203">
        <ele>423</ele>
        <time>2022-09-29T08:51:50Z</time>
      </trkpt>
      <trkpt lat="44.42846" lon="5.22204">
        <ele>423</ele>
        <time>2022-09-29T08:51:51Z</time>
      </trkpt>
      <trkpt lat="44.42846" lon="5.22205">
        <ele>423</ele>
        <time>2022-09-29T08:51:52Z</time>
      </trkpt>
      <trkpt lat="44.42846" lon="5.22205">
        <ele>423</ele>
        <time>2022-09-29T08:51:53Z</time>
      </trkpt>
      <trkpt lat="44.42845" lon="5.22206">
        <ele>423</ele>
        <time>2022-09-29T08:51:54Z</time>
      </trkpt>
      <trkpt lat="44.42844" lon="5.22207">
        <ele>423</ele>
        <time>2022-09-29T08:51:55Z</time>
      </trkpt>
      <trkpt lat="44.42843" lon="5.22207">
        <ele>423</ele>
        <time>2022-09-29T08:51:56Z</time>
      </trkpt>
      <trkpt lat="44.42842" lon="5.22207">
        <ele>423</ele>
        <time>2022-09-29T08:51:57Z</time>
      </trkpt>
      <trkpt lat="44.42841" lon="5.22207">
        <ele>423</ele>
        <time>2022-09-29T08:51:58Z</time>
      </trkpt>
      <trkpt lat="44.4284" lon="5.22206">
        <ele>424</ele>
        <time>2022-09-29T08:51:59Z</time>
      </trkpt>
      <trkpt lat="44.4284" lon="5.22206">
        <ele>424</ele>
        <time>2022-09-29T08:52:00Z</time>
      </trkpt>
      <trkpt lat="44.42839" lon="5.22205">
        <ele>424</ele>
        <time>2022-09-29T08:52:01Z</time>
      </trkpt>
      <trkpt lat="44.42838" lon="5.22205">
        <ele>424</ele>
        <time>2022-09-29T08:52:02Z</time>
      </trkpt>
      <trkpt lat="44.42837" lon="5.22204">
        <ele>424</ele>
        <time>2022-09-29T08:52:03Z</time>
      </trkpt>
      <trkpt lat="44.42837" lon="5.22203">
        <ele>424</ele>
        <time>2022-09-29T08:52:04Z</time>
      </trkpt>
      <trkpt lat="44.42836" lon="5.22203">
        <ele>424</ele>
        <time>2022-09-29T08:52:05Z</time>
      </trkpt>
      <trkpt lat="44.42835" lon="5.22202">
        <ele>424</ele>
        <time>2022-09-29T08:52:06Z</time>
      </trkpt>
      <trkpt lat="44.42834" lon="5.22201">
        <ele>424</ele>
        <time>2022-09-29T08:52:07Z</time>
      </trkpt>
      <trkpt lat="44.42833" lon="5.22201">
        <ele>424</ele>
        <time>2022-09-29T08:52:08Z</time>
      </trkpt>
      <trkpt lat="44.42832" lon="5.222">
        <ele>425</ele>
        <time>2022-09-29T08:52:09Z</time>
      </trkpt>
      <trkpt lat="44.42831" lon="5.22199">
        <ele>425</ele>
        <time>2022-09-29T08:52:10Z</time>
      </trkpt>
      <trkpt lat="44.4283" lon="5.22198">
        <ele>425</ele>
        <time>2022-09-29T08:52:11Z</time>
      </trkpt>
      <trkpt lat="44.4283" lon="5.22197">
        <ele>425</ele>
        <time>2022-09-29T08:52:12Z</time>
      </trkpt>
      <trkpt lat="44.42829" lon="5.22196">
        <ele>425</ele>
        <time>2022-09-29T08:52:13Z</time>
      </trkpt>
      <trkpt lat="44.42828" lon="5.22195">
        <ele>425</ele>
        <time>2022-09-29T08:52:14Z</time>
      </trkpt>
      <trkpt lat="44.42827" lon="5.22194">
        <ele>425</ele>
        <time>2022-09-29T08:52:15Z</time>
      </trkpt>
      <trkpt lat="44.42827" lon="5.22192">
        <ele>425</ele>
        <time>2022-09-29T08:52:16Z</time>
      </trkpt>
      <trkpt lat="44.42826" lon="5.22191">
        <ele>425</ele>
        <time>2022-09-29T08:52:17Z</time>
      </trkpt>
      <trkpt lat="44.42826" lon="5.2219">
        <ele>425</ele>
        <time>2022-09-29T08:52:18Z</time>
      </trkpt>
      <trkpt lat="44.42825" lon="5.22189">
        <ele>426</ele>
        <time>2022-09-29T08:52:19Z</time>
      </trkpt>
      <trkpt lat="44.42824" lon="5.22187">
        <ele>426</ele>
        <time>2022-09-29T08:52:20Z</time>
      </trkpt>
      <trkpt lat="44.42824" lon="5.22186">
        <ele>426</ele>
        <time>2022-09-29T08:52:21Z</time>
      </trkpt>
      <trkpt lat="44.42823" lon="5.22185">
        <ele>426</ele>
        <time>2022-09-29T08:52:22Z</time>
      </trkpt>
      <trkpt lat="44.42823" lon="5.22184">
        <ele>426</ele>
        <time>2022-09-29T08:52:23Z</time>
      </trkpt>
      <trkpt lat="44.42822" lon="5.22182">
        <ele>426</ele>
        <time>2022-09-29T08:52:24Z</time>
      </trkpt>
      <trkpt lat="44.42822" lon="5.22181">
        <ele>426</ele>
        <time>2022-09-29T08:52:25Z</time>
      </trkpt>
      <trkpt lat="44.42821" lon="5.2218">
        <ele>426</ele>
        <time>2022-09-29T08:52:26Z</time>
      </trkpt>
      <trkpt lat="44.42821" lon="5.22179">
        <ele>426</ele>
        <time>2022-09-29T08:52:27Z</time>
      </trkpt>
      <trkpt lat="44.4282" lon="5.22177">
        <ele>426</ele>
        <time>2022-09-29T08:52:28Z</time>
      </trkpt>
      <trkpt lat="44.4282" lon="5.22176">
        <ele>426</ele>
        <time>2022-09-29T08:52:29Z</time>
      </trkpt>
      <trkpt lat="44.4282" lon="5.22175">
        <ele>426</ele>
        <time>2022-09-29T08:52:30Z</time>
      </trkpt>
      <trkpt lat="44.42819" lon="5.22173">
        <ele>426</ele>
        <time>2022-09-29T08:52:31Z</time>
      </trkpt>
      <trkpt lat="44.42819" lon="5.22172">
        <ele>426</ele>
        <time>2022-09-29T08:52:32Z</time>
      </trkpt>
      <trkpt lat="44.42819" lon="5.22171">
        <ele>426</ele>
        <time>2022-09-29T08:52:33Z</time>
      </trkpt>
      <trkpt lat="44.42818" lon="5.2217">
        <ele>427</ele>
        <time>2022-09-29T08:52:34Z</time>
      </trkpt>
      <trkpt lat="44.42818" lon="5.22168">
        <ele>427</ele>
        <time>2022-09-29T08:52:35Z</time>
      </trkpt>
      <trkpt lat="44.42818" lon="5.22167">
        <ele>427</ele>
        <time>2022-09-29T08:52:36Z</time>
      </trkpt>
      <trkpt lat="44.42818" lon="5.22165">
        <ele>427</ele>
        <time>2022-09-29T08:52:37Z</time>
      </trkpt>
      <trkpt lat="44.42818" lon="5.22164">
        <ele>427</ele>
        <time>2022-09-29T08:52:38Z</time>
      </trkpt>
      <trkpt lat="44.42817" lon="5.22163">
        <ele>427</ele>
        <time>2022-09-29T08:52:39Z</time>
      </trkpt>
      <trkpt lat="44.42817" lon="5.22161">
        <ele>427</ele>
        <time>2022-09-29T08:52:40Z</time>
      </trkpt>
      <trkpt lat="44.42817" lon="5.2216">
        <ele>427</ele>
        <time>2022-09-29T08:52:41Z</time>
      </trkpt>
      <trkpt lat="44.42817" lon="5.22158">
        <ele>427</ele>
        <time>2022-09-29T08:52:42Z</time>
      </trkpt>
      <trkpt lat="44.42817" lon="5.22157">
        <ele>427</ele>
        <time>2022-09-29T08:52:43Z</time>
      </trkpt>
      <trkpt lat="44.42817" lon="5.22156">
        <ele>428</ele>
        <time>2022-09-29T08:52:44Z</time>
      </trkpt>
      <trkpt lat="44.42817" lon="5.22155">
        <ele>428</ele>
        <time>2022-09-29T08:52:45Z</time>
      </trkpt>
      <trkpt lat="44.42818" lon="5.22153">
        <ele>428</ele>
        <time>2022-09-29T08:52:46Z</time>
      </trkpt>
      <trkpt lat="44.42818" lon="5.22152">
        <ele>428</ele>
        <time>2022-09-29T08:52:47Z</time>
      </trkpt>
      <trkpt lat="44.42818" lon="5.22151">
        <ele>428</ele>
        <time>2022-09-29T08:52:48Z</time>
      </trkpt>
      <trkpt lat="44.42818" lon="5.22149">
        <ele>428</ele>
        <time>2022-09-29T08:52:49Z</time>
      </trkpt>
      <trkpt lat="44.42818" lon="5.22148">
        <ele>428</ele>
        <time>2022-09-29T08:52:50Z</time>
      </trkpt>
      <trkpt lat="44.42818" lon="5.22146">
        <ele>428</ele>
        <time>2022-09-29T08:52:51Z</time>
      </trkpt>
      <trkpt lat="44.42818" lon="5.22145">
        <ele>428</ele>
        <time>2022-09-29T08:52:52Z</time>
      </trkpt>
      <trkpt lat="44.42817" lon="5.22143">
        <ele>428</ele>
        <time>2022-09-29T08:52:53Z</time>
      </trkpt>
      <trkpt lat="44.42817" lon="5.22142">
        <ele>429</ele>
        <time>2022-09-29T08:52:54Z</time>
      </trkpt>
      <trkpt lat="44.42817" lon="5.2214">
        <ele>429</ele>
        <time>2022-09-29T08:52:55Z</time>
      </trkpt>
      <trkpt lat="44.42817" lon="5.22138">
        <ele>429</ele>
        <time>2022-09-29T08:52:56Z</time>
      </trkpt>
      <trkpt lat="44.42817" lon="5.22137">
        <ele>429</ele>
        <time>2022-09-29T08:52:57Z</time>
      </trkpt>
      <trkpt lat="44.42817" lon="5.22136">
        <ele>429</ele>
        <time>2022-09-29T08:52:58Z</time>
      </trkpt>
      <trkpt lat="44.42816" lon="5.22134">
        <ele>429</ele>
        <time>2022-09-29T08:52:59Z</time>
      </trkpt>
      <trkpt lat="44.42816" lon="5.22133">
        <ele>429</ele>
        <time>2022-09-29T08:53:00Z</time>
      </trkpt>
      <trkpt lat="44.42816" lon="5.22132">
        <ele>429</ele>
        <time>2022-09-29T08:53:01Z</time>
      </trkpt>
      <trkpt lat="44.42816" lon="5.22131">
        <ele>429</ele>
        <time>2022-09-29T08:53:02Z</time>
      </trkpt>
      <trkpt lat="44.42815" lon="5.2213">
        <ele>429</ele>
        <time>2022-09-29T08:53:03Z</time>
      </trkpt>
      <trkpt lat="44.42815" lon="5.22129">
        <ele>430</ele>
        <time>2022-09-29T08:53:04Z</time>
      </trkpt>
      <trkpt lat="44.42815" lon="5.22128">
        <ele>430</ele>
        <time>2022-09-29T08:53:05Z</time>
      </trkpt>
      <trkpt lat="44.42814" lon="5.22127">
        <ele>430</ele>
        <time>2022-09-29T08:53:06Z</time>
      </trkpt>
      <trkpt lat="44.42814" lon="5.22126">
        <ele>430</ele>
        <time>2022-09-29T08:53:07Z</time>
      </trkpt>
      <trkpt lat="44.42814" lon="5.22125">
        <ele>430</ele>
        <time>2022-09-29T08:53:08Z</time>
      </trkpt>
      <trkpt lat="44.42813" lon="5.22123">
        <ele>430</ele>
        <time>2022-09-29T08:53:09Z</time>
      </trkpt>
      <trkpt lat="44.42813" lon="5.22122">
        <ele>430</ele>
        <time>2022-09-29T08:53:10Z</time>
      </trkpt>
      <trkpt lat="44.42813" lon="5.22121">
        <ele>430</ele>
        <time>2022-09-29T08:53:11Z</time>
      </trkpt>
      <trkpt lat="44.42812" lon="5.22119">
        <ele>430</ele>
        <time>2022-09-29T08:53:12Z</time>
      </trkpt>
      <trkpt lat="44.42812" lon="5.22118">
        <ele>430</ele>
        <time>2022-09-29T08:53:13Z</time>
      </trkpt>
      <trkpt lat="44.42812" lon="5.22117">
        <ele>431</ele>
        <time>2022-09-29T08:53:14Z</time>
      </trkpt>
      <trkpt lat="44.42812" lon="5.22115">
        <ele>431</ele>
        <time>2022-09-29T08:53:15Z</time>
      </trkpt>
      <trkpt lat="44.42811" lon="5.22114">
        <ele>431</ele>
        <time>2022-09-29T08:53:16Z</time>
      </trkpt>
      <trkpt lat="44.42811" lon="5.22113">
        <ele>431</ele>
        <time>2022-09-29T08:53:17Z</time>
      </trkpt>
      <trkpt lat="44.42811" lon="5.22111">
        <ele>431</ele>
        <time>2022-09-29T08:53:18Z</time>
      </trkpt>
      <trkpt lat="44.42811" lon="5.2211">
        <ele>431</ele>
        <time>2022-09-29T08:53:19Z</time>
      </trkpt>
      <trkpt lat="44.42811" lon="5.22109">
        <ele>431</ele>
        <time>2022-09-29T08:53:20Z</time>
      </trkpt>
      <trkpt lat="44.42811" lon="5.22107">
        <ele>431</ele>
        <time>2022-09-29T08:53:21Z</time>
      </trkpt>
      <trkpt lat="44.42811" lon="5.22106">
        <ele>431</ele>
        <time>2022-09-29T08:53:22Z</time>
      </trkpt>
      <trkpt lat="44.4281" lon="5.22105">
        <ele>431</ele>
        <time>2022-09-29T08:53:23Z</time>
      </trkpt>
      <trkpt lat="44.4281" lon="5.22104">
        <ele>431</ele>
        <time>2022-09-29T08:53:24Z</time>
      </trkpt>
      <trkpt lat="44.42809" lon="5.22103">
        <ele>431</ele>
        <time>2022-09-29T08:53:25Z</time>
      </trkpt>
      <trkpt lat="44.42809" lon="5.22102">
        <ele>431</ele>
        <time>2022-09-29T08:53:26Z</time>
      </trkpt>
      <trkpt lat="44.42809" lon="5.22101">
        <ele>431</ele>
        <time>2022-09-29T08:53:27Z</time>
      </trkpt>
      <trkpt lat="44.42808" lon="5.22099">
        <ele>431</ele>
        <time>2022-09-29T08:53:28Z</time>
      </trkpt>
      <trkpt lat="44.42808" lon="5.22098">
        <ele>432</ele>
        <time>2022-09-29T08:53:29Z</time>
      </trkpt>
      <trkpt lat="44.42808" lon="5.22097">
        <ele>432</ele>
        <time>2022-09-29T08:53:30Z</time>
      </trkpt>
      <trkpt lat="44.42808" lon="5.22096">
        <ele>432</ele>
        <time>2022-09-29T08:53:31Z</time>
      </trkpt>
      <trkpt lat="44.42807" lon="5.22095">
        <ele>432</ele>
        <time>2022-09-29T08:53:32Z</time>
      </trkpt>
      <trkpt lat="44.42807" lon="5.22094">
        <ele>432</ele>
        <time>2022-09-29T08:53:33Z</time>
      </trkpt>
      <trkpt lat="44.42807" lon="5.22092">
        <ele>432</ele>
        <time>2022-09-29T08:53:34Z</time>
      </trkpt>
      <trkpt lat="44.42807" lon="5.22091">
        <ele>432</ele>
        <time>2022-09-29T08:53:35Z</time>
      </trkpt>
      <trkpt lat="44.42807" lon="5.2209">
        <ele>432</ele>
        <time>2022-09-29T08:53:36Z</time>
      </trkpt>
      <trkpt lat="44.42806" lon="5.22089">
        <ele>432</ele>
        <time>2022-09-29T08:53:37Z</time>
      </trkpt>
      <trkpt lat="44.42806" lon="5.22088">
        <ele>432</ele>
        <time>2022-09-29T08:53:38Z</time>
      </trkpt>
      <trkpt lat="44.42806" lon="5.22087">
        <ele>433</ele>
        <time>2022-09-29T08:53:39Z</time>
      </trkpt>
      <trkpt lat="44.42806" lon="5.22086">
        <ele>433</ele>
        <time>2022-09-29T08:53:40Z</time>
      </trkpt>
      <trkpt lat="44.42805" lon="5.22084">
        <ele>433</ele>
        <time>2022-09-29T08:53:41Z</time>
      </trkpt>
      <trkpt lat="44.42805" lon="5.22083">
        <ele>433</ele>
        <time>2022-09-29T08:53:42Z</time>
      </trkpt>
      <trkpt lat="44.42805" lon="5.22082">
        <ele>433</ele>
        <time>2022-09-29T08:53:43Z</time>
      </trkpt>
      <trkpt lat="44.42804" lon="5.22081">
        <ele>433</ele>
        <time>2022-09-29T08:53:44Z</time>
      </trkpt>
      <trkpt lat="44.42804" lon="5.2208">
        <ele>433</ele>
        <time>2022-09-29T08:53:45Z</time>
      </trkpt>
      <trkpt lat="44.42803" lon="5.22079">
        <ele>433</ele>
        <time>2022-09-29T08:53:46Z</time>
      </trkpt>
      <trkpt lat="44.42803" lon="5.22078">
        <ele>433</ele>
        <time>2022-09-29T08:53:47Z</time>
      </trkpt>
      <trkpt lat="44.42803" lon="5.22077">
        <ele>433</ele>
        <time>2022-09-29T08:53:48Z</time>
      </trkpt>
      <trkpt lat="44.42802" lon="5.22075">
        <ele>434</ele>
        <time>2022-09-29T08:53:49Z</time>
      </trkpt>
      <trkpt lat="44.42802" lon="5.22074">
        <ele>434</ele>
        <time>2022-09-29T08:53:50Z</time>
      </trkpt>
      <trkpt lat="44.42801" lon="5.22073">
        <ele>434</ele>
        <time>2022-09-29T08:53:51Z</time>
      </trkpt>
      <trkpt lat="44.428" lon="5.22072">
        <ele>434</ele>
        <time>2022-09-29T08:53:52Z</time>
      </trkpt>
      <trkpt lat="44.42799" lon="5.22071">
        <ele>434</ele>
        <time>2022-09-29T08:53:53Z</time>
      </trkpt>
      <trkpt lat="44.42799" lon="5.2207">
        <ele>434</ele>
        <time>2022-09-29T08:53:54Z</time>
      </trkpt>
      <trkpt lat="44.42798" lon="5.22068">
        <ele>434</ele>
        <time>2022-09-29T08:53:55Z</time>
      </trkpt>
      <trkpt lat="44.42797" lon="5.22067">
        <ele>434</ele>
        <time>2022-09-29T08:53:56Z</time>
      </trkpt>
      <trkpt lat="44.42796" lon="5.22066">
        <ele>434</ele>
        <time>2022-09-29T08:53:57Z</time>
      </trkpt>
      <trkpt lat="44.42795" lon="5.22064">
        <ele>434</ele>
        <time>2022-09-29T08:53:58Z</time>
      </trkpt>
      <trkpt lat="44.42795" lon="5.22063">
        <ele>434</ele>
        <time>2022-09-29T08:53:59Z</time>
      </trkpt>
      <trkpt lat="44.42794" lon="5.22062">
        <ele>434</ele>
        <time>2022-09-29T08:54:00Z</time>
      </trkpt>
      <trkpt lat="44.42793" lon="5.22061">
        <ele>434</ele>
        <time>2022-09-29T08:54:01Z</time>
      </trkpt>
      <trkpt lat="44.42793" lon="5.2206">
        <ele>434</ele>
        <time>2022-09-29T08:54:02Z</time>
      </trkpt>
      <trkpt lat="44.42792" lon="5.22059">
        <ele>434</ele>
        <time>2022-09-29T08:54:03Z</time>
      </trkpt>
      <trkpt lat="44.42791" lon="5.22058">
        <ele>435</ele>
        <time>2022-09-29T08:54:04Z</time>
      </trkpt>
      <trkpt lat="44.42791" lon="5.22057">
        <ele>435</ele>
        <time>2022-09-29T08:54:05Z</time>
      </trkpt>
      <trkpt lat="44.4279" lon="5.22055">
        <ele>435</ele>
        <time>2022-09-29T08:54:06Z</time>
      </trkpt>
      <trkpt lat="44.4279" lon="5.22054">
        <ele>435</ele>
        <time>2022-09-29T08:54:07Z</time>
      </trkpt>
      <trkpt lat="44.42789" lon="5.22053">
        <ele>435</ele>
        <time>2022-09-29T08:54:08Z</time>
      </trkpt>
      <trkpt lat="44.42788" lon="5.22052">
        <ele>435</ele>
        <time>2022-09-29T08:54:09Z</time>
      </trkpt>
      <trkpt lat="44.42788" lon="5.22051">
        <ele>435</ele>
        <time>2022-09-29T08:54:10Z</time>
      </trkpt>
      <trkpt lat="44.42788" lon="5.22051">
        <ele>435</ele>
        <time>2022-09-29T08:54:11Z</time>
      </trkpt>
      <trkpt lat="44.42787" lon="5.2205">
        <ele>435</ele>
        <time>2022-09-29T08:54:12Z</time>
      </trkpt>
      <trkpt lat="44.42787" lon="5.22049">
        <ele>435</ele>
        <time>2022-09-29T08:54:13Z</time>
      </trkpt>
      <trkpt lat="44.42787" lon="5.22049">
        <ele>436</ele>
        <time>2022-09-29T08:54:14Z</time>
      </trkpt>
      <trkpt lat="44.42786" lon="5.22048">
        <ele>436</ele>
        <time>2022-09-29T08:54:15Z</time>
      </trkpt>
      <trkpt lat="44.42786" lon="5.22046">
        <ele>436</ele>
        <time>2022-09-29T08:54:16Z</time>
      </trkpt>
      <trkpt lat="44.42785" lon="5.22045">
        <ele>436</ele>
        <time>2022-09-29T08:54:17Z</time>
      </trkpt>
      <trkpt lat="44.42785" lon="5.22044">
        <ele>436</ele>
        <time>2022-09-29T08:54:18Z</time>
      </trkpt>
      <trkpt lat="44.42784" lon="5.22043">
        <ele>436</ele>
        <time>2022-09-29T08:54:19Z</time>
      </trkpt>
      <trkpt lat="44.42784" lon="5.22042">
        <ele>436</ele>
        <time>2022-09-29T08:54:20Z</time>
      </trkpt>
      <trkpt lat="44.42783" lon="5.22041">
        <ele>436</ele>
        <time>2022-09-29T08:54:21Z</time>
      </trkpt>
      <trkpt lat="44.42782" lon="5.2204">
        <ele>436</ele>
        <time>2022-09-29T08:54:22Z</time>
      </trkpt>
      <trkpt lat="44.42782" lon="5.22039">
        <ele>436</ele>
        <time>2022-09-29T08:54:23Z</time>
      </trkpt>
      <trkpt lat="44.42781" lon="5.22037">
        <ele>436</ele>
        <time>2022-09-29T08:54:24Z</time>
      </trkpt>
      <trkpt lat="44.42781" lon="5.22036">
        <ele>436</ele>
        <time>2022-09-29T08:54:25Z</time>
      </trkpt>
      <trkpt lat="44.42781" lon="5.22035">
        <ele>436</ele>
        <time>2022-09-29T08:54:26Z</time>
      </trkpt>
      <trkpt lat="44.42781" lon="5.22034">
        <ele>436</ele>
        <time>2022-09-29T08:54:27Z</time>
      </trkpt>
      <trkpt lat="44.42781" lon="5.22032">
        <ele>436</ele>
        <time>2022-09-29T08:54:28Z</time>
      </trkpt>
      <trkpt lat="44.42781" lon="5.22031">
        <ele>437</ele>
        <time>2022-09-29T08:54:29Z</time>
      </trkpt>
      <trkpt lat="44.42781" lon="5.2203">
        <ele>437</ele>
        <time>2022-09-29T08:54:30Z</time>
      </trkpt>
      <trkpt lat="44.42781" lon="5.22029">
        <ele>437</ele>
        <time>2022-09-29T08:54:31Z</time>
      </trkpt>
      <trkpt lat="44.42781" lon="5.22027">
        <ele>437</ele>
        <time>2022-09-29T08:54:32Z</time>
      </trkpt>
      <trkpt lat="44.42781" lon="5.22026">
        <ele>437</ele>
        <time>2022-09-29T08:54:33Z</time>
      </trkpt>
      <trkpt lat="44.42781" lon="5.22025">
        <ele>438</ele>
        <time>2022-09-29T08:54:34Z</time>
      </trkpt>
      <trkpt lat="44.42781" lon="5.22023">
        <ele>438</ele>
        <time>2022-09-29T08:54:35Z</time>
      </trkpt>
      <trkpt lat="44.4278" lon="5.22022">
        <ele>438</ele>
        <time>2022-09-29T08:54:36Z</time>
      </trkpt>
      <trkpt lat="44.4278" lon="5.22021">
        <ele>438</ele>
        <time>2022-09-29T08:54:37Z</time>
      </trkpt>
      <trkpt lat="44.4278" lon="5.22019">
        <ele>438</ele>
        <time>2022-09-29T08:54:38Z</time>
      </trkpt>
      <trkpt lat="44.42781" lon="5.22018">
        <ele>438</ele>
        <time>2022-09-29T08:54:39Z</time>
      </trkpt>
      <trkpt lat="44.42781" lon="5.22016">
        <ele>438</ele>
        <time>2022-09-29T08:54:40Z</time>
      </trkpt>
      <trkpt lat="44.42781" lon="5.22015">
        <ele>438</ele>
        <time>2022-09-29T08:54:41Z</time>
      </trkpt>
      <trkpt lat="44.42781" lon="5.22014">
        <ele>438</ele>
        <time>2022-09-29T08:54:42Z</time>
      </trkpt>
      <trkpt lat="44.42781" lon="5.22012">
        <ele>438</ele>
        <time>2022-09-29T08:54:43Z</time>
      </trkpt>
      <trkpt lat="44.42782" lon="5.22011">
        <ele>438</ele>
        <time>2022-09-29T08:54:44Z</time>
      </trkpt>
      <trkpt lat="44.42782" lon="5.22009">
        <ele>438</ele>
        <time>2022-09-29T08:54:45Z</time>
      </trkpt>
      <trkpt lat="44.42782" lon="5.22008">
        <ele>438</ele>
        <time>2022-09-29T08:54:46Z</time>
      </trkpt>
      <trkpt lat="44.42782" lon="5.22006">
        <ele>438</ele>
        <time>2022-09-29T08:54:47Z</time>
      </trkpt>
      <trkpt lat="44.42782" lon="5.22005">
        <ele>438</ele>
        <time>2022-09-29T08:54:48Z</time>
      </trkpt>
      <trkpt lat="44.42781" lon="5.22004">
        <ele>439</ele>
        <time>2022-09-29T08:54:49Z</time>
      </trkpt>
      <trkpt lat="44.42781" lon="5.22002">
        <ele>439</ele>
        <time>2022-09-29T08:54:50Z</time>
      </trkpt>
      <trkpt lat="44.42781" lon="5.22001">
        <ele>439</ele>
        <time>2022-09-29T08:54:51Z</time>
      </trkpt>
      <trkpt lat="44.42781" lon="5.22">
        <ele>439</ele>
        <time>2022-09-29T08:54:52Z</time>
      </trkpt>
      <trkpt lat="44.42781" lon="5.21998">
        <ele>439</ele>
        <time>2022-09-29T08:54:53Z</time>
      </trkpt>
      <trkpt lat="44.42781" lon="5.21997">
        <ele>439</ele>
        <time>2022-09-29T08:54:54Z</time>
      </trkpt>
      <trkpt lat="44.42781" lon="5.21996">
        <ele>439</ele>
        <time>2022-09-29T08:54:55Z</time>
      </trkpt>
      <trkpt lat="44.4278" lon="5.21994">
        <ele>439</ele>
        <time>2022-09-29T08:54:56Z</time>
      </trkpt>
      <trkpt lat="44.4278" lon="5.21993">
        <ele>439</ele>
        <time>2022-09-29T08:54:57Z</time>
      </trkpt>
      <trkpt lat="44.4278" lon="5.21992">
        <ele>439</ele>
        <time>2022-09-29T08:54:58Z</time>
      </trkpt>
      <trkpt lat="44.4278" lon="5.21991">
        <ele>439</ele>
        <time>2022-09-29T08:54:59Z</time>
      </trkpt>
      <trkpt lat="44.4278" lon="5.2199">
        <ele>439</ele>
        <time>2022-09-29T08:55:00Z</time>
      </trkpt>
      <trkpt lat="44.4278" lon="5.21989">
        <ele>439</ele>
        <time>2022-09-29T08:55:01Z</time>
      </trkpt>
      <trkpt lat="44.4278" lon="5.21988">
        <ele>439</ele>
        <time>2022-09-29T08:55:02Z</time>
      </trkpt>
      <trkpt lat="44.4278" lon="5.21986">
        <ele>439</ele>
        <time>2022-09-29T08:55:03Z</time>
      </trkpt>
      <trkpt lat="44.4278" lon="5.21985">
        <ele>440</ele>
        <time>2022-09-29T08:55:04Z</time>
      </trkpt>
      <trkpt lat="44.4278" lon="5.21984">
        <ele>440</ele>
        <time>2022-09-29T08:55:05Z</time>
      </trkpt>
      <trkpt lat="44.42779" lon="5.21982">
        <ele>440</ele>
        <time>2022-09-29T08:55:06Z</time>
      </trkpt>
      <trkpt lat="44.42779" lon="5.21981">
        <ele>440</ele>
        <time>2022-09-29T08:55:07Z</time>
      </trkpt>
      <trkpt lat="44.42779" lon="5.21979">
        <ele>440</ele>
        <time>2022-09-29T08:55:08Z</time>
      </trkpt>
      <trkpt lat="44.42778" lon="5.21978">
        <ele>440</ele>
        <time>2022-09-29T08:55:09Z</time>
      </trkpt>
      <trkpt lat="44.42778" lon="5.21977">
        <ele>440</ele>
        <time>2022-09-29T08:55:10Z</time>
      </trkpt>
      <trkpt lat="44.42778" lon="5.21976">
        <ele>440</ele>
        <time>2022-09-29T08:55:11Z</time>
      </trkpt>
      <trkpt lat="44.42777" lon="5.21975">
        <ele>440</ele>
        <time>2022-09-29T08:55:12Z</time>
      </trkpt>
      <trkpt lat="44.42777" lon="5.21974">
        <ele>440</ele>
        <time>2022-09-29T08:55:13Z</time>
      </trkpt>
      <trkpt lat="44.42776" lon="5.21974">
        <ele>441</ele>
        <time>2022-09-29T08:55:14Z</time>
      </trkpt>
      <trkpt lat="44.42775" lon="5.21973">
        <ele>441</ele>
        <time>2022-09-29T08:55:15Z</time>
      </trkpt>
      <trkpt lat="44.42775" lon="5.21973">
        <ele>441</ele>
        <time>2022-09-29T08:55:16Z</time>
      </trkpt>
      <trkpt lat="44.42774" lon="5.21973">
        <ele>441</ele>
        <time>2022-09-29T08:55:17Z</time>
      </trkpt>
      <trkpt lat="44.42773" lon="5.21974">
        <ele>441</ele>
        <time>2022-09-29T08:55:18Z</time>
      </trkpt>
      <trkpt lat="44.42773" lon="5.21974">
        <ele>441</ele>
        <time>2022-09-29T08:55:19Z</time>
      </trkpt>
      <trkpt lat="44.42772" lon="5.21975">
        <ele>441</ele>
        <time>2022-09-29T08:55:20Z</time>
      </trkpt>
      <trkpt lat="44.42772" lon="5.21976">
        <ele>441</ele>
        <time>2022-09-29T08:55:21Z</time>
      </trkpt>
      <trkpt lat="44.42771" lon="5.21977">
        <ele>441</ele>
        <time>2022-09-29T08:55:22Z</time>
      </trkpt>
      <trkpt lat="44.42771" lon="5.21978">
        <ele>441</ele>
        <time>2022-09-29T08:55:23Z</time>
      </trkpt>
      <trkpt lat="44.42771" lon="5.21979">
        <ele>442</ele>
        <time>2022-09-29T08:55:24Z</time>
      </trkpt>
      <trkpt lat="44.42771" lon="5.2198">
        <ele>442</ele>
        <time>2022-09-29T08:55:25Z</time>
      </trkpt>
      <trkpt lat="44.42771" lon="5.21981">
        <ele>442</ele>
        <time>2022-09-29T08:55:26Z</time>
      </trkpt>
      <trkpt lat="44.42771" lon="5.21982">
        <ele>442</ele>
        <time>2022-09-29T08:55:27Z</time>
      </trkpt>
      <trkpt lat="44.42771" lon="5.21984">
        <ele>442</ele>
        <time>2022-09-29T08:55:28Z</time>
      </trkpt>
      <trkpt lat="44.42771" lon="5.21985">
        <ele>442</ele>
        <time>2022-09-29T08:55:29Z</time>
      </trkpt>
      <trkpt lat="44.42771" lon="5.21986">
        <ele>442</ele>
        <time>2022-09-29T08:55:30Z</time>
      </trkpt>
      <trkpt lat="44.42771" lon="5.21987">
        <ele>442</ele>
        <time>2022-09-29T08:55:31Z</time>
      </trkpt>
      <trkpt lat="44.42771" lon="5.21988">
        <ele>442</ele>
        <time>2022-09-29T08:55:32Z</time>
      </trkpt>
      <trkpt lat="44.42771" lon="5.2199">
        <ele>442</ele>
        <time>2022-09-29T08:55:33Z</time>
      </trkpt>
      <trkpt lat="44.42771" lon="5.21991">
        <ele>443</ele>
        <time>2022-09-29T08:55:34Z</time>
      </trkpt>
      <trkpt lat="44.42771" lon="5.21992">
        <ele>443</ele>
        <time>2022-09-29T08:55:35Z</time>
      </trkpt>
      <trkpt lat="44.42771" lon="5.21993">
        <ele>443</ele>
        <time>2022-09-29T08:55:36Z</time>
      </trkpt>
      <trkpt lat="44.42771" lon="5.21994">
        <ele>443</ele>
        <time>2022-09-29T08:55:37Z</time>
      </trkpt>
      <trkpt lat="44.42771" lon="5.21996">
        <ele>443</ele>
        <time>2022-09-29T08:55:38Z</time>
      </trkpt>
      <trkpt lat="44.42771" lon="5.21997">
        <ele>443</ele>
        <time>2022-09-29T08:55:39Z</time>
      </trkpt>
      <trkpt lat="44.42771" lon="5.21998">
        <ele>443</ele>
        <time>2022-09-29T08:55:40Z</time>
      </trkpt>
      <trkpt lat="44.42771" lon="5.21999">
        <ele>443</ele>
        <time>2022-09-29T08:55:41Z</time>
      </trkpt>
      <trkpt lat="44.42771" lon="5.22">
        <ele>443</ele>
        <time>2022-09-29T08:55:42Z</time>
      </trkpt>
      <trkpt lat="44.42771" lon="5.22001">
        <ele>443</ele>
        <time>2022-09-29T08:55:43Z</time>
      </trkpt>
      <trkpt lat="44.42771" lon="5.22003">
        <ele>444</ele>
        <time>2022-09-29T08:55:44Z</time>
      </trkpt>
      <trkpt lat="44.42771" lon="5.22004">
        <ele>444</ele>
        <time>2022-09-29T08:55:45Z</time>
      </trkpt>
      <trkpt lat="44.42771" lon="5.22005">
        <ele>444</ele>
        <time>2022-09-29T08:55:46Z</time>
      </trkpt>
      <trkpt lat="44.4277" lon="5.22007">
        <ele>444</ele>
        <time>2022-09-29T08:55:47Z</time>
      </trkpt>
      <trkpt lat="44.4277" lon="5.22008">
        <ele>444</ele>
        <time>2022-09-29T08:55:48Z</time>
      </trkpt>
      <trkpt lat="44.4277" lon="5.22009">
        <ele>444</ele>
        <time>2022-09-29T08:55:49Z</time>
      </trkpt>
      <trkpt lat="44.4277" lon="5.22011">
        <ele>444</ele>
        <time>2022-09-29T08:55:50Z</time>
      </trkpt>
      <trkpt lat="44.4277" lon="5.22012">
        <ele>444</ele>
        <time>2022-09-29T08:55:51Z</time>
      </trkpt>
      <trkpt lat="44.4277" lon="5.22013">
        <ele>444</ele>
        <time>2022-09-29T08:55:52Z</time>
      </trkpt>
      <trkpt lat="44.42769" lon="5.22015">
        <ele>444</ele>
        <time>2022-09-29T08:55:53Z</time>
      </trkpt>
      <trkpt lat="44.42769" lon="5.22016">
        <ele>445</ele>
        <time>2022-09-29T08:55:54Z</time>
      </trkpt>
      <trkpt lat="44.42769" lon="5.22017">
        <ele>445</ele>
        <time>2022-09-29T08:55:55Z</time>
      </trkpt>
      <trkpt lat="44.42768" lon="5.22018">
        <ele>445</ele>
        <time>2022-09-29T08:55:56Z</time>
      </trkpt>
      <trkpt lat="44.42768" lon="5.22019">
        <ele>445</ele>
        <time>2022-09-29T08:55:57Z</time>
      </trkpt>
      <trkpt lat="44.42768" lon="5.2202">
        <ele>445</ele>
        <time>2022-09-29T08:55:58Z</time>
      </trkpt>
      <trkpt lat="44.42767" lon="5.22022">
        <ele>445</ele>
        <time>2022-09-29T08:55:59Z</time>
      </trkpt>
      <trkpt lat="44.42767" lon="5.22023">
        <ele>445</ele>
        <time>2022-09-29T08:56:00Z</time>
      </trkpt>
      <trkpt lat="44.42767" lon="5.22024">
        <ele>445</ele>
        <time>2022-09-29T08:56:01Z</time>
      </trkpt>
      <trkpt lat="44.42767" lon="5.22025">
        <ele>445</ele>
        <time>2022-09-29T08:56:02Z</time>
      </trkpt>
      <trkpt lat="44.42767" lon="5.22026">
        <ele>445</ele>
        <time>2022-09-29T08:56:03Z</time>
      </trkpt>
      <trkpt lat="44.42767" lon="5.22027">
        <ele>446</ele>
        <time>2022-09-29T08:56:04Z</time>
      </trkpt>
      <trkpt lat="44.42767" lon="5.22029">
        <ele>446</ele>
        <time>2022-09-29T08:56:05Z</time>
      </trkpt>
      <trkpt lat="44.42767" lon="5.2203">
        <ele>446</ele>
        <time>2022-09-29T08:56:06Z</time>
      </trkpt>
      <trkpt lat="44.42767" lon="5.22031">
        <ele>446</ele>
        <time>2022-09-29T08:56:07Z</time>
      </trkpt>
      <trkpt lat="44.42767" lon="5.22032">
        <ele>446</ele>
        <time>2022-09-29T08:56:08Z</time>
      </trkpt>
      <trkpt lat="44.42767" lon="5.22034">
        <ele>446</ele>
        <time>2022-09-29T08:56:09Z</time>
      </trkpt>
      <trkpt lat="44.42767" lon="5.22035">
        <ele>446</ele>
        <time>2022-09-29T08:56:10Z</time>
      </trkpt>
      <trkpt lat="44.42767" lon="5.22036">
        <ele>446</ele>
        <time>2022-09-29T08:56:11Z</time>
      </trkpt>
      <trkpt lat="44.42767" lon="5.22037">
        <ele>446</ele>
        <time>2022-09-29T08:56:12Z</time>
      </trkpt>
      <trkpt lat="44.42767" lon="5.22039">
        <ele>446</ele>
        <time>2022-09-29T08:56:13Z</time>
      </trkpt>
      <trkpt lat="44.42767" lon="5.2204">
        <ele>446</ele>
        <time>2022-09-29T08:56:14Z</time>
      </trkpt>
      <trkpt lat="44.42768" lon="5.22041">
        <ele>446</ele>
        <time>2022-09-29T08:56:15Z</time>
      </trkpt>
      <trkpt lat="44.42768" lon="5.22042">
        <ele>446</ele>
        <time>2022-09-29T08:56:16Z</time>
      </trkpt>
      <trkpt lat="44.42768" lon="5.22044">
        <ele>446</ele>
        <time>2022-09-29T08:56:17Z</time>
      </trkpt>
      <trkpt lat="44.42769" lon="5.22045">
        <ele>446</ele>
        <time>2022-09-29T08:56:18Z</time>
      </trkpt>
      <trkpt lat="44.42769" lon="5.22046">
        <ele>447</ele>
        <time>2022-09-29T08:56:19Z</time>
      </trkpt>
      <trkpt lat="44.4277" lon="5.22048">
        <ele>447</ele>
        <time>2022-09-29T08:56:20Z</time>
      </trkpt>
      <trkpt lat="44.4277" lon="5.22049">
        <ele>447</ele>
        <time>2022-09-29T08:56:21Z</time>
      </trkpt>
      <trkpt lat="44.42771" lon="5.2205">
        <ele>447</ele>
        <time>2022-09-29T08:56:22Z</time>
      </trkpt>
      <trkpt lat="44.42771" lon="5.22052">
        <ele>447</ele>
        <time>2022-09-29T08:56:23Z</time>
      </trkpt>
      <trkpt lat="44.42771" lon="5.22053">
        <ele>447</ele>
        <time>2022-09-29T08:56:24Z</time>
      </trkpt>
      <trkpt lat="44.42771" lon="5.22054">
        <ele>447</ele>
        <time>2022-09-29T08:56:25Z</time>
      </trkpt>
      <trkpt lat="44.42771" lon="5.22055">
        <ele>447</ele>
        <time>2022-09-29T08:56:26Z</time>
      </trkpt>
      <trkpt lat="44.42771" lon="5.22057">
        <ele>447</ele>
        <time>2022-09-29T08:56:27Z</time>
      </trkpt>
      <trkpt lat="44.42771" lon="5.22058">
        <ele>447</ele>
        <time>2022-09-29T08:56:28Z</time>
      </trkpt>
      <trkpt lat="44.42772" lon="5.22059">
        <ele>447</ele>
        <time>2022-09-29T08:56:29Z</time>
      </trkpt>
      <trkpt lat="44.42772" lon="5.2206">
        <ele>447</ele>
        <time>2022-09-29T08:56:30Z</time>
      </trkpt>
      <trkpt lat="44.42773" lon="5.22061">
        <ele>447</ele>
        <time>2022-09-29T08:56:31Z</time>
      </trkpt>
      <trkpt lat="44.42773" lon="5.22062">
        <ele>447</ele>
        <time>2022-09-29T08:56:32Z</time>
      </trkpt>
      <trkpt lat="44.42774" lon="5.22063">
        <ele>447</ele>
        <time>2022-09-29T08:56:33Z</time>
      </trkpt>
      <trkpt lat="44.42775" lon="5.22064">
        <ele>448</ele>
        <time>2022-09-29T08:56:34Z</time>
      </trkpt>
      <trkpt lat="44.42775" lon="5.22066">
        <ele>448</ele>
        <time>2022-09-29T08:56:35Z</time>
      </trkpt>
      <trkpt lat="44.42776" lon="5.22067">
        <ele>448</ele>
        <time>2022-09-29T08:56:36Z</time>
      </trkpt>
      <trkpt lat="44.42776" lon="5.22068">
        <ele>448</ele>
        <time>2022-09-29T08:56:37Z</time>
      </trkpt>
      <trkpt lat="44.42776" lon="5.22069">
        <ele>448</ele>
        <time>2022-09-29T08:56:38Z</time>
      </trkpt>
      <trkpt lat="44.42776" lon="5.2207">
        <ele>448</ele>
        <time>2022-09-29T08:56:39Z</time>
      </trkpt>
      <trkpt lat="44.42776" lon="5.22071">
        <ele>448</ele>
        <time>2022-09-29T08:56:40Z</time>
      </trkpt>
      <trkpt lat="44.42776" lon="5.22072">
        <ele>448</ele>
        <time>2022-09-29T08:56:41Z</time>
      </trkpt>
      <trkpt lat="44.42776" lon="5.22074">
        <ele>448</ele>
        <time>2022-09-29T08:56:42Z</time>
      </trkpt>
      <trkpt lat="44.42776" lon="5.22075">
        <ele>448</ele>
        <time>2022-09-29T08:56:43Z</time>
      </trkpt>
      <trkpt lat="44.42776" lon="5.22077">
        <ele>449</ele>
        <time>2022-09-29T08:56:44Z</time>
      </trkpt>
      <trkpt lat="44.42776" lon="5.22078">
        <ele>449</ele>
        <time>2022-09-29T08:56:45Z</time>
      </trkpt>
      <trkpt lat="44.42777" lon="5.22079">
        <ele>449</ele>
        <time>2022-09-29T08:56:46Z</time>
      </trkpt>
      <trkpt lat="44.42777" lon="5.2208">
        <ele>449</ele>
        <time>2022-09-29T08:56:47Z</time>
      </trkpt>
      <trkpt lat="44.42777" lon="5.22082">
        <ele>449</ele>
        <time>2022-09-29T08:56:48Z</time>
      </trkpt>
      <trkpt lat="44.42778" lon="5.22083">
        <ele>449</ele>
        <time>2022-09-29T08:56:49Z</time>
      </trkpt>
      <trkpt lat="44.42778" lon="5.22084">
        <ele>449</ele>
        <time>2022-09-29T08:56:50Z</time>
      </trkpt>
      <trkpt lat="44.42778" lon="5.22085">
        <ele>449</ele>
        <time>2022-09-29T08:56:51Z</time>
      </trkpt>
      <trkpt lat="44.42778" lon="5.22086">
        <ele>449</ele>
        <time>2022-09-29T08:56:52Z</time>
      </trkpt>
      <trkpt lat="44.42778" lon="5.22087">
        <ele>449</ele>
        <time>2022-09-29T08:56:53Z</time>
      </trkpt>
      <trkpt lat="44.42778" lon="5.22088">
        <ele>450</ele>
        <time>2022-09-29T08:56:54Z</time>
      </trkpt>
      <trkpt lat="44.42778" lon="5.2209">
        <ele>450</ele>
        <time>2022-09-29T08:56:55Z</time>
      </trkpt>
      <trkpt lat="44.42778" lon="5.22091">
        <ele>450</ele>
        <time>2022-09-29T08:56:56Z</time>
      </trkpt>
      <trkpt lat="44.42778" lon="5.22092">
        <ele>450</ele>
        <time>2022-09-29T08:56:57Z</time>
      </trkpt>
      <trkpt lat="44.42778" lon="5.22094">
        <ele>450</ele>
        <time>2022-09-29T08:56:58Z</time>
      </trkpt>
      <trkpt lat="44.42778" lon="5.22095">
        <ele>450</ele>
        <time>2022-09-29T08:56:59Z</time>
      </trkpt>
      <trkpt lat="44.42778" lon="5.22096">
        <ele>450</ele>
        <time>2022-09-29T08:57:00Z</time>
      </trkpt>
      <trkpt lat="44.42778" lon="5.22097">
        <ele>450</ele>
        <time>2022-09-29T08:57:01Z</time>
      </trkpt>
      <trkpt lat="44.42778" lon="5.22099">
        <ele>450</ele>
        <time>2022-09-29T08:57:02Z</time>
      </trkpt>
      <trkpt lat="44.42778" lon="5.221">
        <ele>450</ele>
        <time>2022-09-29T08:57:03Z</time>
      </trkpt>
      <trkpt lat="44.42778" lon="5.22102">
        <ele>451</ele>
        <time>2022-09-29T08:57:04Z</time>
      </trkpt>
      <trkpt lat="44.42778" lon="5.22103">
        <ele>451</ele>
        <time>2022-09-29T08:57:05Z</time>
      </trkpt>
      <trkpt lat="44.42778" lon="5.22104">
        <ele>451</ele>
        <time>2022-09-29T08:57:06Z</time>
      </trkpt>
      <trkpt lat="44.42777" lon="5.22106">
        <ele>451</ele>
        <time>2022-09-29T08:57:07Z</time>
      </trkpt>
      <trkpt lat="44.42777" lon="5.22107">
        <ele>451</ele>
        <time>2022-09-29T08:57:08Z</time>
      </trkpt>
      <trkpt lat="44.42777" lon="5.22109">
        <ele>451</ele>
        <time>2022-09-29T08:57:09Z</time>
      </trkpt>
      <trkpt lat="44.42777" lon="5.2211">
        <ele>451</ele>
        <time>2022-09-29T08:57:10Z</time>
      </trkpt>
      <trkpt lat="44.42776" lon="5.22111">
        <ele>451</ele>
        <time>2022-09-29T08:57:11Z</time>
      </trkpt>
      <trkpt lat="44.42776" lon="5.22112">
        <ele>451</ele>
        <time>2022-09-29T08:57:12Z</time>
      </trkpt>
      <trkpt lat="44.42776" lon="5.22114">
        <ele>451</ele>
        <time>2022-09-29T08:57:13Z</time>
      </trkpt>
      <trkpt lat="44.42776" lon="5.22115">
        <ele>452</ele>
        <time>2022-09-29T08:57:14Z</time>
      </trkpt>
      <trkpt lat="44.42775" lon="5.22116">
        <ele>452</ele>
        <time>2022-09-29T08:57:15Z</time>
      </trkpt>
      <trkpt lat="44.42775" lon="5.22117">
        <ele>452</ele>
        <time>2022-09-29T08:57:16Z</time>
      </trkpt>
      <trkpt lat="44.42774" lon="5.22118">
        <ele>452</ele>
        <time>2022-09-29T08:57:17Z</time>
      </trkpt>
      <trkpt lat="44.42774" lon="5.22119">
        <ele>452</ele>
        <time>2022-09-29T08:57:18Z</time>
      </trkpt>
      <trkpt lat="44.42773" lon="5.2212">
        <ele>452</ele>
        <time>2022-09-29T08:57:19Z</time>
      </trkpt>
      <trkpt lat="44.42772" lon="5.22122">
        <ele>452</ele>
        <time>2022-09-29T08:57:20Z</time>
      </trkpt>
      <trkpt lat="44.42772" lon="5.22123">
        <ele>452</ele>
        <time>2022-09-29T08:57:21Z</time>
      </trkpt>
      <trkpt lat="44.42771" lon="5.22124">
        <ele>452</ele>
        <time>2022-09-29T08:57:22Z</time>
      </trkpt>
      <trkpt lat="44.4277" lon="5.22125">
        <ele>452</ele>
        <time>2022-09-29T08:57:23Z</time>
      </trkpt>
      <trkpt lat="44.4277" lon="5.22126">
        <ele>453</ele>
        <time>2022-09-29T08:57:24Z</time>
      </trkpt>
      <trkpt lat="44.42769" lon="5.22127">
        <ele>453</ele>
        <time>2022-09-29T08:57:25Z</time>
      </trkpt>
      <trkpt lat="44.42769" lon="5.22128">
        <ele>453</ele>
        <time>2022-09-29T08:57:26Z</time>
      </trkpt>
      <trkpt lat="44.42768" lon="5.2213">
        <ele>454</ele>
        <time>2022-09-29T08:57:27Z</time>
      </trkpt>
      <trkpt lat="44.42768" lon="5.22131">
        <ele>454</ele>
        <time>2022-09-29T08:57:28Z</time>
      </trkpt>
      <trkpt lat="44.42768" lon="5.22132">
        <ele>455</ele>
        <time>2022-09-29T08:57:29Z</time>
      </trkpt>
      <trkpt lat="44.42767" lon="5.22133">
        <ele>455</ele>
        <time>2022-09-29T08:57:30Z</time>
      </trkpt>
      <trkpt lat="44.42767" lon="5.22135">
        <ele>455</ele>
        <time>2022-09-29T08:57:31Z</time>
      </trkpt>
      <trkpt lat="44.42766" lon="5.22136">
        <ele>455</ele>
        <time>2022-09-29T08:57:32Z</time>
      </trkpt>
      <trkpt lat="44.42766" lon="5.22137">
        <ele>455</ele>
        <time>2022-09-29T08:57:33Z</time>
      </trkpt>
      <trkpt lat="44.42765" lon="5.22138">
        <ele>455</ele>
        <time>2022-09-29T08:57:34Z</time>
      </trkpt>
      <trkpt lat="44.42765" lon="5.22139">
        <ele>455</ele>
        <time>2022-09-29T08:57:35Z</time>
      </trkpt>
      <trkpt lat="44.42764" lon="5.2214">
        <ele>455</ele>
        <time>2022-09-29T08:57:36Z</time>
      </trkpt>
      <trkpt lat="44.42764" lon="5.22142">
        <ele>455</ele>
        <time>2022-09-29T08:57:37Z</time>
      </trkpt>
      <trkpt lat="44.42764" lon="5.22143">
        <ele>455</ele>
        <time>2022-09-29T08:57:38Z</time>
      </trkpt>
      <trkpt lat="44.42763" lon="5.22144">
        <ele>455</ele>
        <time>2022-09-29T08:57:39Z</time>
      </trkpt>
      <trkpt lat="44.42762" lon="5.22144">
        <ele>455</ele>
        <time>2022-09-29T08:57:40Z</time>
      </trkpt>
      <trkpt lat="44.42761" lon="5.22145">
        <ele>455</ele>
        <time>2022-09-29T08:57:41Z</time>
      </trkpt>
      <trkpt lat="44.42761" lon="5.22146">
        <ele>455</ele>
        <time>2022-09-29T08:57:42Z</time>
      </trkpt>
      <trkpt lat="44.4276" lon="5.22147">
        <ele>455</ele>
        <time>2022-09-29T08:57:43Z</time>
      </trkpt>
      <trkpt lat="44.42759" lon="5.22148">
        <ele>455</ele>
        <time>2022-09-29T08:57:44Z</time>
      </trkpt>
      <trkpt lat="44.42758" lon="5.22149">
        <ele>455</ele>
        <time>2022-09-29T08:57:45Z</time>
      </trkpt>
      <trkpt lat="44.42758" lon="5.2215">
        <ele>455</ele>
        <time>2022-09-29T08:57:46Z</time>
      </trkpt>
      <trkpt lat="44.42757" lon="5.22152">
        <ele>455</ele>
        <time>2022-09-29T08:57:47Z</time>
      </trkpt>
      <trkpt lat="44.42757" lon="5.22153">
        <ele>455</ele>
        <time>2022-09-29T08:57:48Z</time>
      </trkpt>
      <trkpt lat="44.42757" lon="5.22154">
        <ele>455</ele>
        <time>2022-09-29T08:57:49Z</time>
      </trkpt>
      <trkpt lat="44.42756" lon="5.22155">
        <ele>455</ele>
        <time>2022-09-29T08:57:50Z</time>
      </trkpt>
      <trkpt lat="44.42756" lon="5.22156">
        <ele>455</ele>
        <time>2022-09-29T08:57:51Z</time>
      </trkpt>
      <trkpt lat="44.42755" lon="5.22157">
        <ele>455</ele>
        <time>2022-09-29T08:57:52Z</time>
      </trkpt>
      <trkpt lat="44.42755" lon="5.22159">
        <ele>455</ele>
        <time>2022-09-29T08:57:53Z</time>
      </trkpt>
      <trkpt lat="44.42754" lon="5.2216">
        <ele>456</ele>
        <time>2022-09-29T08:57:54Z</time>
      </trkpt>
      <trkpt lat="44.42754" lon="5.22161">
        <ele>456</ele>
        <time>2022-09-29T08:57:55Z</time>
      </trkpt>
      <trkpt lat="44.42753" lon="5.22162">
        <ele>456</ele>
        <time>2022-09-29T08:57:56Z</time>
      </trkpt>
      <trkpt lat="44.42752" lon="5.22163">
        <ele>456</ele>
        <time>2022-09-29T08:57:57Z</time>
      </trkpt>
      <trkpt lat="44.42751" lon="5.22164">
        <ele>456</ele>
        <time>2022-09-29T08:57:58Z</time>
      </trkpt>
      <trkpt lat="44.42751" lon="5.22165">
        <ele>456</ele>
        <time>2022-09-29T08:57:59Z</time>
      </trkpt>
      <trkpt lat="44.4275" lon="5.22166">
        <ele>456</ele>
        <time>2022-09-29T08:58:00Z</time>
      </trkpt>
      <trkpt lat="44.42749" lon="5.22167">
        <ele>456</ele>
        <time>2022-09-29T08:58:01Z</time>
      </trkpt>
      <trkpt lat="44.42748" lon="5.22168">
        <ele>456</ele>
        <time>2022-09-29T08:58:02Z</time>
      </trkpt>
      <trkpt lat="44.42748" lon="5.22169">
        <ele>456</ele>
        <time>2022-09-29T08:58:03Z</time>
      </trkpt>
      <trkpt lat="44.42747" lon="5.2217">
        <ele>456</ele>
        <time>2022-09-29T08:58:04Z</time>
      </trkpt>
      <trkpt lat="44.42746" lon="5.22171">
        <ele>456</ele>
        <time>2022-09-29T08:58:05Z</time>
      </trkpt>
      <trkpt lat="44.42746" lon="5.22172">
        <ele>456</ele>
        <time>2022-09-29T08:58:06Z</time>
      </trkpt>
      <trkpt lat="44.42745" lon="5.22173">
        <ele>456</ele>
        <time>2022-09-29T08:58:07Z</time>
      </trkpt>
      <trkpt lat="44.42745" lon="5.22174">
        <ele>456</ele>
        <time>2022-09-29T08:58:08Z</time>
      </trkpt>
      <trkpt lat="44.42744" lon="5.22175">
        <ele>457</ele>
        <time>2022-09-29T08:58:09Z</time>
      </trkpt>
      <trkpt lat="44.42743" lon="5.22177">
        <ele>457</ele>
        <time>2022-09-29T08:58:10Z</time>
      </trkpt>
      <trkpt lat="44.42743" lon="5.22178">
        <ele>457</ele>
        <time>2022-09-29T08:58:11Z</time>
      </trkpt>
      <trkpt lat="44.42742" lon="5.22179">
        <ele>457</ele>
        <time>2022-09-29T08:58:12Z</time>
      </trkpt>
      <trkpt lat="44.42742" lon="5.2218">
        <ele>457</ele>
        <time>2022-09-29T08:58:13Z</time>
      </trkpt>
      <trkpt lat="44.42741" lon="5.22181">
        <ele>457</ele>
        <time>2022-09-29T08:58:14Z</time>
      </trkpt>
      <trkpt lat="44.42741" lon="5.22183">
        <ele>457</ele>
        <time>2022-09-29T08:58:15Z</time>
      </trkpt>
      <trkpt lat="44.42741" lon="5.22184">
        <ele>457</ele>
        <time>2022-09-29T08:58:16Z</time>
      </trkpt>
      <trkpt lat="44.4274" lon="5.22185">
        <ele>457</ele>
        <time>2022-09-29T08:58:17Z</time>
      </trkpt>
      <trkpt lat="44.4274" lon="5.22186">
        <ele>457</ele>
        <time>2022-09-29T08:58:18Z</time>
      </trkpt>
      <trkpt lat="44.42739" lon="5.22187">
        <ele>458</ele>
        <time>2022-09-29T08:58:19Z</time>
      </trkpt>
      <trkpt lat="44.42739" lon="5.22187">
        <ele>458</ele>
        <time>2022-09-29T08:58:20Z</time>
      </trkpt>
      <trkpt lat="44.42738" lon="5.22188">
        <ele>458</ele>
        <time>2022-09-29T08:58:21Z</time>
      </trkpt>
      <trkpt lat="44.42738" lon="5.22188">
        <ele>458</ele>
        <time>2022-09-29T08:58:22Z</time>
      </trkpt>
      <trkpt lat="44.42737" lon="5.22189">
        <ele>458</ele>
        <time>2022-09-29T08:58:23Z</time>
      </trkpt>
      <trkpt lat="44.42735" lon="5.2219">
        <ele>459</ele>
        <time>2022-09-29T08:58:30Z</time>
      </trkpt>
      <trkpt lat="44.42735" lon="5.2219">
        <ele>459</ele>
        <time>2022-09-29T08:58:31Z</time>
      </trkpt>
      <trkpt lat="44.42734" lon="5.2219">
        <ele>459</ele>
        <time>2022-09-29T08:58:32Z</time>
      </trkpt>
      <trkpt lat="44.42733" lon="5.2219">
        <ele>459</ele>
        <time>2022-09-29T08:58:33Z</time>
      </trkpt>
      <trkpt lat="44.42733" lon="5.2219">
        <ele>459</ele>
        <time>2022-09-29T08:58:34Z</time>
      </trkpt>
      <trkpt lat="44.42732" lon="5.2219">
        <ele>459</ele>
        <time>2022-09-29T08:58:35Z</time>
      </trkpt>
      <trkpt lat="44.42731" lon="5.2219">
        <ele>459</ele>
        <time>2022-09-29T08:58:36Z</time>
      </trkpt>
      <trkpt lat="44.42731" lon="5.22189">
        <ele>459</ele>
        <time>2022-09-29T08:58:37Z</time>
      </trkpt>
      <trkpt lat="44.4273" lon="5.22189">
        <ele>459</ele>
        <time>2022-09-29T08:58:38Z</time>
      </trkpt>
      <trkpt lat="44.42729" lon="5.22189">
        <ele>460</ele>
        <time>2022-09-29T08:58:39Z</time>
      </trkpt>
      <trkpt lat="44.42728" lon="5.22189">
        <ele>460</ele>
        <time>2022-09-29T08:58:40Z</time>
      </trkpt>
      <trkpt lat="44.42728" lon="5.22189">
        <ele>460</ele>
        <time>2022-09-29T08:58:41Z</time>
      </trkpt>
      <trkpt lat="44.42727" lon="5.22188">
        <ele>460</ele>
        <time>2022-09-29T08:58:42Z</time>
      </trkpt>
      <trkpt lat="44.42726" lon="5.22188">
        <ele>460</ele>
        <time>2022-09-29T08:58:43Z</time>
      </trkpt>
      <trkpt lat="44.42726" lon="5.22188">
        <ele>461</ele>
        <time>2022-09-29T08:58:44Z</time>
      </trkpt>
      <trkpt lat="44.42725" lon="5.22188">
        <ele>461</ele>
        <time>2022-09-29T08:58:45Z</time>
      </trkpt>
      <trkpt lat="44.42725" lon="5.22188">
        <ele>461</ele>
        <time>2022-09-29T08:58:46Z</time>
      </trkpt>
      <trkpt lat="44.42724" lon="5.22188">
        <ele>461</ele>
        <time>2022-09-29T08:58:47Z</time>
      </trkpt>
      <trkpt lat="44.42723" lon="5.22188">
        <ele>461</ele>
        <time>2022-09-29T08:58:48Z</time>
      </trkpt>
      <trkpt lat="44.42723" lon="5.22188">
        <ele>462</ele>
        <time>2022-09-29T08:58:49Z</time>
      </trkpt>
      <trkpt lat="44.42722" lon="5.22188">
        <ele>462</ele>
        <time>2022-09-29T08:58:50Z</time>
      </trkpt>
      <trkpt lat="44.42722" lon="5.22187">
        <ele>462</ele>
        <time>2022-09-29T08:58:51Z</time>
      </trkpt>
      <trkpt lat="44.42722" lon="5.22187">
        <ele>462</ele>
        <time>2022-09-29T08:58:52Z</time>
      </trkpt>
      <trkpt lat="44.42721" lon="5.22187">
        <ele>462</ele>
        <time>2022-09-29T08:58:53Z</time>
      </trkpt>
      <trkpt lat="44.42721" lon="5.22187">
        <ele>463</ele>
        <time>2022-09-29T08:58:54Z</time>
      </trkpt>
      <trkpt lat="44.4272" lon="5.22187">
        <ele>463</ele>
        <time>2022-09-29T08:58:55Z</time>
      </trkpt>
      <trkpt lat="44.4272" lon="5.22186">
        <ele>463</ele>
        <time>2022-09-29T08:58:56Z</time>
      </trkpt>
      <trkpt lat="44.4272" lon="5.22186">
        <ele>463</ele>
        <time>2022-09-29T08:58:57Z</time>
      </trkpt>
      <trkpt lat="44.42719" lon="5.22186">
        <ele>463</ele>
        <time>2022-09-29T08:58:58Z</time>
      </trkpt>
      <trkpt lat="44.42719" lon="5.22186">
        <ele>464</ele>
        <time>2022-09-29T08:58:59Z</time>
      </trkpt>
      <trkpt lat="44.42718" lon="5.22186">
        <ele>464</ele>
        <time>2022-09-29T08:59:00Z</time>
      </trkpt>
      <trkpt lat="44.42718" lon="5.22185">
        <ele>464</ele>
        <time>2022-09-29T08:59:01Z</time>
      </trkpt>
      <trkpt lat="44.42717" lon="5.22185">
        <ele>464</ele>
        <time>2022-09-29T08:59:02Z</time>
      </trkpt>
      <trkpt lat="44.42717" lon="5.22185">
        <ele>464</ele>
        <time>2022-09-29T08:59:03Z</time>
      </trkpt>
      <trkpt lat="44.42716" lon="5.22185">
        <ele>465</ele>
        <time>2022-09-29T08:59:04Z</time>
      </trkpt>
      <trkpt lat="44.42715" lon="5.22184">
        <ele>465</ele>
        <time>2022-09-29T08:59:05Z</time>
      </trkpt>
      <trkpt lat="44.42715" lon="5.22184">
        <ele>465</ele>
        <time>2022-09-29T08:59:06Z</time>
      </trkpt>
      <trkpt lat="44.42714" lon="5.22183">
        <ele>465</ele>
        <time>2022-09-29T08:59:07Z</time>
      </trkpt>
      <trkpt lat="44.42714" lon="5.22183">
        <ele>465</ele>
        <time>2022-09-29T08:59:08Z</time>
      </trkpt>
      <trkpt lat="44.4271" lon="5.2218">
        <ele>470</ele>
        <time>2022-09-29T08:59:51Z</time>
      </trkpt>
      <trkpt lat="44.42708" lon="5.22178">
        <ele>470</ele>
        <time>2022-09-29T08:59:52Z</time>
      </trkpt>
      <trkpt lat="44.42706" lon="5.22177">
        <ele>470</ele>
        <time>2022-09-29T08:59:53Z</time>
      </trkpt>
      <trkpt lat="44.42705" lon="5.22176">
        <ele>471</ele>
        <time>2022-09-29T08:59:54Z</time>
      </trkpt>
      <trkpt lat="44.42704" lon="5.22175">
        <ele>471</ele>
        <time>2022-09-29T08:59:55Z</time>
      </trkpt>
      <trkpt lat="44.42702" lon="5.22176">
        <ele>473</ele>
        <time>2022-09-29T09:03:08Z</time>
      </trkpt>
      <trkpt lat="44.42701" lon="5.22178">
        <ele>473</ele>
        <time>2022-09-29T09:03:09Z</time>
      </trkpt>
      <trkpt lat="44.427" lon="5.22179">
        <ele>473</ele>
        <time>2022-09-29T09:03:10Z</time>
      </trkpt>
      <trkpt lat="44.427" lon="5.2218">
        <ele>473</ele>
        <time>2022-09-29T09:03:11Z</time>
      </trkpt>
      <trkpt lat="44.427" lon="5.22181">
        <ele>473</ele>
        <time>2022-09-29T09:03:12Z</time>
      </trkpt>
      <trkpt lat="44.42699" lon="5.22182">
        <ele>473</ele>
        <time>2022-09-29T09:03:13Z</time>
      </trkpt>
      <trkpt lat="44.42699" lon="5.22183">
        <ele>473</ele>
        <time>2022-09-29T09:03:14Z</time>
      </trkpt>
      <trkpt lat="44.42698" lon="5.22184">
        <ele>473</ele>
        <time>2022-09-29T09:03:15Z</time>
      </trkpt>
      <trkpt lat="44.42698" lon="5.22185">
        <ele>473</ele>
        <time>2022-09-29T09:03:16Z</time>
      </trkpt>
      <trkpt lat="44.42698" lon="5.22186">
        <ele>473</ele>
        <time>2022-09-29T09:03:17Z</time>
      </trkpt>
      <trkpt lat="44.42697" lon="5.22187">
        <ele>473</ele>
        <time>2022-09-29T09:03:18Z</time>
      </trkpt>
      <trkpt lat="44.42697" lon="5.22188">
        <ele>473</ele>
        <time>2022-09-29T09:03:19Z</time>
      </trkpt>
      <trkpt lat="44.42697" lon="5.2219">
        <ele>473</ele>
        <time>2022-09-29T09:03:20Z</time>
      </trkpt>
      <trkpt lat="44.42697" lon="5.22191">
        <ele>473</ele>
        <time>2022-09-29T09:03:21Z</time>
      </trkpt>
      <trkpt lat="44.42698" lon="5.22192">
        <ele>473</ele>
        <time>2022-09-29T09:03:22Z</time>
      </trkpt>
      <trkpt lat="44.42698" lon="5.22194">
        <ele>473</ele>
        <time>2022-09-29T09:03:23Z</time>
      </trkpt>
      <trkpt lat="44.42698" lon="5.22195">
        <ele>473</ele>
        <time>2022-09-29T09:03:24Z</time>
      </trkpt>
      <trkpt lat="44.42698" lon="5.22196">
        <ele>473</ele>
        <time>2022-09-29T09:03:25Z</time>
      </trkpt>
      <trkpt lat="44.42698" lon="5.22198">
        <ele>473</ele>
        <time>2022-09-29T09:03:26Z</time>
      </trkpt>
      <trkpt lat="44.42698" lon="5.22199">
        <ele>473</ele>
        <time>2022-09-29T09:03:27Z</time>
      </trkpt>
      <trkpt lat="44.42698" lon="5.222">
        <ele>473</ele>
        <time>2022-09-29T09:03:28Z</time>
      </trkpt>
      <trkpt lat="44.42699" lon="5.22202">
        <ele>474</ele>
        <time>2022-09-29T09:03:29Z</time>
      </trkpt>
      <trkpt lat="44.42699" lon="5.22203">
        <ele>474</ele>
        <time>2022-09-29T09:03:30Z</time>
      </trkpt>
      <trkpt lat="44.42699" lon="5.22204">
        <ele>474</ele>
        <time>2022-09-29T09:03:31Z</time>
      </trkpt>
      <trkpt lat="44.42699" lon="5.22206">
        <ele>474</ele>
        <time>2022-09-29T09:03:32Z</time>
      </trkpt>
      <trkpt lat="44.42699" lon="5.22207">
        <ele>474</ele>
        <time>2022-09-29T09:03:33Z</time>
      </trkpt>
      <trkpt lat="44.42699" lon="5.22208">
        <ele>474</ele>
        <time>2022-09-29T09:03:34Z</time>
      </trkpt>
      <trkpt lat="44.427" lon="5.2221">
        <ele>474</ele>
        <time>2022-09-29T09:03:35Z</time>
      </trkpt>
      <trkpt lat="44.427" lon="5.22211">
        <ele>474</ele>
        <time>2022-09-29T09:03:36Z</time>
      </trkpt>
      <trkpt lat="44.427" lon="5.22212">
        <ele>474</ele>
        <time>2022-09-29T09:03:37Z</time>
      </trkpt>
      <trkpt lat="44.427" lon="5.22213">
        <ele>474</ele>
        <time>2022-09-29T09:03:38Z</time>
      </trkpt>
      <trkpt lat="44.427" lon="5.22214">
        <ele>474</ele>
        <time>2022-09-29T09:03:39Z</time>
      </trkpt>
      <trkpt lat="44.427" lon="5.22216">
        <ele>474</ele>
        <time>2022-09-29T09:03:40Z</time>
      </trkpt>
      <trkpt lat="44.427" lon="5.22217">
        <ele>474</ele>
        <time>2022-09-29T09:03:41Z</time>
      </trkpt>
      <trkpt lat="44.427" lon="5.22218">
        <ele>474</ele>
        <time>2022-09-29T09:03:42Z</time>
      </trkpt>
      <trkpt lat="44.42701" lon="5.22219">
        <ele>474</ele>
        <time>2022-09-29T09:03:43Z</time>
      </trkpt>
      <trkpt lat="44.42701" lon="5.22221">
        <ele>475</ele>
        <time>2022-09-29T09:03:44Z</time>
      </trkpt>
      <trkpt lat="44.42701" lon="5.22222">
        <ele>475</ele>
        <time>2022-09-29T09:03:45Z</time>
      </trkpt>
      <trkpt lat="44.42701" lon="5.22223">
        <ele>475</ele>
        <time>2022-09-29T09:03:46Z</time>
      </trkpt>
      <trkpt lat="44.42701" lon="5.22224">
        <ele>475</ele>
        <time>2022-09-29T09:03:47Z</time>
      </trkpt>
      <trkpt lat="44.42701" lon="5.22225">
        <ele>475</ele>
        <time>2022-09-29T09:03:48Z</time>
      </trkpt>
      <trkpt lat="44.42701" lon="5.22226">
        <ele>475</ele>
        <time>2022-09-29T09:03:49Z</time>
      </trkpt>
      <trkpt lat="44.427" lon="5.22227">
        <ele>475</ele>
        <time>2022-09-29T09:03:50Z</time>
      </trkpt>
      <trkpt lat="44.427" lon="5.22228">
        <ele>475</ele>
        <time>2022-09-29T09:03:51Z</time>
      </trkpt>
      <trkpt lat="44.427" lon="5.22229">
        <ele>475</ele>
        <time>2022-09-29T09:03:52Z</time>
      </trkpt>
      <trkpt lat="44.427" lon="5.2223">
        <ele>475</ele>
        <time>2022-09-29T09:03:53Z</time>
      </trkpt>
      <trkpt lat="44.427" lon="5.22232">
        <ele>476</ele>
        <time>2022-09-29T09:03:54Z</time>
      </trkpt>
      <trkpt lat="44.427" lon="5.22233">
        <ele>476</ele>
        <time>2022-09-29T09:03:55Z</time>
      </trkpt>
      <trkpt lat="44.42699" lon="5.22234">
        <ele>476</ele>
        <time>2022-09-29T09:03:56Z</time>
      </trkpt>
      <trkpt lat="44.42699" lon="5.22235">
        <ele>476</ele>
        <time>2022-09-29T09:03:57Z</time>
      </trkpt>
      <trkpt lat="44.42699" lon="5.22236">
        <ele>476</ele>
        <time>2022-09-29T09:03:58Z</time>
      </trkpt>
      <trkpt lat="44.42699" lon="5.22238">
        <ele>476</ele>
        <time>2022-09-29T09:03:59Z</time>
      </trkpt>
      <trkpt lat="44.42699" lon="5.22239">
        <ele>476</ele>
        <time>2022-09-29T09:04:00Z</time>
      </trkpt>
      <trkpt lat="44.42699" lon="5.22241">
        <ele>476</ele>
        <time>2022-09-29T09:04:01Z</time>
      </trkpt>
      <trkpt lat="44.42698" lon="5.22242">
        <ele>476</ele>
        <time>2022-09-29T09:04:02Z</time>
      </trkpt>
      <trkpt lat="44.42698" lon="5.22243">
        <ele>476</ele>
        <time>2022-09-29T09:04:03Z</time>
      </trkpt>
      <trkpt lat="44.42698" lon="5.22245">
        <ele>477</ele>
        <time>2022-09-29T09:04:04Z</time>
      </trkpt>
      <trkpt lat="44.42698" lon="5.22246">
        <ele>477</ele>
        <time>2022-09-29T09:04:05Z</time>
      </trkpt>
      <trkpt lat="44.42698" lon="5.22247">
        <ele>477</ele>
        <time>2022-09-29T09:04:06Z</time>
      </trkpt>
      <trkpt lat="44.42697" lon="5.22249">
        <ele>477</ele>
        <time>2022-09-29T09:04:07Z</time>
      </trkpt>
      <trkpt lat="44.42697" lon="5.2225">
        <ele>477</ele>
        <time>2022-09-29T09:04:08Z</time>
      </trkpt>
      <trkpt lat="44.42697" lon="5.22251">
        <ele>477</ele>
        <time>2022-09-29T09:04:09Z</time>
      </trkpt>
      <trkpt lat="44.42697" lon="5.22252">
        <ele>477</ele>
        <time>2022-09-29T09:04:10Z</time>
      </trkpt>
      <trkpt lat="44.42697" lon="5.22254">
        <ele>477</ele>
        <time>2022-09-29T09:04:11Z</time>
      </trkpt>
      <trkpt lat="44.42697" lon="5.22255">
        <ele>477</ele>
        <time>2022-09-29T09:04:12Z</time>
      </trkpt>
      <trkpt lat="44.42697" lon="5.22256">
        <ele>477</ele>
        <time>2022-09-29T09:04:13Z</time>
      </trkpt>
      <trkpt lat="44.42697" lon="5.22258">
        <ele>478</ele>
        <time>2022-09-29T09:04:14Z</time>
      </trkpt>
      <trkpt lat="44.42697" lon="5.22259">
        <ele>478</ele>
        <time>2022-09-29T09:04:15Z</time>
      </trkpt>
      <trkpt lat="44.42696" lon="5.2226">
        <ele>478</ele>
        <time>2022-09-29T09:04:16Z</time>
      </trkpt>
      <trkpt lat="44.42696" lon="5.22262">
        <ele>478</ele>
        <time>2022-09-29T09:04:17Z</time>
      </trkpt>
      <trkpt lat="44.42696" lon="5.22263">
        <ele>478</ele>
        <time>2022-09-29T09:04:18Z</time>
      </trkpt>
      <trkpt lat="44.42696" lon="5.22265">
        <ele>478</ele>
        <time>2022-09-29T09:04:19Z</time>
      </trkpt>
      <trkpt lat="44.42696" lon="5.22266">
        <ele>478</ele>
        <time>2022-09-29T09:04:20Z</time>
      </trkpt>
      <trkpt lat="44.42696" lon="5.22268">
        <ele>478</ele>
        <time>2022-09-29T09:04:21Z</time>
      </trkpt>
      <trkpt lat="44.42695" lon="5.22269">
        <ele>478</ele>
        <time>2022-09-29T09:04:22Z</time>
      </trkpt>
      <trkpt lat="44.42695" lon="5.2227">
        <ele>478</ele>
        <time>2022-09-29T09:04:23Z</time>
      </trkpt>
      <trkpt lat="44.42695" lon="5.22272">
        <ele>478</ele>
        <time>2022-09-29T09:04:24Z</time>
      </trkpt>
      <trkpt lat="44.42695" lon="5.22273">
        <ele>478</ele>
        <time>2022-09-29T09:04:25Z</time>
      </trkpt>
      <trkpt lat="44.42694" lon="5.22275">
        <ele>478</ele>
        <time>2022-09-29T09:04:26Z</time>
      </trkpt>
      <trkpt lat="44.42694" lon="5.22276">
        <ele>478</ele>
        <time>2022-09-29T09:04:27Z</time>
      </trkpt>
      <trkpt lat="44.42694" lon="5.22277">
        <ele>478</ele>
        <time>2022-09-29T09:04:28Z</time>
      </trkpt>
      <trkpt lat="44.42693" lon="5.22278">
        <ele>479</ele>
        <time>2022-09-29T09:04:29Z</time>
      </trkpt>
      <trkpt lat="44.42693" lon="5.22279">
        <ele>479</ele>
        <time>2022-09-29T09:04:30Z</time>
      </trkpt>
      <trkpt lat="44.42692" lon="5.2228">
        <ele>479</ele>
        <time>2022-09-29T09:04:31Z</time>
      </trkpt>
      <trkpt lat="44.42691" lon="5.22281">
        <ele>479</ele>
        <time>2022-09-29T09:04:32Z</time>
      </trkpt>
      <trkpt lat="44.42691" lon="5.22282">
        <ele>479</ele>
        <time>2022-09-29T09:04:33Z</time>
      </trkpt>
      <trkpt lat="44.4269" lon="5.22283">
        <ele>479</ele>
        <time>2022-09-29T09:04:34Z</time>
      </trkpt>
      <trkpt lat="44.42689" lon="5.22284">
        <ele>479</ele>
        <time>2022-09-29T09:04:35Z</time>
      </trkpt>
      <trkpt lat="44.42688" lon="5.22285">
        <ele>479</ele>
        <time>2022-09-29T09:04:36Z</time>
      </trkpt>
      <trkpt lat="44.42688" lon="5.22286">
        <ele>479</ele>
        <time>2022-09-29T09:04:37Z</time>
      </trkpt>
      <trkpt lat="44.42687" lon="5.22287">
        <ele>479</ele>
        <time>2022-09-29T09:04:38Z</time>
      </trkpt>
      <trkpt lat="44.42686" lon="5.22288">
        <ele>480</ele>
        <time>2022-09-29T09:04:39Z</time>
      </trkpt>
      <trkpt lat="44.42685" lon="5.22289">
        <ele>480</ele>
        <time>2022-09-29T09:04:40Z</time>
      </trkpt>
      <trkpt lat="44.42684" lon="5.22289">
        <ele>480</ele>
        <time>2022-09-29T09:04:41Z</time>
      </trkpt>
      <trkpt lat="44.42684" lon="5.2229">
        <ele>480</ele>
        <time>2022-09-29T09:04:42Z</time>
      </trkpt>
      <trkpt lat="44.42683" lon="5.22291">
        <ele>480</ele>
        <time>2022-09-29T09:04:43Z</time>
      </trkpt>
      <trkpt lat="44.42682" lon="5.22292">
        <ele>481</ele>
        <time>2022-09-29T09:04:44Z</time>
      </trkpt>
      <trkpt lat="44.42681" lon="5.22292">
        <ele>481</ele>
        <time>2022-09-29T09:04:45Z</time>
      </trkpt>
      <trkpt lat="44.42681" lon="5.22293">
        <ele>481</ele>
        <time>2022-09-29T09:04:46Z</time>
      </trkpt>
      <trkpt lat="44.4268" lon="5.22294">
        <ele>481</ele>
        <time>2022-09-29T09:04:47Z</time>
      </trkpt>
      <trkpt lat="44.42679" lon="5.22295">
        <ele>481</ele>
        <time>2022-09-29T09:04:48Z</time>
      </trkpt>
      <trkpt lat="44.42678" lon="5.22296">
        <ele>481</ele>
        <time>2022-09-29T09:04:49Z</time>
      </trkpt>
      <trkpt lat="44.42678" lon="5.22297">
        <ele>481</ele>
        <time>2022-09-29T09:04:50Z</time>
      </trkpt>
      <trkpt lat="44.42677" lon="5.22298">
        <ele>481</ele>
        <time>2022-09-29T09:04:51Z</time>
      </trkpt>
      <trkpt lat="44.42676" lon="5.22299">
        <ele>481</ele>
        <time>2022-09-29T09:04:52Z</time>
      </trkpt>
      <trkpt lat="44.42676" lon="5.223">
        <ele>481</ele>
        <time>2022-09-29T09:04:53Z</time>
      </trkpt>
      <trkpt lat="44.42675" lon="5.22301">
        <ele>482</ele>
        <time>2022-09-29T09:04:54Z</time>
      </trkpt>
      <trkpt lat="44.42674" lon="5.22303">
        <ele>482</ele>
        <time>2022-09-29T09:04:55Z</time>
      </trkpt>
      <trkpt lat="44.42674" lon="5.22304">
        <ele>482</ele>
        <time>2022-09-29T09:04:56Z</time>
      </trkpt>
      <trkpt lat="44.42674" lon="5.22305">
        <ele>482</ele>
        <time>2022-09-29T09:04:57Z</time>
      </trkpt>
      <trkpt lat="44.42674" lon="5.22307">
        <ele>482</ele>
        <time>2022-09-29T09:04:58Z</time>
      </trkpt>
      <trkpt lat="44.42673" lon="5.22308">
        <ele>482</ele>
        <time>2022-09-29T09:04:59Z</time>
      </trkpt>
      <trkpt lat="44.42673" lon="5.22309">
        <ele>482</ele>
        <time>2022-09-29T09:05:00Z</time>
      </trkpt>
      <trkpt lat="44.42672" lon="5.2231">
        <ele>483</ele>
        <time>2022-09-29T09:06:10Z</time>
      </trkpt>
      <trkpt lat="44.42672" lon="5.2231">
        <ele>483</ele>
        <time>2022-09-29T09:06:11Z</time>
      </trkpt>
      <trkpt lat="44.42671" lon="5.2231">
        <ele>483</ele>
        <time>2022-09-29T09:06:12Z</time>
      </trkpt>
      <trkpt lat="44.4267" lon="5.22311">
        <ele>483</ele>
        <time>2022-09-29T09:06:13Z</time>
      </trkpt>
      <trkpt lat="44.4267" lon="5.22311">
        <ele>483</ele>
        <time>2022-09-29T09:06:14Z</time>
      </trkpt>
      <trkpt lat="44.42668" lon="5.22313">
        <ele>485</ele>
        <time>2022-09-29T09:06:26Z</time>
      </trkpt>
      <trkpt lat="44.42667" lon="5.22313">
        <ele>485</ele>
        <time>2022-09-29T09:06:27Z</time>
      </trkpt>
      <trkpt lat="44.42666" lon="5.22314">
        <ele>485</ele>
        <time>2022-09-29T09:06:28Z</time>
      </trkpt>
      <trkpt lat="44.42665" lon="5.22315">
        <ele>486</ele>
        <time>2022-09-29T09:06:29Z</time>
      </trkpt>
      <trkpt lat="44.42665" lon="5.22316">
        <ele>486</ele>
        <time>2022-09-29T09:06:30Z</time>
      </trkpt>
      <trkpt lat="44.42664" lon="5.22316">
        <ele>486</ele>
        <time>2022-09-29T09:06:31Z</time>
      </trkpt>
      <trkpt lat="44.42664" lon="5.22317">
        <ele>486</ele>
        <time>2022-09-29T09:06:32Z</time>
      </trkpt>
      <trkpt lat="44.42663" lon="5.22318">
        <ele>486</ele>
        <time>2022-09-29T09:06:33Z</time>
      </trkpt>
      <trkpt lat="44.42663" lon="5.22318">
        <ele>486</ele>
        <time>2022-09-29T09:06:34Z</time>
      </trkpt>
      <trkpt lat="44.42662" lon="5.22319">
        <ele>486</ele>
        <time>2022-09-29T09:06:35Z</time>
      </trkpt>
      <trkpt lat="44.42661" lon="5.22319">
        <ele>486</ele>
        <time>2022-09-29T09:06:36Z</time>
      </trkpt>
      <trkpt lat="44.42661" lon="5.22319">
        <ele>486</ele>
        <time>2022-09-29T09:06:37Z</time>
      </trkpt>
      <trkpt lat="44.4266" lon="5.22319">
        <ele>486</ele>
        <time>2022-09-29T09:06:38Z</time>
      </trkpt>
      <trkpt lat="44.4266" lon="5.22319">
        <ele>487</ele>
        <time>2022-09-29T09:06:39Z</time>
      </trkpt>
      <trkpt lat="44.42659" lon="5.22319">
        <ele>487</ele>
        <time>2022-09-29T09:06:40Z</time>
      </trkpt>
      <trkpt lat="44.42659" lon="5.22319">
        <ele>487</ele>
        <time>2022-09-29T09:06:41Z</time>
      </trkpt>
      <trkpt lat="44.42658" lon="5.22319">
        <ele>487</ele>
        <time>2022-09-29T09:06:42Z</time>
      </trkpt>
      <trkpt lat="44.42657" lon="5.22319">
        <ele>487</ele>
        <time>2022-09-29T09:06:43Z</time>
      </trkpt>
      <trkpt lat="44.42657" lon="5.22319">
        <ele>488</ele>
        <time>2022-09-29T09:06:44Z</time>
      </trkpt>
      <trkpt lat="44.42656" lon="5.22319">
        <ele>488</ele>
        <time>2022-09-29T09:06:45Z</time>
      </trkpt>
      <trkpt lat="44.42655" lon="5.2232">
        <ele>488</ele>
        <time>2022-09-29T09:06:46Z</time>
      </trkpt>
      <trkpt lat="44.42655" lon="5.2232">
        <ele>488</ele>
        <time>2022-09-29T09:06:47Z</time>
      </trkpt>
      <trkpt lat="44.42654" lon="5.2232">
        <ele>488</ele>
        <time>2022-09-29T09:06:48Z</time>
      </trkpt>
      <trkpt lat="44.42654" lon="5.22321">
        <ele>489</ele>
        <time>2022-09-29T09:06:49Z</time>
      </trkpt>
      <trkpt lat="44.42653" lon="5.22321">
        <ele>489</ele>
        <time>2022-09-29T09:06:50Z</time>
      </trkpt>
      <trkpt lat="44.42652" lon="5.22321">
        <ele>489</ele>
        <time>2022-09-29T09:06:51Z</time>
      </trkpt>
      <trkpt lat="44.42652" lon="5.22321">
        <ele>489</ele>
        <time>2022-09-29T09:06:52Z</time>
      </trkpt>
      <trkpt lat="44.42651" lon="5.22321">
        <ele>489</ele>
        <time>2022-09-29T09:06:53Z</time>
      </trkpt>
      <trkpt lat="44.42651" lon="5.22321">
        <ele>490</ele>
        <time>2022-09-29T09:06:54Z</time>
      </trkpt>
      <trkpt lat="44.4265" lon="5.22321">
        <ele>490</ele>
        <time>2022-09-29T09:06:55Z</time>
      </trkpt>
      <trkpt lat="44.42649" lon="5.22321">
        <ele>490</ele>
        <time>2022-09-29T09:06:56Z</time>
      </trkpt>
      <trkpt lat="44.42646" lon="5.22322">
        <ele>495</ele>
        <time>2022-09-29T09:07:19Z</time>
      </trkpt>
      <trkpt lat="44.42644" lon="5.22323">
        <ele>495</ele>
        <time>2022-09-29T09:07:20Z</time>
      </trkpt>
      <trkpt lat="44.42642" lon="5.22324">
        <ele>495</ele>
        <time>2022-09-29T09:07:21Z</time>
      </trkpt>
      <trkpt lat="44.42641" lon="5.22324">
        <ele>495</ele>
        <time>2022-09-29T09:07:22Z</time>
      </trkpt>
      <trkpt lat="44.4264" lon="5.22325">
        <ele>495</ele>
        <time>2022-09-29T09:07:23Z</time>
      </trkpt>
      <trkpt lat="44.42639" lon="5.22325">
        <ele>496</ele>
        <time>2022-09-29T09:07:24Z</time>
      </trkpt>
      <trkpt lat="44.42638" lon="5.22326">
        <ele>496</ele>
        <time>2022-09-29T09:07:25Z</time>
      </trkpt>
      <trkpt lat="44.42637" lon="5.22327">
        <ele>497</ele>
        <time>2022-09-29T09:07:40Z</time>
      </trkpt>
      <trkpt lat="44.42636" lon="5.22328">
        <ele>497</ele>
        <time>2022-09-29T09:07:41Z</time>
      </trkpt>
      <trkpt lat="44.42635" lon="5.22328">
        <ele>497</ele>
        <time>2022-09-29T09:07:42Z</time>
      </trkpt>
      <trkpt lat="44.42634" lon="5.22328">
        <ele>497</ele>
        <time>2022-09-29T09:07:43Z</time>
      </trkpt>
      <trkpt lat="44.42634" lon="5.22328">
        <ele>498</ele>
        <time>2022-09-29T09:07:44Z</time>
      </trkpt>
      <trkpt lat="44.42633" lon="5.22328">
        <ele>498</ele>
        <time>2022-09-29T09:07:45Z</time>
      </trkpt>
      <trkpt lat="44.42632" lon="5.22328">
        <ele>498</ele>
        <time>2022-09-29T09:07:46Z</time>
      </trkpt>
      <trkpt lat="44.42632" lon="5.22328">
        <ele>498</ele>
        <time>2022-09-29T09:07:47Z</time>
      </trkpt>
      <trkpt lat="44.42631" lon="5.22327">
        <ele>498</ele>
        <time>2022-09-29T09:07:48Z</time>
      </trkpt>
      <trkpt lat="44.4263" lon="5.22326">
        <ele>498</ele>
        <time>2022-09-29T09:07:49Z</time>
      </trkpt>
      <trkpt lat="44.4263" lon="5.22326">
        <ele>498</ele>
        <time>2022-09-29T09:07:50Z</time>
      </trkpt>
      <trkpt lat="44.42629" lon="5.22325">
        <ele>498</ele>
        <time>2022-09-29T09:07:51Z</time>
      </trkpt>
      <trkpt lat="44.42629" lon="5.22324">
        <ele>498</ele>
        <time>2022-09-29T09:07:52Z</time>
      </trkpt>
      <trkpt lat="44.42629" lon="5.22323">
        <ele>498</ele>
        <time>2022-09-29T09:07:53Z</time>
      </trkpt>
      <trkpt lat="44.42629" lon="5.22322">
        <ele>498</ele>
        <time>2022-09-29T09:07:54Z</time>
      </trkpt>
      <trkpt lat="44.42628" lon="5.22321">
        <ele>498</ele>
        <time>2022-09-29T09:07:55Z</time>
      </trkpt>
      <trkpt lat="44.42628" lon="5.2232">
        <ele>498</ele>
        <time>2022-09-29T09:07:56Z</time>
      </trkpt>
      <trkpt lat="44.42628" lon="5.22319">
        <ele>498</ele>
        <time>2022-09-29T09:07:57Z</time>
      </trkpt>
      <trkpt lat="44.42628" lon="5.22318">
        <ele>498</ele>
        <time>2022-09-29T09:07:58Z</time>
      </trkpt>
      <trkpt lat="44.42627" lon="5.22317">
        <ele>499</ele>
        <time>2022-09-29T09:07:59Z</time>
      </trkpt>
      <trkpt lat="44.42627" lon="5.22316">
        <ele>499</ele>
        <time>2022-09-29T09:08:00Z</time>
      </trkpt>
      <trkpt lat="44.42627" lon="5.22315">
        <ele>499</ele>
        <time>2022-09-29T09:08:01Z</time>
      </trkpt>
      <trkpt lat="44.42627" lon="5.22314">
        <ele>499</ele>
        <time>2022-09-29T09:08:02Z</time>
      </trkpt>
      <trkpt lat="44.42627" lon="5.22313">
        <ele>499</ele>
        <time>2022-09-29T09:08:03Z</time>
      </trkpt>
      <trkpt lat="44.42626" lon="5.22311">
        <ele>499</ele>
        <time>2022-09-29T09:08:04Z</time>
      </trkpt>
      <trkpt lat="44.42626" lon="5.2231">
        <ele>499</ele>
        <time>2022-09-29T09:08:05Z</time>
      </trkpt>
      <trkpt lat="44.42626" lon="5.22309">
        <ele>499</ele>
        <time>2022-09-29T09:08:06Z</time>
      </trkpt>
      <trkpt lat="44.42625" lon="5.22308">
        <ele>499</ele>
        <time>2022-09-29T09:08:07Z</time>
      </trkpt>
      <trkpt lat="44.42625" lon="5.22307">
        <ele>499</ele>
        <time>2022-09-29T09:08:08Z</time>
      </trkpt>
      <trkpt lat="44.42625" lon="5.22306">
        <ele>499</ele>
        <time>2022-09-29T09:08:09Z</time>
      </trkpt>
      <trkpt lat="44.42625" lon="5.22306">
        <ele>499</ele>
        <time>2022-09-29T09:08:10Z</time>
      </trkpt>
      <trkpt lat="44.42625" lon="5.22305">
        <ele>499</ele>
        <time>2022-09-29T09:08:11Z</time>
      </trkpt>
      <trkpt lat="44.42624" lon="5.22305">
        <ele>499</ele>
        <time>2022-09-29T09:08:12Z</time>
      </trkpt>
      <trkpt lat="44.42624" lon="5.22305">
        <ele>499</ele>
        <time>2022-09-29T09:08:13Z</time>
      </trkpt>
      <trkpt lat="44.42624" lon="5.22304">
        <ele>500</ele>
        <time>2022-09-29T09:08:14Z</time>
      </trkpt>
      <trkpt lat="44.42624" lon="5.22304">
        <ele>500</ele>
        <time>2022-09-29T09:08:15Z</time>
      </trkpt>
      <trkpt lat="44.42624" lon="5.22305">
        <ele>500</ele>
        <time>2022-09-29T09:08:16Z</time>
      </trkpt>
      <trkpt lat="44.42624" lon="5.22305">
        <ele>500</ele>
        <time>2022-09-29T09:08:17Z</time>
      </trkpt>
      <trkpt lat="44.42624" lon="5.22306">
        <ele>500</ele>
        <time>2022-09-29T09:08:18Z</time>
      </trkpt>
      <trkpt lat="44.42624" lon="5.22306">
        <ele>500</ele>
        <time>2022-09-29T09:08:19Z</time>
      </trkpt>
      <trkpt lat="44.42624" lon="5.22307">
        <ele>500</ele>
        <time>2022-09-29T09:08:20Z</time>
      </trkpt>
      <trkpt lat="44.42624" lon="5.22307">
        <ele>500</ele>
        <time>2022-09-29T09:08:21Z</time>
      </trkpt>
      <trkpt lat="44.42623" lon="5.22314">
        <ele>499</ele>
        <time>2022-09-29T09:10:19Z</time>
      </trkpt>
      <trkpt lat="44.42623" lon="5.22317">
        <ele>499</ele>
        <time>2022-09-29T09:10:20Z</time>
      </trkpt>
      <trkpt lat="44.42623" lon="5.22321">
        <ele>499</ele>
        <time>2022-09-29T09:10:21Z</time>
      </trkpt>
      <trkpt lat="44.42623" lon="5.22323">
        <ele>499</ele>
        <time>2022-09-29T09:10:22Z</time>
      </trkpt>
      <trkpt lat="44.42623" lon="5.22325">
        <ele>499</ele>
        <time>2022-09-29T09:10:23Z</time>
      </trkpt>
      <trkpt lat="44.42623" lon="5.22326">
        <ele>499</ele>
        <time>2022-09-29T09:10:24Z</time>
      </trkpt>
      <trkpt lat="44.42623" lon="5.22327">
        <ele>499</ele>
        <time>2022-09-29T09:10:25Z</time>
      </trkpt>
      <trkpt lat="44.42622" lon="5.22329">
        <ele>499</ele>
        <time>2022-09-29T09:10:26Z</time>
      </trkpt>
      <trkpt lat="44.42622" lon="5.2233">
        <ele>499</ele>
        <time>2022-09-29T09:10:27Z</time>
      </trkpt>
      <trkpt lat="44.42621" lon="5.22331">
        <ele>499</ele>
        <time>2022-09-29T09:10:28Z</time>
      </trkpt>
      <trkpt lat="44.42621" lon="5.22332">
        <ele>499</ele>
        <time>2022-09-29T09:10:29Z</time>
      </trkpt>
      <trkpt lat="44.42621" lon="5.22333">
        <ele>499</ele>
        <time>2022-09-29T09:10:30Z</time>
      </trkpt>
      <trkpt lat="44.4262" lon="5.22333">
        <ele>499</ele>
        <time>2022-09-29T09:10:31Z</time>
      </trkpt>
      <trkpt lat="44.4262" lon="5.22334">
        <ele>499</ele>
        <time>2022-09-29T09:10:32Z</time>
      </trkpt>
      <trkpt lat="44.4262" lon="5.22334">
        <ele>499</ele>
        <time>2022-09-29T09:10:33Z</time>
      </trkpt>
      <trkpt lat="44.42619" lon="5.22335">
        <ele>500</ele>
        <time>2022-09-29T09:10:34Z</time>
      </trkpt>
      <trkpt lat="44.42619" lon="5.22336">
        <ele>500</ele>
        <time>2022-09-29T09:10:35Z</time>
      </trkpt>
      <trkpt lat="44.42618" lon="5.22336">
        <ele>500</ele>
        <time>2022-09-29T09:10:36Z</time>
      </trkpt>
      <trkpt lat="44.42618" lon="5.22337">
        <ele>500</ele>
        <time>2022-09-29T09:10:37Z</time>
      </trkpt>
      <trkpt lat="44.42617" lon="5.22337">
        <ele>500</ele>
        <time>2022-09-29T09:10:38Z</time>
      </trkpt>
      <trkpt lat="44.42617" lon="5.22338">
        <ele>500</ele>
        <time>2022-09-29T09:10:39Z</time>
      </trkpt>
      <trkpt lat="44.42616" lon="5.22338">
        <ele>500</ele>
        <time>2022-09-29T09:10:40Z</time>
      </trkpt>
      <trkpt lat="44.42616" lon="5.22338">
        <ele>500</ele>
        <time>2022-09-29T09:10:41Z</time>
      </trkpt>
      <trkpt lat="44.42615" lon="5.22339">
        <ele>500</ele>
        <time>2022-09-29T09:10:42Z</time>
      </trkpt>
      <trkpt lat="44.42615" lon="5.2234">
        <ele>500</ele>
        <time>2022-09-29T09:10:43Z</time>
      </trkpt>
      <trkpt lat="44.42614" lon="5.2234">
        <ele>501</ele>
        <time>2022-09-29T09:10:44Z</time>
      </trkpt>
      <trkpt lat="44.42614" lon="5.22341">
        <ele>501</ele>
        <time>2022-09-29T09:10:45Z</time>
      </trkpt>
      <trkpt lat="44.42614" lon="5.22342">
        <ele>501</ele>
        <time>2022-09-29T09:10:46Z</time>
      </trkpt>
      <trkpt lat="44.42614" lon="5.22342">
        <ele>501</ele>
        <time>2022-09-29T09:10:47Z</time>
      </trkpt>
      <trkpt lat="44.42613" lon="5.22343">
        <ele>501</ele>
        <time>2022-09-29T09:10:48Z</time>
      </trkpt>
      <trkpt lat="44.42613" lon="5.22343">
        <ele>501</ele>
        <time>2022-09-29T09:10:49Z</time>
      </trkpt>
      <trkpt lat="44.42613" lon="5.22344">
        <ele>501</ele>
        <time>2022-09-29T09:10:50Z</time>
      </trkpt>
      <trkpt lat="44.42614" lon="5.22345">
        <ele>501</ele>
        <time>2022-09-29T09:10:51Z</time>
      </trkpt>
      <trkpt lat="44.42614" lon="5.22345">
        <ele>501</ele>
        <time>2022-09-29T09:10:52Z</time>
      </trkpt>
      <trkpt lat="44.42614" lon="5.22346">
        <ele>501</ele>
        <time>2022-09-29T09:10:53Z</time>
      </trkpt>
      <trkpt lat="44.42614" lon="5.22347">
        <ele>502</ele>
        <time>2022-09-29T09:10:54Z</time>
      </trkpt>
      <trkpt lat="44.42615" lon="5.22347">
        <ele>502</ele>
        <time>2022-09-29T09:10:55Z</time>
      </trkpt>
      <trkpt lat="44.42615" lon="5.22348">
        <ele>502</ele>
        <time>2022-09-29T09:10:56Z</time>
      </trkpt>
      <trkpt lat="44.42616" lon="5.22349">
        <ele>502</ele>
        <time>2022-09-29T09:10:57Z</time>
      </trkpt>
      <trkpt lat="44.42616" lon="5.2235">
        <ele>502</ele>
        <time>2022-09-29T09:10:58Z</time>
      </trkpt>
      <trkpt lat="44.42617" lon="5.2235">
        <ele>502</ele>
        <time>2022-09-29T09:10:59Z</time>
      </trkpt>
      <trkpt lat="44.42617" lon="5.22351">
        <ele>502</ele>
        <time>2022-09-29T09:11:00Z</time>
      </trkpt>
      <trkpt lat="44.42617" lon="5.22351">
        <ele>502</ele>
        <time>2022-09-29T09:11:01Z</time>
      </trkpt>
      <trkpt lat="44.42617" lon="5.22351">
        <ele>502</ele>
        <time>2022-09-29T09:11:02Z</time>
      </trkpt>
      <trkpt lat="44.42617" lon="5.22352">
        <ele>502</ele>
        <time>2022-09-29T09:11:03Z</time>
      </trkpt>
      <trkpt lat="44.42618" lon="5.22352">
        <ele>503</ele>
        <time>2022-09-29T09:11:04Z</time>
      </trkpt>
      <trkpt lat="44.42618" lon="5.22353">
        <ele>503</ele>
        <time>2022-09-29T09:11:05Z</time>
      </trkpt>
      <trkpt lat="44.42618" lon="5.22354">
        <ele>503</ele>
        <time>2022-09-29T09:11:06Z</time>
      </trkpt>
      <trkpt lat="44.42618" lon="5.22354">
        <ele>503</ele>
        <time>2022-09-29T09:11:07Z</time>
      </trkpt>
      <trkpt lat="44.42619" lon="5.22355">
        <ele>503</ele>
        <time>2022-09-29T09:11:08Z</time>
      </trkpt>
      <trkpt lat="44.42619" lon="5.22355">
        <ele>504</ele>
        <time>2022-09-29T09:11:09Z</time>
      </trkpt>
      <trkpt lat="44.42619" lon="5.22356">
        <ele>504</ele>
        <time>2022-09-29T09:11:10Z</time>
      </trkpt>
      <trkpt lat="44.4262" lon="5.22357">
        <ele>504</ele>
        <time>2022-09-29T09:11:11Z</time>
      </trkpt>
      <trkpt lat="44.4262" lon="5.22358">
        <ele>504</ele>
        <time>2022-09-29T09:11:12Z</time>
      </trkpt>
      <trkpt lat="44.4262" lon="5.22358">
        <ele>504</ele>
        <time>2022-09-29T09:11:13Z</time>
      </trkpt>
      <trkpt lat="44.42621" lon="5.22358">
        <ele>505</ele>
        <time>2022-09-29T09:11:14Z</time>
      </trkpt>
      <trkpt lat="44.42621" lon="5.22359">
        <ele>505</ele>
        <time>2022-09-29T09:11:15Z</time>
      </trkpt>
      <trkpt lat="44.42621" lon="5.22359">
        <ele>505</ele>
        <time>2022-09-29T09:11:16Z</time>
      </trkpt>
      <trkpt lat="44.42622" lon="5.22361">
        <ele>505</ele>
        <time>2022-09-29T09:11:17Z</time>
      </trkpt>
      <trkpt lat="44.42622" lon="5.22362">
        <ele>505</ele>
        <time>2022-09-29T09:11:18Z</time>
      </trkpt>
      <trkpt lat="44.42623" lon="5.22363">
        <ele>505</ele>
        <time>2022-09-29T09:11:19Z</time>
      </trkpt>
      <trkpt lat="44.42624" lon="5.22364">
        <ele>505</ele>
        <time>2022-09-29T09:11:20Z</time>
      </trkpt>
      <trkpt lat="44.42624" lon="5.22365">
        <ele>505</ele>
        <time>2022-09-29T09:11:21Z</time>
      </trkpt>
      <trkpt lat="44.42625" lon="5.22366">
        <ele>505</ele>
        <time>2022-09-29T09:11:22Z</time>
      </trkpt>
      <trkpt lat="44.42626" lon="5.22367">
        <ele>505</ele>
        <time>2022-09-29T09:11:23Z</time>
      </trkpt>
      <trkpt lat="44.42627" lon="5.22369">
        <ele>506</ele>
        <time>2022-09-29T09:11:24Z</time>
      </trkpt>
      <trkpt lat="44.42627" lon="5.2237">
        <ele>506</ele>
        <time>2022-09-29T09:11:25Z</time>
      </trkpt>
      <trkpt lat="44.42628" lon="5.22371">
        <ele>506</ele>
        <time>2022-09-29T09:11:26Z</time>
      </trkpt>
      <trkpt lat="44.42629" lon="5.22372">
        <ele>506</ele>
        <time>2022-09-29T09:11:27Z</time>
      </trkpt>
      <trkpt lat="44.42629" lon="5.22374">
        <ele>506</ele>
        <time>2022-09-29T09:11:28Z</time>
      </trkpt>
      <trkpt lat="44.4263" lon="5.22375">
        <ele>506</ele>
        <time>2022-09-29T09:11:29Z</time>
      </trkpt>
      <trkpt lat="44.42631" lon="5.22376">
        <ele>506</ele>
        <time>2022-09-29T09:11:30Z</time>
      </trkpt>
      <trkpt lat="44.42631" lon="5.22377">
        <ele>506</ele>
        <time>2022-09-29T09:11:31Z</time>
      </trkpt>
      <trkpt lat="44.42632" lon="5.22377">
        <ele>506</ele>
        <time>2022-09-29T09:11:32Z</time>
      </trkpt>
      <trkpt lat="44.42632" lon="5.22379">
        <ele>506</ele>
        <time>2022-09-29T09:11:33Z</time>
      </trkpt>
      <trkpt lat="44.42633" lon="5.2238">
        <ele>507</ele>
        <time>2022-09-29T09:11:34Z</time>
      </trkpt>
      <trkpt lat="44.42633" lon="5.2238">
        <ele>507</ele>
        <time>2022-09-29T09:11:35Z</time>
      </trkpt>
      <trkpt lat="44.42634" lon="5.22381">
        <ele>507</ele>
        <time>2022-09-29T09:11:36Z</time>
      </trkpt>
      <trkpt lat="44.42634" lon="5.22382">
        <ele>507</ele>
        <time>2022-09-29T09:11:37Z</time>
      </trkpt>
      <trkpt lat="44.42635" lon="5.22382">
        <ele>507</ele>
        <time>2022-09-29T09:11:38Z</time>
      </trkpt>
      <trkpt lat="44.42635" lon="5.22384">
        <ele>507</ele>
        <time>2022-09-29T09:11:39Z</time>
      </trkpt>
      <trkpt lat="44.42636" lon="5.22385">
        <ele>507</ele>
        <time>2022-09-29T09:11:40Z</time>
      </trkpt>
      <trkpt lat="44.42637" lon="5.22386">
        <ele>507</ele>
        <time>2022-09-29T09:11:41Z</time>
      </trkpt>
      <trkpt lat="44.42638" lon="5.22387">
        <ele>507</ele>
        <time>2022-09-29T09:11:42Z</time>
      </trkpt>
      <trkpt lat="44.42641" lon="5.22389">
        <ele>509</ele>
        <time>2022-09-29T09:11:58Z</time>
      </trkpt>
      <trkpt lat="44.42643" lon="5.22391">
        <ele>510</ele>
        <time>2022-09-29T09:11:59Z</time>
      </trkpt>
      <trkpt lat="44.42645" lon="5.22392">
        <ele>510</ele>
        <time>2022-09-29T09:12:00Z</time>
      </trkpt>
      <trkpt lat="44.42646" lon="5.22393">
        <ele>510</ele>
        <time>2022-09-29T09:12:01Z</time>
      </trkpt>
      <trkpt lat="44.42647" lon="5.22394">
        <ele>510</ele>
        <time>2022-09-29T09:12:02Z</time>
      </trkpt>
      <trkpt lat="44.42648" lon="5.22395">
        <ele>510</ele>
        <time>2022-09-29T09:12:03Z</time>
      </trkpt>
      <trkpt lat="44.42649" lon="5.22396">
        <ele>511</ele>
        <time>2022-09-29T09:12:04Z</time>
      </trkpt>
      <trkpt lat="44.4265" lon="5.22396">
        <ele>511</ele>
        <time>2022-09-29T09:12:05Z</time>
      </trkpt>
      <trkpt lat="44.4265" lon="5.22397">
        <ele>511</ele>
        <time>2022-09-29T09:12:06Z</time>
      </trkpt>
      <trkpt lat="44.42651" lon="5.22397">
        <ele>511</ele>
        <time>2022-09-29T09:12:07Z</time>
      </trkpt>
      <trkpt lat="44.42651" lon="5.22398">
        <ele>511</ele>
        <time>2022-09-29T09:12:08Z</time>
      </trkpt>
      <trkpt lat="44.42652" lon="5.22399">
        <ele>511</ele>
        <time>2022-09-29T09:12:09Z</time>
      </trkpt>
      <trkpt lat="44.42652" lon="5.22399">
        <ele>511</ele>
        <time>2022-09-29T09:12:10Z</time>
      </trkpt>
      <trkpt lat="44.42653" lon="5.224">
        <ele>511</ele>
        <time>2022-09-29T09:12:11Z</time>
      </trkpt>
      <trkpt lat="44.42654" lon="5.22401">
        <ele>511</ele>
        <time>2022-09-29T09:12:12Z</time>
      </trkpt>
      <trkpt lat="44.42654" lon="5.22402">
        <ele>511</ele>
        <time>2022-09-29T09:12:13Z</time>
      </trkpt>
      <trkpt lat="44.42655" lon="5.22403">
        <ele>512</ele>
        <time>2022-09-29T09:12:14Z</time>
      </trkpt>
      <trkpt lat="44.42655" lon="5.22404">
        <ele>512</ele>
        <time>2022-09-29T09:12:15Z</time>
      </trkpt>
      <trkpt lat="44.42655" lon="5.22405">
        <ele>512</ele>
        <time>2022-09-29T09:12:16Z</time>
      </trkpt>
      <trkpt lat="44.42656" lon="5.22406">
        <ele>512</ele>
        <time>2022-09-29T09:12:17Z</time>
      </trkpt>
      <trkpt lat="44.42656" lon="5.22407">
        <ele>512</ele>
        <time>2022-09-29T09:12:18Z</time>
      </trkpt>
      <trkpt lat="44.42657" lon="5.22408">
        <ele>512</ele>
        <time>2022-09-29T09:12:19Z</time>
      </trkpt>
      <trkpt lat="44.42657" lon="5.22408">
        <ele>512</ele>
        <time>2022-09-29T09:12:20Z</time>
      </trkpt>
      <trkpt lat="44.42657" lon="5.22409">
        <ele>512</ele>
        <time>2022-09-29T09:12:21Z</time>
      </trkpt>
      <trkpt lat="44.42657" lon="5.2241">
        <ele>512</ele>
        <time>2022-09-29T09:12:22Z</time>
      </trkpt>
      <trkpt lat="44.42657" lon="5.22411">
        <ele>512</ele>
        <time>2022-09-29T09:12:23Z</time>
      </trkpt>
      <trkpt lat="44.42657" lon="5.22412">
        <ele>513</ele>
        <time>2022-09-29T09:12:24Z</time>
      </trkpt>
      <trkpt lat="44.42658" lon="5.22413">
        <ele>513</ele>
        <time>2022-09-29T09:12:25Z</time>
      </trkpt>
      <trkpt lat="44.42658" lon="5.22414">
        <ele>513</ele>
        <time>2022-09-29T09:12:26Z</time>
      </trkpt>
      <trkpt lat="44.42658" lon="5.22415">
        <ele>513</ele>
        <time>2022-09-29T09:12:27Z</time>
      </trkpt>
      <trkpt lat="44.42658" lon="5.22416">
        <ele>513</ele>
        <time>2022-09-29T09:12:28Z</time>
      </trkpt>
      <trkpt lat="44.42658" lon="5.22416">
        <ele>514</ele>
        <time>2022-09-29T09:12:29Z</time>
      </trkpt>
      <trkpt lat="44.42658" lon="5.22417">
        <ele>514</ele>
        <time>2022-09-29T09:12:30Z</time>
      </trkpt>
      <trkpt lat="44.42658" lon="5.22417">
        <ele>514</ele>
        <time>2022-09-29T09:12:31Z</time>
      </trkpt>
      <trkpt lat="44.42658" lon="5.22418">
        <ele>514</ele>
        <time>2022-09-29T09:12:32Z</time>
      </trkpt>
      <trkpt lat="44.42658" lon="5.22419">
        <ele>514</ele>
        <time>2022-09-29T09:12:33Z</time>
      </trkpt>
      <trkpt lat="44.42658" lon="5.2242">
        <ele>514</ele>
        <time>2022-09-29T09:12:34Z</time>
      </trkpt>
      <trkpt lat="44.42658" lon="5.22421">
        <ele>514</ele>
        <time>2022-09-29T09:12:35Z</time>
      </trkpt>
      <trkpt lat="44.42659" lon="5.22423">
        <ele>514</ele>
        <time>2022-09-29T09:12:36Z</time>
      </trkpt>
      <trkpt lat="44.42659" lon="5.22424">
        <ele>514</ele>
        <time>2022-09-29T09:12:37Z</time>
      </trkpt>
      <trkpt lat="44.42659" lon="5.22425">
        <ele>514</ele>
        <time>2022-09-29T09:12:38Z</time>
      </trkpt>
      <trkpt lat="44.4266" lon="5.22426">
        <ele>515</ele>
        <time>2022-09-29T09:12:39Z</time>
      </trkpt>
      <trkpt lat="44.4266" lon="5.22427">
        <ele>515</ele>
        <time>2022-09-29T09:12:40Z</time>
      </trkpt>
      <trkpt lat="44.4266" lon="5.22428">
        <ele>515</ele>
        <time>2022-09-29T09:12:41Z</time>
      </trkpt>
      <trkpt lat="44.42661" lon="5.22429">
        <ele>515</ele>
        <time>2022-09-29T09:12:42Z</time>
      </trkpt>
      <trkpt lat="44.42661" lon="5.22431">
        <ele>515</ele>
        <time>2022-09-29T09:12:43Z</time>
      </trkpt>
      <trkpt lat="44.42662" lon="5.22432">
        <ele>515</ele>
        <time>2022-09-29T09:12:44Z</time>
      </trkpt>
      <trkpt lat="44.42662" lon="5.22433">
        <ele>515</ele>
        <time>2022-09-29T09:12:45Z</time>
      </trkpt>
      <trkpt lat="44.42662" lon="5.22434">
        <ele>515</ele>
        <time>2022-09-29T09:12:46Z</time>
      </trkpt>
      <trkpt lat="44.42662" lon="5.22435">
        <ele>515</ele>
        <time>2022-09-29T09:12:47Z</time>
      </trkpt>
      <trkpt lat="44.42662" lon="5.22436">
        <ele>515</ele>
        <time>2022-09-29T09:12:48Z</time>
      </trkpt>
      <trkpt lat="44.42662" lon="5.22437">
        <ele>516</ele>
        <time>2022-09-29T09:12:49Z</time>
      </trkpt>
      <trkpt lat="44.42662" lon="5.22439">
        <ele>516</ele>
        <time>2022-09-29T09:12:50Z</time>
      </trkpt>
      <trkpt lat="44.42662" lon="5.2244">
        <ele>516</ele>
        <time>2022-09-29T09:12:51Z</time>
      </trkpt>
      <trkpt lat="44.42662" lon="5.22441">
        <ele>516</ele>
        <time>2022-09-29T09:12:52Z</time>
      </trkpt>
      <trkpt lat="44.42662" lon="5.22441">
        <ele>516</ele>
        <time>2022-09-29T09:12:53Z</time>
      </trkpt>
      <trkpt lat="44.42662" lon="5.22442">
        <ele>517</ele>
        <time>2022-09-29T09:12:54Z</time>
      </trkpt>
      <trkpt lat="44.42662" lon="5.22443">
        <ele>517</ele>
        <time>2022-09-29T09:12:55Z</time>
      </trkpt>
      <trkpt lat="44.42663" lon="5.22444">
        <ele>517</ele>
        <time>2022-09-29T09:12:56Z</time>
      </trkpt>
      <trkpt lat="44.42663" lon="5.22445">
        <ele>517</ele>
        <time>2022-09-29T09:12:57Z</time>
      </trkpt>
      <trkpt lat="44.42663" lon="5.22446">
        <ele>517</ele>
        <time>2022-09-29T09:12:58Z</time>
      </trkpt>
      <trkpt lat="44.42663" lon="5.22447">
        <ele>517</ele>
        <time>2022-09-29T09:12:59Z</time>
      </trkpt>
      <trkpt lat="44.42664" lon="5.22448">
        <ele>517</ele>
        <time>2022-09-29T09:13:00Z</time>
      </trkpt>
      <trkpt lat="44.42664" lon="5.22448">
        <ele>517</ele>
        <time>2022-09-29T09:13:01Z</time>
      </trkpt>
      <trkpt lat="44.42664" lon="5.22449">
        <ele>517</ele>
        <time>2022-09-29T09:13:02Z</time>
      </trkpt>
      <trkpt lat="44.42664" lon="5.2245">
        <ele>517</ele>
        <time>2022-09-29T09:13:03Z</time>
      </trkpt>
      <trkpt lat="44.42664" lon="5.22451">
        <ele>518</ele>
        <time>2022-09-29T09:13:04Z</time>
      </trkpt>
      <trkpt lat="44.42664" lon="5.22452">
        <ele>518</ele>
        <time>2022-09-29T09:13:05Z</time>
      </trkpt>
      <trkpt lat="44.42664" lon="5.22453">
        <ele>518</ele>
        <time>2022-09-29T09:13:06Z</time>
      </trkpt>
      <trkpt lat="44.42664" lon="5.22455">
        <ele>518</ele>
        <time>2022-09-29T09:13:07Z</time>
      </trkpt>
      <trkpt lat="44.42664" lon="5.22456">
        <ele>518</ele>
        <time>2022-09-29T09:13:08Z</time>
      </trkpt>
      <trkpt lat="44.42665" lon="5.22457">
        <ele>518</ele>
        <time>2022-09-29T09:13:09Z</time>
      </trkpt>
      <trkpt lat="44.42665" lon="5.22458">
        <ele>518</ele>
        <time>2022-09-29T09:13:10Z</time>
      </trkpt>
      <trkpt lat="44.42665" lon="5.22459">
        <ele>518</ele>
        <time>2022-09-29T09:13:11Z</time>
      </trkpt>
      <trkpt lat="44.42665" lon="5.2246">
        <ele>518</ele>
        <time>2022-09-29T09:13:12Z</time>
      </trkpt>
      <trkpt lat="44.42664" lon="5.2246">
        <ele>518</ele>
        <time>2022-09-29T09:13:13Z</time>
      </trkpt>
      <trkpt lat="44.42664" lon="5.22461">
        <ele>519</ele>
        <time>2022-09-29T09:13:14Z</time>
      </trkpt>
      <trkpt lat="44.42664" lon="5.22462">
        <ele>519</ele>
        <time>2022-09-29T09:13:15Z</time>
      </trkpt>
      <trkpt lat="44.42664" lon="5.22463">
        <ele>519</ele>
        <time>2022-09-29T09:13:16Z</time>
      </trkpt>
      <trkpt lat="44.42665" lon="5.22464">
        <ele>519</ele>
        <time>2022-09-29T09:13:17Z</time>
      </trkpt>
      <trkpt lat="44.42665" lon="5.22465">
        <ele>519</ele>
        <time>2022-09-29T09:13:18Z</time>
      </trkpt>
      <trkpt lat="44.42665" lon="5.22466">
        <ele>520</ele>
        <time>2022-09-29T09:13:19Z</time>
      </trkpt>
      <trkpt lat="44.42665" lon="5.22467">
        <ele>520</ele>
        <time>2022-09-29T09:13:20Z</time>
      </trkpt>
      <trkpt lat="44.42666" lon="5.22468">
        <ele>520</ele>
        <time>2022-09-29T09:13:21Z</time>
      </trkpt>
      <trkpt lat="44.42666" lon="5.22469">
        <ele>520</ele>
        <time>2022-09-29T09:13:22Z</time>
      </trkpt>
      <trkpt lat="44.42666" lon="5.2247">
        <ele>520</ele>
        <time>2022-09-29T09:13:23Z</time>
      </trkpt>
      <trkpt lat="44.42666" lon="5.22472">
        <ele>520</ele>
        <time>2022-09-29T09:13:24Z</time>
      </trkpt>
      <trkpt lat="44.42666" lon="5.22473">
        <ele>520</ele>
        <time>2022-09-29T09:13:25Z</time>
      </trkpt>
      <trkpt lat="44.42667" lon="5.22474">
        <ele>520</ele>
        <time>2022-09-29T09:13:26Z</time>
      </trkpt>
      <trkpt lat="44.42667" lon="5.22475">
        <ele>520</ele>
        <time>2022-09-29T09:13:27Z</time>
      </trkpt>
      <trkpt lat="44.42667" lon="5.22477">
        <ele>520</ele>
        <time>2022-09-29T09:13:28Z</time>
      </trkpt>
      <trkpt lat="44.42667" lon="5.22478">
        <ele>521</ele>
        <time>2022-09-29T09:13:29Z</time>
      </trkpt>
      <trkpt lat="44.42667" lon="5.22479">
        <ele>521</ele>
        <time>2022-09-29T09:13:30Z</time>
      </trkpt>
      <trkpt lat="44.42666" lon="5.2248">
        <ele>521</ele>
        <time>2022-09-29T09:13:31Z</time>
      </trkpt>
      <trkpt lat="44.42666" lon="5.22482">
        <ele>521</ele>
        <time>2022-09-29T09:13:32Z</time>
      </trkpt>
      <trkpt lat="44.42666" lon="5.22483">
        <ele>521</ele>
        <time>2022-09-29T09:13:33Z</time>
      </trkpt>
      <trkpt lat="44.42666" lon="5.22484">
        <ele>521</ele>
        <time>2022-09-29T09:13:34Z</time>
      </trkpt>
      <trkpt lat="44.42666" lon="5.22485">
        <ele>521</ele>
        <time>2022-09-29T09:13:35Z</time>
      </trkpt>
      <trkpt lat="44.42666" lon="5.22486">
        <ele>521</ele>
        <time>2022-09-29T09:13:36Z</time>
      </trkpt>
      <trkpt lat="44.42666" lon="5.22487">
        <ele>521</ele>
        <time>2022-09-29T09:13:37Z</time>
      </trkpt>
      <trkpt lat="44.42666" lon="5.22488">
        <ele>521</ele>
        <time>2022-09-29T09:13:38Z</time>
      </trkpt>
      <trkpt lat="44.42666" lon="5.22489">
        <ele>522</ele>
        <time>2022-09-29T09:13:39Z</time>
      </trkpt>
      <trkpt lat="44.42666" lon="5.2249">
        <ele>522</ele>
        <time>2022-09-29T09:13:40Z</time>
      </trkpt>
      <trkpt lat="44.42666" lon="5.22491">
        <ele>522</ele>
        <time>2022-09-29T09:13:41Z</time>
      </trkpt>
      <trkpt lat="44.42665" lon="5.22492">
        <ele>522</ele>
        <time>2022-09-29T09:13:42Z</time>
      </trkpt>
      <trkpt lat="44.42665" lon="5.22493">
        <ele>522</ele>
        <time>2022-09-29T09:13:43Z</time>
      </trkpt>
      <trkpt lat="44.42665" lon="5.22493">
        <ele>523</ele>
        <time>2022-09-29T09:13:44Z</time>
      </trkpt>
      <trkpt lat="44.42665" lon="5.22494">
        <ele>523</ele>
        <time>2022-09-29T09:13:45Z</time>
      </trkpt>
      <trkpt lat="44.42665" lon="5.22495">
        <ele>523</ele>
        <time>2022-09-29T09:13:46Z</time>
      </trkpt>
      <trkpt lat="44.42665" lon="5.22496">
        <ele>523</ele>
        <time>2022-09-29T09:13:47Z</time>
      </trkpt>
      <trkpt lat="44.42665" lon="5.22497">
        <ele>523</ele>
        <time>2022-09-29T09:13:48Z</time>
      </trkpt>
      <trkpt lat="44.42664" lon="5.22498">
        <ele>523</ele>
        <time>2022-09-29T09:13:49Z</time>
      </trkpt>
      <trkpt lat="44.42664" lon="5.22499">
        <ele>523</ele>
        <time>2022-09-29T09:13:50Z</time>
      </trkpt>
      <trkpt lat="44.42664" lon="5.225">
        <ele>523</ele>
        <time>2022-09-29T09:13:51Z</time>
      </trkpt>
      <trkpt lat="44.42664" lon="5.22501">
        <ele>523</ele>
        <time>2022-09-29T09:13:52Z</time>
      </trkpt>
      <trkpt lat="44.42663" lon="5.22502">
        <ele>523</ele>
        <time>2022-09-29T09:13:53Z</time>
      </trkpt>
      <trkpt lat="44.42663" lon="5.22503">
        <ele>524</ele>
        <time>2022-09-29T09:13:54Z</time>
      </trkpt>
      <trkpt lat="44.42663" lon="5.22504">
        <ele>524</ele>
        <time>2022-09-29T09:13:55Z</time>
      </trkpt>
      <trkpt lat="44.42662" lon="5.22505">
        <ele>524</ele>
        <time>2022-09-29T09:13:56Z</time>
      </trkpt>
      <trkpt lat="44.42662" lon="5.22506">
        <ele>524</ele>
        <time>2022-09-29T09:13:57Z</time>
      </trkpt>
      <trkpt lat="44.42662" lon="5.22507">
        <ele>524</ele>
        <time>2022-09-29T09:13:58Z</time>
      </trkpt>
      <trkpt lat="44.42661" lon="5.22508">
        <ele>524</ele>
        <time>2022-09-29T09:13:59Z</time>
      </trkpt>
      <trkpt lat="44.42661" lon="5.22509">
        <ele>524</ele>
        <time>2022-09-29T09:14:00Z</time>
      </trkpt>
      <trkpt lat="44.4266" lon="5.22511">
        <ele>524</ele>
        <time>2022-09-29T09:14:01Z</time>
      </trkpt>
      <trkpt lat="44.42659" lon="5.22512">
        <ele>524</ele>
        <time>2022-09-29T09:14:02Z</time>
      </trkpt>
      <trkpt lat="44.42658" lon="5.22513">
        <ele>524</ele>
        <time>2022-09-29T09:14:03Z</time>
      </trkpt>
      <trkpt lat="44.42657" lon="5.22514">
        <ele>525</ele>
        <time>2022-09-29T09:14:04Z</time>
      </trkpt>
      <trkpt lat="44.42656" lon="5.22515">
        <ele>525</ele>
        <time>2022-09-29T09:14:05Z</time>
      </trkpt>
      <trkpt lat="44.42655" lon="5.22516">
        <ele>525</ele>
        <time>2022-09-29T09:14:06Z</time>
      </trkpt>
      <trkpt lat="44.42654" lon="5.22516">
        <ele>525</ele>
        <time>2022-09-29T09:14:07Z</time>
      </trkpt>
      <trkpt lat="44.42654" lon="5.22518">
        <ele>525</ele>
        <time>2022-09-29T09:14:08Z</time>
      </trkpt>
      <trkpt lat="44.42653" lon="5.22519">
        <ele>525</ele>
        <time>2022-09-29T09:14:09Z</time>
      </trkpt>
      <trkpt lat="44.42653" lon="5.22519">
        <ele>525</ele>
        <time>2022-09-29T09:14:10Z</time>
      </trkpt>
      <trkpt lat="44.42653" lon="5.2252">
        <ele>525</ele>
        <time>2022-09-29T09:14:11Z</time>
      </trkpt>
      <trkpt lat="44.42652" lon="5.22521">
        <ele>525</ele>
        <time>2022-09-29T09:14:12Z</time>
      </trkpt>
      <trkpt lat="44.42652" lon="5.22522">
        <ele>525</ele>
        <time>2022-09-29T09:14:13Z</time>
      </trkpt>
      <trkpt lat="44.42651" lon="5.22523">
        <ele>526</ele>
        <time>2022-09-29T09:14:14Z</time>
      </trkpt>
      <trkpt lat="44.42651" lon="5.22524">
        <ele>526</ele>
        <time>2022-09-29T09:14:15Z</time>
      </trkpt>
      <trkpt lat="44.4265" lon="5.22524">
        <ele>526</ele>
        <time>2022-09-29T09:14:16Z</time>
      </trkpt>
      <trkpt lat="44.42649" lon="5.22525">
        <ele>526</ele>
        <time>2022-09-29T09:14:17Z</time>
      </trkpt>
      <trkpt lat="44.42649" lon="5.22526">
        <ele>526</ele>
        <time>2022-09-29T09:14:18Z</time>
      </trkpt>
      <trkpt lat="44.42648" lon="5.22527">
        <ele>526</ele>
        <time>2022-09-29T09:14:19Z</time>
      </trkpt>
      <trkpt lat="44.42648" lon="5.22528">
        <ele>526</ele>
        <time>2022-09-29T09:14:20Z</time>
      </trkpt>
      <trkpt lat="44.42648" lon="5.22529">
        <ele>526</ele>
        <time>2022-09-29T09:14:21Z</time>
      </trkpt>
      <trkpt lat="44.42647" lon="5.2253">
        <ele>526</ele>
        <time>2022-09-29T09:14:22Z</time>
      </trkpt>
      <trkpt lat="44.42647" lon="5.22531">
        <ele>526</ele>
        <time>2022-09-29T09:14:23Z</time>
      </trkpt>
      <trkpt lat="44.42646" lon="5.22532">
        <ele>527</ele>
        <time>2022-09-29T09:14:24Z</time>
      </trkpt>
      <trkpt lat="44.42645" lon="5.22532">
        <ele>527</ele>
        <time>2022-09-29T09:14:25Z</time>
      </trkpt>
      <trkpt lat="44.42645" lon="5.22533">
        <ele>527</ele>
        <time>2022-09-29T09:14:26Z</time>
      </trkpt>
      <trkpt lat="44.42644" lon="5.22534">
        <ele>527</ele>
        <time>2022-09-29T09:14:27Z</time>
      </trkpt>
      <trkpt lat="44.42644" lon="5.22535">
        <ele>527</ele>
        <time>2022-09-29T09:14:28Z</time>
      </trkpt>
      <trkpt lat="44.42643" lon="5.22535">
        <ele>528</ele>
        <time>2022-09-29T09:14:29Z</time>
      </trkpt>
      <trkpt lat="44.42642" lon="5.22536">
        <ele>528</ele>
        <time>2022-09-29T09:14:30Z</time>
      </trkpt>
      <trkpt lat="44.42642" lon="5.22537">
        <ele>528</ele>
        <time>2022-09-29T09:14:31Z</time>
      </trkpt>
      <trkpt lat="44.42641" lon="5.22538">
        <ele>529</ele>
        <time>2022-09-29T09:14:42Z</time>
      </trkpt>
      <trkpt lat="44.42641" lon="5.22538">
        <ele>529</ele>
        <time>2022-09-29T09:14:43Z</time>
      </trkpt>
      <trkpt lat="44.4264" lon="5.22539">
        <ele>529</ele>
        <time>2022-09-29T09:14:44Z</time>
      </trkpt>
      <trkpt lat="44.4264" lon="5.22539">
        <ele>529</ele>
        <time>2022-09-29T09:14:45Z</time>
      </trkpt>
      <trkpt lat="44.42639" lon="5.2254">
        <ele>529</ele>
        <time>2022-09-29T09:14:46Z</time>
      </trkpt>
      <trkpt lat="44.42639" lon="5.2254">
        <ele>529</ele>
        <time>2022-09-29T09:14:47Z</time>
      </trkpt>
      <trkpt lat="44.42638" lon="5.22541">
        <ele>529</ele>
        <time>2022-09-29T09:14:48Z</time>
      </trkpt>
      <trkpt lat="44.42637" lon="5.22541">
        <ele>529</ele>
        <time>2022-09-29T09:14:49Z</time>
      </trkpt>
      <trkpt lat="44.42637" lon="5.22542">
        <ele>529</ele>
        <time>2022-09-29T09:14:50Z</time>
      </trkpt>
      <trkpt lat="44.42636" lon="5.22542">
        <ele>529</ele>
        <time>2022-09-29T09:14:51Z</time>
      </trkpt>
      <trkpt lat="44.42636" lon="5.22542">
        <ele>529</ele>
        <time>2022-09-29T09:14:52Z</time>
      </trkpt>
      <trkpt lat="44.42635" lon="5.22543">
        <ele>529</ele>
        <time>2022-09-29T09:14:53Z</time>
      </trkpt>
      <trkpt lat="44.42634" lon="5.22543">
        <ele>530</ele>
        <time>2022-09-29T09:14:54Z</time>
      </trkpt>
      <trkpt lat="44.42634" lon="5.22544">
        <ele>530</ele>
        <time>2022-09-29T09:14:55Z</time>
      </trkpt>
      <trkpt lat="44.42633" lon="5.22544">
        <ele>530</ele>
        <time>2022-09-29T09:14:56Z</time>
      </trkpt>
      <trkpt lat="44.42633" lon="5.22544">
        <ele>530</ele>
        <time>2022-09-29T09:14:57Z</time>
      </trkpt>
      <trkpt lat="44.42632" lon="5.22545">
        <ele>530</ele>
        <time>2022-09-29T09:14:58Z</time>
      </trkpt>
      <trkpt lat="44.42632" lon="5.22545">
        <ele>530</ele>
        <time>2022-09-29T09:14:59Z</time>
      </trkpt>
      <trkpt lat="44.42631" lon="5.22546">
        <ele>530</ele>
        <time>2022-09-29T09:15:00Z</time>
      </trkpt>
      <trkpt lat="44.42631" lon="5.22546">
        <ele>530</ele>
        <time>2022-09-29T09:15:01Z</time>
      </trkpt>
      <trkpt lat="44.4263" lon="5.22547">
        <ele>530</ele>
        <time>2022-09-29T09:15:02Z</time>
      </trkpt>
      <trkpt lat="44.4263" lon="5.22548">
        <ele>530</ele>
        <time>2022-09-29T09:15:03Z</time>
      </trkpt>
      <trkpt lat="44.4263" lon="5.22549">
        <ele>531</ele>
        <time>2022-09-29T09:15:04Z</time>
      </trkpt>
      <trkpt lat="44.42629" lon="5.2255">
        <ele>531</ele>
        <time>2022-09-29T09:15:05Z</time>
      </trkpt>
      <trkpt lat="44.42629" lon="5.2255">
        <ele>531</ele>
        <time>2022-09-29T09:15:06Z</time>
      </trkpt>
      <trkpt lat="44.42629" lon="5.22551">
        <ele>531</ele>
        <time>2022-09-29T09:15:07Z</time>
      </trkpt>
      <trkpt lat="44.42629" lon="5.22552">
        <ele>531</ele>
        <time>2022-09-29T09:15:08Z</time>
      </trkpt>
      <trkpt lat="44.42628" lon="5.22553">
        <ele>532</ele>
        <time>2022-09-29T09:15:09Z</time>
      </trkpt>
      <trkpt lat="44.42628" lon="5.22554">
        <ele>532</ele>
        <time>2022-09-29T09:15:10Z</time>
      </trkpt>
      <trkpt lat="44.42628" lon="5.22554">
        <ele>532</ele>
        <time>2022-09-29T09:15:11Z</time>
      </trkpt>
      <trkpt lat="44.42628" lon="5.22555">
        <ele>532</ele>
        <time>2022-09-29T09:15:12Z</time>
      </trkpt>
      <trkpt lat="44.42627" lon="5.22556">
        <ele>532</ele>
        <time>2022-09-29T09:15:13Z</time>
      </trkpt>
      <trkpt lat="44.42627" lon="5.22557">
        <ele>532</ele>
        <time>2022-09-29T09:15:14Z</time>
      </trkpt>
      <trkpt lat="44.42627" lon="5.22558">
        <ele>532</ele>
        <time>2022-09-29T09:15:15Z</time>
      </trkpt>
      <trkpt lat="44.42627" lon="5.22558">
        <ele>532</ele>
        <time>2022-09-29T09:15:16Z</time>
      </trkpt>
      <trkpt lat="44.42626" lon="5.22559">
        <ele>532</ele>
        <time>2022-09-29T09:15:17Z</time>
      </trkpt>
      <trkpt lat="44.42626" lon="5.2256">
        <ele>532</ele>
        <time>2022-09-29T09:15:18Z</time>
      </trkpt>
      <trkpt lat="44.42626" lon="5.22561">
        <ele>533</ele>
        <time>2022-09-29T09:15:19Z</time>
      </trkpt>
      <trkpt lat="44.42626" lon="5.22562">
        <ele>533</ele>
        <time>2022-09-29T09:15:20Z</time>
      </trkpt>
      <trkpt lat="44.42626" lon="5.22563">
        <ele>533</ele>
        <time>2022-09-29T09:15:21Z</time>
      </trkpt>
      <trkpt lat="44.42626" lon="5.22564">
        <ele>533</ele>
        <time>2022-09-29T09:15:22Z</time>
      </trkpt>
      <trkpt lat="44.42625" lon="5.22566">
        <ele>533</ele>
        <time>2022-09-29T09:15:23Z</time>
      </trkpt>
      <trkpt lat="44.42625" lon="5.22567">
        <ele>533</ele>
        <time>2022-09-29T09:15:24Z</time>
      </trkpt>
      <trkpt lat="44.42625" lon="5.22567">
        <ele>533</ele>
        <time>2022-09-29T09:15:25Z</time>
      </trkpt>
      <trkpt lat="44.42624" lon="5.22568">
        <ele>533</ele>
        <time>2022-09-29T09:15:26Z</time>
      </trkpt>
      <trkpt lat="44.42624" lon="5.22569">
        <ele>533</ele>
        <time>2022-09-29T09:15:27Z</time>
      </trkpt>
      <trkpt lat="44.42623" lon="5.2257">
        <ele>533</ele>
        <time>2022-09-29T09:15:28Z</time>
      </trkpt>
      <trkpt lat="44.42623" lon="5.22571">
        <ele>534</ele>
        <time>2022-09-29T09:15:29Z</time>
      </trkpt>
      <trkpt lat="44.42622" lon="5.22572">
        <ele>534</ele>
        <time>2022-09-29T09:15:30Z</time>
      </trkpt>
      <trkpt lat="44.42621" lon="5.22573">
        <ele>534</ele>
        <time>2022-09-29T09:15:31Z</time>
      </trkpt>
      <trkpt lat="44.42621" lon="5.22574">
        <ele>534</ele>
        <time>2022-09-29T09:15:32Z</time>
      </trkpt>
      <trkpt lat="44.4262" lon="5.22574">
        <ele>534</ele>
        <time>2022-09-29T09:15:33Z</time>
      </trkpt>
      <trkpt lat="44.42619" lon="5.22575">
        <ele>535</ele>
        <time>2022-09-29T09:15:34Z</time>
      </trkpt>
      <trkpt lat="44.42619" lon="5.22576">
        <ele>535</ele>
        <time>2022-09-29T09:15:35Z</time>
      </trkpt>
      <trkpt lat="44.42618" lon="5.22577">
        <ele>535</ele>
        <time>2022-09-29T09:15:36Z</time>
      </trkpt>
      <trkpt lat="44.42617" lon="5.22578">
        <ele>535</ele>
        <time>2022-09-29T09:15:37Z</time>
      </trkpt>
      <trkpt lat="44.42616" lon="5.22579">
        <ele>535</ele>
        <time>2022-09-29T09:15:38Z</time>
      </trkpt>
      <trkpt lat="44.42616" lon="5.2258">
        <ele>536</ele>
        <time>2022-09-29T09:15:39Z</time>
      </trkpt>
      <trkpt lat="44.42615" lon="5.2258">
        <ele>536</ele>
        <time>2022-09-29T09:15:40Z</time>
      </trkpt>
      <trkpt lat="44.42615" lon="5.22581">
        <ele>536</ele>
        <time>2022-09-29T09:15:41Z</time>
      </trkpt>
      <trkpt lat="44.42614" lon="5.22582">
        <ele>536</ele>
        <time>2022-09-29T09:15:42Z</time>
      </trkpt>
      <trkpt lat="44.42614" lon="5.22583">
        <ele>536</ele>
        <time>2022-09-29T09:15:43Z</time>
      </trkpt>
      <trkpt lat="44.42613" lon="5.22585">
        <ele>536</ele>
        <time>2022-09-29T09:15:44Z</time>
      </trkpt>
      <trkpt lat="44.42613" lon="5.22586">
        <ele>536</ele>
        <time>2022-09-29T09:15:45Z</time>
      </trkpt>
      <trkpt lat="44.42613" lon="5.22587">
        <ele>536</ele>
        <time>2022-09-29T09:15:46Z</time>
      </trkpt>
      <trkpt lat="44.42612" lon="5.22588">
        <ele>536</ele>
        <time>2022-09-29T09:15:47Z</time>
      </trkpt>
      <trkpt lat="44.42612" lon="5.22589">
        <ele>536</ele>
        <time>2022-09-29T09:15:48Z</time>
      </trkpt>
      <trkpt lat="44.42612" lon="5.2259">
        <ele>536</ele>
        <time>2022-09-29T09:15:49Z</time>
      </trkpt>
      <trkpt lat="44.42612" lon="5.22591">
        <ele>536</ele>
        <time>2022-09-29T09:15:50Z</time>
      </trkpt>
      <trkpt lat="44.42612" lon="5.22592">
        <ele>536</ele>
        <time>2022-09-29T09:15:51Z</time>
      </trkpt>
      <trkpt lat="44.42612" lon="5.22594">
        <ele>536</ele>
        <time>2022-09-29T09:15:52Z</time>
      </trkpt>
      <trkpt lat="44.42612" lon="5.22595">
        <ele>536</ele>
        <time>2022-09-29T09:15:53Z</time>
      </trkpt>
      <trkpt lat="44.42612" lon="5.22596">
        <ele>537</ele>
        <time>2022-09-29T09:15:54Z</time>
      </trkpt>
      <trkpt lat="44.42612" lon="5.22597">
        <ele>537</ele>
        <time>2022-09-29T09:15:55Z</time>
      </trkpt>
      <trkpt lat="44.42612" lon="5.22598">
        <ele>537</ele>
        <time>2022-09-29T09:15:56Z</time>
      </trkpt>
      <trkpt lat="44.42612" lon="5.22599">
        <ele>537</ele>
        <time>2022-09-29T09:15:57Z</time>
      </trkpt>
      <trkpt lat="44.42612" lon="5.226">
        <ele>537</ele>
        <time>2022-09-29T09:15:58Z</time>
      </trkpt>
      <trkpt lat="44.42612" lon="5.22601">
        <ele>537</ele>
        <time>2022-09-29T09:15:59Z</time>
      </trkpt>
      <trkpt lat="44.42612" lon="5.22603">
        <ele>537</ele>
        <time>2022-09-29T09:16:00Z</time>
      </trkpt>
      <trkpt lat="44.42612" lon="5.22604">
        <ele>537</ele>
        <time>2022-09-29T09:16:01Z</time>
      </trkpt>
      <trkpt lat="44.42612" lon="5.22605">
        <ele>537</ele>
        <time>2022-09-29T09:16:02Z</time>
      </trkpt>
      <trkpt lat="44.42612" lon="5.22606">
        <ele>537</ele>
        <time>2022-09-29T09:16:03Z</time>
      </trkpt>
      <trkpt lat="44.42611" lon="5.22608">
        <ele>537</ele>
        <time>2022-09-29T09:16:04Z</time>
      </trkpt>
      <trkpt lat="44.42611" lon="5.22609">
        <ele>537</ele>
        <time>2022-09-29T09:16:05Z</time>
      </trkpt>
      <trkpt lat="44.42611" lon="5.2261">
        <ele>537</ele>
        <time>2022-09-29T09:16:06Z</time>
      </trkpt>
      <trkpt lat="44.42611" lon="5.22611">
        <ele>537</ele>
        <time>2022-09-29T09:16:07Z</time>
      </trkpt>
      <trkpt lat="44.4261" lon="5.22613">
        <ele>537</ele>
        <time>2022-09-29T09:16:08Z</time>
      </trkpt>
      <trkpt lat="44.4261" lon="5.22614">
        <ele>538</ele>
        <time>2022-09-29T09:16:09Z</time>
      </trkpt>
      <trkpt lat="44.4261" lon="5.22615">
        <ele>538</ele>
        <time>2022-09-29T09:16:10Z</time>
      </trkpt>
      <trkpt lat="44.4261" lon="5.22616">
        <ele>538</ele>
        <time>2022-09-29T09:16:11Z</time>
      </trkpt>
      <trkpt lat="44.4261" lon="5.22617">
        <ele>538</ele>
        <time>2022-09-29T09:16:12Z</time>
      </trkpt>
      <trkpt lat="44.4261" lon="5.22619">
        <ele>538</ele>
        <time>2022-09-29T09:16:13Z</time>
      </trkpt>
      <trkpt lat="44.42609" lon="5.2262">
        <ele>538</ele>
        <time>2022-09-29T09:16:14Z</time>
      </trkpt>
      <trkpt lat="44.42609" lon="5.22621">
        <ele>538</ele>
        <time>2022-09-29T09:16:15Z</time>
      </trkpt>
      <trkpt lat="44.42609" lon="5.22622">
        <ele>538</ele>
        <time>2022-09-29T09:16:16Z</time>
      </trkpt>
      <trkpt lat="44.42609" lon="5.22622">
        <ele>538</ele>
        <time>2022-09-29T09:16:17Z</time>
      </trkpt>
      <trkpt lat="44.42609" lon="5.22623">
        <ele>538</ele>
        <time>2022-09-29T09:16:18Z</time>
      </trkpt>
      <trkpt lat="44.42609" lon="5.22624">
        <ele>539</ele>
        <time>2022-09-29T09:16:19Z</time>
      </trkpt>
      <trkpt lat="44.42608" lon="5.22625">
        <ele>539</ele>
        <time>2022-09-29T09:16:20Z</time>
      </trkpt>
      <trkpt lat="44.42608" lon="5.22626">
        <ele>539</ele>
        <time>2022-09-29T09:16:21Z</time>
      </trkpt>
      <trkpt lat="44.42607" lon="5.22627">
        <ele>539</ele>
        <time>2022-09-29T09:16:22Z</time>
      </trkpt>
      <trkpt lat="44.42607" lon="5.22629">
        <ele>539</ele>
        <time>2022-09-29T09:16:23Z</time>
      </trkpt>
      <trkpt lat="44.42607" lon="5.2263">
        <ele>540</ele>
        <time>2022-09-29T09:16:24Z</time>
      </trkpt>
      <trkpt lat="44.42606" lon="5.22631">
        <ele>540</ele>
        <time>2022-09-29T09:16:25Z</time>
      </trkpt>
      <trkpt lat="44.42606" lon="5.22632">
        <ele>540</ele>
        <time>2022-09-29T09:16:26Z</time>
      </trkpt>
      <trkpt lat="44.42606" lon="5.22633">
        <ele>540</ele>
        <time>2022-09-29T09:16:27Z</time>
      </trkpt>
      <trkpt lat="44.42605" lon="5.22634">
        <ele>540</ele>
        <time>2022-09-29T09:16:28Z</time>
      </trkpt>
      <trkpt lat="44.42605" lon="5.22635">
        <ele>540</ele>
        <time>2022-09-29T09:16:29Z</time>
      </trkpt>
      <trkpt lat="44.42604" lon="5.22636">
        <ele>540</ele>
        <time>2022-09-29T09:16:30Z</time>
      </trkpt>
      <trkpt lat="44.42603" lon="5.22637">
        <ele>540</ele>
        <time>2022-09-29T09:16:31Z</time>
      </trkpt>
      <trkpt lat="44.42603" lon="5.22638">
        <ele>540</ele>
        <time>2022-09-29T09:16:32Z</time>
      </trkpt>
      <trkpt lat="44.42602" lon="5.22639">
        <ele>540</ele>
        <time>2022-09-29T09:16:33Z</time>
      </trkpt>
      <trkpt lat="44.42602" lon="5.2264">
        <ele>541</ele>
        <time>2022-09-29T09:16:34Z</time>
      </trkpt>
      <trkpt lat="44.42601" lon="5.22641">
        <ele>541</ele>
        <time>2022-09-29T09:16:35Z</time>
      </trkpt>
      <trkpt lat="44.426" lon="5.22642">
        <ele>541</ele>
        <time>2022-09-29T09:16:36Z</time>
      </trkpt>
      <trkpt lat="44.426" lon="5.22643">
        <ele>541</ele>
        <time>2022-09-29T09:16:37Z</time>
      </trkpt>
      <trkpt lat="44.42599" lon="5.22644">
        <ele>541</ele>
        <time>2022-09-29T09:16:38Z</time>
      </trkpt>
      <trkpt lat="44.42598" lon="5.22644">
        <ele>541</ele>
        <time>2022-09-29T09:16:39Z</time>
      </trkpt>
      <trkpt lat="44.42598" lon="5.22645">
        <ele>541</ele>
        <time>2022-09-29T09:16:40Z</time>
      </trkpt>
      <trkpt lat="44.42597" lon="5.22646">
        <ele>541</ele>
        <time>2022-09-29T09:16:41Z</time>
      </trkpt>
      <trkpt lat="44.42596" lon="5.22646">
        <ele>541</ele>
        <time>2022-09-29T09:16:42Z</time>
      </trkpt>
      <trkpt lat="44.42596" lon="5.22647">
        <ele>541</ele>
        <time>2022-09-29T09:16:43Z</time>
      </trkpt>
      <trkpt lat="44.42595" lon="5.22647">
        <ele>542</ele>
        <time>2022-09-29T09:16:44Z</time>
      </trkpt>
      <trkpt lat="44.42594" lon="5.22647">
        <ele>542</ele>
        <time>2022-09-29T09:16:45Z</time>
      </trkpt>
      <trkpt lat="44.42594" lon="5.22648">
        <ele>542</ele>
        <time>2022-09-29T09:16:46Z</time>
      </trkpt>
      <trkpt lat="44.42593" lon="5.22648">
        <ele>542</ele>
        <time>2022-09-29T09:16:47Z</time>
      </trkpt>
      <trkpt lat="44.42593" lon="5.22649">
        <ele>542</ele>
        <time>2022-09-29T09:16:48Z</time>
      </trkpt>
      <trkpt lat="44.42592" lon="5.22649">
        <ele>543</ele>
        <time>2022-09-29T09:16:49Z</time>
      </trkpt>
      <trkpt lat="44.42591" lon="5.22649">
        <ele>543</ele>
        <time>2022-09-29T09:16:50Z</time>
      </trkpt>
      <trkpt lat="44.4259" lon="5.2265">
        <ele>543</ele>
        <time>2022-09-29T09:16:51Z</time>
      </trkpt>
      <trkpt lat="44.4259" lon="5.2265">
        <ele>543</ele>
        <time>2022-09-29T09:16:52Z</time>
      </trkpt>
      <trkpt lat="44.42589" lon="5.2265">
        <ele>543</ele>
        <time>2022-09-29T09:16:53Z</time>
      </trkpt>
      <trkpt lat="44.42588" lon="5.2265">
        <ele>543</ele>
        <time>2022-09-29T09:16:54Z</time>
      </trkpt>
      <trkpt lat="44.42588" lon="5.2265">
        <ele>543</ele>
        <time>2022-09-29T09:16:55Z</time>
      </trkpt>
      <trkpt lat="44.42587" lon="5.22651">
        <ele>543</ele>
        <time>2022-09-29T09:16:56Z</time>
      </trkpt>
      <trkpt lat="44.42586" lon="5.22651">
        <ele>543</ele>
        <time>2022-09-29T09:16:57Z</time>
      </trkpt>
      <trkpt lat="44.42586" lon="5.22652">
        <ele>543</ele>
        <time>2022-09-29T09:16:58Z</time>
      </trkpt>
      <trkpt lat="44.42585" lon="5.22652">
        <ele>544</ele>
        <time>2022-09-29T09:16:59Z</time>
      </trkpt>
      <trkpt lat="44.42585" lon="5.22652">
        <ele>544</ele>
        <time>2022-09-29T09:17:00Z</time>
      </trkpt>
      <trkpt lat="44.42585" lon="5.22653">
        <ele>544</ele>
        <time>2022-09-29T09:17:01Z</time>
      </trkpt>
      <trkpt lat="44.42584" lon="5.22653">
        <ele>544</ele>
        <time>2022-09-29T09:17:02Z</time>
      </trkpt>
      <trkpt lat="44.42583" lon="5.22653">
        <ele>544</ele>
        <time>2022-09-29T09:17:03Z</time>
      </trkpt>
      <trkpt lat="44.42582" lon="5.22654">
        <ele>545</ele>
        <time>2022-09-29T09:17:04Z</time>
      </trkpt>
      <trkpt lat="44.42581" lon="5.22654">
        <ele>545</ele>
        <time>2022-09-29T09:17:05Z</time>
      </trkpt>
      <trkpt lat="44.42581" lon="5.22655">
        <ele>545</ele>
        <time>2022-09-29T09:17:06Z</time>
      </trkpt>
      <trkpt lat="44.4258" lon="5.22655">
        <ele>545</ele>
        <time>2022-09-29T09:17:07Z</time>
      </trkpt>
      <trkpt lat="44.4258" lon="5.22655">
        <ele>545</ele>
        <time>2022-09-29T09:17:08Z</time>
      </trkpt>
      <trkpt lat="44.42579" lon="5.22656">
        <ele>545</ele>
        <time>2022-09-29T09:17:09Z</time>
      </trkpt>
      <trkpt lat="44.42578" lon="5.22657">
        <ele>545</ele>
        <time>2022-09-29T09:17:10Z</time>
      </trkpt>
      <trkpt lat="44.42578" lon="5.22657">
        <ele>545</ele>
        <time>2022-09-29T09:17:11Z</time>
      </trkpt>
      <trkpt lat="44.42577" lon="5.22658">
        <ele>545</ele>
        <time>2022-09-29T09:17:12Z</time>
      </trkpt>
      <trkpt lat="44.42576" lon="5.22658">
        <ele>545</ele>
        <time>2022-09-29T09:17:13Z</time>
      </trkpt>
      <trkpt lat="44.42575" lon="5.22659">
        <ele>546</ele>
        <time>2022-09-29T09:17:14Z</time>
      </trkpt>
      <trkpt lat="44.42575" lon="5.2266">
        <ele>546</ele>
        <time>2022-09-29T09:17:15Z</time>
      </trkpt>
      <trkpt lat="44.42574" lon="5.22661">
        <ele>546</ele>
        <time>2022-09-29T09:17:16Z</time>
      </trkpt>
      <trkpt lat="44.42573" lon="5.22661">
        <ele>546</ele>
        <time>2022-09-29T09:17:17Z</time>
      </trkpt>
      <trkpt lat="44.42572" lon="5.22661">
        <ele>546</ele>
        <time>2022-09-29T09:17:18Z</time>
      </trkpt>
      <trkpt lat="44.42571" lon="5.22661">
        <ele>547</ele>
        <time>2022-09-29T09:17:19Z</time>
      </trkpt>
      <trkpt lat="44.42571" lon="5.22662">
        <ele>547</ele>
        <time>2022-09-29T09:17:20Z</time>
      </trkpt>
      <trkpt lat="44.4257" lon="5.22661">
        <ele>547</ele>
        <time>2022-09-29T09:17:21Z</time>
      </trkpt>
      <trkpt lat="44.42569" lon="5.22661">
        <ele>547</ele>
        <time>2022-09-29T09:17:22Z</time>
      </trkpt>
      <trkpt lat="44.42568" lon="5.22661">
        <ele>547</ele>
        <time>2022-09-29T09:17:23Z</time>
      </trkpt>
      <trkpt lat="44.42567" lon="5.22661">
        <ele>547</ele>
        <time>2022-09-29T09:17:24Z</time>
      </trkpt>
      <trkpt lat="44.42567" lon="5.22661">
        <ele>547</ele>
        <time>2022-09-29T09:17:25Z</time>
      </trkpt>
      <trkpt lat="44.42566" lon="5.22661">
        <ele>547</ele>
        <time>2022-09-29T09:17:26Z</time>
      </trkpt>
      <trkpt lat="44.42565" lon="5.22661">
        <ele>547</ele>
        <time>2022-09-29T09:17:27Z</time>
      </trkpt>
      <trkpt lat="44.42565" lon="5.22662">
        <ele>547</ele>
        <time>2022-09-29T09:17:28Z</time>
      </trkpt>
      <trkpt lat="44.42564" lon="5.22662">
        <ele>548</ele>
        <time>2022-09-29T09:17:29Z</time>
      </trkpt>
      <trkpt lat="44.42563" lon="5.22662">
        <ele>548</ele>
        <time>2022-09-29T09:17:30Z</time>
      </trkpt>
      <trkpt lat="44.42562" lon="5.22663">
        <ele>548</ele>
        <time>2022-09-29T09:17:31Z</time>
      </trkpt>
      <trkpt lat="44.42561" lon="5.22663">
        <ele>548</ele>
        <time>2022-09-29T09:17:32Z</time>
      </trkpt>
      <trkpt lat="44.4256" lon="5.22663">
        <ele>548</ele>
        <time>2022-09-29T09:17:33Z</time>
      </trkpt>
      <trkpt lat="44.42559" lon="5.22664">
        <ele>549</ele>
        <time>2022-09-29T09:17:34Z</time>
      </trkpt>
      <trkpt lat="44.42558" lon="5.22664">
        <ele>549</ele>
        <time>2022-09-29T09:17:35Z</time>
      </trkpt>
      <trkpt lat="44.42558" lon="5.22664">
        <ele>549</ele>
        <time>2022-09-29T09:17:36Z</time>
      </trkpt>
      <trkpt lat="44.42557" lon="5.22664">
        <ele>549</ele>
        <time>2022-09-29T09:17:37Z</time>
      </trkpt>
      <trkpt lat="44.42556" lon="5.22664">
        <ele>549</ele>
        <time>2022-09-29T09:17:38Z</time>
      </trkpt>
      <trkpt lat="44.42555" lon="5.22664">
        <ele>549</ele>
        <time>2022-09-29T09:17:39Z</time>
      </trkpt>
      <trkpt lat="44.42554" lon="5.22664">
        <ele>549</ele>
        <time>2022-09-29T09:17:40Z</time>
      </trkpt>
      <trkpt lat="44.42554" lon="5.22664">
        <ele>549</ele>
        <time>2022-09-29T09:17:41Z</time>
      </trkpt>
      <trkpt lat="44.42553" lon="5.22664">
        <ele>549</ele>
        <time>2022-09-29T09:17:42Z</time>
      </trkpt>
      <trkpt lat="44.42552" lon="5.22665">
        <ele>549</ele>
        <time>2022-09-29T09:17:43Z</time>
      </trkpt>
      <trkpt lat="44.42551" lon="5.22665">
        <ele>550</ele>
        <time>2022-09-29T09:17:44Z</time>
      </trkpt>
      <trkpt lat="44.4255" lon="5.22666">
        <ele>550</ele>
        <time>2022-09-29T09:17:45Z</time>
      </trkpt>
      <trkpt lat="44.4255" lon="5.22666">
        <ele>550</ele>
        <time>2022-09-29T09:17:46Z</time>
      </trkpt>
      <trkpt lat="44.42549" lon="5.22666">
        <ele>550</ele>
        <time>2022-09-29T09:17:47Z</time>
      </trkpt>
      <trkpt lat="44.42548" lon="5.22667">
        <ele>550</ele>
        <time>2022-09-29T09:17:48Z</time>
      </trkpt>
      <trkpt lat="44.42547" lon="5.22667">
        <ele>550</ele>
        <time>2022-09-29T09:17:49Z</time>
      </trkpt>
      <trkpt lat="44.42546" lon="5.22667">
        <ele>550</ele>
        <time>2022-09-29T09:17:50Z</time>
      </trkpt>
      <trkpt lat="44.42545" lon="5.22668">
        <ele>550</ele>
        <time>2022-09-29T09:17:51Z</time>
      </trkpt>
      <trkpt lat="44.42545" lon="5.22668">
        <ele>550</ele>
        <time>2022-09-29T09:17:52Z</time>
      </trkpt>
      <trkpt lat="44.42544" lon="5.22668">
        <ele>550</ele>
        <time>2022-09-29T09:17:53Z</time>
      </trkpt>
      <trkpt lat="44.42543" lon="5.22668">
        <ele>551</ele>
        <time>2022-09-29T09:17:54Z</time>
      </trkpt>
      <trkpt lat="44.42542" lon="5.22668">
        <ele>551</ele>
        <time>2022-09-29T09:17:55Z</time>
      </trkpt>
      <trkpt lat="44.42541" lon="5.22668">
        <ele>551</ele>
        <time>2022-09-29T09:17:56Z</time>
      </trkpt>
      <trkpt lat="44.4254" lon="5.22668">
        <ele>551</ele>
        <time>2022-09-29T09:17:57Z</time>
      </trkpt>
      <trkpt lat="44.4254" lon="5.22668">
        <ele>551</ele>
        <time>2022-09-29T09:17:58Z</time>
      </trkpt>
      <trkpt lat="44.42539" lon="5.22668">
        <ele>551</ele>
        <time>2022-09-29T09:17:59Z</time>
      </trkpt>
      <trkpt lat="44.42538" lon="5.22669">
        <ele>551</ele>
        <time>2022-09-29T09:18:00Z</time>
      </trkpt>
      <trkpt lat="44.42537" lon="5.22669">
        <ele>551</ele>
        <time>2022-09-29T09:18:01Z</time>
      </trkpt>
      <trkpt lat="44.42537" lon="5.22669">
        <ele>552</ele>
        <time>2022-09-29T09:18:02Z</time>
      </trkpt>
      <trkpt lat="44.42536" lon="5.2267">
        <ele>552</ele>
        <time>2022-09-29T09:18:03Z</time>
      </trkpt>
      <trkpt lat="44.42536" lon="5.2267">
        <ele>553</ele>
        <time>2022-09-29T09:18:04Z</time>
      </trkpt>
      <trkpt lat="44.42535" lon="5.22671">
        <ele>553</ele>
        <time>2022-09-29T09:18:05Z</time>
      </trkpt>
      <trkpt lat="44.42534" lon="5.22672">
        <ele>553</ele>
        <time>2022-09-29T09:18:06Z</time>
      </trkpt>
      <trkpt lat="44.42534" lon="5.22672">
        <ele>553</ele>
        <time>2022-09-29T09:18:07Z</time>
      </trkpt>
      <trkpt lat="44.42533" lon="5.22673">
        <ele>553</ele>
        <time>2022-09-29T09:18:08Z</time>
      </trkpt>
      <trkpt lat="44.42533" lon="5.22674">
        <ele>553</ele>
        <time>2022-09-29T09:18:09Z</time>
      </trkpt>
      <trkpt lat="44.42532" lon="5.22674">
        <ele>553</ele>
        <time>2022-09-29T09:18:10Z</time>
      </trkpt>
      <trkpt lat="44.42531" lon="5.22675">
        <ele>553</ele>
        <time>2022-09-29T09:18:11Z</time>
      </trkpt>
      <trkpt lat="44.42531" lon="5.22676">
        <ele>553</ele>
        <time>2022-09-29T09:18:12Z</time>
      </trkpt>
      <trkpt lat="44.4253" lon="5.22676">
        <ele>553</ele>
        <time>2022-09-29T09:18:13Z</time>
      </trkpt>
      <trkpt lat="44.4253" lon="5.22677">
        <ele>554</ele>
        <time>2022-09-29T09:18:14Z</time>
      </trkpt>
      <trkpt lat="44.42529" lon="5.22678">
        <ele>554</ele>
        <time>2022-09-29T09:18:15Z</time>
      </trkpt>
      <trkpt lat="44.42528" lon="5.22678">
        <ele>554</ele>
        <time>2022-09-29T09:18:16Z</time>
      </trkpt>
      <trkpt lat="44.42528" lon="5.22679">
        <ele>554</ele>
        <time>2022-09-29T09:18:17Z</time>
      </trkpt>
      <trkpt lat="44.42527" lon="5.2268">
        <ele>554</ele>
        <time>2022-09-29T09:18:18Z</time>
      </trkpt>
      <trkpt lat="44.42527" lon="5.22681">
        <ele>554</ele>
        <time>2022-09-29T09:18:19Z</time>
      </trkpt>
      <trkpt lat="44.42526" lon="5.22682">
        <ele>554</ele>
        <time>2022-09-29T09:18:20Z</time>
      </trkpt>
      <trkpt lat="44.42526" lon="5.22682">
        <ele>554</ele>
        <time>2022-09-29T09:18:21Z</time>
      </trkpt>
      <trkpt lat="44.42525" lon="5.22683">
        <ele>554</ele>
        <time>2022-09-29T09:18:22Z</time>
      </trkpt>
      <trkpt lat="44.42524" lon="5.22684">
        <ele>554</ele>
        <time>2022-09-29T09:18:23Z</time>
      </trkpt>
      <trkpt lat="44.42524" lon="5.22685">
        <ele>555</ele>
        <time>2022-09-29T09:18:24Z</time>
      </trkpt>
      <trkpt lat="44.42523" lon="5.22685">
        <ele>555</ele>
        <time>2022-09-29T09:18:25Z</time>
      </trkpt>
      <trkpt lat="44.42522" lon="5.22686">
        <ele>555</ele>
        <time>2022-09-29T09:18:26Z</time>
      </trkpt>
      <trkpt lat="44.42521" lon="5.22687">
        <ele>555</ele>
        <time>2022-09-29T09:18:27Z</time>
      </trkpt>
      <trkpt lat="44.42521" lon="5.22688">
        <ele>555</ele>
        <time>2022-09-29T09:18:28Z</time>
      </trkpt>
      <trkpt lat="44.4252" lon="5.22689">
        <ele>555</ele>
        <time>2022-09-29T09:18:29Z</time>
      </trkpt>
      <trkpt lat="44.42519" lon="5.2269">
        <ele>555</ele>
        <time>2022-09-29T09:18:30Z</time>
      </trkpt>
      <trkpt lat="44.42518" lon="5.2269">
        <ele>555</ele>
        <time>2022-09-29T09:18:31Z</time>
      </trkpt>
      <trkpt lat="44.42518" lon="5.22691">
        <ele>555</ele>
        <time>2022-09-29T09:18:32Z</time>
      </trkpt>
      <trkpt lat="44.42517" lon="5.22692">
        <ele>555</ele>
        <time>2022-09-29T09:18:33Z</time>
      </trkpt>
      <trkpt lat="44.42517" lon="5.22693">
        <ele>556</ele>
        <time>2022-09-29T09:18:34Z</time>
      </trkpt>
      <trkpt lat="44.42516" lon="5.22693">
        <ele>556</ele>
        <time>2022-09-29T09:18:35Z</time>
      </trkpt>
      <trkpt lat="44.42515" lon="5.22694">
        <ele>556</ele>
        <time>2022-09-29T09:18:36Z</time>
      </trkpt>
      <trkpt lat="44.42514" lon="5.22695">
        <ele>556</ele>
        <time>2022-09-29T09:18:37Z</time>
      </trkpt>
      <trkpt lat="44.42513" lon="5.22695">
        <ele>556</ele>
        <time>2022-09-29T09:18:38Z</time>
      </trkpt>
      <trkpt lat="44.42513" lon="5.22696">
        <ele>556</ele>
        <time>2022-09-29T09:18:39Z</time>
      </trkpt>
      <trkpt lat="44.42512" lon="5.22696">
        <ele>556</ele>
        <time>2022-09-29T09:18:40Z</time>
      </trkpt>
      <trkpt lat="44.42511" lon="5.22697">
        <ele>556</ele>
        <time>2022-09-29T09:18:41Z</time>
      </trkpt>
      <trkpt lat="44.4251" lon="5.22698">
        <ele>556</ele>
        <time>2022-09-29T09:18:42Z</time>
      </trkpt>
      <trkpt lat="44.42509" lon="5.22698">
        <ele>556</ele>
        <time>2022-09-29T09:18:43Z</time>
      </trkpt>
      <trkpt lat="44.42509" lon="5.22699">
        <ele>557</ele>
        <time>2022-09-29T09:18:44Z</time>
      </trkpt>
      <trkpt lat="44.42508" lon="5.227">
        <ele>557</ele>
        <time>2022-09-29T09:18:45Z</time>
      </trkpt>
      <trkpt lat="44.42507" lon="5.227">
        <ele>557</ele>
        <time>2022-09-29T09:18:46Z</time>
      </trkpt>
      <trkpt lat="44.42506" lon="5.22701">
        <ele>557</ele>
        <time>2022-09-29T09:18:47Z</time>
      </trkpt>
      <trkpt lat="44.42505" lon="5.22702">
        <ele>557</ele>
        <time>2022-09-29T09:18:48Z</time>
      </trkpt>
      <trkpt lat="44.42504" lon="5.22702">
        <ele>557</ele>
        <time>2022-09-29T09:18:49Z</time>
      </trkpt>
      <trkpt lat="44.42504" lon="5.22703">
        <ele>557</ele>
        <time>2022-09-29T09:18:50Z</time>
      </trkpt>
      <trkpt lat="44.42503" lon="5.22703">
        <ele>557</ele>
        <time>2022-09-29T09:18:51Z</time>
      </trkpt>
      <trkpt lat="44.42502" lon="5.22704">
        <ele>557</ele>
        <time>2022-09-29T09:18:52Z</time>
      </trkpt>
      <trkpt lat="44.42501" lon="5.22704">
        <ele>557</ele>
        <time>2022-09-29T09:18:53Z</time>
      </trkpt>
      <trkpt lat="44.425" lon="5.22705">
        <ele>558</ele>
        <time>2022-09-29T09:18:54Z</time>
      </trkpt>
      <trkpt lat="44.425" lon="5.22705">
        <ele>558</ele>
        <time>2022-09-29T09:18:55Z</time>
      </trkpt>
      <trkpt lat="44.42499" lon="5.22706">
        <ele>558</ele>
        <time>2022-09-29T09:18:56Z</time>
      </trkpt>
      <trkpt lat="44.42498" lon="5.22706">
        <ele>558</ele>
        <time>2022-09-29T09:18:57Z</time>
      </trkpt>
      <trkpt lat="44.42497" lon="5.22707">
        <ele>558</ele>
        <time>2022-09-29T09:18:58Z</time>
      </trkpt>
      <trkpt lat="44.42496" lon="5.22707">
        <ele>558</ele>
        <time>2022-09-29T09:18:59Z</time>
      </trkpt>
      <trkpt lat="44.42495" lon="5.22707">
        <ele>558</ele>
        <time>2022-09-29T09:19:00Z</time>
      </trkpt>
      <trkpt lat="44.42495" lon="5.22708">
        <ele>558</ele>
        <time>2022-09-29T09:19:01Z</time>
      </trkpt>
      <trkpt lat="44.42494" lon="5.22708">
        <ele>558</ele>
        <time>2022-09-29T09:19:02Z</time>
      </trkpt>
      <trkpt lat="44.42493" lon="5.22709">
        <ele>558</ele>
        <time>2022-09-29T09:19:03Z</time>
      </trkpt>
      <trkpt lat="44.42492" lon="5.22709">
        <ele>559</ele>
        <time>2022-09-29T09:19:04Z</time>
      </trkpt>
      <trkpt lat="44.42492" lon="5.2271">
        <ele>559</ele>
        <time>2022-09-29T09:19:05Z</time>
      </trkpt>
      <trkpt lat="44.42491" lon="5.2271">
        <ele>559</ele>
        <time>2022-09-29T09:19:06Z</time>
      </trkpt>
      <trkpt lat="44.4249" lon="5.22711">
        <ele>559</ele>
        <time>2022-09-29T09:19:07Z</time>
      </trkpt>
      <trkpt lat="44.42489" lon="5.22711">
        <ele>559</ele>
        <time>2022-09-29T09:19:08Z</time>
      </trkpt>
      <trkpt lat="44.42488" lon="5.22712">
        <ele>559</ele>
        <time>2022-09-29T09:19:09Z</time>
      </trkpt>
      <trkpt lat="44.42487" lon="5.22712">
        <ele>559</ele>
        <time>2022-09-29T09:19:10Z</time>
      </trkpt>
      <trkpt lat="44.42486" lon="5.22713">
        <ele>559</ele>
        <time>2022-09-29T09:19:11Z</time>
      </trkpt>
      <trkpt lat="44.42485" lon="5.22713">
        <ele>559</ele>
        <time>2022-09-29T09:19:12Z</time>
      </trkpt>
      <trkpt lat="44.42484" lon="5.22714">
        <ele>559</ele>
        <time>2022-09-29T09:19:13Z</time>
      </trkpt>
      <trkpt lat="44.42483" lon="5.22715">
        <ele>559</ele>
        <time>2022-09-29T09:19:14Z</time>
      </trkpt>
      <trkpt lat="44.42482" lon="5.22715">
        <ele>559</ele>
        <time>2022-09-29T09:19:15Z</time>
      </trkpt>
      <trkpt lat="44.42482" lon="5.22715">
        <ele>559</ele>
        <time>2022-09-29T09:19:16Z</time>
      </trkpt>
      <trkpt lat="44.42481" lon="5.22716">
        <ele>559</ele>
        <time>2022-09-29T09:19:17Z</time>
      </trkpt>
      <trkpt lat="44.4248" lon="5.22716">
        <ele>559</ele>
        <time>2022-09-29T09:19:18Z</time>
      </trkpt>
      <trkpt lat="44.42479" lon="5.22716">
        <ele>560</ele>
        <time>2022-09-29T09:19:19Z</time>
      </trkpt>
      <trkpt lat="44.42478" lon="5.22716">
        <ele>560</ele>
        <time>2022-09-29T09:19:20Z</time>
      </trkpt>
      <trkpt lat="44.42477" lon="5.22716">
        <ele>560</ele>
        <time>2022-09-29T09:19:21Z</time>
      </trkpt>
      <trkpt lat="44.42476" lon="5.22715">
        <ele>560</ele>
        <time>2022-09-29T09:19:22Z</time>
      </trkpt>
      <trkpt lat="44.42476" lon="5.22715">
        <ele>560</ele>
        <time>2022-09-29T09:19:23Z</time>
      </trkpt>
      <trkpt lat="44.42475" lon="5.22714">
        <ele>560</ele>
        <time>2022-09-29T09:19:24Z</time>
      </trkpt>
      <trkpt lat="44.42474" lon="5.22714">
        <ele>560</ele>
        <time>2022-09-29T09:19:25Z</time>
      </trkpt>
      <trkpt lat="44.42473" lon="5.22714">
        <ele>560</ele>
        <time>2022-09-29T09:19:26Z</time>
      </trkpt>
      <trkpt lat="44.42472" lon="5.22714">
        <ele>560</ele>
        <time>2022-09-29T09:19:27Z</time>
      </trkpt>
      <trkpt lat="44.42471" lon="5.22713">
        <ele>560</ele>
        <time>2022-09-29T09:19:28Z</time>
      </trkpt>
      <trkpt lat="44.4247" lon="5.22713">
        <ele>561</ele>
        <time>2022-09-29T09:19:29Z</time>
      </trkpt>
      <trkpt lat="44.42469" lon="5.22713">
        <ele>561</ele>
        <time>2022-09-29T09:19:30Z</time>
      </trkpt>
      <trkpt lat="44.42468" lon="5.22713">
        <ele>561</ele>
        <time>2022-09-29T09:19:31Z</time>
      </trkpt>
      <trkpt lat="44.42468" lon="5.22712">
        <ele>561</ele>
        <time>2022-09-29T09:19:32Z</time>
      </trkpt>
      <trkpt lat="44.42467" lon="5.22712">
        <ele>561</ele>
        <time>2022-09-29T09:19:33Z</time>
      </trkpt>
      <trkpt lat="44.42466" lon="5.22712">
        <ele>561</ele>
        <time>2022-09-29T09:19:34Z</time>
      </trkpt>
      <trkpt lat="44.42465" lon="5.22711">
        <ele>561</ele>
        <time>2022-09-29T09:19:35Z</time>
      </trkpt>
      <trkpt lat="44.42464" lon="5.22711">
        <ele>561</ele>
        <time>2022-09-29T09:19:36Z</time>
      </trkpt>
      <trkpt lat="44.42463" lon="5.2271">
        <ele>561</ele>
        <time>2022-09-29T09:19:37Z</time>
      </trkpt>
      <trkpt lat="44.42462" lon="5.2271">
        <ele>561</ele>
        <time>2022-09-29T09:19:38Z</time>
      </trkpt>
      <trkpt lat="44.42462" lon="5.22709">
        <ele>561</ele>
        <time>2022-09-29T09:19:39Z</time>
      </trkpt>
      <trkpt lat="44.42461" lon="5.22709">
        <ele>561</ele>
        <time>2022-09-29T09:19:40Z</time>
      </trkpt>
      <trkpt lat="44.4246" lon="5.22708">
        <ele>561</ele>
        <time>2022-09-29T09:19:41Z</time>
      </trkpt>
      <trkpt lat="44.42459" lon="5.22707">
        <ele>561</ele>
        <time>2022-09-29T09:19:42Z</time>
      </trkpt>
      <trkpt lat="44.42458" lon="5.22706">
        <ele>561</ele>
        <time>2022-09-29T09:19:43Z</time>
      </trkpt>
      <trkpt lat="44.42458" lon="5.22705">
        <ele>561</ele>
        <time>2022-09-29T09:19:44Z</time>
      </trkpt>
      <trkpt lat="44.42457" lon="5.22704">
        <ele>561</ele>
        <time>2022-09-29T09:19:45Z</time>
      </trkpt>
      <trkpt lat="44.42456" lon="5.22703">
        <ele>561</ele>
        <time>2022-09-29T09:19:46Z</time>
      </trkpt>
      <trkpt lat="44.42456" lon="5.22703">
        <ele>561</ele>
        <time>2022-09-29T09:19:47Z</time>
      </trkpt>
      <trkpt lat="44.42455" lon="5.22702">
        <ele>561</ele>
        <time>2022-09-29T09:19:48Z</time>
      </trkpt>
      <trkpt lat="44.42454" lon="5.22701">
        <ele>561</ele>
        <time>2022-09-29T09:19:49Z</time>
      </trkpt>
      <trkpt lat="44.42454" lon="5.22701">
        <ele>561</ele>
        <time>2022-09-29T09:19:50Z</time>
      </trkpt>
      <trkpt lat="44.42453" lon="5.22701">
        <ele>561</ele>
        <time>2022-09-29T09:19:51Z</time>
      </trkpt>
      <trkpt lat="44.42452" lon="5.227">
        <ele>561</ele>
        <time>2022-09-29T09:19:52Z</time>
      </trkpt>
      <trkpt lat="44.42452" lon="5.227">
        <ele>561</ele>
        <time>2022-09-29T09:19:53Z</time>
      </trkpt>
      <trkpt lat="44.42452" lon="5.227">
        <ele>561</ele>
        <time>2022-09-29T09:19:54Z</time>
      </trkpt>
      <trkpt lat="44.42451" lon="5.227">
        <ele>561</ele>
        <time>2022-09-29T09:19:55Z</time>
      </trkpt>
      <trkpt lat="44.42451" lon="5.227">
        <ele>561</ele>
        <time>2022-09-29T09:19:56Z</time>
      </trkpt>
      <trkpt lat="44.4245" lon="5.22699">
        <ele>562</ele>
        <time>2022-09-29T09:20:15Z</time>
      </trkpt>
      <trkpt lat="44.4245" lon="5.22698">
        <ele>562</ele>
        <time>2022-09-29T09:20:16Z</time>
      </trkpt>
      <trkpt lat="44.4245" lon="5.22698">
        <ele>562</ele>
        <time>2022-09-29T09:20:17Z</time>
      </trkpt>
      <trkpt lat="44.4245" lon="5.22698">
        <ele>562</ele>
        <time>2022-09-29T09:20:18Z</time>
      </trkpt>
      <trkpt lat="44.4245" lon="5.22699">
        <ele>562</ele>
        <time>2022-09-29T09:20:19Z</time>
      </trkpt>
      <trkpt lat="44.42449" lon="5.227">
        <ele>562</ele>
        <time>2022-09-29T09:20:20Z</time>
      </trkpt>
      <trkpt lat="44.42449" lon="5.227">
        <ele>562</ele>
        <time>2022-09-29T09:20:21Z</time>
      </trkpt>
      <trkpt lat="44.42449" lon="5.22701">
        <ele>562</ele>
        <time>2022-09-29T09:20:22Z</time>
      </trkpt>
      <trkpt lat="44.42448" lon="5.22702">
        <ele>562</ele>
        <time>2022-09-29T09:20:23Z</time>
      </trkpt>
      <trkpt lat="44.42448" lon="5.22704">
        <ele>562</ele>
        <time>2022-09-29T09:21:45Z</time>
      </trkpt>
      <trkpt lat="44.42448" lon="5.22705">
        <ele>562</ele>
        <time>2022-09-29T09:21:46Z</time>
      </trkpt>
      <trkpt lat="44.42448" lon="5.22705">
        <ele>562</ele>
        <time>2022-09-29T09:21:47Z</time>
      </trkpt>
      <trkpt lat="44.42447" lon="5.22706">
        <ele>562</ele>
        <time>2022-09-29T09:21:48Z</time>
      </trkpt>
      <trkpt lat="44.42447" lon="5.22707">
        <ele>562</ele>
        <time>2022-09-29T09:21:49Z</time>
      </trkpt>
      <trkpt lat="44.42447" lon="5.22707">
        <ele>562</ele>
        <time>2022-09-29T09:21:50Z</time>
      </trkpt>
      <trkpt lat="44.42447" lon="5.22708">
        <ele>562</ele>
        <time>2022-09-29T09:21:51Z</time>
      </trkpt>
      <trkpt lat="44.42446" lon="5.2271">
        <ele>562</ele>
        <time>2022-09-29T09:21:52Z</time>
      </trkpt>
      <trkpt lat="44.42446" lon="5.22711">
        <ele>562</ele>
        <time>2022-09-29T09:21:53Z</time>
      </trkpt>
      <trkpt lat="44.42446" lon="5.22712">
        <ele>562</ele>
        <time>2022-09-29T09:21:54Z</time>
      </trkpt>
      <trkpt lat="44.42445" lon="5.22713">
        <ele>562</ele>
        <time>2022-09-29T09:21:55Z</time>
      </trkpt>
      <trkpt lat="44.42445" lon="5.22714">
        <ele>562</ele>
        <time>2022-09-29T09:21:56Z</time>
      </trkpt>
      <trkpt lat="44.42445" lon="5.22716">
        <ele>562</ele>
        <time>2022-09-29T09:21:57Z</time>
      </trkpt>
      <trkpt lat="44.42445" lon="5.22717">
        <ele>562</ele>
        <time>2022-09-29T09:21:58Z</time>
      </trkpt>
      <trkpt lat="44.42444" lon="5.22718">
        <ele>562</ele>
        <time>2022-09-29T09:21:59Z</time>
      </trkpt>
      <trkpt lat="44.42444" lon="5.22719">
        <ele>562</ele>
        <time>2022-09-29T09:22:00Z</time>
      </trkpt>
      <trkpt lat="44.42444" lon="5.2272">
        <ele>562</ele>
        <time>2022-09-29T09:22:01Z</time>
      </trkpt>
      <trkpt lat="44.42444" lon="5.22721">
        <ele>562</ele>
        <time>2022-09-29T09:22:02Z</time>
      </trkpt>
      <trkpt lat="44.42445" lon="5.22722">
        <ele>562</ele>
        <time>2022-09-29T09:22:03Z</time>
      </trkpt>
      <trkpt lat="44.42445" lon="5.22723">
        <ele>562</ele>
        <time>2022-09-29T09:22:04Z</time>
      </trkpt>
      <trkpt lat="44.42445" lon="5.22724">
        <ele>562</ele>
        <time>2022-09-29T09:22:05Z</time>
      </trkpt>
      <trkpt lat="44.42445" lon="5.22725">
        <ele>562</ele>
        <time>2022-09-29T09:22:06Z</time>
      </trkpt>
      <trkpt lat="44.42445" lon="5.22726">
        <ele>562</ele>
        <time>2022-09-29T09:22:07Z</time>
      </trkpt>
      <trkpt lat="44.42445" lon="5.22728">
        <ele>562</ele>
        <time>2022-09-29T09:22:08Z</time>
      </trkpt>
      <trkpt lat="44.42445" lon="5.22729">
        <ele>562</ele>
        <time>2022-09-29T09:22:09Z</time>
      </trkpt>
      <trkpt lat="44.42445" lon="5.2273">
        <ele>562</ele>
        <time>2022-09-29T09:22:10Z</time>
      </trkpt>
      <trkpt lat="44.42445" lon="5.22731">
        <ele>562</ele>
        <time>2022-09-29T09:22:11Z</time>
      </trkpt>
      <trkpt lat="44.42446" lon="5.22732">
        <ele>562</ele>
        <time>2022-09-29T09:22:12Z</time>
      </trkpt>
      <trkpt lat="44.42446" lon="5.22733">
        <ele>562</ele>
        <time>2022-09-29T09:22:13Z</time>
      </trkpt>
      <trkpt lat="44.42446" lon="5.22735">
        <ele>562</ele>
        <time>2022-09-29T09:22:14Z</time>
      </trkpt>
      <trkpt lat="44.42447" lon="5.22736">
        <ele>562</ele>
        <time>2022-09-29T09:22:15Z</time>
      </trkpt>
      <trkpt lat="44.42447" lon="5.22737">
        <ele>562</ele>
        <time>2022-09-29T09:22:16Z</time>
      </trkpt>
      <trkpt lat="44.42447" lon="5.22738">
        <ele>562</ele>
        <time>2022-09-29T09:22:17Z</time>
      </trkpt>
      <trkpt lat="44.42447" lon="5.2274">
        <ele>562</ele>
        <time>2022-09-29T09:22:18Z</time>
      </trkpt>
      <trkpt lat="44.42448" lon="5.22741">
        <ele>562</ele>
        <time>2022-09-29T09:22:19Z</time>
      </trkpt>
      <trkpt lat="44.42448" lon="5.22742">
        <ele>562</ele>
        <time>2022-09-29T09:22:20Z</time>
      </trkpt>
      <trkpt lat="44.42448" lon="5.22743">
        <ele>562</ele>
        <time>2022-09-29T09:22:21Z</time>
      </trkpt>
      <trkpt lat="44.42448" lon="5.22744">
        <ele>562</ele>
        <time>2022-09-29T09:22:22Z</time>
      </trkpt>
      <trkpt lat="44.42448" lon="5.22745">
        <ele>562</ele>
        <time>2022-09-29T09:22:23Z</time>
      </trkpt>
      <trkpt lat="44.42448" lon="5.22746">
        <ele>562</ele>
        <time>2022-09-29T09:22:24Z</time>
      </trkpt>
      <trkpt lat="44.42448" lon="5.22747">
        <ele>562</ele>
        <time>2022-09-29T09:22:25Z</time>
      </trkpt>
      <trkpt lat="44.42449" lon="5.22749">
        <ele>562</ele>
        <time>2022-09-29T09:22:26Z</time>
      </trkpt>
      <trkpt lat="44.42449" lon="5.2275">
        <ele>562</ele>
        <time>2022-09-29T09:22:27Z</time>
      </trkpt>
      <trkpt lat="44.42449" lon="5.22751">
        <ele>562</ele>
        <time>2022-09-29T09:22:28Z</time>
      </trkpt>
      <trkpt lat="44.42449" lon="5.22752">
        <ele>563</ele>
        <time>2022-09-29T09:22:29Z</time>
      </trkpt>
      <trkpt lat="44.42449" lon="5.22753">
        <ele>563</ele>
        <time>2022-09-29T09:22:30Z</time>
      </trkpt>
      <trkpt lat="44.42449" lon="5.22754">
        <ele>563</ele>
        <time>2022-09-29T09:22:31Z</time>
      </trkpt>
      <trkpt lat="44.42449" lon="5.22755">
        <ele>563</ele>
        <time>2022-09-29T09:22:32Z</time>
      </trkpt>
      <trkpt lat="44.42449" lon="5.22757">
        <ele>563</ele>
        <time>2022-09-29T09:22:33Z</time>
      </trkpt>
      <trkpt lat="44.42449" lon="5.22758">
        <ele>563</ele>
        <time>2022-09-29T09:22:34Z</time>
      </trkpt>
      <trkpt lat="44.42449" lon="5.22759">
        <ele>563</ele>
        <time>2022-09-29T09:22:35Z</time>
      </trkpt>
      <trkpt lat="44.4245" lon="5.2276">
        <ele>563</ele>
        <time>2022-09-29T09:22:36Z</time>
      </trkpt>
      <trkpt lat="44.4245" lon="5.22761">
        <ele>563</ele>
        <time>2022-09-29T09:22:37Z</time>
      </trkpt>
      <trkpt lat="44.4245" lon="5.22763">
        <ele>563</ele>
        <time>2022-09-29T09:22:38Z</time>
      </trkpt>
      <trkpt lat="44.4245" lon="5.22764">
        <ele>563</ele>
        <time>2022-09-29T09:22:39Z</time>
      </trkpt>
      <trkpt lat="44.4245" lon="5.22765">
        <ele>563</ele>
        <time>2022-09-29T09:22:40Z</time>
      </trkpt>
      <trkpt lat="44.4245" lon="5.22766">
        <ele>563</ele>
        <time>2022-09-29T09:22:41Z</time>
      </trkpt>
      <trkpt lat="44.4245" lon="5.22768">
        <ele>563</ele>
        <time>2022-09-29T09:22:42Z</time>
      </trkpt>
      <trkpt lat="44.4245" lon="5.22769">
        <ele>563</ele>
        <time>2022-09-29T09:22:43Z</time>
      </trkpt>
      <trkpt lat="44.4245" lon="5.2277">
        <ele>563</ele>
        <time>2022-09-29T09:22:44Z</time>
      </trkpt>
      <trkpt lat="44.4245" lon="5.22771">
        <ele>563</ele>
        <time>2022-09-29T09:22:45Z</time>
      </trkpt>
      <trkpt lat="44.4245" lon="5.22773">
        <ele>563</ele>
        <time>2022-09-29T09:22:46Z</time>
      </trkpt>
      <trkpt lat="44.4245" lon="5.22774">
        <ele>563</ele>
        <time>2022-09-29T09:22:47Z</time>
      </trkpt>
      <trkpt lat="44.4245" lon="5.22775">
        <ele>563</ele>
        <time>2022-09-29T09:22:48Z</time>
      </trkpt>
      <trkpt lat="44.4245" lon="5.22776">
        <ele>564</ele>
        <time>2022-09-29T09:22:49Z</time>
      </trkpt>
      <trkpt lat="44.4245" lon="5.22778">
        <ele>564</ele>
        <time>2022-09-29T09:22:50Z</time>
      </trkpt>
      <trkpt lat="44.4245" lon="5.22779">
        <ele>564</ele>
        <time>2022-09-29T09:22:51Z</time>
      </trkpt>
      <trkpt lat="44.42449" lon="5.2278">
        <ele>564</ele>
        <time>2022-09-29T09:22:52Z</time>
      </trkpt>
      <trkpt lat="44.42449" lon="5.22781">
        <ele>564</ele>
        <time>2022-09-29T09:22:53Z</time>
      </trkpt>
      <trkpt lat="44.42449" lon="5.22783">
        <ele>564</ele>
        <time>2022-09-29T09:22:54Z</time>
      </trkpt>
      <trkpt lat="44.42449" lon="5.22784">
        <ele>564</ele>
        <time>2022-09-29T09:22:55Z</time>
      </trkpt>
      <trkpt lat="44.42449" lon="5.22785">
        <ele>564</ele>
        <time>2022-09-29T09:22:56Z</time>
      </trkpt>
      <trkpt lat="44.42449" lon="5.22786">
        <ele>564</ele>
        <time>2022-09-29T09:22:57Z</time>
      </trkpt>
      <trkpt lat="44.42449" lon="5.22787">
        <ele>564</ele>
        <time>2022-09-29T09:22:58Z</time>
      </trkpt>
      <trkpt lat="44.42449" lon="5.22788">
        <ele>565</ele>
        <time>2022-09-29T09:22:59Z</time>
      </trkpt>
      <trkpt lat="44.42449" lon="5.22789">
        <ele>565</ele>
        <time>2022-09-29T09:23:00Z</time>
      </trkpt>
      <trkpt lat="44.42449" lon="5.2279">
        <ele>565</ele>
        <time>2022-09-29T09:23:01Z</time>
      </trkpt>
      <trkpt lat="44.42449" lon="5.22791">
        <ele>565</ele>
        <time>2022-09-29T09:23:02Z</time>
      </trkpt>
      <trkpt lat="44.42449" lon="5.22792">
        <ele>565</ele>
        <time>2022-09-29T09:23:03Z</time>
      </trkpt>
      <trkpt lat="44.42448" lon="5.22794">
        <ele>565</ele>
        <time>2022-09-29T09:23:04Z</time>
      </trkpt>
      <trkpt lat="44.42448" lon="5.22795">
        <ele>565</ele>
        <time>2022-09-29T09:23:05Z</time>
      </trkpt>
      <trkpt lat="44.42448" lon="5.22796">
        <ele>565</ele>
        <time>2022-09-29T09:23:06Z</time>
      </trkpt>
      <trkpt lat="44.42448" lon="5.22797">
        <ele>565</ele>
        <time>2022-09-29T09:23:07Z</time>
      </trkpt>
      <trkpt lat="44.42448" lon="5.22799">
        <ele>565</ele>
        <time>2022-09-29T09:23:08Z</time>
      </trkpt>
      <trkpt lat="44.42448" lon="5.228">
        <ele>566</ele>
        <time>2022-09-29T09:23:09Z</time>
      </trkpt>
      <trkpt lat="44.42447" lon="5.22801">
        <ele>566</ele>
        <time>2022-09-29T09:23:10Z</time>
      </trkpt>
      <trkpt lat="44.42447" lon="5.22802">
        <ele>566</ele>
        <time>2022-09-29T09:23:11Z</time>
      </trkpt>
      <trkpt lat="44.42447" lon="5.22803">
        <ele>566</ele>
        <time>2022-09-29T09:23:12Z</time>
      </trkpt>
      <trkpt lat="44.42447" lon="5.22804">
        <ele>566</ele>
        <time>2022-09-29T09:23:13Z</time>
      </trkpt>
      <trkpt lat="44.42446" lon="5.22805">
        <ele>567</ele>
        <time>2022-09-29T09:23:14Z</time>
      </trkpt>
      <trkpt lat="44.42446" lon="5.22806">
        <ele>567</ele>
        <time>2022-09-29T09:23:15Z</time>
      </trkpt>
      <trkpt lat="44.42445" lon="5.22808">
        <ele>567</ele>
        <time>2022-09-29T09:23:16Z</time>
      </trkpt>
      <trkpt lat="44.42445" lon="5.22809">
        <ele>567</ele>
        <time>2022-09-29T09:23:17Z</time>
      </trkpt>
      <trkpt lat="44.42445" lon="5.22809">
        <ele>567</ele>
        <time>2022-09-29T09:23:18Z</time>
      </trkpt>
      <trkpt lat="44.42444" lon="5.2281">
        <ele>567</ele>
        <time>2022-09-29T09:23:19Z</time>
      </trkpt>
      <trkpt lat="44.42444" lon="5.22811">
        <ele>567</ele>
        <time>2022-09-29T09:23:20Z</time>
      </trkpt>
      <trkpt lat="44.42443" lon="5.22812">
        <ele>567</ele>
        <time>2022-09-29T09:23:21Z</time>
      </trkpt>
      <trkpt lat="44.42443" lon="5.22813">
        <ele>567</ele>
        <time>2022-09-29T09:23:22Z</time>
      </trkpt>
      <trkpt lat="44.42442" lon="5.22814">
        <ele>567</ele>
        <time>2022-09-29T09:23:23Z</time>
      </trkpt>
      <trkpt lat="44.42442" lon="5.22815">
        <ele>568</ele>
        <time>2022-09-29T09:23:24Z</time>
      </trkpt>
      <trkpt lat="44.42441" lon="5.22815">
        <ele>568</ele>
        <time>2022-09-29T09:23:25Z</time>
      </trkpt>
      <trkpt lat="44.42441" lon="5.22816">
        <ele>568</ele>
        <time>2022-09-29T09:23:26Z</time>
      </trkpt>
      <trkpt lat="44.4244" lon="5.22817">
        <ele>568</ele>
        <time>2022-09-29T09:23:27Z</time>
      </trkpt>
      <trkpt lat="44.4244" lon="5.22818">
        <ele>568</ele>
        <time>2022-09-29T09:23:28Z</time>
      </trkpt>
      <trkpt lat="44.42439" lon="5.22819">
        <ele>568</ele>
        <time>2022-09-29T09:23:29Z</time>
      </trkpt>
      <trkpt lat="44.42439" lon="5.2282">
        <ele>568</ele>
        <time>2022-09-29T09:23:30Z</time>
      </trkpt>
      <trkpt lat="44.42438" lon="5.22822">
        <ele>568</ele>
        <time>2022-09-29T09:23:31Z</time>
      </trkpt>
      <trkpt lat="44.42438" lon="5.22823">
        <ele>568</ele>
        <time>2022-09-29T09:23:32Z</time>
      </trkpt>
      <trkpt lat="44.42438" lon="5.22824">
        <ele>568</ele>
        <time>2022-09-29T09:23:33Z</time>
      </trkpt>
      <trkpt lat="44.42437" lon="5.22825">
        <ele>569</ele>
        <time>2022-09-29T09:23:34Z</time>
      </trkpt>
      <trkpt lat="44.42436" lon="5.22826">
        <ele>569</ele>
        <time>2022-09-29T09:23:35Z</time>
      </trkpt>
      <trkpt lat="44.42436" lon="5.22827">
        <ele>569</ele>
        <time>2022-09-29T09:23:36Z</time>
      </trkpt>
      <trkpt lat="44.42435" lon="5.22828">
        <ele>569</ele>
        <time>2022-09-29T09:23:37Z</time>
      </trkpt>
      <trkpt lat="44.42435" lon="5.22829">
        <ele>569</ele>
        <time>2022-09-29T09:23:38Z</time>
      </trkpt>
      <trkpt lat="44.42434" lon="5.2283">
        <ele>569</ele>
        <time>2022-09-29T09:23:39Z</time>
      </trkpt>
      <trkpt lat="44.42434" lon="5.22831">
        <ele>569</ele>
        <time>2022-09-29T09:23:40Z</time>
      </trkpt>
      <trkpt lat="44.42433" lon="5.22832">
        <ele>569</ele>
        <time>2022-09-29T09:23:41Z</time>
      </trkpt>
      <trkpt lat="44.42433" lon="5.22833">
        <ele>569</ele>
        <time>2022-09-29T09:23:42Z</time>
      </trkpt>
      <trkpt lat="44.42432" lon="5.22835">
        <ele>569</ele>
        <time>2022-09-29T09:23:43Z</time>
      </trkpt>
      <trkpt lat="44.42432" lon="5.22836">
        <ele>569</ele>
        <time>2022-09-29T09:23:44Z</time>
      </trkpt>
      <trkpt lat="44.42431" lon="5.22837">
        <ele>569</ele>
        <time>2022-09-29T09:23:45Z</time>
      </trkpt>
      <trkpt lat="44.42431" lon="5.22838">
        <ele>569</ele>
        <time>2022-09-29T09:23:46Z</time>
      </trkpt>
      <trkpt lat="44.42431" lon="5.22839">
        <ele>569</ele>
        <time>2022-09-29T09:23:47Z</time>
      </trkpt>
      <trkpt lat="44.4243" lon="5.2284">
        <ele>569</ele>
        <time>2022-09-29T09:23:48Z</time>
      </trkpt>
      <trkpt lat="44.4243" lon="5.22841">
        <ele>570</ele>
        <time>2022-09-29T09:23:49Z</time>
      </trkpt>
      <trkpt lat="44.42429" lon="5.22842">
        <ele>570</ele>
        <time>2022-09-29T09:23:50Z</time>
      </trkpt>
      <trkpt lat="44.42429" lon="5.22843">
        <ele>570</ele>
        <time>2022-09-29T09:23:51Z</time>
      </trkpt>
      <trkpt lat="44.42429" lon="5.22844">
        <ele>570</ele>
        <time>2022-09-29T09:23:52Z</time>
      </trkpt>
      <trkpt lat="44.42428" lon="5.22845">
        <ele>570</ele>
        <time>2022-09-29T09:23:53Z</time>
      </trkpt>
      <trkpt lat="44.42428" lon="5.22846">
        <ele>570</ele>
        <time>2022-09-29T09:23:54Z</time>
      </trkpt>
      <trkpt lat="44.42428" lon="5.22847">
        <ele>570</ele>
        <time>2022-09-29T09:23:55Z</time>
      </trkpt>
      <trkpt lat="44.42428" lon="5.22848">
        <ele>570</ele>
        <time>2022-09-29T09:23:56Z</time>
      </trkpt>
      <trkpt lat="44.42428" lon="5.22849">
        <ele>570</ele>
        <time>2022-09-29T09:23:57Z</time>
      </trkpt>
      <trkpt lat="44.42428" lon="5.22851">
        <ele>570</ele>
        <time>2022-09-29T09:23:58Z</time>
      </trkpt>
      <trkpt lat="44.42428" lon="5.22852">
        <ele>570</ele>
        <time>2022-09-29T09:23:59Z</time>
      </trkpt>
      <trkpt lat="44.42429" lon="5.22854">
        <ele>570</ele>
        <time>2022-09-29T09:24:00Z</time>
      </trkpt>
      <trkpt lat="44.42429" lon="5.22856">
        <ele>570</ele>
        <time>2022-09-29T09:24:01Z</time>
      </trkpt>
      <trkpt lat="44.42429" lon="5.22857">
        <ele>570</ele>
        <time>2022-09-29T09:24:02Z</time>
      </trkpt>
      <trkpt lat="44.4243" lon="5.22858">
        <ele>570</ele>
        <time>2022-09-29T09:24:03Z</time>
      </trkpt>
      <trkpt lat="44.4243" lon="5.2286">
        <ele>571</ele>
        <time>2022-09-29T09:24:04Z</time>
      </trkpt>
      <trkpt lat="44.42431" lon="5.22861">
        <ele>571</ele>
        <time>2022-09-29T09:24:05Z</time>
      </trkpt>
      <trkpt lat="44.42431" lon="5.22862">
        <ele>571</ele>
        <time>2022-09-29T09:24:06Z</time>
      </trkpt>
      <trkpt lat="44.42432" lon="5.22863">
        <ele>571</ele>
        <time>2022-09-29T09:24:07Z</time>
      </trkpt>
      <trkpt lat="44.42432" lon="5.22864">
        <ele>571</ele>
        <time>2022-09-29T09:24:08Z</time>
      </trkpt>
      <trkpt lat="44.42433" lon="5.22865">
        <ele>571</ele>
        <time>2022-09-29T09:24:09Z</time>
      </trkpt>
      <trkpt lat="44.42433" lon="5.22866">
        <ele>571</ele>
        <time>2022-09-29T09:24:10Z</time>
      </trkpt>
      <trkpt lat="44.42434" lon="5.22867">
        <ele>571</ele>
        <time>2022-09-29T09:24:11Z</time>
      </trkpt>
      <trkpt lat="44.42435" lon="5.22868">
        <ele>571</ele>
        <time>2022-09-29T09:24:12Z</time>
      </trkpt>
      <trkpt lat="44.42435" lon="5.22869">
        <ele>571</ele>
        <time>2022-09-29T09:24:13Z</time>
      </trkpt>
      <trkpt lat="44.42436" lon="5.2287">
        <ele>572</ele>
        <time>2022-09-29T09:24:14Z</time>
      </trkpt>
      <trkpt lat="44.42437" lon="5.22871">
        <ele>572</ele>
        <time>2022-09-29T09:24:15Z</time>
      </trkpt>
      <trkpt lat="44.42437" lon="5.22872">
        <ele>572</ele>
        <time>2022-09-29T09:24:16Z</time>
      </trkpt>
      <trkpt lat="44.42438" lon="5.22872">
        <ele>572</ele>
        <time>2022-09-29T09:24:17Z</time>
      </trkpt>
      <trkpt lat="44.42438" lon="5.22873">
        <ele>572</ele>
        <time>2022-09-29T09:24:18Z</time>
      </trkpt>
      <trkpt lat="44.42439" lon="5.22874">
        <ele>572</ele>
        <time>2022-09-29T09:24:19Z</time>
      </trkpt>
      <trkpt lat="44.42439" lon="5.22875">
        <ele>572</ele>
        <time>2022-09-29T09:24:20Z</time>
      </trkpt>
      <trkpt lat="44.4244" lon="5.22876">
        <ele>572</ele>
        <time>2022-09-29T09:24:21Z</time>
      </trkpt>
      <trkpt lat="44.4244" lon="5.22877">
        <ele>572</ele>
        <time>2022-09-29T09:24:22Z</time>
      </trkpt>
      <trkpt lat="44.4244" lon="5.22878">
        <ele>572</ele>
        <time>2022-09-29T09:24:23Z</time>
      </trkpt>
      <trkpt lat="44.42441" lon="5.2288">
        <ele>572</ele>
        <time>2022-09-29T09:24:24Z</time>
      </trkpt>
      <trkpt lat="44.42441" lon="5.22881">
        <ele>572</ele>
        <time>2022-09-29T09:24:25Z</time>
      </trkpt>
      <trkpt lat="44.42441" lon="5.22882">
        <ele>572</ele>
        <time>2022-09-29T09:24:26Z</time>
      </trkpt>
      <trkpt lat="44.42441" lon="5.22884">
        <ele>572</ele>
        <time>2022-09-29T09:24:27Z</time>
      </trkpt>
      <trkpt lat="44.42441" lon="5.22885">
        <ele>572</ele>
        <time>2022-09-29T09:24:28Z</time>
      </trkpt>
      <trkpt lat="44.42441" lon="5.22886">
        <ele>573</ele>
        <time>2022-09-29T09:24:29Z</time>
      </trkpt>
      <trkpt lat="44.42441" lon="5.22887">
        <ele>573</ele>
        <time>2022-09-29T09:24:30Z</time>
      </trkpt>
      <trkpt lat="44.42441" lon="5.22889">
        <ele>573</ele>
        <time>2022-09-29T09:24:31Z</time>
      </trkpt>
      <trkpt lat="44.42441" lon="5.2289">
        <ele>573</ele>
        <time>2022-09-29T09:24:32Z</time>
      </trkpt>
      <trkpt lat="44.42442" lon="5.22891">
        <ele>573</ele>
        <time>2022-09-29T09:24:33Z</time>
      </trkpt>
      <trkpt lat="44.42442" lon="5.22893">
        <ele>573</ele>
        <time>2022-09-29T09:24:34Z</time>
      </trkpt>
      <trkpt lat="44.42442" lon="5.22894">
        <ele>573</ele>
        <time>2022-09-29T09:24:35Z</time>
      </trkpt>
      <trkpt lat="44.42442" lon="5.22896">
        <ele>573</ele>
        <time>2022-09-29T09:24:36Z</time>
      </trkpt>
      <trkpt lat="44.42442" lon="5.22897">
        <ele>573</ele>
        <time>2022-09-29T09:24:37Z</time>
      </trkpt>
      <trkpt lat="44.42442" lon="5.22899">
        <ele>573</ele>
        <time>2022-09-29T09:24:38Z</time>
      </trkpt>
      <trkpt lat="44.42442" lon="5.229">
        <ele>573</ele>
        <time>2022-09-29T09:24:39Z</time>
      </trkpt>
      <trkpt lat="44.42442" lon="5.22902">
        <ele>573</ele>
        <time>2022-09-29T09:24:40Z</time>
      </trkpt>
      <trkpt lat="44.42442" lon="5.22903">
        <ele>573</ele>
        <time>2022-09-29T09:24:41Z</time>
      </trkpt>
      <trkpt lat="44.42442" lon="5.22904">
        <ele>573</ele>
        <time>2022-09-29T09:24:42Z</time>
      </trkpt>
      <trkpt lat="44.42442" lon="5.22906">
        <ele>573</ele>
        <time>2022-09-29T09:24:43Z</time>
      </trkpt>
      <trkpt lat="44.42443" lon="5.22907">
        <ele>573</ele>
        <time>2022-09-29T09:24:44Z</time>
      </trkpt>
      <trkpt lat="44.42443" lon="5.22908">
        <ele>573</ele>
        <time>2022-09-29T09:24:45Z</time>
      </trkpt>
      <trkpt lat="44.42443" lon="5.2291">
        <ele>573</ele>
        <time>2022-09-29T09:24:46Z</time>
      </trkpt>
      <trkpt lat="44.42443" lon="5.22911">
        <ele>573</ele>
        <time>2022-09-29T09:24:47Z</time>
      </trkpt>
      <trkpt lat="44.42444" lon="5.22912">
        <ele>573</ele>
        <time>2022-09-29T09:24:48Z</time>
      </trkpt>
      <trkpt lat="44.42444" lon="5.22913">
        <ele>574</ele>
        <time>2022-09-29T09:24:49Z</time>
      </trkpt>
      <trkpt lat="44.42444" lon="5.22915">
        <ele>574</ele>
        <time>2022-09-29T09:24:50Z</time>
      </trkpt>
      <trkpt lat="44.42444" lon="5.22916">
        <ele>574</ele>
        <time>2022-09-29T09:24:51Z</time>
      </trkpt>
      <trkpt lat="44.42445" lon="5.22917">
        <ele>574</ele>
        <time>2022-09-29T09:24:52Z</time>
      </trkpt>
      <trkpt lat="44.42445" lon="5.22918">
        <ele>574</ele>
        <time>2022-09-29T09:24:53Z</time>
      </trkpt>
      <trkpt lat="44.42445" lon="5.22919">
        <ele>574</ele>
        <time>2022-09-29T09:24:54Z</time>
      </trkpt>
      <trkpt lat="44.42446" lon="5.2292">
        <ele>574</ele>
        <time>2022-09-29T09:24:55Z</time>
      </trkpt>
      <trkpt lat="44.42446" lon="5.22922">
        <ele>574</ele>
        <time>2022-09-29T09:24:56Z</time>
      </trkpt>
      <trkpt lat="44.42447" lon="5.22923">
        <ele>574</ele>
        <time>2022-09-29T09:24:57Z</time>
      </trkpt>
      <trkpt lat="44.42447" lon="5.22924">
        <ele>574</ele>
        <time>2022-09-29T09:24:58Z</time>
      </trkpt>
      <trkpt lat="44.42448" lon="5.22925">
        <ele>574</ele>
        <time>2022-09-29T09:24:59Z</time>
      </trkpt>
      <trkpt lat="44.42448" lon="5.22927">
        <ele>574</ele>
        <time>2022-09-29T09:25:00Z</time>
      </trkpt>
      <trkpt lat="44.42449" lon="5.22928">
        <ele>574</ele>
        <time>2022-09-29T09:25:01Z</time>
      </trkpt>
      <trkpt lat="44.4245" lon="5.22929">
        <ele>574</ele>
        <time>2022-09-29T09:25:02Z</time>
      </trkpt>
      <trkpt lat="44.42451" lon="5.2293">
        <ele>574</ele>
        <time>2022-09-29T09:25:03Z</time>
      </trkpt>
      <trkpt lat="44.42451" lon="5.22931">
        <ele>574</ele>
        <time>2022-09-29T09:25:04Z</time>
      </trkpt>
      <trkpt lat="44.42452" lon="5.22932">
        <ele>574</ele>
        <time>2022-09-29T09:25:05Z</time>
      </trkpt>
      <trkpt lat="44.42452" lon="5.22932">
        <ele>574</ele>
        <time>2022-09-29T09:25:06Z</time>
      </trkpt>
      <trkpt lat="44.42454" lon="5.22937">
        <ele>575</ele>
        <time>2022-09-29T09:25:48Z</time>
      </trkpt>
      <trkpt lat="44.42454" lon="5.22939">
        <ele>575</ele>
        <time>2022-09-29T09:25:49Z</time>
      </trkpt>
      <trkpt lat="44.42454" lon="5.22941">
        <ele>575</ele>
        <time>2022-09-29T09:25:50Z</time>
      </trkpt>
      <trkpt lat="44.42454" lon="5.22942">
        <ele>575</ele>
        <time>2022-09-29T09:25:51Z</time>
      </trkpt>
      <trkpt lat="44.42454" lon="5.22943">
        <ele>575</ele>
        <time>2022-09-29T09:25:52Z</time>
      </trkpt>
      <trkpt lat="44.42454" lon="5.22944">
        <ele>575</ele>
        <time>2022-09-29T09:25:53Z</time>
      </trkpt>
      <trkpt lat="44.42454" lon="5.22945">
        <ele>576</ele>
        <time>2022-09-29T09:25:54Z</time>
      </trkpt>
      <trkpt lat="44.42453" lon="5.22946">
        <ele>576</ele>
        <time>2022-09-29T09:25:55Z</time>
      </trkpt>
      <trkpt lat="44.42453" lon="5.22947">
        <ele>576</ele>
        <time>2022-09-29T09:25:56Z</time>
      </trkpt>
      <trkpt lat="44.42453" lon="5.22948">
        <ele>576</ele>
        <time>2022-09-29T09:25:57Z</time>
      </trkpt>
      <trkpt lat="44.42452" lon="5.22948">
        <ele>576</ele>
        <time>2022-09-29T09:25:58Z</time>
      </trkpt>
      <trkpt lat="44.42452" lon="5.22949">
        <ele>576</ele>
        <time>2022-09-29T09:25:59Z</time>
      </trkpt>
      <trkpt lat="44.42452" lon="5.22949">
        <ele>576</ele>
        <time>2022-09-29T09:26:00Z</time>
      </trkpt>
      <trkpt lat="44.42451" lon="5.2295">
        <ele>576</ele>
        <time>2022-09-29T09:26:01Z</time>
      </trkpt>
      <trkpt lat="44.4245" lon="5.2295">
        <ele>576</ele>
        <time>2022-09-29T09:26:02Z</time>
      </trkpt>
      <trkpt lat="44.4245" lon="5.2295">
        <ele>576</ele>
        <time>2022-09-29T09:26:03Z</time>
      </trkpt>
      <trkpt lat="44.42449" lon="5.2295">
        <ele>576</ele>
        <time>2022-09-29T09:26:04Z</time>
      </trkpt>
      <trkpt lat="44.42449" lon="5.22951">
        <ele>576</ele>
        <time>2022-09-29T09:26:05Z</time>
      </trkpt>
      <trkpt lat="44.42448" lon="5.22951">
        <ele>576</ele>
        <time>2022-09-29T09:26:06Z</time>
      </trkpt>
      <trkpt lat="44.42448" lon="5.22952">
        <ele>576</ele>
        <time>2022-09-29T09:26:07Z</time>
      </trkpt>
      <trkpt lat="44.42447" lon="5.22953">
        <ele>576</ele>
        <time>2022-09-29T09:26:08Z</time>
      </trkpt>
      <trkpt lat="44.42447" lon="5.22954">
        <ele>577</ele>
        <time>2022-09-29T09:26:09Z</time>
      </trkpt>
      <trkpt lat="44.42446" lon="5.22954">
        <ele>577</ele>
        <time>2022-09-29T09:26:10Z</time>
      </trkpt>
      <trkpt lat="44.42445" lon="5.22955">
        <ele>577</ele>
        <time>2022-09-29T09:26:11Z</time>
      </trkpt>
      <trkpt lat="44.42445" lon="5.22955">
        <ele>577</ele>
        <time>2022-09-29T09:26:12Z</time>
      </trkpt>
      <trkpt lat="44.42444" lon="5.22956">
        <ele>577</ele>
        <time>2022-09-29T09:26:13Z</time>
      </trkpt>
      <trkpt lat="44.42443" lon="5.22956">
        <ele>578</ele>
        <time>2022-09-29T09:26:14Z</time>
      </trkpt>
      <trkpt lat="44.42443" lon="5.22956">
        <ele>578</ele>
        <time>2022-09-29T09:26:15Z</time>
      </trkpt>
      <trkpt lat="44.42442" lon="5.22956">
        <ele>578</ele>
        <time>2022-09-29T09:26:16Z</time>
      </trkpt>
      <trkpt lat="44.42441" lon="5.22956">
        <ele>578</ele>
        <time>2022-09-29T09:26:17Z</time>
      </trkpt>
      <trkpt lat="44.4244" lon="5.22957">
        <ele>578</ele>
        <time>2022-09-29T09:26:18Z</time>
      </trkpt>
      <trkpt lat="44.4244" lon="5.22957">
        <ele>578</ele>
        <time>2022-09-29T09:26:19Z</time>
      </trkpt>
      <trkpt lat="44.42439" lon="5.22957">
        <ele>578</ele>
        <time>2022-09-29T09:26:20Z</time>
      </trkpt>
      <trkpt lat="44.42438" lon="5.22957">
        <ele>578</ele>
        <time>2022-09-29T09:26:21Z</time>
      </trkpt>
      <trkpt lat="44.42438" lon="5.22957">
        <ele>578</ele>
        <time>2022-09-29T09:26:22Z</time>
      </trkpt>
      <trkpt lat="44.42437" lon="5.22957">
        <ele>578</ele>
        <time>2022-09-29T09:26:23Z</time>
      </trkpt>
      <trkpt lat="44.42436" lon="5.22957">
        <ele>579</ele>
        <time>2022-09-29T09:26:24Z</time>
      </trkpt>
      <trkpt lat="44.42436" lon="5.22958">
        <ele>579</ele>
        <time>2022-09-29T09:26:25Z</time>
      </trkpt>
      <trkpt lat="44.42435" lon="5.22958">
        <ele>579</ele>
        <time>2022-09-29T09:26:26Z</time>
      </trkpt>
      <trkpt lat="44.42435" lon="5.22958">
        <ele>579</ele>
        <time>2022-09-29T09:26:27Z</time>
      </trkpt>
      <trkpt lat="44.42434" lon="5.22958">
        <ele>579</ele>
        <time>2022-09-29T09:26:28Z</time>
      </trkpt>
      <trkpt lat="44.42433" lon="5.22957">
        <ele>580</ele>
        <time>2022-09-29T09:26:29Z</time>
      </trkpt>
      <trkpt lat="44.42433" lon="5.22957">
        <ele>580</ele>
        <time>2022-09-29T09:26:30Z</time>
      </trkpt>
      <trkpt lat="44.42432" lon="5.22957">
        <ele>580</ele>
        <time>2022-09-29T09:26:31Z</time>
      </trkpt>
      <trkpt lat="44.42431" lon="5.22957">
        <ele>580</ele>
        <time>2022-09-29T09:26:32Z</time>
      </trkpt>
      <trkpt lat="44.4243" lon="5.22957">
        <ele>580</ele>
        <time>2022-09-29T09:26:33Z</time>
      </trkpt>
      <trkpt lat="44.4243" lon="5.22956">
        <ele>580</ele>
        <time>2022-09-29T09:26:34Z</time>
      </trkpt>
      <trkpt lat="44.42429" lon="5.22956">
        <ele>580</ele>
        <time>2022-09-29T09:26:35Z</time>
      </trkpt>
      <trkpt lat="44.42428" lon="5.22955">
        <ele>580</ele>
        <time>2022-09-29T09:26:36Z</time>
      </trkpt>
      <trkpt lat="44.42427" lon="5.22955">
        <ele>580</ele>
        <time>2022-09-29T09:26:37Z</time>
      </trkpt>
      <trkpt lat="44.42427" lon="5.22954">
        <ele>580</ele>
        <time>2022-09-29T09:26:38Z</time>
      </trkpt>
      <trkpt lat="44.42426" lon="5.22954">
        <ele>581</ele>
        <time>2022-09-29T09:26:39Z</time>
      </trkpt>
      <trkpt lat="44.42426" lon="5.22953">
        <ele>581</ele>
        <time>2022-09-29T09:26:40Z</time>
      </trkpt>
      <trkpt lat="44.42425" lon="5.22952">
        <ele>581</ele>
        <time>2022-09-29T09:26:41Z</time>
      </trkpt>
      <trkpt lat="44.42425" lon="5.22952">
        <ele>581</ele>
        <time>2022-09-29T09:26:42Z</time>
      </trkpt>
      <trkpt lat="44.42424" lon="5.22951">
        <ele>581</ele>
        <time>2022-09-29T09:26:43Z</time>
      </trkpt>
      <trkpt lat="44.42424" lon="5.2295">
        <ele>581</ele>
        <time>2022-09-29T09:26:44Z</time>
      </trkpt>
      <trkpt lat="44.42423" lon="5.22949">
        <ele>581</ele>
        <time>2022-09-29T09:26:45Z</time>
      </trkpt>
      <trkpt lat="44.42423" lon="5.22948">
        <ele>581</ele>
        <time>2022-09-29T09:26:46Z</time>
      </trkpt>
      <trkpt lat="44.42422" lon="5.22947">
        <ele>581</ele>
        <time>2022-09-29T09:26:47Z</time>
      </trkpt>
      <trkpt lat="44.42422" lon="5.22946">
        <ele>581</ele>
        <time>2022-09-29T09:26:48Z</time>
      </trkpt>
      <trkpt lat="44.42422" lon="5.22945">
        <ele>582</ele>
        <time>2022-09-29T09:26:49Z</time>
      </trkpt>
      <trkpt lat="44.42422" lon="5.22944">
        <ele>582</ele>
        <time>2022-09-29T09:26:50Z</time>
      </trkpt>
      <trkpt lat="44.42422" lon="5.22943">
        <ele>582</ele>
        <time>2022-09-29T09:26:51Z</time>
      </trkpt>
      <trkpt lat="44.42422" lon="5.22942">
        <ele>582</ele>
        <time>2022-09-29T09:26:52Z</time>
      </trkpt>
      <trkpt lat="44.42422" lon="5.22941">
        <ele>582</ele>
        <time>2022-09-29T09:26:53Z</time>
      </trkpt>
      <trkpt lat="44.42422" lon="5.2294">
        <ele>583</ele>
        <time>2022-09-29T09:26:54Z</time>
      </trkpt>
      <trkpt lat="44.42422" lon="5.22939">
        <ele>583</ele>
        <time>2022-09-29T09:26:55Z</time>
      </trkpt>
      <trkpt lat="44.42421" lon="5.22938">
        <ele>583</ele>
        <time>2022-09-29T09:26:56Z</time>
      </trkpt>
      <trkpt lat="44.42421" lon="5.22937">
        <ele>583</ele>
        <time>2022-09-29T09:26:57Z</time>
      </trkpt>
      <trkpt lat="44.42421" lon="5.22936">
        <ele>583</ele>
        <time>2022-09-29T09:26:58Z</time>
      </trkpt>
      <trkpt lat="44.42421" lon="5.22935">
        <ele>583</ele>
        <time>2022-09-29T09:26:59Z</time>
      </trkpt>
      <trkpt lat="44.42421" lon="5.22934">
        <ele>583</ele>
        <time>2022-09-29T09:27:00Z</time>
      </trkpt>
      <trkpt lat="44.42421" lon="5.22934">
        <ele>583</ele>
        <time>2022-09-29T09:27:01Z</time>
      </trkpt>
      <trkpt lat="44.42421" lon="5.22933">
        <ele>583</ele>
        <time>2022-09-29T09:27:02Z</time>
      </trkpt>
      <trkpt lat="44.42421" lon="5.22932">
        <ele>583</ele>
        <time>2022-09-29T09:27:03Z</time>
      </trkpt>
      <trkpt lat="44.42421" lon="5.22931">
        <ele>584</ele>
        <time>2022-09-29T09:27:04Z</time>
      </trkpt>
      <trkpt lat="44.4242" lon="5.22931">
        <ele>584</ele>
        <time>2022-09-29T09:27:05Z</time>
      </trkpt>
      <trkpt lat="44.4242" lon="5.2293">
        <ele>584</ele>
        <time>2022-09-29T09:27:06Z</time>
      </trkpt>
      <trkpt lat="44.4242" lon="5.22929">
        <ele>584</ele>
        <time>2022-09-29T09:27:07Z</time>
      </trkpt>
      <trkpt lat="44.4242" lon="5.22928">
        <ele>584</ele>
        <time>2022-09-29T09:27:08Z</time>
      </trkpt>
      <trkpt lat="44.4242" lon="5.22927">
        <ele>585</ele>
        <time>2022-09-29T09:27:09Z</time>
      </trkpt>
      <trkpt lat="44.4242" lon="5.22926">
        <ele>585</ele>
        <time>2022-09-29T09:27:10Z</time>
      </trkpt>
      <trkpt lat="44.4242" lon="5.22925">
        <ele>585</ele>
        <time>2022-09-29T09:27:11Z</time>
      </trkpt>
      <trkpt lat="44.42419" lon="5.22925">
        <ele>585</ele>
        <time>2022-09-29T09:27:12Z</time>
      </trkpt>
      <trkpt lat="44.42419" lon="5.22924">
        <ele>585</ele>
        <time>2022-09-29T09:27:13Z</time>
      </trkpt>
      <trkpt lat="44.42419" lon="5.22923">
        <ele>585</ele>
        <time>2022-09-29T09:27:14Z</time>
      </trkpt>
      <trkpt lat="44.42419" lon="5.22922">
        <ele>585</ele>
        <time>2022-09-29T09:27:15Z</time>
      </trkpt>
      <trkpt lat="44.42418" lon="5.22921">
        <ele>585</ele>
        <time>2022-09-29T09:27:16Z</time>
      </trkpt>
      <trkpt lat="44.42418" lon="5.22921">
        <ele>585</ele>
        <time>2022-09-29T09:27:17Z</time>
      </trkpt>
      <trkpt lat="44.42418" lon="5.2292">
        <ele>585</ele>
        <time>2022-09-29T09:27:18Z</time>
      </trkpt>
      <trkpt lat="44.42417" lon="5.22919">
        <ele>586</ele>
        <time>2022-09-29T09:27:19Z</time>
      </trkpt>
      <trkpt lat="44.42417" lon="5.22918">
        <ele>586</ele>
        <time>2022-09-29T09:27:20Z</time>
      </trkpt>
      <trkpt lat="44.42416" lon="5.22917">
        <ele>586</ele>
        <time>2022-09-29T09:27:21Z</time>
      </trkpt>
      <trkpt lat="44.42416" lon="5.22917">
        <ele>586</ele>
        <time>2022-09-29T09:27:22Z</time>
      </trkpt>
      <trkpt lat="44.42415" lon="5.22916">
        <ele>586</ele>
        <time>2022-09-29T09:27:23Z</time>
      </trkpt>
      <trkpt lat="44.42415" lon="5.22915">
        <ele>586</ele>
        <time>2022-09-29T09:27:24Z</time>
      </trkpt>
      <trkpt lat="44.42414" lon="5.22914">
        <ele>586</ele>
        <time>2022-09-29T09:27:25Z</time>
      </trkpt>
      <trkpt lat="44.42414" lon="5.22914">
        <ele>586</ele>
        <time>2022-09-29T09:27:26Z</time>
      </trkpt>
      <trkpt lat="44.42414" lon="5.22913">
        <ele>586</ele>
        <time>2022-09-29T09:27:27Z</time>
      </trkpt>
      <trkpt lat="44.42414" lon="5.22913">
        <ele>586</ele>
        <time>2022-09-29T09:27:28Z</time>
      </trkpt>
      <trkpt lat="44.42413" lon="5.22912">
        <ele>587</ele>
        <time>2022-09-29T09:27:29Z</time>
      </trkpt>
      <trkpt lat="44.42413" lon="5.22912">
        <ele>587</ele>
        <time>2022-09-29T09:27:30Z</time>
      </trkpt>
      <trkpt lat="44.42412" lon="5.22912">
        <ele>587</ele>
        <time>2022-09-29T09:27:31Z</time>
      </trkpt>
      <trkpt lat="44.42412" lon="5.22911">
        <ele>587</ele>
        <time>2022-09-29T09:27:32Z</time>
      </trkpt>
      <trkpt lat="44.42411" lon="5.22911">
        <ele>587</ele>
        <time>2022-09-29T09:27:33Z</time>
      </trkpt>
      <trkpt lat="44.42411" lon="5.2291">
        <ele>588</ele>
        <time>2022-09-29T09:27:34Z</time>
      </trkpt>
      <trkpt lat="44.4241" lon="5.2291">
        <ele>588</ele>
        <time>2022-09-29T09:27:35Z</time>
      </trkpt>
      <trkpt lat="44.4241" lon="5.22909">
        <ele>588</ele>
        <time>2022-09-29T09:27:36Z</time>
      </trkpt>
      <trkpt lat="44.42409" lon="5.22909">
        <ele>588</ele>
        <time>2022-09-29T09:27:37Z</time>
      </trkpt>
      <trkpt lat="44.42409" lon="5.22908">
        <ele>588</ele>
        <time>2022-09-29T09:27:38Z</time>
      </trkpt>
      <trkpt lat="44.42408" lon="5.22908">
        <ele>589</ele>
        <time>2022-09-29T09:27:39Z</time>
      </trkpt>
      <trkpt lat="44.42407" lon="5.22908">
        <ele>589</ele>
        <time>2022-09-29T09:27:40Z</time>
      </trkpt>
      <trkpt lat="44.42407" lon="5.22908">
        <ele>589</ele>
        <time>2022-09-29T09:27:41Z</time>
      </trkpt>
      <trkpt lat="44.42406" lon="5.22907">
        <ele>589</ele>
        <time>2022-09-29T09:27:42Z</time>
      </trkpt>
      <trkpt lat="44.42406" lon="5.22907">
        <ele>589</ele>
        <time>2022-09-29T09:27:43Z</time>
      </trkpt>
      <trkpt lat="44.42405" lon="5.22907">
        <ele>589</ele>
        <time>2022-09-29T09:27:44Z</time>
      </trkpt>
      <trkpt lat="44.42404" lon="5.22906">
        <ele>589</ele>
        <time>2022-09-29T09:27:45Z</time>
      </trkpt>
      <trkpt lat="44.42404" lon="5.22906">
        <ele>589</ele>
        <time>2022-09-29T09:27:46Z</time>
      </trkpt>
      <trkpt lat="44.42403" lon="5.22905">
        <ele>589</ele>
        <time>2022-09-29T09:27:47Z</time>
      </trkpt>
      <trkpt lat="44.42403" lon="5.22904">
        <ele>589</ele>
        <time>2022-09-29T09:27:48Z</time>
      </trkpt>
      <trkpt lat="44.42402" lon="5.22904">
        <ele>590</ele>
        <time>2022-09-29T09:27:49Z</time>
      </trkpt>
      <trkpt lat="44.42402" lon="5.22903">
        <ele>590</ele>
        <time>2022-09-29T09:27:50Z</time>
      </trkpt>
      <trkpt lat="44.42401" lon="5.22903">
        <ele>590</ele>
        <time>2022-09-29T09:27:51Z</time>
      </trkpt>
      <trkpt lat="44.42401" lon="5.22902">
        <ele>590</ele>
        <time>2022-09-29T09:27:52Z</time>
      </trkpt>
      <trkpt lat="44.42401" lon="5.22902">
        <ele>590</ele>
        <time>2022-09-29T09:27:53Z</time>
      </trkpt>
      <trkpt lat="44.424" lon="5.22902">
        <ele>591</ele>
        <time>2022-09-29T09:27:54Z</time>
      </trkpt>
      <trkpt lat="44.424" lon="5.22902">
        <ele>591</ele>
        <time>2022-09-29T09:27:55Z</time>
      </trkpt>
      <trkpt lat="44.42399" lon="5.22901">
        <ele>591</ele>
        <time>2022-09-29T09:27:56Z</time>
      </trkpt>
      <trkpt lat="44.42399" lon="5.22901">
        <ele>591</ele>
        <time>2022-09-29T09:27:57Z</time>
      </trkpt>
      <trkpt lat="44.42398" lon="5.229">
        <ele>591</ele>
        <time>2022-09-29T09:27:58Z</time>
      </trkpt>
      <trkpt lat="44.42398" lon="5.229">
        <ele>591</ele>
        <time>2022-09-29T09:27:59Z</time>
      </trkpt>
      <trkpt lat="44.42397" lon="5.229">
        <ele>591</ele>
        <time>2022-09-29T09:28:00Z</time>
      </trkpt>
      <trkpt lat="44.42397" lon="5.22899">
        <ele>591</ele>
        <time>2022-09-29T09:28:01Z</time>
      </trkpt>
      <trkpt lat="44.42397" lon="5.22899">
        <ele>591</ele>
        <time>2022-09-29T09:28:02Z</time>
      </trkpt>
      <trkpt lat="44.42396" lon="5.22898">
        <ele>591</ele>
        <time>2022-09-29T09:28:03Z</time>
      </trkpt>
      <trkpt lat="44.42396" lon="5.22898">
        <ele>592</ele>
        <time>2022-09-29T09:28:04Z</time>
      </trkpt>
      <trkpt lat="44.42395" lon="5.22897">
        <ele>592</ele>
        <time>2022-09-29T09:28:05Z</time>
      </trkpt>
      <trkpt lat="44.42395" lon="5.22897">
        <ele>592</ele>
        <time>2022-09-29T09:28:06Z</time>
      </trkpt>
      <trkpt lat="44.42394" lon="5.22896">
        <ele>592</ele>
        <time>2022-09-29T09:28:07Z</time>
      </trkpt>
      <trkpt lat="44.42394" lon="5.22896">
        <ele>592</ele>
        <time>2022-09-29T09:28:08Z</time>
      </trkpt>
      <trkpt lat="44.42393" lon="5.22896">
        <ele>593</ele>
        <time>2022-09-29T09:28:09Z</time>
      </trkpt>
      <trkpt lat="44.42393" lon="5.22895">
        <ele>593</ele>
        <time>2022-09-29T09:28:10Z</time>
      </trkpt>
      <trkpt lat="44.42392" lon="5.22895">
        <ele>593</ele>
        <time>2022-09-29T09:28:11Z</time>
      </trkpt>
      <trkpt lat="44.42391" lon="5.22894">
        <ele>593</ele>
        <time>2022-09-29T09:28:12Z</time>
      </trkpt>
      <trkpt lat="44.42391" lon="5.22894">
        <ele>593</ele>
        <time>2022-09-29T09:28:13Z</time>
      </trkpt>
      <trkpt lat="44.4239" lon="5.22893">
        <ele>593</ele>
        <time>2022-09-29T09:28:14Z</time>
      </trkpt>
      <trkpt lat="44.42389" lon="5.22892">
        <ele>593</ele>
        <time>2022-09-29T09:28:15Z</time>
      </trkpt>
      <trkpt lat="44.42389" lon="5.22892">
        <ele>593</ele>
        <time>2022-09-29T09:28:16Z</time>
      </trkpt>
      <trkpt lat="44.42388" lon="5.22891">
        <ele>593</ele>
        <time>2022-09-29T09:28:17Z</time>
      </trkpt>
      <trkpt lat="44.42387" lon="5.22891">
        <ele>593</ele>
        <time>2022-09-29T09:28:18Z</time>
      </trkpt>
      <trkpt lat="44.42386" lon="5.2289">
        <ele>594</ele>
        <time>2022-09-29T09:28:19Z</time>
      </trkpt>
      <trkpt lat="44.42386" lon="5.2289">
        <ele>594</ele>
        <time>2022-09-29T09:28:20Z</time>
      </trkpt>
      <trkpt lat="44.42385" lon="5.22889">
        <ele>594</ele>
        <time>2022-09-29T09:28:21Z</time>
      </trkpt>
      <trkpt lat="44.42385" lon="5.22888">
        <ele>594</ele>
        <time>2022-09-29T09:28:22Z</time>
      </trkpt>
      <trkpt lat="44.42384" lon="5.22888">
        <ele>594</ele>
        <time>2022-09-29T09:28:23Z</time>
      </trkpt>
      <trkpt lat="44.42384" lon="5.22887">
        <ele>595</ele>
        <time>2022-09-29T09:28:24Z</time>
      </trkpt>
      <trkpt lat="44.42383" lon="5.22887">
        <ele>595</ele>
        <time>2022-09-29T09:28:25Z</time>
      </trkpt>
      <trkpt lat="44.42383" lon="5.22886">
        <ele>595</ele>
        <time>2022-09-29T09:28:26Z</time>
      </trkpt>
      <trkpt lat="44.42382" lon="5.22886">
        <ele>595</ele>
        <time>2022-09-29T09:28:27Z</time>
      </trkpt>
      <trkpt lat="44.42382" lon="5.22885">
        <ele>595</ele>
        <time>2022-09-29T09:28:28Z</time>
      </trkpt>
      <trkpt lat="44.42381" lon="5.22885">
        <ele>595</ele>
        <time>2022-09-29T09:28:29Z</time>
      </trkpt>
      <trkpt lat="44.4238" lon="5.22885">
        <ele>595</ele>
        <time>2022-09-29T09:28:30Z</time>
      </trkpt>
      <trkpt lat="44.4238" lon="5.22884">
        <ele>595</ele>
        <time>2022-09-29T09:28:31Z</time>
      </trkpt>
      <trkpt lat="44.4238" lon="5.22884">
        <ele>595</ele>
        <time>2022-09-29T09:28:32Z</time>
      </trkpt>
      <trkpt lat="44.42379" lon="5.22883">
        <ele>595</ele>
        <time>2022-09-29T09:28:33Z</time>
      </trkpt>
      <trkpt lat="44.42378" lon="5.22883">
        <ele>595</ele>
        <time>2022-09-29T09:28:34Z</time>
      </trkpt>
      <trkpt lat="44.42378" lon="5.22882">
        <ele>595</ele>
        <time>2022-09-29T09:28:35Z</time>
      </trkpt>
      <trkpt lat="44.42377" lon="5.22882">
        <ele>595</ele>
        <time>2022-09-29T09:28:36Z</time>
      </trkpt>
      <trkpt lat="44.42376" lon="5.22881">
        <ele>595</ele>
        <time>2022-09-29T09:28:37Z</time>
      </trkpt>
      <trkpt lat="44.42375" lon="5.2288">
        <ele>595</ele>
        <time>2022-09-29T09:28:38Z</time>
      </trkpt>
      <trkpt lat="44.42374" lon="5.22879">
        <ele>596</ele>
        <time>2022-09-29T09:28:39Z</time>
      </trkpt>
      <trkpt lat="44.42374" lon="5.22879">
        <ele>596</ele>
        <time>2022-09-29T09:28:40Z</time>
      </trkpt>
      <trkpt lat="44.42373" lon="5.22878">
        <ele>596</ele>
        <time>2022-09-29T09:28:41Z</time>
      </trkpt>
      <trkpt lat="44.42372" lon="5.22877">
        <ele>596</ele>
        <time>2022-09-29T09:28:42Z</time>
      </trkpt>
      <trkpt lat="44.42371" lon="5.22876">
        <ele>596</ele>
        <time>2022-09-29T09:28:43Z</time>
      </trkpt>
      <trkpt lat="44.42371" lon="5.22875">
        <ele>596</ele>
        <time>2022-09-29T09:28:44Z</time>
      </trkpt>
      <trkpt lat="44.4237" lon="5.22874">
        <ele>596</ele>
        <time>2022-09-29T09:28:45Z</time>
      </trkpt>
      <trkpt lat="44.42369" lon="5.22873">
        <ele>596</ele>
        <time>2022-09-29T09:28:46Z</time>
      </trkpt>
      <trkpt lat="44.42369" lon="5.22872">
        <ele>596</ele>
        <time>2022-09-29T09:28:47Z</time>
      </trkpt>
      <trkpt lat="44.42368" lon="5.22871">
        <ele>596</ele>
        <time>2022-09-29T09:28:48Z</time>
      </trkpt>
      <trkpt lat="44.42367" lon="5.2287">
        <ele>597</ele>
        <time>2022-09-29T09:28:49Z</time>
      </trkpt>
      <trkpt lat="44.42367" lon="5.22869">
        <ele>597</ele>
        <time>2022-09-29T09:28:50Z</time>
      </trkpt>
      <trkpt lat="44.42366" lon="5.22868">
        <ele>597</ele>
        <time>2022-09-29T09:28:51Z</time>
      </trkpt>
      <trkpt lat="44.42366" lon="5.22867">
        <ele>597</ele>
        <time>2022-09-29T09:28:52Z</time>
      </trkpt>
      <trkpt lat="44.42365" lon="5.22866">
        <ele>597</ele>
        <time>2022-09-29T09:28:53Z</time>
      </trkpt>
      <trkpt lat="44.42365" lon="5.22865">
        <ele>597</ele>
        <time>2022-09-29T09:28:54Z</time>
      </trkpt>
      <trkpt lat="44.42364" lon="5.22864">
        <ele>597</ele>
        <time>2022-09-29T09:28:55Z</time>
      </trkpt>
      <trkpt lat="44.42364" lon="5.22863">
        <ele>597</ele>
        <time>2022-09-29T09:28:56Z</time>
      </trkpt>
      <trkpt lat="44.42363" lon="5.22862">
        <ele>597</ele>
        <time>2022-09-29T09:28:57Z</time>
      </trkpt>
      <trkpt lat="44.42363" lon="5.22862">
        <ele>597</ele>
        <time>2022-09-29T09:28:58Z</time>
      </trkpt>
      <trkpt lat="44.42362" lon="5.22861">
        <ele>597</ele>
        <time>2022-09-29T09:28:59Z</time>
      </trkpt>
      <trkpt lat="44.42362" lon="5.2286">
        <ele>597</ele>
        <time>2022-09-29T09:29:00Z</time>
      </trkpt>
      <trkpt lat="44.42361" lon="5.22859">
        <ele>597</ele>
        <time>2022-09-29T09:29:01Z</time>
      </trkpt>
      <trkpt lat="44.42361" lon="5.22858">
        <ele>597</ele>
        <time>2022-09-29T09:29:02Z</time>
      </trkpt>
      <trkpt lat="44.4236" lon="5.22857">
        <ele>597</ele>
        <time>2022-09-29T09:29:03Z</time>
      </trkpt>
      <trkpt lat="44.4236" lon="5.22856">
        <ele>598</ele>
        <time>2022-09-29T09:29:04Z</time>
      </trkpt>
      <trkpt lat="44.42359" lon="5.22855">
        <ele>598</ele>
        <time>2022-09-29T09:29:05Z</time>
      </trkpt>
      <trkpt lat="44.42359" lon="5.22854">
        <ele>598</ele>
        <time>2022-09-29T09:29:06Z</time>
      </trkpt>
      <trkpt lat="44.42358" lon="5.22853">
        <ele>598</ele>
        <time>2022-09-29T09:29:07Z</time>
      </trkpt>
      <trkpt lat="44.42358" lon="5.22852">
        <ele>598</ele>
        <time>2022-09-29T09:29:08Z</time>
      </trkpt>
      <trkpt lat="44.42357" lon="5.22851">
        <ele>598</ele>
        <time>2022-09-29T09:29:09Z</time>
      </trkpt>
      <trkpt lat="44.42357" lon="5.2285">
        <ele>598</ele>
        <time>2022-09-29T09:29:10Z</time>
      </trkpt>
      <trkpt lat="44.42356" lon="5.22849">
        <ele>598</ele>
        <time>2022-09-29T09:29:11Z</time>
      </trkpt>
      <trkpt lat="44.42356" lon="5.22848">
        <ele>598</ele>
        <time>2022-09-29T09:29:12Z</time>
      </trkpt>
      <trkpt lat="44.42356" lon="5.22847">
        <ele>598</ele>
        <time>2022-09-29T09:29:13Z</time>
      </trkpt>
      <trkpt lat="44.42355" lon="5.22846">
        <ele>599</ele>
        <time>2022-09-29T09:29:14Z</time>
      </trkpt>
      <trkpt lat="44.42355" lon="5.22845">
        <ele>599</ele>
        <time>2022-09-29T09:29:15Z</time>
      </trkpt>
      <trkpt lat="44.42355" lon="5.22844">
        <ele>599</ele>
        <time>2022-09-29T09:29:16Z</time>
      </trkpt>
      <trkpt lat="44.42355" lon="5.22843">
        <ele>599</ele>
        <time>2022-09-29T09:29:17Z</time>
      </trkpt>
      <trkpt lat="44.42354" lon="5.22842">
        <ele>599</ele>
        <time>2022-09-29T09:29:18Z</time>
      </trkpt>
      <trkpt lat="44.42354" lon="5.22841">
        <ele>600</ele>
        <time>2022-09-29T09:29:19Z</time>
      </trkpt>
      <trkpt lat="44.42354" lon="5.2284">
        <ele>600</ele>
        <time>2022-09-29T09:29:20Z</time>
      </trkpt>
      <trkpt lat="44.42353" lon="5.22839">
        <ele>600</ele>
        <time>2022-09-29T09:29:21Z</time>
      </trkpt>
      <trkpt lat="44.42353" lon="5.22838">
        <ele>600</ele>
        <time>2022-09-29T09:29:22Z</time>
      </trkpt>
      <trkpt lat="44.42352" lon="5.22837">
        <ele>600</ele>
        <time>2022-09-29T09:29:23Z</time>
      </trkpt>
      <trkpt lat="44.42352" lon="5.22837">
        <ele>600</ele>
        <time>2022-09-29T09:29:24Z</time>
      </trkpt>
      <trkpt lat="44.42352" lon="5.22836">
        <ele>600</ele>
        <time>2022-09-29T09:29:25Z</time>
      </trkpt>
      <trkpt lat="44.42351" lon="5.22835">
        <ele>600</ele>
        <time>2022-09-29T09:29:26Z</time>
      </trkpt>
      <trkpt lat="44.42351" lon="5.22834">
        <ele>600</ele>
        <time>2022-09-29T09:29:27Z</time>
      </trkpt>
      <trkpt lat="44.4235" lon="5.22833">
        <ele>600</ele>
        <time>2022-09-29T09:29:28Z</time>
      </trkpt>
      <trkpt lat="44.4235" lon="5.22833">
        <ele>601</ele>
        <time>2022-09-29T09:29:29Z</time>
      </trkpt>
      <trkpt lat="44.4235" lon="5.22832">
        <ele>601</ele>
        <time>2022-09-29T09:29:30Z</time>
      </trkpt>
      <trkpt lat="44.42349" lon="5.22831">
        <ele>601</ele>
        <time>2022-09-29T09:29:31Z</time>
      </trkpt>
      <trkpt lat="44.42349" lon="5.2283">
        <ele>601</ele>
        <time>2022-09-29T09:29:32Z</time>
      </trkpt>
      <trkpt lat="44.42349" lon="5.22829">
        <ele>601</ele>
        <time>2022-09-29T09:29:33Z</time>
      </trkpt>
      <trkpt lat="44.42349" lon="5.22828">
        <ele>602</ele>
        <time>2022-09-29T09:29:34Z</time>
      </trkpt>
      <trkpt lat="44.42348" lon="5.22827">
        <ele>602</ele>
        <time>2022-09-29T09:29:35Z</time>
      </trkpt>
      <trkpt lat="44.42348" lon="5.22827">
        <ele>602</ele>
        <time>2022-09-29T09:29:36Z</time>
      </trkpt>
      <trkpt lat="44.42348" lon="5.22826">
        <ele>602</ele>
        <time>2022-09-29T09:29:37Z</time>
      </trkpt>
      <trkpt lat="44.42347" lon="5.22825">
        <ele>602</ele>
        <time>2022-09-29T09:29:38Z</time>
      </trkpt>
      <trkpt lat="44.42347" lon="5.22825">
        <ele>603</ele>
        <time>2022-09-29T09:29:39Z</time>
      </trkpt>
      <trkpt lat="44.42346" lon="5.22824">
        <ele>603</ele>
        <time>2022-09-29T09:29:40Z</time>
      </trkpt>
      <trkpt lat="44.42346" lon="5.22823">
        <ele>603</ele>
        <time>2022-09-29T09:29:41Z</time>
      </trkpt>
      <trkpt lat="44.42345" lon="5.22823">
        <ele>603</ele>
        <time>2022-09-29T09:29:42Z</time>
      </trkpt>
      <trkpt lat="44.42345" lon="5.22822">
        <ele>603</ele>
        <time>2022-09-29T09:29:43Z</time>
      </trkpt>
      <trkpt lat="44.42345" lon="5.22822">
        <ele>603</ele>
        <time>2022-09-29T09:29:44Z</time>
      </trkpt>
      <trkpt lat="44.42344" lon="5.22821">
        <ele>603</ele>
        <time>2022-09-29T09:29:45Z</time>
      </trkpt>
      <trkpt lat="44.42343" lon="5.22821">
        <ele>603</ele>
        <time>2022-09-29T09:29:46Z</time>
      </trkpt>
      <trkpt lat="44.42343" lon="5.2282">
        <ele>603</ele>
        <time>2022-09-29T09:29:47Z</time>
      </trkpt>
      <trkpt lat="44.42342" lon="5.2282">
        <ele>603</ele>
        <time>2022-09-29T09:29:48Z</time>
      </trkpt>
      <trkpt lat="44.42341" lon="5.22819">
        <ele>604</ele>
        <time>2022-09-29T09:29:49Z</time>
      </trkpt>
      <trkpt lat="44.4234" lon="5.22819">
        <ele>604</ele>
        <time>2022-09-29T09:29:50Z</time>
      </trkpt>
      <trkpt lat="44.4234" lon="5.22818">
        <ele>604</ele>
        <time>2022-09-29T09:29:51Z</time>
      </trkpt>
      <trkpt lat="44.42339" lon="5.22817">
        <ele>604</ele>
        <time>2022-09-29T09:29:52Z</time>
      </trkpt>
      <trkpt lat="44.42338" lon="5.22817">
        <ele>604</ele>
        <time>2022-09-29T09:29:53Z</time>
      </trkpt>
      <trkpt lat="44.42338" lon="5.22816">
        <ele>604</ele>
        <time>2022-09-29T09:29:54Z</time>
      </trkpt>
      <trkpt lat="44.42337" lon="5.22815">
        <ele>604</ele>
        <time>2022-09-29T09:29:55Z</time>
      </trkpt>
      <trkpt lat="44.42337" lon="5.22815">
        <ele>604</ele>
        <time>2022-09-29T09:29:56Z</time>
      </trkpt>
      <trkpt lat="44.42336" lon="5.22814">
        <ele>604</ele>
        <time>2022-09-29T09:29:57Z</time>
      </trkpt>
      <trkpt lat="44.42335" lon="5.22813">
        <ele>604</ele>
        <time>2022-09-29T09:29:58Z</time>
      </trkpt>
      <trkpt lat="44.42335" lon="5.22813">
        <ele>605</ele>
        <time>2022-09-29T09:29:59Z</time>
      </trkpt>
      <trkpt lat="44.42334" lon="5.22812">
        <ele>605</ele>
        <time>2022-09-29T09:30:00Z</time>
      </trkpt>
      <trkpt lat="44.42333" lon="5.22812">
        <ele>605</ele>
        <time>2022-09-29T09:30:01Z</time>
      </trkpt>
      <trkpt lat="44.42333" lon="5.22811">
        <ele>605</ele>
        <time>2022-09-29T09:30:02Z</time>
      </trkpt>
      <trkpt lat="44.42332" lon="5.22811">
        <ele>605</ele>
        <time>2022-09-29T09:30:03Z</time>
      </trkpt>
      <trkpt lat="44.42331" lon="5.22811">
        <ele>606</ele>
        <time>2022-09-29T09:30:04Z</time>
      </trkpt>
      <trkpt lat="44.4233" lon="5.2281">
        <ele>606</ele>
        <time>2022-09-29T09:30:05Z</time>
      </trkpt>
      <trkpt lat="44.4233" lon="5.2281">
        <ele>606</ele>
        <time>2022-09-29T09:30:06Z</time>
      </trkpt>
      <trkpt lat="44.42328" lon="5.22809">
        <ele>607</ele>
        <time>2022-09-29T09:30:17Z</time>
      </trkpt>
      <trkpt lat="44.42327" lon="5.22808">
        <ele>607</ele>
        <time>2022-09-29T09:30:18Z</time>
      </trkpt>
      <trkpt lat="44.42326" lon="5.22807">
        <ele>607</ele>
        <time>2022-09-29T09:30:19Z</time>
      </trkpt>
      <trkpt lat="44.42325" lon="5.22807">
        <ele>607</ele>
        <time>2022-09-29T09:30:20Z</time>
      </trkpt>
      <trkpt lat="44.42324" lon="5.22806">
        <ele>607</ele>
        <time>2022-09-29T09:30:21Z</time>
      </trkpt>
      <trkpt lat="44.42323" lon="5.22806">
        <ele>608</ele>
        <time>2022-09-29T09:32:13Z</time>
      </trkpt>
      <trkpt lat="44.42322" lon="5.22805">
        <ele>608</ele>
        <time>2022-09-29T09:32:14Z</time>
      </trkpt>
      <trkpt lat="44.42321" lon="5.22805">
        <ele>608</ele>
        <time>2022-09-29T09:32:15Z</time>
      </trkpt>
      <trkpt lat="44.42321" lon="5.22804">
        <ele>608</ele>
        <time>2022-09-29T09:32:16Z</time>
      </trkpt>
      <trkpt lat="44.4232" lon="5.22804">
        <ele>608</ele>
        <time>2022-09-29T09:32:17Z</time>
      </trkpt>
      <trkpt lat="44.4232" lon="5.22804">
        <ele>608</ele>
        <time>2022-09-29T09:32:18Z</time>
      </trkpt>
      <trkpt lat="44.42319" lon="5.22803">
        <ele>609</ele>
        <time>2022-09-29T09:32:19Z</time>
      </trkpt>
      <trkpt lat="44.42318" lon="5.22803">
        <ele>609</ele>
        <time>2022-09-29T09:32:20Z</time>
      </trkpt>
      <trkpt lat="44.42317" lon="5.22802">
        <ele>609</ele>
        <time>2022-09-29T09:32:21Z</time>
      </trkpt>
      <trkpt lat="44.42316" lon="5.22801">
        <ele>609</ele>
        <time>2022-09-29T09:32:22Z</time>
      </trkpt>
      <trkpt lat="44.42315" lon="5.22801">
        <ele>609</ele>
        <time>2022-09-29T09:32:23Z</time>
      </trkpt>
      <trkpt lat="44.42314" lon="5.22801">
        <ele>609</ele>
        <time>2022-09-29T09:32:24Z</time>
      </trkpt>
      <trkpt lat="44.42314" lon="5.228">
        <ele>609</ele>
        <time>2022-09-29T09:32:25Z</time>
      </trkpt>
      <trkpt lat="44.42312" lon="5.22798">
        <ele>610</ele>
        <time>2022-09-29T09:32:37Z</time>
      </trkpt>
      <trkpt lat="44.42311" lon="5.22797">
        <ele>610</ele>
        <time>2022-09-29T09:32:38Z</time>
      </trkpt>
      <trkpt lat="44.42309" lon="5.22796">
        <ele>611</ele>
        <time>2022-09-29T09:32:39Z</time>
      </trkpt>
      <trkpt lat="44.42309" lon="5.22795">
        <ele>611</ele>
        <time>2022-09-29T09:32:40Z</time>
      </trkpt>
      <trkpt lat="44.42308" lon="5.22793">
        <ele>611</ele>
        <time>2022-09-29T09:32:41Z</time>
      </trkpt>
      <trkpt lat="44.42308" lon="5.22792">
        <ele>611</ele>
        <time>2022-09-29T09:32:42Z</time>
      </trkpt>
      <trkpt lat="44.42308" lon="5.22791">
        <ele>611</ele>
        <time>2022-09-29T09:32:43Z</time>
      </trkpt>
      <trkpt lat="44.42307" lon="5.22791">
        <ele>612</ele>
        <time>2022-09-29T09:32:44Z</time>
      </trkpt>
      <trkpt lat="44.42307" lon="5.2279">
        <ele>612</ele>
        <time>2022-09-29T09:32:45Z</time>
      </trkpt>
      <trkpt lat="44.42307" lon="5.2279">
        <ele>612</ele>
        <time>2022-09-29T09:32:46Z</time>
      </trkpt>
      <trkpt lat="44.42307" lon="5.2279">
        <ele>612</ele>
        <time>2022-09-29T09:32:47Z</time>
      </trkpt>
      <trkpt lat="44.42307" lon="5.22788">
        <ele>612</ele>
        <time>2022-09-29T09:32:48Z</time>
      </trkpt>
      <trkpt lat="44.42307" lon="5.22787">
        <ele>612</ele>
        <time>2022-09-29T09:32:49Z</time>
      </trkpt>
      <trkpt lat="44.42307" lon="5.22786">
        <ele>612</ele>
        <time>2022-09-29T09:32:50Z</time>
      </trkpt>
      <trkpt lat="44.42307" lon="5.22786">
        <ele>612</ele>
        <time>2022-09-29T09:32:51Z</time>
      </trkpt>
      <trkpt lat="44.42306" lon="5.22785">
        <ele>612</ele>
        <time>2022-09-29T09:32:52Z</time>
      </trkpt>
      <trkpt lat="44.42306" lon="5.22784">
        <ele>612</ele>
        <time>2022-09-29T09:32:53Z</time>
      </trkpt>
      <trkpt lat="44.42306" lon="5.22784">
        <ele>613</ele>
        <time>2022-09-29T09:32:54Z</time>
      </trkpt>
      <trkpt lat="44.42305" lon="5.22783">
        <ele>613</ele>
        <time>2022-09-29T09:32:55Z</time>
      </trkpt>
      <trkpt lat="44.42305" lon="5.22782">
        <ele>613</ele>
        <time>2022-09-29T09:32:56Z</time>
      </trkpt>
      <trkpt lat="44.42305" lon="5.22782">
        <ele>613</ele>
        <time>2022-09-29T09:32:57Z</time>
      </trkpt>
      <trkpt lat="44.42304" lon="5.22781">
        <ele>613</ele>
        <time>2022-09-29T09:32:58Z</time>
      </trkpt>
      <trkpt lat="44.42304" lon="5.22781">
        <ele>613</ele>
        <time>2022-09-29T09:32:59Z</time>
      </trkpt>
      <trkpt lat="44.42304" lon="5.22781">
        <ele>613</ele>
        <time>2022-09-29T09:33:00Z</time>
      </trkpt>
      <trkpt lat="44.42304" lon="5.22781">
        <ele>613</ele>
        <time>2022-09-29T09:33:01Z</time>
      </trkpt>
      <trkpt lat="44.42303" lon="5.2278">
        <ele>613</ele>
        <time>2022-09-29T09:33:02Z</time>
      </trkpt>
      <trkpt lat="44.42303" lon="5.2278">
        <ele>613</ele>
        <time>2022-09-29T09:33:03Z</time>
      </trkpt>
      <trkpt lat="44.42302" lon="5.2278">
        <ele>614</ele>
        <time>2022-09-29T09:33:04Z</time>
      </trkpt>
      <trkpt lat="44.42302" lon="5.22779">
        <ele>614</ele>
        <time>2022-09-29T09:33:05Z</time>
      </trkpt>
      <trkpt lat="44.42301" lon="5.22779">
        <ele>614</ele>
        <time>2022-09-29T09:33:06Z</time>
      </trkpt>
      <trkpt lat="44.42301" lon="5.22778">
        <ele>614</ele>
        <time>2022-09-29T09:33:07Z</time>
      </trkpt>
      <trkpt lat="44.423" lon="5.22778">
        <ele>614</ele>
        <time>2022-09-29T09:33:08Z</time>
      </trkpt>
      <trkpt lat="44.42299" lon="5.22778">
        <ele>614</ele>
        <time>2022-09-29T09:33:09Z</time>
      </trkpt>
      <trkpt lat="44.42299" lon="5.22778">
        <ele>614</ele>
        <time>2022-09-29T09:33:10Z</time>
      </trkpt>
      <trkpt lat="44.42298" lon="5.22778">
        <ele>614</ele>
        <time>2022-09-29T09:33:11Z</time>
      </trkpt>
      <trkpt lat="44.42297" lon="5.22778">
        <ele>614</ele>
        <time>2022-09-29T09:33:12Z</time>
      </trkpt>
      <trkpt lat="44.42297" lon="5.22778">
        <ele>614</ele>
        <time>2022-09-29T09:33:13Z</time>
      </trkpt>
      <trkpt lat="44.42296" lon="5.22778">
        <ele>615</ele>
        <time>2022-09-29T09:33:14Z</time>
      </trkpt>
      <trkpt lat="44.42296" lon="5.22779">
        <ele>615</ele>
        <time>2022-09-29T09:33:15Z</time>
      </trkpt>
      <trkpt lat="44.42295" lon="5.22779">
        <ele>615</ele>
        <time>2022-09-29T09:33:16Z</time>
      </trkpt>
      <trkpt lat="44.42295" lon="5.2278">
        <ele>615</ele>
        <time>2022-09-29T09:33:17Z</time>
      </trkpt>
      <trkpt lat="44.42294" lon="5.2278">
        <ele>615</ele>
        <time>2022-09-29T09:33:18Z</time>
      </trkpt>
      <trkpt lat="44.42294" lon="5.22781">
        <ele>616</ele>
        <time>2022-09-29T09:33:19Z</time>
      </trkpt>
      <trkpt lat="44.42293" lon="5.22782">
        <ele>616</ele>
        <time>2022-09-29T09:33:20Z</time>
      </trkpt>
      <trkpt lat="44.42293" lon="5.22783">
        <ele>616</ele>
        <time>2022-09-29T09:33:21Z</time>
      </trkpt>
      <trkpt lat="44.42293" lon="5.22783">
        <ele>616</ele>
        <time>2022-09-29T09:33:22Z</time>
      </trkpt>
      <trkpt lat="44.42292" lon="5.22784">
        <ele>616</ele>
        <time>2022-09-29T09:33:23Z</time>
      </trkpt>
      <trkpt lat="44.42292" lon="5.22785">
        <ele>616</ele>
        <time>2022-09-29T09:33:24Z</time>
      </trkpt>
      <trkpt lat="44.42292" lon="5.22785">
        <ele>616</ele>
        <time>2022-09-29T09:33:25Z</time>
      </trkpt>
      <trkpt lat="44.42291" lon="5.22786">
        <ele>616</ele>
        <time>2022-09-29T09:33:26Z</time>
      </trkpt>
      <trkpt lat="44.42291" lon="5.22787">
        <ele>616</ele>
        <time>2022-09-29T09:33:27Z</time>
      </trkpt>
      <trkpt lat="44.4229" lon="5.22787">
        <ele>616</ele>
        <time>2022-09-29T09:33:28Z</time>
      </trkpt>
      <trkpt lat="44.4229" lon="5.22788">
        <ele>617</ele>
        <time>2022-09-29T09:33:29Z</time>
      </trkpt>
      <trkpt lat="44.42289" lon="5.22788">
        <ele>617</ele>
        <time>2022-09-29T09:33:30Z</time>
      </trkpt>
      <trkpt lat="44.42289" lon="5.22789">
        <ele>617</ele>
        <time>2022-09-29T09:33:31Z</time>
      </trkpt>
      <trkpt lat="44.42288" lon="5.22789">
        <ele>617</ele>
        <time>2022-09-29T09:33:32Z</time>
      </trkpt>
      <trkpt lat="44.42288" lon="5.2279">
        <ele>617</ele>
        <time>2022-09-29T09:33:33Z</time>
      </trkpt>
      <trkpt lat="44.42287" lon="5.22791">
        <ele>617</ele>
        <time>2022-09-29T09:33:34Z</time>
      </trkpt>
      <trkpt lat="44.42287" lon="5.22791">
        <ele>617</ele>
        <time>2022-09-29T09:33:35Z</time>
      </trkpt>
      <trkpt lat="44.42286" lon="5.22792">
        <ele>617</ele>
        <time>2022-09-29T09:33:36Z</time>
      </trkpt>
      <trkpt lat="44.42286" lon="5.22792">
        <ele>617</ele>
        <time>2022-09-29T09:33:37Z</time>
      </trkpt>
      <trkpt lat="44.42285" lon="5.22793">
        <ele>617</ele>
        <time>2022-09-29T09:33:38Z</time>
      </trkpt>
      <trkpt lat="44.42285" lon="5.22793">
        <ele>618</ele>
        <time>2022-09-29T09:33:39Z</time>
      </trkpt>
      <trkpt lat="44.42284" lon="5.22794">
        <ele>618</ele>
        <time>2022-09-29T09:33:40Z</time>
      </trkpt>
      <trkpt lat="44.42284" lon="5.22794">
        <ele>618</ele>
        <time>2022-09-29T09:33:41Z</time>
      </trkpt>
      <trkpt lat="44.42283" lon="5.22795">
        <ele>618</ele>
        <time>2022-09-29T09:33:42Z</time>
      </trkpt>
      <trkpt lat="44.42283" lon="5.22796">
        <ele>618</ele>
        <time>2022-09-29T09:33:43Z</time>
      </trkpt>
      <trkpt lat="44.42283" lon="5.22797">
        <ele>619</ele>
        <time>2022-09-29T09:33:44Z</time>
      </trkpt>
      <trkpt lat="44.42282" lon="5.22797">
        <ele>619</ele>
        <time>2022-09-29T09:33:45Z</time>
      </trkpt>
      <trkpt lat="44.42282" lon="5.22798">
        <ele>619</ele>
        <time>2022-09-29T09:33:46Z</time>
      </trkpt>
      <trkpt lat="44.42282" lon="5.22799">
        <ele>619</ele>
        <time>2022-09-29T09:33:47Z</time>
      </trkpt>
      <trkpt lat="44.42282" lon="5.228">
        <ele>619</ele>
        <time>2022-09-29T09:33:48Z</time>
      </trkpt>
      <trkpt lat="44.42282" lon="5.22801">
        <ele>619</ele>
        <time>2022-09-29T09:33:49Z</time>
      </trkpt>
      <trkpt lat="44.42282" lon="5.22802">
        <ele>619</ele>
        <time>2022-09-29T09:33:50Z</time>
      </trkpt>
      <trkpt lat="44.42282" lon="5.22803">
        <ele>619</ele>
        <time>2022-09-29T09:33:51Z</time>
      </trkpt>
      <trkpt lat="44.42282" lon="5.22804">
        <ele>620</ele>
        <time>2022-09-29T09:33:52Z</time>
      </trkpt>
      <trkpt lat="44.42282" lon="5.22805">
        <ele>620</ele>
        <time>2022-09-29T09:33:53Z</time>
      </trkpt>
      <trkpt lat="44.42282" lon="5.22806">
        <ele>621</ele>
        <time>2022-09-29T09:33:54Z</time>
      </trkpt>
      <trkpt lat="44.42282" lon="5.22807">
        <ele>621</ele>
        <time>2022-09-29T09:33:55Z</time>
      </trkpt>
      <trkpt lat="44.42282" lon="5.22808">
        <ele>621</ele>
        <time>2022-09-29T09:33:56Z</time>
      </trkpt>
      <trkpt lat="44.42283" lon="5.22809">
        <ele>621</ele>
        <time>2022-09-29T09:33:57Z</time>
      </trkpt>
      <trkpt lat="44.42283" lon="5.22809">
        <ele>621</ele>
        <time>2022-09-29T09:33:58Z</time>
      </trkpt>
      <trkpt lat="44.42283" lon="5.2281">
        <ele>622</ele>
        <time>2022-09-29T09:33:59Z</time>
      </trkpt>
      <trkpt lat="44.42283" lon="5.22811">
        <ele>622</ele>
        <time>2022-09-29T09:34:00Z</time>
      </trkpt>
      <trkpt lat="44.42283" lon="5.22812">
        <ele>622</ele>
        <time>2022-09-29T09:34:01Z</time>
      </trkpt>
      <trkpt lat="44.42283" lon="5.22812">
        <ele>622</ele>
        <time>2022-09-29T09:34:02Z</time>
      </trkpt>
      <trkpt lat="44.42283" lon="5.22813">
        <ele>622</ele>
        <time>2022-09-29T09:34:03Z</time>
      </trkpt>
      <trkpt lat="44.42283" lon="5.22814">
        <ele>622</ele>
        <time>2022-09-29T09:34:04Z</time>
      </trkpt>
      <trkpt lat="44.42283" lon="5.22815">
        <ele>622</ele>
        <time>2022-09-29T09:34:05Z</time>
      </trkpt>
      <trkpt lat="44.42283" lon="5.22816">
        <ele>622</ele>
        <time>2022-09-29T09:34:06Z</time>
      </trkpt>
      <trkpt lat="44.42283" lon="5.22817">
        <ele>622</ele>
        <time>2022-09-29T09:34:07Z</time>
      </trkpt>
      <trkpt lat="44.42283" lon="5.22818">
        <ele>622</ele>
        <time>2022-09-29T09:34:08Z</time>
      </trkpt>
      <trkpt lat="44.42283" lon="5.22819">
        <ele>623</ele>
        <time>2022-09-29T09:34:09Z</time>
      </trkpt>
      <trkpt lat="44.42283" lon="5.2282">
        <ele>623</ele>
        <time>2022-09-29T09:34:10Z</time>
      </trkpt>
      <trkpt lat="44.42283" lon="5.22821">
        <ele>623</ele>
        <time>2022-09-29T09:34:11Z</time>
      </trkpt>
      <trkpt lat="44.42283" lon="5.22822">
        <ele>623</ele>
        <time>2022-09-29T09:34:12Z</time>
      </trkpt>
      <trkpt lat="44.42283" lon="5.22823">
        <ele>623</ele>
        <time>2022-09-29T09:34:13Z</time>
      </trkpt>
      <trkpt lat="44.42282" lon="5.22824">
        <ele>623</ele>
        <time>2022-09-29T09:34:14Z</time>
      </trkpt>
      <trkpt lat="44.42282" lon="5.22824">
        <ele>623</ele>
        <time>2022-09-29T09:34:15Z</time>
      </trkpt>
      <trkpt lat="44.42281" lon="5.22825">
        <ele>623</ele>
        <time>2022-09-29T09:34:16Z</time>
      </trkpt>
      <trkpt lat="44.42281" lon="5.22826">
        <ele>623</ele>
        <time>2022-09-29T09:34:17Z</time>
      </trkpt>
      <trkpt lat="44.4228" lon="5.22827">
        <ele>623</ele>
        <time>2022-09-29T09:34:18Z</time>
      </trkpt>
      <trkpt lat="44.4228" lon="5.22828">
        <ele>624</ele>
        <time>2022-09-29T09:34:19Z</time>
      </trkpt>
      <trkpt lat="44.42279" lon="5.22829">
        <ele>624</ele>
        <time>2022-09-29T09:34:20Z</time>
      </trkpt>
      <trkpt lat="44.42279" lon="5.22829">
        <ele>624</ele>
        <time>2022-09-29T09:34:21Z</time>
      </trkpt>
      <trkpt lat="44.42278" lon="5.2283">
        <ele>624</ele>
        <time>2022-09-29T09:34:22Z</time>
      </trkpt>
      <trkpt lat="44.42278" lon="5.22831">
        <ele>624</ele>
        <time>2022-09-29T09:34:23Z</time>
      </trkpt>
      <trkpt lat="44.42277" lon="5.22832">
        <ele>624</ele>
        <time>2022-09-29T09:34:24Z</time>
      </trkpt>
      <trkpt lat="44.42276" lon="5.22832">
        <ele>624</ele>
        <time>2022-09-29T09:34:25Z</time>
      </trkpt>
      <trkpt lat="44.42276" lon="5.22833">
        <ele>624</ele>
        <time>2022-09-29T09:34:26Z</time>
      </trkpt>
      <trkpt lat="44.42275" lon="5.22834">
        <ele>624</ele>
        <time>2022-09-29T09:34:27Z</time>
      </trkpt>
      <trkpt lat="44.42275" lon="5.22835">
        <ele>624</ele>
        <time>2022-09-29T09:34:28Z</time>
      </trkpt>
      <trkpt lat="44.42274" lon="5.22835">
        <ele>625</ele>
        <time>2022-09-29T09:34:29Z</time>
      </trkpt>
      <trkpt lat="44.42274" lon="5.22836">
        <ele>625</ele>
        <time>2022-09-29T09:34:30Z</time>
      </trkpt>
      <trkpt lat="44.42273" lon="5.22837">
        <ele>625</ele>
        <time>2022-09-29T09:34:31Z</time>
      </trkpt>
      <trkpt lat="44.42273" lon="5.22837">
        <ele>625</ele>
        <time>2022-09-29T09:34:32Z</time>
      </trkpt>
      <trkpt lat="44.42273" lon="5.22838">
        <ele>625</ele>
        <time>2022-09-29T09:34:33Z</time>
      </trkpt>
      <trkpt lat="44.42272" lon="5.22839">
        <ele>625</ele>
        <time>2022-09-29T09:34:34Z</time>
      </trkpt>
      <trkpt lat="44.42272" lon="5.2284">
        <ele>625</ele>
        <time>2022-09-29T09:34:35Z</time>
      </trkpt>
      <trkpt lat="44.42272" lon="5.2284">
        <ele>625</ele>
        <time>2022-09-29T09:34:36Z</time>
      </trkpt>
      <trkpt lat="44.42272" lon="5.22841">
        <ele>625</ele>
        <time>2022-09-29T09:34:37Z</time>
      </trkpt>
      <trkpt lat="44.42271" lon="5.22842">
        <ele>625</ele>
        <time>2022-09-29T09:34:38Z</time>
      </trkpt>
      <trkpt lat="44.42271" lon="5.22843">
        <ele>626</ele>
        <time>2022-09-29T09:34:39Z</time>
      </trkpt>
      <trkpt lat="44.42271" lon="5.22844">
        <ele>626</ele>
        <time>2022-09-29T09:34:40Z</time>
      </trkpt>
      <trkpt lat="44.42271" lon="5.22845">
        <ele>626</ele>
        <time>2022-09-29T09:34:41Z</time>
      </trkpt>
      <trkpt lat="44.42271" lon="5.22845">
        <ele>626</ele>
        <time>2022-09-29T09:34:42Z</time>
      </trkpt>
      <trkpt lat="44.42271" lon="5.22846">
        <ele>626</ele>
        <time>2022-09-29T09:34:43Z</time>
      </trkpt>
      <trkpt lat="44.4227" lon="5.22847">
        <ele>627</ele>
        <time>2022-09-29T09:34:44Z</time>
      </trkpt>
      <trkpt lat="44.4227" lon="5.22848">
        <ele>627</ele>
        <time>2022-09-29T09:34:45Z</time>
      </trkpt>
      <trkpt lat="44.4227" lon="5.22848">
        <ele>627</ele>
        <time>2022-09-29T09:34:46Z</time>
      </trkpt>
      <trkpt lat="44.4227" lon="5.22849">
        <ele>627</ele>
        <time>2022-09-29T09:34:47Z</time>
      </trkpt>
      <trkpt lat="44.4227" lon="5.2285">
        <ele>627</ele>
        <time>2022-09-29T09:34:48Z</time>
      </trkpt>
      <trkpt lat="44.42269" lon="5.22851">
        <ele>627</ele>
        <time>2022-09-29T09:34:49Z</time>
      </trkpt>
      <trkpt lat="44.42269" lon="5.22852">
        <ele>627</ele>
        <time>2022-09-29T09:34:50Z</time>
      </trkpt>
      <trkpt lat="44.42269" lon="5.22853">
        <ele>627</ele>
        <time>2022-09-29T09:34:51Z</time>
      </trkpt>
      <trkpt lat="44.42269" lon="5.22854">
        <ele>627</ele>
        <time>2022-09-29T09:34:52Z</time>
      </trkpt>
      <trkpt lat="44.42268" lon="5.22855">
        <ele>627</ele>
        <time>2022-09-29T09:34:53Z</time>
      </trkpt>
      <trkpt lat="44.42268" lon="5.22855">
        <ele>628</ele>
        <time>2022-09-29T09:34:54Z</time>
      </trkpt>
      <trkpt lat="44.42268" lon="5.22856">
        <ele>628</ele>
        <time>2022-09-29T09:34:55Z</time>
      </trkpt>
      <trkpt lat="44.42268" lon="5.22857">
        <ele>628</ele>
        <time>2022-09-29T09:34:56Z</time>
      </trkpt>
      <trkpt lat="44.42268" lon="5.22858">
        <ele>628</ele>
        <time>2022-09-29T09:34:57Z</time>
      </trkpt>
      <trkpt lat="44.42268" lon="5.22859">
        <ele>628</ele>
        <time>2022-09-29T09:34:58Z</time>
      </trkpt>
      <trkpt lat="44.42268" lon="5.2286">
        <ele>628</ele>
        <time>2022-09-29T09:34:59Z</time>
      </trkpt>
      <trkpt lat="44.42267" lon="5.2286">
        <ele>628</ele>
        <time>2022-09-29T09:35:00Z</time>
      </trkpt>
      <trkpt lat="44.42267" lon="5.22861">
        <ele>628</ele>
        <time>2022-09-29T09:35:01Z</time>
      </trkpt>
      <trkpt lat="44.42267" lon="5.22862">
        <ele>628</ele>
        <time>2022-09-29T09:35:02Z</time>
      </trkpt>
      <trkpt lat="44.42267" lon="5.22863">
        <ele>628</ele>
        <time>2022-09-29T09:35:03Z</time>
      </trkpt>
      <trkpt lat="44.42267" lon="5.22864">
        <ele>629</ele>
        <time>2022-09-29T09:35:04Z</time>
      </trkpt>
      <trkpt lat="44.42267" lon="5.22865">
        <ele>629</ele>
        <time>2022-09-29T09:35:05Z</time>
      </trkpt>
      <trkpt lat="44.42267" lon="5.22866">
        <ele>629</ele>
        <time>2022-09-29T09:35:06Z</time>
      </trkpt>
      <trkpt lat="44.42267" lon="5.22867">
        <ele>629</ele>
        <time>2022-09-29T09:35:07Z</time>
      </trkpt>
      <trkpt lat="44.42267" lon="5.22867">
        <ele>629</ele>
        <time>2022-09-29T09:35:08Z</time>
      </trkpt>
      <trkpt lat="44.42267" lon="5.22868">
        <ele>630</ele>
        <time>2022-09-29T09:35:09Z</time>
      </trkpt>
      <trkpt lat="44.42267" lon="5.22869">
        <ele>630</ele>
        <time>2022-09-29T09:35:10Z</time>
      </trkpt>
      <trkpt lat="44.42267" lon="5.2287">
        <ele>630</ele>
        <time>2022-09-29T09:35:11Z</time>
      </trkpt>
      <trkpt lat="44.42267" lon="5.22871">
        <ele>630</ele>
        <time>2022-09-29T09:35:12Z</time>
      </trkpt>
      <trkpt lat="44.42268" lon="5.22872">
        <ele>630</ele>
        <time>2022-09-29T09:35:13Z</time>
      </trkpt>
      <trkpt lat="44.42268" lon="5.22872">
        <ele>630</ele>
        <time>2022-09-29T09:35:14Z</time>
      </trkpt>
      <trkpt lat="44.42268" lon="5.22873">
        <ele>630</ele>
        <time>2022-09-29T09:35:15Z</time>
      </trkpt>
      <trkpt lat="44.42268" lon="5.22874">
        <ele>630</ele>
        <time>2022-09-29T09:35:16Z</time>
      </trkpt>
      <trkpt lat="44.42268" lon="5.22875">
        <ele>630</ele>
        <time>2022-09-29T09:35:17Z</time>
      </trkpt>
      <trkpt lat="44.42268" lon="5.22876">
        <ele>630</ele>
        <time>2022-09-29T09:35:18Z</time>
      </trkpt>
      <trkpt lat="44.42269" lon="5.22877">
        <ele>631</ele>
        <time>2022-09-29T09:35:19Z</time>
      </trkpt>
      <trkpt lat="44.42269" lon="5.22878">
        <ele>631</ele>
        <time>2022-09-29T09:35:20Z</time>
      </trkpt>
      <trkpt lat="44.42269" lon="5.22879">
        <ele>631</ele>
        <time>2022-09-29T09:35:21Z</time>
      </trkpt>
      <trkpt lat="44.42269" lon="5.2288">
        <ele>631</ele>
        <time>2022-09-29T09:35:22Z</time>
      </trkpt>
      <trkpt lat="44.4227" lon="5.22881">
        <ele>631</ele>
        <time>2022-09-29T09:35:23Z</time>
      </trkpt>
      <trkpt lat="44.4227" lon="5.22881">
        <ele>632</ele>
        <time>2022-09-29T09:35:24Z</time>
      </trkpt>
      <trkpt lat="44.42271" lon="5.22882">
        <ele>632</ele>
        <time>2022-09-29T09:35:25Z</time>
      </trkpt>
      <trkpt lat="44.42271" lon="5.22883">
        <ele>632</ele>
        <time>2022-09-29T09:35:26Z</time>
      </trkpt>
      <trkpt lat="44.42271" lon="5.22884">
        <ele>632</ele>
        <time>2022-09-29T09:35:27Z</time>
      </trkpt>
      <trkpt lat="44.42272" lon="5.22885">
        <ele>632</ele>
        <time>2022-09-29T09:35:28Z</time>
      </trkpt>
      <trkpt lat="44.42272" lon="5.22886">
        <ele>632</ele>
        <time>2022-09-29T09:35:29Z</time>
      </trkpt>
      <trkpt lat="44.42273" lon="5.22886">
        <ele>632</ele>
        <time>2022-09-29T09:35:30Z</time>
      </trkpt>
      <trkpt lat="44.42273" lon="5.22887">
        <ele>632</ele>
        <time>2022-09-29T09:35:31Z</time>
      </trkpt>
      <trkpt lat="44.42273" lon="5.22888">
        <ele>632</ele>
        <time>2022-09-29T09:35:32Z</time>
      </trkpt>
      <trkpt lat="44.42274" lon="5.22888">
        <ele>632</ele>
        <time>2022-09-29T09:35:33Z</time>
      </trkpt>
      <trkpt lat="44.42274" lon="5.22889">
        <ele>633</ele>
        <time>2022-09-29T09:35:34Z</time>
      </trkpt>
      <trkpt lat="44.42274" lon="5.2289">
        <ele>633</ele>
        <time>2022-09-29T09:35:35Z</time>
      </trkpt>
      <trkpt lat="44.42275" lon="5.22891">
        <ele>633</ele>
        <time>2022-09-29T09:35:36Z</time>
      </trkpt>
      <trkpt lat="44.42275" lon="5.22891">
        <ele>633</ele>
        <time>2022-09-29T09:35:37Z</time>
      </trkpt>
      <trkpt lat="44.42275" lon="5.22892">
        <ele>633</ele>
        <time>2022-09-29T09:35:38Z</time>
      </trkpt>
      <trkpt lat="44.42275" lon="5.22893">
        <ele>634</ele>
        <time>2022-09-29T09:35:39Z</time>
      </trkpt>
      <trkpt lat="44.42276" lon="5.22894">
        <ele>634</ele>
        <time>2022-09-29T09:35:40Z</time>
      </trkpt>
      <trkpt lat="44.42276" lon="5.22895">
        <ele>634</ele>
        <time>2022-09-29T09:35:41Z</time>
      </trkpt>
      <trkpt lat="44.42276" lon="5.22896">
        <ele>634</ele>
        <time>2022-09-29T09:35:42Z</time>
      </trkpt>
      <trkpt lat="44.42276" lon="5.22897">
        <ele>634</ele>
        <time>2022-09-29T09:35:43Z</time>
      </trkpt>
      <trkpt lat="44.42276" lon="5.22897">
        <ele>634</ele>
        <time>2022-09-29T09:35:44Z</time>
      </trkpt>
      <trkpt lat="44.42277" lon="5.22898">
        <ele>634</ele>
        <time>2022-09-29T09:35:45Z</time>
      </trkpt>
      <trkpt lat="44.42277" lon="5.22899">
        <ele>634</ele>
        <time>2022-09-29T09:35:46Z</time>
      </trkpt>
      <trkpt lat="44.42278" lon="5.229">
        <ele>634</ele>
        <time>2022-09-29T09:35:47Z</time>
      </trkpt>
      <trkpt lat="44.42278" lon="5.229">
        <ele>634</ele>
        <time>2022-09-29T09:35:48Z</time>
      </trkpt>
      <trkpt lat="44.42279" lon="5.22901">
        <ele>635</ele>
        <time>2022-09-29T09:35:49Z</time>
      </trkpt>
      <trkpt lat="44.42279" lon="5.22902">
        <ele>635</ele>
        <time>2022-09-29T09:35:50Z</time>
      </trkpt>
      <trkpt lat="44.42279" lon="5.22903">
        <ele>635</ele>
        <time>2022-09-29T09:35:51Z</time>
      </trkpt>
      <trkpt lat="44.4228" lon="5.22904">
        <ele>635</ele>
        <time>2022-09-29T09:35:52Z</time>
      </trkpt>
      <trkpt lat="44.4228" lon="5.22906">
        <ele>635</ele>
        <time>2022-09-29T09:35:53Z</time>
      </trkpt>
      <trkpt lat="44.4228" lon="5.22907">
        <ele>635</ele>
        <time>2022-09-29T09:35:54Z</time>
      </trkpt>
      <trkpt lat="44.42281" lon="5.22908">
        <ele>635</ele>
        <time>2022-09-29T09:35:55Z</time>
      </trkpt>
      <trkpt lat="44.42281" lon="5.22909">
        <ele>635</ele>
        <time>2022-09-29T09:35:56Z</time>
      </trkpt>
      <trkpt lat="44.42281" lon="5.2291">
        <ele>635</ele>
        <time>2022-09-29T09:35:57Z</time>
      </trkpt>
      <trkpt lat="44.4228" lon="5.22911">
        <ele>635</ele>
        <time>2022-09-29T09:35:58Z</time>
      </trkpt>
      <trkpt lat="44.4228" lon="5.22912">
        <ele>636</ele>
        <time>2022-09-29T09:35:59Z</time>
      </trkpt>
      <trkpt lat="44.4228" lon="5.22913">
        <ele>636</ele>
        <time>2022-09-29T09:36:00Z</time>
      </trkpt>
      <trkpt lat="44.42279" lon="5.22914">
        <ele>636</ele>
        <time>2022-09-29T09:36:01Z</time>
      </trkpt>
      <trkpt lat="44.42279" lon="5.22914">
        <ele>636</ele>
        <time>2022-09-29T09:36:02Z</time>
      </trkpt>
      <trkpt lat="44.42278" lon="5.22915">
        <ele>636</ele>
        <time>2022-09-29T09:36:03Z</time>
      </trkpt>
      <trkpt lat="44.42278" lon="5.22915">
        <ele>636</ele>
        <time>2022-09-29T09:36:04Z</time>
      </trkpt>
      <trkpt lat="44.42277" lon="5.22916">
        <ele>636</ele>
        <time>2022-09-29T09:36:05Z</time>
      </trkpt>
      <trkpt lat="44.42276" lon="5.22916">
        <ele>636</ele>
        <time>2022-09-29T09:36:06Z</time>
      </trkpt>
      <trkpt lat="44.42276" lon="5.22916">
        <ele>636</ele>
        <time>2022-09-29T09:36:07Z</time>
      </trkpt>
      <trkpt lat="44.42275" lon="5.22917">
        <ele>636</ele>
        <time>2022-09-29T09:36:08Z</time>
      </trkpt>
      <trkpt lat="44.42274" lon="5.22917">
        <ele>637</ele>
        <time>2022-09-29T09:36:09Z</time>
      </trkpt>
      <trkpt lat="44.42274" lon="5.22917">
        <ele>637</ele>
        <time>2022-09-29T09:36:10Z</time>
      </trkpt>
      <trkpt lat="44.42273" lon="5.22917">
        <ele>637</ele>
        <time>2022-09-29T09:36:11Z</time>
      </trkpt>
      <trkpt lat="44.42272" lon="5.22917">
        <ele>637</ele>
        <time>2022-09-29T09:36:12Z</time>
      </trkpt>
      <trkpt lat="44.42272" lon="5.22917">
        <ele>637</ele>
        <time>2022-09-29T09:36:13Z</time>
      </trkpt>
      <trkpt lat="44.42271" lon="5.22917">
        <ele>638</ele>
        <time>2022-09-29T09:36:14Z</time>
      </trkpt>
      <trkpt lat="44.42271" lon="5.22916">
        <ele>638</ele>
        <time>2022-09-29T09:36:15Z</time>
      </trkpt>
      <trkpt lat="44.42271" lon="5.22916">
        <ele>638</ele>
        <time>2022-09-29T09:36:16Z</time>
      </trkpt>
      <trkpt lat="44.4227" lon="5.22916">
        <ele>638</ele>
        <time>2022-09-29T09:36:17Z</time>
      </trkpt>
      <trkpt lat="44.4227" lon="5.22915">
        <ele>638</ele>
        <time>2022-09-29T09:36:18Z</time>
      </trkpt>
      <trkpt lat="44.42269" lon="5.22914">
        <ele>638</ele>
        <time>2022-09-29T09:36:19Z</time>
      </trkpt>
      <trkpt lat="44.42268" lon="5.22913">
        <ele>638</ele>
        <time>2022-09-29T09:36:20Z</time>
      </trkpt>
      <trkpt lat="44.42268" lon="5.22913">
        <ele>638</ele>
        <time>2022-09-29T09:36:21Z</time>
      </trkpt>
      <trkpt lat="44.42267" lon="5.22912">
        <ele>638</ele>
        <time>2022-09-29T09:36:22Z</time>
      </trkpt>
      <trkpt lat="44.42267" lon="5.22911">
        <ele>638</ele>
        <time>2022-09-29T09:36:23Z</time>
      </trkpt>
      <trkpt lat="44.42266" lon="5.2291">
        <ele>639</ele>
        <time>2022-09-29T09:36:24Z</time>
      </trkpt>
      <trkpt lat="44.42265" lon="5.22909">
        <ele>639</ele>
        <time>2022-09-29T09:36:25Z</time>
      </trkpt>
      <trkpt lat="44.42265" lon="5.22909">
        <ele>639</ele>
        <time>2022-09-29T09:36:26Z</time>
      </trkpt>
      <trkpt lat="44.42264" lon="5.22908">
        <ele>639</ele>
        <time>2022-09-29T09:36:27Z</time>
      </trkpt>
      <trkpt lat="44.42264" lon="5.22908">
        <ele>639</ele>
        <time>2022-09-29T09:36:28Z</time>
      </trkpt>
      <trkpt lat="44.42263" lon="5.22907">
        <ele>640</ele>
        <time>2022-09-29T09:36:29Z</time>
      </trkpt>
      <trkpt lat="44.42262" lon="5.22906">
        <ele>640</ele>
        <time>2022-09-29T09:36:30Z</time>
      </trkpt>
      <trkpt lat="44.42262" lon="5.22906">
        <ele>640</ele>
        <time>2022-09-29T09:36:31Z</time>
      </trkpt>
      <trkpt lat="44.42261" lon="5.22905">
        <ele>640</ele>
        <time>2022-09-29T09:36:32Z</time>
      </trkpt>
      <trkpt lat="44.4226" lon="5.22905">
        <ele>640</ele>
        <time>2022-09-29T09:36:33Z</time>
      </trkpt>
      <trkpt lat="44.42259" lon="5.22904">
        <ele>640</ele>
        <time>2022-09-29T09:36:34Z</time>
      </trkpt>
      <trkpt lat="44.42259" lon="5.22904">
        <ele>640</ele>
        <time>2022-09-29T09:36:35Z</time>
      </trkpt>
      <trkpt lat="44.42258" lon="5.22904">
        <ele>640</ele>
        <time>2022-09-29T09:36:36Z</time>
      </trkpt>
      <trkpt lat="44.42257" lon="5.22903">
        <ele>640</ele>
        <time>2022-09-29T09:36:37Z</time>
      </trkpt>
      <trkpt lat="44.42256" lon="5.22902">
        <ele>640</ele>
        <time>2022-09-29T09:36:38Z</time>
      </trkpt>
      <trkpt lat="44.42256" lon="5.22902">
        <ele>641</ele>
        <time>2022-09-29T09:36:39Z</time>
      </trkpt>
      <trkpt lat="44.42255" lon="5.22902">
        <ele>641</ele>
        <time>2022-09-29T09:36:40Z</time>
      </trkpt>
      <trkpt lat="44.42255" lon="5.22901">
        <ele>641</ele>
        <time>2022-09-29T09:36:41Z</time>
      </trkpt>
      <trkpt lat="44.42254" lon="5.22901">
        <ele>641</ele>
        <time>2022-09-29T09:36:42Z</time>
      </trkpt>
      <trkpt lat="44.42254" lon="5.229">
        <ele>641</ele>
        <time>2022-09-29T09:36:43Z</time>
      </trkpt>
      <trkpt lat="44.42253" lon="5.22899">
        <ele>641</ele>
        <time>2022-09-29T09:36:44Z</time>
      </trkpt>
      <trkpt lat="44.42252" lon="5.22898">
        <ele>641</ele>
        <time>2022-09-29T09:36:45Z</time>
      </trkpt>
      <trkpt lat="44.42252" lon="5.22897">
        <ele>641</ele>
        <time>2022-09-29T09:36:46Z</time>
      </trkpt>
      <trkpt lat="44.42251" lon="5.22897">
        <ele>641</ele>
        <time>2022-09-29T09:36:47Z</time>
      </trkpt>
      <trkpt lat="44.4225" lon="5.22896">
        <ele>641</ele>
        <time>2022-09-29T09:36:48Z</time>
      </trkpt>
      <trkpt lat="44.4225" lon="5.22896">
        <ele>642</ele>
        <time>2022-09-29T09:36:49Z</time>
      </trkpt>
      <trkpt lat="44.42249" lon="5.22895">
        <ele>642</ele>
        <time>2022-09-29T09:36:50Z</time>
      </trkpt>
      <trkpt lat="44.42248" lon="5.22895">
        <ele>642</ele>
        <time>2022-09-29T09:36:51Z</time>
      </trkpt>
      <trkpt lat="44.42248" lon="5.22894">
        <ele>642</ele>
        <time>2022-09-29T09:36:52Z</time>
      </trkpt>
      <trkpt lat="44.42247" lon="5.22894">
        <ele>642</ele>
        <time>2022-09-29T09:36:53Z</time>
      </trkpt>
      <trkpt lat="44.42246" lon="5.22894">
        <ele>643</ele>
        <time>2022-09-29T09:36:54Z</time>
      </trkpt>
      <trkpt lat="44.42245" lon="5.22893">
        <ele>643</ele>
        <time>2022-09-29T09:36:55Z</time>
      </trkpt>
      <trkpt lat="44.42245" lon="5.22893">
        <ele>643</ele>
        <time>2022-09-29T09:36:56Z</time>
      </trkpt>
      <trkpt lat="44.42244" lon="5.22892">
        <ele>643</ele>
        <time>2022-09-29T09:36:57Z</time>
      </trkpt>
      <trkpt lat="44.42244" lon="5.22892">
        <ele>643</ele>
        <time>2022-09-29T09:36:58Z</time>
      </trkpt>
      <trkpt lat="44.42243" lon="5.22892">
        <ele>643</ele>
        <time>2022-09-29T09:36:59Z</time>
      </trkpt>
      <trkpt lat="44.42242" lon="5.22891">
        <ele>643</ele>
        <time>2022-09-29T09:37:00Z</time>
      </trkpt>
      <trkpt lat="44.42242" lon="5.22891">
        <ele>643</ele>
        <time>2022-09-29T09:37:01Z</time>
      </trkpt>
      <trkpt lat="44.42241" lon="5.22891">
        <ele>643</ele>
        <time>2022-09-29T09:37:02Z</time>
      </trkpt>
      <trkpt lat="44.42241" lon="5.22891">
        <ele>643</ele>
        <time>2022-09-29T09:37:03Z</time>
      </trkpt>
      <trkpt lat="44.4224" lon="5.2289">
        <ele>644</ele>
        <time>2022-09-29T09:37:04Z</time>
      </trkpt>
      <trkpt lat="44.4224" lon="5.2289">
        <ele>644</ele>
        <time>2022-09-29T09:37:05Z</time>
      </trkpt>
      <trkpt lat="44.42239" lon="5.2289">
        <ele>644</ele>
        <time>2022-09-29T09:37:06Z</time>
      </trkpt>
      <trkpt lat="44.42238" lon="5.2289">
        <ele>644</ele>
        <time>2022-09-29T09:37:07Z</time>
      </trkpt>
      <trkpt lat="44.42238" lon="5.2289">
        <ele>644</ele>
        <time>2022-09-29T09:37:08Z</time>
      </trkpt>
      <trkpt lat="44.42237" lon="5.22889">
        <ele>644</ele>
        <time>2022-09-29T09:37:09Z</time>
      </trkpt>
      <trkpt lat="44.42237" lon="5.22889">
        <ele>644</ele>
        <time>2022-09-29T09:37:10Z</time>
      </trkpt>
      <trkpt lat="44.42237" lon="5.22889">
        <ele>644</ele>
        <time>2022-09-29T09:37:11Z</time>
      </trkpt>
      <trkpt lat="44.42237" lon="5.22889">
        <ele>644</ele>
        <time>2022-09-29T09:37:12Z</time>
      </trkpt>
      <trkpt lat="44.42236" lon="5.22889">
        <ele>644</ele>
        <time>2022-09-29T09:37:13Z</time>
      </trkpt>
      <trkpt lat="44.42236" lon="5.22889">
        <ele>645</ele>
        <time>2022-09-29T09:37:14Z</time>
      </trkpt>
      <trkpt lat="44.42235" lon="5.22889">
        <ele>645</ele>
        <time>2022-09-29T09:37:15Z</time>
      </trkpt>
      <trkpt lat="44.42234" lon="5.2289">
        <ele>645</ele>
        <time>2022-09-29T09:37:16Z</time>
      </trkpt>
      <trkpt lat="44.42234" lon="5.2289">
        <ele>645</ele>
        <time>2022-09-29T09:37:17Z</time>
      </trkpt>
      <trkpt lat="44.42233" lon="5.2289">
        <ele>645</ele>
        <time>2022-09-29T09:37:18Z</time>
      </trkpt>
      <trkpt lat="44.42233" lon="5.2289">
        <ele>646</ele>
        <time>2022-09-29T09:37:19Z</time>
      </trkpt>
      <trkpt lat="44.42232" lon="5.2289">
        <ele>646</ele>
        <time>2022-09-29T09:37:20Z</time>
      </trkpt>
      <trkpt lat="44.42231" lon="5.2289">
        <ele>646</ele>
        <time>2022-09-29T09:37:21Z</time>
      </trkpt>
      <trkpt lat="44.42231" lon="5.2289">
        <ele>646</ele>
        <time>2022-09-29T09:37:22Z</time>
      </trkpt>
      <trkpt lat="44.4223" lon="5.2289">
        <ele>646</ele>
        <time>2022-09-29T09:37:23Z</time>
      </trkpt>
      <trkpt lat="44.4223" lon="5.2289">
        <ele>646</ele>
        <time>2022-09-29T09:37:24Z</time>
      </trkpt>
      <trkpt lat="44.42229" lon="5.2289">
        <ele>646</ele>
        <time>2022-09-29T09:37:25Z</time>
      </trkpt>
      <trkpt lat="44.42229" lon="5.2289">
        <ele>646</ele>
        <time>2022-09-29T09:37:26Z</time>
      </trkpt>
      <trkpt lat="44.42228" lon="5.22891">
        <ele>646</ele>
        <time>2022-09-29T09:37:27Z</time>
      </trkpt>
      <trkpt lat="44.42228" lon="5.22891">
        <ele>646</ele>
        <time>2022-09-29T09:37:28Z</time>
      </trkpt>
      <trkpt lat="44.42227" lon="5.22891">
        <ele>647</ele>
        <time>2022-09-29T09:37:29Z</time>
      </trkpt>
      <trkpt lat="44.42227" lon="5.22892">
        <ele>647</ele>
        <time>2022-09-29T09:37:30Z</time>
      </trkpt>
      <trkpt lat="44.42227" lon="5.22892">
        <ele>647</ele>
        <time>2022-09-29T09:37:31Z</time>
      </trkpt>
      <trkpt lat="44.42226" lon="5.22892">
        <ele>647</ele>
        <time>2022-09-29T09:37:32Z</time>
      </trkpt>
      <trkpt lat="44.42224" lon="5.22893">
        <ele>648</ele>
        <time>2022-09-29T09:37:47Z</time>
      </trkpt>
      <trkpt lat="44.42223" lon="5.22894">
        <ele>648</ele>
        <time>2022-09-29T09:37:48Z</time>
      </trkpt>
      <trkpt lat="44.42222" lon="5.22894">
        <ele>648</ele>
        <time>2022-09-29T09:37:49Z</time>
      </trkpt>
      <trkpt lat="44.42221" lon="5.22895">
        <ele>648</ele>
        <time>2022-09-29T09:37:50Z</time>
      </trkpt>
      <trkpt lat="44.42342" lon="5.23226">
        <ele>648</ele>
        <time>2022-09-29T09:49:47Z</time>
      </trkpt>
      <trkpt lat="44.42343" lon="5.23226">
        <ele>649</ele>
        <time>2022-09-29T09:49:48Z</time>
      </trkpt>
      <trkpt lat="44.42343" lon="5.23226">
        <ele>649</ele>
        <time>2022-09-29T09:49:49Z</time>
      </trkpt>
      <trkpt lat="44.42344" lon="5.23226">
        <ele>649</ele>
        <time>2022-09-29T09:49:50Z</time>
      </trkpt>
      <trkpt lat="44.42344" lon="5.23226">
        <ele>649</ele>
        <time>2022-09-29T09:49:51Z</time>
      </trkpt>
      <trkpt lat="44.42345" lon="5.23226">
        <ele>649</ele>
        <time>2022-09-29T09:49:52Z</time>
      </trkpt>
      <trkpt lat="44.42345" lon="5.23226">
        <ele>649</ele>
        <time>2022-09-29T09:49:53Z</time>
      </trkpt>
      <trkpt lat="44.42346" lon="5.23226">
        <ele>648</ele>
        <time>2022-09-29T09:49:54Z</time>
      </trkpt>
      <trkpt lat="44.42347" lon="5.23226">
        <ele>648</ele>
        <time>2022-09-29T09:49:55Z</time>
      </trkpt>
      <trkpt lat="44.42348" lon="5.23227">
        <ele>648</ele>
        <time>2022-09-29T09:49:56Z</time>
      </trkpt>
      <trkpt lat="44.42348" lon="5.23227">
        <ele>648</ele>
        <time>2022-09-29T09:49:57Z</time>
      </trkpt>
      <trkpt lat="44.42349" lon="5.23227">
        <ele>648</ele>
        <time>2022-09-29T09:49:58Z</time>
      </trkpt>
      <trkpt lat="44.4235" lon="5.23228">
        <ele>647</ele>
        <time>2022-09-29T09:49:59Z</time>
      </trkpt>
      <trkpt lat="44.42351" lon="5.23228">
        <ele>647</ele>
        <time>2022-09-29T09:50:00Z</time>
      </trkpt>
      <trkpt lat="44.42352" lon="5.23229">
        <ele>647</ele>
        <time>2022-09-29T09:50:01Z</time>
      </trkpt>
      <trkpt lat="44.42353" lon="5.23229">
        <ele>647</ele>
        <time>2022-09-29T09:50:02Z</time>
      </trkpt>
      <trkpt lat="44.42353" lon="5.23229">
        <ele>647</ele>
        <time>2022-09-29T09:50:03Z</time>
      </trkpt>
      <trkpt lat="44.42354" lon="5.23229">
        <ele>647</ele>
        <time>2022-09-29T09:50:04Z</time>
      </trkpt>
      <trkpt lat="44.42355" lon="5.2323">
        <ele>647</ele>
        <time>2022-09-29T09:50:05Z</time>
      </trkpt>
      <trkpt lat="44.42356" lon="5.2323">
        <ele>647</ele>
        <time>2022-09-29T09:50:06Z</time>
      </trkpt>
      <trkpt lat="44.42357" lon="5.2323">
        <ele>647</ele>
        <time>2022-09-29T09:50:07Z</time>
      </trkpt>
      <trkpt lat="44.42358" lon="5.2323">
        <ele>647</ele>
        <time>2022-09-29T09:50:08Z</time>
      </trkpt>
      <trkpt lat="44.42359" lon="5.2323">
        <ele>646</ele>
        <time>2022-09-29T09:50:09Z</time>
      </trkpt>
      <trkpt lat="44.4236" lon="5.2323">
        <ele>646</ele>
        <time>2022-09-29T09:50:10Z</time>
      </trkpt>
      <trkpt lat="44.4236" lon="5.23231">
        <ele>646</ele>
        <time>2022-09-29T09:50:11Z</time>
      </trkpt>
      <trkpt lat="44.42361" lon="5.23231">
        <ele>646</ele>
        <time>2022-09-29T09:50:12Z</time>
      </trkpt>
      <trkpt lat="44.42362" lon="5.23231">
        <ele>646</ele>
        <time>2022-09-29T09:50:13Z</time>
      </trkpt>
      <trkpt lat="44.42363" lon="5.23231">
        <ele>645</ele>
        <time>2022-09-29T09:50:14Z</time>
      </trkpt>
      <trkpt lat="44.42364" lon="5.23232">
        <ele>645</ele>
        <time>2022-09-29T09:50:15Z</time>
      </trkpt>
      <trkpt lat="44.42365" lon="5.23232">
        <ele>645</ele>
        <time>2022-09-29T09:50:16Z</time>
      </trkpt>
      <trkpt lat="44.42366" lon="5.23233">
        <ele>645</ele>
        <time>2022-09-29T09:50:17Z</time>
      </trkpt>
      <trkpt lat="44.42367" lon="5.23233">
        <ele>645</ele>
        <time>2022-09-29T09:50:18Z</time>
      </trkpt>
      <trkpt lat="44.42368" lon="5.23234">
        <ele>644</ele>
        <time>2022-09-29T09:50:19Z</time>
      </trkpt>
      <trkpt lat="44.42369" lon="5.23234">
        <ele>644</ele>
        <time>2022-09-29T09:50:20Z</time>
      </trkpt>
      <trkpt lat="44.4237" lon="5.23235">
        <ele>644</ele>
        <time>2022-09-29T09:50:21Z</time>
      </trkpt>
      <trkpt lat="44.42371" lon="5.23236">
        <ele>644</ele>
        <time>2022-09-29T09:50:22Z</time>
      </trkpt>
      <trkpt lat="44.42372" lon="5.23237">
        <ele>644</ele>
        <time>2022-09-29T09:50:23Z</time>
      </trkpt>
      <trkpt lat="44.42373" lon="5.23237">
        <ele>643</ele>
        <time>2022-09-29T09:50:24Z</time>
      </trkpt>
      <trkpt lat="44.42373" lon="5.23238">
        <ele>643</ele>
        <time>2022-09-29T09:50:25Z</time>
      </trkpt>
      <trkpt lat="44.42374" lon="5.23239">
        <ele>643</ele>
        <time>2022-09-29T09:50:26Z</time>
      </trkpt>
      <trkpt lat="44.42375" lon="5.2324">
        <ele>643</ele>
        <time>2022-09-29T09:50:27Z</time>
      </trkpt>
      <trkpt lat="44.42376" lon="5.23241">
        <ele>643</ele>
        <time>2022-09-29T09:50:28Z</time>
      </trkpt>
      <trkpt lat="44.42377" lon="5.23241">
        <ele>642</ele>
        <time>2022-09-29T09:50:29Z</time>
      </trkpt>
      <trkpt lat="44.42378" lon="5.23242">
        <ele>642</ele>
        <time>2022-09-29T09:50:30Z</time>
      </trkpt>
      <trkpt lat="44.42379" lon="5.23243">
        <ele>642</ele>
        <time>2022-09-29T09:50:31Z</time>
      </trkpt>
      <trkpt lat="44.42379" lon="5.23243">
        <ele>642</ele>
        <time>2022-09-29T09:50:32Z</time>
      </trkpt>
      <trkpt lat="44.4238" lon="5.23244">
        <ele>642</ele>
        <time>2022-09-29T09:50:33Z</time>
      </trkpt>
      <trkpt lat="44.42381" lon="5.23244">
        <ele>641</ele>
        <time>2022-09-29T09:50:34Z</time>
      </trkpt>
      <trkpt lat="44.42381" lon="5.23245">
        <ele>641</ele>
        <time>2022-09-29T09:50:35Z</time>
      </trkpt>
      <trkpt lat="44.42382" lon="5.23245">
        <ele>641</ele>
        <time>2022-09-29T09:50:36Z</time>
      </trkpt>
      <trkpt lat="44.42383" lon="5.23246">
        <ele>641</ele>
        <time>2022-09-29T09:50:37Z</time>
      </trkpt>
      <trkpt lat="44.42384" lon="5.23246">
        <ele>641</ele>
        <time>2022-09-29T09:50:38Z</time>
      </trkpt>
      <trkpt lat="44.42385" lon="5.23247">
        <ele>641</ele>
        <time>2022-09-29T09:50:39Z</time>
      </trkpt>
      <trkpt lat="44.42386" lon="5.23247">
        <ele>641</ele>
        <time>2022-09-29T09:50:40Z</time>
      </trkpt>
      <trkpt lat="44.42387" lon="5.23248">
        <ele>641</ele>
        <time>2022-09-29T09:50:41Z</time>
      </trkpt>
      <trkpt lat="44.42388" lon="5.23249">
        <ele>641</ele>
        <time>2022-09-29T09:50:42Z</time>
      </trkpt>
      <trkpt lat="44.42389" lon="5.23249">
        <ele>641</ele>
        <time>2022-09-29T09:50:43Z</time>
      </trkpt>
      <trkpt lat="44.4239" lon="5.23249">
        <ele>640</ele>
        <time>2022-09-29T09:50:44Z</time>
      </trkpt>
      <trkpt lat="44.42391" lon="5.2325">
        <ele>640</ele>
        <time>2022-09-29T09:50:45Z</time>
      </trkpt>
      <trkpt lat="44.42392" lon="5.2325">
        <ele>640</ele>
        <time>2022-09-29T09:50:46Z</time>
      </trkpt>
      <trkpt lat="44.42393" lon="5.23251">
        <ele>640</ele>
        <time>2022-09-29T09:50:47Z</time>
      </trkpt>
      <trkpt lat="44.42393" lon="5.23251">
        <ele>640</ele>
        <time>2022-09-29T09:50:48Z</time>
      </trkpt>
      <trkpt lat="44.42394" lon="5.23252">
        <ele>639</ele>
        <time>2022-09-29T09:50:49Z</time>
      </trkpt>
      <trkpt lat="44.42395" lon="5.23253">
        <ele>639</ele>
        <time>2022-09-29T09:50:50Z</time>
      </trkpt>
      <trkpt lat="44.42396" lon="5.23253">
        <ele>639</ele>
        <time>2022-09-29T09:50:51Z</time>
      </trkpt>
      <trkpt lat="44.42397" lon="5.23254">
        <ele>639</ele>
        <time>2022-09-29T09:50:52Z</time>
      </trkpt>
      <trkpt lat="44.42398" lon="5.23255">
        <ele>639</ele>
        <time>2022-09-29T09:50:53Z</time>
      </trkpt>
      <trkpt lat="44.42399" lon="5.23256">
        <ele>638</ele>
        <time>2022-09-29T09:50:54Z</time>
      </trkpt>
      <trkpt lat="44.42399" lon="5.23257">
        <ele>638</ele>
        <time>2022-09-29T09:50:55Z</time>
      </trkpt>
      <trkpt lat="44.424" lon="5.23258">
        <ele>638</ele>
        <time>2022-09-29T09:50:56Z</time>
      </trkpt>
      <trkpt lat="44.42401" lon="5.23259">
        <ele>638</ele>
        <time>2022-09-29T09:50:57Z</time>
      </trkpt>
      <trkpt lat="44.42401" lon="5.2326">
        <ele>638</ele>
        <time>2022-09-29T09:50:58Z</time>
      </trkpt>
      <trkpt lat="44.42402" lon="5.23261">
        <ele>638</ele>
        <time>2022-09-29T09:50:59Z</time>
      </trkpt>
      <trkpt lat="44.42403" lon="5.23262">
        <ele>638</ele>
        <time>2022-09-29T09:51:00Z</time>
      </trkpt>
      <trkpt lat="44.42403" lon="5.23263">
        <ele>638</ele>
        <time>2022-09-29T09:51:01Z</time>
      </trkpt>
      <trkpt lat="44.42404" lon="5.23264">
        <ele>638</ele>
        <time>2022-09-29T09:51:02Z</time>
      </trkpt>
      <trkpt lat="44.42405" lon="5.23264">
        <ele>638</ele>
        <time>2022-09-29T09:51:03Z</time>
      </trkpt>
      <trkpt lat="44.42406" lon="5.23265">
        <ele>637</ele>
        <time>2022-09-29T09:51:04Z</time>
      </trkpt>
      <trkpt lat="44.42406" lon="5.23266">
        <ele>637</ele>
        <time>2022-09-29T09:51:05Z</time>
      </trkpt>
      <trkpt lat="44.42407" lon="5.23267">
        <ele>637</ele>
        <time>2022-09-29T09:51:06Z</time>
      </trkpt>
      <trkpt lat="44.42408" lon="5.23267">
        <ele>637</ele>
        <time>2022-09-29T09:51:07Z</time>
      </trkpt>
      <trkpt lat="44.42409" lon="5.23268">
        <ele>637</ele>
        <time>2022-09-29T09:51:08Z</time>
      </trkpt>
      <trkpt lat="44.4241" lon="5.23269">
        <ele>636</ele>
        <time>2022-09-29T09:51:09Z</time>
      </trkpt>
      <trkpt lat="44.4241" lon="5.2327">
        <ele>636</ele>
        <time>2022-09-29T09:51:10Z</time>
      </trkpt>
      <trkpt lat="44.42411" lon="5.23271">
        <ele>636</ele>
        <time>2022-09-29T09:51:11Z</time>
      </trkpt>
      <trkpt lat="44.42412" lon="5.23272">
        <ele>636</ele>
        <time>2022-09-29T09:51:12Z</time>
      </trkpt>
      <trkpt lat="44.42412" lon="5.23273">
        <ele>636</ele>
        <time>2022-09-29T09:51:13Z</time>
      </trkpt>
      <trkpt lat="44.42413" lon="5.23274">
        <ele>635</ele>
        <time>2022-09-29T09:51:14Z</time>
      </trkpt>
      <trkpt lat="44.42414" lon="5.23275">
        <ele>635</ele>
        <time>2022-09-29T09:51:15Z</time>
      </trkpt>
      <trkpt lat="44.42414" lon="5.23275">
        <ele>635</ele>
        <time>2022-09-29T09:51:16Z</time>
      </trkpt>
      <trkpt lat="44.42415" lon="5.23276">
        <ele>635</ele>
        <time>2022-09-29T09:51:17Z</time>
      </trkpt>
      <trkpt lat="44.42416" lon="5.23277">
        <ele>635</ele>
        <time>2022-09-29T09:51:18Z</time>
      </trkpt>
      <trkpt lat="44.42417" lon="5.23278">
        <ele>634</ele>
        <time>2022-09-29T09:51:19Z</time>
      </trkpt>
      <trkpt lat="44.42417" lon="5.23279">
        <ele>634</ele>
        <time>2022-09-29T09:51:20Z</time>
      </trkpt>
      <trkpt lat="44.42418" lon="5.2328">
        <ele>634</ele>
        <time>2022-09-29T09:51:21Z</time>
      </trkpt>
      <trkpt lat="44.42419" lon="5.23281">
        <ele>634</ele>
        <time>2022-09-29T09:51:22Z</time>
      </trkpt>
      <trkpt lat="44.4242" lon="5.23282">
        <ele>634</ele>
        <time>2022-09-29T09:51:23Z</time>
      </trkpt>
      <trkpt lat="44.42421" lon="5.23283">
        <ele>633</ele>
        <time>2022-09-29T09:51:24Z</time>
      </trkpt>
      <trkpt lat="44.42422" lon="5.23284">
        <ele>633</ele>
        <time>2022-09-29T09:51:25Z</time>
      </trkpt>
      <trkpt lat="44.42423" lon="5.23285">
        <ele>633</ele>
        <time>2022-09-29T09:51:26Z</time>
      </trkpt>
      <trkpt lat="44.42424" lon="5.23286">
        <ele>633</ele>
        <time>2022-09-29T09:51:27Z</time>
      </trkpt>
      <trkpt lat="44.42425" lon="5.23286">
        <ele>633</ele>
        <time>2022-09-29T09:51:28Z</time>
      </trkpt>
      <trkpt lat="44.42426" lon="5.23287">
        <ele>633</ele>
        <time>2022-09-29T09:51:29Z</time>
      </trkpt>
      <trkpt lat="44.42427" lon="5.23288">
        <ele>633</ele>
        <time>2022-09-29T09:51:30Z</time>
      </trkpt>
      <trkpt lat="44.42428" lon="5.23289">
        <ele>633</ele>
        <time>2022-09-29T09:51:31Z</time>
      </trkpt>
      <trkpt lat="44.42429" lon="5.2329">
        <ele>633</ele>
        <time>2022-09-29T09:51:32Z</time>
      </trkpt>
      <trkpt lat="44.4243" lon="5.23291">
        <ele>633</ele>
        <time>2022-09-29T09:51:33Z</time>
      </trkpt>
      <trkpt lat="44.4243" lon="5.23291">
        <ele>632</ele>
        <time>2022-09-29T09:51:34Z</time>
      </trkpt>
      <trkpt lat="44.42431" lon="5.23292">
        <ele>632</ele>
        <time>2022-09-29T09:51:35Z</time>
      </trkpt>
      <trkpt lat="44.42432" lon="5.23293">
        <ele>632</ele>
        <time>2022-09-29T09:51:36Z</time>
      </trkpt>
      <trkpt lat="44.42433" lon="5.23294">
        <ele>632</ele>
        <time>2022-09-29T09:51:37Z</time>
      </trkpt>
      <trkpt lat="44.42434" lon="5.23295">
        <ele>632</ele>
        <time>2022-09-29T09:51:38Z</time>
      </trkpt>
      <trkpt lat="44.42434" lon="5.23296">
        <ele>631</ele>
        <time>2022-09-29T09:51:39Z</time>
      </trkpt>
      <trkpt lat="44.42435" lon="5.23297">
        <ele>631</ele>
        <time>2022-09-29T09:51:40Z</time>
      </trkpt>
      <trkpt lat="44.42436" lon="5.23298">
        <ele>631</ele>
        <time>2022-09-29T09:51:41Z</time>
      </trkpt>
      <trkpt lat="44.42437" lon="5.23299">
        <ele>631</ele>
        <time>2022-09-29T09:51:42Z</time>
      </trkpt>
      <trkpt lat="44.42437" lon="5.233">
        <ele>631</ele>
        <time>2022-09-29T09:51:43Z</time>
      </trkpt>
      <trkpt lat="44.42438" lon="5.23301">
        <ele>631</ele>
        <time>2022-09-29T09:51:44Z</time>
      </trkpt>
      <trkpt lat="44.42439" lon="5.23302">
        <ele>631</ele>
        <time>2022-09-29T09:51:45Z</time>
      </trkpt>
      <trkpt lat="44.4244" lon="5.23303">
        <ele>631</ele>
        <time>2022-09-29T09:51:46Z</time>
      </trkpt>
      <trkpt lat="44.42441" lon="5.23304">
        <ele>631</ele>
        <time>2022-09-29T09:51:47Z</time>
      </trkpt>
      <trkpt lat="44.42441" lon="5.23305">
        <ele>631</ele>
        <time>2022-09-29T09:51:48Z</time>
      </trkpt>
      <trkpt lat="44.42442" lon="5.23306">
        <ele>630</ele>
        <time>2022-09-29T09:51:49Z</time>
      </trkpt>
      <trkpt lat="44.42443" lon="5.23306">
        <ele>630</ele>
        <time>2022-09-29T09:51:50Z</time>
      </trkpt>
      <trkpt lat="44.42444" lon="5.23307">
        <ele>630</ele>
        <time>2022-09-29T09:51:51Z</time>
      </trkpt>
      <trkpt lat="44.42445" lon="5.23308">
        <ele>630</ele>
        <time>2022-09-29T09:51:52Z</time>
      </trkpt>
      <trkpt lat="44.42446" lon="5.23308">
        <ele>630</ele>
        <time>2022-09-29T09:51:53Z</time>
      </trkpt>
      <trkpt lat="44.42447" lon="5.23309">
        <ele>630</ele>
        <time>2022-09-29T09:51:54Z</time>
      </trkpt>
      <trkpt lat="44.42448" lon="5.23309">
        <ele>630</ele>
        <time>2022-09-29T09:51:55Z</time>
      </trkpt>
      <trkpt lat="44.42449" lon="5.23309">
        <ele>630</ele>
        <time>2022-09-29T09:51:56Z</time>
      </trkpt>
      <trkpt lat="44.4245" lon="5.2331">
        <ele>630</ele>
        <time>2022-09-29T09:51:57Z</time>
      </trkpt>
      <trkpt lat="44.42451" lon="5.2331">
        <ele>630</ele>
        <time>2022-09-29T09:51:58Z</time>
      </trkpt>
      <trkpt lat="44.42452" lon="5.2331">
        <ele>629</ele>
        <time>2022-09-29T09:51:59Z</time>
      </trkpt>
      <trkpt lat="44.42453" lon="5.23311">
        <ele>629</ele>
        <time>2022-09-29T09:52:00Z</time>
      </trkpt>
      <trkpt lat="44.42454" lon="5.23311">
        <ele>629</ele>
        <time>2022-09-29T09:52:01Z</time>
      </trkpt>
      <trkpt lat="44.42455" lon="5.23311">
        <ele>629</ele>
        <time>2022-09-29T09:52:02Z</time>
      </trkpt>
      <trkpt lat="44.42456" lon="5.23312">
        <ele>629</ele>
        <time>2022-09-29T09:52:03Z</time>
      </trkpt>
      <trkpt lat="44.42457" lon="5.23312">
        <ele>628</ele>
        <time>2022-09-29T09:52:04Z</time>
      </trkpt>
      <trkpt lat="44.42458" lon="5.23312">
        <ele>628</ele>
        <time>2022-09-29T09:52:05Z</time>
      </trkpt>
      <trkpt lat="44.42459" lon="5.23313">
        <ele>628</ele>
        <time>2022-09-29T09:52:06Z</time>
      </trkpt>
      <trkpt lat="44.4246" lon="5.23313">
        <ele>628</ele>
        <time>2022-09-29T09:52:07Z</time>
      </trkpt>
      <trkpt lat="44.42461" lon="5.23314">
        <ele>628</ele>
        <time>2022-09-29T09:52:08Z</time>
      </trkpt>
      <trkpt lat="44.42462" lon="5.23315">
        <ele>627</ele>
        <time>2022-09-29T09:52:09Z</time>
      </trkpt>
      <trkpt lat="44.42463" lon="5.23315">
        <ele>627</ele>
        <time>2022-09-29T09:52:10Z</time>
      </trkpt>
      <trkpt lat="44.42464" lon="5.23316">
        <ele>627</ele>
        <time>2022-09-29T09:52:11Z</time>
      </trkpt>
      <trkpt lat="44.42465" lon="5.23317">
        <ele>627</ele>
        <time>2022-09-29T09:52:12Z</time>
      </trkpt>
      <trkpt lat="44.42465" lon="5.23318">
        <ele>627</ele>
        <time>2022-09-29T09:52:13Z</time>
      </trkpt>
      <trkpt lat="44.42466" lon="5.23319">
        <ele>627</ele>
        <time>2022-09-29T09:52:14Z</time>
      </trkpt>
      <trkpt lat="44.42467" lon="5.2332">
        <ele>627</ele>
        <time>2022-09-29T09:52:15Z</time>
      </trkpt>
      <trkpt lat="44.42468" lon="5.23321">
        <ele>627</ele>
        <time>2022-09-29T09:52:16Z</time>
      </trkpt>
      <trkpt lat="44.42469" lon="5.23322">
        <ele>627</ele>
        <time>2022-09-29T09:52:17Z</time>
      </trkpt>
      <trkpt lat="44.4247" lon="5.23323">
        <ele>627</ele>
        <time>2022-09-29T09:52:18Z</time>
      </trkpt>
      <trkpt lat="44.4247" lon="5.23323">
        <ele>626</ele>
        <time>2022-09-29T09:52:19Z</time>
      </trkpt>
      <trkpt lat="44.42471" lon="5.23324">
        <ele>626</ele>
        <time>2022-09-29T09:52:20Z</time>
      </trkpt>
      <trkpt lat="44.42472" lon="5.23325">
        <ele>626</ele>
        <time>2022-09-29T09:52:21Z</time>
      </trkpt>
      <trkpt lat="44.42473" lon="5.23325">
        <ele>626</ele>
        <time>2022-09-29T09:52:22Z</time>
      </trkpt>
      <trkpt lat="44.42474" lon="5.23326">
        <ele>626</ele>
        <time>2022-09-29T09:52:23Z</time>
      </trkpt>
      <trkpt lat="44.42475" lon="5.23326">
        <ele>626</ele>
        <time>2022-09-29T09:52:24Z</time>
      </trkpt>
      <trkpt lat="44.42476" lon="5.23327">
        <ele>626</ele>
        <time>2022-09-29T09:52:25Z</time>
      </trkpt>
      <trkpt lat="44.42477" lon="5.23328">
        <ele>626</ele>
        <time>2022-09-29T09:52:26Z</time>
      </trkpt>
      <trkpt lat="44.42479" lon="5.23328">
        <ele>626</ele>
        <time>2022-09-29T09:52:27Z</time>
      </trkpt>
      <trkpt lat="44.4248" lon="5.23329">
        <ele>626</ele>
        <time>2022-09-29T09:52:28Z</time>
      </trkpt>
      <trkpt lat="44.42481" lon="5.23329">
        <ele>626</ele>
        <time>2022-09-29T09:52:29Z</time>
      </trkpt>
      <trkpt lat="44.42482" lon="5.2333">
        <ele>626</ele>
        <time>2022-09-29T09:52:30Z</time>
      </trkpt>
      <trkpt lat="44.42483" lon="5.2333">
        <ele>626</ele>
        <time>2022-09-29T09:52:31Z</time>
      </trkpt>
      <trkpt lat="44.42484" lon="5.23331">
        <ele>626</ele>
        <time>2022-09-29T09:52:32Z</time>
      </trkpt>
      <trkpt lat="44.42485" lon="5.23331">
        <ele>626</ele>
        <time>2022-09-29T09:52:33Z</time>
      </trkpt>
      <trkpt lat="44.42486" lon="5.23332">
        <ele>626</ele>
        <time>2022-09-29T09:52:34Z</time>
      </trkpt>
      <trkpt lat="44.42487" lon="5.23332">
        <ele>626</ele>
        <time>2022-09-29T09:52:35Z</time>
      </trkpt>
      <trkpt lat="44.42488" lon="5.23332">
        <ele>626</ele>
        <time>2022-09-29T09:52:36Z</time>
      </trkpt>
      <trkpt lat="44.42489" lon="5.23333">
        <ele>626</ele>
        <time>2022-09-29T09:52:37Z</time>
      </trkpt>
      <trkpt lat="44.4249" lon="5.23333">
        <ele>626</ele>
        <time>2022-09-29T09:52:38Z</time>
      </trkpt>
      <trkpt lat="44.42491" lon="5.23333">
        <ele>625</ele>
        <time>2022-09-29T09:52:39Z</time>
      </trkpt>
      <trkpt lat="44.42492" lon="5.23334">
        <ele>625</ele>
        <time>2022-09-29T09:52:40Z</time>
      </trkpt>
      <trkpt lat="44.42493" lon="5.23334">
        <ele>625</ele>
        <time>2022-09-29T09:52:41Z</time>
      </trkpt>
      <trkpt lat="44.42494" lon="5.23334">
        <ele>625</ele>
        <time>2022-09-29T09:52:42Z</time>
      </trkpt>
      <trkpt lat="44.42495" lon="5.23335">
        <ele>625</ele>
        <time>2022-09-29T09:52:43Z</time>
      </trkpt>
      <trkpt lat="44.42496" lon="5.23335">
        <ele>625</ele>
        <time>2022-09-29T09:52:44Z</time>
      </trkpt>
      <trkpt lat="44.42497" lon="5.23336">
        <ele>625</ele>
        <time>2022-09-29T09:52:45Z</time>
      </trkpt>
      <trkpt lat="44.42498" lon="5.23336">
        <ele>625</ele>
        <time>2022-09-29T09:52:46Z</time>
      </trkpt>
      <trkpt lat="44.42499" lon="5.23336">
        <ele>625</ele>
        <time>2022-09-29T09:52:47Z</time>
      </trkpt>
      <trkpt lat="44.425" lon="5.23337">
        <ele>625</ele>
        <time>2022-09-29T09:52:48Z</time>
      </trkpt>
      <trkpt lat="44.42501" lon="5.23337">
        <ele>625</ele>
        <time>2022-09-29T09:52:49Z</time>
      </trkpt>
      <trkpt lat="44.42502" lon="5.23337">
        <ele>625</ele>
        <time>2022-09-29T09:52:50Z</time>
      </trkpt>
      <trkpt lat="44.42503" lon="5.23338">
        <ele>625</ele>
        <time>2022-09-29T09:52:51Z</time>
      </trkpt>
      <trkpt lat="44.42504" lon="5.23338">
        <ele>625</ele>
        <time>2022-09-29T09:52:52Z</time>
      </trkpt>
      <trkpt lat="44.42506" lon="5.23338">
        <ele>625</ele>
        <time>2022-09-29T09:52:53Z</time>
      </trkpt>
      <trkpt lat="44.42507" lon="5.23339">
        <ele>625</ele>
        <time>2022-09-29T09:52:54Z</time>
      </trkpt>
      <trkpt lat="44.42508" lon="5.23339">
        <ele>625</ele>
        <time>2022-09-29T09:52:55Z</time>
      </trkpt>
      <trkpt lat="44.42509" lon="5.23339">
        <ele>625</ele>
        <time>2022-09-29T09:52:56Z</time>
      </trkpt>
      <trkpt lat="44.4251" lon="5.2334">
        <ele>625</ele>
        <time>2022-09-29T09:52:57Z</time>
      </trkpt>
      <trkpt lat="44.42511" lon="5.2334">
        <ele>625</ele>
        <time>2022-09-29T09:52:58Z</time>
      </trkpt>
      <trkpt lat="44.42512" lon="5.23341">
        <ele>625</ele>
        <time>2022-09-29T09:52:59Z</time>
      </trkpt>
      <trkpt lat="44.42513" lon="5.23341">
        <ele>625</ele>
        <time>2022-09-29T09:53:00Z</time>
      </trkpt>
      <trkpt lat="44.42514" lon="5.23342">
        <ele>625</ele>
        <time>2022-09-29T09:53:01Z</time>
      </trkpt>
      <trkpt lat="44.42515" lon="5.23342">
        <ele>625</ele>
        <time>2022-09-29T09:53:02Z</time>
      </trkpt>
      <trkpt lat="44.42516" lon="5.23343">
        <ele>625</ele>
        <time>2022-09-29T09:53:03Z</time>
      </trkpt>
      <trkpt lat="44.42517" lon="5.23343">
        <ele>625</ele>
        <time>2022-09-29T09:53:04Z</time>
      </trkpt>
      <trkpt lat="44.42518" lon="5.23344">
        <ele>625</ele>
        <time>2022-09-29T09:53:05Z</time>
      </trkpt>
      <trkpt lat="44.4252" lon="5.23344">
        <ele>625</ele>
        <time>2022-09-29T09:53:06Z</time>
      </trkpt>
      <trkpt lat="44.42521" lon="5.23345">
        <ele>625</ele>
        <time>2022-09-29T09:53:07Z</time>
      </trkpt>
      <trkpt lat="44.42522" lon="5.23346">
        <ele>625</ele>
        <time>2022-09-29T09:53:08Z</time>
      </trkpt>
      <trkpt lat="44.42523" lon="5.23346">
        <ele>624</ele>
        <time>2022-09-29T09:53:09Z</time>
      </trkpt>
      <trkpt lat="44.42524" lon="5.23347">
        <ele>624</ele>
        <time>2022-09-29T09:53:10Z</time>
      </trkpt>
      <trkpt lat="44.42525" lon="5.23348">
        <ele>624</ele>
        <time>2022-09-29T09:53:11Z</time>
      </trkpt>
      <trkpt lat="44.42525" lon="5.23348">
        <ele>624</ele>
        <time>2022-09-29T09:53:12Z</time>
      </trkpt>
      <trkpt lat="44.42526" lon="5.23349">
        <ele>624</ele>
        <time>2022-09-29T09:53:13Z</time>
      </trkpt>
      <trkpt lat="44.42527" lon="5.2335">
        <ele>624</ele>
        <time>2022-09-29T09:53:14Z</time>
      </trkpt>
      <trkpt lat="44.42528" lon="5.2335">
        <ele>624</ele>
        <time>2022-09-29T09:53:15Z</time>
      </trkpt>
      <trkpt lat="44.42528" lon="5.23351">
        <ele>624</ele>
        <time>2022-09-29T09:53:16Z</time>
      </trkpt>
      <trkpt lat="44.42529" lon="5.23351">
        <ele>624</ele>
        <time>2022-09-29T09:53:17Z</time>
      </trkpt>
      <trkpt lat="44.4253" lon="5.23352">
        <ele>624</ele>
        <time>2022-09-29T09:53:18Z</time>
      </trkpt>
      <trkpt lat="44.42531" lon="5.23352">
        <ele>624</ele>
        <time>2022-09-29T09:53:19Z</time>
      </trkpt>
      <trkpt lat="44.42531" lon="5.23352">
        <ele>624</ele>
        <time>2022-09-29T09:53:20Z</time>
      </trkpt>
      <trkpt lat="44.42532" lon="5.23353">
        <ele>624</ele>
        <time>2022-09-29T09:53:21Z</time>
      </trkpt>
      <trkpt lat="44.42533" lon="5.23353">
        <ele>624</ele>
        <time>2022-09-29T09:53:22Z</time>
      </trkpt>
      <trkpt lat="44.42533" lon="5.23353">
        <ele>624</ele>
        <time>2022-09-29T09:53:23Z</time>
      </trkpt>
      <trkpt lat="44.42534" lon="5.23353">
        <ele>623</ele>
        <time>2022-09-29T09:53:24Z</time>
      </trkpt>
      <trkpt lat="44.42535" lon="5.23353">
        <ele>623</ele>
        <time>2022-09-29T09:53:25Z</time>
      </trkpt>
      <trkpt lat="44.42536" lon="5.23353">
        <ele>623</ele>
        <time>2022-09-29T09:53:26Z</time>
      </trkpt>
      <trkpt lat="44.42536" lon="5.23353">
        <ele>623</ele>
        <time>2022-09-29T09:53:27Z</time>
      </trkpt>
      <trkpt lat="44.42537" lon="5.23353">
        <ele>623</ele>
        <time>2022-09-29T09:53:28Z</time>
      </trkpt>
      <trkpt lat="44.42538" lon="5.23353">
        <ele>622</ele>
        <time>2022-09-29T09:53:29Z</time>
      </trkpt>
      <trkpt lat="44.42538" lon="5.23353">
        <ele>622</ele>
        <time>2022-09-29T09:53:30Z</time>
      </trkpt>
      <trkpt lat="44.42539" lon="5.23353">
        <ele>622</ele>
        <time>2022-09-29T09:53:31Z</time>
      </trkpt>
      <trkpt lat="44.4254" lon="5.23353">
        <ele>622</ele>
        <time>2022-09-29T09:53:32Z</time>
      </trkpt>
      <trkpt lat="44.4254" lon="5.23353">
        <ele>622</ele>
        <time>2022-09-29T09:53:33Z</time>
      </trkpt>
      <trkpt lat="44.42541" lon="5.23352">
        <ele>622</ele>
        <time>2022-09-29T09:53:34Z</time>
      </trkpt>
      <trkpt lat="44.42542" lon="5.23352">
        <ele>622</ele>
        <time>2022-09-29T09:53:35Z</time>
      </trkpt>
      <trkpt lat="44.42542" lon="5.23352">
        <ele>622</ele>
        <time>2022-09-29T09:53:36Z</time>
      </trkpt>
      <trkpt lat="44.42543" lon="5.23352">
        <ele>622</ele>
        <time>2022-09-29T09:53:37Z</time>
      </trkpt>
      <trkpt lat="44.42543" lon="5.23352">
        <ele>622</ele>
        <time>2022-09-29T09:53:38Z</time>
      </trkpt>
      <trkpt lat="44.42544" lon="5.23352">
        <ele>621</ele>
        <time>2022-09-29T09:53:39Z</time>
      </trkpt>
      <trkpt lat="44.42545" lon="5.23352">
        <ele>621</ele>
        <time>2022-09-29T09:53:40Z</time>
      </trkpt>
      <trkpt lat="44.42546" lon="5.23352">
        <ele>621</ele>
        <time>2022-09-29T09:53:41Z</time>
      </trkpt>
      <trkpt lat="44.42546" lon="5.23352">
        <ele>621</ele>
        <time>2022-09-29T09:53:42Z</time>
      </trkpt>
      <trkpt lat="44.42547" lon="5.23353">
        <ele>621</ele>
        <time>2022-09-29T09:53:43Z</time>
      </trkpt>
      <trkpt lat="44.42548" lon="5.23353">
        <ele>621</ele>
        <time>2022-09-29T09:53:44Z</time>
      </trkpt>
      <trkpt lat="44.42549" lon="5.23353">
        <ele>621</ele>
        <time>2022-09-29T09:53:45Z</time>
      </trkpt>
      <trkpt lat="44.42549" lon="5.23353">
        <ele>621</ele>
        <time>2022-09-29T09:53:46Z</time>
      </trkpt>
      <trkpt lat="44.42549" lon="5.23353">
        <ele>621</ele>
        <time>2022-09-29T09:53:47Z</time>
      </trkpt>
      <trkpt lat="44.4255" lon="5.23353">
        <ele>621</ele>
        <time>2022-09-29T09:53:48Z</time>
      </trkpt>
      <trkpt lat="44.4255" lon="5.23353">
        <ele>621</ele>
        <time>2022-09-29T09:53:49Z</time>
      </trkpt>
      <trkpt lat="44.4255" lon="5.23353">
        <ele>621</ele>
        <time>2022-09-29T09:53:50Z</time>
      </trkpt>
      <trkpt lat="44.42551" lon="5.23353">
        <ele>621</ele>
        <time>2022-09-29T09:53:51Z</time>
      </trkpt>
      <trkpt lat="44.42551" lon="5.23353">
        <ele>621</ele>
        <time>2022-09-29T09:53:52Z</time>
      </trkpt>
      <trkpt lat="44.42552" lon="5.23353">
        <ele>621</ele>
        <time>2022-09-29T09:53:53Z</time>
      </trkpt>
      <trkpt lat="44.42552" lon="5.23353">
        <ele>621</ele>
        <time>2022-09-29T09:53:54Z</time>
      </trkpt>
      <trkpt lat="44.42553" lon="5.23353">
        <ele>621</ele>
        <time>2022-09-29T09:53:55Z</time>
      </trkpt>
      <trkpt lat="44.42554" lon="5.23352">
        <ele>621</ele>
        <time>2022-09-29T09:53:56Z</time>
      </trkpt>
      <trkpt lat="44.42554" lon="5.23352">
        <ele>621</ele>
        <time>2022-09-29T09:53:57Z</time>
      </trkpt>
      <trkpt lat="44.42555" lon="5.23352">
        <ele>621</ele>
        <time>2022-09-29T09:53:58Z</time>
      </trkpt>
      <trkpt lat="44.42555" lon="5.23352">
        <ele>621</ele>
        <time>2022-09-29T09:53:59Z</time>
      </trkpt>
      <trkpt lat="44.42556" lon="5.23352">
        <ele>621</ele>
        <time>2022-09-29T09:54:00Z</time>
      </trkpt>
      <trkpt lat="44.42557" lon="5.23352">
        <ele>621</ele>
        <time>2022-09-29T09:54:01Z</time>
      </trkpt>
      <trkpt lat="44.42558" lon="5.23352">
        <ele>621</ele>
        <time>2022-09-29T09:54:02Z</time>
      </trkpt>
      <trkpt lat="44.42558" lon="5.23352">
        <ele>621</ele>
        <time>2022-09-29T09:54:03Z</time>
      </trkpt>
      <trkpt lat="44.42559" lon="5.23352">
        <ele>621</ele>
        <time>2022-09-29T09:54:04Z</time>
      </trkpt>
      <trkpt lat="44.42559" lon="5.23352">
        <ele>621</ele>
        <time>2022-09-29T09:54:05Z</time>
      </trkpt>
      <trkpt lat="44.4256" lon="5.23352">
        <ele>621</ele>
        <time>2022-09-29T09:54:06Z</time>
      </trkpt>
      <trkpt lat="44.42561" lon="5.23352">
        <ele>621</ele>
        <time>2022-09-29T09:54:07Z</time>
      </trkpt>
      <trkpt lat="44.42561" lon="5.23352">
        <ele>621</ele>
        <time>2022-09-29T09:54:08Z</time>
      </trkpt>
      <trkpt lat="44.42562" lon="5.23352">
        <ele>621</ele>
        <time>2022-09-29T09:54:09Z</time>
      </trkpt>
      <trkpt lat="44.42563" lon="5.23352">
        <ele>621</ele>
        <time>2022-09-29T09:54:10Z</time>
      </trkpt>
      <trkpt lat="44.42563" lon="5.23352">
        <ele>621</ele>
        <time>2022-09-29T09:54:11Z</time>
      </trkpt>
      <trkpt lat="44.42564" lon="5.23353">
        <ele>621</ele>
        <time>2022-09-29T09:54:12Z</time>
      </trkpt>
      <trkpt lat="44.42565" lon="5.23353">
        <ele>621</ele>
        <time>2022-09-29T09:54:13Z</time>
      </trkpt>
      <trkpt lat="44.42565" lon="5.23353">
        <ele>621</ele>
        <time>2022-09-29T09:54:14Z</time>
      </trkpt>
      <trkpt lat="44.42566" lon="5.23354">
        <ele>621</ele>
        <time>2022-09-29T09:54:15Z</time>
      </trkpt>
      <trkpt lat="44.42567" lon="5.23355">
        <ele>621</ele>
        <time>2022-09-29T09:54:16Z</time>
      </trkpt>
      <trkpt lat="44.42567" lon="5.23356">
        <ele>621</ele>
        <time>2022-09-29T09:54:17Z</time>
      </trkpt>
      <trkpt lat="44.42568" lon="5.23357">
        <ele>621</ele>
        <time>2022-09-29T09:54:18Z</time>
      </trkpt>
      <trkpt lat="44.42569" lon="5.23358">
        <ele>621</ele>
        <time>2022-09-29T09:54:19Z</time>
      </trkpt>
      <trkpt lat="44.42569" lon="5.23359">
        <ele>621</ele>
        <time>2022-09-29T09:54:20Z</time>
      </trkpt>
      <trkpt lat="44.4257" lon="5.23359">
        <ele>621</ele>
        <time>2022-09-29T09:54:21Z</time>
      </trkpt>
      <trkpt lat="44.4257" lon="5.23359">
        <ele>621</ele>
        <time>2022-09-29T09:54:22Z</time>
      </trkpt>
      <trkpt lat="44.4257" lon="5.2336">
        <ele>622</ele>
        <time>2022-09-29T09:54:23Z</time>
      </trkpt>
      <trkpt lat="44.42571" lon="5.2336">
        <ele>622</ele>
        <time>2022-09-29T09:54:24Z</time>
      </trkpt>
      <trkpt lat="44.42571" lon="5.23361">
        <ele>622</ele>
        <time>2022-09-29T09:54:25Z</time>
      </trkpt>
      <trkpt lat="44.42572" lon="5.23361">
        <ele>622</ele>
        <time>2022-09-29T09:54:26Z</time>
      </trkpt>
      <trkpt lat="44.42572" lon="5.23362">
        <ele>622</ele>
        <time>2022-09-29T09:54:27Z</time>
      </trkpt>
      <trkpt lat="44.42572" lon="5.23363">
        <ele>622</ele>
        <time>2022-09-29T09:54:28Z</time>
      </trkpt>
      <trkpt lat="44.42572" lon="5.23364">
        <ele>621</ele>
        <time>2022-09-29T09:54:29Z</time>
      </trkpt>
      <trkpt lat="44.42573" lon="5.23364">
        <ele>621</ele>
        <time>2022-09-29T09:54:30Z</time>
      </trkpt>
      <trkpt lat="44.42573" lon="5.23366">
        <ele>621</ele>
        <time>2022-09-29T09:54:31Z</time>
      </trkpt>
      <trkpt lat="44.42573" lon="5.23367">
        <ele>621</ele>
        <time>2022-09-29T09:54:32Z</time>
      </trkpt>
      <trkpt lat="44.42573" lon="5.23368">
        <ele>621</ele>
        <time>2022-09-29T09:54:33Z</time>
      </trkpt>
      <trkpt lat="44.42574" lon="5.23369">
        <ele>621</ele>
        <time>2022-09-29T09:54:34Z</time>
      </trkpt>
      <trkpt lat="44.42574" lon="5.2337">
        <ele>621</ele>
        <time>2022-09-29T09:54:35Z</time>
      </trkpt>
      <trkpt lat="44.42574" lon="5.23372">
        <ele>621</ele>
        <time>2022-09-29T09:54:36Z</time>
      </trkpt>
      <trkpt lat="44.42574" lon="5.23373">
        <ele>621</ele>
        <time>2022-09-29T09:54:37Z</time>
      </trkpt>
      <trkpt lat="44.42575" lon="5.23375">
        <ele>621</ele>
        <time>2022-09-29T09:54:38Z</time>
      </trkpt>
      <trkpt lat="44.42575" lon="5.23376">
        <ele>620</ele>
        <time>2022-09-29T09:54:39Z</time>
      </trkpt>
      <trkpt lat="44.42575" lon="5.23378">
        <ele>620</ele>
        <time>2022-09-29T09:54:40Z</time>
      </trkpt>
      <trkpt lat="44.42575" lon="5.23379">
        <ele>619</ele>
        <time>2022-09-29T09:54:41Z</time>
      </trkpt>
      <trkpt lat="44.42575" lon="5.23381">
        <ele>619</ele>
        <time>2022-09-29T09:54:42Z</time>
      </trkpt>
      <trkpt lat="44.42575" lon="5.23382">
        <ele>619</ele>
        <time>2022-09-29T09:54:43Z</time>
      </trkpt>
      <trkpt lat="44.42576" lon="5.23384">
        <ele>618</ele>
        <time>2022-09-29T09:54:44Z</time>
      </trkpt>
      <trkpt lat="44.42576" lon="5.23385">
        <ele>618</ele>
        <time>2022-09-29T09:54:45Z</time>
      </trkpt>
      <trkpt lat="44.42576" lon="5.23386">
        <ele>618</ele>
        <time>2022-09-29T09:54:46Z</time>
      </trkpt>
      <trkpt lat="44.42576" lon="5.23388">
        <ele>618</ele>
        <time>2022-09-29T09:54:47Z</time>
      </trkpt>
      <trkpt lat="44.42577" lon="5.23389">
        <ele>618</ele>
        <time>2022-09-29T09:54:48Z</time>
      </trkpt>
      <trkpt lat="44.42577" lon="5.23391">
        <ele>618</ele>
        <time>2022-09-29T09:54:49Z</time>
      </trkpt>
      <trkpt lat="44.42578" lon="5.23392">
        <ele>618</ele>
        <time>2022-09-29T09:54:50Z</time>
      </trkpt>
      <trkpt lat="44.42578" lon="5.23393">
        <ele>618</ele>
        <time>2022-09-29T09:54:51Z</time>
      </trkpt>
      <trkpt lat="44.42578" lon="5.23395">
        <ele>618</ele>
        <time>2022-09-29T09:54:52Z</time>
      </trkpt>
      <trkpt lat="44.42579" lon="5.23396">
        <ele>618</ele>
        <time>2022-09-29T09:54:53Z</time>
      </trkpt>
      <trkpt lat="44.42579" lon="5.23397">
        <ele>617</ele>
        <time>2022-09-29T09:54:54Z</time>
      </trkpt>
      <trkpt lat="44.4258" lon="5.23398">
        <ele>617</ele>
        <time>2022-09-29T09:54:55Z</time>
      </trkpt>
      <trkpt lat="44.4258" lon="5.234">
        <ele>617</ele>
        <time>2022-09-29T09:54:56Z</time>
      </trkpt>
      <trkpt lat="44.42581" lon="5.23401">
        <ele>617</ele>
        <time>2022-09-29T09:54:57Z</time>
      </trkpt>
      <trkpt lat="44.42581" lon="5.23402">
        <ele>617</ele>
        <time>2022-09-29T09:54:58Z</time>
      </trkpt>
      <trkpt lat="44.42582" lon="5.23403">
        <ele>617</ele>
        <time>2022-09-29T09:54:59Z</time>
      </trkpt>
      <trkpt lat="44.42582" lon="5.23404">
        <ele>617</ele>
        <time>2022-09-29T09:55:00Z</time>
      </trkpt>
      <trkpt lat="44.42583" lon="5.23406">
        <ele>617</ele>
        <time>2022-09-29T09:55:01Z</time>
      </trkpt>
      <trkpt lat="44.42583" lon="5.23407">
        <ele>617</ele>
        <time>2022-09-29T09:55:02Z</time>
      </trkpt>
      <trkpt lat="44.42583" lon="5.23408">
        <ele>617</ele>
        <time>2022-09-29T09:55:03Z</time>
      </trkpt>
      <trkpt lat="44.42584" lon="5.2341">
        <ele>617</ele>
        <time>2022-09-29T09:55:04Z</time>
      </trkpt>
      <trkpt lat="44.42584" lon="5.23411">
        <ele>617</ele>
        <time>2022-09-29T09:55:05Z</time>
      </trkpt>
      <trkpt lat="44.42584" lon="5.23413">
        <ele>617</ele>
        <time>2022-09-29T09:55:06Z</time>
      </trkpt>
      <trkpt lat="44.42585" lon="5.23414">
        <ele>617</ele>
        <time>2022-09-29T09:55:07Z</time>
      </trkpt>
      <trkpt lat="44.42585" lon="5.23415">
        <ele>617</ele>
        <time>2022-09-29T09:55:08Z</time>
      </trkpt>
      <trkpt lat="44.42585" lon="5.23417">
        <ele>616</ele>
        <time>2022-09-29T09:55:09Z</time>
      </trkpt>
      <trkpt lat="44.42586" lon="5.23418">
        <ele>616</ele>
        <time>2022-09-29T09:55:10Z</time>
      </trkpt>
      <trkpt lat="44.42586" lon="5.2342">
        <ele>616</ele>
        <time>2022-09-29T09:55:11Z</time>
      </trkpt>
      <trkpt lat="44.42586" lon="5.23421">
        <ele>616</ele>
        <time>2022-09-29T09:55:12Z</time>
      </trkpt>
      <trkpt lat="44.42587" lon="5.23423">
        <ele>616</ele>
        <time>2022-09-29T09:55:13Z</time>
      </trkpt>
      <trkpt lat="44.42587" lon="5.23424">
        <ele>616</ele>
        <time>2022-09-29T09:55:14Z</time>
      </trkpt>
      <trkpt lat="44.42587" lon="5.23426">
        <ele>616</ele>
        <time>2022-09-29T09:55:15Z</time>
      </trkpt>
      <trkpt lat="44.42587" lon="5.23427">
        <ele>616</ele>
        <time>2022-09-29T09:55:16Z</time>
      </trkpt>
      <trkpt lat="44.42588" lon="5.23429">
        <ele>616</ele>
        <time>2022-09-29T09:55:17Z</time>
      </trkpt>
      <trkpt lat="44.42588" lon="5.2343">
        <ele>616</ele>
        <time>2022-09-29T09:55:18Z</time>
      </trkpt>
      <trkpt lat="44.42589" lon="5.23431">
        <ele>615</ele>
        <time>2022-09-29T09:55:19Z</time>
      </trkpt>
      <trkpt lat="44.42589" lon="5.23432">
        <ele>615</ele>
        <time>2022-09-29T09:55:20Z</time>
      </trkpt>
      <trkpt lat="44.4259" lon="5.23434">
        <ele>615</ele>
        <time>2022-09-29T09:55:21Z</time>
      </trkpt>
      <trkpt lat="44.4259" lon="5.23435">
        <ele>615</ele>
        <time>2022-09-29T09:55:22Z</time>
      </trkpt>
      <trkpt lat="44.4259" lon="5.23435">
        <ele>615</ele>
        <time>2022-09-29T09:55:23Z</time>
      </trkpt>
      <trkpt lat="44.42591" lon="5.23435">
        <ele>615</ele>
        <time>2022-09-29T09:55:24Z</time>
      </trkpt>
      <trkpt lat="44.42591" lon="5.23436">
        <ele>615</ele>
        <time>2022-09-29T09:55:25Z</time>
      </trkpt>
      <trkpt lat="44.42591" lon="5.23436">
        <ele>615</ele>
        <time>2022-09-29T09:55:26Z</time>
      </trkpt>
      <trkpt lat="44.42591" lon="5.23437">
        <ele>615</ele>
        <time>2022-09-29T09:55:27Z</time>
      </trkpt>
      <trkpt lat="44.42591" lon="5.23438">
        <ele>615</ele>
        <time>2022-09-29T09:55:28Z</time>
      </trkpt>
      <trkpt lat="44.42592" lon="5.23439">
        <ele>615</ele>
        <time>2022-09-29T09:55:29Z</time>
      </trkpt>
      <trkpt lat="44.42592" lon="5.2344">
        <ele>615</ele>
        <time>2022-09-29T09:55:30Z</time>
      </trkpt>
      <trkpt lat="44.42592" lon="5.23441">
        <ele>615</ele>
        <time>2022-09-29T09:55:31Z</time>
      </trkpt>
      <trkpt lat="44.42592" lon="5.23442">
        <ele>615</ele>
        <time>2022-09-29T09:55:32Z</time>
      </trkpt>
      <trkpt lat="44.42592" lon="5.23444">
        <ele>615</ele>
        <time>2022-09-29T09:55:33Z</time>
      </trkpt>
      <trkpt lat="44.42592" lon="5.23445">
        <ele>615</ele>
        <time>2022-09-29T09:55:34Z</time>
      </trkpt>
      <trkpt lat="44.42593" lon="5.23446">
        <ele>615</ele>
        <time>2022-09-29T09:55:35Z</time>
      </trkpt>
      <trkpt lat="44.42593" lon="5.23448">
        <ele>615</ele>
        <time>2022-09-29T09:55:36Z</time>
      </trkpt>
      <trkpt lat="44.42593" lon="5.23449">
        <ele>615</ele>
        <time>2022-09-29T09:55:37Z</time>
      </trkpt>
      <trkpt lat="44.42593" lon="5.2345">
        <ele>615</ele>
        <time>2022-09-29T09:55:38Z</time>
      </trkpt>
      <trkpt lat="44.42593" lon="5.23451">
        <ele>615</ele>
        <time>2022-09-29T09:55:39Z</time>
      </trkpt>
      <trkpt lat="44.42594" lon="5.23452">
        <ele>615</ele>
        <time>2022-09-29T09:55:40Z</time>
      </trkpt>
      <trkpt lat="44.42594" lon="5.23452">
        <ele>615</ele>
        <time>2022-09-29T09:55:41Z</time>
      </trkpt>
      <trkpt lat="44.42594" lon="5.23453">
        <ele>615</ele>
        <time>2022-09-29T09:55:42Z</time>
      </trkpt>
      <trkpt lat="44.42594" lon="5.23454">
        <ele>615</ele>
        <time>2022-09-29T09:55:43Z</time>
      </trkpt>
      <trkpt lat="44.42595" lon="5.23455">
        <ele>614</ele>
        <time>2022-09-29T09:55:44Z</time>
      </trkpt>
      <trkpt lat="44.42595" lon="5.23455">
        <ele>614</ele>
        <time>2022-09-29T09:55:45Z</time>
      </trkpt>
      <trkpt lat="44.42595" lon="5.23456">
        <ele>614</ele>
        <time>2022-09-29T09:55:46Z</time>
      </trkpt>
      <trkpt lat="44.42595" lon="5.23457">
        <ele>614</ele>
        <time>2022-09-29T09:55:47Z</time>
      </trkpt>
      <trkpt lat="44.42595" lon="5.23458">
        <ele>614</ele>
        <time>2022-09-29T09:55:48Z</time>
      </trkpt>
      <trkpt lat="44.42596" lon="5.23459">
        <ele>613</ele>
        <time>2022-09-29T09:55:49Z</time>
      </trkpt>
      <trkpt lat="44.42596" lon="5.2346">
        <ele>613</ele>
        <time>2022-09-29T09:55:50Z</time>
      </trkpt>
      <trkpt lat="44.42596" lon="5.23461">
        <ele>613</ele>
        <time>2022-09-29T09:55:51Z</time>
      </trkpt>
      <trkpt lat="44.42596" lon="5.23461">
        <ele>613</ele>
        <time>2022-09-29T09:55:52Z</time>
      </trkpt>
      <trkpt lat="44.42596" lon="5.23462">
        <ele>613</ele>
        <time>2022-09-29T09:55:53Z</time>
      </trkpt>
      <trkpt lat="44.42596" lon="5.23463">
        <ele>613</ele>
        <time>2022-09-29T09:55:54Z</time>
      </trkpt>
      <trkpt lat="44.42596" lon="5.23464">
        <ele>613</ele>
        <time>2022-09-29T09:55:55Z</time>
      </trkpt>
      <trkpt lat="44.42597" lon="5.23465">
        <ele>613</ele>
        <time>2022-09-29T09:55:56Z</time>
      </trkpt>
      <trkpt lat="44.42597" lon="5.23466">
        <ele>613</ele>
        <time>2022-09-29T09:55:57Z</time>
      </trkpt>
      <trkpt lat="44.42597" lon="5.23467">
        <ele>613</ele>
        <time>2022-09-29T09:55:58Z</time>
      </trkpt>
      <trkpt lat="44.42597" lon="5.23468">
        <ele>612</ele>
        <time>2022-09-29T09:55:59Z</time>
      </trkpt>
      <trkpt lat="44.42598" lon="5.23469">
        <ele>612</ele>
        <time>2022-09-29T09:56:00Z</time>
      </trkpt>
      <trkpt lat="44.42598" lon="5.2347">
        <ele>612</ele>
        <time>2022-09-29T09:56:01Z</time>
      </trkpt>
      <trkpt lat="44.42599" lon="5.23471">
        <ele>612</ele>
        <time>2022-09-29T09:56:02Z</time>
      </trkpt>
      <trkpt lat="44.42599" lon="5.23472">
        <ele>612</ele>
        <time>2022-09-29T09:56:03Z</time>
      </trkpt>
      <trkpt lat="44.426" lon="5.23473">
        <ele>611</ele>
        <time>2022-09-29T09:56:04Z</time>
      </trkpt>
      <trkpt lat="44.426" lon="5.23474">
        <ele>611</ele>
        <time>2022-09-29T09:56:05Z</time>
      </trkpt>
      <trkpt lat="44.42601" lon="5.23475">
        <ele>611</ele>
        <time>2022-09-29T09:56:06Z</time>
      </trkpt>
      <trkpt lat="44.42601" lon="5.23476">
        <ele>611</ele>
        <time>2022-09-29T09:56:07Z</time>
      </trkpt>
      <trkpt lat="44.42601" lon="5.23477">
        <ele>611</ele>
        <time>2022-09-29T09:56:08Z</time>
      </trkpt>
      <trkpt lat="44.42602" lon="5.23478">
        <ele>610</ele>
        <time>2022-09-29T09:56:09Z</time>
      </trkpt>
      <trkpt lat="44.42602" lon="5.23479">
        <ele>610</ele>
        <time>2022-09-29T09:56:10Z</time>
      </trkpt>
      <trkpt lat="44.42602" lon="5.2348">
        <ele>610</ele>
        <time>2022-09-29T09:56:11Z</time>
      </trkpt>
      <trkpt lat="44.42603" lon="5.23481">
        <ele>610</ele>
        <time>2022-09-29T09:56:12Z</time>
      </trkpt>
      <trkpt lat="44.42603" lon="5.23482">
        <ele>610</ele>
        <time>2022-09-29T09:56:13Z</time>
      </trkpt>
      <trkpt lat="44.42603" lon="5.23483">
        <ele>609</ele>
        <time>2022-09-29T09:56:14Z</time>
      </trkpt>
      <trkpt lat="44.42604" lon="5.23484">
        <ele>609</ele>
        <time>2022-09-29T09:56:15Z</time>
      </trkpt>
      <trkpt lat="44.42604" lon="5.23485">
        <ele>609</ele>
        <time>2022-09-29T09:56:16Z</time>
      </trkpt>
      <trkpt lat="44.42604" lon="5.23486">
        <ele>609</ele>
        <time>2022-09-29T09:56:17Z</time>
      </trkpt>
      <trkpt lat="44.42605" lon="5.23488">
        <ele>609</ele>
        <time>2022-09-29T09:56:18Z</time>
      </trkpt>
      <trkpt lat="44.42605" lon="5.23489">
        <ele>608</ele>
        <time>2022-09-29T09:56:19Z</time>
      </trkpt>
      <trkpt lat="44.42606" lon="5.2349">
        <ele>608</ele>
        <time>2022-09-29T09:56:20Z</time>
      </trkpt>
      <trkpt lat="44.42606" lon="5.23491">
        <ele>608</ele>
        <time>2022-09-29T09:56:21Z</time>
      </trkpt>
      <trkpt lat="44.42606" lon="5.23492">
        <ele>608</ele>
        <time>2022-09-29T09:56:22Z</time>
      </trkpt>
      <trkpt lat="44.42607" lon="5.23493">
        <ele>608</ele>
        <time>2022-09-29T09:56:23Z</time>
      </trkpt>
      <trkpt lat="44.42607" lon="5.23494">
        <ele>607</ele>
        <time>2022-09-29T09:56:24Z</time>
      </trkpt>
      <trkpt lat="44.42608" lon="5.23495">
        <ele>607</ele>
        <time>2022-09-29T09:56:25Z</time>
      </trkpt>
      <trkpt lat="44.42608" lon="5.23496">
        <ele>607</ele>
        <time>2022-09-29T09:56:26Z</time>
      </trkpt>
      <trkpt lat="44.42608" lon="5.23497">
        <ele>607</ele>
        <time>2022-09-29T09:56:27Z</time>
      </trkpt>
      <trkpt lat="44.42609" lon="5.23498">
        <ele>607</ele>
        <time>2022-09-29T09:56:28Z</time>
      </trkpt>
      <trkpt lat="44.42609" lon="5.23499">
        <ele>606</ele>
        <time>2022-09-29T09:56:29Z</time>
      </trkpt>
      <trkpt lat="44.42609" lon="5.235">
        <ele>606</ele>
        <time>2022-09-29T09:56:30Z</time>
      </trkpt>
      <trkpt lat="44.4261" lon="5.23501">
        <ele>606</ele>
        <time>2022-09-29T09:56:31Z</time>
      </trkpt>
      <trkpt lat="44.4261" lon="5.23502">
        <ele>606</ele>
        <time>2022-09-29T09:56:32Z</time>
      </trkpt>
      <trkpt lat="44.42611" lon="5.23503">
        <ele>606</ele>
        <time>2022-09-29T09:56:33Z</time>
      </trkpt>
      <trkpt lat="44.42611" lon="5.23504">
        <ele>606</ele>
        <time>2022-09-29T09:56:34Z</time>
      </trkpt>
      <trkpt lat="44.42612" lon="5.23505">
        <ele>606</ele>
        <time>2022-09-29T09:56:35Z</time>
      </trkpt>
      <trkpt lat="44.42612" lon="5.23506">
        <ele>606</ele>
        <time>2022-09-29T09:56:36Z</time>
      </trkpt>
      <trkpt lat="44.42613" lon="5.23507">
        <ele>606</ele>
        <time>2022-09-29T09:56:37Z</time>
      </trkpt>
      <trkpt lat="44.42613" lon="5.23508">
        <ele>606</ele>
        <time>2022-09-29T09:56:38Z</time>
      </trkpt>
      <trkpt lat="44.42613" lon="5.23509">
        <ele>605</ele>
        <time>2022-09-29T09:56:39Z</time>
      </trkpt>
      <trkpt lat="44.42614" lon="5.2351">
        <ele>605</ele>
        <time>2022-09-29T09:56:40Z</time>
      </trkpt>
      <trkpt lat="44.42614" lon="5.23511">
        <ele>605</ele>
        <time>2022-09-29T09:56:41Z</time>
      </trkpt>
      <trkpt lat="44.42614" lon="5.23512">
        <ele>605</ele>
        <time>2022-09-29T09:56:42Z</time>
      </trkpt>
      <trkpt lat="44.42615" lon="5.23513">
        <ele>605</ele>
        <time>2022-09-29T09:56:43Z</time>
      </trkpt>
      <trkpt lat="44.42615" lon="5.23514">
        <ele>604</ele>
        <time>2022-09-29T09:56:44Z</time>
      </trkpt>
      <trkpt lat="44.42616" lon="5.23515">
        <ele>604</ele>
        <time>2022-09-29T09:56:45Z</time>
      </trkpt>
      <trkpt lat="44.42616" lon="5.23516">
        <ele>604</ele>
        <time>2022-09-29T09:56:46Z</time>
      </trkpt>
      <trkpt lat="44.42617" lon="5.23516">
        <ele>604</ele>
        <time>2022-09-29T09:56:47Z</time>
      </trkpt>
      <trkpt lat="44.42618" lon="5.23517">
        <ele>604</ele>
        <time>2022-09-29T09:56:48Z</time>
      </trkpt>
      <trkpt lat="44.42618" lon="5.23518">
        <ele>603</ele>
        <time>2022-09-29T09:56:49Z</time>
      </trkpt>
      <trkpt lat="44.42619" lon="5.23519">
        <ele>603</ele>
        <time>2022-09-29T09:56:50Z</time>
      </trkpt>
      <trkpt lat="44.42619" lon="5.2352">
        <ele>603</ele>
        <time>2022-09-29T09:56:51Z</time>
      </trkpt>
      <trkpt lat="44.4262" lon="5.23521">
        <ele>603</ele>
        <time>2022-09-29T09:56:52Z</time>
      </trkpt>
      <trkpt lat="44.4262" lon="5.23522">
        <ele>603</ele>
        <time>2022-09-29T09:56:53Z</time>
      </trkpt>
      <trkpt lat="44.42621" lon="5.23523">
        <ele>602</ele>
        <time>2022-09-29T09:56:54Z</time>
      </trkpt>
      <trkpt lat="44.42622" lon="5.23524">
        <ele>602</ele>
        <time>2022-09-29T09:56:55Z</time>
      </trkpt>
      <trkpt lat="44.42622" lon="5.23525">
        <ele>602</ele>
        <time>2022-09-29T09:56:56Z</time>
      </trkpt>
      <trkpt lat="44.42623" lon="5.23525">
        <ele>602</ele>
        <time>2022-09-29T09:56:57Z</time>
      </trkpt>
      <trkpt lat="44.42624" lon="5.23526">
        <ele>602</ele>
        <time>2022-09-29T09:56:58Z</time>
      </trkpt>
      <trkpt lat="44.42624" lon="5.23527">
        <ele>602</ele>
        <time>2022-09-29T09:56:59Z</time>
      </trkpt>
      <trkpt lat="44.42625" lon="5.23527">
        <ele>602</ele>
        <time>2022-09-29T09:57:00Z</time>
      </trkpt>
      <trkpt lat="44.42626" lon="5.23528">
        <ele>602</ele>
        <time>2022-09-29T09:57:01Z</time>
      </trkpt>
      <trkpt lat="44.42627" lon="5.23529">
        <ele>602</ele>
        <time>2022-09-29T09:57:02Z</time>
      </trkpt>
      <trkpt lat="44.42627" lon="5.2353">
        <ele>602</ele>
        <time>2022-09-29T09:57:03Z</time>
      </trkpt>
      <trkpt lat="44.42628" lon="5.2353">
        <ele>601</ele>
        <time>2022-09-29T09:57:04Z</time>
      </trkpt>
      <trkpt lat="44.42629" lon="5.23531">
        <ele>601</ele>
        <time>2022-09-29T09:57:05Z</time>
      </trkpt>
      <trkpt lat="44.42629" lon="5.23532">
        <ele>601</ele>
        <time>2022-09-29T09:57:06Z</time>
      </trkpt>
      <trkpt lat="44.4263" lon="5.23532">
        <ele>601</ele>
        <time>2022-09-29T09:57:07Z</time>
      </trkpt>
      <trkpt lat="44.42631" lon="5.23533">
        <ele>601</ele>
        <time>2022-09-29T09:57:08Z</time>
      </trkpt>
      <trkpt lat="44.42632" lon="5.23533">
        <ele>600</ele>
        <time>2022-09-29T09:57:09Z</time>
      </trkpt>
      <trkpt lat="44.42633" lon="5.23534">
        <ele>600</ele>
        <time>2022-09-29T09:57:10Z</time>
      </trkpt>
      <trkpt lat="44.42634" lon="5.23534">
        <ele>600</ele>
        <time>2022-09-29T09:57:11Z</time>
      </trkpt>
      <trkpt lat="44.42635" lon="5.23534">
        <ele>600</ele>
        <time>2022-09-29T09:57:12Z</time>
      </trkpt>
      <trkpt lat="44.42636" lon="5.23534">
        <ele>600</ele>
        <time>2022-09-29T09:57:13Z</time>
      </trkpt>
      <trkpt lat="44.42637" lon="5.23535">
        <ele>600</ele>
        <time>2022-09-29T09:57:14Z</time>
      </trkpt>
      <trkpt lat="44.42638" lon="5.23535">
        <ele>600</ele>
        <time>2022-09-29T09:57:15Z</time>
      </trkpt>
      <trkpt lat="44.42639" lon="5.23535">
        <ele>600</ele>
        <time>2022-09-29T09:57:16Z</time>
      </trkpt>
      <trkpt lat="44.42639" lon="5.23535">
        <ele>600</ele>
        <time>2022-09-29T09:57:17Z</time>
      </trkpt>
      <trkpt lat="44.4264" lon="5.23535">
        <ele>600</ele>
        <time>2022-09-29T09:57:18Z</time>
      </trkpt>
      <trkpt lat="44.42641" lon="5.23535">
        <ele>600</ele>
        <time>2022-09-29T09:57:19Z</time>
      </trkpt>
      <trkpt lat="44.42642" lon="5.23536">
        <ele>600</ele>
        <time>2022-09-29T09:57:20Z</time>
      </trkpt>
      <trkpt lat="44.42643" lon="5.23536">
        <ele>600</ele>
        <time>2022-09-29T09:57:21Z</time>
      </trkpt>
      <trkpt lat="44.42644" lon="5.23536">
        <ele>600</ele>
        <time>2022-09-29T09:57:22Z</time>
      </trkpt>
      <trkpt lat="44.42645" lon="5.23536">
        <ele>600</ele>
        <time>2022-09-29T09:57:23Z</time>
      </trkpt>
      <trkpt lat="44.42646" lon="5.23536">
        <ele>599</ele>
        <time>2022-09-29T09:57:24Z</time>
      </trkpt>
      <trkpt lat="44.42647" lon="5.23536">
        <ele>599</ele>
        <time>2022-09-29T09:57:25Z</time>
      </trkpt>
      <trkpt lat="44.42648" lon="5.23536">
        <ele>599</ele>
        <time>2022-09-29T09:57:26Z</time>
      </trkpt>
      <trkpt lat="44.42649" lon="5.23536">
        <ele>599</ele>
        <time>2022-09-29T09:57:27Z</time>
      </trkpt>
      <trkpt lat="44.4265" lon="5.23537">
        <ele>599</ele>
        <time>2022-09-29T09:57:28Z</time>
      </trkpt>
      <trkpt lat="44.42651" lon="5.23537">
        <ele>598</ele>
        <time>2022-09-29T09:57:29Z</time>
      </trkpt>
      <trkpt lat="44.42651" lon="5.23537">
        <ele>598</ele>
        <time>2022-09-29T09:57:30Z</time>
      </trkpt>
      <trkpt lat="44.42652" lon="5.23538">
        <ele>598</ele>
        <time>2022-09-29T09:57:31Z</time>
      </trkpt>
      <trkpt lat="44.42653" lon="5.23538">
        <ele>598</ele>
        <time>2022-09-29T09:57:32Z</time>
      </trkpt>
      <trkpt lat="44.42654" lon="5.23538">
        <ele>598</ele>
        <time>2022-09-29T09:57:33Z</time>
      </trkpt>
      <trkpt lat="44.42655" lon="5.23539">
        <ele>597</ele>
        <time>2022-09-29T09:59:04Z</time>
      </trkpt>
      <trkpt lat="44.42656" lon="5.2354">
        <ele>597</ele>
        <time>2022-09-29T09:59:05Z</time>
      </trkpt>
      <trkpt lat="44.42657" lon="5.2354">
        <ele>597</ele>
        <time>2022-09-29T09:59:06Z</time>
      </trkpt>
      <trkpt lat="44.42657" lon="5.23541">
        <ele>597</ele>
        <time>2022-09-29T09:59:07Z</time>
      </trkpt>
      <trkpt lat="44.42658" lon="5.23542">
        <ele>597</ele>
        <time>2022-09-29T09:59:08Z</time>
      </trkpt>
      <trkpt lat="44.42659" lon="5.23544">
        <ele>597</ele>
        <time>2022-09-29T09:59:28Z</time>
      </trkpt>
      <trkpt lat="44.4266" lon="5.23545">
        <ele>597</ele>
        <time>2022-09-29T09:59:29Z</time>
      </trkpt>
      <trkpt lat="44.4266" lon="5.23546">
        <ele>597</ele>
        <time>2022-09-29T09:59:30Z</time>
      </trkpt>
      <trkpt lat="44.42661" lon="5.23547">
        <ele>597</ele>
        <time>2022-09-29T09:59:31Z</time>
      </trkpt>
      <trkpt lat="44.42661" lon="5.23548">
        <ele>597</ele>
        <time>2022-09-29T09:59:32Z</time>
      </trkpt>
      <trkpt lat="44.42662" lon="5.23549">
        <ele>597</ele>
        <time>2022-09-29T09:59:33Z</time>
      </trkpt>
      <trkpt lat="44.42662" lon="5.2355">
        <ele>597</ele>
        <time>2022-09-29T09:59:34Z</time>
      </trkpt>
      <trkpt lat="44.42663" lon="5.23551">
        <ele>597</ele>
        <time>2022-09-29T09:59:35Z</time>
      </trkpt>
      <trkpt lat="44.42663" lon="5.23552">
        <ele>597</ele>
        <time>2022-09-29T09:59:36Z</time>
      </trkpt>
      <trkpt lat="44.42664" lon="5.23554">
        <ele>597</ele>
        <time>2022-09-29T09:59:37Z</time>
      </trkpt>
      <trkpt lat="44.42665" lon="5.23555">
        <ele>597</ele>
        <time>2022-09-29T09:59:38Z</time>
      </trkpt>
      <trkpt lat="44.42665" lon="5.23556">
        <ele>597</ele>
        <time>2022-09-29T09:59:39Z</time>
      </trkpt>
      <trkpt lat="44.42666" lon="5.23557">
        <ele>597</ele>
        <time>2022-09-29T09:59:40Z</time>
      </trkpt>
      <trkpt lat="44.42666" lon="5.23558">
        <ele>597</ele>
        <time>2022-09-29T09:59:41Z</time>
      </trkpt>
      <trkpt lat="44.42667" lon="5.23559">
        <ele>597</ele>
        <time>2022-09-29T09:59:42Z</time>
      </trkpt>
      <trkpt lat="44.42667" lon="5.2356">
        <ele>597</ele>
        <time>2022-09-29T09:59:43Z</time>
      </trkpt>
      <trkpt lat="44.42668" lon="5.23561">
        <ele>597</ele>
        <time>2022-09-29T09:59:44Z</time>
      </trkpt>
      <trkpt lat="44.42669" lon="5.23562">
        <ele>597</ele>
        <time>2022-09-29T09:59:45Z</time>
      </trkpt>
      <trkpt lat="44.42669" lon="5.23563">
        <ele>597</ele>
        <time>2022-09-29T09:59:46Z</time>
      </trkpt>
      <trkpt lat="44.4267" lon="5.23564">
        <ele>597</ele>
        <time>2022-09-29T09:59:47Z</time>
      </trkpt>
      <trkpt lat="44.4267" lon="5.23565">
        <ele>597</ele>
        <time>2022-09-29T09:59:48Z</time>
      </trkpt>
      <trkpt lat="44.42671" lon="5.23566">
        <ele>597</ele>
        <time>2022-09-29T09:59:49Z</time>
      </trkpt>
      <trkpt lat="44.42671" lon="5.23567">
        <ele>597</ele>
        <time>2022-09-29T09:59:50Z</time>
      </trkpt>
      <trkpt lat="44.42672" lon="5.23567">
        <ele>597</ele>
        <time>2022-09-29T09:59:51Z</time>
      </trkpt>
      <trkpt lat="44.42672" lon="5.23568">
        <ele>597</ele>
        <time>2022-09-29T09:59:52Z</time>
      </trkpt>
      <trkpt lat="44.42673" lon="5.23569">
        <ele>597</ele>
        <time>2022-09-29T09:59:53Z</time>
      </trkpt>
      <trkpt lat="44.42673" lon="5.2357">
        <ele>597</ele>
        <time>2022-09-29T09:59:54Z</time>
      </trkpt>
      <trkpt lat="44.42674" lon="5.2357">
        <ele>597</ele>
        <time>2022-09-29T09:59:55Z</time>
      </trkpt>
      <trkpt lat="44.42675" lon="5.23571">
        <ele>597</ele>
        <time>2022-09-29T09:59:56Z</time>
      </trkpt>
      <trkpt lat="44.42675" lon="5.23572">
        <ele>597</ele>
        <time>2022-09-29T09:59:57Z</time>
      </trkpt>
      <trkpt lat="44.42676" lon="5.23573">
        <ele>597</ele>
        <time>2022-09-29T09:59:58Z</time>
      </trkpt>
      <trkpt lat="44.42676" lon="5.23574">
        <ele>597</ele>
        <time>2022-09-29T09:59:59Z</time>
      </trkpt>
      <trkpt lat="44.42677" lon="5.23574">
        <ele>597</ele>
        <time>2022-09-29T10:00:00Z</time>
      </trkpt>
      <trkpt lat="44.42678" lon="5.23575">
        <ele>597</ele>
        <time>2022-09-29T10:00:01Z</time>
      </trkpt>
      <trkpt lat="44.42678" lon="5.23576">
        <ele>597</ele>
        <time>2022-09-29T10:00:02Z</time>
      </trkpt>
      <trkpt lat="44.42679" lon="5.23577">
        <ele>597</ele>
        <time>2022-09-29T10:00:03Z</time>
      </trkpt>
      <trkpt lat="44.4268" lon="5.23578">
        <ele>597</ele>
        <time>2022-09-29T10:00:04Z</time>
      </trkpt>
      <trkpt lat="44.42681" lon="5.23579">
        <ele>597</ele>
        <time>2022-09-29T10:00:05Z</time>
      </trkpt>
      <trkpt lat="44.42682" lon="5.23579">
        <ele>597</ele>
        <time>2022-09-29T10:00:06Z</time>
      </trkpt>
      <trkpt lat="44.42683" lon="5.2358">
        <ele>597</ele>
        <time>2022-09-29T10:00:07Z</time>
      </trkpt>
      <trkpt lat="44.42684" lon="5.23581">
        <ele>597</ele>
        <time>2022-09-29T10:00:08Z</time>
      </trkpt>
      <trkpt lat="44.42685" lon="5.23582">
        <ele>597</ele>
        <time>2022-09-29T10:00:09Z</time>
      </trkpt>
      <trkpt lat="44.42686" lon="5.23582">
        <ele>597</ele>
        <time>2022-09-29T10:00:10Z</time>
      </trkpt>
      <trkpt lat="44.42687" lon="5.23583">
        <ele>597</ele>
        <time>2022-09-29T10:00:11Z</time>
      </trkpt>
      <trkpt lat="44.42687" lon="5.23584">
        <ele>597</ele>
        <time>2022-09-29T10:00:12Z</time>
      </trkpt>
      <trkpt lat="44.42688" lon="5.23585">
        <ele>597</ele>
        <time>2022-09-29T10:00:13Z</time>
      </trkpt>
      <trkpt lat="44.42689" lon="5.23586">
        <ele>597</ele>
        <time>2022-09-29T10:00:14Z</time>
      </trkpt>
      <trkpt lat="44.4269" lon="5.23587">
        <ele>597</ele>
        <time>2022-09-29T10:00:15Z</time>
      </trkpt>
      <trkpt lat="44.42691" lon="5.23588">
        <ele>597</ele>
        <time>2022-09-29T10:00:16Z</time>
      </trkpt>
      <trkpt lat="44.42692" lon="5.23589">
        <ele>597</ele>
        <time>2022-09-29T10:00:17Z</time>
      </trkpt>
      <trkpt lat="44.42693" lon="5.2359">
        <ele>597</ele>
        <time>2022-09-29T10:00:18Z</time>
      </trkpt>
      <trkpt lat="44.42694" lon="5.23591">
        <ele>597</ele>
        <time>2022-09-29T10:00:19Z</time>
      </trkpt>
      <trkpt lat="44.42694" lon="5.23592">
        <ele>597</ele>
        <time>2022-09-29T10:00:20Z</time>
      </trkpt>
      <trkpt lat="44.42695" lon="5.23592">
        <ele>597</ele>
        <time>2022-09-29T10:00:21Z</time>
      </trkpt>
      <trkpt lat="44.42696" lon="5.23593">
        <ele>597</ele>
        <time>2022-09-29T10:00:22Z</time>
      </trkpt>
      <trkpt lat="44.42697" lon="5.23594">
        <ele>597</ele>
        <time>2022-09-29T10:00:23Z</time>
      </trkpt>
      <trkpt lat="44.42698" lon="5.23595">
        <ele>597</ele>
        <time>2022-09-29T10:00:24Z</time>
      </trkpt>
      <trkpt lat="44.42699" lon="5.23596">
        <ele>597</ele>
        <time>2022-09-29T10:00:25Z</time>
      </trkpt>
      <trkpt lat="44.427" lon="5.23597">
        <ele>597</ele>
        <time>2022-09-29T10:00:26Z</time>
      </trkpt>
      <trkpt lat="44.427" lon="5.23598">
        <ele>597</ele>
        <time>2022-09-29T10:00:27Z</time>
      </trkpt>
      <trkpt lat="44.42701" lon="5.23598">
        <ele>597</ele>
        <time>2022-09-29T10:00:28Z</time>
      </trkpt>
      <trkpt lat="44.42702" lon="5.23599">
        <ele>597</ele>
        <time>2022-09-29T10:00:37Z</time>
      </trkpt>
      <trkpt lat="44.42702" lon="5.236">
        <ele>597</ele>
        <time>2022-09-29T10:00:38Z</time>
      </trkpt>
      <trkpt lat="44.42703" lon="5.236">
        <ele>597</ele>
        <time>2022-09-29T10:00:39Z</time>
      </trkpt>
      <trkpt lat="44.42703" lon="5.23601">
        <ele>597</ele>
        <time>2022-09-29T10:00:40Z</time>
      </trkpt>
      <trkpt lat="44.42704" lon="5.23601">
        <ele>597</ele>
        <time>2022-09-29T10:00:41Z</time>
      </trkpt>
      <trkpt lat="44.42705" lon="5.23602">
        <ele>597</ele>
        <time>2022-09-29T10:00:42Z</time>
      </trkpt>
      <trkpt lat="44.42705" lon="5.23603">
        <ele>597</ele>
        <time>2022-09-29T10:00:43Z</time>
      </trkpt>
      <trkpt lat="44.42706" lon="5.23604">
        <ele>597</ele>
        <time>2022-09-29T10:00:44Z</time>
      </trkpt>
      <trkpt lat="44.42707" lon="5.23605">
        <ele>597</ele>
        <time>2022-09-29T10:00:45Z</time>
      </trkpt>
      <trkpt lat="44.42708" lon="5.23606">
        <ele>597</ele>
        <time>2022-09-29T10:00:46Z</time>
      </trkpt>
      <trkpt lat="44.42709" lon="5.23607">
        <ele>597</ele>
        <time>2022-09-29T10:00:47Z</time>
      </trkpt>
      <trkpt lat="44.4271" lon="5.23608">
        <ele>597</ele>
        <time>2022-09-29T10:00:48Z</time>
      </trkpt>
      <trkpt lat="44.42711" lon="5.23609">
        <ele>597</ele>
        <time>2022-09-29T10:00:49Z</time>
      </trkpt>
      <trkpt lat="44.42712" lon="5.2361">
        <ele>597</ele>
        <time>2022-09-29T10:00:50Z</time>
      </trkpt>
      <trkpt lat="44.42712" lon="5.23611">
        <ele>597</ele>
        <time>2022-09-29T10:00:51Z</time>
      </trkpt>
      <trkpt lat="44.42713" lon="5.23612">
        <ele>597</ele>
        <time>2022-09-29T10:00:52Z</time>
      </trkpt>
      <trkpt lat="44.42714" lon="5.23613">
        <ele>598</ele>
        <time>2022-09-29T10:00:53Z</time>
      </trkpt>
      <trkpt lat="44.42715" lon="5.23614">
        <ele>598</ele>
        <time>2022-09-29T10:00:54Z</time>
      </trkpt>
      <trkpt lat="44.42716" lon="5.23615">
        <ele>598</ele>
        <time>2022-09-29T10:00:55Z</time>
      </trkpt>
      <trkpt lat="44.42717" lon="5.23616">
        <ele>598</ele>
        <time>2022-09-29T10:00:56Z</time>
      </trkpt>
      <trkpt lat="44.42718" lon="5.23617">
        <ele>598</ele>
        <time>2022-09-29T10:00:57Z</time>
      </trkpt>
      <trkpt lat="44.42719" lon="5.23618">
        <ele>598</ele>
        <time>2022-09-29T10:00:58Z</time>
      </trkpt>
      <trkpt lat="44.4272" lon="5.23618">
        <ele>598</ele>
        <time>2022-09-29T10:00:59Z</time>
      </trkpt>
      <trkpt lat="44.42721" lon="5.23619">
        <ele>598</ele>
        <time>2022-09-29T10:01:00Z</time>
      </trkpt>
      <trkpt lat="44.42722" lon="5.2362">
        <ele>598</ele>
        <time>2022-09-29T10:01:01Z</time>
      </trkpt>
      <trkpt lat="44.42723" lon="5.23621">
        <ele>598</ele>
        <time>2022-09-29T10:01:02Z</time>
      </trkpt>
      <trkpt lat="44.42724" lon="5.23622">
        <ele>598</ele>
        <time>2022-09-29T10:01:03Z</time>
      </trkpt>
      <trkpt lat="44.42725" lon="5.23623">
        <ele>598</ele>
        <time>2022-09-29T10:01:04Z</time>
      </trkpt>
      <trkpt lat="44.42726" lon="5.23624">
        <ele>598</ele>
        <time>2022-09-29T10:01:05Z</time>
      </trkpt>
      <trkpt lat="44.42727" lon="5.23624">
        <ele>598</ele>
        <time>2022-09-29T10:01:06Z</time>
      </trkpt>
      <trkpt lat="44.42728" lon="5.23625">
        <ele>598</ele>
        <time>2022-09-29T10:01:07Z</time>
      </trkpt>
      <trkpt lat="44.42729" lon="5.23626">
        <ele>599</ele>
        <time>2022-09-29T10:01:08Z</time>
      </trkpt>
      <trkpt lat="44.4273" lon="5.23627">
        <ele>598</ele>
        <time>2022-09-29T10:01:09Z</time>
      </trkpt>
      <trkpt lat="44.4273" lon="5.23628">
        <ele>598</ele>
        <time>2022-09-29T10:01:10Z</time>
      </trkpt>
      <trkpt lat="44.42731" lon="5.23629">
        <ele>598</ele>
        <time>2022-09-29T10:01:11Z</time>
      </trkpt>
      <trkpt lat="44.42732" lon="5.2363">
        <ele>598</ele>
        <time>2022-09-29T10:01:12Z</time>
      </trkpt>
      <trkpt lat="44.42733" lon="5.23631">
        <ele>598</ele>
        <time>2022-09-29T10:01:13Z</time>
      </trkpt>
      <trkpt lat="44.42734" lon="5.23632">
        <ele>598</ele>
        <time>2022-09-29T10:01:14Z</time>
      </trkpt>
      <trkpt lat="44.42734" lon="5.23634">
        <ele>598</ele>
        <time>2022-09-29T10:01:15Z</time>
      </trkpt>
      <trkpt lat="44.42735" lon="5.23635">
        <ele>598</ele>
        <time>2022-09-29T10:01:16Z</time>
      </trkpt>
      <trkpt lat="44.42736" lon="5.23636">
        <ele>598</ele>
        <time>2022-09-29T10:01:17Z</time>
      </trkpt>
      <trkpt lat="44.42736" lon="5.23637">
        <ele>599</ele>
        <time>2022-09-29T10:01:18Z</time>
      </trkpt>
      <trkpt lat="44.42737" lon="5.23639">
        <ele>599</ele>
        <time>2022-09-29T10:01:19Z</time>
      </trkpt>
      <trkpt lat="44.42738" lon="5.2364">
        <ele>599</ele>
        <time>2022-09-29T10:01:20Z</time>
      </trkpt>
      <trkpt lat="44.42738" lon="5.23641">
        <ele>599</ele>
        <time>2022-09-29T10:01:21Z</time>
      </trkpt>
      <trkpt lat="44.42739" lon="5.23642">
        <ele>599</ele>
        <time>2022-09-29T10:01:22Z</time>
      </trkpt>
      <trkpt lat="44.4274" lon="5.23644">
        <ele>599</ele>
        <time>2022-09-29T10:01:23Z</time>
      </trkpt>
      <trkpt lat="44.4274" lon="5.23645">
        <ele>599</ele>
        <time>2022-09-29T10:01:24Z</time>
      </trkpt>
      <trkpt lat="44.42741" lon="5.23646">
        <ele>599</ele>
        <time>2022-09-29T10:01:25Z</time>
      </trkpt>
      <trkpt lat="44.42742" lon="5.23647">
        <ele>599</ele>
        <time>2022-09-29T10:01:26Z</time>
      </trkpt>
      <trkpt lat="44.42742" lon="5.23648">
        <ele>599</ele>
        <time>2022-09-29T10:01:27Z</time>
      </trkpt>
      <trkpt lat="44.42743" lon="5.23649">
        <ele>600</ele>
        <time>2022-09-29T10:01:28Z</time>
      </trkpt>
      <trkpt lat="44.42744" lon="5.2365">
        <ele>600</ele>
        <time>2022-09-29T10:01:29Z</time>
      </trkpt>
      <trkpt lat="44.42745" lon="5.23651">
        <ele>600</ele>
        <time>2022-09-29T10:01:30Z</time>
      </trkpt>
      <trkpt lat="44.42746" lon="5.23652">
        <ele>600</ele>
        <time>2022-09-29T10:01:31Z</time>
      </trkpt>
      <trkpt lat="44.42747" lon="5.23653">
        <ele>600</ele>
        <time>2022-09-29T10:01:32Z</time>
      </trkpt>
      <trkpt lat="44.42748" lon="5.23653">
        <ele>600</ele>
        <time>2022-09-29T10:01:33Z</time>
      </trkpt>
      <trkpt lat="44.42749" lon="5.23654">
        <ele>600</ele>
        <time>2022-09-29T10:01:34Z</time>
      </trkpt>
      <trkpt lat="44.4275" lon="5.23655">
        <ele>600</ele>
        <time>2022-09-29T10:01:35Z</time>
      </trkpt>
      <trkpt lat="44.42751" lon="5.23655">
        <ele>600</ele>
        <time>2022-09-29T10:01:36Z</time>
      </trkpt>
      <trkpt lat="44.42752" lon="5.23656">
        <ele>600</ele>
        <time>2022-09-29T10:01:37Z</time>
      </trkpt>
      <trkpt lat="44.42753" lon="5.23657">
        <ele>600</ele>
        <time>2022-09-29T10:01:38Z</time>
      </trkpt>
      <trkpt lat="44.42754" lon="5.23658">
        <ele>600</ele>
        <time>2022-09-29T10:01:39Z</time>
      </trkpt>
      <trkpt lat="44.42755" lon="5.23658">
        <ele>600</ele>
        <time>2022-09-29T10:01:40Z</time>
      </trkpt>
      <trkpt lat="44.42756" lon="5.23659">
        <ele>600</ele>
        <time>2022-09-29T10:01:41Z</time>
      </trkpt>
      <trkpt lat="44.42757" lon="5.2366">
        <ele>600</ele>
        <time>2022-09-29T10:01:42Z</time>
      </trkpt>
      <trkpt lat="44.42758" lon="5.23661">
        <ele>600</ele>
        <time>2022-09-29T10:01:43Z</time>
      </trkpt>
      <trkpt lat="44.42759" lon="5.23662">
        <ele>600</ele>
        <time>2022-09-29T10:01:44Z</time>
      </trkpt>
      <trkpt lat="44.4276" lon="5.23663">
        <ele>600</ele>
        <time>2022-09-29T10:01:45Z</time>
      </trkpt>
      <trkpt lat="44.42761" lon="5.23663">
        <ele>600</ele>
        <time>2022-09-29T10:01:46Z</time>
      </trkpt>
      <trkpt lat="44.42762" lon="5.23664">
        <ele>600</ele>
        <time>2022-09-29T10:01:47Z</time>
      </trkpt>
      <trkpt lat="44.42763" lon="5.23665">
        <ele>600</ele>
        <time>2022-09-29T10:01:48Z</time>
      </trkpt>
      <trkpt lat="44.42764" lon="5.23666">
        <ele>600</ele>
        <time>2022-09-29T10:01:49Z</time>
      </trkpt>
      <trkpt lat="44.42765" lon="5.23667">
        <ele>600</ele>
        <time>2022-09-29T10:01:50Z</time>
      </trkpt>
      <trkpt lat="44.42766" lon="5.23668">
        <ele>600</ele>
        <time>2022-09-29T10:01:51Z</time>
      </trkpt>
      <trkpt lat="44.42767" lon="5.23668">
        <ele>600</ele>
        <time>2022-09-29T10:01:52Z</time>
      </trkpt>
      <trkpt lat="44.42768" lon="5.23669">
        <ele>600</ele>
        <time>2022-09-29T10:01:53Z</time>
      </trkpt>
      <trkpt lat="44.42769" lon="5.2367">
        <ele>600</ele>
        <time>2022-09-29T10:01:54Z</time>
      </trkpt>
      <trkpt lat="44.42769" lon="5.2367">
        <ele>600</ele>
        <time>2022-09-29T10:01:55Z</time>
      </trkpt>
      <trkpt lat="44.4277" lon="5.23671">
        <ele>600</ele>
        <time>2022-09-29T10:01:56Z</time>
      </trkpt>
      <trkpt lat="44.42771" lon="5.23672">
        <ele>600</ele>
        <time>2022-09-29T10:01:57Z</time>
      </trkpt>
      <trkpt lat="44.42772" lon="5.23673">
        <ele>600</ele>
        <time>2022-09-29T10:01:58Z</time>
      </trkpt>
      <trkpt lat="44.42773" lon="5.23673">
        <ele>600</ele>
        <time>2022-09-29T10:01:59Z</time>
      </trkpt>
      <trkpt lat="44.42773" lon="5.23674">
        <ele>600</ele>
        <time>2022-09-29T10:02:00Z</time>
      </trkpt>
      <trkpt lat="44.42774" lon="5.23675">
        <ele>600</ele>
        <time>2022-09-29T10:02:01Z</time>
      </trkpt>
      <trkpt lat="44.42775" lon="5.23676">
        <ele>600</ele>
        <time>2022-09-29T10:02:02Z</time>
      </trkpt>
      <trkpt lat="44.42776" lon="5.23676">
        <ele>601</ele>
        <time>2022-09-29T10:02:03Z</time>
      </trkpt>
      <trkpt lat="44.42777" lon="5.23677">
        <ele>601</ele>
        <time>2022-09-29T10:02:04Z</time>
      </trkpt>
      <trkpt lat="44.42778" lon="5.23678">
        <ele>601</ele>
        <time>2022-09-29T10:02:05Z</time>
      </trkpt>
      <trkpt lat="44.42778" lon="5.23679">
        <ele>601</ele>
        <time>2022-09-29T10:02:06Z</time>
      </trkpt>
      <trkpt lat="44.42779" lon="5.23679">
        <ele>601</ele>
        <time>2022-09-29T10:02:07Z</time>
      </trkpt>
      <trkpt lat="44.4278" lon="5.2368">
        <ele>601</ele>
        <time>2022-09-29T10:02:08Z</time>
      </trkpt>
      <trkpt lat="44.42781" lon="5.23681">
        <ele>601</ele>
        <time>2022-09-29T10:02:09Z</time>
      </trkpt>
      <trkpt lat="44.42782" lon="5.23682">
        <ele>601</ele>
        <time>2022-09-29T10:02:10Z</time>
      </trkpt>
      <trkpt lat="44.42782" lon="5.23682">
        <ele>601</ele>
        <time>2022-09-29T10:02:11Z</time>
      </trkpt>
      <trkpt lat="44.42783" lon="5.23683">
        <ele>601</ele>
        <time>2022-09-29T10:02:12Z</time>
      </trkpt>
      <trkpt lat="44.42784" lon="5.23684">
        <ele>601</ele>
        <time>2022-09-29T10:02:13Z</time>
      </trkpt>
      <trkpt lat="44.42785" lon="5.23684">
        <ele>601</ele>
        <time>2022-09-29T10:02:14Z</time>
      </trkpt>
      <trkpt lat="44.42785" lon="5.23685">
        <ele>601</ele>
        <time>2022-09-29T10:02:15Z</time>
      </trkpt>
      <trkpt lat="44.42786" lon="5.23686">
        <ele>601</ele>
        <time>2022-09-29T10:02:16Z</time>
      </trkpt>
      <trkpt lat="44.42787" lon="5.23686">
        <ele>601</ele>
        <time>2022-09-29T10:02:17Z</time>
      </trkpt>
      <trkpt lat="44.42788" lon="5.23687">
        <ele>602</ele>
        <time>2022-09-29T10:02:18Z</time>
      </trkpt>
      <trkpt lat="44.42789" lon="5.23688">
        <ele>602</ele>
        <time>2022-09-29T10:02:19Z</time>
      </trkpt>
      <trkpt lat="44.4279" lon="5.23689">
        <ele>602</ele>
        <time>2022-09-29T10:02:20Z</time>
      </trkpt>
      <trkpt lat="44.42791" lon="5.2369">
        <ele>602</ele>
        <time>2022-09-29T10:02:21Z</time>
      </trkpt>
      <trkpt lat="44.42792" lon="5.23691">
        <ele>602</ele>
        <time>2022-09-29T10:02:22Z</time>
      </trkpt>
      <trkpt lat="44.42792" lon="5.23692">
        <ele>603</ele>
        <time>2022-09-29T10:02:23Z</time>
      </trkpt>
      <trkpt lat="44.42793" lon="5.23693">
        <ele>603</ele>
        <time>2022-09-29T10:02:24Z</time>
      </trkpt>
      <trkpt lat="44.42794" lon="5.23694">
        <ele>603</ele>
        <time>2022-09-29T10:02:25Z</time>
      </trkpt>
      <trkpt lat="44.42795" lon="5.23695">
        <ele>603</ele>
        <time>2022-09-29T10:02:26Z</time>
      </trkpt>
      <trkpt lat="44.42796" lon="5.23695">
        <ele>603</ele>
        <time>2022-09-29T10:02:27Z</time>
      </trkpt>
      <trkpt lat="44.42797" lon="5.23696">
        <ele>603</ele>
        <time>2022-09-29T10:02:28Z</time>
      </trkpt>
      <trkpt lat="44.42798" lon="5.23697">
        <ele>603</ele>
        <time>2022-09-29T10:02:29Z</time>
      </trkpt>
      <trkpt lat="44.42799" lon="5.23697">
        <ele>603</ele>
        <time>2022-09-29T10:02:30Z</time>
      </trkpt>
      <trkpt lat="44.428" lon="5.23697">
        <ele>603</ele>
        <time>2022-09-29T10:02:31Z</time>
      </trkpt>
      <trkpt lat="44.42801" lon="5.23698">
        <ele>603</ele>
        <time>2022-09-29T10:02:32Z</time>
      </trkpt>
      <trkpt lat="44.42802" lon="5.23698">
        <ele>603</ele>
        <time>2022-09-29T10:02:33Z</time>
      </trkpt>
      <trkpt lat="44.42803" lon="5.23698">
        <ele>603</ele>
        <time>2022-09-29T10:02:34Z</time>
      </trkpt>
      <trkpt lat="44.42804" lon="5.23698">
        <ele>603</ele>
        <time>2022-09-29T10:02:35Z</time>
      </trkpt>
      <trkpt lat="44.42804" lon="5.23698">
        <ele>603</ele>
        <time>2022-09-29T10:02:36Z</time>
      </trkpt>
      <trkpt lat="44.42805" lon="5.23698">
        <ele>603</ele>
        <time>2022-09-29T10:02:37Z</time>
      </trkpt>
      <trkpt lat="44.42806" lon="5.23698">
        <ele>603</ele>
        <time>2022-09-29T10:02:38Z</time>
      </trkpt>
      <trkpt lat="44.42807" lon="5.23698">
        <ele>603</ele>
        <time>2022-09-29T10:02:39Z</time>
      </trkpt>
      <trkpt lat="44.42808" lon="5.23699">
        <ele>603</ele>
        <time>2022-09-29T10:02:40Z</time>
      </trkpt>
      <trkpt lat="44.42809" lon="5.23699">
        <ele>603</ele>
        <time>2022-09-29T10:02:41Z</time>
      </trkpt>
      <trkpt lat="44.4281" lon="5.23699">
        <ele>603</ele>
        <time>2022-09-29T10:02:42Z</time>
      </trkpt>
      <trkpt lat="44.42811" lon="5.237">
        <ele>603</ele>
        <time>2022-09-29T10:02:43Z</time>
      </trkpt>
      <trkpt lat="44.42812" lon="5.237">
        <ele>603</ele>
        <time>2022-09-29T10:02:44Z</time>
      </trkpt>
      <trkpt lat="44.42813" lon="5.23701">
        <ele>603</ele>
        <time>2022-09-29T10:02:45Z</time>
      </trkpt>
      <trkpt lat="44.42813" lon="5.23701">
        <ele>603</ele>
        <time>2022-09-29T10:02:46Z</time>
      </trkpt>
      <trkpt lat="44.42814" lon="5.23702">
        <ele>603</ele>
        <time>2022-09-29T10:02:47Z</time>
      </trkpt>
      <trkpt lat="44.42815" lon="5.23703">
        <ele>603</ele>
        <time>2022-09-29T10:02:48Z</time>
      </trkpt>
      <trkpt lat="44.42816" lon="5.23703">
        <ele>603</ele>
        <time>2022-09-29T10:02:49Z</time>
      </trkpt>
      <trkpt lat="44.42817" lon="5.23704">
        <ele>603</ele>
        <time>2022-09-29T10:02:50Z</time>
      </trkpt>
      <trkpt lat="44.42817" lon="5.23705">
        <ele>603</ele>
        <time>2022-09-29T10:02:51Z</time>
      </trkpt>
      <trkpt lat="44.42818" lon="5.23705">
        <ele>603</ele>
        <time>2022-09-29T10:02:52Z</time>
      </trkpt>
      <trkpt lat="44.42819" lon="5.23706">
        <ele>603</ele>
        <time>2022-09-29T10:02:53Z</time>
      </trkpt>
      <trkpt lat="44.4282" lon="5.23707">
        <ele>603</ele>
        <time>2022-09-29T10:02:54Z</time>
      </trkpt>
      <trkpt lat="44.4282" lon="5.23708">
        <ele>603</ele>
        <time>2022-09-29T10:02:55Z</time>
      </trkpt>
      <trkpt lat="44.42821" lon="5.23709">
        <ele>603</ele>
        <time>2022-09-29T10:02:56Z</time>
      </trkpt>
      <trkpt lat="44.42822" lon="5.2371">
        <ele>603</ele>
        <time>2022-09-29T10:02:57Z</time>
      </trkpt>
      <trkpt lat="44.42822" lon="5.2371">
        <ele>603</ele>
        <time>2022-09-29T10:02:58Z</time>
      </trkpt>
      <trkpt lat="44.42823" lon="5.23711">
        <ele>603</ele>
        <time>2022-09-29T10:02:59Z</time>
      </trkpt>
      <trkpt lat="44.42824" lon="5.23712">
        <ele>603</ele>
        <time>2022-09-29T10:03:00Z</time>
      </trkpt>
      <trkpt lat="44.42824" lon="5.23713">
        <ele>603</ele>
        <time>2022-09-29T10:03:01Z</time>
      </trkpt>
      <trkpt lat="44.42825" lon="5.23714">
        <ele>603</ele>
        <time>2022-09-29T10:03:02Z</time>
      </trkpt>
      <trkpt lat="44.42826" lon="5.23715">
        <ele>603</ele>
        <time>2022-09-29T10:03:03Z</time>
      </trkpt>
      <trkpt lat="44.42826" lon="5.23716">
        <ele>603</ele>
        <time>2022-09-29T10:03:04Z</time>
      </trkpt>
      <trkpt lat="44.42827" lon="5.23717">
        <ele>603</ele>
        <time>2022-09-29T10:03:05Z</time>
      </trkpt>
      <trkpt lat="44.42827" lon="5.23718">
        <ele>603</ele>
        <time>2022-09-29T10:03:06Z</time>
      </trkpt>
      <trkpt lat="44.42828" lon="5.23719">
        <ele>603</ele>
        <time>2022-09-29T10:03:07Z</time>
      </trkpt>
      <trkpt lat="44.42828" lon="5.2372">
        <ele>604</ele>
        <time>2022-09-29T10:03:08Z</time>
      </trkpt>
      <trkpt lat="44.42829" lon="5.23721">
        <ele>604</ele>
        <time>2022-09-29T10:03:09Z</time>
      </trkpt>
      <trkpt lat="44.42829" lon="5.23722">
        <ele>604</ele>
        <time>2022-09-29T10:03:10Z</time>
      </trkpt>
      <trkpt lat="44.4283" lon="5.23723">
        <ele>604</ele>
        <time>2022-09-29T10:03:11Z</time>
      </trkpt>
      <trkpt lat="44.42831" lon="5.23723">
        <ele>604</ele>
        <time>2022-09-29T10:03:12Z</time>
      </trkpt>
      <trkpt lat="44.42831" lon="5.23724">
        <ele>604</ele>
        <time>2022-09-29T10:03:13Z</time>
      </trkpt>
      <trkpt lat="44.42832" lon="5.23725">
        <ele>604</ele>
        <time>2022-09-29T10:03:14Z</time>
      </trkpt>
      <trkpt lat="44.42833" lon="5.23726">
        <ele>604</ele>
        <time>2022-09-29T10:03:15Z</time>
      </trkpt>
      <trkpt lat="44.42834" lon="5.23727">
        <ele>604</ele>
        <time>2022-09-29T10:03:16Z</time>
      </trkpt>
      <trkpt lat="44.42834" lon="5.23727">
        <ele>604</ele>
        <time>2022-09-29T10:03:17Z</time>
      </trkpt>
      <trkpt lat="44.42835" lon="5.23728">
        <ele>605</ele>
        <time>2022-09-29T10:03:18Z</time>
      </trkpt>
      <trkpt lat="44.42836" lon="5.23729">
        <ele>605</ele>
        <time>2022-09-29T10:03:19Z</time>
      </trkpt>
      <trkpt lat="44.42837" lon="5.2373">
        <ele>605</ele>
        <time>2022-09-29T10:03:20Z</time>
      </trkpt>
      <trkpt lat="44.42838" lon="5.23731">
        <ele>605</ele>
        <time>2022-09-29T10:03:21Z</time>
      </trkpt>
      <trkpt lat="44.42838" lon="5.23732">
        <ele>605</ele>
        <time>2022-09-29T10:03:22Z</time>
      </trkpt>
      <trkpt lat="44.42839" lon="5.23733">
        <ele>605</ele>
        <time>2022-09-29T10:03:23Z</time>
      </trkpt>
      <trkpt lat="44.4284" lon="5.23733">
        <ele>605</ele>
        <time>2022-09-29T10:03:24Z</time>
      </trkpt>
      <trkpt lat="44.42841" lon="5.23734">
        <ele>605</ele>
        <time>2022-09-29T10:03:25Z</time>
      </trkpt>
      <trkpt lat="44.42842" lon="5.23735">
        <ele>605</ele>
        <time>2022-09-29T10:03:26Z</time>
      </trkpt>
      <trkpt lat="44.42842" lon="5.23735">
        <ele>605</ele>
        <time>2022-09-29T10:03:27Z</time>
      </trkpt>
      <trkpt lat="44.42843" lon="5.23735">
        <ele>605</ele>
        <time>2022-09-29T10:03:28Z</time>
      </trkpt>
      <trkpt lat="44.42844" lon="5.23736">
        <ele>605</ele>
        <time>2022-09-29T10:03:29Z</time>
      </trkpt>
      <trkpt lat="44.42845" lon="5.23737">
        <ele>605</ele>
        <time>2022-09-29T10:03:30Z</time>
      </trkpt>
      <trkpt lat="44.42846" lon="5.23737">
        <ele>605</ele>
        <time>2022-09-29T10:03:31Z</time>
      </trkpt>
      <trkpt lat="44.42847" lon="5.23738">
        <ele>605</ele>
        <time>2022-09-29T10:03:32Z</time>
      </trkpt>
      <trkpt lat="44.42848" lon="5.23738">
        <ele>606</ele>
        <time>2022-09-29T10:03:33Z</time>
      </trkpt>
      <trkpt lat="44.42848" lon="5.23739">
        <ele>606</ele>
        <time>2022-09-29T10:03:34Z</time>
      </trkpt>
      <trkpt lat="44.42849" lon="5.2374">
        <ele>606</ele>
        <time>2022-09-29T10:03:35Z</time>
      </trkpt>
      <trkpt lat="44.4285" lon="5.23741">
        <ele>606</ele>
        <time>2022-09-29T10:03:36Z</time>
      </trkpt>
      <trkpt lat="44.42851" lon="5.23741">
        <ele>606</ele>
        <time>2022-09-29T10:03:37Z</time>
      </trkpt>
      <trkpt lat="44.42851" lon="5.23742">
        <ele>607</ele>
        <time>2022-09-29T10:03:38Z</time>
      </trkpt>
      <trkpt lat="44.42852" lon="5.23743">
        <ele>607</ele>
        <time>2022-09-29T10:03:39Z</time>
      </trkpt>
      <trkpt lat="44.42853" lon="5.23744">
        <ele>607</ele>
        <time>2022-09-29T10:03:40Z</time>
      </trkpt>
      <trkpt lat="44.42854" lon="5.23744">
        <ele>607</ele>
        <time>2022-09-29T10:03:41Z</time>
      </trkpt>
      <trkpt lat="44.42854" lon="5.23745">
        <ele>607</ele>
        <time>2022-09-29T10:03:42Z</time>
      </trkpt>
      <trkpt lat="44.42855" lon="5.23746">
        <ele>607</ele>
        <time>2022-09-29T10:03:43Z</time>
      </trkpt>
      <trkpt lat="44.42856" lon="5.23746">
        <ele>607</ele>
        <time>2022-09-29T10:03:44Z</time>
      </trkpt>
      <trkpt lat="44.42857" lon="5.23747">
        <ele>607</ele>
        <time>2022-09-29T10:03:45Z</time>
      </trkpt>
      <trkpt lat="44.42857" lon="5.23748">
        <ele>607</ele>
        <time>2022-09-29T10:03:46Z</time>
      </trkpt>
      <trkpt lat="44.42858" lon="5.23748">
        <ele>607</ele>
        <time>2022-09-29T10:03:47Z</time>
      </trkpt>
      <trkpt lat="44.42859" lon="5.23749">
        <ele>608</ele>
        <time>2022-09-29T10:03:48Z</time>
      </trkpt>
      <trkpt lat="44.42859" lon="5.2375">
        <ele>608</ele>
        <time>2022-09-29T10:03:49Z</time>
      </trkpt>
      <trkpt lat="44.4286" lon="5.23751">
        <ele>608</ele>
        <time>2022-09-29T10:03:50Z</time>
      </trkpt>
      <trkpt lat="44.42861" lon="5.23752">
        <ele>608</ele>
        <time>2022-09-29T10:03:51Z</time>
      </trkpt>
      <trkpt lat="44.42861" lon="5.23753">
        <ele>608</ele>
        <time>2022-09-29T10:03:52Z</time>
      </trkpt>
      <trkpt lat="44.42862" lon="5.23753">
        <ele>608</ele>
        <time>2022-09-29T10:03:53Z</time>
      </trkpt>
      <trkpt lat="44.42863" lon="5.23754">
        <ele>608</ele>
        <time>2022-09-29T10:03:54Z</time>
      </trkpt>
      <trkpt lat="44.42863" lon="5.23755">
        <ele>608</ele>
        <time>2022-09-29T10:03:55Z</time>
      </trkpt>
      <trkpt lat="44.42864" lon="5.23756">
        <ele>608</ele>
        <time>2022-09-29T10:03:56Z</time>
      </trkpt>
      <trkpt lat="44.42865" lon="5.23757">
        <ele>608</ele>
        <time>2022-09-29T10:03:57Z</time>
      </trkpt>
      <trkpt lat="44.42865" lon="5.23758">
        <ele>609</ele>
        <time>2022-09-29T10:03:58Z</time>
      </trkpt>
      <trkpt lat="44.42866" lon="5.23759">
        <ele>609</ele>
        <time>2022-09-29T10:03:59Z</time>
      </trkpt>
      <trkpt lat="44.42866" lon="5.23759">
        <ele>609</ele>
        <time>2022-09-29T10:04:00Z</time>
      </trkpt>
      <trkpt lat="44.42867" lon="5.2376">
        <ele>609</ele>
        <time>2022-09-29T10:04:01Z</time>
      </trkpt>
      <trkpt lat="44.42868" lon="5.23761">
        <ele>609</ele>
        <time>2022-09-29T10:04:02Z</time>
      </trkpt>
      <trkpt lat="44.42868" lon="5.23762">
        <ele>609</ele>
        <time>2022-09-29T10:04:03Z</time>
      </trkpt>
      <trkpt lat="44.42869" lon="5.23763">
        <ele>609</ele>
        <time>2022-09-29T10:04:04Z</time>
      </trkpt>
      <trkpt lat="44.4287" lon="5.23764">
        <ele>609</ele>
        <time>2022-09-29T10:04:05Z</time>
      </trkpt>
      <trkpt lat="44.42871" lon="5.23765">
        <ele>609</ele>
        <time>2022-09-29T10:04:06Z</time>
      </trkpt>
      <trkpt lat="44.42871" lon="5.23766">
        <ele>609</ele>
        <time>2022-09-29T10:04:07Z</time>
      </trkpt>
      <trkpt lat="44.42872" lon="5.23766">
        <ele>609</ele>
        <time>2022-09-29T10:04:08Z</time>
      </trkpt>
      <trkpt lat="44.42873" lon="5.23767">
        <ele>609</ele>
        <time>2022-09-29T10:04:09Z</time>
      </trkpt>
      <trkpt lat="44.42874" lon="5.23768">
        <ele>609</ele>
        <time>2022-09-29T10:04:10Z</time>
      </trkpt>
      <trkpt lat="44.42875" lon="5.23769">
        <ele>609</ele>
        <time>2022-09-29T10:04:11Z</time>
      </trkpt>
      <trkpt lat="44.42875" lon="5.2377">
        <ele>609</ele>
        <time>2022-09-29T10:04:12Z</time>
      </trkpt>
      <trkpt lat="44.42876" lon="5.2377">
        <ele>610</ele>
        <time>2022-09-29T10:04:13Z</time>
      </trkpt>
      <trkpt lat="44.42877" lon="5.23771">
        <ele>610</ele>
        <time>2022-09-29T10:04:14Z</time>
      </trkpt>
      <trkpt lat="44.42878" lon="5.23772">
        <ele>610</ele>
        <time>2022-09-29T10:04:15Z</time>
      </trkpt>
      <trkpt lat="44.42879" lon="5.23773">
        <ele>610</ele>
        <time>2022-09-29T10:04:16Z</time>
      </trkpt>
      <trkpt lat="44.4288" lon="5.23774">
        <ele>610</ele>
        <time>2022-09-29T10:04:17Z</time>
      </trkpt>
      <trkpt lat="44.4288" lon="5.23775">
        <ele>610</ele>
        <time>2022-09-29T10:04:18Z</time>
      </trkpt>
      <trkpt lat="44.42881" lon="5.23776">
        <ele>610</ele>
        <time>2022-09-29T10:04:19Z</time>
      </trkpt>
      <trkpt lat="44.42882" lon="5.23776">
        <ele>610</ele>
        <time>2022-09-29T10:04:20Z</time>
      </trkpt>
      <trkpt lat="44.42883" lon="5.23777">
        <ele>610</ele>
        <time>2022-09-29T10:04:21Z</time>
      </trkpt>
      <trkpt lat="44.42884" lon="5.23778">
        <ele>610</ele>
        <time>2022-09-29T10:04:22Z</time>
      </trkpt>
      <trkpt lat="44.42885" lon="5.23778">
        <ele>610</ele>
        <time>2022-09-29T10:04:23Z</time>
      </trkpt>
      <trkpt lat="44.42886" lon="5.23779">
        <ele>610</ele>
        <time>2022-09-29T10:04:24Z</time>
      </trkpt>
      <trkpt lat="44.42887" lon="5.2378">
        <ele>610</ele>
        <time>2022-09-29T10:04:25Z</time>
      </trkpt>
      <trkpt lat="44.42888" lon="5.23781">
        <ele>610</ele>
        <time>2022-09-29T10:04:26Z</time>
      </trkpt>
      <trkpt lat="44.42888" lon="5.23782">
        <ele>610</ele>
        <time>2022-09-29T10:04:27Z</time>
      </trkpt>
      <trkpt lat="44.42889" lon="5.23782">
        <ele>610</ele>
        <time>2022-09-29T10:04:28Z</time>
      </trkpt>
      <trkpt lat="44.4289" lon="5.23783">
        <ele>610</ele>
        <time>2022-09-29T10:04:29Z</time>
      </trkpt>
      <trkpt lat="44.42891" lon="5.23784">
        <ele>610</ele>
        <time>2022-09-29T10:04:30Z</time>
      </trkpt>
      <trkpt lat="44.42892" lon="5.23784">
        <ele>610</ele>
        <time>2022-09-29T10:04:31Z</time>
      </trkpt>
      <trkpt lat="44.42893" lon="5.23785">
        <ele>610</ele>
        <time>2022-09-29T10:04:32Z</time>
      </trkpt>
      <trkpt lat="44.42893" lon="5.23786">
        <ele>611</ele>
        <time>2022-09-29T10:04:33Z</time>
      </trkpt>
      <trkpt lat="44.42894" lon="5.23786">
        <ele>611</ele>
        <time>2022-09-29T10:04:34Z</time>
      </trkpt>
      <trkpt lat="44.42895" lon="5.23787">
        <ele>611</ele>
        <time>2022-09-29T10:04:35Z</time>
      </trkpt>
      <trkpt lat="44.42896" lon="5.23787">
        <ele>611</ele>
        <time>2022-09-29T10:04:36Z</time>
      </trkpt>
      <trkpt lat="44.42897" lon="5.23788">
        <ele>611</ele>
        <time>2022-09-29T10:04:37Z</time>
      </trkpt>
      <trkpt lat="44.42897" lon="5.23789">
        <ele>611</ele>
        <time>2022-09-29T10:04:38Z</time>
      </trkpt>
      <trkpt lat="44.42898" lon="5.23789">
        <ele>611</ele>
        <time>2022-09-29T10:04:39Z</time>
      </trkpt>
      <trkpt lat="44.42899" lon="5.2379">
        <ele>611</ele>
        <time>2022-09-29T10:04:40Z</time>
      </trkpt>
      <trkpt lat="44.429" lon="5.23791">
        <ele>611</ele>
        <time>2022-09-29T10:04:41Z</time>
      </trkpt>
      <trkpt lat="44.42901" lon="5.23791">
        <ele>611</ele>
        <time>2022-09-29T10:04:42Z</time>
      </trkpt>
      <trkpt lat="44.42902" lon="5.23792">
        <ele>611</ele>
        <time>2022-09-29T10:04:43Z</time>
      </trkpt>
      <trkpt lat="44.42902" lon="5.23793">
        <ele>611</ele>
        <time>2022-09-29T10:04:44Z</time>
      </trkpt>
      <trkpt lat="44.42903" lon="5.23793">
        <ele>611</ele>
        <time>2022-09-29T10:04:45Z</time>
      </trkpt>
      <trkpt lat="44.42904" lon="5.23794">
        <ele>611</ele>
        <time>2022-09-29T10:04:46Z</time>
      </trkpt>
      <trkpt lat="44.42905" lon="5.23795">
        <ele>611</ele>
        <time>2022-09-29T10:04:47Z</time>
      </trkpt>
      <trkpt lat="44.42905" lon="5.23796">
        <ele>612</ele>
        <time>2022-09-29T10:04:48Z</time>
      </trkpt>
      <trkpt lat="44.42906" lon="5.23796">
        <ele>612</ele>
        <time>2022-09-29T10:04:49Z</time>
      </trkpt>
      <trkpt lat="44.42907" lon="5.23797">
        <ele>612</ele>
        <time>2022-09-29T10:04:50Z</time>
      </trkpt>
      <trkpt lat="44.42907" lon="5.23797">
        <ele>612</ele>
        <time>2022-09-29T10:04:51Z</time>
      </trkpt>
      <trkpt lat="44.42908" lon="5.23798">
        <ele>612</ele>
        <time>2022-09-29T10:04:52Z</time>
      </trkpt>
      <trkpt lat="44.42909" lon="5.23798">
        <ele>612</ele>
        <time>2022-09-29T10:04:53Z</time>
      </trkpt>
      <trkpt lat="44.4291" lon="5.23799">
        <ele>612</ele>
        <time>2022-09-29T10:04:54Z</time>
      </trkpt>
      <trkpt lat="44.4291" lon="5.238">
        <ele>612</ele>
        <time>2022-09-29T10:04:55Z</time>
      </trkpt>
      <trkpt lat="44.42911" lon="5.238">
        <ele>612</ele>
        <time>2022-09-29T10:04:56Z</time>
      </trkpt>
      <trkpt lat="44.42912" lon="5.23801">
        <ele>612</ele>
        <time>2022-09-29T10:04:57Z</time>
      </trkpt>
      <trkpt lat="44.42913" lon="5.23801">
        <ele>612</ele>
        <time>2022-09-29T10:04:58Z</time>
      </trkpt>
      <trkpt lat="44.42913" lon="5.23802">
        <ele>612</ele>
        <time>2022-09-29T10:04:59Z</time>
      </trkpt>
      <trkpt lat="44.42914" lon="5.23802">
        <ele>612</ele>
        <time>2022-09-29T10:05:00Z</time>
      </trkpt>
      <trkpt lat="44.42915" lon="5.23803">
        <ele>612</ele>
        <time>2022-09-29T10:05:01Z</time>
      </trkpt>
      <trkpt lat="44.42916" lon="5.23804">
        <ele>612</ele>
        <time>2022-09-29T10:05:02Z</time>
      </trkpt>
      <trkpt lat="44.42917" lon="5.23804">
        <ele>612</ele>
        <time>2022-09-29T10:05:03Z</time>
      </trkpt>
      <trkpt lat="44.42917" lon="5.23805">
        <ele>612</ele>
        <time>2022-09-29T10:05:04Z</time>
      </trkpt>
      <trkpt lat="44.42918" lon="5.23806">
        <ele>612</ele>
        <time>2022-09-29T10:05:05Z</time>
      </trkpt>
      <trkpt lat="44.42919" lon="5.23807">
        <ele>612</ele>
        <time>2022-09-29T10:05:06Z</time>
      </trkpt>
      <trkpt lat="44.4292" lon="5.23807">
        <ele>612</ele>
        <time>2022-09-29T10:05:07Z</time>
      </trkpt>
      <trkpt lat="44.4292" lon="5.23808">
        <ele>612</ele>
        <time>2022-09-29T10:05:08Z</time>
      </trkpt>
      <trkpt lat="44.42921" lon="5.23809">
        <ele>612</ele>
        <time>2022-09-29T10:05:09Z</time>
      </trkpt>
      <trkpt lat="44.42922" lon="5.23809">
        <ele>612</ele>
        <time>2022-09-29T10:05:10Z</time>
      </trkpt>
      <trkpt lat="44.42923" lon="5.2381">
        <ele>612</ele>
        <time>2022-09-29T10:05:11Z</time>
      </trkpt>
      <trkpt lat="44.42924" lon="5.23811">
        <ele>612</ele>
        <time>2022-09-29T10:05:12Z</time>
      </trkpt>
      <trkpt lat="44.42925" lon="5.23812">
        <ele>612</ele>
        <time>2022-09-29T10:05:13Z</time>
      </trkpt>
      <trkpt lat="44.42925" lon="5.23813">
        <ele>612</ele>
        <time>2022-09-29T10:05:14Z</time>
      </trkpt>
      <trkpt lat="44.42926" lon="5.23814">
        <ele>612</ele>
        <time>2022-09-29T10:05:15Z</time>
      </trkpt>
      <trkpt lat="44.42927" lon="5.23814">
        <ele>612</ele>
        <time>2022-09-29T10:05:16Z</time>
      </trkpt>
      <trkpt lat="44.42928" lon="5.23815">
        <ele>612</ele>
        <time>2022-09-29T10:05:17Z</time>
      </trkpt>
      <trkpt lat="44.42928" lon="5.23816">
        <ele>612</ele>
        <time>2022-09-29T10:05:18Z</time>
      </trkpt>
      <trkpt lat="44.42929" lon="5.23817">
        <ele>612</ele>
        <time>2022-09-29T10:05:19Z</time>
      </trkpt>
      <trkpt lat="44.4293" lon="5.23818">
        <ele>612</ele>
        <time>2022-09-29T10:05:20Z</time>
      </trkpt>
      <trkpt lat="44.42931" lon="5.23819">
        <ele>612</ele>
        <time>2022-09-29T10:05:21Z</time>
      </trkpt>
      <trkpt lat="44.42931" lon="5.2382">
        <ele>612</ele>
        <time>2022-09-29T10:05:22Z</time>
      </trkpt>
      <trkpt lat="44.42932" lon="5.23821">
        <ele>613</ele>
        <time>2022-09-29T10:05:23Z</time>
      </trkpt>
      <trkpt lat="44.42933" lon="5.23822">
        <ele>613</ele>
        <time>2022-09-29T10:05:24Z</time>
      </trkpt>
      <trkpt lat="44.42933" lon="5.23823">
        <ele>613</ele>
        <time>2022-09-29T10:05:25Z</time>
      </trkpt>
      <trkpt lat="44.42934" lon="5.23824">
        <ele>613</ele>
        <time>2022-09-29T10:05:26Z</time>
      </trkpt>
      <trkpt lat="44.42935" lon="5.23825">
        <ele>613</ele>
        <time>2022-09-29T10:05:27Z</time>
      </trkpt>
      <trkpt lat="44.42936" lon="5.23826">
        <ele>613</ele>
        <time>2022-09-29T10:05:28Z</time>
      </trkpt>
      <trkpt lat="44.42937" lon="5.23827">
        <ele>613</ele>
        <time>2022-09-29T10:05:29Z</time>
      </trkpt>
      <trkpt lat="44.42937" lon="5.23828">
        <ele>613</ele>
        <time>2022-09-29T10:05:30Z</time>
      </trkpt>
      <trkpt lat="44.42938" lon="5.23829">
        <ele>613</ele>
        <time>2022-09-29T10:05:31Z</time>
      </trkpt>
      <trkpt lat="44.42939" lon="5.2383">
        <ele>613</ele>
        <time>2022-09-29T10:05:32Z</time>
      </trkpt>
      <trkpt lat="44.4294" lon="5.23831">
        <ele>613</ele>
        <time>2022-09-29T10:05:33Z</time>
      </trkpt>
      <trkpt lat="44.4294" lon="5.23831">
        <ele>613</ele>
        <time>2022-09-29T10:05:34Z</time>
      </trkpt>
      <trkpt lat="44.42941" lon="5.23832">
        <ele>613</ele>
        <time>2022-09-29T10:05:35Z</time>
      </trkpt>
      <trkpt lat="44.42942" lon="5.23833">
        <ele>613</ele>
        <time>2022-09-29T10:05:36Z</time>
      </trkpt>
      <trkpt lat="44.42943" lon="5.23834">
        <ele>613</ele>
        <time>2022-09-29T10:05:37Z</time>
      </trkpt>
      <trkpt lat="44.42944" lon="5.23835">
        <ele>613</ele>
        <time>2022-09-29T10:05:38Z</time>
      </trkpt>
      <trkpt lat="44.42945" lon="5.23836">
        <ele>613</ele>
        <time>2022-09-29T10:05:39Z</time>
      </trkpt>
      <trkpt lat="44.42945" lon="5.23837">
        <ele>613</ele>
        <time>2022-09-29T10:05:40Z</time>
      </trkpt>
      <trkpt lat="44.42946" lon="5.23837">
        <ele>613</ele>
        <time>2022-09-29T10:05:41Z</time>
      </trkpt>
      <trkpt lat="44.42947" lon="5.23838">
        <ele>613</ele>
        <time>2022-09-29T10:05:42Z</time>
      </trkpt>
      <trkpt lat="44.42948" lon="5.23839">
        <ele>613</ele>
        <time>2022-09-29T10:05:43Z</time>
      </trkpt>
      <trkpt lat="44.42949" lon="5.2384">
        <ele>613</ele>
        <time>2022-09-29T10:05:44Z</time>
      </trkpt>
      <trkpt lat="44.42949" lon="5.23841">
        <ele>613</ele>
        <time>2022-09-29T10:05:45Z</time>
      </trkpt>
      <trkpt lat="44.4295" lon="5.23842">
        <ele>613</ele>
        <time>2022-09-29T10:05:46Z</time>
      </trkpt>
      <trkpt lat="44.42951" lon="5.23843">
        <ele>613</ele>
        <time>2022-09-29T10:05:47Z</time>
      </trkpt>
      <trkpt lat="44.42952" lon="5.23844">
        <ele>613</ele>
        <time>2022-09-29T10:05:48Z</time>
      </trkpt>
      <trkpt lat="44.42952" lon="5.23845">
        <ele>613</ele>
        <time>2022-09-29T10:05:49Z</time>
      </trkpt>
      <trkpt lat="44.42953" lon="5.23846">
        <ele>613</ele>
        <time>2022-09-29T10:05:50Z</time>
      </trkpt>
      <trkpt lat="44.42954" lon="5.23846">
        <ele>613</ele>
        <time>2022-09-29T10:05:51Z</time>
      </trkpt>
      <trkpt lat="44.42955" lon="5.23847">
        <ele>613</ele>
        <time>2022-09-29T10:05:52Z</time>
      </trkpt>
      <trkpt lat="44.42956" lon="5.23848">
        <ele>614</ele>
        <time>2022-09-29T10:05:53Z</time>
      </trkpt>
      <trkpt lat="44.42956" lon="5.23849">
        <ele>614</ele>
        <time>2022-09-29T10:05:54Z</time>
      </trkpt>
      <trkpt lat="44.42957" lon="5.2385">
        <ele>614</ele>
        <time>2022-09-29T10:05:55Z</time>
      </trkpt>
      <trkpt lat="44.42958" lon="5.23851">
        <ele>614</ele>
        <time>2022-09-29T10:05:56Z</time>
      </trkpt>
      <trkpt lat="44.42958" lon="5.23852">
        <ele>614</ele>
        <time>2022-09-29T10:05:57Z</time>
      </trkpt>
      <trkpt lat="44.42959" lon="5.23853">
        <ele>614</ele>
        <time>2022-09-29T10:05:58Z</time>
      </trkpt>
      <trkpt lat="44.4296" lon="5.23854">
        <ele>614</ele>
        <time>2022-09-29T10:05:59Z</time>
      </trkpt>
      <trkpt lat="44.4296" lon="5.23855">
        <ele>614</ele>
        <time>2022-09-29T10:06:00Z</time>
      </trkpt>
      <trkpt lat="44.42961" lon="5.23856">
        <ele>614</ele>
        <time>2022-09-29T10:06:01Z</time>
      </trkpt>
      <trkpt lat="44.42962" lon="5.23857">
        <ele>614</ele>
        <time>2022-09-29T10:06:02Z</time>
      </trkpt>
      <trkpt lat="44.42963" lon="5.23858">
        <ele>614</ele>
        <time>2022-09-29T10:06:03Z</time>
      </trkpt>
      <trkpt lat="44.42963" lon="5.23859">
        <ele>614</ele>
        <time>2022-09-29T10:06:04Z</time>
      </trkpt>
      <trkpt lat="44.42964" lon="5.2386">
        <ele>614</ele>
        <time>2022-09-29T10:06:05Z</time>
      </trkpt>
      <trkpt lat="44.42965" lon="5.23861">
        <ele>614</ele>
        <time>2022-09-29T10:06:06Z</time>
      </trkpt>
      <trkpt lat="44.42965" lon="5.23862">
        <ele>614</ele>
        <time>2022-09-29T10:06:07Z</time>
      </trkpt>
      <trkpt lat="44.42966" lon="5.23863">
        <ele>614</ele>
        <time>2022-09-29T10:06:08Z</time>
      </trkpt>
      <trkpt lat="44.42966" lon="5.23865">
        <ele>614</ele>
        <time>2022-09-29T10:06:09Z</time>
      </trkpt>
      <trkpt lat="44.42966" lon="5.23866">
        <ele>614</ele>
        <time>2022-09-29T10:06:10Z</time>
      </trkpt>
      <trkpt lat="44.42967" lon="5.23867">
        <ele>614</ele>
        <time>2022-09-29T10:06:11Z</time>
      </trkpt>
      <trkpt lat="44.42967" lon="5.23868">
        <ele>614</ele>
        <time>2022-09-29T10:06:12Z</time>
      </trkpt>
      <trkpt lat="44.42968" lon="5.23869">
        <ele>614</ele>
        <time>2022-09-29T10:06:13Z</time>
      </trkpt>
      <trkpt lat="44.42968" lon="5.2387">
        <ele>614</ele>
        <time>2022-09-29T10:06:14Z</time>
      </trkpt>
      <trkpt lat="44.42969" lon="5.23871">
        <ele>614</ele>
        <time>2022-09-29T10:06:15Z</time>
      </trkpt>
      <trkpt lat="44.4297" lon="5.23872">
        <ele>614</ele>
        <time>2022-09-29T10:06:16Z</time>
      </trkpt>
      <trkpt lat="44.42971" lon="5.23873">
        <ele>614</ele>
        <time>2022-09-29T10:06:17Z</time>
      </trkpt>
      <trkpt lat="44.42971" lon="5.23874">
        <ele>614</ele>
        <time>2022-09-29T10:06:18Z</time>
      </trkpt>
      <trkpt lat="44.42972" lon="5.23875">
        <ele>614</ele>
        <time>2022-09-29T10:06:19Z</time>
      </trkpt>
      <trkpt lat="44.42973" lon="5.23876">
        <ele>614</ele>
        <time>2022-09-29T10:06:20Z</time>
      </trkpt>
      <trkpt lat="44.42973" lon="5.23877">
        <ele>614</ele>
        <time>2022-09-29T10:06:21Z</time>
      </trkpt>
      <trkpt lat="44.42974" lon="5.23878">
        <ele>614</ele>
        <time>2022-09-29T10:06:22Z</time>
      </trkpt>
      <trkpt lat="44.42975" lon="5.23879">
        <ele>614</ele>
        <time>2022-09-29T10:06:23Z</time>
      </trkpt>
      <trkpt lat="44.42975" lon="5.2388">
        <ele>614</ele>
        <time>2022-09-29T10:06:24Z</time>
      </trkpt>
      <trkpt lat="44.42976" lon="5.23881">
        <ele>614</ele>
        <time>2022-09-29T10:06:25Z</time>
      </trkpt>
      <trkpt lat="44.42977" lon="5.23882">
        <ele>614</ele>
        <time>2022-09-29T10:06:26Z</time>
      </trkpt>
      <trkpt lat="44.42977" lon="5.23884">
        <ele>614</ele>
        <time>2022-09-29T10:06:27Z</time>
      </trkpt>
      <trkpt lat="44.42978" lon="5.23885">
        <ele>614</ele>
        <time>2022-09-29T10:06:28Z</time>
      </trkpt>
      <trkpt lat="44.42978" lon="5.23886">
        <ele>614</ele>
        <time>2022-09-29T10:06:29Z</time>
      </trkpt>
      <trkpt lat="44.42979" lon="5.23887">
        <ele>614</ele>
        <time>2022-09-29T10:06:30Z</time>
      </trkpt>
      <trkpt lat="44.42979" lon="5.23888">
        <ele>614</ele>
        <time>2022-09-29T10:06:31Z</time>
      </trkpt>
      <trkpt lat="44.4298" lon="5.23889">
        <ele>614</ele>
        <time>2022-09-29T10:06:32Z</time>
      </trkpt>
      <trkpt lat="44.42981" lon="5.23891">
        <ele>614</ele>
        <time>2022-09-29T10:06:33Z</time>
      </trkpt>
      <trkpt lat="44.42981" lon="5.23892">
        <ele>614</ele>
        <time>2022-09-29T10:06:34Z</time>
      </trkpt>
      <trkpt lat="44.42982" lon="5.23893">
        <ele>614</ele>
        <time>2022-09-29T10:06:35Z</time>
      </trkpt>
      <trkpt lat="44.42983" lon="5.23893">
        <ele>614</ele>
        <time>2022-09-29T10:06:36Z</time>
      </trkpt>
      <trkpt lat="44.42984" lon="5.23894">
        <ele>614</ele>
        <time>2022-09-29T10:06:37Z</time>
      </trkpt>
      <trkpt lat="44.42985" lon="5.23895">
        <ele>614</ele>
        <time>2022-09-29T10:06:38Z</time>
      </trkpt>
      <trkpt lat="44.42986" lon="5.23896">
        <ele>614</ele>
        <time>2022-09-29T10:06:39Z</time>
      </trkpt>
      <trkpt lat="44.42987" lon="5.23897">
        <ele>614</ele>
        <time>2022-09-29T10:06:40Z</time>
      </trkpt>
      <trkpt lat="44.42987" lon="5.23898">
        <ele>614</ele>
        <time>2022-09-29T10:06:41Z</time>
      </trkpt>
      <trkpt lat="44.42988" lon="5.23898">
        <ele>614</ele>
        <time>2022-09-29T10:06:42Z</time>
      </trkpt>
      <trkpt lat="44.42989" lon="5.23899">
        <ele>614</ele>
        <time>2022-09-29T10:06:43Z</time>
      </trkpt>
      <trkpt lat="44.4299" lon="5.239">
        <ele>614</ele>
        <time>2022-09-29T10:06:44Z</time>
      </trkpt>
      <trkpt lat="44.42991" lon="5.23901">
        <ele>614</ele>
        <time>2022-09-29T10:06:45Z</time>
      </trkpt>
      <trkpt lat="44.42992" lon="5.23902">
        <ele>614</ele>
        <time>2022-09-29T10:06:46Z</time>
      </trkpt>
      <trkpt lat="44.42993" lon="5.23903">
        <ele>614</ele>
        <time>2022-09-29T10:06:47Z</time>
      </trkpt>
      <trkpt lat="44.42994" lon="5.23905">
        <ele>614</ele>
        <time>2022-09-29T10:06:48Z</time>
      </trkpt>
      <trkpt lat="44.42994" lon="5.23906">
        <ele>614</ele>
        <time>2022-09-29T10:06:49Z</time>
      </trkpt>
      <trkpt lat="44.42995" lon="5.23907">
        <ele>614</ele>
        <time>2022-09-29T10:06:50Z</time>
      </trkpt>
      <trkpt lat="44.42995" lon="5.23908">
        <ele>614</ele>
        <time>2022-09-29T10:06:51Z</time>
      </trkpt>
      <trkpt lat="44.42996" lon="5.23909">
        <ele>614</ele>
        <time>2022-09-29T10:06:52Z</time>
      </trkpt>
      <trkpt lat="44.42996" lon="5.23911">
        <ele>614</ele>
        <time>2022-09-29T10:06:53Z</time>
      </trkpt>
      <trkpt lat="44.42997" lon="5.23912">
        <ele>614</ele>
        <time>2022-09-29T10:06:54Z</time>
      </trkpt>
      <trkpt lat="44.42997" lon="5.23913">
        <ele>614</ele>
        <time>2022-09-29T10:06:55Z</time>
      </trkpt>
      <trkpt lat="44.42998" lon="5.23914">
        <ele>614</ele>
        <time>2022-09-29T10:06:56Z</time>
      </trkpt>
      <trkpt lat="44.42999" lon="5.23916">
        <ele>614</ele>
        <time>2022-09-29T10:06:57Z</time>
      </trkpt>
      <trkpt lat="44.42999" lon="5.23917">
        <ele>614</ele>
        <time>2022-09-29T10:06:58Z</time>
      </trkpt>
      <trkpt lat="44.42999" lon="5.23918">
        <ele>613</ele>
        <time>2022-09-29T10:06:59Z</time>
      </trkpt>
      <trkpt lat="44.43" lon="5.23919">
        <ele>613</ele>
        <time>2022-09-29T10:07:00Z</time>
      </trkpt>
      <trkpt lat="44.43" lon="5.23921">
        <ele>613</ele>
        <time>2022-09-29T10:07:01Z</time>
      </trkpt>
      <trkpt lat="44.43001" lon="5.23922">
        <ele>613</ele>
        <time>2022-09-29T10:07:02Z</time>
      </trkpt>
      <trkpt lat="44.43001" lon="5.23923">
        <ele>613</ele>
        <time>2022-09-29T10:07:03Z</time>
      </trkpt>
      <trkpt lat="44.43002" lon="5.23924">
        <ele>613</ele>
        <time>2022-09-29T10:07:04Z</time>
      </trkpt>
      <trkpt lat="44.43002" lon="5.23926">
        <ele>613</ele>
        <time>2022-09-29T10:07:05Z</time>
      </trkpt>
      <trkpt lat="44.43003" lon="5.23927">
        <ele>613</ele>
        <time>2022-09-29T10:07:06Z</time>
      </trkpt>
      <trkpt lat="44.43004" lon="5.23928">
        <ele>613</ele>
        <time>2022-09-29T10:07:07Z</time>
      </trkpt>
      <trkpt lat="44.43005" lon="5.23929">
        <ele>613</ele>
        <time>2022-09-29T10:07:08Z</time>
      </trkpt>
      <trkpt lat="44.43005" lon="5.2393">
        <ele>613</ele>
        <time>2022-09-29T10:07:09Z</time>
      </trkpt>
      <trkpt lat="44.43006" lon="5.23931">
        <ele>613</ele>
        <time>2022-09-29T10:07:10Z</time>
      </trkpt>
      <trkpt lat="44.43007" lon="5.23932">
        <ele>613</ele>
        <time>2022-09-29T10:07:11Z</time>
      </trkpt>
      <trkpt lat="44.43008" lon="5.23933">
        <ele>613</ele>
        <time>2022-09-29T10:07:12Z</time>
      </trkpt>
      <trkpt lat="44.43009" lon="5.23934">
        <ele>613</ele>
        <time>2022-09-29T10:07:13Z</time>
      </trkpt>
      <trkpt lat="44.4301" lon="5.23935">
        <ele>613</ele>
        <time>2022-09-29T10:07:14Z</time>
      </trkpt>
      <trkpt lat="44.4301" lon="5.23936">
        <ele>613</ele>
        <time>2022-09-29T10:07:15Z</time>
      </trkpt>
      <trkpt lat="44.43011" lon="5.23937">
        <ele>613</ele>
        <time>2022-09-29T10:07:16Z</time>
      </trkpt>
      <trkpt lat="44.43012" lon="5.23938">
        <ele>613</ele>
        <time>2022-09-29T10:07:17Z</time>
      </trkpt>
      <trkpt lat="44.43013" lon="5.23939">
        <ele>613</ele>
        <time>2022-09-29T10:07:18Z</time>
      </trkpt>
      <trkpt lat="44.43014" lon="5.2394">
        <ele>613</ele>
        <time>2022-09-29T10:07:19Z</time>
      </trkpt>
      <trkpt lat="44.43015" lon="5.23941">
        <ele>613</ele>
        <time>2022-09-29T10:07:20Z</time>
      </trkpt>
      <trkpt lat="44.43016" lon="5.23942">
        <ele>613</ele>
        <time>2022-09-29T10:07:21Z</time>
      </trkpt>
      <trkpt lat="44.43016" lon="5.23943">
        <ele>613</ele>
        <time>2022-09-29T10:07:22Z</time>
      </trkpt>
      <trkpt lat="44.43017" lon="5.23944">
        <ele>613</ele>
        <time>2022-09-29T10:07:23Z</time>
      </trkpt>
      <trkpt lat="44.43018" lon="5.23945">
        <ele>613</ele>
        <time>2022-09-29T10:07:24Z</time>
      </trkpt>
      <trkpt lat="44.43019" lon="5.23946">
        <ele>613</ele>
        <time>2022-09-29T10:07:25Z</time>
      </trkpt>
      <trkpt lat="44.4302" lon="5.23947">
        <ele>613</ele>
        <time>2022-09-29T10:07:26Z</time>
      </trkpt>
      <trkpt lat="44.43021" lon="5.23948">
        <ele>613</ele>
        <time>2022-09-29T10:07:27Z</time>
      </trkpt>
      <trkpt lat="44.43022" lon="5.23949">
        <ele>613</ele>
        <time>2022-09-29T10:07:28Z</time>
      </trkpt>
      <trkpt lat="44.43022" lon="5.2395">
        <ele>613</ele>
        <time>2022-09-29T10:07:29Z</time>
      </trkpt>
      <trkpt lat="44.43023" lon="5.23951">
        <ele>613</ele>
        <time>2022-09-29T10:07:30Z</time>
      </trkpt>
      <trkpt lat="44.43024" lon="5.23952">
        <ele>613</ele>
        <time>2022-09-29T10:07:31Z</time>
      </trkpt>
      <trkpt lat="44.43025" lon="5.23953">
        <ele>613</ele>
        <time>2022-09-29T10:07:32Z</time>
      </trkpt>
      <trkpt lat="44.43026" lon="5.23954">
        <ele>613</ele>
        <time>2022-09-29T10:07:33Z</time>
      </trkpt>
      <trkpt lat="44.43027" lon="5.23955">
        <ele>613</ele>
        <time>2022-09-29T10:07:34Z</time>
      </trkpt>
      <trkpt lat="44.43027" lon="5.23956">
        <ele>613</ele>
        <time>2022-09-29T10:07:35Z</time>
      </trkpt>
      <trkpt lat="44.43028" lon="5.23957">
        <ele>613</ele>
        <time>2022-09-29T10:07:36Z</time>
      </trkpt>
      <trkpt lat="44.43029" lon="5.23958">
        <ele>613</ele>
        <time>2022-09-29T10:07:37Z</time>
      </trkpt>
      <trkpt lat="44.4303" lon="5.23959">
        <ele>613</ele>
        <time>2022-09-29T10:07:38Z</time>
      </trkpt>
      <trkpt lat="44.43031" lon="5.23961">
        <ele>613</ele>
        <time>2022-09-29T10:07:39Z</time>
      </trkpt>
      <trkpt lat="44.43032" lon="5.23962">
        <ele>613</ele>
        <time>2022-09-29T10:07:40Z</time>
      </trkpt>
      <trkpt lat="44.43033" lon="5.23963">
        <ele>613</ele>
        <time>2022-09-29T10:07:41Z</time>
      </trkpt>
      <trkpt lat="44.43034" lon="5.23964">
        <ele>613</ele>
        <time>2022-09-29T10:07:42Z</time>
      </trkpt>
      <trkpt lat="44.43035" lon="5.23965">
        <ele>613</ele>
        <time>2022-09-29T10:07:43Z</time>
      </trkpt>
      <trkpt lat="44.43035" lon="5.23966">
        <ele>613</ele>
        <time>2022-09-29T10:07:44Z</time>
      </trkpt>
      <trkpt lat="44.43036" lon="5.23967">
        <ele>613</ele>
        <time>2022-09-29T10:07:45Z</time>
      </trkpt>
      <trkpt lat="44.43037" lon="5.23968">
        <ele>613</ele>
        <time>2022-09-29T10:07:46Z</time>
      </trkpt>
      <trkpt lat="44.43038" lon="5.23969">
        <ele>613</ele>
        <time>2022-09-29T10:07:47Z</time>
      </trkpt>
      <trkpt lat="44.43039" lon="5.2397">
        <ele>613</ele>
        <time>2022-09-29T10:07:48Z</time>
      </trkpt>
      <trkpt lat="44.4304" lon="5.23971">
        <ele>613</ele>
        <time>2022-09-29T10:07:49Z</time>
      </trkpt>
      <trkpt lat="44.43041" lon="5.23972">
        <ele>613</ele>
        <time>2022-09-29T10:07:50Z</time>
      </trkpt>
      <trkpt lat="44.43042" lon="5.23973">
        <ele>613</ele>
        <time>2022-09-29T10:07:51Z</time>
      </trkpt>
      <trkpt lat="44.43043" lon="5.23974">
        <ele>613</ele>
        <time>2022-09-29T10:07:52Z</time>
      </trkpt>
      <trkpt lat="44.43044" lon="5.23975">
        <ele>613</ele>
        <time>2022-09-29T10:07:53Z</time>
      </trkpt>
      <trkpt lat="44.43044" lon="5.23976">
        <ele>613</ele>
        <time>2022-09-29T10:07:54Z</time>
      </trkpt>
      <trkpt lat="44.43045" lon="5.23977">
        <ele>613</ele>
        <time>2022-09-29T10:07:55Z</time>
      </trkpt>
      <trkpt lat="44.43046" lon="5.23978">
        <ele>613</ele>
        <time>2022-09-29T10:07:56Z</time>
      </trkpt>
      <trkpt lat="44.43047" lon="5.23979">
        <ele>613</ele>
        <time>2022-09-29T10:07:57Z</time>
      </trkpt>
      <trkpt lat="44.43048" lon="5.2398">
        <ele>613</ele>
        <time>2022-09-29T10:07:58Z</time>
      </trkpt>
      <trkpt lat="44.43048" lon="5.23981">
        <ele>613</ele>
        <time>2022-09-29T10:07:59Z</time>
      </trkpt>
      <trkpt lat="44.43049" lon="5.23982">
        <ele>613</ele>
        <time>2022-09-29T10:08:00Z</time>
      </trkpt>
      <trkpt lat="44.4305" lon="5.23983">
        <ele>613</ele>
        <time>2022-09-29T10:08:01Z</time>
      </trkpt>
      <trkpt lat="44.43051" lon="5.23984">
        <ele>613</ele>
        <time>2022-09-29T10:08:02Z</time>
      </trkpt>
      <trkpt lat="44.43051" lon="5.23985">
        <ele>613</ele>
        <time>2022-09-29T10:08:03Z</time>
      </trkpt>
      <trkpt lat="44.43052" lon="5.23986">
        <ele>613</ele>
        <time>2022-09-29T10:08:04Z</time>
      </trkpt>
      <trkpt lat="44.43053" lon="5.23987">
        <ele>613</ele>
        <time>2022-09-29T10:08:05Z</time>
      </trkpt>
      <trkpt lat="44.43054" lon="5.23988">
        <ele>613</ele>
        <time>2022-09-29T10:08:06Z</time>
      </trkpt>
      <trkpt lat="44.43054" lon="5.23989">
        <ele>613</ele>
        <time>2022-09-29T10:08:07Z</time>
      </trkpt>
      <trkpt lat="44.43055" lon="5.2399">
        <ele>613</ele>
        <time>2022-09-29T10:08:08Z</time>
      </trkpt>
      <trkpt lat="44.43056" lon="5.23991">
        <ele>613</ele>
        <time>2022-09-29T10:08:09Z</time>
      </trkpt>
      <trkpt lat="44.43057" lon="5.23992">
        <ele>613</ele>
        <time>2022-09-29T10:08:10Z</time>
      </trkpt>
      <trkpt lat="44.43057" lon="5.23993">
        <ele>613</ele>
        <time>2022-09-29T10:08:11Z</time>
      </trkpt>
      <trkpt lat="44.43058" lon="5.23994">
        <ele>613</ele>
        <time>2022-09-29T10:08:12Z</time>
      </trkpt>
      <trkpt lat="44.43059" lon="5.23995">
        <ele>614</ele>
        <time>2022-09-29T10:08:13Z</time>
      </trkpt>
      <trkpt lat="44.4306" lon="5.23997">
        <ele>614</ele>
        <time>2022-09-29T10:08:14Z</time>
      </trkpt>
      <trkpt lat="44.4306" lon="5.23998">
        <ele>614</ele>
        <time>2022-09-29T10:08:15Z</time>
      </trkpt>
      <trkpt lat="44.43061" lon="5.23999">
        <ele>614</ele>
        <time>2022-09-29T10:08:16Z</time>
      </trkpt>
      <trkpt lat="44.43062" lon="5.24">
        <ele>614</ele>
        <time>2022-09-29T10:08:17Z</time>
      </trkpt>
      <trkpt lat="44.43062" lon="5.24001">
        <ele>615</ele>
        <time>2022-09-29T10:08:18Z</time>
      </trkpt>
      <trkpt lat="44.43063" lon="5.24002">
        <ele>615</ele>
        <time>2022-09-29T10:08:19Z</time>
      </trkpt>
      <trkpt lat="44.43064" lon="5.24003">
        <ele>615</ele>
        <time>2022-09-29T10:08:20Z</time>
      </trkpt>
      <trkpt lat="44.43064" lon="5.24004">
        <ele>615</ele>
        <time>2022-09-29T10:08:21Z</time>
      </trkpt>
      <trkpt lat="44.43065" lon="5.24005">
        <ele>615</ele>
        <time>2022-09-29T10:08:22Z</time>
      </trkpt>
      <trkpt lat="44.43066" lon="5.24006">
        <ele>615</ele>
        <time>2022-09-29T10:08:23Z</time>
      </trkpt>
      <trkpt lat="44.43066" lon="5.24008">
        <ele>615</ele>
        <time>2022-09-29T10:08:24Z</time>
      </trkpt>
      <trkpt lat="44.43067" lon="5.24009">
        <ele>615</ele>
        <time>2022-09-29T10:08:25Z</time>
      </trkpt>
      <trkpt lat="44.43068" lon="5.2401">
        <ele>615</ele>
        <time>2022-09-29T10:08:26Z</time>
      </trkpt>
      <trkpt lat="44.43068" lon="5.24011">
        <ele>615</ele>
        <time>2022-09-29T10:08:27Z</time>
      </trkpt>
      <trkpt lat="44.43069" lon="5.24012">
        <ele>615</ele>
        <time>2022-09-29T10:08:28Z</time>
      </trkpt>
      <trkpt lat="44.4307" lon="5.24014">
        <ele>615</ele>
        <time>2022-09-29T10:08:29Z</time>
      </trkpt>
      <trkpt lat="44.4307" lon="5.24015">
        <ele>615</ele>
        <time>2022-09-29T10:08:30Z</time>
      </trkpt>
      <trkpt lat="44.43071" lon="5.24016">
        <ele>615</ele>
        <time>2022-09-29T10:08:31Z</time>
      </trkpt>
      <trkpt lat="44.43071" lon="5.24017">
        <ele>615</ele>
        <time>2022-09-29T10:08:32Z</time>
      </trkpt>
      <trkpt lat="44.43072" lon="5.24019">
        <ele>615</ele>
        <time>2022-09-29T10:08:33Z</time>
      </trkpt>
      <trkpt lat="44.43073" lon="5.2402">
        <ele>615</ele>
        <time>2022-09-29T10:08:34Z</time>
      </trkpt>
      <trkpt lat="44.43073" lon="5.24021">
        <ele>615</ele>
        <time>2022-09-29T10:08:35Z</time>
      </trkpt>
      <trkpt lat="44.43074" lon="5.24023">
        <ele>615</ele>
        <time>2022-09-29T10:08:36Z</time>
      </trkpt>
      <trkpt lat="44.43074" lon="5.24024">
        <ele>615</ele>
        <time>2022-09-29T10:08:37Z</time>
      </trkpt>
      <trkpt lat="44.43075" lon="5.24025">
        <ele>615</ele>
        <time>2022-09-29T10:08:38Z</time>
      </trkpt>
      <trkpt lat="44.43076" lon="5.24027">
        <ele>615</ele>
        <time>2022-09-29T10:08:39Z</time>
      </trkpt>
      <trkpt lat="44.43076" lon="5.24028">
        <ele>615</ele>
        <time>2022-09-29T10:08:40Z</time>
      </trkpt>
      <trkpt lat="44.43077" lon="5.24029">
        <ele>615</ele>
        <time>2022-09-29T10:08:41Z</time>
      </trkpt>
      <trkpt lat="44.43077" lon="5.2403">
        <ele>615</ele>
        <time>2022-09-29T10:08:42Z</time>
      </trkpt>
      <trkpt lat="44.43078" lon="5.24031">
        <ele>615</ele>
        <time>2022-09-29T10:08:43Z</time>
      </trkpt>
      <trkpt lat="44.43079" lon="5.24032">
        <ele>615</ele>
        <time>2022-09-29T10:08:44Z</time>
      </trkpt>
      <trkpt lat="44.4308" lon="5.24033">
        <ele>615</ele>
        <time>2022-09-29T10:08:45Z</time>
      </trkpt>
      <trkpt lat="44.4308" lon="5.24035">
        <ele>615</ele>
        <time>2022-09-29T10:08:46Z</time>
      </trkpt>
      <trkpt lat="44.43081" lon="5.24036">
        <ele>615</ele>
        <time>2022-09-29T10:08:47Z</time>
      </trkpt>
      <trkpt lat="44.43082" lon="5.24037">
        <ele>615</ele>
        <time>2022-09-29T10:08:48Z</time>
      </trkpt>
      <trkpt lat="44.43083" lon="5.24038">
        <ele>615</ele>
        <time>2022-09-29T10:08:49Z</time>
      </trkpt>
      <trkpt lat="44.43083" lon="5.24039">
        <ele>615</ele>
        <time>2022-09-29T10:08:50Z</time>
      </trkpt>
      <trkpt lat="44.43084" lon="5.2404">
        <ele>615</ele>
        <time>2022-09-29T10:08:51Z</time>
      </trkpt>
      <trkpt lat="44.43085" lon="5.24041">
        <ele>615</ele>
        <time>2022-09-29T10:08:52Z</time>
      </trkpt>
      <trkpt lat="44.43085" lon="5.24043">
        <ele>615</ele>
        <time>2022-09-29T10:08:53Z</time>
      </trkpt>
      <trkpt lat="44.43086" lon="5.24044">
        <ele>615</ele>
        <time>2022-09-29T10:08:54Z</time>
      </trkpt>
      <trkpt lat="44.43087" lon="5.24045">
        <ele>615</ele>
        <time>2022-09-29T10:08:55Z</time>
      </trkpt>
      <trkpt lat="44.43087" lon="5.24047">
        <ele>615</ele>
        <time>2022-09-29T10:08:56Z</time>
      </trkpt>
      <trkpt lat="44.43088" lon="5.24048">
        <ele>615</ele>
        <time>2022-09-29T10:08:57Z</time>
      </trkpt>
      <trkpt lat="44.43089" lon="5.24049">
        <ele>615</ele>
        <time>2022-09-29T10:08:58Z</time>
      </trkpt>
      <trkpt lat="44.4309" lon="5.2405">
        <ele>615</ele>
        <time>2022-09-29T10:08:59Z</time>
      </trkpt>
      <trkpt lat="44.4309" lon="5.24052">
        <ele>615</ele>
        <time>2022-09-29T10:09:00Z</time>
      </trkpt>
      <trkpt lat="44.43091" lon="5.24053">
        <ele>615</ele>
        <time>2022-09-29T10:09:01Z</time>
      </trkpt>
      <trkpt lat="44.43092" lon="5.24054">
        <ele>615</ele>
        <time>2022-09-29T10:09:02Z</time>
      </trkpt>
      <trkpt lat="44.43092" lon="5.24055">
        <ele>615</ele>
        <time>2022-09-29T10:09:03Z</time>
      </trkpt>
      <trkpt lat="44.43093" lon="5.24057">
        <ele>615</ele>
        <time>2022-09-29T10:09:04Z</time>
      </trkpt>
      <trkpt lat="44.43093" lon="5.24058">
        <ele>615</ele>
        <time>2022-09-29T10:09:05Z</time>
      </trkpt>
      <trkpt lat="44.43094" lon="5.24059">
        <ele>615</ele>
        <time>2022-09-29T10:09:06Z</time>
      </trkpt>
      <trkpt lat="44.43094" lon="5.2406">
        <ele>615</ele>
        <time>2022-09-29T10:09:07Z</time>
      </trkpt>
      <trkpt lat="44.43095" lon="5.24061">
        <ele>615</ele>
        <time>2022-09-29T10:09:08Z</time>
      </trkpt>
      <trkpt lat="44.43095" lon="5.24063">
        <ele>614</ele>
        <time>2022-09-29T10:09:09Z</time>
      </trkpt>
      <trkpt lat="44.43096" lon="5.24064">
        <ele>614</ele>
        <time>2022-09-29T10:09:10Z</time>
      </trkpt>
      <trkpt lat="44.43096" lon="5.24065">
        <ele>614</ele>
        <time>2022-09-29T10:09:11Z</time>
      </trkpt>
      <trkpt lat="44.43097" lon="5.24066">
        <ele>614</ele>
        <time>2022-09-29T10:09:12Z</time>
      </trkpt>
      <trkpt lat="44.43097" lon="5.24067">
        <ele>614</ele>
        <time>2022-09-29T10:09:13Z</time>
      </trkpt>
      <trkpt lat="44.43098" lon="5.24068">
        <ele>614</ele>
        <time>2022-09-29T10:09:14Z</time>
      </trkpt>
      <trkpt lat="44.43099" lon="5.24069">
        <ele>614</ele>
        <time>2022-09-29T10:09:15Z</time>
      </trkpt>
      <trkpt lat="44.431" lon="5.2407">
        <ele>614</ele>
        <time>2022-09-29T10:09:16Z</time>
      </trkpt>
      <trkpt lat="44.431" lon="5.24071">
        <ele>614</ele>
        <time>2022-09-29T10:09:17Z</time>
      </trkpt>
      <trkpt lat="44.43101" lon="5.24072">
        <ele>614</ele>
        <time>2022-09-29T10:09:18Z</time>
      </trkpt>
      <trkpt lat="44.43102" lon="5.24073">
        <ele>614</ele>
        <time>2022-09-29T10:09:19Z</time>
      </trkpt>
      <trkpt lat="44.43103" lon="5.24074">
        <ele>614</ele>
        <time>2022-09-29T10:09:20Z</time>
      </trkpt>
      <trkpt lat="44.43104" lon="5.24074">
        <ele>614</ele>
        <time>2022-09-29T10:09:21Z</time>
      </trkpt>
      <trkpt lat="44.43105" lon="5.24075">
        <ele>614</ele>
        <time>2022-09-29T10:09:22Z</time>
      </trkpt>
      <trkpt lat="44.43105" lon="5.24076">
        <ele>614</ele>
        <time>2022-09-29T10:09:23Z</time>
      </trkpt>
      <trkpt lat="44.43106" lon="5.24077">
        <ele>614</ele>
        <time>2022-09-29T10:09:24Z</time>
      </trkpt>
      <trkpt lat="44.43107" lon="5.24078">
        <ele>614</ele>
        <time>2022-09-29T10:09:25Z</time>
      </trkpt>
      <trkpt lat="44.43107" lon="5.24079">
        <ele>614</ele>
        <time>2022-09-29T10:09:26Z</time>
      </trkpt>
      <trkpt lat="44.43108" lon="5.2408">
        <ele>614</ele>
        <time>2022-09-29T10:09:27Z</time>
      </trkpt>
      <trkpt lat="44.43108" lon="5.2408">
        <ele>614</ele>
        <time>2022-09-29T10:09:28Z</time>
      </trkpt>
      <trkpt lat="44.43109" lon="5.24081">
        <ele>613</ele>
        <time>2022-09-29T10:09:29Z</time>
      </trkpt>
      <trkpt lat="44.43109" lon="5.24082">
        <ele>613</ele>
        <time>2022-09-29T10:09:30Z</time>
      </trkpt>
      <trkpt lat="44.4311" lon="5.24083">
        <ele>613</ele>
        <time>2022-09-29T10:09:31Z</time>
      </trkpt>
      <trkpt lat="44.4311" lon="5.24084">
        <ele>613</ele>
        <time>2022-09-29T10:09:32Z</time>
      </trkpt>
      <trkpt lat="44.43111" lon="5.24084">
        <ele>613</ele>
        <time>2022-09-29T10:09:33Z</time>
      </trkpt>
      <trkpt lat="44.43111" lon="5.24085">
        <ele>613</ele>
        <time>2022-09-29T10:09:34Z</time>
      </trkpt>
      <trkpt lat="44.43112" lon="5.24086">
        <ele>613</ele>
        <time>2022-09-29T10:09:35Z</time>
      </trkpt>
      <trkpt lat="44.43113" lon="5.24087">
        <ele>613</ele>
        <time>2022-09-29T10:09:36Z</time>
      </trkpt>
      <trkpt lat="44.43113" lon="5.24088">
        <ele>613</ele>
        <time>2022-09-29T10:09:37Z</time>
      </trkpt>
      <trkpt lat="44.43114" lon="5.24088">
        <ele>613</ele>
        <time>2022-09-29T10:09:38Z</time>
      </trkpt>
      <trkpt lat="44.43115" lon="5.24089">
        <ele>612</ele>
        <time>2022-09-29T10:09:39Z</time>
      </trkpt>
      <trkpt lat="44.43115" lon="5.2409">
        <ele>612</ele>
        <time>2022-09-29T10:09:40Z</time>
      </trkpt>
      <trkpt lat="44.43116" lon="5.24091">
        <ele>612</ele>
        <time>2022-09-29T10:09:41Z</time>
      </trkpt>
      <trkpt lat="44.43116" lon="5.24092">
        <ele>612</ele>
        <time>2022-09-29T10:09:42Z</time>
      </trkpt>
      <trkpt lat="44.43117" lon="5.24092">
        <ele>612</ele>
        <time>2022-09-29T10:09:43Z</time>
      </trkpt>
      <trkpt lat="44.43117" lon="5.24093">
        <ele>611</ele>
        <time>2022-09-29T10:09:44Z</time>
      </trkpt>
      <trkpt lat="44.43118" lon="5.24094">
        <ele>611</ele>
        <time>2022-09-29T10:09:45Z</time>
      </trkpt>
      <trkpt lat="44.43118" lon="5.24095">
        <ele>611</ele>
        <time>2022-09-29T10:09:46Z</time>
      </trkpt>
      <trkpt lat="44.43119" lon="5.24095">
        <ele>611</ele>
        <time>2022-09-29T10:09:47Z</time>
      </trkpt>
      <trkpt lat="44.43119" lon="5.24096">
        <ele>611</ele>
        <time>2022-09-29T10:09:48Z</time>
      </trkpt>
      <trkpt lat="44.43119" lon="5.24097">
        <ele>611</ele>
        <time>2022-09-29T10:09:49Z</time>
      </trkpt>
      <trkpt lat="44.4312" lon="5.24098">
        <ele>611</ele>
        <time>2022-09-29T10:09:50Z</time>
      </trkpt>
      <trkpt lat="44.4312" lon="5.24098">
        <ele>611</ele>
        <time>2022-09-29T10:09:51Z</time>
      </trkpt>
      <trkpt lat="44.43121" lon="5.24099">
        <ele>611</ele>
        <time>2022-09-29T10:09:52Z</time>
      </trkpt>
      <trkpt lat="44.43121" lon="5.241">
        <ele>611</ele>
        <time>2022-09-29T10:09:53Z</time>
      </trkpt>
      <trkpt lat="44.43122" lon="5.241">
        <ele>610</ele>
        <time>2022-09-29T10:09:54Z</time>
      </trkpt>
      <trkpt lat="44.43123" lon="5.24101">
        <ele>610</ele>
        <time>2022-09-29T10:09:55Z</time>
      </trkpt>
      <trkpt lat="44.43123" lon="5.24102">
        <ele>610</ele>
        <time>2022-09-29T10:09:56Z</time>
      </trkpt>
      <trkpt lat="44.43123" lon="5.24102">
        <ele>610</ele>
        <time>2022-09-29T10:09:57Z</time>
      </trkpt>
      <trkpt lat="44.43124" lon="5.24103">
        <ele>610</ele>
        <time>2022-09-29T10:09:58Z</time>
      </trkpt>
      <trkpt lat="44.43124" lon="5.24104">
        <ele>610</ele>
        <time>2022-09-29T10:09:59Z</time>
      </trkpt>
      <trkpt lat="44.43125" lon="5.24105">
        <ele>610</ele>
        <time>2022-09-29T10:10:00Z</time>
      </trkpt>
      <trkpt lat="44.43125" lon="5.24105">
        <ele>610</ele>
        <time>2022-09-29T10:10:01Z</time>
      </trkpt>
      <trkpt lat="44.43126" lon="5.24106">
        <ele>610</ele>
        <time>2022-09-29T10:10:02Z</time>
      </trkpt>
      <trkpt lat="44.43126" lon="5.24107">
        <ele>610</ele>
        <time>2022-09-29T10:10:03Z</time>
      </trkpt>
      <trkpt lat="44.43126" lon="5.24109">
        <ele>609</ele>
        <time>2022-09-29T10:10:04Z</time>
      </trkpt>
      <trkpt lat="44.43127" lon="5.2411">
        <ele>609</ele>
        <time>2022-09-29T10:10:05Z</time>
      </trkpt>
      <trkpt lat="44.43127" lon="5.24111">
        <ele>609</ele>
        <time>2022-09-29T10:10:06Z</time>
      </trkpt>
      <trkpt lat="44.43127" lon="5.24112">
        <ele>609</ele>
        <time>2022-09-29T10:10:07Z</time>
      </trkpt>
      <trkpt lat="44.43127" lon="5.24113">
        <ele>609</ele>
        <time>2022-09-29T10:10:08Z</time>
      </trkpt>
      <trkpt lat="44.43127" lon="5.24114">
        <ele>608</ele>
        <time>2022-09-29T10:10:09Z</time>
      </trkpt>
      <trkpt lat="44.43127" lon="5.24115">
        <ele>608</ele>
        <time>2022-09-29T10:10:10Z</time>
      </trkpt>
      <trkpt lat="44.43128" lon="5.24116">
        <ele>608</ele>
        <time>2022-09-29T10:10:11Z</time>
      </trkpt>
      <trkpt lat="44.43128" lon="5.24117">
        <ele>608</ele>
        <time>2022-09-29T10:10:12Z</time>
      </trkpt>
      <trkpt lat="44.43128" lon="5.24119">
        <ele>608</ele>
        <time>2022-09-29T10:10:13Z</time>
      </trkpt>
      <trkpt lat="44.43128" lon="5.24119">
        <ele>607</ele>
        <time>2022-09-29T10:10:14Z</time>
      </trkpt>
      <trkpt lat="44.43128" lon="5.2412">
        <ele>607</ele>
        <time>2022-09-29T10:10:15Z</time>
      </trkpt>
      <trkpt lat="44.43129" lon="5.24121">
        <ele>607</ele>
        <time>2022-09-29T10:10:16Z</time>
      </trkpt>
      <trkpt lat="44.43129" lon="5.24122">
        <ele>607</ele>
        <time>2022-09-29T10:10:17Z</time>
      </trkpt>
      <trkpt lat="44.4313" lon="5.24123">
        <ele>607</ele>
        <time>2022-09-29T10:10:18Z</time>
      </trkpt>
      <trkpt lat="44.4313" lon="5.24124">
        <ele>606</ele>
        <time>2022-09-29T10:10:19Z</time>
      </trkpt>
      <trkpt lat="44.43131" lon="5.24125">
        <ele>606</ele>
        <time>2022-09-29T10:10:20Z</time>
      </trkpt>
      <trkpt lat="44.43131" lon="5.24126">
        <ele>606</ele>
        <time>2022-09-29T10:10:21Z</time>
      </trkpt>
      <trkpt lat="44.43132" lon="5.24126">
        <ele>606</ele>
        <time>2022-09-29T10:10:22Z</time>
      </trkpt>
      <trkpt lat="44.43132" lon="5.24127">
        <ele>606</ele>
        <time>2022-09-29T10:10:23Z</time>
      </trkpt>
      <trkpt lat="44.43133" lon="5.24128">
        <ele>605</ele>
        <time>2022-09-29T10:10:24Z</time>
      </trkpt>
      <trkpt lat="44.43133" lon="5.24129">
        <ele>605</ele>
        <time>2022-09-29T10:10:25Z</time>
      </trkpt>
      <trkpt lat="44.43134" lon="5.2413">
        <ele>605</ele>
        <time>2022-09-29T10:10:26Z</time>
      </trkpt>
      <trkpt lat="44.43134" lon="5.24131">
        <ele>605</ele>
        <time>2022-09-29T10:10:27Z</time>
      </trkpt>
      <trkpt lat="44.43134" lon="5.24132">
        <ele>605</ele>
        <time>2022-09-29T10:10:28Z</time>
      </trkpt>
      <trkpt lat="44.43135" lon="5.24133">
        <ele>604</ele>
        <time>2022-09-29T10:10:29Z</time>
      </trkpt>
      <trkpt lat="44.43135" lon="5.24134">
        <ele>604</ele>
        <time>2022-09-29T10:10:30Z</time>
      </trkpt>
      <trkpt lat="44.43136" lon="5.24135">
        <ele>604</ele>
        <time>2022-09-29T10:10:31Z</time>
      </trkpt>
      <trkpt lat="44.43136" lon="5.24136">
        <ele>604</ele>
        <time>2022-09-29T10:10:32Z</time>
      </trkpt>
      <trkpt lat="44.43137" lon="5.24137">
        <ele>604</ele>
        <time>2022-09-29T10:10:33Z</time>
      </trkpt>
      <trkpt lat="44.43137" lon="5.24138">
        <ele>603</ele>
        <time>2022-09-29T10:10:34Z</time>
      </trkpt>
      <trkpt lat="44.43138" lon="5.24139">
        <ele>603</ele>
        <time>2022-09-29T10:10:35Z</time>
      </trkpt>
      <trkpt lat="44.43138" lon="5.2414">
        <ele>603</ele>
        <time>2022-09-29T10:10:36Z</time>
      </trkpt>
      <trkpt lat="44.43139" lon="5.24141">
        <ele>603</ele>
        <time>2022-09-29T10:10:37Z</time>
      </trkpt>
      <trkpt lat="44.43139" lon="5.24142">
        <ele>603</ele>
        <time>2022-09-29T10:10:38Z</time>
      </trkpt>
      <trkpt lat="44.4314" lon="5.24143">
        <ele>602</ele>
        <time>2022-09-29T10:10:39Z</time>
      </trkpt>
      <trkpt lat="44.4314" lon="5.24144">
        <ele>602</ele>
        <time>2022-09-29T10:10:40Z</time>
      </trkpt>
      <trkpt lat="44.43141" lon="5.24145">
        <ele>602</ele>
        <time>2022-09-29T10:10:41Z</time>
      </trkpt>
      <trkpt lat="44.43141" lon="5.24146">
        <ele>602</ele>
        <time>2022-09-29T10:10:42Z</time>
      </trkpt>
      <trkpt lat="44.43142" lon="5.24147">
        <ele>602</ele>
        <time>2022-09-29T10:10:43Z</time>
      </trkpt>
      <trkpt lat="44.43142" lon="5.24148">
        <ele>601</ele>
        <time>2022-09-29T10:10:44Z</time>
      </trkpt>
      <trkpt lat="44.43142" lon="5.24149">
        <ele>601</ele>
        <time>2022-09-29T10:10:45Z</time>
      </trkpt>
      <trkpt lat="44.43143" lon="5.2415">
        <ele>601</ele>
        <time>2022-09-29T10:10:46Z</time>
      </trkpt>
      <trkpt lat="44.43144" lon="5.24151">
        <ele>601</ele>
        <time>2022-09-29T10:10:47Z</time>
      </trkpt>
      <trkpt lat="44.43144" lon="5.24152">
        <ele>601</ele>
        <time>2022-09-29T10:10:48Z</time>
      </trkpt>
      <trkpt lat="44.43145" lon="5.24153">
        <ele>600</ele>
        <time>2022-09-29T10:10:49Z</time>
      </trkpt>
      <trkpt lat="44.43146" lon="5.24154">
        <ele>600</ele>
        <time>2022-09-29T10:10:50Z</time>
      </trkpt>
      <trkpt lat="44.43146" lon="5.24155">
        <ele>600</ele>
        <time>2022-09-29T10:10:51Z</time>
      </trkpt>
      <trkpt lat="44.43147" lon="5.24155">
        <ele>600</ele>
        <time>2022-09-29T10:10:52Z</time>
      </trkpt>
      <trkpt lat="44.43148" lon="5.24156">
        <ele>600</ele>
        <time>2022-09-29T10:10:53Z</time>
      </trkpt>
      <trkpt lat="44.43148" lon="5.24157">
        <ele>600</ele>
        <time>2022-09-29T10:10:54Z</time>
      </trkpt>
      <trkpt lat="44.43149" lon="5.24158">
        <ele>600</ele>
        <time>2022-09-29T10:10:55Z</time>
      </trkpt>
      <trkpt lat="44.4315" lon="5.24159">
        <ele>600</ele>
        <time>2022-09-29T10:10:56Z</time>
      </trkpt>
      <trkpt lat="44.4315" lon="5.2416">
        <ele>600</ele>
        <time>2022-09-29T10:10:57Z</time>
      </trkpt>
      <trkpt lat="44.4315" lon="5.24161">
        <ele>600</ele>
        <time>2022-09-29T10:10:58Z</time>
      </trkpt>
      <trkpt lat="44.43151" lon="5.24162">
        <ele>599</ele>
        <time>2022-09-29T10:10:59Z</time>
      </trkpt>
      <trkpt lat="44.43151" lon="5.24163">
        <ele>599</ele>
        <time>2022-09-29T10:11:00Z</time>
      </trkpt>
      <trkpt lat="44.43151" lon="5.24164">
        <ele>599</ele>
        <time>2022-09-29T10:11:01Z</time>
      </trkpt>
      <trkpt lat="44.43152" lon="5.24165">
        <ele>599</ele>
        <time>2022-09-29T10:11:02Z</time>
      </trkpt>
      <trkpt lat="44.43152" lon="5.24166">
        <ele>599</ele>
        <time>2022-09-29T10:11:03Z</time>
      </trkpt>
      <trkpt lat="44.43152" lon="5.24167">
        <ele>598</ele>
        <time>2022-09-29T10:11:04Z</time>
      </trkpt>
      <trkpt lat="44.43153" lon="5.24168">
        <ele>598</ele>
        <time>2022-09-29T10:11:05Z</time>
      </trkpt>
      <trkpt lat="44.43153" lon="5.24169">
        <ele>598</ele>
        <time>2022-09-29T10:11:06Z</time>
      </trkpt>
      <trkpt lat="44.43153" lon="5.24171">
        <ele>598</ele>
        <time>2022-09-29T10:11:07Z</time>
      </trkpt>
      <trkpt lat="44.43153" lon="5.24172">
        <ele>598</ele>
        <time>2022-09-29T10:11:08Z</time>
      </trkpt>
      <trkpt lat="44.43153" lon="5.24173">
        <ele>597</ele>
        <time>2022-09-29T10:11:09Z</time>
      </trkpt>
      <trkpt lat="44.43153" lon="5.24174">
        <ele>597</ele>
        <time>2022-09-29T10:11:10Z</time>
      </trkpt>
      <trkpt lat="44.43154" lon="5.24175">
        <ele>597</ele>
        <time>2022-09-29T10:11:11Z</time>
      </trkpt>
      <trkpt lat="44.43154" lon="5.24176">
        <ele>597</ele>
        <time>2022-09-29T10:11:12Z</time>
      </trkpt>
      <trkpt lat="44.43154" lon="5.24177">
        <ele>597</ele>
        <time>2022-09-29T10:11:13Z</time>
      </trkpt>
      <trkpt lat="44.43154" lon="5.24178">
        <ele>596</ele>
        <time>2022-09-29T10:11:14Z</time>
      </trkpt>
      <trkpt lat="44.43155" lon="5.24179">
        <ele>596</ele>
        <time>2022-09-29T10:11:15Z</time>
      </trkpt>
      <trkpt lat="44.43155" lon="5.2418">
        <ele>596</ele>
        <time>2022-09-29T10:11:16Z</time>
      </trkpt>
      <trkpt lat="44.43155" lon="5.24181">
        <ele>596</ele>
        <time>2022-09-29T10:11:17Z</time>
      </trkpt>
      <trkpt lat="44.43155" lon="5.24182">
        <ele>596</ele>
        <time>2022-09-29T10:11:18Z</time>
      </trkpt>
      <trkpt lat="44.43156" lon="5.24183">
        <ele>595</ele>
        <time>2022-09-29T10:11:19Z</time>
      </trkpt>
      <trkpt lat="44.43156" lon="5.24184">
        <ele>595</ele>
        <time>2022-09-29T10:11:20Z</time>
      </trkpt>
      <trkpt lat="44.43157" lon="5.24185">
        <ele>595</ele>
        <time>2022-09-29T10:11:21Z</time>
      </trkpt>
      <trkpt lat="44.43157" lon="5.24186">
        <ele>595</ele>
        <time>2022-09-29T10:11:22Z</time>
      </trkpt>
      <trkpt lat="44.43157" lon="5.24187">
        <ele>595</ele>
        <time>2022-09-29T10:11:23Z</time>
      </trkpt>
      <trkpt lat="44.43158" lon="5.24188">
        <ele>595</ele>
        <time>2022-09-29T10:11:24Z</time>
      </trkpt>
      <trkpt lat="44.43158" lon="5.2419">
        <ele>595</ele>
        <time>2022-09-29T10:11:25Z</time>
      </trkpt>
      <trkpt lat="44.43159" lon="5.24191">
        <ele>595</ele>
        <time>2022-09-29T10:11:26Z</time>
      </trkpt>
      <trkpt lat="44.43159" lon="5.24192">
        <ele>595</ele>
        <time>2022-09-29T10:11:27Z</time>
      </trkpt>
      <trkpt lat="44.4316" lon="5.24192">
        <ele>595</ele>
        <time>2022-09-29T10:11:28Z</time>
      </trkpt>
      <trkpt lat="44.43161" lon="5.24193">
        <ele>594</ele>
        <time>2022-09-29T10:11:29Z</time>
      </trkpt>
      <trkpt lat="44.43161" lon="5.24194">
        <ele>594</ele>
        <time>2022-09-29T10:11:30Z</time>
      </trkpt>
      <trkpt lat="44.43162" lon="5.24195">
        <ele>594</ele>
        <time>2022-09-29T10:11:31Z</time>
      </trkpt>
      <trkpt lat="44.43163" lon="5.24196">
        <ele>594</ele>
        <time>2022-09-29T10:11:32Z</time>
      </trkpt>
      <trkpt lat="44.43164" lon="5.24196">
        <ele>594</ele>
        <time>2022-09-29T10:11:33Z</time>
      </trkpt>
      <trkpt lat="44.43165" lon="5.24197">
        <ele>593</ele>
        <time>2022-09-29T10:11:34Z</time>
      </trkpt>
      <trkpt lat="44.43166" lon="5.24198">
        <ele>593</ele>
        <time>2022-09-29T10:11:35Z</time>
      </trkpt>
      <trkpt lat="44.43167" lon="5.24198">
        <ele>593</ele>
        <time>2022-09-29T10:11:36Z</time>
      </trkpt>
      <trkpt lat="44.43168" lon="5.24199">
        <ele>593</ele>
        <time>2022-09-29T10:11:37Z</time>
      </trkpt>
      <trkpt lat="44.43169" lon="5.24199">
        <ele>593</ele>
        <time>2022-09-29T10:11:38Z</time>
      </trkpt>
      <trkpt lat="44.43169" lon="5.242">
        <ele>593</ele>
        <time>2022-09-29T10:11:39Z</time>
      </trkpt>
      <trkpt lat="44.4317" lon="5.242">
        <ele>593</ele>
        <time>2022-09-29T10:11:40Z</time>
      </trkpt>
      <trkpt lat="44.43171" lon="5.242">
        <ele>593</ele>
        <time>2022-09-29T10:11:41Z</time>
      </trkpt>
      <trkpt lat="44.43172" lon="5.242">
        <ele>593</ele>
        <time>2022-09-29T10:11:42Z</time>
      </trkpt>
      <trkpt lat="44.43173" lon="5.24201">
        <ele>593</ele>
        <time>2022-09-29T10:11:43Z</time>
      </trkpt>
      <trkpt lat="44.43174" lon="5.24201">
        <ele>592</ele>
        <time>2022-09-29T10:11:44Z</time>
      </trkpt>
      <trkpt lat="44.43174" lon="5.24201">
        <ele>592</ele>
        <time>2022-09-29T10:11:45Z</time>
      </trkpt>
      <trkpt lat="44.43175" lon="5.24202">
        <ele>592</ele>
        <time>2022-09-29T10:11:46Z</time>
      </trkpt>
      <trkpt lat="44.43176" lon="5.24203">
        <ele>592</ele>
        <time>2022-09-29T10:11:47Z</time>
      </trkpt>
      <trkpt lat="44.43176" lon="5.24203">
        <ele>592</ele>
        <time>2022-09-29T10:11:48Z</time>
      </trkpt>
      <trkpt lat="44.43177" lon="5.24204">
        <ele>592</ele>
        <time>2022-09-29T10:11:49Z</time>
      </trkpt>
      <trkpt lat="44.43178" lon="5.24204">
        <ele>592</ele>
        <time>2022-09-29T10:11:50Z</time>
      </trkpt>
      <trkpt lat="44.43178" lon="5.24205">
        <ele>592</ele>
        <time>2022-09-29T10:11:51Z</time>
      </trkpt>
      <trkpt lat="44.43179" lon="5.24205">
        <ele>592</ele>
        <time>2022-09-29T10:11:52Z</time>
      </trkpt>
      <trkpt lat="44.4318" lon="5.24206">
        <ele>592</ele>
        <time>2022-09-29T10:11:53Z</time>
      </trkpt>
      <trkpt lat="44.43181" lon="5.24206">
        <ele>591</ele>
        <time>2022-09-29T10:11:54Z</time>
      </trkpt>
      <trkpt lat="44.43182" lon="5.24207">
        <ele>591</ele>
        <time>2022-09-29T10:11:55Z</time>
      </trkpt>
      <trkpt lat="44.43183" lon="5.24207">
        <ele>591</ele>
        <time>2022-09-29T10:11:56Z</time>
      </trkpt>
      <trkpt lat="44.43184" lon="5.24208">
        <ele>591</ele>
        <time>2022-09-29T10:11:57Z</time>
      </trkpt>
      <trkpt lat="44.43185" lon="5.24208">
        <ele>591</ele>
        <time>2022-09-29T10:11:58Z</time>
      </trkpt>
      <trkpt lat="44.43185" lon="5.24209">
        <ele>590</ele>
        <time>2022-09-29T10:11:59Z</time>
      </trkpt>
      <trkpt lat="44.43186" lon="5.24209">
        <ele>590</ele>
        <time>2022-09-29T10:12:00Z</time>
      </trkpt>
      <trkpt lat="44.43187" lon="5.2421">
        <ele>590</ele>
        <time>2022-09-29T10:12:01Z</time>
      </trkpt>
      <trkpt lat="44.43188" lon="5.2421">
        <ele>590</ele>
        <time>2022-09-29T10:12:02Z</time>
      </trkpt>
      <trkpt lat="44.43189" lon="5.2421">
        <ele>590</ele>
        <time>2022-09-29T10:12:03Z</time>
      </trkpt>
      <trkpt lat="44.4319" lon="5.24211">
        <ele>589</ele>
        <time>2022-09-29T10:12:04Z</time>
      </trkpt>
      <trkpt lat="44.43191" lon="5.24212">
        <ele>589</ele>
        <time>2022-09-29T10:12:05Z</time>
      </trkpt>
      <trkpt lat="44.43192" lon="5.24212">
        <ele>589</ele>
        <time>2022-09-29T10:12:06Z</time>
      </trkpt>
      <trkpt lat="44.43193" lon="5.24213">
        <ele>589</ele>
        <time>2022-09-29T10:12:07Z</time>
      </trkpt>
      <trkpt lat="44.43193" lon="5.24214">
        <ele>589</ele>
        <time>2022-09-29T10:12:08Z</time>
      </trkpt>
      <trkpt lat="44.43194" lon="5.24215">
        <ele>589</ele>
        <time>2022-09-29T10:12:09Z</time>
      </trkpt>
      <trkpt lat="44.43195" lon="5.24216">
        <ele>589</ele>
        <time>2022-09-29T10:12:10Z</time>
      </trkpt>
      <trkpt lat="44.43195" lon="5.24216">
        <ele>589</ele>
        <time>2022-09-29T10:12:11Z</time>
      </trkpt>
      <trkpt lat="44.43196" lon="5.24217">
        <ele>589</ele>
        <time>2022-09-29T10:12:12Z</time>
      </trkpt>
      <trkpt lat="44.43196" lon="5.24218">
        <ele>589</ele>
        <time>2022-09-29T10:12:13Z</time>
      </trkpt>
      <trkpt lat="44.43197" lon="5.24218">
        <ele>588</ele>
        <time>2022-09-29T10:12:14Z</time>
      </trkpt>
      <trkpt lat="44.43198" lon="5.24219">
        <ele>588</ele>
        <time>2022-09-29T10:12:15Z</time>
      </trkpt>
      <trkpt lat="44.43198" lon="5.2422">
        <ele>587</ele>
        <time>2022-09-29T10:12:24Z</time>
      </trkpt>
      <trkpt lat="44.43199" lon="5.2422">
        <ele>587</ele>
        <time>2022-09-29T10:12:25Z</time>
      </trkpt>
      <trkpt lat="44.432" lon="5.24221">
        <ele>587</ele>
        <time>2022-09-29T10:12:26Z</time>
      </trkpt>
      <trkpt lat="44.432" lon="5.24221">
        <ele>587</ele>
        <time>2022-09-29T10:12:27Z</time>
      </trkpt>
      <trkpt lat="44.43201" lon="5.24222">
        <ele>587</ele>
        <time>2022-09-29T10:12:28Z</time>
      </trkpt>
      <trkpt lat="44.43202" lon="5.24222">
        <ele>587</ele>
        <time>2022-09-29T10:12:29Z</time>
      </trkpt>
      <trkpt lat="44.43203" lon="5.24223">
        <ele>587</ele>
        <time>2022-09-29T10:12:30Z</time>
      </trkpt>
      <trkpt lat="44.43204" lon="5.24223">
        <ele>587</ele>
        <time>2022-09-29T10:12:31Z</time>
      </trkpt>
      <trkpt lat="44.43204" lon="5.24224">
        <ele>587</ele>
        <time>2022-09-29T10:12:32Z</time>
      </trkpt>
      <trkpt lat="44.43205" lon="5.24224">
        <ele>587</ele>
        <time>2022-09-29T10:12:33Z</time>
      </trkpt>
      <trkpt lat="44.43206" lon="5.24225">
        <ele>586</ele>
        <time>2022-09-29T10:12:34Z</time>
      </trkpt>
      <trkpt lat="44.43207" lon="5.24225">
        <ele>586</ele>
        <time>2022-09-29T10:12:35Z</time>
      </trkpt>
      <trkpt lat="44.43208" lon="5.24226">
        <ele>586</ele>
        <time>2022-09-29T10:12:36Z</time>
      </trkpt>
      <trkpt lat="44.43208" lon="5.24226">
        <ele>586</ele>
        <time>2022-09-29T10:12:37Z</time>
      </trkpt>
      <trkpt lat="44.43209" lon="5.24227">
        <ele>586</ele>
        <time>2022-09-29T10:12:38Z</time>
      </trkpt>
      <trkpt lat="44.4321" lon="5.24227">
        <ele>585</ele>
        <time>2022-09-29T10:12:39Z</time>
      </trkpt>
      <trkpt lat="44.43211" lon="5.24227">
        <ele>585</ele>
        <time>2022-09-29T10:12:40Z</time>
      </trkpt>
      <trkpt lat="44.43211" lon="5.24228">
        <ele>585</ele>
        <time>2022-09-29T10:12:41Z</time>
      </trkpt>
      <trkpt lat="44.43212" lon="5.24229">
        <ele>585</ele>
        <time>2022-09-29T10:12:42Z</time>
      </trkpt>
      <trkpt lat="44.43212" lon="5.24229">
        <ele>585</ele>
        <time>2022-09-29T10:12:43Z</time>
      </trkpt>
      <trkpt lat="44.43213" lon="5.2423">
        <ele>584</ele>
        <time>2022-09-29T10:12:44Z</time>
      </trkpt>
      <trkpt lat="44.43213" lon="5.2423">
        <ele>584</ele>
        <time>2022-09-29T10:12:45Z</time>
      </trkpt>
      <trkpt lat="44.43214" lon="5.2423">
        <ele>584</ele>
        <time>2022-09-29T10:12:46Z</time>
      </trkpt>
      <trkpt lat="44.43215" lon="5.24231">
        <ele>584</ele>
        <time>2022-09-29T10:12:47Z</time>
      </trkpt>
      <trkpt lat="44.43215" lon="5.24231">
        <ele>584</ele>
        <time>2022-09-29T10:12:48Z</time>
      </trkpt>
      <trkpt lat="44.43216" lon="5.24231">
        <ele>583</ele>
        <time>2022-09-29T10:12:49Z</time>
      </trkpt>
      <trkpt lat="44.43216" lon="5.24231">
        <ele>583</ele>
        <time>2022-09-29T10:12:50Z</time>
      </trkpt>
      <trkpt lat="44.43217" lon="5.24232">
        <ele>583</ele>
        <time>2022-09-29T10:12:51Z</time>
      </trkpt>
      <trkpt lat="44.43218" lon="5.24232">
        <ele>583</ele>
        <time>2022-09-29T10:12:52Z</time>
      </trkpt>
      <trkpt lat="44.43219" lon="5.24233">
        <ele>583</ele>
        <time>2022-09-29T10:12:53Z</time>
      </trkpt>
      <trkpt lat="44.43219" lon="5.24234">
        <ele>582</ele>
        <time>2022-09-29T10:12:54Z</time>
      </trkpt>
      <trkpt lat="44.4322" lon="5.24235">
        <ele>582</ele>
        <time>2022-09-29T10:12:55Z</time>
      </trkpt>
      <trkpt lat="44.4322" lon="5.24236">
        <ele>582</ele>
        <time>2022-09-29T10:12:56Z</time>
      </trkpt>
      <trkpt lat="44.43221" lon="5.24237">
        <ele>582</ele>
        <time>2022-09-29T10:12:57Z</time>
      </trkpt>
      <trkpt lat="44.43221" lon="5.24238">
        <ele>582</ele>
        <time>2022-09-29T10:12:58Z</time>
      </trkpt>
      <trkpt lat="44.43222" lon="5.24239">
        <ele>582</ele>
        <time>2022-09-29T10:12:59Z</time>
      </trkpt>
      <trkpt lat="44.43222" lon="5.24241">
        <ele>582</ele>
        <time>2022-09-29T10:13:00Z</time>
      </trkpt>
      <trkpt lat="44.43222" lon="5.24242">
        <ele>582</ele>
        <time>2022-09-29T10:13:01Z</time>
      </trkpt>
      <trkpt lat="44.43222" lon="5.24244">
        <ele>582</ele>
        <time>2022-09-29T10:13:02Z</time>
      </trkpt>
      <trkpt lat="44.43222" lon="5.24245">
        <ele>582</ele>
        <time>2022-09-29T10:13:03Z</time>
      </trkpt>
      <trkpt lat="44.43222" lon="5.24246">
        <ele>581</ele>
        <time>2022-09-29T10:13:04Z</time>
      </trkpt>
      <trkpt lat="44.43222" lon="5.24248">
        <ele>581</ele>
        <time>2022-09-29T10:13:05Z</time>
      </trkpt>
      <trkpt lat="44.43222" lon="5.24249">
        <ele>581</ele>
        <time>2022-09-29T10:13:06Z</time>
      </trkpt>
      <trkpt lat="44.43222" lon="5.24251">
        <ele>581</ele>
        <time>2022-09-29T10:13:07Z</time>
      </trkpt>
      <trkpt lat="44.43221" lon="5.24252">
        <ele>581</ele>
        <time>2022-09-29T10:13:08Z</time>
      </trkpt>
      <trkpt lat="44.43221" lon="5.24253">
        <ele>581</ele>
        <time>2022-09-29T10:13:09Z</time>
      </trkpt>
      <trkpt lat="44.43221" lon="5.24255">
        <ele>581</ele>
        <time>2022-09-29T10:13:10Z</time>
      </trkpt>
      <trkpt lat="44.43221" lon="5.24256">
        <ele>581</ele>
        <time>2022-09-29T10:13:11Z</time>
      </trkpt>
      <trkpt lat="44.4322" lon="5.24258">
        <ele>581</ele>
        <time>2022-09-29T10:13:12Z</time>
      </trkpt>
      <trkpt lat="44.4322" lon="5.24259">
        <ele>581</ele>
        <time>2022-09-29T10:13:13Z</time>
      </trkpt>
      <trkpt lat="44.4322" lon="5.24261">
        <ele>581</ele>
        <time>2022-09-29T10:13:14Z</time>
      </trkpt>
      <trkpt lat="44.43219" lon="5.24262">
        <ele>581</ele>
        <time>2022-09-29T10:13:15Z</time>
      </trkpt>
      <trkpt lat="44.43219" lon="5.24263">
        <ele>581</ele>
        <time>2022-09-29T10:13:16Z</time>
      </trkpt>
      <trkpt lat="44.43218" lon="5.24264">
        <ele>581</ele>
        <time>2022-09-29T10:13:17Z</time>
      </trkpt>
      <trkpt lat="44.43217" lon="5.24265">
        <ele>581</ele>
        <time>2022-09-29T10:13:18Z</time>
      </trkpt>
      <trkpt lat="44.43217" lon="5.24265">
        <ele>581</ele>
        <time>2022-09-29T10:13:19Z</time>
      </trkpt>
      <trkpt lat="44.43216" lon="5.24266">
        <ele>581</ele>
        <time>2022-09-29T10:13:20Z</time>
      </trkpt>
      <trkpt lat="44.43216" lon="5.24267">
        <ele>581</ele>
        <time>2022-09-29T10:13:21Z</time>
      </trkpt>
      <trkpt lat="44.43215" lon="5.24268">
        <ele>581</ele>
        <time>2022-09-29T10:13:22Z</time>
      </trkpt>
      <trkpt lat="44.43215" lon="5.24269">
        <ele>581</ele>
        <time>2022-09-29T10:13:23Z</time>
      </trkpt>
      <trkpt lat="44.43214" lon="5.2427">
        <ele>581</ele>
        <time>2022-09-29T10:13:24Z</time>
      </trkpt>
      <trkpt lat="44.43214" lon="5.2427">
        <ele>581</ele>
        <time>2022-09-29T10:13:25Z</time>
      </trkpt>
      <trkpt lat="44.43213" lon="5.24271">
        <ele>581</ele>
        <time>2022-09-29T10:13:26Z</time>
      </trkpt>
      <trkpt lat="44.43213" lon="5.24272">
        <ele>581</ele>
        <time>2022-09-29T10:13:27Z</time>
      </trkpt>
      <trkpt lat="44.43212" lon="5.24273">
        <ele>582</ele>
        <time>2022-09-29T10:13:28Z</time>
      </trkpt>
      <trkpt lat="44.43212" lon="5.24274">
        <ele>582</ele>
        <time>2022-09-29T10:13:29Z</time>
      </trkpt>
      <trkpt lat="44.43211" lon="5.24274">
        <ele>582</ele>
        <time>2022-09-29T10:13:30Z</time>
      </trkpt>
      <trkpt lat="44.43211" lon="5.24275">
        <ele>582</ele>
        <time>2022-09-29T10:13:31Z</time>
      </trkpt>
      <trkpt lat="44.4321" lon="5.24276">
        <ele>582</ele>
        <time>2022-09-29T10:13:32Z</time>
      </trkpt>
      <trkpt lat="44.4321" lon="5.24277">
        <ele>582</ele>
        <time>2022-09-29T10:13:33Z</time>
      </trkpt>
      <trkpt lat="44.43209" lon="5.24277">
        <ele>582</ele>
        <time>2022-09-29T10:13:34Z</time>
      </trkpt>
      <trkpt lat="44.43209" lon="5.24278">
        <ele>582</ele>
        <time>2022-09-29T10:13:35Z</time>
      </trkpt>
      <trkpt lat="44.43208" lon="5.24279">
        <ele>582</ele>
        <time>2022-09-29T10:13:36Z</time>
      </trkpt>
      <trkpt lat="44.43208" lon="5.24279">
        <ele>582</ele>
        <time>2022-09-29T10:13:37Z</time>
      </trkpt>
      <trkpt lat="44.43207" lon="5.2428">
        <ele>583</ele>
        <time>2022-09-29T10:13:38Z</time>
      </trkpt>
      <trkpt lat="44.43206" lon="5.2428">
        <ele>583</ele>
        <time>2022-09-29T10:13:39Z</time>
      </trkpt>
      <trkpt lat="44.43206" lon="5.24281">
        <ele>583</ele>
        <time>2022-09-29T10:13:40Z</time>
      </trkpt>
      <trkpt lat="44.43205" lon="5.24282">
        <ele>583</ele>
        <time>2022-09-29T10:13:41Z</time>
      </trkpt>
      <trkpt lat="44.43204" lon="5.24283">
        <ele>583</ele>
        <time>2022-09-29T10:13:42Z</time>
      </trkpt>
      <trkpt lat="44.43204" lon="5.24283">
        <ele>583</ele>
        <time>2022-09-29T10:13:43Z</time>
      </trkpt>
      <trkpt lat="44.43203" lon="5.24284">
        <ele>583</ele>
        <time>2022-09-29T10:13:44Z</time>
      </trkpt>
      <trkpt lat="44.43203" lon="5.24285">
        <ele>583</ele>
        <time>2022-09-29T10:13:45Z</time>
      </trkpt>
      <trkpt lat="44.43202" lon="5.24286">
        <ele>583</ele>
        <time>2022-09-29T10:13:46Z</time>
      </trkpt>
      <trkpt lat="44.43202" lon="5.24287">
        <ele>583</ele>
        <time>2022-09-29T10:13:47Z</time>
      </trkpt>
      <trkpt lat="44.43201" lon="5.24288">
        <ele>584</ele>
        <time>2022-09-29T10:13:48Z</time>
      </trkpt>
      <trkpt lat="44.43201" lon="5.24289">
        <ele>584</ele>
        <time>2022-09-29T10:13:49Z</time>
      </trkpt>
      <trkpt lat="44.432" lon="5.2429">
        <ele>584</ele>
        <time>2022-09-29T10:13:50Z</time>
      </trkpt>
      <trkpt lat="44.432" lon="5.24291">
        <ele>584</ele>
        <time>2022-09-29T10:13:51Z</time>
      </trkpt>
      <trkpt lat="44.43199" lon="5.24292">
        <ele>584</ele>
        <time>2022-09-29T10:13:52Z</time>
      </trkpt>
      <trkpt lat="44.43199" lon="5.24293">
        <ele>584</ele>
        <time>2022-09-29T10:13:53Z</time>
      </trkpt>
      <trkpt lat="44.43199" lon="5.24294">
        <ele>584</ele>
        <time>2022-09-29T10:13:54Z</time>
      </trkpt>
      <trkpt lat="44.43198" lon="5.24295">
        <ele>584</ele>
        <time>2022-09-29T10:13:55Z</time>
      </trkpt>
      <trkpt lat="44.43198" lon="5.24295">
        <ele>584</ele>
        <time>2022-09-29T10:13:56Z</time>
      </trkpt>
      <trkpt lat="44.43198" lon="5.24296">
        <ele>584</ele>
        <time>2022-09-29T10:13:57Z</time>
      </trkpt>
      <trkpt lat="44.43197" lon="5.24297">
        <ele>585</ele>
        <time>2022-09-29T10:13:58Z</time>
      </trkpt>
      <trkpt lat="44.43196" lon="5.24298">
        <ele>585</ele>
        <time>2022-09-29T10:13:59Z</time>
      </trkpt>
      <trkpt lat="44.43196" lon="5.24298">
        <ele>585</ele>
        <time>2022-09-29T10:14:00Z</time>
      </trkpt>
      <trkpt lat="44.43196" lon="5.24299">
        <ele>585</ele>
        <time>2022-09-29T10:14:01Z</time>
      </trkpt>
      <trkpt lat="44.43195" lon="5.243">
        <ele>585</ele>
        <time>2022-09-29T10:14:02Z</time>
      </trkpt>
      <trkpt lat="44.43195" lon="5.24301">
        <ele>585</ele>
        <time>2022-09-29T10:14:03Z</time>
      </trkpt>
      <trkpt lat="44.43194" lon="5.24302">
        <ele>585</ele>
        <time>2022-09-29T10:14:04Z</time>
      </trkpt>
      <trkpt lat="44.43194" lon="5.24303">
        <ele>585</ele>
        <time>2022-09-29T10:14:05Z</time>
      </trkpt>
      <trkpt lat="44.43193" lon="5.24304">
        <ele>585</ele>
        <time>2022-09-29T10:14:06Z</time>
      </trkpt>
      <trkpt lat="44.43193" lon="5.24305">
        <ele>585</ele>
        <time>2022-09-29T10:14:07Z</time>
      </trkpt>
      <trkpt lat="44.43192" lon="5.24306">
        <ele>586</ele>
        <time>2022-09-29T10:14:08Z</time>
      </trkpt>
      <trkpt lat="44.43192" lon="5.24307">
        <ele>586</ele>
        <time>2022-09-29T10:14:09Z</time>
      </trkpt>
      <trkpt lat="44.43191" lon="5.24307">
        <ele>586</ele>
        <time>2022-09-29T10:14:10Z</time>
      </trkpt>
      <trkpt lat="44.43191" lon="5.24308">
        <ele>586</ele>
        <time>2022-09-29T10:14:11Z</time>
      </trkpt>
      <trkpt lat="44.4319" lon="5.24309">
        <ele>586</ele>
        <time>2022-09-29T10:14:12Z</time>
      </trkpt>
      <trkpt lat="44.43189" lon="5.24309">
        <ele>587</ele>
        <time>2022-09-29T10:14:13Z</time>
      </trkpt>
      <trkpt lat="44.43189" lon="5.2431">
        <ele>587</ele>
        <time>2022-09-29T10:14:14Z</time>
      </trkpt>
      <trkpt lat="44.43188" lon="5.2431">
        <ele>587</ele>
        <time>2022-09-29T10:14:15Z</time>
      </trkpt>
      <trkpt lat="44.43188" lon="5.24311">
        <ele>587</ele>
        <time>2022-09-29T10:14:16Z</time>
      </trkpt>
      <trkpt lat="44.43187" lon="5.24311">
        <ele>587</ele>
        <time>2022-09-29T10:14:17Z</time>
      </trkpt>
      <trkpt lat="44.43183" lon="5.24311">
        <ele>589</ele>
        <time>2022-09-29T10:16:22Z</time>
      </trkpt>
      <trkpt lat="44.43182" lon="5.24311">
        <ele>589</ele>
        <time>2022-09-29T10:16:23Z</time>
      </trkpt>
      <trkpt lat="44.4318" lon="5.24311">
        <ele>589</ele>
        <time>2022-09-29T10:16:24Z</time>
      </trkpt>
      <trkpt lat="44.43179" lon="5.24311">
        <ele>589</ele>
        <time>2022-09-29T10:16:25Z</time>
      </trkpt>
      <trkpt lat="44.43178" lon="5.24311">
        <ele>589</ele>
        <time>2022-09-29T10:16:26Z</time>
      </trkpt>
      <trkpt lat="44.43177" lon="5.24311">
        <ele>589</ele>
        <time>2022-09-29T10:16:27Z</time>
      </trkpt>
      <trkpt lat="44.43176" lon="5.2431">
        <ele>589</ele>
        <time>2022-09-29T10:16:28Z</time>
      </trkpt>
      <trkpt lat="44.43175" lon="5.2431">
        <ele>589</ele>
        <time>2022-09-29T10:16:29Z</time>
      </trkpt>
      <trkpt lat="44.43174" lon="5.2431">
        <ele>589</ele>
        <time>2022-09-29T10:16:30Z</time>
      </trkpt>
      <trkpt lat="44.43173" lon="5.2431">
        <ele>589</ele>
        <time>2022-09-29T10:16:31Z</time>
      </trkpt>
      <trkpt lat="44.43172" lon="5.24309">
        <ele>589</ele>
        <time>2022-09-29T10:16:32Z</time>
      </trkpt>
      <trkpt lat="44.43172" lon="5.24309">
        <ele>590</ele>
        <time>2022-09-29T10:16:33Z</time>
      </trkpt>
      <trkpt lat="44.43171" lon="5.24309">
        <ele>590</ele>
        <time>2022-09-29T10:16:34Z</time>
      </trkpt>
      <trkpt lat="44.4317" lon="5.24309">
        <ele>590</ele>
        <time>2022-09-29T10:16:35Z</time>
      </trkpt>
      <trkpt lat="44.4317" lon="5.24308">
        <ele>590</ele>
        <time>2022-09-29T10:16:36Z</time>
      </trkpt>
      <trkpt lat="44.43169" lon="5.24308">
        <ele>590</ele>
        <time>2022-09-29T10:16:37Z</time>
      </trkpt>
      <trkpt lat="44.43168" lon="5.24307">
        <ele>591</ele>
        <time>2022-09-29T10:16:56Z</time>
      </trkpt>
      <trkpt lat="44.43167" lon="5.24307">
        <ele>591</ele>
        <time>2022-09-29T10:16:57Z</time>
      </trkpt>
      <trkpt lat="44.43166" lon="5.24307">
        <ele>591</ele>
        <time>2022-09-29T10:16:58Z</time>
      </trkpt>
      <trkpt lat="44.43166" lon="5.24307">
        <ele>591</ele>
        <time>2022-09-29T10:16:59Z</time>
      </trkpt>
      <trkpt lat="44.43165" lon="5.24307">
        <ele>591</ele>
        <time>2022-09-29T10:17:00Z</time>
      </trkpt>
      <trkpt lat="44.43164" lon="5.24306">
        <ele>591</ele>
        <time>2022-09-29T10:17:01Z</time>
      </trkpt>
      <trkpt lat="44.43163" lon="5.24306">
        <ele>591</ele>
        <time>2022-09-29T10:17:02Z</time>
      </trkpt>
      <trkpt lat="44.43162" lon="5.24306">
        <ele>591</ele>
        <time>2022-09-29T10:17:03Z</time>
      </trkpt>
      <trkpt lat="44.43161" lon="5.24306">
        <ele>591</ele>
        <time>2022-09-29T10:17:04Z</time>
      </trkpt>
      <trkpt lat="44.43161" lon="5.24305">
        <ele>591</ele>
        <time>2022-09-29T10:17:05Z</time>
      </trkpt>
      <trkpt lat="44.4316" lon="5.24305">
        <ele>591</ele>
        <time>2022-09-29T10:17:06Z</time>
      </trkpt>
      <trkpt lat="44.43159" lon="5.24305">
        <ele>591</ele>
        <time>2022-09-29T10:17:07Z</time>
      </trkpt>
      <trkpt lat="44.43158" lon="5.24305">
        <ele>592</ele>
        <time>2022-09-29T10:17:08Z</time>
      </trkpt>
      <trkpt lat="44.43157" lon="5.24305">
        <ele>592</ele>
        <time>2022-09-29T10:17:09Z</time>
      </trkpt>
      <trkpt lat="44.43156" lon="5.24305">
        <ele>592</ele>
        <time>2022-09-29T10:17:10Z</time>
      </trkpt>
      <trkpt lat="44.43155" lon="5.24306">
        <ele>592</ele>
        <time>2022-09-29T10:17:11Z</time>
      </trkpt>
      <trkpt lat="44.43155" lon="5.24306">
        <ele>592</ele>
        <time>2022-09-29T10:17:12Z</time>
      </trkpt>
      <trkpt lat="44.43154" lon="5.24306">
        <ele>592</ele>
        <time>2022-09-29T10:17:13Z</time>
      </trkpt>
      <trkpt lat="44.43153" lon="5.24306">
        <ele>592</ele>
        <time>2022-09-29T10:17:14Z</time>
      </trkpt>
      <trkpt lat="44.43152" lon="5.24306">
        <ele>592</ele>
        <time>2022-09-29T10:17:15Z</time>
      </trkpt>
      <trkpt lat="44.43152" lon="5.24307">
        <ele>592</ele>
        <time>2022-09-29T10:17:16Z</time>
      </trkpt>
      <trkpt lat="44.43151" lon="5.24307">
        <ele>592</ele>
        <time>2022-09-29T10:17:17Z</time>
      </trkpt>
      <trkpt lat="44.43151" lon="5.24307">
        <ele>592</ele>
        <time>2022-09-29T10:17:18Z</time>
      </trkpt>
      <trkpt lat="44.4315" lon="5.24307">
        <ele>592</ele>
        <time>2022-09-29T10:17:19Z</time>
      </trkpt>
      <trkpt lat="44.43149" lon="5.24307">
        <ele>592</ele>
        <time>2022-09-29T10:17:20Z</time>
      </trkpt>
      <trkpt lat="44.43148" lon="5.24308">
        <ele>592</ele>
        <time>2022-09-29T10:17:26Z</time>
      </trkpt>
      <trkpt lat="44.43148" lon="5.24308">
        <ele>592</ele>
        <time>2022-09-29T10:17:27Z</time>
      </trkpt>
      <trkpt lat="44.43147" lon="5.24308">
        <ele>592</ele>
        <time>2022-09-29T10:17:28Z</time>
      </trkpt>
      <trkpt lat="44.43147" lon="5.24308">
        <ele>592</ele>
        <time>2022-09-29T10:17:29Z</time>
      </trkpt>
      <trkpt lat="44.43146" lon="5.24308">
        <ele>592</ele>
        <time>2022-09-29T10:17:30Z</time>
      </trkpt>
      <trkpt lat="44.43146" lon="5.24308">
        <ele>592</ele>
        <time>2022-09-29T10:17:31Z</time>
      </trkpt>
      <trkpt lat="44.43145" lon="5.24308">
        <ele>592</ele>
        <time>2022-09-29T10:17:32Z</time>
      </trkpt>
      <trkpt lat="44.43145" lon="5.24308">
        <ele>593</ele>
        <time>2022-09-29T10:17:33Z</time>
      </trkpt>
      <trkpt lat="44.43144" lon="5.24308">
        <ele>593</ele>
        <time>2022-09-29T10:17:34Z</time>
      </trkpt>
      <trkpt lat="44.43143" lon="5.24308">
        <ele>593</ele>
        <time>2022-09-29T10:17:35Z</time>
      </trkpt>
      <trkpt lat="44.43143" lon="5.24308">
        <ele>593</ele>
        <time>2022-09-29T10:17:36Z</time>
      </trkpt>
      <trkpt lat="44.43142" lon="5.24307">
        <ele>593</ele>
        <time>2022-09-29T10:17:37Z</time>
      </trkpt>
      <trkpt lat="44.43141" lon="5.24307">
        <ele>593</ele>
        <time>2022-09-29T10:17:38Z</time>
      </trkpt>
      <trkpt lat="44.43141" lon="5.24307">
        <ele>593</ele>
        <time>2022-09-29T10:17:39Z</time>
      </trkpt>
      <trkpt lat="44.4314" lon="5.24308">
        <ele>593</ele>
        <time>2022-09-29T10:17:40Z</time>
      </trkpt>
      <trkpt lat="44.43139" lon="5.24308">
        <ele>593</ele>
        <time>2022-09-29T10:17:41Z</time>
      </trkpt>
      <trkpt lat="44.43139" lon="5.24308">
        <ele>593</ele>
        <time>2022-09-29T10:17:42Z</time>
      </trkpt>
      <trkpt lat="44.43138" lon="5.24309">
        <ele>593</ele>
        <time>2022-09-29T10:17:43Z</time>
      </trkpt>
      <trkpt lat="44.43138" lon="5.24309">
        <ele>593</ele>
        <time>2022-09-29T10:17:44Z</time>
      </trkpt>
      <trkpt lat="44.43137" lon="5.24309">
        <ele>593</ele>
        <time>2022-09-29T10:17:45Z</time>
      </trkpt>
      <trkpt lat="44.43136" lon="5.24309">
        <ele>593</ele>
        <time>2022-09-29T10:17:46Z</time>
      </trkpt>
      <trkpt lat="44.43136" lon="5.2431">
        <ele>593</ele>
        <time>2022-09-29T10:17:47Z</time>
      </trkpt>
      <trkpt lat="44.43135" lon="5.2431">
        <ele>593</ele>
        <time>2022-09-29T10:17:48Z</time>
      </trkpt>
      <trkpt lat="44.43134" lon="5.2431">
        <ele>593</ele>
        <time>2022-09-29T10:17:49Z</time>
      </trkpt>
      <trkpt lat="44.43134" lon="5.24311">
        <ele>593</ele>
        <time>2022-09-29T10:17:50Z</time>
      </trkpt>
      <trkpt lat="44.43133" lon="5.24311">
        <ele>593</ele>
        <time>2022-09-29T10:17:51Z</time>
      </trkpt>
      <trkpt lat="44.43133" lon="5.24311">
        <ele>593</ele>
        <time>2022-09-29T10:17:52Z</time>
      </trkpt>
      <trkpt lat="44.43132" lon="5.24311">
        <ele>594</ele>
        <time>2022-09-29T10:17:53Z</time>
      </trkpt>
      <trkpt lat="44.43131" lon="5.24312">
        <ele>594</ele>
        <time>2022-09-29T10:17:54Z</time>
      </trkpt>
      <trkpt lat="44.4313" lon="5.24312">
        <ele>594</ele>
        <time>2022-09-29T10:17:55Z</time>
      </trkpt>
      <trkpt lat="44.43129" lon="5.24313">
        <ele>594</ele>
        <time>2022-09-29T10:17:56Z</time>
      </trkpt>
      <trkpt lat="44.43128" lon="5.24313">
        <ele>594</ele>
        <time>2022-09-29T10:17:57Z</time>
      </trkpt>
      <trkpt lat="44.43128" lon="5.24313">
        <ele>594</ele>
        <time>2022-09-29T10:17:58Z</time>
      </trkpt>
      <trkpt lat="44.43127" lon="5.24314">
        <ele>594</ele>
        <time>2022-09-29T10:17:59Z</time>
      </trkpt>
      <trkpt lat="44.43127" lon="5.24314">
        <ele>594</ele>
        <time>2022-09-29T10:18:00Z</time>
      </trkpt>
      <trkpt lat="44.43126" lon="5.24314">
        <ele>594</ele>
        <time>2022-09-29T10:18:01Z</time>
      </trkpt>
      <trkpt lat="44.43125" lon="5.24314">
        <ele>594</ele>
        <time>2022-09-29T10:18:02Z</time>
      </trkpt>
      <trkpt lat="44.43125" lon="5.24315">
        <ele>595</ele>
        <time>2022-09-29T10:18:03Z</time>
      </trkpt>
      <trkpt lat="44.43124" lon="5.24315">
        <ele>595</ele>
        <time>2022-09-29T10:18:04Z</time>
      </trkpt>
      <trkpt lat="44.43123" lon="5.24315">
        <ele>595</ele>
        <time>2022-09-29T10:18:05Z</time>
      </trkpt>
      <trkpt lat="44.43123" lon="5.24315">
        <ele>595</ele>
        <time>2022-09-29T10:18:06Z</time>
      </trkpt>
      <trkpt lat="44.43122" lon="5.24316">
        <ele>595</ele>
        <time>2022-09-29T10:18:07Z</time>
      </trkpt>
      <trkpt lat="44.43121" lon="5.24316">
        <ele>595</ele>
        <time>2022-09-29T10:18:08Z</time>
      </trkpt>
      <trkpt lat="44.43121" lon="5.24316">
        <ele>595</ele>
        <time>2022-09-29T10:18:09Z</time>
      </trkpt>
      <trkpt lat="44.4312" lon="5.24316">
        <ele>595</ele>
        <time>2022-09-29T10:18:10Z</time>
      </trkpt>
      <trkpt lat="44.43119" lon="5.24316">
        <ele>595</ele>
        <time>2022-09-29T10:18:11Z</time>
      </trkpt>
      <trkpt lat="44.43118" lon="5.24316">
        <ele>595</ele>
        <time>2022-09-29T10:18:12Z</time>
      </trkpt>
      <trkpt lat="44.43117" lon="5.24316">
        <ele>596</ele>
        <time>2022-09-29T10:18:13Z</time>
      </trkpt>
      <trkpt lat="44.43117" lon="5.24317">
        <ele>596</ele>
        <time>2022-09-29T10:18:14Z</time>
      </trkpt>
      <trkpt lat="44.43117" lon="5.24317">
        <ele>596</ele>
        <time>2022-09-29T10:18:15Z</time>
      </trkpt>
      <trkpt lat="44.43116" lon="5.24317">
        <ele>596</ele>
        <time>2022-09-29T10:18:16Z</time>
      </trkpt>
      <trkpt lat="44.43116" lon="5.24318">
        <ele>596</ele>
        <time>2022-09-29T10:18:17Z</time>
      </trkpt>
      <trkpt lat="44.43115" lon="5.24318">
        <ele>596</ele>
        <time>2022-09-29T10:18:18Z</time>
      </trkpt>
      <trkpt lat="44.43114" lon="5.24318">
        <ele>596</ele>
        <time>2022-09-29T10:18:19Z</time>
      </trkpt>
      <trkpt lat="44.43114" lon="5.24319">
        <ele>596</ele>
        <time>2022-09-29T10:18:20Z</time>
      </trkpt>
      <trkpt lat="44.43113" lon="5.24319">
        <ele>596</ele>
        <time>2022-09-29T10:18:21Z</time>
      </trkpt>
      <trkpt lat="44.43112" lon="5.24319">
        <ele>596</ele>
        <time>2022-09-29T10:18:22Z</time>
      </trkpt>
      <trkpt lat="44.43112" lon="5.2432">
        <ele>597</ele>
        <time>2022-09-29T10:18:23Z</time>
      </trkpt>
      <trkpt lat="44.43111" lon="5.2432">
        <ele>597</ele>
        <time>2022-09-29T10:18:24Z</time>
      </trkpt>
      <trkpt lat="44.4311" lon="5.24321">
        <ele>597</ele>
        <time>2022-09-29T10:18:25Z</time>
      </trkpt>
      <trkpt lat="44.43109" lon="5.24321">
        <ele>597</ele>
        <time>2022-09-29T10:18:26Z</time>
      </trkpt>
      <trkpt lat="44.43109" lon="5.24322">
        <ele>597</ele>
        <time>2022-09-29T10:18:27Z</time>
      </trkpt>
      <trkpt lat="44.43108" lon="5.24322">
        <ele>597</ele>
        <time>2022-09-29T10:18:28Z</time>
      </trkpt>
      <trkpt lat="44.43107" lon="5.24322">
        <ele>597</ele>
        <time>2022-09-29T10:18:29Z</time>
      </trkpt>
      <trkpt lat="44.43107" lon="5.24323">
        <ele>597</ele>
        <time>2022-09-29T10:18:30Z</time>
      </trkpt>
      <trkpt lat="44.43106" lon="5.24323">
        <ele>597</ele>
        <time>2022-09-29T10:18:31Z</time>
      </trkpt>
      <trkpt lat="44.43105" lon="5.24323">
        <ele>597</ele>
        <time>2022-09-29T10:18:32Z</time>
      </trkpt>
      <trkpt lat="44.43104" lon="5.24324">
        <ele>598</ele>
        <time>2022-09-29T10:18:33Z</time>
      </trkpt>
      <trkpt lat="44.43103" lon="5.24324">
        <ele>598</ele>
        <time>2022-09-29T10:18:34Z</time>
      </trkpt>
      <trkpt lat="44.43102" lon="5.24324">
        <ele>598</ele>
        <time>2022-09-29T10:18:35Z</time>
      </trkpt>
      <trkpt lat="44.43101" lon="5.24324">
        <ele>598</ele>
        <time>2022-09-29T10:18:36Z</time>
      </trkpt>
      <trkpt lat="44.43101" lon="5.24325">
        <ele>598</ele>
        <time>2022-09-29T10:18:37Z</time>
      </trkpt>
      <trkpt lat="44.431" lon="5.24325">
        <ele>598</ele>
        <time>2022-09-29T10:18:38Z</time>
      </trkpt>
      <trkpt lat="44.43099" lon="5.24325">
        <ele>598</ele>
        <time>2022-09-29T10:18:39Z</time>
      </trkpt>
      <trkpt lat="44.43098" lon="5.24326">
        <ele>598</ele>
        <time>2022-09-29T10:18:40Z</time>
      </trkpt>
      <trkpt lat="44.43097" lon="5.24326">
        <ele>598</ele>
        <time>2022-09-29T10:18:41Z</time>
      </trkpt>
      <trkpt lat="44.43096" lon="5.24326">
        <ele>598</ele>
        <time>2022-09-29T10:18:42Z</time>
      </trkpt>
      <trkpt lat="44.43095" lon="5.24326">
        <ele>598</ele>
        <time>2022-09-29T10:18:43Z</time>
      </trkpt>
      <trkpt lat="44.43094" lon="5.24326">
        <ele>598</ele>
        <time>2022-09-29T10:18:44Z</time>
      </trkpt>
      <trkpt lat="44.43094" lon="5.24327">
        <ele>598</ele>
        <time>2022-09-29T10:18:45Z</time>
      </trkpt>
      <trkpt lat="44.43093" lon="5.24327">
        <ele>598</ele>
        <time>2022-09-29T10:18:46Z</time>
      </trkpt>
      <trkpt lat="44.43093" lon="5.24327">
        <ele>598</ele>
        <time>2022-09-29T10:18:47Z</time>
      </trkpt>
      <trkpt lat="44.43092" lon="5.24328">
        <ele>599</ele>
        <time>2022-09-29T10:18:48Z</time>
      </trkpt>
      <trkpt lat="44.43092" lon="5.24328">
        <ele>599</ele>
        <time>2022-09-29T10:18:49Z</time>
      </trkpt>
      <trkpt lat="44.43091" lon="5.24328">
        <ele>599</ele>
        <time>2022-09-29T10:18:50Z</time>
      </trkpt>
      <trkpt lat="44.4309" lon="5.24329">
        <ele>599</ele>
        <time>2022-09-29T10:18:51Z</time>
      </trkpt>
      <trkpt lat="44.4309" lon="5.24329">
        <ele>599</ele>
        <time>2022-09-29T10:18:52Z</time>
      </trkpt>
      <trkpt lat="44.4309" lon="5.24329">
        <ele>600</ele>
        <time>2022-09-29T10:18:53Z</time>
      </trkpt>
      <trkpt lat="44.43089" lon="5.24329">
        <ele>600</ele>
        <time>2022-09-29T10:18:54Z</time>
      </trkpt>
      <trkpt lat="44.43089" lon="5.24329">
        <ele>600</ele>
        <time>2022-09-29T10:18:55Z</time>
      </trkpt>
      <trkpt lat="44.43088" lon="5.24329">
        <ele>600</ele>
        <time>2022-09-29T10:18:56Z</time>
      </trkpt>
      <trkpt lat="44.43087" lon="5.2433">
        <ele>600</ele>
        <time>2022-09-29T10:18:57Z</time>
      </trkpt>
      <trkpt lat="44.43086" lon="5.2433">
        <ele>600</ele>
        <time>2022-09-29T10:18:58Z</time>
      </trkpt>
      <trkpt lat="44.43086" lon="5.24331">
        <ele>600</ele>
        <time>2022-09-29T10:18:59Z</time>
      </trkpt>
      <trkpt lat="44.43085" lon="5.24331">
        <ele>600</ele>
        <time>2022-09-29T10:19:00Z</time>
      </trkpt>
      <trkpt lat="44.43085" lon="5.24331">
        <ele>600</ele>
        <time>2022-09-29T10:19:01Z</time>
      </trkpt>
      <trkpt lat="44.43084" lon="5.24332">
        <ele>600</ele>
        <time>2022-09-29T10:19:02Z</time>
      </trkpt>
      <trkpt lat="44.43083" lon="5.24332">
        <ele>601</ele>
        <time>2022-09-29T10:19:03Z</time>
      </trkpt>
      <trkpt lat="44.43082" lon="5.24332">
        <ele>601</ele>
        <time>2022-09-29T10:19:04Z</time>
      </trkpt>
      <trkpt lat="44.43082" lon="5.24332">
        <ele>601</ele>
        <time>2022-09-29T10:19:05Z</time>
      </trkpt>
      <trkpt lat="44.43081" lon="5.24332">
        <ele>601</ele>
        <time>2022-09-29T10:19:06Z</time>
      </trkpt>
      <trkpt lat="44.4308" lon="5.24332">
        <ele>601</ele>
        <time>2022-09-29T10:19:07Z</time>
      </trkpt>
      <trkpt lat="44.43079" lon="5.24332">
        <ele>602</ele>
        <time>2022-09-29T10:19:08Z</time>
      </trkpt>
      <trkpt lat="44.43078" lon="5.24332">
        <ele>602</ele>
        <time>2022-09-29T10:19:09Z</time>
      </trkpt>
      <trkpt lat="44.43078" lon="5.24333">
        <ele>602</ele>
        <time>2022-09-29T10:19:10Z</time>
      </trkpt>
      <trkpt lat="44.43077" lon="5.24333">
        <ele>602</ele>
        <time>2022-09-29T10:19:11Z</time>
      </trkpt>
      <trkpt lat="44.43076" lon="5.24333">
        <ele>602</ele>
        <time>2022-09-29T10:19:12Z</time>
      </trkpt>
      <trkpt lat="44.43075" lon="5.24333">
        <ele>603</ele>
        <time>2022-09-29T10:19:13Z</time>
      </trkpt>
      <trkpt lat="44.43074" lon="5.24334">
        <ele>603</ele>
        <time>2022-09-29T10:19:14Z</time>
      </trkpt>
      <trkpt lat="44.43074" lon="5.24334">
        <ele>603</ele>
        <time>2022-09-29T10:19:15Z</time>
      </trkpt>
      <trkpt lat="44.43073" lon="5.24335">
        <ele>603</ele>
        <time>2022-09-29T10:19:16Z</time>
      </trkpt>
      <trkpt lat="44.43072" lon="5.24335">
        <ele>603</ele>
        <time>2022-09-29T10:19:17Z</time>
      </trkpt>
      <trkpt lat="44.43071" lon="5.24336">
        <ele>603</ele>
        <time>2022-09-29T10:19:18Z</time>
      </trkpt>
      <trkpt lat="44.43071" lon="5.24336">
        <ele>603</ele>
        <time>2022-09-29T10:19:19Z</time>
      </trkpt>
      <trkpt lat="44.4307" lon="5.24336">
        <ele>603</ele>
        <time>2022-09-29T10:19:20Z</time>
      </trkpt>
      <trkpt lat="44.43069" lon="5.24337">
        <ele>603</ele>
        <time>2022-09-29T10:19:21Z</time>
      </trkpt>
      <trkpt lat="44.43068" lon="5.24337">
        <ele>603</ele>
        <time>2022-09-29T10:19:22Z</time>
      </trkpt>
      <trkpt lat="44.43068" lon="5.24337">
        <ele>604</ele>
        <time>2022-09-29T10:19:23Z</time>
      </trkpt>
      <trkpt lat="44.43067" lon="5.24338">
        <ele>604</ele>
        <time>2022-09-29T10:19:24Z</time>
      </trkpt>
      <trkpt lat="44.43066" lon="5.24338">
        <ele>604</ele>
        <time>2022-09-29T10:19:25Z</time>
      </trkpt>
      <trkpt lat="44.43065" lon="5.24339">
        <ele>604</ele>
        <time>2022-09-29T10:19:26Z</time>
      </trkpt>
      <trkpt lat="44.43065" lon="5.24339">
        <ele>604</ele>
        <time>2022-09-29T10:19:27Z</time>
      </trkpt>
      <trkpt lat="44.43064" lon="5.2434">
        <ele>604</ele>
        <time>2022-09-29T10:19:28Z</time>
      </trkpt>
      <trkpt lat="44.43063" lon="5.2434">
        <ele>604</ele>
        <time>2022-09-29T10:19:29Z</time>
      </trkpt>
      <trkpt lat="44.43062" lon="5.24341">
        <ele>604</ele>
        <time>2022-09-29T10:19:30Z</time>
      </trkpt>
      <trkpt lat="44.43061" lon="5.24342">
        <ele>604</ele>
        <time>2022-09-29T10:19:31Z</time>
      </trkpt>
      <trkpt lat="44.43061" lon="5.24342">
        <ele>604</ele>
        <time>2022-09-29T10:19:32Z</time>
      </trkpt>
      <trkpt lat="44.4306" lon="5.24343">
        <ele>605</ele>
        <time>2022-09-29T10:19:33Z</time>
      </trkpt>
      <trkpt lat="44.4306" lon="5.24343">
        <ele>605</ele>
        <time>2022-09-29T10:19:34Z</time>
      </trkpt>
      <trkpt lat="44.43059" lon="5.24344">
        <ele>605</ele>
        <time>2022-09-29T10:19:35Z</time>
      </trkpt>
      <trkpt lat="44.43058" lon="5.24344">
        <ele>605</ele>
        <time>2022-09-29T10:19:36Z</time>
      </trkpt>
      <trkpt lat="44.43058" lon="5.24345">
        <ele>605</ele>
        <time>2022-09-29T10:19:37Z</time>
      </trkpt>
      <trkpt lat="44.43057" lon="5.24345">
        <ele>605</ele>
        <time>2022-09-29T10:19:38Z</time>
      </trkpt>
      <trkpt lat="44.43057" lon="5.24346">
        <ele>605</ele>
        <time>2022-09-29T10:19:39Z</time>
      </trkpt>
      <trkpt lat="44.43056" lon="5.24346">
        <ele>605</ele>
        <time>2022-09-29T10:19:40Z</time>
      </trkpt>
      <trkpt lat="44.43055" lon="5.24347">
        <ele>605</ele>
        <time>2022-09-29T10:19:41Z</time>
      </trkpt>
      <trkpt lat="44.43055" lon="5.24347">
        <ele>605</ele>
        <time>2022-09-29T10:19:42Z</time>
      </trkpt>
      <trkpt lat="44.43054" lon="5.24348">
        <ele>606</ele>
        <time>2022-09-29T10:19:43Z</time>
      </trkpt>
      <trkpt lat="44.43053" lon="5.24348">
        <ele>606</ele>
        <time>2022-09-29T10:19:44Z</time>
      </trkpt>
      <trkpt lat="44.43053" lon="5.24349">
        <ele>606</ele>
        <time>2022-09-29T10:19:45Z</time>
      </trkpt>
      <trkpt lat="44.43052" lon="5.24349">
        <ele>606</ele>
        <time>2022-09-29T10:19:46Z</time>
      </trkpt>
      <trkpt lat="44.43051" lon="5.2435">
        <ele>606</ele>
        <time>2022-09-29T10:19:47Z</time>
      </trkpt>
      <trkpt lat="44.43051" lon="5.2435">
        <ele>606</ele>
        <time>2022-09-29T10:19:48Z</time>
      </trkpt>
      <trkpt lat="44.4305" lon="5.24351">
        <ele>606</ele>
        <time>2022-09-29T10:19:49Z</time>
      </trkpt>
      <trkpt lat="44.43049" lon="5.24351">
        <ele>606</ele>
        <time>2022-09-29T10:19:50Z</time>
      </trkpt>
      <trkpt lat="44.43049" lon="5.24351">
        <ele>606</ele>
        <time>2022-09-29T10:19:51Z</time>
      </trkpt>
      <trkpt lat="44.43048" lon="5.24352">
        <ele>606</ele>
        <time>2022-09-29T10:19:52Z</time>
      </trkpt>
      <trkpt lat="44.43047" lon="5.24352">
        <ele>607</ele>
        <time>2022-09-29T10:19:53Z</time>
      </trkpt>
      <trkpt lat="44.43046" lon="5.24352">
        <ele>607</ele>
        <time>2022-09-29T10:19:54Z</time>
      </trkpt>
      <trkpt lat="44.43045" lon="5.24353">
        <ele>607</ele>
        <time>2022-09-29T10:19:55Z</time>
      </trkpt>
      <trkpt lat="44.43044" lon="5.24353">
        <ele>607</ele>
        <time>2022-09-29T10:19:56Z</time>
      </trkpt>
      <trkpt lat="44.43044" lon="5.24353">
        <ele>607</ele>
        <time>2022-09-29T10:19:57Z</time>
      </trkpt>
      <trkpt lat="44.43043" lon="5.24354">
        <ele>608</ele>
        <time>2022-09-29T10:19:58Z</time>
      </trkpt>
      <trkpt lat="44.43042" lon="5.24354">
        <ele>608</ele>
        <time>2022-09-29T10:19:59Z</time>
      </trkpt>
      <trkpt lat="44.43041" lon="5.24355">
        <ele>608</ele>
        <time>2022-09-29T10:20:00Z</time>
      </trkpt>
      <trkpt lat="44.4304" lon="5.24355">
        <ele>608</ele>
        <time>2022-09-29T10:20:01Z</time>
      </trkpt>
      <trkpt lat="44.4304" lon="5.24356">
        <ele>608</ele>
        <time>2022-09-29T10:20:02Z</time>
      </trkpt>
      <trkpt lat="44.43039" lon="5.24356">
        <ele>608</ele>
        <time>2022-09-29T10:20:03Z</time>
      </trkpt>
      <trkpt lat="44.43038" lon="5.24356">
        <ele>608</ele>
        <time>2022-09-29T10:20:04Z</time>
      </trkpt>
      <trkpt lat="44.43037" lon="5.24356">
        <ele>608</ele>
        <time>2022-09-29T10:20:05Z</time>
      </trkpt>
      <trkpt lat="44.43037" lon="5.24357">
        <ele>608</ele>
        <time>2022-09-29T10:20:06Z</time>
      </trkpt>
      <trkpt lat="44.43036" lon="5.24357">
        <ele>608</ele>
        <time>2022-09-29T10:20:07Z</time>
      </trkpt>
      <trkpt lat="44.43035" lon="5.24357">
        <ele>609</ele>
        <time>2022-09-29T10:20:08Z</time>
      </trkpt>
      <trkpt lat="44.43034" lon="5.24358">
        <ele>609</ele>
        <time>2022-09-29T10:20:09Z</time>
      </trkpt>
      <trkpt lat="44.43033" lon="5.24358">
        <ele>609</ele>
        <time>2022-09-29T10:20:10Z</time>
      </trkpt>
      <trkpt lat="44.43032" lon="5.24358">
        <ele>609</ele>
        <time>2022-09-29T10:20:11Z</time>
      </trkpt>
      <trkpt lat="44.43031" lon="5.24359">
        <ele>609</ele>
        <time>2022-09-29T10:20:12Z</time>
      </trkpt>
      <trkpt lat="44.43031" lon="5.24359">
        <ele>609</ele>
        <time>2022-09-29T10:20:13Z</time>
      </trkpt>
      <trkpt lat="44.4303" lon="5.24359">
        <ele>609</ele>
        <time>2022-09-29T10:20:14Z</time>
      </trkpt>
      <trkpt lat="44.4303" lon="5.24359">
        <ele>609</ele>
        <time>2022-09-29T10:20:15Z</time>
      </trkpt>
      <trkpt lat="44.43029" lon="5.2436">
        <ele>609</ele>
        <time>2022-09-29T10:20:16Z</time>
      </trkpt>
      <trkpt lat="44.43028" lon="5.2436">
        <ele>609</ele>
        <time>2022-09-29T10:20:17Z</time>
      </trkpt>
      <trkpt lat="44.43027" lon="5.2436">
        <ele>610</ele>
        <time>2022-09-29T10:20:18Z</time>
      </trkpt>
      <trkpt lat="44.43026" lon="5.2436">
        <ele>610</ele>
        <time>2022-09-29T10:20:19Z</time>
      </trkpt>
      <trkpt lat="44.43026" lon="5.2436">
        <ele>610</ele>
        <time>2022-09-29T10:20:20Z</time>
      </trkpt>
      <trkpt lat="44.43025" lon="5.2436">
        <ele>610</ele>
        <time>2022-09-29T10:20:21Z</time>
      </trkpt>
      <trkpt lat="44.43024" lon="5.2436">
        <ele>610</ele>
        <time>2022-09-29T10:20:22Z</time>
      </trkpt>
      <trkpt lat="44.43023" lon="5.2436">
        <ele>610</ele>
        <time>2022-09-29T10:20:23Z</time>
      </trkpt>
      <trkpt lat="44.43022" lon="5.2436">
        <ele>610</ele>
        <time>2022-09-29T10:20:24Z</time>
      </trkpt>
      <trkpt lat="44.43021" lon="5.2436">
        <ele>610</ele>
        <time>2022-09-29T10:20:25Z</time>
      </trkpt>
      <trkpt lat="44.4302" lon="5.2436">
        <ele>610</ele>
        <time>2022-09-29T10:20:26Z</time>
      </trkpt>
      <trkpt lat="44.43019" lon="5.2436">
        <ele>610</ele>
        <time>2022-09-29T10:20:27Z</time>
      </trkpt>
      <trkpt lat="44.43019" lon="5.24361">
        <ele>611</ele>
        <time>2022-09-29T10:20:28Z</time>
      </trkpt>
      <trkpt lat="44.43018" lon="5.24361">
        <ele>611</ele>
        <time>2022-09-29T10:20:29Z</time>
      </trkpt>
      <trkpt lat="44.43017" lon="5.24361">
        <ele>611</ele>
        <time>2022-09-29T10:20:30Z</time>
      </trkpt>
      <trkpt lat="44.43016" lon="5.24361">
        <ele>611</ele>
        <time>2022-09-29T10:20:31Z</time>
      </trkpt>
      <trkpt lat="44.43016" lon="5.24362">
        <ele>611</ele>
        <time>2022-09-29T10:20:32Z</time>
      </trkpt>
      <trkpt lat="44.43015" lon="5.24362">
        <ele>612</ele>
        <time>2022-09-29T10:20:33Z</time>
      </trkpt>
      <trkpt lat="44.43014" lon="5.24363">
        <ele>612</ele>
        <time>2022-09-29T10:20:34Z</time>
      </trkpt>
      <trkpt lat="44.43013" lon="5.24363">
        <ele>612</ele>
        <time>2022-09-29T10:20:35Z</time>
      </trkpt>
      <trkpt lat="44.43013" lon="5.24364">
        <ele>612</ele>
        <time>2022-09-29T10:20:36Z</time>
      </trkpt>
      <trkpt lat="44.43012" lon="5.24364">
        <ele>612</ele>
        <time>2022-09-29T10:20:37Z</time>
      </trkpt>
      <trkpt lat="44.43011" lon="5.24364">
        <ele>612</ele>
        <time>2022-09-29T10:20:38Z</time>
      </trkpt>
      <trkpt lat="44.4301" lon="5.24365">
        <ele>612</ele>
        <time>2022-09-29T10:20:39Z</time>
      </trkpt>
      <trkpt lat="44.4301" lon="5.24365">
        <ele>612</ele>
        <time>2022-09-29T10:20:40Z</time>
      </trkpt>
      <trkpt lat="44.43009" lon="5.24366">
        <ele>612</ele>
        <time>2022-09-29T10:20:41Z</time>
      </trkpt>
      <trkpt lat="44.43008" lon="5.24366">
        <ele>612</ele>
        <time>2022-09-29T10:20:42Z</time>
      </trkpt>
      <trkpt lat="44.43007" lon="5.24366">
        <ele>612</ele>
        <time>2022-09-29T10:20:43Z</time>
      </trkpt>
      <trkpt lat="44.43007" lon="5.24367">
        <ele>612</ele>
        <time>2022-09-29T10:20:44Z</time>
      </trkpt>
      <trkpt lat="44.43006" lon="5.24367">
        <ele>612</ele>
        <time>2022-09-29T10:20:45Z</time>
      </trkpt>
      <trkpt lat="44.43005" lon="5.24368">
        <ele>612</ele>
        <time>2022-09-29T10:20:46Z</time>
      </trkpt>
      <trkpt lat="44.43005" lon="5.24368">
        <ele>612</ele>
        <time>2022-09-29T10:20:47Z</time>
      </trkpt>
      <trkpt lat="44.43004" lon="5.24369">
        <ele>613</ele>
        <time>2022-09-29T10:20:48Z</time>
      </trkpt>
      <trkpt lat="44.43003" lon="5.24369">
        <ele>613</ele>
        <time>2022-09-29T10:20:49Z</time>
      </trkpt>
      <trkpt lat="44.43002" lon="5.24369">
        <ele>613</ele>
        <time>2022-09-29T10:20:50Z</time>
      </trkpt>
      <trkpt lat="44.43002" lon="5.24369">
        <ele>613</ele>
        <time>2022-09-29T10:20:51Z</time>
      </trkpt>
      <trkpt lat="44.43001" lon="5.2437">
        <ele>613</ele>
        <time>2022-09-29T10:20:52Z</time>
      </trkpt>
      <trkpt lat="44.43" lon="5.2437">
        <ele>614</ele>
        <time>2022-09-29T10:20:53Z</time>
      </trkpt>
      <trkpt lat="44.42999" lon="5.2437">
        <ele>614</ele>
        <time>2022-09-29T10:20:54Z</time>
      </trkpt>
      <trkpt lat="44.42999" lon="5.2437">
        <ele>614</ele>
        <time>2022-09-29T10:20:55Z</time>
      </trkpt>
      <trkpt lat="44.42998" lon="5.2437">
        <ele>614</ele>
        <time>2022-09-29T10:20:56Z</time>
      </trkpt>
      <trkpt lat="44.42997" lon="5.2437">
        <ele>614</ele>
        <time>2022-09-29T10:20:57Z</time>
      </trkpt>
      <trkpt lat="44.42996" lon="5.2437">
        <ele>614</ele>
        <time>2022-09-29T10:20:58Z</time>
      </trkpt>
      <trkpt lat="44.42996" lon="5.24371">
        <ele>614</ele>
        <time>2022-09-29T10:20:59Z</time>
      </trkpt>
      <trkpt lat="44.42995" lon="5.24371">
        <ele>614</ele>
        <time>2022-09-29T10:21:00Z</time>
      </trkpt>
      <trkpt lat="44.42994" lon="5.24372">
        <ele>614</ele>
        <time>2022-09-29T10:21:01Z</time>
      </trkpt>
      <trkpt lat="44.42994" lon="5.24372">
        <ele>614</ele>
        <time>2022-09-29T10:21:02Z</time>
      </trkpt>
      <trkpt lat="44.42993" lon="5.24372">
        <ele>615</ele>
        <time>2022-09-29T10:21:03Z</time>
      </trkpt>
      <trkpt lat="44.42992" lon="5.24373">
        <ele>615</ele>
        <time>2022-09-29T10:21:04Z</time>
      </trkpt>
      <trkpt lat="44.42991" lon="5.24373">
        <ele>615</ele>
        <time>2022-09-29T10:21:05Z</time>
      </trkpt>
      <trkpt lat="44.42991" lon="5.24373">
        <ele>615</ele>
        <time>2022-09-29T10:21:06Z</time>
      </trkpt>
      <trkpt lat="44.4299" lon="5.24374">
        <ele>615</ele>
        <time>2022-09-29T10:21:07Z</time>
      </trkpt>
      <trkpt lat="44.42989" lon="5.24374">
        <ele>615</ele>
        <time>2022-09-29T10:21:08Z</time>
      </trkpt>
      <trkpt lat="44.42988" lon="5.24375">
        <ele>615</ele>
        <time>2022-09-29T10:21:09Z</time>
      </trkpt>
      <trkpt lat="44.42988" lon="5.24375">
        <ele>615</ele>
        <time>2022-09-29T10:21:10Z</time>
      </trkpt>
      <trkpt lat="44.42987" lon="5.24375">
        <ele>615</ele>
        <time>2022-09-29T10:21:11Z</time>
      </trkpt>
      <trkpt lat="44.42986" lon="5.24376">
        <ele>615</ele>
        <time>2022-09-29T10:21:12Z</time>
      </trkpt>
      <trkpt lat="44.42985" lon="5.24377">
        <ele>616</ele>
        <time>2022-09-29T10:21:13Z</time>
      </trkpt>
      <trkpt lat="44.42984" lon="5.24377">
        <ele>616</ele>
        <time>2022-09-29T10:21:14Z</time>
      </trkpt>
      <trkpt lat="44.42984" lon="5.24378">
        <ele>616</ele>
        <time>2022-09-29T10:21:15Z</time>
      </trkpt>
      <trkpt lat="44.42983" lon="5.24378">
        <ele>616</ele>
        <time>2022-09-29T10:21:16Z</time>
      </trkpt>
      <trkpt lat="44.42983" lon="5.24379">
        <ele>616</ele>
        <time>2022-09-29T10:21:17Z</time>
      </trkpt>
      <trkpt lat="44.42982" lon="5.24379">
        <ele>617</ele>
        <time>2022-09-29T10:21:18Z</time>
      </trkpt>
      <trkpt lat="44.42982" lon="5.24379">
        <ele>617</ele>
        <time>2022-09-29T10:21:19Z</time>
      </trkpt>
      <trkpt lat="44.42981" lon="5.2438">
        <ele>617</ele>
        <time>2022-09-29T10:21:20Z</time>
      </trkpt>
      <trkpt lat="44.4298" lon="5.24381">
        <ele>617</ele>
        <time>2022-09-29T10:21:21Z</time>
      </trkpt>
      <trkpt lat="44.4298" lon="5.24381">
        <ele>617</ele>
        <time>2022-09-29T10:21:22Z</time>
      </trkpt>
      <trkpt lat="44.42979" lon="5.24382">
        <ele>617</ele>
        <time>2022-09-29T10:21:23Z</time>
      </trkpt>
      <trkpt lat="44.42978" lon="5.24382">
        <ele>617</ele>
        <time>2022-09-29T10:21:24Z</time>
      </trkpt>
      <trkpt lat="44.42978" lon="5.24382">
        <ele>617</ele>
        <time>2022-09-29T10:21:25Z</time>
      </trkpt>
      <trkpt lat="44.42977" lon="5.24383">
        <ele>617</ele>
        <time>2022-09-29T10:21:26Z</time>
      </trkpt>
      <trkpt lat="44.42977" lon="5.24383">
        <ele>617</ele>
        <time>2022-09-29T10:21:27Z</time>
      </trkpt>
      <trkpt lat="44.42976" lon="5.24384">
        <ele>618</ele>
        <time>2022-09-29T10:21:28Z</time>
      </trkpt>
      <trkpt lat="44.42976" lon="5.24384">
        <ele>618</ele>
        <time>2022-09-29T10:21:29Z</time>
      </trkpt>
      <trkpt lat="44.42975" lon="5.24384">
        <ele>618</ele>
        <time>2022-09-29T10:21:30Z</time>
      </trkpt>
      <trkpt lat="44.42974" lon="5.24385">
        <ele>618</ele>
        <time>2022-09-29T10:21:31Z</time>
      </trkpt>
      <trkpt lat="44.42974" lon="5.24385">
        <ele>618</ele>
        <time>2022-09-29T10:21:32Z</time>
      </trkpt>
      <trkpt lat="44.42973" lon="5.24386">
        <ele>619</ele>
        <time>2022-09-29T10:21:33Z</time>
      </trkpt>
      <trkpt lat="44.42972" lon="5.24386">
        <ele>619</ele>
        <time>2022-09-29T10:21:34Z</time>
      </trkpt>
      <trkpt lat="44.42972" lon="5.24387">
        <ele>620</ele>
        <time>2022-09-29T10:21:35Z</time>
      </trkpt>
      <trkpt lat="44.42971" lon="5.24387">
        <ele>620</ele>
        <time>2022-09-29T10:21:36Z</time>
      </trkpt>
      <trkpt lat="44.4297" lon="5.24388">
        <ele>621</ele>
        <time>2022-09-29T10:21:37Z</time>
      </trkpt>
      <trkpt lat="44.42969" lon="5.24388">
        <ele>622</ele>
        <time>2022-09-29T10:21:38Z</time>
      </trkpt>
      <trkpt lat="44.42969" lon="5.24389">
        <ele>622</ele>
        <time>2022-09-29T10:21:39Z</time>
      </trkpt>
      <trkpt lat="44.42968" lon="5.24389">
        <ele>622</ele>
        <time>2022-09-29T10:21:40Z</time>
      </trkpt>
      <trkpt lat="44.42968" lon="5.2439">
        <ele>622</ele>
        <time>2022-09-29T10:21:41Z</time>
      </trkpt>
      <trkpt lat="44.42967" lon="5.2439">
        <ele>622</ele>
        <time>2022-09-29T10:21:42Z</time>
      </trkpt>
      <trkpt lat="44.42966" lon="5.24391">
        <ele>622</ele>
        <time>2022-09-29T10:21:43Z</time>
      </trkpt>
      <trkpt lat="44.42965" lon="5.24391">
        <ele>622</ele>
        <time>2022-09-29T10:21:44Z</time>
      </trkpt>
      <trkpt lat="44.42965" lon="5.24392">
        <ele>622</ele>
        <time>2022-09-29T10:21:45Z</time>
      </trkpt>
      <trkpt lat="44.42964" lon="5.24393">
        <ele>622</ele>
        <time>2022-09-29T10:21:46Z</time>
      </trkpt>
      <trkpt lat="44.42963" lon="5.24394">
        <ele>622</ele>
        <time>2022-09-29T10:21:47Z</time>
      </trkpt>
      <trkpt lat="44.42962" lon="5.24395">
        <ele>622</ele>
        <time>2022-09-29T10:21:48Z</time>
      </trkpt>
      <trkpt lat="44.42961" lon="5.24396">
        <ele>622</ele>
        <time>2022-09-29T10:21:49Z</time>
      </trkpt>
      <trkpt lat="44.42961" lon="5.24397">
        <ele>622</ele>
        <time>2022-09-29T10:21:50Z</time>
      </trkpt>
      <trkpt lat="44.4296" lon="5.24398">
        <ele>622</ele>
        <time>2022-09-29T10:21:51Z</time>
      </trkpt>
      <trkpt lat="44.42959" lon="5.24399">
        <ele>622</ele>
        <time>2022-09-29T10:21:52Z</time>
      </trkpt>
      <trkpt lat="44.42959" lon="5.244">
        <ele>623</ele>
        <time>2022-09-29T10:21:53Z</time>
      </trkpt>
      <trkpt lat="44.42958" lon="5.244">
        <ele>623</ele>
        <time>2022-09-29T10:21:54Z</time>
      </trkpt>
      <trkpt lat="44.42957" lon="5.24401">
        <ele>623</ele>
        <time>2022-09-29T10:21:55Z</time>
      </trkpt>
      <trkpt lat="44.42957" lon="5.24402">
        <ele>623</ele>
        <time>2022-09-29T10:21:56Z</time>
      </trkpt>
      <trkpt lat="44.42956" lon="5.24402">
        <ele>623</ele>
        <time>2022-09-29T10:21:57Z</time>
      </trkpt>
      <trkpt lat="44.42955" lon="5.24403">
        <ele>623</ele>
        <time>2022-09-29T10:21:58Z</time>
      </trkpt>
      <trkpt lat="44.42955" lon="5.24404">
        <ele>623</ele>
        <time>2022-09-29T10:21:59Z</time>
      </trkpt>
      <trkpt lat="44.42954" lon="5.24404">
        <ele>623</ele>
        <time>2022-09-29T10:22:00Z</time>
      </trkpt>
      <trkpt lat="44.42953" lon="5.24405">
        <ele>623</ele>
        <time>2022-09-29T10:22:01Z</time>
      </trkpt>
      <trkpt lat="44.42953" lon="5.24405">
        <ele>623</ele>
        <time>2022-09-29T10:22:02Z</time>
      </trkpt>
      <trkpt lat="44.42952" lon="5.24406">
        <ele>624</ele>
        <time>2022-09-29T10:22:03Z</time>
      </trkpt>
      <trkpt lat="44.42951" lon="5.24406">
        <ele>624</ele>
        <time>2022-09-29T10:22:04Z</time>
      </trkpt>
      <trkpt lat="44.4295" lon="5.24407">
        <ele>624</ele>
        <time>2022-09-29T10:22:05Z</time>
      </trkpt>
      <trkpt lat="44.4295" lon="5.24407">
        <ele>624</ele>
        <time>2022-09-29T10:22:06Z</time>
      </trkpt>
      <trkpt lat="44.42949" lon="5.24408">
        <ele>624</ele>
        <time>2022-09-29T10:22:07Z</time>
      </trkpt>
      <trkpt lat="44.42948" lon="5.24408">
        <ele>624</ele>
        <time>2022-09-29T10:22:08Z</time>
      </trkpt>
      <trkpt lat="44.42948" lon="5.24409">
        <ele>624</ele>
        <time>2022-09-29T10:22:09Z</time>
      </trkpt>
      <trkpt lat="44.42947" lon="5.2441">
        <ele>624</ele>
        <time>2022-09-29T10:22:10Z</time>
      </trkpt>
      <trkpt lat="44.42946" lon="5.2441">
        <ele>624</ele>
        <time>2022-09-29T10:22:11Z</time>
      </trkpt>
      <trkpt lat="44.42945" lon="5.24411">
        <ele>624</ele>
        <time>2022-09-29T10:22:12Z</time>
      </trkpt>
      <trkpt lat="44.42944" lon="5.24411">
        <ele>625</ele>
        <time>2022-09-29T10:22:13Z</time>
      </trkpt>
      <trkpt lat="44.42944" lon="5.24412">
        <ele>625</ele>
        <time>2022-09-29T10:22:14Z</time>
      </trkpt>
      <trkpt lat="44.42943" lon="5.24413">
        <ele>625</ele>
        <time>2022-09-29T10:22:15Z</time>
      </trkpt>
      <trkpt lat="44.42942" lon="5.24414">
        <ele>625</ele>
        <time>2022-09-29T10:22:16Z</time>
      </trkpt>
      <trkpt lat="44.42942" lon="5.24414">
        <ele>625</ele>
        <time>2022-09-29T10:22:17Z</time>
      </trkpt>
      <trkpt lat="44.42941" lon="5.24415">
        <ele>626</ele>
        <time>2022-09-29T10:22:18Z</time>
      </trkpt>
      <trkpt lat="44.4294" lon="5.24416">
        <ele>626</ele>
        <time>2022-09-29T10:22:19Z</time>
      </trkpt>
      <trkpt lat="44.4294" lon="5.24417">
        <ele>626</ele>
        <time>2022-09-29T10:22:20Z</time>
      </trkpt>
      <trkpt lat="44.42939" lon="5.24418">
        <ele>626</ele>
        <time>2022-09-29T10:22:21Z</time>
      </trkpt>
      <trkpt lat="44.42938" lon="5.24418">
        <ele>626</ele>
        <time>2022-09-29T10:22:22Z</time>
      </trkpt>
      <trkpt lat="44.42938" lon="5.24419">
        <ele>626</ele>
        <time>2022-09-29T10:22:23Z</time>
      </trkpt>
      <trkpt lat="44.42937" lon="5.2442">
        <ele>626</ele>
        <time>2022-09-29T10:22:24Z</time>
      </trkpt>
      <trkpt lat="44.42936" lon="5.24421">
        <ele>626</ele>
        <time>2022-09-29T10:22:25Z</time>
      </trkpt>
      <trkpt lat="44.42936" lon="5.24421">
        <ele>626</ele>
        <time>2022-09-29T10:22:26Z</time>
      </trkpt>
      <trkpt lat="44.42935" lon="5.24422">
        <ele>626</ele>
        <time>2022-09-29T10:22:27Z</time>
      </trkpt>
      <trkpt lat="44.42935" lon="5.24423">
        <ele>627</ele>
        <time>2022-09-29T10:22:28Z</time>
      </trkpt>
      <trkpt lat="44.42934" lon="5.24424">
        <ele>627</ele>
        <time>2022-09-29T10:22:29Z</time>
      </trkpt>
      <trkpt lat="44.42933" lon="5.24424">
        <ele>627</ele>
        <time>2022-09-29T10:22:30Z</time>
      </trkpt>
      <trkpt lat="44.42933" lon="5.24425">
        <ele>627</ele>
        <time>2022-09-29T10:22:31Z</time>
      </trkpt>
      <trkpt lat="44.42932" lon="5.24426">
        <ele>627</ele>
        <time>2022-09-29T10:22:32Z</time>
      </trkpt>
      <trkpt lat="44.42932" lon="5.24427">
        <ele>627</ele>
        <time>2022-09-29T10:22:33Z</time>
      </trkpt>
      <trkpt lat="44.42931" lon="5.24427">
        <ele>627</ele>
        <time>2022-09-29T10:22:34Z</time>
      </trkpt>
      <trkpt lat="44.42931" lon="5.24428">
        <ele>627</ele>
        <time>2022-09-29T10:22:35Z</time>
      </trkpt>
      <trkpt lat="44.4293" lon="5.24429">
        <ele>627</ele>
        <time>2022-09-29T10:22:36Z</time>
      </trkpt>
      <trkpt lat="44.4293" lon="5.2443">
        <ele>627</ele>
        <time>2022-09-29T10:22:37Z</time>
      </trkpt>
      <trkpt lat="44.42929" lon="5.24431">
        <ele>628</ele>
        <time>2022-09-29T10:22:38Z</time>
      </trkpt>
      <trkpt lat="44.42929" lon="5.24432">
        <ele>628</ele>
        <time>2022-09-29T10:22:39Z</time>
      </trkpt>
      <trkpt lat="44.42929" lon="5.24433">
        <ele>628</ele>
        <time>2022-09-29T10:22:40Z</time>
      </trkpt>
      <trkpt lat="44.42928" lon="5.24434">
        <ele>628</ele>
        <time>2022-09-29T10:22:41Z</time>
      </trkpt>
      <trkpt lat="44.42928" lon="5.24435">
        <ele>628</ele>
        <time>2022-09-29T10:22:42Z</time>
      </trkpt>
      <trkpt lat="44.42928" lon="5.24436">
        <ele>628</ele>
        <time>2022-09-29T10:22:43Z</time>
      </trkpt>
      <trkpt lat="44.42927" lon="5.24437">
        <ele>628</ele>
        <time>2022-09-29T10:22:44Z</time>
      </trkpt>
      <trkpt lat="44.42927" lon="5.24438">
        <ele>628</ele>
        <time>2022-09-29T10:22:45Z</time>
      </trkpt>
      <trkpt lat="44.42926" lon="5.24439">
        <ele>628</ele>
        <time>2022-09-29T10:22:46Z</time>
      </trkpt>
      <trkpt lat="44.42926" lon="5.2444">
        <ele>628</ele>
        <time>2022-09-29T10:22:47Z</time>
      </trkpt>
      <trkpt lat="44.42925" lon="5.24441">
        <ele>629</ele>
        <time>2022-09-29T10:22:48Z</time>
      </trkpt>
      <trkpt lat="44.42924" lon="5.24442">
        <ele>629</ele>
        <time>2022-09-29T10:22:49Z</time>
      </trkpt>
      <trkpt lat="44.42924" lon="5.24443">
        <ele>629</ele>
        <time>2022-09-29T10:22:50Z</time>
      </trkpt>
      <trkpt lat="44.42923" lon="5.24444">
        <ele>629</ele>
        <time>2022-09-29T10:22:51Z</time>
      </trkpt>
      <trkpt lat="44.42923" lon="5.24444">
        <ele>629</ele>
        <time>2022-09-29T10:22:52Z</time>
      </trkpt>
      <trkpt lat="44.42922" lon="5.24445">
        <ele>629</ele>
        <time>2022-09-29T10:22:53Z</time>
      </trkpt>
      <trkpt lat="44.42922" lon="5.24445">
        <ele>629</ele>
        <time>2022-09-29T10:22:54Z</time>
      </trkpt>
      <trkpt lat="44.42921" lon="5.24446">
        <ele>629</ele>
        <time>2022-09-29T10:22:55Z</time>
      </trkpt>
      <trkpt lat="44.42921" lon="5.24446">
        <ele>629</ele>
        <time>2022-09-29T10:22:56Z</time>
      </trkpt>
      <trkpt lat="44.4292" lon="5.24447">
        <ele>629</ele>
        <time>2022-09-29T10:22:57Z</time>
      </trkpt>
      <trkpt lat="44.42919" lon="5.24448">
        <ele>630</ele>
        <time>2022-09-29T10:22:58Z</time>
      </trkpt>
      <trkpt lat="44.42919" lon="5.24449">
        <ele>630</ele>
        <time>2022-09-29T10:22:59Z</time>
      </trkpt>
      <trkpt lat="44.42919" lon="5.24449">
        <ele>630</ele>
        <time>2022-09-29T10:23:00Z</time>
      </trkpt>
      <trkpt lat="44.42918" lon="5.2445">
        <ele>630</ele>
        <time>2022-09-29T10:23:01Z</time>
      </trkpt>
      <trkpt lat="44.42918" lon="5.24451">
        <ele>630</ele>
        <time>2022-09-29T10:23:02Z</time>
      </trkpt>
      <trkpt lat="44.42917" lon="5.24452">
        <ele>631</ele>
        <time>2022-09-29T10:23:03Z</time>
      </trkpt>
      <trkpt lat="44.42917" lon="5.24453">
        <ele>631</ele>
        <time>2022-09-29T10:23:04Z</time>
      </trkpt>
      <trkpt lat="44.42916" lon="5.24454">
        <ele>631</ele>
        <time>2022-09-29T10:23:05Z</time>
      </trkpt>
      <trkpt lat="44.42916" lon="5.24454">
        <ele>631</ele>
        <time>2022-09-29T10:23:06Z</time>
      </trkpt>
      <trkpt lat="44.42915" lon="5.24455">
        <ele>631</ele>
        <time>2022-09-29T10:23:07Z</time>
      </trkpt>
      <trkpt lat="44.42915" lon="5.24456">
        <ele>631</ele>
        <time>2022-09-29T10:23:08Z</time>
      </trkpt>
      <trkpt lat="44.42914" lon="5.24457">
        <ele>631</ele>
        <time>2022-09-29T10:23:09Z</time>
      </trkpt>
      <trkpt lat="44.42914" lon="5.24458">
        <ele>631</ele>
        <time>2022-09-29T10:23:10Z</time>
      </trkpt>
      <trkpt lat="44.42913" lon="5.24459">
        <ele>631</ele>
        <time>2022-09-29T10:23:11Z</time>
      </trkpt>
      <trkpt lat="44.42913" lon="5.2446">
        <ele>631</ele>
        <time>2022-09-29T10:23:12Z</time>
      </trkpt>
      <trkpt lat="44.42912" lon="5.24461">
        <ele>632</ele>
        <time>2022-09-29T10:23:13Z</time>
      </trkpt>
      <trkpt lat="44.42911" lon="5.24461">
        <ele>632</ele>
        <time>2022-09-29T10:23:14Z</time>
      </trkpt>
      <trkpt lat="44.42911" lon="5.24462">
        <ele>632</ele>
        <time>2022-09-29T10:23:15Z</time>
      </trkpt>
      <trkpt lat="44.4291" lon="5.24463">
        <ele>632</ele>
        <time>2022-09-29T10:23:16Z</time>
      </trkpt>
      <trkpt lat="44.42909" lon="5.24464">
        <ele>632</ele>
        <time>2022-09-29T10:23:17Z</time>
      </trkpt>
      <trkpt lat="44.42909" lon="5.24465">
        <ele>633</ele>
        <time>2022-09-29T10:23:18Z</time>
      </trkpt>
      <trkpt lat="44.42908" lon="5.24465">
        <ele>633</ele>
        <time>2022-09-29T10:23:19Z</time>
      </trkpt>
      <trkpt lat="44.42908" lon="5.24466">
        <ele>633</ele>
        <time>2022-09-29T10:23:20Z</time>
      </trkpt>
      <trkpt lat="44.42908" lon="5.24467">
        <ele>633</ele>
        <time>2022-09-29T10:23:21Z</time>
      </trkpt>
      <trkpt lat="44.42907" lon="5.24468">
        <ele>633</ele>
        <time>2022-09-29T10:23:22Z</time>
      </trkpt>
      <trkpt lat="44.42907" lon="5.24469">
        <ele>633</ele>
        <time>2022-09-29T10:23:23Z</time>
      </trkpt>
      <trkpt lat="44.42906" lon="5.2447">
        <ele>633</ele>
        <time>2022-09-29T10:23:24Z</time>
      </trkpt>
      <trkpt lat="44.42906" lon="5.24471">
        <ele>633</ele>
        <time>2022-09-29T10:23:25Z</time>
      </trkpt>
      <trkpt lat="44.42905" lon="5.24472">
        <ele>633</ele>
        <time>2022-09-29T10:23:26Z</time>
      </trkpt>
      <trkpt lat="44.42905" lon="5.24473">
        <ele>633</ele>
        <time>2022-09-29T10:23:27Z</time>
      </trkpt>
      <trkpt lat="44.42904" lon="5.24474">
        <ele>634</ele>
        <time>2022-09-29T10:23:28Z</time>
      </trkpt>
      <trkpt lat="44.42904" lon="5.24475">
        <ele>634</ele>
        <time>2022-09-29T10:23:29Z</time>
      </trkpt>
      <trkpt lat="44.42904" lon="5.24476">
        <ele>634</ele>
        <time>2022-09-29T10:23:30Z</time>
      </trkpt>
      <trkpt lat="44.42903" lon="5.24477">
        <ele>634</ele>
        <time>2022-09-29T10:23:31Z</time>
      </trkpt>
      <trkpt lat="44.42903" lon="5.24479">
        <ele>634</ele>
        <time>2022-09-29T10:23:32Z</time>
      </trkpt>
      <trkpt lat="44.42902" lon="5.2448">
        <ele>635</ele>
        <time>2022-09-29T10:23:33Z</time>
      </trkpt>
      <trkpt lat="44.42902" lon="5.24481">
        <ele>635</ele>
        <time>2022-09-29T10:23:34Z</time>
      </trkpt>
      <trkpt lat="44.42902" lon="5.24482">
        <ele>635</ele>
        <time>2022-09-29T10:23:35Z</time>
      </trkpt>
      <trkpt lat="44.42902" lon="5.24483">
        <ele>635</ele>
        <time>2022-09-29T10:23:36Z</time>
      </trkpt>
      <trkpt lat="44.42902" lon="5.24485">
        <ele>635</ele>
        <time>2022-09-29T10:23:37Z</time>
      </trkpt>
      <trkpt lat="44.42902" lon="5.24486">
        <ele>635</ele>
        <time>2022-09-29T10:23:38Z</time>
      </trkpt>
      <trkpt lat="44.42902" lon="5.24487">
        <ele>635</ele>
        <time>2022-09-29T10:23:39Z</time>
      </trkpt>
      <trkpt lat="44.42902" lon="5.24489">
        <ele>635</ele>
        <time>2022-09-29T10:23:40Z</time>
      </trkpt>
      <trkpt lat="44.42902" lon="5.2449">
        <ele>635</ele>
        <time>2022-09-29T10:23:41Z</time>
      </trkpt>
      <trkpt lat="44.42901" lon="5.24491">
        <ele>635</ele>
        <time>2022-09-29T10:23:42Z</time>
      </trkpt>
      <trkpt lat="44.42901" lon="5.24491">
        <ele>636</ele>
        <time>2022-09-29T10:23:43Z</time>
      </trkpt>
      <trkpt lat="44.42901" lon="5.24492">
        <ele>636</ele>
        <time>2022-09-29T10:23:44Z</time>
      </trkpt>
      <trkpt lat="44.42901" lon="5.24493">
        <ele>636</ele>
        <time>2022-09-29T10:23:45Z</time>
      </trkpt>
      <trkpt lat="44.429" lon="5.24494">
        <ele>636</ele>
        <time>2022-09-29T10:23:46Z</time>
      </trkpt>
      <trkpt lat="44.429" lon="5.24495">
        <ele>636</ele>
        <time>2022-09-29T10:23:47Z</time>
      </trkpt>
      <trkpt lat="44.42899" lon="5.24496">
        <ele>636</ele>
        <time>2022-09-29T10:23:48Z</time>
      </trkpt>
      <trkpt lat="44.42899" lon="5.24497">
        <ele>636</ele>
        <time>2022-09-29T10:23:49Z</time>
      </trkpt>
      <trkpt lat="44.42898" lon="5.24498">
        <ele>636</ele>
        <time>2022-09-29T10:23:50Z</time>
      </trkpt>
      <trkpt lat="44.42898" lon="5.24499">
        <ele>636</ele>
        <time>2022-09-29T10:23:51Z</time>
      </trkpt>
      <trkpt lat="44.42898" lon="5.245">
        <ele>636</ele>
        <time>2022-09-29T10:23:52Z</time>
      </trkpt>
      <trkpt lat="44.42898" lon="5.24501">
        <ele>637</ele>
        <time>2022-09-29T10:23:53Z</time>
      </trkpt>
      <trkpt lat="44.42897" lon="5.24502">
        <ele>637</ele>
        <time>2022-09-29T10:23:54Z</time>
      </trkpt>
      <trkpt lat="44.42897" lon="5.24503">
        <ele>637</ele>
        <time>2022-09-29T10:23:55Z</time>
      </trkpt>
      <trkpt lat="44.42897" lon="5.24505">
        <ele>637</ele>
        <time>2022-09-29T10:23:56Z</time>
      </trkpt>
      <trkpt lat="44.42897" lon="5.24506">
        <ele>637</ele>
        <time>2022-09-29T10:23:57Z</time>
      </trkpt>
      <trkpt lat="44.42896" lon="5.24507">
        <ele>637</ele>
        <time>2022-09-29T10:23:58Z</time>
      </trkpt>
      <trkpt lat="44.42896" lon="5.24507">
        <ele>637</ele>
        <time>2022-09-29T10:23:59Z</time>
      </trkpt>
      <trkpt lat="44.42896" lon="5.24508">
        <ele>637</ele>
        <time>2022-09-29T10:24:00Z</time>
      </trkpt>
      <trkpt lat="44.42895" lon="5.24509">
        <ele>637</ele>
        <time>2022-09-29T10:24:01Z</time>
      </trkpt>
      <trkpt lat="44.42895" lon="5.2451">
        <ele>637</ele>
        <time>2022-09-29T10:24:02Z</time>
      </trkpt>
      <trkpt lat="44.42894" lon="5.24511">
        <ele>638</ele>
        <time>2022-09-29T10:24:03Z</time>
      </trkpt>
      <trkpt lat="44.42894" lon="5.24512">
        <ele>638</ele>
        <time>2022-09-29T10:24:04Z</time>
      </trkpt>
      <trkpt lat="44.42894" lon="5.24513">
        <ele>638</ele>
        <time>2022-09-29T10:24:05Z</time>
      </trkpt>
      <trkpt lat="44.42894" lon="5.24514">
        <ele>638</ele>
        <time>2022-09-29T10:24:06Z</time>
      </trkpt>
      <trkpt lat="44.42894" lon="5.24515">
        <ele>638</ele>
        <time>2022-09-29T10:24:07Z</time>
      </trkpt>
      <trkpt lat="44.42893" lon="5.24516">
        <ele>638</ele>
        <time>2022-09-29T10:24:08Z</time>
      </trkpt>
      <trkpt lat="44.42893" lon="5.24517">
        <ele>638</ele>
        <time>2022-09-29T10:24:09Z</time>
      </trkpt>
      <trkpt lat="44.42893" lon="5.24518">
        <ele>638</ele>
        <time>2022-09-29T10:24:10Z</time>
      </trkpt>
      <trkpt lat="44.42893" lon="5.24519">
        <ele>638</ele>
        <time>2022-09-29T10:24:11Z</time>
      </trkpt>
      <trkpt lat="44.42893" lon="5.2452">
        <ele>638</ele>
        <time>2022-09-29T10:24:12Z</time>
      </trkpt>
      <trkpt lat="44.42893" lon="5.24521">
        <ele>639</ele>
        <time>2022-09-29T10:24:13Z</time>
      </trkpt>
      <trkpt lat="44.42893" lon="5.24522">
        <ele>639</ele>
        <time>2022-09-29T10:24:14Z</time>
      </trkpt>
      <trkpt lat="44.42893" lon="5.24524">
        <ele>639</ele>
        <time>2022-09-29T10:24:15Z</time>
      </trkpt>
      <trkpt lat="44.42893" lon="5.24525">
        <ele>639</ele>
        <time>2022-09-29T10:24:16Z</time>
      </trkpt>
      <trkpt lat="44.42893" lon="5.24526">
        <ele>639</ele>
        <time>2022-09-29T10:24:17Z</time>
      </trkpt>
      <trkpt lat="44.42892" lon="5.24527">
        <ele>640</ele>
        <time>2022-09-29T10:24:18Z</time>
      </trkpt>
      <trkpt lat="44.42892" lon="5.24528">
        <ele>640</ele>
        <time>2022-09-29T10:24:19Z</time>
      </trkpt>
      <trkpt lat="44.42892" lon="5.24529">
        <ele>640</ele>
        <time>2022-09-29T10:24:20Z</time>
      </trkpt>
      <trkpt lat="44.42892" lon="5.2453">
        <ele>640</ele>
        <time>2022-09-29T10:24:21Z</time>
      </trkpt>
      <trkpt lat="44.42892" lon="5.24531">
        <ele>640</ele>
        <time>2022-09-29T10:24:22Z</time>
      </trkpt>
      <trkpt lat="44.42892" lon="5.24532">
        <ele>640</ele>
        <time>2022-09-29T10:24:23Z</time>
      </trkpt>
      <trkpt lat="44.42892" lon="5.24533">
        <ele>640</ele>
        <time>2022-09-29T10:24:24Z</time>
      </trkpt>
      <trkpt lat="44.42891" lon="5.24534">
        <ele>640</ele>
        <time>2022-09-29T10:24:25Z</time>
      </trkpt>
      <trkpt lat="44.42891" lon="5.24536">
        <ele>640</ele>
        <time>2022-09-29T10:24:26Z</time>
      </trkpt>
      <trkpt lat="44.42891" lon="5.24537">
        <ele>640</ele>
        <time>2022-09-29T10:24:27Z</time>
      </trkpt>
      <trkpt lat="44.42891" lon="5.24538">
        <ele>641</ele>
        <time>2022-09-29T10:24:28Z</time>
      </trkpt>
      <trkpt lat="44.42891" lon="5.24539">
        <ele>641</ele>
        <time>2022-09-29T10:24:29Z</time>
      </trkpt>
      <trkpt lat="44.4289" lon="5.2454">
        <ele>641</ele>
        <time>2022-09-29T10:24:30Z</time>
      </trkpt>
      <trkpt lat="44.4289" lon="5.24541">
        <ele>641</ele>
        <time>2022-09-29T10:24:31Z</time>
      </trkpt>
      <trkpt lat="44.4289" lon="5.24543">
        <ele>641</ele>
        <time>2022-09-29T10:24:32Z</time>
      </trkpt>
      <trkpt lat="44.4289" lon="5.24543">
        <ele>641</ele>
        <time>2022-09-29T10:24:33Z</time>
      </trkpt>
      <trkpt lat="44.4289" lon="5.24544">
        <ele>641</ele>
        <time>2022-09-29T10:24:34Z</time>
      </trkpt>
      <trkpt lat="44.4289" lon="5.24545">
        <ele>641</ele>
        <time>2022-09-29T10:24:35Z</time>
      </trkpt>
      <trkpt lat="44.4289" lon="5.24546">
        <ele>641</ele>
        <time>2022-09-29T10:24:36Z</time>
      </trkpt>
      <trkpt lat="44.4289" lon="5.24547">
        <ele>641</ele>
        <time>2022-09-29T10:24:37Z</time>
      </trkpt>
      <trkpt lat="44.4289" lon="5.24548">
        <ele>642</ele>
        <time>2022-09-29T10:24:38Z</time>
      </trkpt>
      <trkpt lat="44.4289" lon="5.24549">
        <ele>642</ele>
        <time>2022-09-29T10:24:39Z</time>
      </trkpt>
      <trkpt lat="44.4289" lon="5.2455">
        <ele>642</ele>
        <time>2022-09-29T10:24:40Z</time>
      </trkpt>
      <trkpt lat="44.4289" lon="5.24551">
        <ele>642</ele>
        <time>2022-09-29T10:24:41Z</time>
      </trkpt>
      <trkpt lat="44.4289" lon="5.24551">
        <ele>642</ele>
        <time>2022-09-29T10:24:42Z</time>
      </trkpt>
      <trkpt lat="44.42889" lon="5.24552">
        <ele>642</ele>
        <time>2022-09-29T10:24:43Z</time>
      </trkpt>
      <trkpt lat="44.42889" lon="5.24553">
        <ele>642</ele>
        <time>2022-09-29T10:24:44Z</time>
      </trkpt>
      <trkpt lat="44.42889" lon="5.24554">
        <ele>642</ele>
        <time>2022-09-29T10:24:45Z</time>
      </trkpt>
      <trkpt lat="44.42889" lon="5.24556">
        <ele>642</ele>
        <time>2022-09-29T10:24:46Z</time>
      </trkpt>
      <trkpt lat="44.42889" lon="5.24557">
        <ele>642</ele>
        <time>2022-09-29T10:24:47Z</time>
      </trkpt>
      <trkpt lat="44.42889" lon="5.24558">
        <ele>643</ele>
        <time>2022-09-29T10:24:48Z</time>
      </trkpt>
      <trkpt lat="44.42889" lon="5.24559">
        <ele>643</ele>
        <time>2022-09-29T10:24:49Z</time>
      </trkpt>
      <trkpt lat="44.42889" lon="5.2456">
        <ele>643</ele>
        <time>2022-09-29T10:24:50Z</time>
      </trkpt>
      <trkpt lat="44.42889" lon="5.24562">
        <ele>643</ele>
        <time>2022-09-29T10:24:51Z</time>
      </trkpt>
      <trkpt lat="44.42889" lon="5.24563">
        <ele>643</ele>
        <time>2022-09-29T10:24:52Z</time>
      </trkpt>
      <trkpt lat="44.42889" lon="5.24564">
        <ele>644</ele>
        <time>2022-09-29T10:24:53Z</time>
      </trkpt>
      <trkpt lat="44.42889" lon="5.24565">
        <ele>644</ele>
        <time>2022-09-29T10:24:54Z</time>
      </trkpt>
      <trkpt lat="44.4289" lon="5.24566">
        <ele>644</ele>
        <time>2022-09-29T10:24:55Z</time>
      </trkpt>
      <trkpt lat="44.4289" lon="5.24567">
        <ele>644</ele>
        <time>2022-09-29T10:24:56Z</time>
      </trkpt>
      <trkpt lat="44.4289" lon="5.24568">
        <ele>644</ele>
        <time>2022-09-29T10:24:57Z</time>
      </trkpt>
      <trkpt lat="44.4289" lon="5.24569">
        <ele>644</ele>
        <time>2022-09-29T10:24:58Z</time>
      </trkpt>
      <trkpt lat="44.42891" lon="5.2457">
        <ele>644</ele>
        <time>2022-09-29T10:24:59Z</time>
      </trkpt>
      <trkpt lat="44.42891" lon="5.24572">
        <ele>644</ele>
        <time>2022-09-29T10:25:00Z</time>
      </trkpt>
      <trkpt lat="44.42891" lon="5.24573">
        <ele>644</ele>
        <time>2022-09-29T10:25:01Z</time>
      </trkpt>
      <trkpt lat="44.42891" lon="5.24574">
        <ele>644</ele>
        <time>2022-09-29T10:25:02Z</time>
      </trkpt>
      <trkpt lat="44.42891" lon="5.24575">
        <ele>645</ele>
        <time>2022-09-29T10:25:03Z</time>
      </trkpt>
      <trkpt lat="44.42891" lon="5.24576">
        <ele>645</ele>
        <time>2022-09-29T10:25:04Z</time>
      </trkpt>
      <trkpt lat="44.42891" lon="5.24577">
        <ele>645</ele>
        <time>2022-09-29T10:25:05Z</time>
      </trkpt>
      <trkpt lat="44.42892" lon="5.24579">
        <ele>645</ele>
        <time>2022-09-29T10:25:06Z</time>
      </trkpt>
      <trkpt lat="44.42892" lon="5.2458">
        <ele>645</ele>
        <time>2022-09-29T10:25:07Z</time>
      </trkpt>
      <trkpt lat="44.42892" lon="5.24581">
        <ele>645</ele>
        <time>2022-09-29T10:25:08Z</time>
      </trkpt>
      <trkpt lat="44.42892" lon="5.24582">
        <ele>645</ele>
        <time>2022-09-29T10:25:09Z</time>
      </trkpt>
      <trkpt lat="44.42892" lon="5.24583">
        <ele>645</ele>
        <time>2022-09-29T10:25:10Z</time>
      </trkpt>
      <trkpt lat="44.42892" lon="5.24584">
        <ele>645</ele>
        <time>2022-09-29T10:25:11Z</time>
      </trkpt>
      <trkpt lat="44.42892" lon="5.24585">
        <ele>645</ele>
        <time>2022-09-29T10:25:12Z</time>
      </trkpt>
      <trkpt lat="44.42892" lon="5.24586">
        <ele>646</ele>
        <time>2022-09-29T10:25:13Z</time>
      </trkpt>
      <trkpt lat="44.42892" lon="5.24587">
        <ele>646</ele>
        <time>2022-09-29T10:25:14Z</time>
      </trkpt>
      <trkpt lat="44.42893" lon="5.24589">
        <ele>646</ele>
        <time>2022-09-29T10:25:15Z</time>
      </trkpt>
      <trkpt lat="44.42893" lon="5.2459">
        <ele>646</ele>
        <time>2022-09-29T10:25:16Z</time>
      </trkpt>
      <trkpt lat="44.42893" lon="5.24591">
        <ele>646</ele>
        <time>2022-09-29T10:25:17Z</time>
      </trkpt>
      <trkpt lat="44.42893" lon="5.24592">
        <ele>647</ele>
        <time>2022-09-29T10:25:18Z</time>
      </trkpt>
      <trkpt lat="44.42893" lon="5.24594">
        <ele>647</ele>
        <time>2022-09-29T10:25:19Z</time>
      </trkpt>
      <trkpt lat="44.42893" lon="5.24595">
        <ele>647</ele>
        <time>2022-09-29T10:25:20Z</time>
      </trkpt>
      <trkpt lat="44.42894" lon="5.24596">
        <ele>647</ele>
        <time>2022-09-29T10:25:21Z</time>
      </trkpt>
      <trkpt lat="44.42894" lon="5.24598">
        <ele>647</ele>
        <time>2022-09-29T10:25:22Z</time>
      </trkpt>
      <trkpt lat="44.42894" lon="5.24599">
        <ele>647</ele>
        <time>2022-09-29T10:25:23Z</time>
      </trkpt>
      <trkpt lat="44.42894" lon="5.246">
        <ele>647</ele>
        <time>2022-09-29T10:25:24Z</time>
      </trkpt>
      <trkpt lat="44.42894" lon="5.24602">
        <ele>647</ele>
        <time>2022-09-29T10:25:25Z</time>
      </trkpt>
      <trkpt lat="44.42894" lon="5.24603">
        <ele>647</ele>
        <time>2022-09-29T10:25:26Z</time>
      </trkpt>
      <trkpt lat="44.42894" lon="5.24604">
        <ele>647</ele>
        <time>2022-09-29T10:25:27Z</time>
      </trkpt>
      <trkpt lat="44.42894" lon="5.24606">
        <ele>648</ele>
        <time>2022-09-29T10:25:28Z</time>
      </trkpt>
      <trkpt lat="44.42894" lon="5.24607">
        <ele>648</ele>
        <time>2022-09-29T10:25:29Z</time>
      </trkpt>
      <trkpt lat="44.42895" lon="5.24608">
        <ele>648</ele>
        <time>2022-09-29T10:25:30Z</time>
      </trkpt>
      <trkpt lat="44.42895" lon="5.24609">
        <ele>648</ele>
        <time>2022-09-29T10:25:31Z</time>
      </trkpt>
      <trkpt lat="44.42895" lon="5.2461">
        <ele>648</ele>
        <time>2022-09-29T10:25:32Z</time>
      </trkpt>
      <trkpt lat="44.42896" lon="5.24611">
        <ele>649</ele>
        <time>2022-09-29T10:25:33Z</time>
      </trkpt>
      <trkpt lat="44.42896" lon="5.24612">
        <ele>649</ele>
        <time>2022-09-29T10:25:34Z</time>
      </trkpt>
      <trkpt lat="44.42897" lon="5.24614">
        <ele>649</ele>
        <time>2022-09-29T10:25:35Z</time>
      </trkpt>
      <trkpt lat="44.42897" lon="5.24615">
        <ele>649</ele>
        <time>2022-09-29T10:25:36Z</time>
      </trkpt>
      <trkpt lat="44.42897" lon="5.24616">
        <ele>649</ele>
        <time>2022-09-29T10:25:37Z</time>
      </trkpt>
      <trkpt lat="44.42898" lon="5.24617">
        <ele>649</ele>
        <time>2022-09-29T10:25:38Z</time>
      </trkpt>
      <trkpt lat="44.42898" lon="5.24619">
        <ele>649</ele>
        <time>2022-09-29T10:25:39Z</time>
      </trkpt>
      <trkpt lat="44.42898" lon="5.2462">
        <ele>649</ele>
        <time>2022-09-29T10:25:40Z</time>
      </trkpt>
      <trkpt lat="44.42898" lon="5.24621">
        <ele>649</ele>
        <time>2022-09-29T10:25:41Z</time>
      </trkpt>
      <trkpt lat="44.42898" lon="5.24622">
        <ele>649</ele>
        <time>2022-09-29T10:25:42Z</time>
      </trkpt>
      <trkpt lat="44.42898" lon="5.24623">
        <ele>650</ele>
        <time>2022-09-29T10:25:43Z</time>
      </trkpt>
      <trkpt lat="44.42898" lon="5.24624">
        <ele>650</ele>
        <time>2022-09-29T10:25:44Z</time>
      </trkpt>
      <trkpt lat="44.42898" lon="5.24625">
        <ele>650</ele>
        <time>2022-09-29T10:25:45Z</time>
      </trkpt>
      <trkpt lat="44.42898" lon="5.24626">
        <ele>650</ele>
        <time>2022-09-29T10:25:46Z</time>
      </trkpt>
      <trkpt lat="44.42899" lon="5.24627">
        <ele>650</ele>
        <time>2022-09-29T10:25:47Z</time>
      </trkpt>
      <trkpt lat="44.42899" lon="5.24628">
        <ele>650</ele>
        <time>2022-09-29T10:25:48Z</time>
      </trkpt>
      <trkpt lat="44.42899" lon="5.24629">
        <ele>650</ele>
        <time>2022-09-29T10:25:49Z</time>
      </trkpt>
      <trkpt lat="44.42899" lon="5.24631">
        <ele>650</ele>
        <time>2022-09-29T10:25:50Z</time>
      </trkpt>
      <trkpt lat="44.429" lon="5.24632">
        <ele>650</ele>
        <time>2022-09-29T10:25:51Z</time>
      </trkpt>
      <trkpt lat="44.429" lon="5.24633">
        <ele>650</ele>
        <time>2022-09-29T10:25:52Z</time>
      </trkpt>
      <trkpt lat="44.42901" lon="5.24634">
        <ele>651</ele>
        <time>2022-09-29T10:25:53Z</time>
      </trkpt>
      <trkpt lat="44.42901" lon="5.24635">
        <ele>651</ele>
        <time>2022-09-29T10:25:54Z</time>
      </trkpt>
      <trkpt lat="44.42902" lon="5.24636">
        <ele>651</ele>
        <time>2022-09-29T10:25:55Z</time>
      </trkpt>
      <trkpt lat="44.42902" lon="5.24637">
        <ele>651</ele>
        <time>2022-09-29T10:25:56Z</time>
      </trkpt>
      <trkpt lat="44.42903" lon="5.24637">
        <ele>651</ele>
        <time>2022-09-29T10:25:57Z</time>
      </trkpt>
      <trkpt lat="44.42903" lon="5.24638">
        <ele>652</ele>
        <time>2022-09-29T10:25:58Z</time>
      </trkpt>
      <trkpt lat="44.42904" lon="5.24639">
        <ele>652</ele>
        <time>2022-09-29T10:25:59Z</time>
      </trkpt>
      <trkpt lat="44.42905" lon="5.2464">
        <ele>652</ele>
        <time>2022-09-29T10:26:00Z</time>
      </trkpt>
      <trkpt lat="44.42905" lon="5.24641">
        <ele>652</ele>
        <time>2022-09-29T10:26:01Z</time>
      </trkpt>
      <trkpt lat="44.42906" lon="5.24642">
        <ele>652</ele>
        <time>2022-09-29T10:26:02Z</time>
      </trkpt>
      <trkpt lat="44.42907" lon="5.24643">
        <ele>652</ele>
        <time>2022-09-29T10:26:03Z</time>
      </trkpt>
      <trkpt lat="44.42907" lon="5.24644">
        <ele>652</ele>
        <time>2022-09-29T10:26:04Z</time>
      </trkpt>
      <trkpt lat="44.42908" lon="5.24645">
        <ele>652</ele>
        <time>2022-09-29T10:26:05Z</time>
      </trkpt>
      <trkpt lat="44.42908" lon="5.24646">
        <ele>652</ele>
        <time>2022-09-29T10:26:06Z</time>
      </trkpt>
      <trkpt lat="44.42909" lon="5.24646">
        <ele>652</ele>
        <time>2022-09-29T10:26:07Z</time>
      </trkpt>
      <trkpt lat="44.4291" lon="5.24647">
        <ele>653</ele>
        <time>2022-09-29T10:26:08Z</time>
      </trkpt>
      <trkpt lat="44.4291" lon="5.24648">
        <ele>653</ele>
        <time>2022-09-29T10:26:09Z</time>
      </trkpt>
      <trkpt lat="44.42911" lon="5.24649">
        <ele>653</ele>
        <time>2022-09-29T10:26:10Z</time>
      </trkpt>
      <trkpt lat="44.42912" lon="5.2465">
        <ele>653</ele>
        <time>2022-09-29T10:26:11Z</time>
      </trkpt>
      <trkpt lat="44.42912" lon="5.24651">
        <ele>653</ele>
        <time>2022-09-29T10:26:12Z</time>
      </trkpt>
      <trkpt lat="44.42913" lon="5.24652">
        <ele>653</ele>
        <time>2022-09-29T10:26:13Z</time>
      </trkpt>
      <trkpt lat="44.42913" lon="5.24653">
        <ele>653</ele>
        <time>2022-09-29T10:26:14Z</time>
      </trkpt>
      <trkpt lat="44.42913" lon="5.24653">
        <ele>653</ele>
        <time>2022-09-29T10:26:15Z</time>
      </trkpt>
      <trkpt lat="44.42914" lon="5.24654">
        <ele>653</ele>
        <time>2022-09-29T10:26:16Z</time>
      </trkpt>
      <trkpt lat="44.42914" lon="5.24655">
        <ele>653</ele>
        <time>2022-09-29T10:26:17Z</time>
      </trkpt>
      <trkpt lat="44.42915" lon="5.24656">
        <ele>654</ele>
        <time>2022-09-29T10:26:18Z</time>
      </trkpt>
      <trkpt lat="44.42915" lon="5.24657">
        <ele>654</ele>
        <time>2022-09-29T10:26:19Z</time>
      </trkpt>
      <trkpt lat="44.42916" lon="5.24657">
        <ele>654</ele>
        <time>2022-09-29T10:26:20Z</time>
      </trkpt>
      <trkpt lat="44.42916" lon="5.24658">
        <ele>654</ele>
        <time>2022-09-29T10:26:21Z</time>
      </trkpt>
      <trkpt lat="44.42917" lon="5.24659">
        <ele>654</ele>
        <time>2022-09-29T10:26:22Z</time>
      </trkpt>
      <trkpt lat="44.42917" lon="5.2466">
        <ele>655</ele>
        <time>2022-09-29T10:26:23Z</time>
      </trkpt>
      <trkpt lat="44.42918" lon="5.2466">
        <ele>655</ele>
        <time>2022-09-29T10:26:24Z</time>
      </trkpt>
      <trkpt lat="44.42919" lon="5.24661">
        <ele>655</ele>
        <time>2022-09-29T10:26:25Z</time>
      </trkpt>
      <trkpt lat="44.4292" lon="5.24662">
        <ele>655</ele>
        <time>2022-09-29T10:26:26Z</time>
      </trkpt>
      <trkpt lat="44.4292" lon="5.24662">
        <ele>655</ele>
        <time>2022-09-29T10:26:27Z</time>
      </trkpt>
      <trkpt lat="44.42921" lon="5.24663">
        <ele>655</ele>
        <time>2022-09-29T10:26:28Z</time>
      </trkpt>
      <trkpt lat="44.42922" lon="5.24664">
        <ele>655</ele>
        <time>2022-09-29T10:26:29Z</time>
      </trkpt>
      <trkpt lat="44.42923" lon="5.24664">
        <ele>655</ele>
        <time>2022-09-29T10:26:30Z</time>
      </trkpt>
      <trkpt lat="44.42924" lon="5.24665">
        <ele>655</ele>
        <time>2022-09-29T10:26:31Z</time>
      </trkpt>
      <trkpt lat="44.42924" lon="5.24666">
        <ele>655</ele>
        <time>2022-09-29T10:26:32Z</time>
      </trkpt>
      <trkpt lat="44.42925" lon="5.24666">
        <ele>656</ele>
        <time>2022-09-29T10:26:33Z</time>
      </trkpt>
      <trkpt lat="44.42926" lon="5.24667">
        <ele>656</ele>
        <time>2022-09-29T10:26:34Z</time>
      </trkpt>
      <trkpt lat="44.42927" lon="5.24667">
        <ele>656</ele>
        <time>2022-09-29T10:26:35Z</time>
      </trkpt>
      <trkpt lat="44.42927" lon="5.24668">
        <ele>656</ele>
        <time>2022-09-29T10:26:36Z</time>
      </trkpt>
      <trkpt lat="44.42928" lon="5.24669">
        <ele>656</ele>
        <time>2022-09-29T10:26:37Z</time>
      </trkpt>
      <trkpt lat="44.42928" lon="5.2467">
        <ele>656</ele>
        <time>2022-09-29T10:26:38Z</time>
      </trkpt>
      <trkpt lat="44.42929" lon="5.24671">
        <ele>656</ele>
        <time>2022-09-29T10:26:39Z</time>
      </trkpt>
      <trkpt lat="44.42929" lon="5.24672">
        <ele>656</ele>
        <time>2022-09-29T10:26:40Z</time>
      </trkpt>
      <trkpt lat="44.42929" lon="5.24673">
        <ele>656</ele>
        <time>2022-09-29T10:26:41Z</time>
      </trkpt>
      <trkpt lat="44.42929" lon="5.24674">
        <ele>656</ele>
        <time>2022-09-29T10:26:42Z</time>
      </trkpt>
      <trkpt lat="44.42929" lon="5.24675">
        <ele>657</ele>
        <time>2022-09-29T10:26:43Z</time>
      </trkpt>
      <trkpt lat="44.42929" lon="5.24677">
        <ele>657</ele>
        <time>2022-09-29T10:26:44Z</time>
      </trkpt>
      <trkpt lat="44.42929" lon="5.24678">
        <ele>657</ele>
        <time>2022-09-29T10:26:45Z</time>
      </trkpt>
      <trkpt lat="44.42928" lon="5.24679">
        <ele>657</ele>
        <time>2022-09-29T10:26:46Z</time>
      </trkpt>
      <trkpt lat="44.42928" lon="5.2468">
        <ele>657</ele>
        <time>2022-09-29T10:26:47Z</time>
      </trkpt>
      <trkpt lat="44.42927" lon="5.24681">
        <ele>658</ele>
        <time>2022-09-29T10:26:48Z</time>
      </trkpt>
      <trkpt lat="44.42927" lon="5.24682">
        <ele>658</ele>
        <time>2022-09-29T10:26:49Z</time>
      </trkpt>
      <trkpt lat="44.42926" lon="5.24683">
        <ele>658</ele>
        <time>2022-09-29T10:26:50Z</time>
      </trkpt>
      <trkpt lat="44.42926" lon="5.24685">
        <ele>658</ele>
        <time>2022-09-29T10:26:51Z</time>
      </trkpt>
      <trkpt lat="44.42926" lon="5.24686">
        <ele>658</ele>
        <time>2022-09-29T10:26:52Z</time>
      </trkpt>
      <trkpt lat="44.42925" lon="5.24687">
        <ele>658</ele>
        <time>2022-09-29T10:26:53Z</time>
      </trkpt>
      <trkpt lat="44.42925" lon="5.24688">
        <ele>658</ele>
        <time>2022-09-29T10:26:54Z</time>
      </trkpt>
      <trkpt lat="44.42925" lon="5.24689">
        <ele>658</ele>
        <time>2022-09-29T10:26:55Z</time>
      </trkpt>
      <trkpt lat="44.42925" lon="5.2469">
        <ele>658</ele>
        <time>2022-09-29T10:26:56Z</time>
      </trkpt>
      <trkpt lat="44.42924" lon="5.24692">
        <ele>658</ele>
        <time>2022-09-29T10:26:57Z</time>
      </trkpt>
      <trkpt lat="44.42924" lon="5.24693">
        <ele>658</ele>
        <time>2022-09-29T10:26:58Z</time>
      </trkpt>
      <trkpt lat="44.42923" lon="5.24694">
        <ele>658</ele>
        <time>2022-09-29T10:26:59Z</time>
      </trkpt>
      <trkpt lat="44.42923" lon="5.24695">
        <ele>658</ele>
        <time>2022-09-29T10:27:00Z</time>
      </trkpt>
      <trkpt lat="44.42922" lon="5.24696">
        <ele>658</ele>
        <time>2022-09-29T10:27:01Z</time>
      </trkpt>
      <trkpt lat="44.42922" lon="5.24697">
        <ele>658</ele>
        <time>2022-09-29T10:27:02Z</time>
      </trkpt>
      <trkpt lat="44.42921" lon="5.24698">
        <ele>658</ele>
        <time>2022-09-29T10:27:03Z</time>
      </trkpt>
      <trkpt lat="44.42921" lon="5.247">
        <ele>658</ele>
        <time>2022-09-29T10:27:04Z</time>
      </trkpt>
      <trkpt lat="44.4292" lon="5.24701">
        <ele>658</ele>
        <time>2022-09-29T10:27:05Z</time>
      </trkpt>
      <trkpt lat="44.4292" lon="5.24702">
        <ele>658</ele>
        <time>2022-09-29T10:27:06Z</time>
      </trkpt>
      <trkpt lat="44.4292" lon="5.24703">
        <ele>658</ele>
        <time>2022-09-29T10:27:07Z</time>
      </trkpt>
      <trkpt lat="44.42919" lon="5.24704">
        <ele>659</ele>
        <time>2022-09-29T10:27:08Z</time>
      </trkpt>
      <trkpt lat="44.42919" lon="5.24705">
        <ele>659</ele>
        <time>2022-09-29T10:27:09Z</time>
      </trkpt>
      <trkpt lat="44.42919" lon="5.24706">
        <ele>659</ele>
        <time>2022-09-29T10:27:10Z</time>
      </trkpt>
      <trkpt lat="44.42919" lon="5.24707">
        <ele>659</ele>
        <time>2022-09-29T10:27:11Z</time>
      </trkpt>
      <trkpt lat="44.42918" lon="5.24708">
        <ele>659</ele>
        <time>2022-09-29T10:27:12Z</time>
      </trkpt>
      <trkpt lat="44.42918" lon="5.24709">
        <ele>660</ele>
        <time>2022-09-29T10:27:13Z</time>
      </trkpt>
      <trkpt lat="44.42918" lon="5.2471">
        <ele>660</ele>
        <time>2022-09-29T10:27:14Z</time>
      </trkpt>
      <trkpt lat="44.42918" lon="5.24712">
        <ele>660</ele>
        <time>2022-09-29T10:27:15Z</time>
      </trkpt>
      <trkpt lat="44.42918" lon="5.24713">
        <ele>660</ele>
        <time>2022-09-29T10:27:16Z</time>
      </trkpt>
      <trkpt lat="44.42919" lon="5.24714">
        <ele>660</ele>
        <time>2022-09-29T10:27:17Z</time>
      </trkpt>
      <trkpt lat="44.42919" lon="5.24715">
        <ele>661</ele>
        <time>2022-09-29T10:27:18Z</time>
      </trkpt>
      <trkpt lat="44.4292" lon="5.24716">
        <ele>661</ele>
        <time>2022-09-29T10:27:19Z</time>
      </trkpt>
      <trkpt lat="44.4292" lon="5.24717">
        <ele>661</ele>
        <time>2022-09-29T10:27:20Z</time>
      </trkpt>
      <trkpt lat="44.42921" lon="5.24718">
        <ele>661</ele>
        <time>2022-09-29T10:27:21Z</time>
      </trkpt>
      <trkpt lat="44.42921" lon="5.24719">
        <ele>661</ele>
        <time>2022-09-29T10:27:22Z</time>
      </trkpt>
      <trkpt lat="44.42922" lon="5.2472">
        <ele>661</ele>
        <time>2022-09-29T10:27:23Z</time>
      </trkpt>
      <trkpt lat="44.42923" lon="5.24721">
        <ele>661</ele>
        <time>2022-09-29T10:27:24Z</time>
      </trkpt>
      <trkpt lat="44.42923" lon="5.24722">
        <ele>661</ele>
        <time>2022-09-29T10:27:25Z</time>
      </trkpt>
      <trkpt lat="44.42924" lon="5.24723">
        <ele>661</ele>
        <time>2022-09-29T10:27:26Z</time>
      </trkpt>
      <trkpt lat="44.42925" lon="5.24724">
        <ele>661</ele>
        <time>2022-09-29T10:27:27Z</time>
      </trkpt>
      <trkpt lat="44.42926" lon="5.24724">
        <ele>662</ele>
        <time>2022-09-29T10:27:28Z</time>
      </trkpt>
      <trkpt lat="44.42926" lon="5.24725">
        <ele>662</ele>
        <time>2022-09-29T10:27:29Z</time>
      </trkpt>
      <trkpt lat="44.42927" lon="5.24726">
        <ele>662</ele>
        <time>2022-09-29T10:27:30Z</time>
      </trkpt>
      <trkpt lat="44.42928" lon="5.24727">
        <ele>662</ele>
        <time>2022-09-29T10:27:31Z</time>
      </trkpt>
      <trkpt lat="44.42929" lon="5.24728">
        <ele>662</ele>
        <time>2022-09-29T10:27:32Z</time>
      </trkpt>
      <trkpt lat="44.42929" lon="5.24729">
        <ele>662</ele>
        <time>2022-09-29T10:27:33Z</time>
      </trkpt>
      <trkpt lat="44.4293" lon="5.2473">
        <ele>662</ele>
        <time>2022-09-29T10:27:34Z</time>
      </trkpt>
      <trkpt lat="44.4293" lon="5.24731">
        <ele>662</ele>
        <time>2022-09-29T10:27:35Z</time>
      </trkpt>
      <trkpt lat="44.42931" lon="5.24732">
        <ele>662</ele>
        <time>2022-09-29T10:27:36Z</time>
      </trkpt>
      <trkpt lat="44.42931" lon="5.24733">
        <ele>662</ele>
        <time>2022-09-29T10:27:37Z</time>
      </trkpt>
      <trkpt lat="44.42932" lon="5.24734">
        <ele>663</ele>
        <time>2022-09-29T10:27:38Z</time>
      </trkpt>
      <trkpt lat="44.42933" lon="5.24735">
        <ele>663</ele>
        <time>2022-09-29T10:27:39Z</time>
      </trkpt>
      <trkpt lat="44.42933" lon="5.24736">
        <ele>663</ele>
        <time>2022-09-29T10:27:40Z</time>
      </trkpt>
      <trkpt lat="44.42934" lon="5.24737">
        <ele>663</ele>
        <time>2022-09-29T10:27:41Z</time>
      </trkpt>
      <trkpt lat="44.42934" lon="5.24738">
        <ele>663</ele>
        <time>2022-09-29T10:27:42Z</time>
      </trkpt>
      <trkpt lat="44.42934" lon="5.24739">
        <ele>663</ele>
        <time>2022-09-29T10:27:43Z</time>
      </trkpt>
      <trkpt lat="44.42935" lon="5.2474">
        <ele>663</ele>
        <time>2022-09-29T10:27:44Z</time>
      </trkpt>
      <trkpt lat="44.42935" lon="5.24743">
        <ele>664</ele>
        <time>2022-09-29T10:30:50Z</time>
      </trkpt>
      <trkpt lat="44.42935" lon="5.24744">
        <ele>664</ele>
        <time>2022-09-29T10:30:51Z</time>
      </trkpt>
      <trkpt lat="44.42935" lon="5.24745">
        <ele>664</ele>
        <time>2022-09-29T10:30:52Z</time>
      </trkpt>
      <trkpt lat="44.42935" lon="5.24746">
        <ele>664</ele>
        <time>2022-09-29T10:30:53Z</time>
      </trkpt>
      <trkpt lat="44.42934" lon="5.24747">
        <ele>664</ele>
        <time>2022-09-29T10:30:54Z</time>
      </trkpt>
      <trkpt lat="44.42934" lon="5.24747">
        <ele>664</ele>
        <time>2022-09-29T10:30:55Z</time>
      </trkpt>
      <trkpt lat="44.42933" lon="5.24748">
        <ele>664</ele>
        <time>2022-09-29T10:30:56Z</time>
      </trkpt>
      <trkpt lat="44.42932" lon="5.24749">
        <ele>664</ele>
        <time>2022-09-29T10:30:57Z</time>
      </trkpt>
      <trkpt lat="44.42932" lon="5.2475">
        <ele>664</ele>
        <time>2022-09-29T10:30:58Z</time>
      </trkpt>
      <trkpt lat="44.42931" lon="5.2475">
        <ele>664</ele>
        <time>2022-09-29T10:30:59Z</time>
      </trkpt>
      <trkpt lat="44.42931" lon="5.24751">
        <ele>664</ele>
        <time>2022-09-29T10:31:00Z</time>
      </trkpt>
      <trkpt lat="44.4293" lon="5.24752">
        <ele>664</ele>
        <time>2022-09-29T10:31:01Z</time>
      </trkpt>
      <trkpt lat="44.4293" lon="5.24752">
        <ele>664</ele>
        <time>2022-09-29T10:31:02Z</time>
      </trkpt>
      <trkpt lat="44.42929" lon="5.24753">
        <ele>664</ele>
        <time>2022-09-29T10:31:03Z</time>
      </trkpt>
      <trkpt lat="44.42929" lon="5.24754">
        <ele>664</ele>
        <time>2022-09-29T10:31:04Z</time>
      </trkpt>
      <trkpt lat="44.42928" lon="5.24756">
        <ele>664</ele>
        <time>2022-09-29T10:31:05Z</time>
      </trkpt>
      <trkpt lat="44.42928" lon="5.24757">
        <ele>664</ele>
        <time>2022-09-29T10:31:06Z</time>
      </trkpt>
      <trkpt lat="44.42928" lon="5.24758">
        <ele>664</ele>
        <time>2022-09-29T10:31:07Z</time>
      </trkpt>
      <trkpt lat="44.42927" lon="5.2476">
        <ele>664</ele>
        <time>2022-09-29T10:31:08Z</time>
      </trkpt>
      <trkpt lat="44.42927" lon="5.24761">
        <ele>664</ele>
        <time>2022-09-29T10:31:09Z</time>
      </trkpt>
      <trkpt lat="44.42927" lon="5.24763">
        <ele>664</ele>
        <time>2022-09-29T10:31:10Z</time>
      </trkpt>
      <trkpt lat="44.42926" lon="5.24764">
        <ele>664</ele>
        <time>2022-09-29T10:31:11Z</time>
      </trkpt>
      <trkpt lat="44.42926" lon="5.24765">
        <ele>664</ele>
        <time>2022-09-29T10:31:12Z</time>
      </trkpt>
      <trkpt lat="44.42926" lon="5.24767">
        <ele>665</ele>
        <time>2022-09-29T10:31:13Z</time>
      </trkpt>
      <trkpt lat="44.42926" lon="5.24768">
        <ele>665</ele>
        <time>2022-09-29T10:31:14Z</time>
      </trkpt>
      <trkpt lat="44.42925" lon="5.24769">
        <ele>665</ele>
        <time>2022-09-29T10:31:15Z</time>
      </trkpt>
      <trkpt lat="44.42925" lon="5.24771">
        <ele>665</ele>
        <time>2022-09-29T10:31:16Z</time>
      </trkpt>
      <trkpt lat="44.42925" lon="5.24772">
        <ele>665</ele>
        <time>2022-09-29T10:31:17Z</time>
      </trkpt>
      <trkpt lat="44.42925" lon="5.24773">
        <ele>665</ele>
        <time>2022-09-29T10:31:18Z</time>
      </trkpt>
      <trkpt lat="44.42924" lon="5.24774">
        <ele>665</ele>
        <time>2022-09-29T10:31:19Z</time>
      </trkpt>
      <trkpt lat="44.42924" lon="5.24775">
        <ele>665</ele>
        <time>2022-09-29T10:31:20Z</time>
      </trkpt>
      <trkpt lat="44.42923" lon="5.24776">
        <ele>665</ele>
        <time>2022-09-29T10:31:21Z</time>
      </trkpt>
      <trkpt lat="44.42923" lon="5.24777">
        <ele>665</ele>
        <time>2022-09-29T10:31:22Z</time>
      </trkpt>
      <trkpt lat="44.42922" lon="5.24778">
        <ele>666</ele>
        <time>2022-09-29T10:31:23Z</time>
      </trkpt>
      <trkpt lat="44.42922" lon="5.24779">
        <ele>666</ele>
        <time>2022-09-29T10:31:24Z</time>
      </trkpt>
      <trkpt lat="44.42922" lon="5.2478">
        <ele>666</ele>
        <time>2022-09-29T10:31:25Z</time>
      </trkpt>
      <trkpt lat="44.42921" lon="5.24781">
        <ele>666</ele>
        <time>2022-09-29T10:31:26Z</time>
      </trkpt>
      <trkpt lat="44.42921" lon="5.24782">
        <ele>666</ele>
        <time>2022-09-29T10:31:27Z</time>
      </trkpt>
      <trkpt lat="44.42921" lon="5.24783">
        <ele>666</ele>
        <time>2022-09-29T10:31:28Z</time>
      </trkpt>
      <trkpt lat="44.4292" lon="5.24784">
        <ele>666</ele>
        <time>2022-09-29T10:31:29Z</time>
      </trkpt>
      <trkpt lat="44.4292" lon="5.24784">
        <ele>666</ele>
        <time>2022-09-29T10:31:30Z</time>
      </trkpt>
      <trkpt lat="44.42919" lon="5.24785">
        <ele>666</ele>
        <time>2022-09-29T10:31:31Z</time>
      </trkpt>
      <trkpt lat="44.42919" lon="5.24786">
        <ele>666</ele>
        <time>2022-09-29T10:31:32Z</time>
      </trkpt>
      <trkpt lat="44.42919" lon="5.24787">
        <ele>667</ele>
        <time>2022-09-29T10:31:33Z</time>
      </trkpt>
      <trkpt lat="44.42918" lon="5.24788">
        <ele>667</ele>
        <time>2022-09-29T10:31:34Z</time>
      </trkpt>
      <trkpt lat="44.42918" lon="5.24789">
        <ele>667</ele>
        <time>2022-09-29T10:31:35Z</time>
      </trkpt>
      <trkpt lat="44.42918" lon="5.2479">
        <ele>667</ele>
        <time>2022-09-29T10:31:36Z</time>
      </trkpt>
      <trkpt lat="44.42917" lon="5.24791">
        <ele>667</ele>
        <time>2022-09-29T10:31:37Z</time>
      </trkpt>
      <trkpt lat="44.42917" lon="5.24792">
        <ele>667</ele>
        <time>2022-09-29T10:31:38Z</time>
      </trkpt>
      <trkpt lat="44.42917" lon="5.24793">
        <ele>667</ele>
        <time>2022-09-29T10:31:39Z</time>
      </trkpt>
      <trkpt lat="44.42916" lon="5.24794">
        <ele>667</ele>
        <time>2022-09-29T10:31:40Z</time>
      </trkpt>
      <trkpt lat="44.42916" lon="5.24795">
        <ele>667</ele>
        <time>2022-09-29T10:31:41Z</time>
      </trkpt>
      <trkpt lat="44.42916" lon="5.24796">
        <ele>667</ele>
        <time>2022-09-29T10:31:42Z</time>
      </trkpt>
      <trkpt lat="44.42915" lon="5.24796">
        <ele>668</ele>
        <time>2022-09-29T10:31:43Z</time>
      </trkpt>
      <trkpt lat="44.42915" lon="5.24797">
        <ele>668</ele>
        <time>2022-09-29T10:31:44Z</time>
      </trkpt>
      <trkpt lat="44.42914" lon="5.24798">
        <ele>668</ele>
        <time>2022-09-29T10:31:45Z</time>
      </trkpt>
      <trkpt lat="44.42914" lon="5.24799">
        <ele>668</ele>
        <time>2022-09-29T10:31:46Z</time>
      </trkpt>
      <trkpt lat="44.42913" lon="5.248">
        <ele>668</ele>
        <time>2022-09-29T10:31:47Z</time>
      </trkpt>
      <trkpt lat="44.42913" lon="5.24801">
        <ele>669</ele>
        <time>2022-09-29T10:31:48Z</time>
      </trkpt>
      <trkpt lat="44.42913" lon="5.24802">
        <ele>669</ele>
        <time>2022-09-29T10:31:49Z</time>
      </trkpt>
      <trkpt lat="44.42912" lon="5.24803">
        <ele>669</ele>
        <time>2022-09-29T10:31:50Z</time>
      </trkpt>
      <trkpt lat="44.42912" lon="5.24804">
        <ele>669</ele>
        <time>2022-09-29T10:31:51Z</time>
      </trkpt>
      <trkpt lat="44.42912" lon="5.24805">
        <ele>669</ele>
        <time>2022-09-29T10:31:52Z</time>
      </trkpt>
      <trkpt lat="44.42912" lon="5.24806">
        <ele>670</ele>
        <time>2022-09-29T10:31:53Z</time>
      </trkpt>
      <trkpt lat="44.42912" lon="5.24807">
        <ele>670</ele>
        <time>2022-09-29T10:31:54Z</time>
      </trkpt>
      <trkpt lat="44.42911" lon="5.24808">
        <ele>670</ele>
        <time>2022-09-29T10:31:55Z</time>
      </trkpt>
      <trkpt lat="44.42911" lon="5.24809">
        <ele>670</ele>
        <time>2022-09-29T10:31:56Z</time>
      </trkpt>
      <trkpt lat="44.42911" lon="5.2481">
        <ele>670</ele>
        <time>2022-09-29T10:31:57Z</time>
      </trkpt>
      <trkpt lat="44.42911" lon="5.24811">
        <ele>670</ele>
        <time>2022-09-29T10:31:58Z</time>
      </trkpt>
      <trkpt lat="44.42911" lon="5.24812">
        <ele>670</ele>
        <time>2022-09-29T10:31:59Z</time>
      </trkpt>
      <trkpt lat="44.42911" lon="5.24812">
        <ele>670</ele>
        <time>2022-09-29T10:32:00Z</time>
      </trkpt>
      <trkpt lat="44.4291" lon="5.24813">
        <ele>670</ele>
        <time>2022-09-29T10:32:01Z</time>
      </trkpt>
      <trkpt lat="44.4291" lon="5.24814">
        <ele>670</ele>
        <time>2022-09-29T10:32:02Z</time>
      </trkpt>
      <trkpt lat="44.4291" lon="5.24815">
        <ele>671</ele>
        <time>2022-09-29T10:32:03Z</time>
      </trkpt>
      <trkpt lat="44.4291" lon="5.24816">
        <ele>671</ele>
        <time>2022-09-29T10:32:04Z</time>
      </trkpt>
      <trkpt lat="44.42909" lon="5.24817">
        <ele>671</ele>
        <time>2022-09-29T10:32:05Z</time>
      </trkpt>
      <trkpt lat="44.42909" lon="5.24818">
        <ele>671</ele>
        <time>2022-09-29T10:32:06Z</time>
      </trkpt>
      <trkpt lat="44.42909" lon="5.24819">
        <ele>671</ele>
        <time>2022-09-29T10:32:07Z</time>
      </trkpt>
      <trkpt lat="44.42909" lon="5.2482">
        <ele>672</ele>
        <time>2022-09-29T10:32:08Z</time>
      </trkpt>
      <trkpt lat="44.42909" lon="5.24821">
        <ele>672</ele>
        <time>2022-09-29T10:32:09Z</time>
      </trkpt>
      <trkpt lat="44.42909" lon="5.24822">
        <ele>672</ele>
        <time>2022-09-29T10:32:10Z</time>
      </trkpt>
      <trkpt lat="44.42909" lon="5.24823">
        <ele>672</ele>
        <time>2022-09-29T10:32:11Z</time>
      </trkpt>
      <trkpt lat="44.42909" lon="5.24824">
        <ele>672</ele>
        <time>2022-09-29T10:32:12Z</time>
      </trkpt>
      <trkpt lat="44.42909" lon="5.24825">
        <ele>673</ele>
        <time>2022-09-29T10:32:13Z</time>
      </trkpt>
      <trkpt lat="44.42909" lon="5.24827">
        <ele>673</ele>
        <time>2022-09-29T10:32:14Z</time>
      </trkpt>
      <trkpt lat="44.42909" lon="5.24828">
        <ele>673</ele>
        <time>2022-09-29T10:32:15Z</time>
      </trkpt>
      <trkpt lat="44.42909" lon="5.24829">
        <ele>673</ele>
        <time>2022-09-29T10:32:16Z</time>
      </trkpt>
      <trkpt lat="44.42909" lon="5.2483">
        <ele>673</ele>
        <time>2022-09-29T10:32:17Z</time>
      </trkpt>
      <trkpt lat="44.42909" lon="5.24831">
        <ele>674</ele>
        <time>2022-09-29T10:32:18Z</time>
      </trkpt>
      <trkpt lat="44.42909" lon="5.24832">
        <ele>674</ele>
        <time>2022-09-29T10:32:19Z</time>
      </trkpt>
      <trkpt lat="44.42909" lon="5.24833">
        <ele>674</ele>
        <time>2022-09-29T10:32:20Z</time>
      </trkpt>
      <trkpt lat="44.42909" lon="5.24834">
        <ele>674</ele>
        <time>2022-09-29T10:32:21Z</time>
      </trkpt>
      <trkpt lat="44.42909" lon="5.24835">
        <ele>674</ele>
        <time>2022-09-29T10:32:22Z</time>
      </trkpt>
      <trkpt lat="44.42909" lon="5.24836">
        <ele>674</ele>
        <time>2022-09-29T10:32:23Z</time>
      </trkpt>
      <trkpt lat="44.42909" lon="5.24838">
        <ele>674</ele>
        <time>2022-09-29T10:32:24Z</time>
      </trkpt>
      <trkpt lat="44.42909" lon="5.24839">
        <ele>674</ele>
        <time>2022-09-29T10:32:25Z</time>
      </trkpt>
      <trkpt lat="44.42909" lon="5.2484">
        <ele>674</ele>
        <time>2022-09-29T10:32:26Z</time>
      </trkpt>
      <trkpt lat="44.42909" lon="5.24841">
        <ele>674</ele>
        <time>2022-09-29T10:32:27Z</time>
      </trkpt>
      <trkpt lat="44.42909" lon="5.24842">
        <ele>675</ele>
        <time>2022-09-29T10:32:28Z</time>
      </trkpt>
      <trkpt lat="44.42909" lon="5.24843">
        <ele>675</ele>
        <time>2022-09-29T10:32:29Z</time>
      </trkpt>
      <trkpt lat="44.42909" lon="5.24844">
        <ele>675</ele>
        <time>2022-09-29T10:32:30Z</time>
      </trkpt>
      <trkpt lat="44.42909" lon="5.24845">
        <ele>675</ele>
        <time>2022-09-29T10:32:31Z</time>
      </trkpt>
      <trkpt lat="44.42909" lon="5.24845">
        <ele>675</ele>
        <time>2022-09-29T10:32:32Z</time>
      </trkpt>
      <trkpt lat="44.42909" lon="5.24846">
        <ele>676</ele>
        <time>2022-09-29T10:32:33Z</time>
      </trkpt>
      <trkpt lat="44.42909" lon="5.24847">
        <ele>676</ele>
        <time>2022-09-29T10:32:34Z</time>
      </trkpt>
      <trkpt lat="44.42908" lon="5.24848">
        <ele>676</ele>
        <time>2022-09-29T10:32:35Z</time>
      </trkpt>
      <trkpt lat="44.42908" lon="5.24849">
        <ele>676</ele>
        <time>2022-09-29T10:32:36Z</time>
      </trkpt>
      <trkpt lat="44.42908" lon="5.2485">
        <ele>676</ele>
        <time>2022-09-29T10:32:37Z</time>
      </trkpt>
      <trkpt lat="44.42908" lon="5.24851">
        <ele>677</ele>
        <time>2022-09-29T10:32:38Z</time>
      </trkpt>
      <trkpt lat="44.42908" lon="5.24851">
        <ele>677</ele>
        <time>2022-09-29T10:32:39Z</time>
      </trkpt>
      <trkpt lat="44.42907" lon="5.24852">
        <ele>677</ele>
        <time>2022-09-29T10:32:40Z</time>
      </trkpt>
      <trkpt lat="44.42907" lon="5.24852">
        <ele>677</ele>
        <time>2022-09-29T10:32:41Z</time>
      </trkpt>
      <trkpt lat="44.42907" lon="5.24853">
        <ele>677</ele>
        <time>2022-09-29T10:32:42Z</time>
      </trkpt>
      <trkpt lat="44.42906" lon="5.24854">
        <ele>678</ele>
        <time>2022-09-29T10:32:43Z</time>
      </trkpt>
      <trkpt lat="44.42906" lon="5.24855">
        <ele>678</ele>
        <time>2022-09-29T10:32:44Z</time>
      </trkpt>
      <trkpt lat="44.42905" lon="5.24856">
        <ele>678</ele>
        <time>2022-09-29T10:32:45Z</time>
      </trkpt>
      <trkpt lat="44.42905" lon="5.24857">
        <ele>678</ele>
        <time>2022-09-29T10:32:46Z</time>
      </trkpt>
      <trkpt lat="44.42905" lon="5.24857">
        <ele>678</ele>
        <time>2022-09-29T10:32:47Z</time>
      </trkpt>
      <trkpt lat="44.42904" lon="5.24858">
        <ele>678</ele>
        <time>2022-09-29T10:32:48Z</time>
      </trkpt>
      <trkpt lat="44.42904" lon="5.24859">
        <ele>678</ele>
        <time>2022-09-29T10:32:49Z</time>
      </trkpt>
      <trkpt lat="44.42903" lon="5.2486">
        <ele>678</ele>
        <time>2022-09-29T10:32:50Z</time>
      </trkpt>
      <trkpt lat="44.42902" lon="5.2486">
        <ele>678</ele>
        <time>2022-09-29T10:32:51Z</time>
      </trkpt>
      <trkpt lat="44.42902" lon="5.24861">
        <ele>678</ele>
        <time>2022-09-29T10:32:52Z</time>
      </trkpt>
      <trkpt lat="44.42901" lon="5.24861">
        <ele>679</ele>
        <time>2022-09-29T10:32:53Z</time>
      </trkpt>
      <trkpt lat="44.42901" lon="5.24862">
        <ele>679</ele>
        <time>2022-09-29T10:32:54Z</time>
      </trkpt>
      <trkpt lat="44.42901" lon="5.24862">
        <ele>679</ele>
        <time>2022-09-29T10:32:55Z</time>
      </trkpt>
      <trkpt lat="44.429" lon="5.24863">
        <ele>679</ele>
        <time>2022-09-29T10:32:56Z</time>
      </trkpt>
      <trkpt lat="44.429" lon="5.24863">
        <ele>679</ele>
        <time>2022-09-29T10:32:57Z</time>
      </trkpt>
      <trkpt lat="44.42899" lon="5.24864">
        <ele>679</ele>
        <time>2022-09-29T10:32:58Z</time>
      </trkpt>
      <trkpt lat="44.42899" lon="5.24864">
        <ele>679</ele>
        <time>2022-09-29T10:32:59Z</time>
      </trkpt>
      <trkpt lat="44.42898" lon="5.24865">
        <ele>679</ele>
        <time>2022-09-29T10:33:00Z</time>
      </trkpt>
      <trkpt lat="44.42898" lon="5.24866">
        <ele>679</ele>
        <time>2022-09-29T10:33:01Z</time>
      </trkpt>
      <trkpt lat="44.42897" lon="5.24866">
        <ele>679</ele>
        <time>2022-09-29T10:33:02Z</time>
      </trkpt>
      <trkpt lat="44.42897" lon="5.24867">
        <ele>680</ele>
        <time>2022-09-29T10:33:03Z</time>
      </trkpt>
      <trkpt lat="44.42896" lon="5.24868">
        <ele>680</ele>
        <time>2022-09-29T10:33:04Z</time>
      </trkpt>
      <trkpt lat="44.42896" lon="5.24868">
        <ele>680</ele>
        <time>2022-09-29T10:33:05Z</time>
      </trkpt>
      <trkpt lat="44.42895" lon="5.24869">
        <ele>680</ele>
        <time>2022-09-29T10:33:06Z</time>
      </trkpt>
      <trkpt lat="44.42895" lon="5.24869">
        <ele>680</ele>
        <time>2022-09-29T10:33:07Z</time>
      </trkpt>
      <trkpt lat="44.42894" lon="5.24869">
        <ele>681</ele>
        <time>2022-09-29T10:33:08Z</time>
      </trkpt>
      <trkpt lat="44.42894" lon="5.2487">
        <ele>681</ele>
        <time>2022-09-29T10:33:09Z</time>
      </trkpt>
      <trkpt lat="44.42893" lon="5.2487">
        <ele>681</ele>
        <time>2022-09-29T10:33:10Z</time>
      </trkpt>
      <trkpt lat="44.42893" lon="5.24871">
        <ele>681</ele>
        <time>2022-09-29T10:33:11Z</time>
      </trkpt>
      <trkpt lat="44.42892" lon="5.24871">
        <ele>681</ele>
        <time>2022-09-29T10:33:12Z</time>
      </trkpt>
      <trkpt lat="44.42892" lon="5.24872">
        <ele>681</ele>
        <time>2022-09-29T10:33:13Z</time>
      </trkpt>
      <trkpt lat="44.42892" lon="5.24872">
        <ele>681</ele>
        <time>2022-09-29T10:33:14Z</time>
      </trkpt>
      <trkpt lat="44.42891" lon="5.24873">
        <ele>681</ele>
        <time>2022-09-29T10:33:15Z</time>
      </trkpt>
      <trkpt lat="44.42891" lon="5.24873">
        <ele>681</ele>
        <time>2022-09-29T10:33:16Z</time>
      </trkpt>
      <trkpt lat="44.42891" lon="5.24874">
        <ele>681</ele>
        <time>2022-09-29T10:33:17Z</time>
      </trkpt>
      <trkpt lat="44.42891" lon="5.24874">
        <ele>682</ele>
        <time>2022-09-29T10:33:18Z</time>
      </trkpt>
      <trkpt lat="44.4289" lon="5.24875">
        <ele>682</ele>
        <time>2022-09-29T10:33:19Z</time>
      </trkpt>
      <trkpt lat="44.4289" lon="5.24876">
        <ele>682</ele>
        <time>2022-09-29T10:33:20Z</time>
      </trkpt>
      <trkpt lat="44.4289" lon="5.24877">
        <ele>682</ele>
        <time>2022-09-29T10:33:21Z</time>
      </trkpt>
      <trkpt lat="44.4289" lon="5.24877">
        <ele>682</ele>
        <time>2022-09-29T10:33:22Z</time>
      </trkpt>
      <trkpt lat="44.42889" lon="5.24877">
        <ele>683</ele>
        <time>2022-09-29T10:33:23Z</time>
      </trkpt>
      <trkpt lat="44.42889" lon="5.24878">
        <ele>683</ele>
        <time>2022-09-29T10:33:24Z</time>
      </trkpt>
      <trkpt lat="44.42889" lon="5.24879">
        <ele>683</ele>
        <time>2022-09-29T10:33:25Z</time>
      </trkpt>
      <trkpt lat="44.42888" lon="5.24879">
        <ele>683</ele>
        <time>2022-09-29T10:33:26Z</time>
      </trkpt>
      <trkpt lat="44.42888" lon="5.2488">
        <ele>683</ele>
        <time>2022-09-29T10:33:27Z</time>
      </trkpt>
      <trkpt lat="44.42888" lon="5.2488">
        <ele>684</ele>
        <time>2022-09-29T10:33:28Z</time>
      </trkpt>
      <trkpt lat="44.42887" lon="5.24881">
        <ele>684</ele>
        <time>2022-09-29T10:33:29Z</time>
      </trkpt>
      <trkpt lat="44.42887" lon="5.24882">
        <ele>684</ele>
        <time>2022-09-29T10:33:30Z</time>
      </trkpt>
      <trkpt lat="44.42887" lon="5.24883">
        <ele>684</ele>
        <time>2022-09-29T10:33:31Z</time>
      </trkpt>
      <trkpt lat="44.42887" lon="5.24883">
        <ele>684</ele>
        <time>2022-09-29T10:33:32Z</time>
      </trkpt>
      <trkpt lat="44.42887" lon="5.24884">
        <ele>684</ele>
        <time>2022-09-29T10:33:33Z</time>
      </trkpt>
      <trkpt lat="44.42887" lon="5.24885">
        <ele>684</ele>
        <time>2022-09-29T10:33:34Z</time>
      </trkpt>
      <trkpt lat="44.42886" lon="5.24886">
        <ele>684</ele>
        <time>2022-09-29T10:33:35Z</time>
      </trkpt>
      <trkpt lat="44.42886" lon="5.24887">
        <ele>684</ele>
        <time>2022-09-29T10:33:36Z</time>
      </trkpt>
      <trkpt lat="44.42886" lon="5.24888">
        <ele>684</ele>
        <time>2022-09-29T10:33:37Z</time>
      </trkpt>
      <trkpt lat="44.42886" lon="5.24889">
        <ele>685</ele>
        <time>2022-09-29T10:33:38Z</time>
      </trkpt>
      <trkpt lat="44.42886" lon="5.2489">
        <ele>685</ele>
        <time>2022-09-29T10:33:39Z</time>
      </trkpt>
      <trkpt lat="44.42886" lon="5.24891">
        <ele>685</ele>
        <time>2022-09-29T10:33:40Z</time>
      </trkpt>
      <trkpt lat="44.42886" lon="5.24892">
        <ele>685</ele>
        <time>2022-09-29T10:33:41Z</time>
      </trkpt>
      <trkpt lat="44.42886" lon="5.24893">
        <ele>685</ele>
        <time>2022-09-29T10:33:42Z</time>
      </trkpt>
      <trkpt lat="44.42886" lon="5.24894">
        <ele>686</ele>
        <time>2022-09-29T10:33:43Z</time>
      </trkpt>
      <trkpt lat="44.42886" lon="5.24895">
        <ele>686</ele>
        <time>2022-09-29T10:33:44Z</time>
      </trkpt>
      <trkpt lat="44.42886" lon="5.24895">
        <ele>686</ele>
        <time>2022-09-29T10:33:45Z</time>
      </trkpt>
      <trkpt lat="44.42886" lon="5.24896">
        <ele>686</ele>
        <time>2022-09-29T10:33:46Z</time>
      </trkpt>
      <trkpt lat="44.42886" lon="5.24896">
        <ele>686</ele>
        <time>2022-09-29T10:33:47Z</time>
      </trkpt>
      <trkpt lat="44.42886" lon="5.24896">
        <ele>686</ele>
        <time>2022-09-29T10:33:48Z</time>
      </trkpt>
      <trkpt lat="44.42886" lon="5.24897">
        <ele>686</ele>
        <time>2022-09-29T10:33:49Z</time>
      </trkpt>
      <trkpt lat="44.42886" lon="5.24898">
        <ele>686</ele>
        <time>2022-09-29T10:33:50Z</time>
      </trkpt>
      <trkpt lat="44.42885" lon="5.24899">
        <ele>686</ele>
        <time>2022-09-29T10:33:51Z</time>
      </trkpt>
      <trkpt lat="44.42885" lon="5.249">
        <ele>686</ele>
        <time>2022-09-29T10:33:52Z</time>
      </trkpt>
      <trkpt lat="44.42885" lon="5.24901">
        <ele>687</ele>
        <time>2022-09-29T10:33:53Z</time>
      </trkpt>
      <trkpt lat="44.42885" lon="5.24902">
        <ele>687</ele>
        <time>2022-09-29T10:33:54Z</time>
      </trkpt>
      <trkpt lat="44.42884" lon="5.24903">
        <ele>687</ele>
        <time>2022-09-29T10:33:55Z</time>
      </trkpt>
      <trkpt lat="44.42884" lon="5.24904">
        <ele>687</ele>
        <time>2022-09-29T10:33:56Z</time>
      </trkpt>
      <trkpt lat="44.42884" lon="5.24905">
        <ele>687</ele>
        <time>2022-09-29T10:33:57Z</time>
      </trkpt>
      <trkpt lat="44.42884" lon="5.24906">
        <ele>687</ele>
        <time>2022-09-29T10:33:58Z</time>
      </trkpt>
      <trkpt lat="44.42884" lon="5.24907">
        <ele>687</ele>
        <time>2022-09-29T10:33:59Z</time>
      </trkpt>
      <trkpt lat="44.42883" lon="5.24907">
        <ele>687</ele>
        <time>2022-09-29T10:34:00Z</time>
      </trkpt>
      <trkpt lat="44.42883" lon="5.24908">
        <ele>688</ele>
        <time>2022-09-29T10:34:01Z</time>
      </trkpt>
      <trkpt lat="44.42883" lon="5.24909">
        <ele>688</ele>
        <time>2022-09-29T10:34:02Z</time>
      </trkpt>
      <trkpt lat="44.42882" lon="5.2491">
        <ele>689</ele>
        <time>2022-09-29T10:34:03Z</time>
      </trkpt>
      <trkpt lat="44.42882" lon="5.24911">
        <ele>689</ele>
        <time>2022-09-29T10:34:04Z</time>
      </trkpt>
      <trkpt lat="44.42882" lon="5.24911">
        <ele>689</ele>
        <time>2022-09-29T10:34:05Z</time>
      </trkpt>
      <trkpt lat="44.42881" lon="5.24912">
        <ele>689</ele>
        <time>2022-09-29T10:34:06Z</time>
      </trkpt>
      <trkpt lat="44.42881" lon="5.24913">
        <ele>689</ele>
        <time>2022-09-29T10:34:07Z</time>
      </trkpt>
      <trkpt lat="44.42881" lon="5.24914">
        <ele>690</ele>
        <time>2022-09-29T10:34:08Z</time>
      </trkpt>
      <trkpt lat="44.42881" lon="5.24914">
        <ele>690</ele>
        <time>2022-09-29T10:34:09Z</time>
      </trkpt>
      <trkpt lat="44.4288" lon="5.24915">
        <ele>690</ele>
        <time>2022-09-29T10:34:10Z</time>
      </trkpt>
      <trkpt lat="44.4288" lon="5.24916">
        <ele>690</ele>
        <time>2022-09-29T10:34:11Z</time>
      </trkpt>
      <trkpt lat="44.4288" lon="5.24917">
        <ele>690</ele>
        <time>2022-09-29T10:34:12Z</time>
      </trkpt>
      <trkpt lat="44.42879" lon="5.24917">
        <ele>691</ele>
        <time>2022-09-29T10:34:13Z</time>
      </trkpt>
      <trkpt lat="44.42879" lon="5.24918">
        <ele>691</ele>
        <time>2022-09-29T10:34:14Z</time>
      </trkpt>
      <trkpt lat="44.42879" lon="5.24919">
        <ele>691</ele>
        <time>2022-09-29T10:34:15Z</time>
      </trkpt>
      <trkpt lat="44.42879" lon="5.2492">
        <ele>691</ele>
        <time>2022-09-29T10:34:16Z</time>
      </trkpt>
      <trkpt lat="44.42878" lon="5.24921">
        <ele>691</ele>
        <time>2022-09-29T10:34:17Z</time>
      </trkpt>
      <trkpt lat="44.42878" lon="5.24922">
        <ele>691</ele>
        <time>2022-09-29T10:34:18Z</time>
      </trkpt>
      <trkpt lat="44.42878" lon="5.24923">
        <ele>691</ele>
        <time>2022-09-29T10:34:19Z</time>
      </trkpt>
      <trkpt lat="44.42877" lon="5.24926">
        <ele>692</ele>
        <time>2022-09-29T10:34:45Z</time>
      </trkpt>
      <trkpt lat="44.42876" lon="5.24927">
        <ele>692</ele>
        <time>2022-09-29T10:34:46Z</time>
      </trkpt>
      <trkpt lat="44.42876" lon="5.24928">
        <ele>692</ele>
        <time>2022-09-29T10:34:47Z</time>
      </trkpt>
      <trkpt lat="44.42876" lon="5.24928">
        <ele>693</ele>
        <time>2022-09-29T10:34:48Z</time>
      </trkpt>
      <trkpt lat="44.42875" lon="5.24929">
        <ele>693</ele>
        <time>2022-09-29T10:34:49Z</time>
      </trkpt>
      <trkpt lat="44.42875" lon="5.2493">
        <ele>693</ele>
        <time>2022-09-29T10:34:50Z</time>
      </trkpt>
      <trkpt lat="44.42875" lon="5.24931">
        <ele>693</ele>
        <time>2022-09-29T10:34:51Z</time>
      </trkpt>
      <trkpt lat="44.42875" lon="5.24932">
        <ele>693</ele>
        <time>2022-09-29T10:34:52Z</time>
      </trkpt>
      <trkpt lat="44.42874" lon="5.24933">
        <ele>693</ele>
        <time>2022-09-29T10:34:53Z</time>
      </trkpt>
      <trkpt lat="44.42874" lon="5.24934">
        <ele>693</ele>
        <time>2022-09-29T10:34:54Z</time>
      </trkpt>
      <trkpt lat="44.42873" lon="5.24935">
        <ele>693</ele>
        <time>2022-09-29T10:34:55Z</time>
      </trkpt>
      <trkpt lat="44.42873" lon="5.24936">
        <ele>693</ele>
        <time>2022-09-29T10:34:56Z</time>
      </trkpt>
      <trkpt lat="44.42872" lon="5.24937">
        <ele>693</ele>
        <time>2022-09-29T10:34:57Z</time>
      </trkpt>
      <trkpt lat="44.42872" lon="5.24938">
        <ele>694</ele>
        <time>2022-09-29T10:34:58Z</time>
      </trkpt>
      <trkpt lat="44.42872" lon="5.24939">
        <ele>694</ele>
        <time>2022-09-29T10:34:59Z</time>
      </trkpt>
      <trkpt lat="44.42871" lon="5.2494">
        <ele>694</ele>
        <time>2022-09-29T10:35:00Z</time>
      </trkpt>
      <trkpt lat="44.42871" lon="5.24941">
        <ele>694</ele>
        <time>2022-09-29T10:35:01Z</time>
      </trkpt>
      <trkpt lat="44.42871" lon="5.24942">
        <ele>694</ele>
        <time>2022-09-29T10:35:02Z</time>
      </trkpt>
      <trkpt lat="44.42871" lon="5.24943">
        <ele>695</ele>
        <time>2022-09-29T10:35:03Z</time>
      </trkpt>
      <trkpt lat="44.4287" lon="5.24944">
        <ele>695</ele>
        <time>2022-09-29T10:35:04Z</time>
      </trkpt>
      <trkpt lat="44.4287" lon="5.24945">
        <ele>695</ele>
        <time>2022-09-29T10:35:05Z</time>
      </trkpt>
      <trkpt lat="44.4287" lon="5.24946">
        <ele>695</ele>
        <time>2022-09-29T10:35:06Z</time>
      </trkpt>
      <trkpt lat="44.42869" lon="5.24947">
        <ele>695</ele>
        <time>2022-09-29T10:35:07Z</time>
      </trkpt>
      <trkpt lat="44.42869" lon="5.24947">
        <ele>695</ele>
        <time>2022-09-29T10:35:08Z</time>
      </trkpt>
      <trkpt lat="44.42868" lon="5.24948">
        <ele>695</ele>
        <time>2022-09-29T10:35:09Z</time>
      </trkpt>
      <trkpt lat="44.42868" lon="5.24949">
        <ele>695</ele>
        <time>2022-09-29T10:35:10Z</time>
      </trkpt>
      <trkpt lat="44.42868" lon="5.24949">
        <ele>695</ele>
        <time>2022-09-29T10:35:11Z</time>
      </trkpt>
      <trkpt lat="44.42867" lon="5.2495">
        <ele>695</ele>
        <time>2022-09-29T10:35:12Z</time>
      </trkpt>
      <trkpt lat="44.42867" lon="5.24951">
        <ele>696</ele>
        <time>2022-09-29T10:35:13Z</time>
      </trkpt>
      <trkpt lat="44.42867" lon="5.24952">
        <ele>696</ele>
        <time>2022-09-29T10:35:14Z</time>
      </trkpt>
      <trkpt lat="44.42866" lon="5.24953">
        <ele>696</ele>
        <time>2022-09-29T10:35:15Z</time>
      </trkpt>
      <trkpt lat="44.42866" lon="5.24954">
        <ele>696</ele>
        <time>2022-09-29T10:35:16Z</time>
      </trkpt>
      <trkpt lat="44.42865" lon="5.24955">
        <ele>696</ele>
        <time>2022-09-29T10:35:17Z</time>
      </trkpt>
      <trkpt lat="44.42865" lon="5.24956">
        <ele>697</ele>
        <time>2022-09-29T10:35:18Z</time>
      </trkpt>
      <trkpt lat="44.42865" lon="5.24957">
        <ele>697</ele>
        <time>2022-09-29T10:35:19Z</time>
      </trkpt>
      <trkpt lat="44.42864" lon="5.24958">
        <ele>697</ele>
        <time>2022-09-29T10:35:20Z</time>
      </trkpt>
      <trkpt lat="44.42864" lon="5.24959">
        <ele>697</ele>
        <time>2022-09-29T10:35:21Z</time>
      </trkpt>
      <trkpt lat="44.42864" lon="5.2496">
        <ele>697</ele>
        <time>2022-09-29T10:35:22Z</time>
      </trkpt>
      <trkpt lat="44.42864" lon="5.24962">
        <ele>698</ele>
        <time>2022-09-29T10:35:23Z</time>
      </trkpt>
      <trkpt lat="44.42864" lon="5.24963">
        <ele>698</ele>
        <time>2022-09-29T10:35:24Z</time>
      </trkpt>
      <trkpt lat="44.42864" lon="5.24964">
        <ele>698</ele>
        <time>2022-09-29T10:35:25Z</time>
      </trkpt>
      <trkpt lat="44.42864" lon="5.24965">
        <ele>698</ele>
        <time>2022-09-29T10:35:26Z</time>
      </trkpt>
      <trkpt lat="44.42864" lon="5.24966">
        <ele>698</ele>
        <time>2022-09-29T10:35:27Z</time>
      </trkpt>
      <trkpt lat="44.42864" lon="5.24967">
        <ele>699</ele>
        <time>2022-09-29T10:35:28Z</time>
      </trkpt>
      <trkpt lat="44.42864" lon="5.24968">
        <ele>699</ele>
        <time>2022-09-29T10:35:29Z</time>
      </trkpt>
      <trkpt lat="44.42864" lon="5.2497">
        <ele>699</ele>
        <time>2022-09-29T10:35:30Z</time>
      </trkpt>
      <trkpt lat="44.42864" lon="5.24971">
        <ele>699</ele>
        <time>2022-09-29T10:35:31Z</time>
      </trkpt>
      <trkpt lat="44.42863" lon="5.24972">
        <ele>699</ele>
        <time>2022-09-29T10:35:32Z</time>
      </trkpt>
      <trkpt lat="44.42863" lon="5.24973">
        <ele>700</ele>
        <time>2022-09-29T10:35:33Z</time>
      </trkpt>
      <trkpt lat="44.42862" lon="5.24974">
        <ele>700</ele>
        <time>2022-09-29T10:35:34Z</time>
      </trkpt>
      <trkpt lat="44.42862" lon="5.24975">
        <ele>700</ele>
        <time>2022-09-29T10:35:35Z</time>
      </trkpt>
      <trkpt lat="44.42861" lon="5.24976">
        <ele>700</ele>
        <time>2022-09-29T10:35:36Z</time>
      </trkpt>
      <trkpt lat="44.42861" lon="5.24976">
        <ele>700</ele>
        <time>2022-09-29T10:35:37Z</time>
      </trkpt>
      <trkpt lat="44.4286" lon="5.24977">
        <ele>700</ele>
        <time>2022-09-29T10:35:38Z</time>
      </trkpt>
      <trkpt lat="44.4286" lon="5.24978">
        <ele>700</ele>
        <time>2022-09-29T10:35:39Z</time>
      </trkpt>
      <trkpt lat="44.4286" lon="5.24979">
        <ele>700</ele>
        <time>2022-09-29T10:35:40Z</time>
      </trkpt>
      <trkpt lat="44.42859" lon="5.2498">
        <ele>700</ele>
        <time>2022-09-29T10:35:41Z</time>
      </trkpt>
      <trkpt lat="44.42859" lon="5.24981">
        <ele>700</ele>
        <time>2022-09-29T10:35:42Z</time>
      </trkpt>
      <trkpt lat="44.42859" lon="5.24982">
        <ele>701</ele>
        <time>2022-09-29T10:35:43Z</time>
      </trkpt>
      <trkpt lat="44.42859" lon="5.24983">
        <ele>701</ele>
        <time>2022-09-29T10:35:44Z</time>
      </trkpt>
      <trkpt lat="44.42859" lon="5.24984">
        <ele>701</ele>
        <time>2022-09-29T10:35:45Z</time>
      </trkpt>
      <trkpt lat="44.42859" lon="5.24986">
        <ele>701</ele>
        <time>2022-09-29T10:35:46Z</time>
      </trkpt>
      <trkpt lat="44.42859" lon="5.24987">
        <ele>701</ele>
        <time>2022-09-29T10:35:47Z</time>
      </trkpt>
      <trkpt lat="44.42859" lon="5.24988">
        <ele>702</ele>
        <time>2022-09-29T10:35:48Z</time>
      </trkpt>
      <trkpt lat="44.42859" lon="5.24989">
        <ele>702</ele>
        <time>2022-09-29T10:35:49Z</time>
      </trkpt>
      <trkpt lat="44.42859" lon="5.2499">
        <ele>702</ele>
        <time>2022-09-29T10:35:50Z</time>
      </trkpt>
      <trkpt lat="44.42859" lon="5.24991">
        <ele>702</ele>
        <time>2022-09-29T10:35:51Z</time>
      </trkpt>
      <trkpt lat="44.42859" lon="5.24992">
        <ele>702</ele>
        <time>2022-09-29T10:35:52Z</time>
      </trkpt>
      <trkpt lat="44.42859" lon="5.24994">
        <ele>702</ele>
        <time>2022-09-29T10:35:53Z</time>
      </trkpt>
      <trkpt lat="44.42858" lon="5.24995">
        <ele>702</ele>
        <time>2022-09-29T10:35:54Z</time>
      </trkpt>
      <trkpt lat="44.42858" lon="5.24996">
        <ele>702</ele>
        <time>2022-09-29T10:35:55Z</time>
      </trkpt>
      <trkpt lat="44.42858" lon="5.24997">
        <ele>702</ele>
        <time>2022-09-29T10:35:56Z</time>
      </trkpt>
      <trkpt lat="44.42858" lon="5.24998">
        <ele>702</ele>
        <time>2022-09-29T10:35:57Z</time>
      </trkpt>
      <trkpt lat="44.42858" lon="5.24999">
        <ele>703</ele>
        <time>2022-09-29T10:35:58Z</time>
      </trkpt>
      <trkpt lat="44.42858" lon="5.25">
        <ele>703</ele>
        <time>2022-09-29T10:35:59Z</time>
      </trkpt>
      <trkpt lat="44.42858" lon="5.25001">
        <ele>703</ele>
        <time>2022-09-29T10:36:00Z</time>
      </trkpt>
      <trkpt lat="44.42858" lon="5.25002">
        <ele>703</ele>
        <time>2022-09-29T10:36:01Z</time>
      </trkpt>
      <trkpt lat="44.42858" lon="5.25004">
        <ele>703</ele>
        <time>2022-09-29T10:36:02Z</time>
      </trkpt>
      <trkpt lat="44.42858" lon="5.25005">
        <ele>703</ele>
        <time>2022-09-29T10:36:03Z</time>
      </trkpt>
      <trkpt lat="44.42858" lon="5.25006">
        <ele>703</ele>
        <time>2022-09-29T10:36:04Z</time>
      </trkpt>
      <trkpt lat="44.42858" lon="5.25007">
        <ele>703</ele>
        <time>2022-09-29T10:36:05Z</time>
      </trkpt>
      <trkpt lat="44.42857" lon="5.25008">
        <ele>703</ele>
        <time>2022-09-29T10:36:06Z</time>
      </trkpt>
      <trkpt lat="44.42857" lon="5.25009">
        <ele>703</ele>
        <time>2022-09-29T10:36:07Z</time>
      </trkpt>
      <trkpt lat="44.42857" lon="5.2501">
        <ele>703</ele>
        <time>2022-09-29T10:36:08Z</time>
      </trkpt>
      <trkpt lat="44.42857" lon="5.2501">
        <ele>703</ele>
        <time>2022-09-29T10:36:09Z</time>
      </trkpt>
      <trkpt lat="44.42857" lon="5.25011">
        <ele>703</ele>
        <time>2022-09-29T10:36:10Z</time>
      </trkpt>
      <trkpt lat="44.42857" lon="5.25012">
        <ele>703</ele>
        <time>2022-09-29T10:36:11Z</time>
      </trkpt>
      <trkpt lat="44.42857" lon="5.25013">
        <ele>703</ele>
        <time>2022-09-29T10:36:12Z</time>
      </trkpt>
      <trkpt lat="44.42857" lon="5.25014">
        <ele>703</ele>
        <time>2022-09-29T10:36:13Z</time>
      </trkpt>
      <trkpt lat="44.42857" lon="5.25015">
        <ele>703</ele>
        <time>2022-09-29T10:36:14Z</time>
      </trkpt>
      <trkpt lat="44.42857" lon="5.25017">
        <ele>703</ele>
        <time>2022-09-29T10:36:15Z</time>
      </trkpt>
      <trkpt lat="44.42857" lon="5.25018">
        <ele>703</ele>
        <time>2022-09-29T10:36:16Z</time>
      </trkpt>
      <trkpt lat="44.42856" lon="5.25019">
        <ele>703</ele>
        <time>2022-09-29T10:36:17Z</time>
      </trkpt>
      <trkpt lat="44.42856" lon="5.25021">
        <ele>704</ele>
        <time>2022-09-29T10:36:18Z</time>
      </trkpt>
      <trkpt lat="44.42856" lon="5.25022">
        <ele>704</ele>
        <time>2022-09-29T10:36:19Z</time>
      </trkpt>
      <trkpt lat="44.42855" lon="5.25024">
        <ele>704</ele>
        <time>2022-09-29T10:36:20Z</time>
      </trkpt>
      <trkpt lat="44.42855" lon="5.25025">
        <ele>704</ele>
        <time>2022-09-29T10:36:21Z</time>
      </trkpt>
      <trkpt lat="44.42855" lon="5.25026">
        <ele>704</ele>
        <time>2022-09-29T10:36:22Z</time>
      </trkpt>
      <trkpt lat="44.42854" lon="5.25028">
        <ele>704</ele>
        <time>2022-09-29T10:36:23Z</time>
      </trkpt>
      <trkpt lat="44.42854" lon="5.25029">
        <ele>704</ele>
        <time>2022-09-29T10:36:24Z</time>
      </trkpt>
      <trkpt lat="44.42854" lon="5.2503">
        <ele>704</ele>
        <time>2022-09-29T10:36:25Z</time>
      </trkpt>
      <trkpt lat="44.42853" lon="5.25032">
        <ele>704</ele>
        <time>2022-09-29T10:36:26Z</time>
      </trkpt>
      <trkpt lat="44.42853" lon="5.25033">
        <ele>704</ele>
        <time>2022-09-29T10:36:27Z</time>
      </trkpt>
      <trkpt lat="44.42852" lon="5.25034">
        <ele>704</ele>
        <time>2022-09-29T10:36:28Z</time>
      </trkpt>
      <trkpt lat="44.42852" lon="5.25035">
        <ele>704</ele>
        <time>2022-09-29T10:36:29Z</time>
      </trkpt>
      <trkpt lat="44.42851" lon="5.25036">
        <ele>704</ele>
        <time>2022-09-29T10:36:30Z</time>
      </trkpt>
      <trkpt lat="44.42851" lon="5.25037">
        <ele>704</ele>
        <time>2022-09-29T10:36:31Z</time>
      </trkpt>
      <trkpt lat="44.4285" lon="5.25038">
        <ele>704</ele>
        <time>2022-09-29T10:36:32Z</time>
      </trkpt>
      <trkpt lat="44.4285" lon="5.2504">
        <ele>704</ele>
        <time>2022-09-29T10:36:33Z</time>
      </trkpt>
      <trkpt lat="44.42849" lon="5.25041">
        <ele>704</ele>
        <time>2022-09-29T10:36:34Z</time>
      </trkpt>
      <trkpt lat="44.42849" lon="5.25043">
        <ele>704</ele>
        <time>2022-09-29T10:36:35Z</time>
      </trkpt>
      <trkpt lat="44.42848" lon="5.25044">
        <ele>704</ele>
        <time>2022-09-29T10:36:36Z</time>
      </trkpt>
      <trkpt lat="44.42848" lon="5.25045">
        <ele>704</ele>
        <time>2022-09-29T10:36:37Z</time>
      </trkpt>
      <trkpt lat="44.42847" lon="5.25047">
        <ele>704</ele>
        <time>2022-09-29T10:36:38Z</time>
      </trkpt>
      <trkpt lat="44.42847" lon="5.25048">
        <ele>704</ele>
        <time>2022-09-29T10:36:39Z</time>
      </trkpt>
      <trkpt lat="44.42846" lon="5.25049">
        <ele>704</ele>
        <time>2022-09-29T10:36:40Z</time>
      </trkpt>
      <trkpt lat="44.42845" lon="5.2505">
        <ele>704</ele>
        <time>2022-09-29T10:36:41Z</time>
      </trkpt>
      <trkpt lat="44.42845" lon="5.25051">
        <ele>704</ele>
        <time>2022-09-29T10:36:42Z</time>
      </trkpt>
      <trkpt lat="44.42844" lon="5.25052">
        <ele>704</ele>
        <time>2022-09-29T10:36:43Z</time>
      </trkpt>
      <trkpt lat="44.42843" lon="5.25053">
        <ele>704</ele>
        <time>2022-09-29T10:36:44Z</time>
      </trkpt>
      <trkpt lat="44.42843" lon="5.25054">
        <ele>704</ele>
        <time>2022-09-29T10:36:45Z</time>
      </trkpt>
      <trkpt lat="44.42842" lon="5.25055">
        <ele>704</ele>
        <time>2022-09-29T10:36:46Z</time>
      </trkpt>
      <trkpt lat="44.42841" lon="5.25056">
        <ele>704</ele>
        <time>2022-09-29T10:36:47Z</time>
      </trkpt>
      <trkpt lat="44.4284" lon="5.25057">
        <ele>704</ele>
        <time>2022-09-29T10:36:48Z</time>
      </trkpt>
      <trkpt lat="44.4284" lon="5.25058">
        <ele>704</ele>
        <time>2022-09-29T10:36:49Z</time>
      </trkpt>
      <trkpt lat="44.42839" lon="5.25059">
        <ele>704</ele>
        <time>2022-09-29T10:36:50Z</time>
      </trkpt>
      <trkpt lat="44.42838" lon="5.2506">
        <ele>704</ele>
        <time>2022-09-29T10:36:51Z</time>
      </trkpt>
      <trkpt lat="44.42837" lon="5.25061">
        <ele>704</ele>
        <time>2022-09-29T10:36:52Z</time>
      </trkpt>
      <trkpt lat="44.42837" lon="5.25062">
        <ele>704</ele>
        <time>2022-09-29T10:36:53Z</time>
      </trkpt>
      <trkpt lat="44.42836" lon="5.25063">
        <ele>704</ele>
        <time>2022-09-29T10:36:54Z</time>
      </trkpt>
      <trkpt lat="44.42835" lon="5.25064">
        <ele>704</ele>
        <time>2022-09-29T10:36:55Z</time>
      </trkpt>
      <trkpt lat="44.42834" lon="5.25065">
        <ele>704</ele>
        <time>2022-09-29T10:36:56Z</time>
      </trkpt>
      <trkpt lat="44.42834" lon="5.25066">
        <ele>704</ele>
        <time>2022-09-29T10:36:57Z</time>
      </trkpt>
      <trkpt lat="44.42833" lon="5.25067">
        <ele>705</ele>
        <time>2022-09-29T10:36:58Z</time>
      </trkpt>
      <trkpt lat="44.42832" lon="5.25068">
        <ele>705</ele>
        <time>2022-09-29T10:36:59Z</time>
      </trkpt>
      <trkpt lat="44.42832" lon="5.25069">
        <ele>705</ele>
        <time>2022-09-29T10:37:00Z</time>
      </trkpt>
      <trkpt lat="44.42831" lon="5.2507">
        <ele>705</ele>
        <time>2022-09-29T10:37:01Z</time>
      </trkpt>
      <trkpt lat="44.42831" lon="5.25071">
        <ele>705</ele>
        <time>2022-09-29T10:37:02Z</time>
      </trkpt>
      <trkpt lat="44.4283" lon="5.25071">
        <ele>705</ele>
        <time>2022-09-29T10:37:03Z</time>
      </trkpt>
      <trkpt lat="44.42829" lon="5.25072">
        <ele>705</ele>
        <time>2022-09-29T10:37:04Z</time>
      </trkpt>
      <trkpt lat="44.42829" lon="5.25073">
        <ele>705</ele>
        <time>2022-09-29T10:37:05Z</time>
      </trkpt>
      <trkpt lat="44.42828" lon="5.25074">
        <ele>705</ele>
        <time>2022-09-29T10:37:06Z</time>
      </trkpt>
      <trkpt lat="44.42828" lon="5.25075">
        <ele>705</ele>
        <time>2022-09-29T10:37:07Z</time>
      </trkpt>
      <trkpt lat="44.42827" lon="5.25076">
        <ele>706</ele>
        <time>2022-09-29T10:37:08Z</time>
      </trkpt>
      <trkpt lat="44.42827" lon="5.25077">
        <ele>706</ele>
        <time>2022-09-29T10:37:09Z</time>
      </trkpt>
      <trkpt lat="44.42826" lon="5.25078">
        <ele>706</ele>
        <time>2022-09-29T10:37:10Z</time>
      </trkpt>
      <trkpt lat="44.42826" lon="5.25079">
        <ele>706</ele>
        <time>2022-09-29T10:37:11Z</time>
      </trkpt>
      <trkpt lat="44.42825" lon="5.25079">
        <ele>706</ele>
        <time>2022-09-29T10:37:12Z</time>
      </trkpt>
      <trkpt lat="44.42824" lon="5.2508">
        <ele>706</ele>
        <time>2022-09-29T10:37:13Z</time>
      </trkpt>
      <trkpt lat="44.42823" lon="5.25081">
        <ele>706</ele>
        <time>2022-09-29T10:37:14Z</time>
      </trkpt>
      <trkpt lat="44.42822" lon="5.25082">
        <ele>706</ele>
        <time>2022-09-29T10:37:15Z</time>
      </trkpt>
      <trkpt lat="44.42822" lon="5.25083">
        <ele>706</ele>
        <time>2022-09-29T10:37:16Z</time>
      </trkpt>
      <trkpt lat="44.42821" lon="5.25084">
        <ele>706</ele>
        <time>2022-09-29T10:37:17Z</time>
      </trkpt>
      <trkpt lat="44.4282" lon="5.25084">
        <ele>707</ele>
        <time>2022-09-29T10:37:18Z</time>
      </trkpt>
      <trkpt lat="44.4282" lon="5.25086">
        <ele>707</ele>
        <time>2022-09-29T10:37:19Z</time>
      </trkpt>
      <trkpt lat="44.42819" lon="5.25087">
        <ele>707</ele>
        <time>2022-09-29T10:37:20Z</time>
      </trkpt>
      <trkpt lat="44.42819" lon="5.25088">
        <ele>707</ele>
        <time>2022-09-29T10:37:21Z</time>
      </trkpt>
      <trkpt lat="44.42818" lon="5.25089">
        <ele>707</ele>
        <time>2022-09-29T10:37:22Z</time>
      </trkpt>
      <trkpt lat="44.42817" lon="5.2509">
        <ele>707</ele>
        <time>2022-09-29T10:37:23Z</time>
      </trkpt>
      <trkpt lat="44.42817" lon="5.25091">
        <ele>707</ele>
        <time>2022-09-29T10:37:24Z</time>
      </trkpt>
      <trkpt lat="44.42816" lon="5.25092">
        <ele>707</ele>
        <time>2022-09-29T10:37:25Z</time>
      </trkpt>
      <trkpt lat="44.42816" lon="5.25093">
        <ele>707</ele>
        <time>2022-09-29T10:37:26Z</time>
      </trkpt>
      <trkpt lat="44.42815" lon="5.25094">
        <ele>707</ele>
        <time>2022-09-29T10:37:27Z</time>
      </trkpt>
      <trkpt lat="44.42814" lon="5.25094">
        <ele>708</ele>
        <time>2022-09-29T10:37:28Z</time>
      </trkpt>
      <trkpt lat="44.42813" lon="5.25095">
        <ele>708</ele>
        <time>2022-09-29T10:37:29Z</time>
      </trkpt>
      <trkpt lat="44.42813" lon="5.25096">
        <ele>708</ele>
        <time>2022-09-29T10:37:30Z</time>
      </trkpt>
      <trkpt lat="44.42812" lon="5.25097">
        <ele>708</ele>
        <time>2022-09-29T10:37:31Z</time>
      </trkpt>
      <trkpt lat="44.42812" lon="5.25098">
        <ele>708</ele>
        <time>2022-09-29T10:37:32Z</time>
      </trkpt>
      <trkpt lat="44.42811" lon="5.25099">
        <ele>708</ele>
        <time>2022-09-29T10:37:33Z</time>
      </trkpt>
      <trkpt lat="44.4281" lon="5.251">
        <ele>708</ele>
        <time>2022-09-29T10:37:34Z</time>
      </trkpt>
      <trkpt lat="44.4281" lon="5.25101">
        <ele>708</ele>
        <time>2022-09-29T10:37:35Z</time>
      </trkpt>
      <trkpt lat="44.42809" lon="5.25102">
        <ele>708</ele>
        <time>2022-09-29T10:37:36Z</time>
      </trkpt>
      <trkpt lat="44.42809" lon="5.25103">
        <ele>708</ele>
        <time>2022-09-29T10:37:37Z</time>
      </trkpt>
      <trkpt lat="44.42808" lon="5.25104">
        <ele>709</ele>
        <time>2022-09-29T10:37:38Z</time>
      </trkpt>
      <trkpt lat="44.42808" lon="5.25105">
        <ele>709</ele>
        <time>2022-09-29T10:37:39Z</time>
      </trkpt>
      <trkpt lat="44.42807" lon="5.25106">
        <ele>709</ele>
        <time>2022-09-29T10:37:40Z</time>
      </trkpt>
      <trkpt lat="44.42807" lon="5.25107">
        <ele>709</ele>
        <time>2022-09-29T10:37:41Z</time>
      </trkpt>
      <trkpt lat="44.42806" lon="5.25108">
        <ele>709</ele>
        <time>2022-09-29T10:37:42Z</time>
      </trkpt>
      <trkpt lat="44.42806" lon="5.25109">
        <ele>710</ele>
        <time>2022-09-29T10:37:43Z</time>
      </trkpt>
      <trkpt lat="44.42805" lon="5.2511">
        <ele>710</ele>
        <time>2022-09-29T10:37:44Z</time>
      </trkpt>
      <trkpt lat="44.42805" lon="5.25111">
        <ele>710</ele>
        <time>2022-09-29T10:37:45Z</time>
      </trkpt>
      <trkpt lat="44.42804" lon="5.25112">
        <ele>710</ele>
        <time>2022-09-29T10:37:46Z</time>
      </trkpt>
      <trkpt lat="44.42804" lon="5.25113">
        <ele>710</ele>
        <time>2022-09-29T10:37:47Z</time>
      </trkpt>
      <trkpt lat="44.42803" lon="5.25114">
        <ele>710</ele>
        <time>2022-09-29T10:37:48Z</time>
      </trkpt>
      <trkpt lat="44.42802" lon="5.25115">
        <ele>710</ele>
        <time>2022-09-29T10:37:49Z</time>
      </trkpt>
      <trkpt lat="44.42802" lon="5.25116">
        <ele>710</ele>
        <time>2022-09-29T10:37:50Z</time>
      </trkpt>
      <trkpt lat="44.42801" lon="5.25116">
        <ele>710</ele>
        <time>2022-09-29T10:37:51Z</time>
      </trkpt>
      <trkpt lat="44.428" lon="5.25117">
        <ele>710</ele>
        <time>2022-09-29T10:37:52Z</time>
      </trkpt>
      <trkpt lat="44.42799" lon="5.25118">
        <ele>711</ele>
        <time>2022-09-29T10:37:53Z</time>
      </trkpt>
      <trkpt lat="44.42799" lon="5.25119">
        <ele>711</ele>
        <time>2022-09-29T10:37:54Z</time>
      </trkpt>
      <trkpt lat="44.42798" lon="5.25119">
        <ele>711</ele>
        <time>2022-09-29T10:37:55Z</time>
      </trkpt>
      <trkpt lat="44.42797" lon="5.2512">
        <ele>711</ele>
        <time>2022-09-29T10:37:56Z</time>
      </trkpt>
      <trkpt lat="44.42797" lon="5.25121">
        <ele>711</ele>
        <time>2022-09-29T10:37:57Z</time>
      </trkpt>
      <trkpt lat="44.42796" lon="5.25121">
        <ele>712</ele>
        <time>2022-09-29T10:37:58Z</time>
      </trkpt>
      <trkpt lat="44.42796" lon="5.25122">
        <ele>712</ele>
        <time>2022-09-29T10:37:59Z</time>
      </trkpt>
      <trkpt lat="44.42795" lon="5.25123">
        <ele>712</ele>
        <time>2022-09-29T10:38:00Z</time>
      </trkpt>
      <trkpt lat="44.42794" lon="5.25123">
        <ele>712</ele>
        <time>2022-09-29T10:38:01Z</time>
      </trkpt>
      <trkpt lat="44.42793" lon="5.25124">
        <ele>712</ele>
        <time>2022-09-29T10:38:02Z</time>
      </trkpt>
      <trkpt lat="44.42793" lon="5.25125">
        <ele>712</ele>
        <time>2022-09-29T10:38:03Z</time>
      </trkpt>
      <trkpt lat="44.42792" lon="5.25126">
        <ele>712</ele>
        <time>2022-09-29T10:38:04Z</time>
      </trkpt>
      <trkpt lat="44.42792" lon="5.25127">
        <ele>712</ele>
        <time>2022-09-29T10:38:05Z</time>
      </trkpt>
      <trkpt lat="44.42791" lon="5.25127">
        <ele>712</ele>
        <time>2022-09-29T10:38:06Z</time>
      </trkpt>
      <trkpt lat="44.4279" lon="5.25128">
        <ele>712</ele>
        <time>2022-09-29T10:38:07Z</time>
      </trkpt>
      <trkpt lat="44.4279" lon="5.25129">
        <ele>713</ele>
        <time>2022-09-29T10:38:08Z</time>
      </trkpt>
      <trkpt lat="44.42789" lon="5.2513">
        <ele>713</ele>
        <time>2022-09-29T10:38:09Z</time>
      </trkpt>
      <trkpt lat="44.42788" lon="5.2513">
        <ele>713</ele>
        <time>2022-09-29T10:38:10Z</time>
      </trkpt>
      <trkpt lat="44.42788" lon="5.25131">
        <ele>713</ele>
        <time>2022-09-29T10:38:11Z</time>
      </trkpt>
      <trkpt lat="44.42787" lon="5.25132">
        <ele>713</ele>
        <time>2022-09-29T10:38:12Z</time>
      </trkpt>
      <trkpt lat="44.42786" lon="5.25133">
        <ele>714</ele>
        <time>2022-09-29T10:38:13Z</time>
      </trkpt>
      <trkpt lat="44.42786" lon="5.25134">
        <ele>714</ele>
        <time>2022-09-29T10:38:14Z</time>
      </trkpt>
      <trkpt lat="44.42785" lon="5.25134">
        <ele>714</ele>
        <time>2022-09-29T10:38:15Z</time>
      </trkpt>
      <trkpt lat="44.42785" lon="5.25135">
        <ele>714</ele>
        <time>2022-09-29T10:38:16Z</time>
      </trkpt>
      <trkpt lat="44.42784" lon="5.25136">
        <ele>714</ele>
        <time>2022-09-29T10:38:17Z</time>
      </trkpt>
      <trkpt lat="44.42784" lon="5.25137">
        <ele>714</ele>
        <time>2022-09-29T10:38:18Z</time>
      </trkpt>
      <trkpt lat="44.42783" lon="5.25138">
        <ele>714</ele>
        <time>2022-09-29T10:38:19Z</time>
      </trkpt>
      <trkpt lat="44.42783" lon="5.25139">
        <ele>714</ele>
        <time>2022-09-29T10:38:20Z</time>
      </trkpt>
      <trkpt lat="44.42783" lon="5.25139">
        <ele>714</ele>
        <time>2022-09-29T10:38:21Z</time>
      </trkpt>
      <trkpt lat="44.42782" lon="5.2514">
        <ele>714</ele>
        <time>2022-09-29T10:38:22Z</time>
      </trkpt>
      <trkpt lat="44.42782" lon="5.25141">
        <ele>715</ele>
        <time>2022-09-29T10:38:23Z</time>
      </trkpt>
      <trkpt lat="44.42781" lon="5.25142">
        <ele>715</ele>
        <time>2022-09-29T10:38:24Z</time>
      </trkpt>
      <trkpt lat="44.42781" lon="5.25143">
        <ele>715</ele>
        <time>2022-09-29T10:38:25Z</time>
      </trkpt>
      <trkpt lat="44.42781" lon="5.25144">
        <ele>715</ele>
        <time>2022-09-29T10:38:26Z</time>
      </trkpt>
      <trkpt lat="44.4278" lon="5.25145">
        <ele>715</ele>
        <time>2022-09-29T10:38:27Z</time>
      </trkpt>
      <trkpt lat="44.4278" lon="5.25146">
        <ele>715</ele>
        <time>2022-09-29T10:38:28Z</time>
      </trkpt>
      <trkpt lat="44.4278" lon="5.25147">
        <ele>715</ele>
        <time>2022-09-29T10:38:29Z</time>
      </trkpt>
      <trkpt lat="44.42779" lon="5.25149">
        <ele>715</ele>
        <time>2022-09-29T10:38:30Z</time>
      </trkpt>
      <trkpt lat="44.42779" lon="5.2515">
        <ele>715</ele>
        <time>2022-09-29T10:38:31Z</time>
      </trkpt>
      <trkpt lat="44.42779" lon="5.25151">
        <ele>715</ele>
        <time>2022-09-29T10:38:32Z</time>
      </trkpt>
      <trkpt lat="44.42779" lon="5.25152">
        <ele>716</ele>
        <time>2022-09-29T10:38:33Z</time>
      </trkpt>
      <trkpt lat="44.42779" lon="5.25153">
        <ele>716</ele>
        <time>2022-09-29T10:38:34Z</time>
      </trkpt>
      <trkpt lat="44.42778" lon="5.25155">
        <ele>716</ele>
        <time>2022-09-29T10:38:35Z</time>
      </trkpt>
      <trkpt lat="44.42778" lon="5.25156">
        <ele>716</ele>
        <time>2022-09-29T10:38:36Z</time>
      </trkpt>
      <trkpt lat="44.42777" lon="5.25156">
        <ele>716</ele>
        <time>2022-09-29T10:38:37Z</time>
      </trkpt>
      <trkpt lat="44.42777" lon="5.25157">
        <ele>717</ele>
        <time>2022-09-29T10:38:38Z</time>
      </trkpt>
      <trkpt lat="44.42776" lon="5.25158">
        <ele>717</ele>
        <time>2022-09-29T10:38:39Z</time>
      </trkpt>
      <trkpt lat="44.42776" lon="5.25159">
        <ele>717</ele>
        <time>2022-09-29T10:38:40Z</time>
      </trkpt>
      <trkpt lat="44.42775" lon="5.2516">
        <ele>717</ele>
        <time>2022-09-29T10:38:41Z</time>
      </trkpt>
      <trkpt lat="44.42775" lon="5.2516">
        <ele>717</ele>
        <time>2022-09-29T10:38:42Z</time>
      </trkpt>
      <trkpt lat="44.42774" lon="5.25161">
        <ele>717</ele>
        <time>2022-09-29T10:38:43Z</time>
      </trkpt>
      <trkpt lat="44.42773" lon="5.25162">
        <ele>717</ele>
        <time>2022-09-29T10:38:44Z</time>
      </trkpt>
      <trkpt lat="44.42773" lon="5.25163">
        <ele>717</ele>
        <time>2022-09-29T10:38:45Z</time>
      </trkpt>
      <trkpt lat="44.42772" lon="5.25163">
        <ele>717</ele>
        <time>2022-09-29T10:38:46Z</time>
      </trkpt>
      <trkpt lat="44.42772" lon="5.25164">
        <ele>717</ele>
        <time>2022-09-29T10:38:47Z</time>
      </trkpt>
      <trkpt lat="44.42771" lon="5.25165">
        <ele>718</ele>
        <time>2022-09-29T10:38:48Z</time>
      </trkpt>
      <trkpt lat="44.42771" lon="5.25167">
        <ele>718</ele>
        <time>2022-09-29T10:38:49Z</time>
      </trkpt>
      <trkpt lat="44.4277" lon="5.25168">
        <ele>718</ele>
        <time>2022-09-29T10:38:50Z</time>
      </trkpt>
      <trkpt lat="44.4277" lon="5.25169">
        <ele>718</ele>
        <time>2022-09-29T10:38:51Z</time>
      </trkpt>
      <trkpt lat="44.42769" lon="5.2517">
        <ele>718</ele>
        <time>2022-09-29T10:38:52Z</time>
      </trkpt>
      <trkpt lat="44.42769" lon="5.25171">
        <ele>718</ele>
        <time>2022-09-29T10:38:53Z</time>
      </trkpt>
      <trkpt lat="44.42768" lon="5.25173">
        <ele>718</ele>
        <time>2022-09-29T10:38:54Z</time>
      </trkpt>
      <trkpt lat="44.42768" lon="5.25174">
        <ele>718</ele>
        <time>2022-09-29T10:38:55Z</time>
      </trkpt>
      <trkpt lat="44.42768" lon="5.25175">
        <ele>718</ele>
        <time>2022-09-29T10:38:56Z</time>
      </trkpt>
      <trkpt lat="44.42767" lon="5.25176">
        <ele>718</ele>
        <time>2022-09-29T10:38:57Z</time>
      </trkpt>
      <trkpt lat="44.42767" lon="5.25178">
        <ele>718</ele>
        <time>2022-09-29T10:38:58Z</time>
      </trkpt>
      <trkpt lat="44.42766" lon="5.25179">
        <ele>718</ele>
        <time>2022-09-29T10:38:59Z</time>
      </trkpt>
      <trkpt lat="44.42766" lon="5.2518">
        <ele>718</ele>
        <time>2022-09-29T10:39:00Z</time>
      </trkpt>
      <trkpt lat="44.42765" lon="5.25181">
        <ele>718</ele>
        <time>2022-09-29T10:39:01Z</time>
      </trkpt>
      <trkpt lat="44.42765" lon="5.25181">
        <ele>718</ele>
        <time>2022-09-29T10:39:02Z</time>
      </trkpt>
      <trkpt lat="44.42764" lon="5.25182">
        <ele>719</ele>
        <time>2022-09-29T10:39:03Z</time>
      </trkpt>
      <trkpt lat="44.42764" lon="5.25183">
        <ele>719</ele>
        <time>2022-09-29T10:39:04Z</time>
      </trkpt>
      <trkpt lat="44.42763" lon="5.25184">
        <ele>719</ele>
        <time>2022-09-29T10:39:05Z</time>
      </trkpt>
      <trkpt lat="44.42762" lon="5.25184">
        <ele>719</ele>
        <time>2022-09-29T10:39:06Z</time>
      </trkpt>
      <trkpt lat="44.42762" lon="5.25185">
        <ele>719</ele>
        <time>2022-09-29T10:39:07Z</time>
      </trkpt>
      <trkpt lat="44.42761" lon="5.25185">
        <ele>719</ele>
        <time>2022-09-29T10:39:08Z</time>
      </trkpt>
      <trkpt lat="44.42761" lon="5.25186">
        <ele>719</ele>
        <time>2022-09-29T10:39:09Z</time>
      </trkpt>
      <trkpt lat="44.4276" lon="5.25187">
        <ele>719</ele>
        <time>2022-09-29T10:39:10Z</time>
      </trkpt>
      <trkpt lat="44.42759" lon="5.25187">
        <ele>719</ele>
        <time>2022-09-29T10:39:11Z</time>
      </trkpt>
      <trkpt lat="44.42759" lon="5.25188">
        <ele>719</ele>
        <time>2022-09-29T10:39:12Z</time>
      </trkpt>
      <trkpt lat="44.42758" lon="5.25189">
        <ele>720</ele>
        <time>2022-09-29T10:39:13Z</time>
      </trkpt>
      <trkpt lat="44.42758" lon="5.25189">
        <ele>720</ele>
        <time>2022-09-29T10:39:14Z</time>
      </trkpt>
      <trkpt lat="44.42757" lon="5.2519">
        <ele>720</ele>
        <time>2022-09-29T10:39:15Z</time>
      </trkpt>
      <trkpt lat="44.42756" lon="5.2519">
        <ele>720</ele>
        <time>2022-09-29T10:39:16Z</time>
      </trkpt>
      <trkpt lat="44.42755" lon="5.25191">
        <ele>720</ele>
        <time>2022-09-29T10:39:17Z</time>
      </trkpt>
      <trkpt lat="44.42754" lon="5.25191">
        <ele>720</ele>
        <time>2022-09-29T10:39:18Z</time>
      </trkpt>
      <trkpt lat="44.42754" lon="5.25192">
        <ele>720</ele>
        <time>2022-09-29T10:39:19Z</time>
      </trkpt>
      <trkpt lat="44.42753" lon="5.25192">
        <ele>720</ele>
        <time>2022-09-29T10:39:20Z</time>
      </trkpt>
      <trkpt lat="44.42752" lon="5.25193">
        <ele>720</ele>
        <time>2022-09-29T10:39:21Z</time>
      </trkpt>
      <trkpt lat="44.42751" lon="5.25193">
        <ele>720</ele>
        <time>2022-09-29T10:39:22Z</time>
      </trkpt>
      <trkpt lat="44.42751" lon="5.25194">
        <ele>721</ele>
        <time>2022-09-29T10:39:23Z</time>
      </trkpt>
      <trkpt lat="44.4275" lon="5.25194">
        <ele>721</ele>
        <time>2022-09-29T10:39:24Z</time>
      </trkpt>
      <trkpt lat="44.42749" lon="5.25195">
        <ele>721</ele>
        <time>2022-09-29T10:39:25Z</time>
      </trkpt>
      <trkpt lat="44.42749" lon="5.25195">
        <ele>722</ele>
        <time>2022-09-29T10:39:26Z</time>
      </trkpt>
      <trkpt lat="44.42748" lon="5.25196">
        <ele>722</ele>
        <time>2022-09-29T10:39:27Z</time>
      </trkpt>
      <trkpt lat="44.42747" lon="5.25197">
        <ele>723</ele>
        <time>2022-09-29T10:39:28Z</time>
      </trkpt>
      <trkpt lat="44.42747" lon="5.25198">
        <ele>723</ele>
        <time>2022-09-29T10:39:29Z</time>
      </trkpt>
      <trkpt lat="44.42746" lon="5.25199">
        <ele>723</ele>
        <time>2022-09-29T10:39:30Z</time>
      </trkpt>
      <trkpt lat="44.42745" lon="5.252">
        <ele>723</ele>
        <time>2022-09-29T10:39:31Z</time>
      </trkpt>
      <trkpt lat="44.42745" lon="5.252">
        <ele>723</ele>
        <time>2022-09-29T10:39:32Z</time>
      </trkpt>
      <trkpt lat="44.42744" lon="5.25201">
        <ele>723</ele>
        <time>2022-09-29T10:39:33Z</time>
      </trkpt>
      <trkpt lat="44.42744" lon="5.25202">
        <ele>723</ele>
        <time>2022-09-29T10:39:34Z</time>
      </trkpt>
      <trkpt lat="44.42743" lon="5.25203">
        <ele>723</ele>
        <time>2022-09-29T10:39:35Z</time>
      </trkpt>
      <trkpt lat="44.42743" lon="5.25204">
        <ele>723</ele>
        <time>2022-09-29T10:39:36Z</time>
      </trkpt>
      <trkpt lat="44.42743" lon="5.25204">
        <ele>723</ele>
        <time>2022-09-29T10:39:37Z</time>
      </trkpt>
      <trkpt lat="44.42742" lon="5.25205">
        <ele>723</ele>
        <time>2022-09-29T10:39:38Z</time>
      </trkpt>
      <trkpt lat="44.42742" lon="5.25206">
        <ele>723</ele>
        <time>2022-09-29T10:39:39Z</time>
      </trkpt>
      <trkpt lat="44.42742" lon="5.25206">
        <ele>723</ele>
        <time>2022-09-29T10:39:40Z</time>
      </trkpt>
      <trkpt lat="44.42742" lon="5.25207">
        <ele>723</ele>
        <time>2022-09-29T10:39:41Z</time>
      </trkpt>
      <trkpt lat="44.42741" lon="5.25207">
        <ele>724</ele>
        <time>2022-09-29T10:39:59Z</time>
      </trkpt>
      <trkpt lat="44.42741" lon="5.25208">
        <ele>724</ele>
        <time>2022-09-29T10:40:00Z</time>
      </trkpt>
      <trkpt lat="44.42741" lon="5.25209">
        <ele>724</ele>
        <time>2022-09-29T10:40:01Z</time>
      </trkpt>
      <trkpt lat="44.42741" lon="5.25209">
        <ele>724</ele>
        <time>2022-09-29T10:40:02Z</time>
      </trkpt>
      <trkpt lat="44.42741" lon="5.2521">
        <ele>725</ele>
        <time>2022-09-29T10:40:03Z</time>
      </trkpt>
      <trkpt lat="44.4274" lon="5.25211">
        <ele>725</ele>
        <time>2022-09-29T10:40:04Z</time>
      </trkpt>
      <trkpt lat="44.4274" lon="5.25212">
        <ele>725</ele>
        <time>2022-09-29T10:40:05Z</time>
      </trkpt>
      <trkpt lat="44.4274" lon="5.25213">
        <ele>725</ele>
        <time>2022-09-29T10:40:06Z</time>
      </trkpt>
      <trkpt lat="44.42739" lon="5.25214">
        <ele>725</ele>
        <time>2022-09-29T10:40:07Z</time>
      </trkpt>
      <trkpt lat="44.42739" lon="5.25215">
        <ele>725</ele>
        <time>2022-09-29T10:40:08Z</time>
      </trkpt>
      <trkpt lat="44.42739" lon="5.25216">
        <ele>725</ele>
        <time>2022-09-29T10:40:09Z</time>
      </trkpt>
      <trkpt lat="44.42738" lon="5.25217">
        <ele>725</ele>
        <time>2022-09-29T10:40:10Z</time>
      </trkpt>
      <trkpt lat="44.42738" lon="5.25218">
        <ele>725</ele>
        <time>2022-09-29T10:40:11Z</time>
      </trkpt>
      <trkpt lat="44.42737" lon="5.25219">
        <ele>725</ele>
        <time>2022-09-29T10:40:12Z</time>
      </trkpt>
      <trkpt lat="44.42737" lon="5.2522">
        <ele>725</ele>
        <time>2022-09-29T10:40:13Z</time>
      </trkpt>
      <trkpt lat="44.42737" lon="5.25221">
        <ele>725</ele>
        <time>2022-09-29T10:40:14Z</time>
      </trkpt>
      <trkpt lat="44.42737" lon="5.25222">
        <ele>725</ele>
        <time>2022-09-29T10:40:15Z</time>
      </trkpt>
      <trkpt lat="44.42736" lon="5.25223">
        <ele>725</ele>
        <time>2022-09-29T10:40:16Z</time>
      </trkpt>
      <trkpt lat="44.42736" lon="5.25224">
        <ele>725</ele>
        <time>2022-09-29T10:40:17Z</time>
      </trkpt>
      <trkpt lat="44.42735" lon="5.25225">
        <ele>726</ele>
        <time>2022-09-29T10:40:18Z</time>
      </trkpt>
      <trkpt lat="44.42735" lon="5.25226">
        <ele>726</ele>
        <time>2022-09-29T10:40:19Z</time>
      </trkpt>
      <trkpt lat="44.42734" lon="5.25227">
        <ele>726</ele>
        <time>2022-09-29T10:40:20Z</time>
      </trkpt>
      <trkpt lat="44.42734" lon="5.25228">
        <ele>726</ele>
        <time>2022-09-29T10:40:21Z</time>
      </trkpt>
      <trkpt lat="44.42733" lon="5.25228">
        <ele>726</ele>
        <time>2022-09-29T10:40:22Z</time>
      </trkpt>
      <trkpt lat="44.42733" lon="5.25229">
        <ele>727</ele>
        <time>2022-09-29T10:40:23Z</time>
      </trkpt>
      <trkpt lat="44.42732" lon="5.2523">
        <ele>727</ele>
        <time>2022-09-29T10:40:24Z</time>
      </trkpt>
      <trkpt lat="44.42731" lon="5.2523">
        <ele>727</ele>
        <time>2022-09-29T10:40:25Z</time>
      </trkpt>
      <trkpt lat="44.42729" lon="5.25232">
        <ele>728</ele>
        <time>2022-09-29T10:40:31Z</time>
      </trkpt>
      <trkpt lat="44.42729" lon="5.25233">
        <ele>728</ele>
        <time>2022-09-29T10:40:32Z</time>
      </trkpt>
      <trkpt lat="44.42728" lon="5.25234">
        <ele>729</ele>
        <time>2022-09-29T10:40:33Z</time>
      </trkpt>
      <trkpt lat="44.42727" lon="5.25235">
        <ele>729</ele>
        <time>2022-09-29T10:40:34Z</time>
      </trkpt>
      <trkpt lat="44.42727" lon="5.25235">
        <ele>729</ele>
        <time>2022-09-29T10:40:35Z</time>
      </trkpt>
      <trkpt lat="44.42726" lon="5.25236">
        <ele>729</ele>
        <time>2022-09-29T10:40:36Z</time>
      </trkpt>
      <trkpt lat="44.42726" lon="5.25237">
        <ele>729</ele>
        <time>2022-09-29T10:40:37Z</time>
      </trkpt>
      <trkpt lat="44.42725" lon="5.25237">
        <ele>729</ele>
        <time>2022-09-29T10:40:38Z</time>
      </trkpt>
      <trkpt lat="44.42725" lon="5.25238">
        <ele>729</ele>
        <time>2022-09-29T10:40:39Z</time>
      </trkpt>
      <trkpt lat="44.42724" lon="5.25238">
        <ele>729</ele>
        <time>2022-09-29T10:40:40Z</time>
      </trkpt>
      <trkpt lat="44.42724" lon="5.25238">
        <ele>729</ele>
        <time>2022-09-29T10:40:41Z</time>
      </trkpt>
      <trkpt lat="44.42723" lon="5.25239">
        <ele>729</ele>
        <time>2022-09-29T10:40:42Z</time>
      </trkpt>
      <trkpt lat="44.42723" lon="5.2524">
        <ele>730</ele>
        <time>2022-09-29T10:40:43Z</time>
      </trkpt>
      <trkpt lat="44.42723" lon="5.2524">
        <ele>730</ele>
        <time>2022-09-29T10:40:44Z</time>
      </trkpt>
      <trkpt lat="44.42722" lon="5.25241">
        <ele>730</ele>
        <time>2022-09-29T10:40:45Z</time>
      </trkpt>
      <trkpt lat="44.42722" lon="5.25241">
        <ele>730</ele>
        <time>2022-09-29T10:40:46Z</time>
      </trkpt>
      <trkpt lat="44.42721" lon="5.25242">
        <ele>730</ele>
        <time>2022-09-29T10:40:47Z</time>
      </trkpt>
      <trkpt lat="44.42721" lon="5.25243">
        <ele>730</ele>
        <time>2022-09-29T10:40:48Z</time>
      </trkpt>
      <trkpt lat="44.42721" lon="5.25243">
        <ele>730</ele>
        <time>2022-09-29T10:40:49Z</time>
      </trkpt>
      <trkpt lat="44.4272" lon="5.25244">
        <ele>730</ele>
        <time>2022-09-29T10:40:50Z</time>
      </trkpt>
      <trkpt lat="44.4272" lon="5.25244">
        <ele>730</ele>
        <time>2022-09-29T10:40:51Z</time>
      </trkpt>
      <trkpt lat="44.4272" lon="5.25245">
        <ele>730</ele>
        <time>2022-09-29T10:40:52Z</time>
      </trkpt>
      <trkpt lat="44.4272" lon="5.25246">
        <ele>731</ele>
        <time>2022-09-29T10:40:53Z</time>
      </trkpt>
      <trkpt lat="44.42719" lon="5.25246">
        <ele>731</ele>
        <time>2022-09-29T10:40:54Z</time>
      </trkpt>
      <trkpt lat="44.42719" lon="5.25247">
        <ele>731</ele>
        <time>2022-09-29T10:40:55Z</time>
      </trkpt>
      <trkpt lat="44.42719" lon="5.25248">
        <ele>731</ele>
        <time>2022-09-29T10:40:56Z</time>
      </trkpt>
      <trkpt lat="44.42718" lon="5.25248">
        <ele>731</ele>
        <time>2022-09-29T10:40:57Z</time>
      </trkpt>
      <trkpt lat="44.42718" lon="5.25249">
        <ele>732</ele>
        <time>2022-09-29T10:40:58Z</time>
      </trkpt>
      <trkpt lat="44.42717" lon="5.2525">
        <ele>732</ele>
        <time>2022-09-29T10:40:59Z</time>
      </trkpt>
      <trkpt lat="44.42716" lon="5.2525">
        <ele>732</ele>
        <time>2022-09-29T10:41:00Z</time>
      </trkpt>
      <trkpt lat="44.42716" lon="5.25251">
        <ele>732</ele>
        <time>2022-09-29T10:41:01Z</time>
      </trkpt>
      <trkpt lat="44.42715" lon="5.25251">
        <ele>732</ele>
        <time>2022-09-29T10:41:02Z</time>
      </trkpt>
      <trkpt lat="44.42715" lon="5.25252">
        <ele>733</ele>
        <time>2022-09-29T10:41:03Z</time>
      </trkpt>
      <trkpt lat="44.42714" lon="5.25253">
        <ele>733</ele>
        <time>2022-09-29T10:41:04Z</time>
      </trkpt>
      <trkpt lat="44.42714" lon="5.25254">
        <ele>733</ele>
        <time>2022-09-29T10:41:05Z</time>
      </trkpt>
      <trkpt lat="44.42714" lon="5.25255">
        <ele>733</ele>
        <time>2022-09-29T10:41:06Z</time>
      </trkpt>
      <trkpt lat="44.42713" lon="5.25256">
        <ele>733</ele>
        <time>2022-09-29T10:41:07Z</time>
      </trkpt>
      <trkpt lat="44.42713" lon="5.25256">
        <ele>734</ele>
        <time>2022-09-29T10:41:08Z</time>
      </trkpt>
      <trkpt lat="44.42713" lon="5.25257">
        <ele>734</ele>
        <time>2022-09-29T10:41:09Z</time>
      </trkpt>
      <trkpt lat="44.42713" lon="5.25258">
        <ele>734</ele>
        <time>2022-09-29T10:41:10Z</time>
      </trkpt>
      <trkpt lat="44.42712" lon="5.25259">
        <ele>734</ele>
        <time>2022-09-29T10:41:11Z</time>
      </trkpt>
      <trkpt lat="44.42712" lon="5.2526">
        <ele>734</ele>
        <time>2022-09-29T10:41:12Z</time>
      </trkpt>
      <trkpt lat="44.42712" lon="5.25261">
        <ele>734</ele>
        <time>2022-09-29T10:41:13Z</time>
      </trkpt>
      <trkpt lat="44.42712" lon="5.25261">
        <ele>734</ele>
        <time>2022-09-29T10:41:14Z</time>
      </trkpt>
      <trkpt lat="44.42712" lon="5.25262">
        <ele>734</ele>
        <time>2022-09-29T10:41:15Z</time>
      </trkpt>
      <trkpt lat="44.42711" lon="5.25263">
        <ele>734</ele>
        <time>2022-09-29T10:41:16Z</time>
      </trkpt>
      <trkpt lat="44.42711" lon="5.25263">
        <ele>734</ele>
        <time>2022-09-29T10:41:17Z</time>
      </trkpt>
      <trkpt lat="44.42711" lon="5.25264">
        <ele>735</ele>
        <time>2022-09-29T10:41:18Z</time>
      </trkpt>
      <trkpt lat="44.42711" lon="5.25265">
        <ele>735</ele>
        <time>2022-09-29T10:41:19Z</time>
      </trkpt>
      <trkpt lat="44.4271" lon="5.25266">
        <ele>735</ele>
        <time>2022-09-29T10:41:20Z</time>
      </trkpt>
      <trkpt lat="44.4271" lon="5.25267">
        <ele>735</ele>
        <time>2022-09-29T10:41:21Z</time>
      </trkpt>
      <trkpt lat="44.4271" lon="5.25268">
        <ele>735</ele>
        <time>2022-09-29T10:41:22Z</time>
      </trkpt>
      <trkpt lat="44.42709" lon="5.25268">
        <ele>736</ele>
        <time>2022-09-29T10:41:23Z</time>
      </trkpt>
      <trkpt lat="44.42709" lon="5.25269">
        <ele>736</ele>
        <time>2022-09-29T10:41:24Z</time>
      </trkpt>
      <trkpt lat="44.42708" lon="5.2527">
        <ele>736</ele>
        <time>2022-09-29T10:41:25Z</time>
      </trkpt>
      <trkpt lat="44.42708" lon="5.25271">
        <ele>736</ele>
        <time>2022-09-29T10:41:26Z</time>
      </trkpt>
      <trkpt lat="44.42707" lon="5.25271">
        <ele>736</ele>
        <time>2022-09-29T10:41:27Z</time>
      </trkpt>
      <trkpt lat="44.42706" lon="5.25272">
        <ele>737</ele>
        <time>2022-09-29T10:41:28Z</time>
      </trkpt>
      <trkpt lat="44.42706" lon="5.25272">
        <ele>737</ele>
        <time>2022-09-29T10:41:29Z</time>
      </trkpt>
      <trkpt lat="44.42705" lon="5.25272">
        <ele>737</ele>
        <time>2022-09-29T10:41:30Z</time>
      </trkpt>
      <trkpt lat="44.42705" lon="5.25273">
        <ele>737</ele>
        <time>2022-09-29T10:41:31Z</time>
      </trkpt>
      <trkpt lat="44.42704" lon="5.25274">
        <ele>737</ele>
        <time>2022-09-29T10:41:32Z</time>
      </trkpt>
      <trkpt lat="44.42704" lon="5.25274">
        <ele>738</ele>
        <time>2022-09-29T10:41:33Z</time>
      </trkpt>
      <trkpt lat="44.42703" lon="5.25275">
        <ele>738</ele>
        <time>2022-09-29T10:41:34Z</time>
      </trkpt>
      <trkpt lat="44.42703" lon="5.25275">
        <ele>738</ele>
        <time>2022-09-29T10:41:35Z</time>
      </trkpt>
      <trkpt lat="44.42702" lon="5.25276">
        <ele>738</ele>
        <time>2022-09-29T10:41:36Z</time>
      </trkpt>
      <trkpt lat="44.42702" lon="5.25276">
        <ele>738</ele>
        <time>2022-09-29T10:41:37Z</time>
      </trkpt>
      <trkpt lat="44.42701" lon="5.25277">
        <ele>738</ele>
        <time>2022-09-29T10:41:38Z</time>
      </trkpt>
      <trkpt lat="44.427" lon="5.25277">
        <ele>738</ele>
        <time>2022-09-29T10:41:39Z</time>
      </trkpt>
      <trkpt lat="44.427" lon="5.25277">
        <ele>738</ele>
        <time>2022-09-29T10:41:40Z</time>
      </trkpt>
      <trkpt lat="44.427" lon="5.25278">
        <ele>739</ele>
        <time>2022-09-29T10:41:41Z</time>
      </trkpt>
      <trkpt lat="44.42699" lon="5.25278">
        <ele>739</ele>
        <time>2022-09-29T10:41:42Z</time>
      </trkpt>
      <trkpt lat="44.42699" lon="5.25278">
        <ele>740</ele>
        <time>2022-09-29T10:41:43Z</time>
      </trkpt>
      <trkpt lat="44.42698" lon="5.25279">
        <ele>740</ele>
        <time>2022-09-29T10:41:44Z</time>
      </trkpt>
      <trkpt lat="44.42698" lon="5.25279">
        <ele>740</ele>
        <time>2022-09-29T10:41:45Z</time>
      </trkpt>
      <trkpt lat="44.42697" lon="5.25279">
        <ele>740</ele>
        <time>2022-09-29T10:41:46Z</time>
      </trkpt>
      <trkpt lat="44.42696" lon="5.2528">
        <ele>740</ele>
        <time>2022-09-29T10:41:47Z</time>
      </trkpt>
      <trkpt lat="44.42695" lon="5.2528">
        <ele>740</ele>
        <time>2022-09-29T10:41:48Z</time>
      </trkpt>
      <trkpt lat="44.42695" lon="5.2528">
        <ele>740</ele>
        <time>2022-09-29T10:41:49Z</time>
      </trkpt>
      <trkpt lat="44.42694" lon="5.2528">
        <ele>740</ele>
        <time>2022-09-29T10:41:50Z</time>
      </trkpt>
      <trkpt lat="44.42694" lon="5.2528">
        <ele>740</ele>
        <time>2022-09-29T10:41:51Z</time>
      </trkpt>
      <trkpt lat="44.42693" lon="5.25279">
        <ele>740</ele>
        <time>2022-09-29T10:41:52Z</time>
      </trkpt>
      <trkpt lat="44.42693" lon="5.25279">
        <ele>741</ele>
        <time>2022-09-29T10:41:53Z</time>
      </trkpt>
      <trkpt lat="44.42692" lon="5.2528">
        <ele>741</ele>
        <time>2022-09-29T10:41:54Z</time>
      </trkpt>
      <trkpt lat="44.42691" lon="5.2528">
        <ele>741</ele>
        <time>2022-09-29T10:41:55Z</time>
      </trkpt>
      <trkpt lat="44.4269" lon="5.2528">
        <ele>741</ele>
        <time>2022-09-29T10:41:56Z</time>
      </trkpt>
      <trkpt lat="44.42689" lon="5.25281">
        <ele>741</ele>
        <time>2022-09-29T10:41:57Z</time>
      </trkpt>
      <trkpt lat="44.42689" lon="5.25281">
        <ele>741</ele>
        <time>2022-09-29T10:41:58Z</time>
      </trkpt>
      <trkpt lat="44.42688" lon="5.25282">
        <ele>741</ele>
        <time>2022-09-29T10:41:59Z</time>
      </trkpt>
      <trkpt lat="44.42688" lon="5.25282">
        <ele>741</ele>
        <time>2022-09-29T10:42:00Z</time>
      </trkpt>
      <trkpt lat="44.42687" lon="5.25282">
        <ele>741</ele>
        <time>2022-09-29T10:42:01Z</time>
      </trkpt>
      <trkpt lat="44.42687" lon="5.25283">
        <ele>741</ele>
        <time>2022-09-29T10:42:02Z</time>
      </trkpt>
      <trkpt lat="44.42686" lon="5.25283">
        <ele>742</ele>
        <time>2022-09-29T10:42:03Z</time>
      </trkpt>
      <trkpt lat="44.42686" lon="5.25284">
        <ele>742</ele>
        <time>2022-09-29T10:42:04Z</time>
      </trkpt>
      <trkpt lat="44.42685" lon="5.25284">
        <ele>742</ele>
        <time>2022-09-29T10:42:05Z</time>
      </trkpt>
      <trkpt lat="44.42685" lon="5.25285">
        <ele>742</ele>
        <time>2022-09-29T10:42:06Z</time>
      </trkpt>
      <trkpt lat="44.42684" lon="5.25285">
        <ele>742</ele>
        <time>2022-09-29T10:42:07Z</time>
      </trkpt>
      <trkpt lat="44.42684" lon="5.25286">
        <ele>742</ele>
        <time>2022-09-29T10:42:08Z</time>
      </trkpt>
      <trkpt lat="44.42683" lon="5.25287">
        <ele>742</ele>
        <time>2022-09-29T10:42:09Z</time>
      </trkpt>
      <trkpt lat="44.42683" lon="5.25287">
        <ele>742</ele>
        <time>2022-09-29T10:42:10Z</time>
      </trkpt>
      <trkpt lat="44.42682" lon="5.25288">
        <ele>742</ele>
        <time>2022-09-29T10:42:11Z</time>
      </trkpt>
      <trkpt lat="44.42682" lon="5.25289">
        <ele>742</ele>
        <time>2022-09-29T10:42:12Z</time>
      </trkpt>
      <trkpt lat="44.42682" lon="5.2529">
        <ele>743</ele>
        <time>2022-09-29T10:42:13Z</time>
      </trkpt>
      <trkpt lat="44.42681" lon="5.2529">
        <ele>743</ele>
        <time>2022-09-29T10:42:14Z</time>
      </trkpt>
      <trkpt lat="44.42681" lon="5.25291">
        <ele>743</ele>
        <time>2022-09-29T10:42:15Z</time>
      </trkpt>
      <trkpt lat="44.4268" lon="5.25292">
        <ele>743</ele>
        <time>2022-09-29T10:42:16Z</time>
      </trkpt>
      <trkpt lat="44.4268" lon="5.25293">
        <ele>743</ele>
        <time>2022-09-29T10:42:17Z</time>
      </trkpt>
      <trkpt lat="44.42679" lon="5.25293">
        <ele>744</ele>
        <time>2022-09-29T10:42:18Z</time>
      </trkpt>
      <trkpt lat="44.42679" lon="5.25294">
        <ele>744</ele>
        <time>2022-09-29T10:42:19Z</time>
      </trkpt>
      <trkpt lat="44.42679" lon="5.25295">
        <ele>744</ele>
        <time>2022-09-29T10:42:20Z</time>
      </trkpt>
      <trkpt lat="44.42678" lon="5.25296">
        <ele>744</ele>
        <time>2022-09-29T10:42:21Z</time>
      </trkpt>
      <trkpt lat="44.42678" lon="5.25296">
        <ele>744</ele>
        <time>2022-09-29T10:42:22Z</time>
      </trkpt>
      <trkpt lat="44.42677" lon="5.25297">
        <ele>744</ele>
        <time>2022-09-29T10:42:23Z</time>
      </trkpt>
      <trkpt lat="44.42677" lon="5.25298">
        <ele>744</ele>
        <time>2022-09-29T10:42:24Z</time>
      </trkpt>
      <trkpt lat="44.42676" lon="5.25299">
        <ele>744</ele>
        <time>2022-09-29T10:42:25Z</time>
      </trkpt>
      <trkpt lat="44.42676" lon="5.253">
        <ele>744</ele>
        <time>2022-09-29T10:42:26Z</time>
      </trkpt>
      <trkpt lat="44.42676" lon="5.25301">
        <ele>744</ele>
        <time>2022-09-29T10:42:27Z</time>
      </trkpt>
      <trkpt lat="44.42675" lon="5.25302">
        <ele>745</ele>
        <time>2022-09-29T10:42:28Z</time>
      </trkpt>
      <trkpt lat="44.42675" lon="5.25302">
        <ele>745</ele>
        <time>2022-09-29T10:42:29Z</time>
      </trkpt>
      <trkpt lat="44.42675" lon="5.25303">
        <ele>745</ele>
        <time>2022-09-29T10:42:30Z</time>
      </trkpt>
      <trkpt lat="44.42674" lon="5.25305">
        <ele>745</ele>
        <time>2022-09-29T10:42:31Z</time>
      </trkpt>
      <trkpt lat="44.42674" lon="5.25306">
        <ele>745</ele>
        <time>2022-09-29T10:42:32Z</time>
      </trkpt>
      <trkpt lat="44.42673" lon="5.25307">
        <ele>746</ele>
        <time>2022-09-29T10:42:33Z</time>
      </trkpt>
      <trkpt lat="44.42673" lon="5.25308">
        <ele>746</ele>
        <time>2022-09-29T10:42:34Z</time>
      </trkpt>
      <trkpt lat="44.42672" lon="5.25308">
        <ele>746</ele>
        <time>2022-09-29T10:42:35Z</time>
      </trkpt>
      <trkpt lat="44.42672" lon="5.25309">
        <ele>746</ele>
        <time>2022-09-29T10:42:36Z</time>
      </trkpt>
      <trkpt lat="44.42671" lon="5.2531">
        <ele>746</ele>
        <time>2022-09-29T10:42:37Z</time>
      </trkpt>
      <trkpt lat="44.42671" lon="5.25311">
        <ele>747</ele>
        <time>2022-09-29T10:42:38Z</time>
      </trkpt>
      <trkpt lat="44.4267" lon="5.25312">
        <ele>747</ele>
        <time>2022-09-29T10:42:39Z</time>
      </trkpt>
      <trkpt lat="44.4267" lon="5.25312">
        <ele>747</ele>
        <time>2022-09-29T10:42:40Z</time>
      </trkpt>
      <trkpt lat="44.42669" lon="5.25313">
        <ele>747</ele>
        <time>2022-09-29T10:42:41Z</time>
      </trkpt>
      <trkpt lat="44.42669" lon="5.25314">
        <ele>747</ele>
        <time>2022-09-29T10:42:42Z</time>
      </trkpt>
      <trkpt lat="44.42668" lon="5.25314">
        <ele>747</ele>
        <time>2022-09-29T10:42:43Z</time>
      </trkpt>
      <trkpt lat="44.42667" lon="5.25315">
        <ele>747</ele>
        <time>2022-09-29T10:42:44Z</time>
      </trkpt>
      <trkpt lat="44.42666" lon="5.25316">
        <ele>747</ele>
        <time>2022-09-29T10:42:45Z</time>
      </trkpt>
      <trkpt lat="44.42666" lon="5.25317">
        <ele>747</ele>
        <time>2022-09-29T10:42:46Z</time>
      </trkpt>
      <trkpt lat="44.42665" lon="5.25317">
        <ele>747</ele>
        <time>2022-09-29T10:42:47Z</time>
      </trkpt>
      <trkpt lat="44.42664" lon="5.25318">
        <ele>748</ele>
        <time>2022-09-29T10:42:48Z</time>
      </trkpt>
      <trkpt lat="44.42663" lon="5.25319">
        <ele>748</ele>
        <time>2022-09-29T10:42:49Z</time>
      </trkpt>
      <trkpt lat="44.42662" lon="5.25319">
        <ele>748</ele>
        <time>2022-09-29T10:42:50Z</time>
      </trkpt>
      <trkpt lat="44.42662" lon="5.2532">
        <ele>748</ele>
        <time>2022-09-29T10:42:51Z</time>
      </trkpt>
      <trkpt lat="44.42661" lon="5.2532">
        <ele>748</ele>
        <time>2022-09-29T10:42:52Z</time>
      </trkpt>
      <trkpt lat="44.4266" lon="5.25321">
        <ele>749</ele>
        <time>2022-09-29T10:42:53Z</time>
      </trkpt>
      <trkpt lat="44.4266" lon="5.25321">
        <ele>749</ele>
        <time>2022-09-29T10:42:54Z</time>
      </trkpt>
      <trkpt lat="44.42659" lon="5.25322">
        <ele>749</ele>
        <time>2022-09-29T10:42:55Z</time>
      </trkpt>
      <trkpt lat="44.42659" lon="5.25323">
        <ele>749</ele>
        <time>2022-09-29T10:42:56Z</time>
      </trkpt>
      <trkpt lat="44.42659" lon="5.25323">
        <ele>749</ele>
        <time>2022-09-29T10:42:57Z</time>
      </trkpt>
      <trkpt lat="44.42658" lon="5.25324">
        <ele>749</ele>
        <time>2022-09-29T10:42:58Z</time>
      </trkpt>
      <trkpt lat="44.42658" lon="5.25325">
        <ele>749</ele>
        <time>2022-09-29T10:42:59Z</time>
      </trkpt>
      <trkpt lat="44.42657" lon="5.25326">
        <ele>749</ele>
        <time>2022-09-29T10:43:00Z</time>
      </trkpt>
      <trkpt lat="44.42657" lon="5.25326">
        <ele>749</ele>
        <time>2022-09-29T10:43:01Z</time>
      </trkpt>
      <trkpt lat="44.42657" lon="5.25327">
        <ele>749</ele>
        <time>2022-09-29T10:43:02Z</time>
      </trkpt>
      <trkpt lat="44.42656" lon="5.25328">
        <ele>750</ele>
        <time>2022-09-29T10:43:03Z</time>
      </trkpt>
      <trkpt lat="44.42656" lon="5.25329">
        <ele>750</ele>
        <time>2022-09-29T10:43:04Z</time>
      </trkpt>
      <trkpt lat="44.42656" lon="5.2533">
        <ele>750</ele>
        <time>2022-09-29T10:43:05Z</time>
      </trkpt>
      <trkpt lat="44.42656" lon="5.25331">
        <ele>750</ele>
        <time>2022-09-29T10:43:06Z</time>
      </trkpt>
      <trkpt lat="44.42656" lon="5.25331">
        <ele>750</ele>
        <time>2022-09-29T10:43:07Z</time>
      </trkpt>
      <trkpt lat="44.42656" lon="5.25332">
        <ele>750</ele>
        <time>2022-09-29T10:43:08Z</time>
      </trkpt>
      <trkpt lat="44.42656" lon="5.25333">
        <ele>750</ele>
        <time>2022-09-29T10:43:09Z</time>
      </trkpt>
      <trkpt lat="44.42656" lon="5.25334">
        <ele>750</ele>
        <time>2022-09-29T10:43:10Z</time>
      </trkpt>
      <trkpt lat="44.42656" lon="5.25335">
        <ele>750</ele>
        <time>2022-09-29T10:43:11Z</time>
      </trkpt>
      <trkpt lat="44.42656" lon="5.25337">
        <ele>750</ele>
        <time>2022-09-29T10:43:12Z</time>
      </trkpt>
      <trkpt lat="44.42657" lon="5.25338">
        <ele>751</ele>
        <time>2022-09-29T10:43:13Z</time>
      </trkpt>
      <trkpt lat="44.42657" lon="5.25339">
        <ele>751</ele>
        <time>2022-09-29T10:43:14Z</time>
      </trkpt>
      <trkpt lat="44.42657" lon="5.2534">
        <ele>751</ele>
        <time>2022-09-29T10:43:15Z</time>
      </trkpt>
      <trkpt lat="44.42657" lon="5.25341">
        <ele>751</ele>
        <time>2022-09-29T10:43:16Z</time>
      </trkpt>
      <trkpt lat="44.42657" lon="5.25342">
        <ele>751</ele>
        <time>2022-09-29T10:43:17Z</time>
      </trkpt>
      <trkpt lat="44.42657" lon="5.25344">
        <ele>751</ele>
        <time>2022-09-29T10:43:18Z</time>
      </trkpt>
      <trkpt lat="44.42658" lon="5.25345">
        <ele>751</ele>
        <time>2022-09-29T10:43:19Z</time>
      </trkpt>
      <trkpt lat="44.42658" lon="5.25346">
        <ele>751</ele>
        <time>2022-09-29T10:43:20Z</time>
      </trkpt>
      <trkpt lat="44.42658" lon="5.25347">
        <ele>751</ele>
        <time>2022-09-29T10:43:21Z</time>
      </trkpt>
      <trkpt lat="44.42658" lon="5.25348">
        <ele>751</ele>
        <time>2022-09-29T10:43:22Z</time>
      </trkpt>
      <trkpt lat="44.42658" lon="5.25349">
        <ele>752</ele>
        <time>2022-09-29T10:43:23Z</time>
      </trkpt>
      <trkpt lat="44.42658" lon="5.25351">
        <ele>752</ele>
        <time>2022-09-29T10:43:24Z</time>
      </trkpt>
      <trkpt lat="44.42658" lon="5.25352">
        <ele>752</ele>
        <time>2022-09-29T10:43:25Z</time>
      </trkpt>
      <trkpt lat="44.42658" lon="5.25353">
        <ele>752</ele>
        <time>2022-09-29T10:43:26Z</time>
      </trkpt>
      <trkpt lat="44.42658" lon="5.25354">
        <ele>752</ele>
        <time>2022-09-29T10:43:27Z</time>
      </trkpt>
      <trkpt lat="44.42658" lon="5.25357">
        <ele>753</ele>
        <time>2022-09-29T10:44:37Z</time>
      </trkpt>
      <trkpt lat="44.42658" lon="5.25359">
        <ele>753</ele>
        <time>2022-09-29T10:44:38Z</time>
      </trkpt>
      <trkpt lat="44.42658" lon="5.2536">
        <ele>753</ele>
        <time>2022-09-29T10:44:39Z</time>
      </trkpt>
      <trkpt lat="44.4266" lon="5.25363">
        <ele>753</ele>
        <time>2022-09-29T10:45:50Z</time>
      </trkpt>
      <trkpt lat="44.42661" lon="5.25365">
        <ele>753</ele>
        <time>2022-09-29T10:45:51Z</time>
      </trkpt>
      <trkpt lat="44.42662" lon="5.25367">
        <ele>753</ele>
        <time>2022-09-29T10:45:52Z</time>
      </trkpt>
      <trkpt lat="44.42663" lon="5.25367">
        <ele>753</ele>
        <time>2022-09-29T10:45:53Z</time>
      </trkpt>
      <trkpt lat="44.42663" lon="5.25368">
        <ele>753</ele>
        <time>2022-09-29T10:45:54Z</time>
      </trkpt>
      <trkpt lat="44.42664" lon="5.25369">
        <ele>753</ele>
        <time>2022-09-29T10:45:55Z</time>
      </trkpt>
      <trkpt lat="44.42664" lon="5.25369">
        <ele>753</ele>
        <time>2022-09-29T10:45:56Z</time>
      </trkpt>
      <trkpt lat="44.42664" lon="5.2537">
        <ele>753</ele>
        <time>2022-09-29T10:45:57Z</time>
      </trkpt>
      <trkpt lat="44.42665" lon="5.2537">
        <ele>753</ele>
        <time>2022-09-29T10:45:58Z</time>
      </trkpt>
      <trkpt lat="44.42665" lon="5.25371">
        <ele>753</ele>
        <time>2022-09-29T10:45:59Z</time>
      </trkpt>
      <trkpt lat="44.42666" lon="5.25372">
        <ele>753</ele>
        <time>2022-09-29T10:46:00Z</time>
      </trkpt>
      <trkpt lat="44.42667" lon="5.25373">
        <ele>753</ele>
        <time>2022-09-29T10:46:01Z</time>
      </trkpt>
      <trkpt lat="44.42667" lon="5.25373">
        <ele>753</ele>
        <time>2022-09-29T10:46:02Z</time>
      </trkpt>
      <trkpt lat="44.42667" lon="5.25374">
        <ele>753</ele>
        <time>2022-09-29T10:46:03Z</time>
      </trkpt>
      <trkpt lat="44.42668" lon="5.25374">
        <ele>753</ele>
        <time>2022-09-29T10:46:04Z</time>
      </trkpt>
      <trkpt lat="44.42668" lon="5.25375">
        <ele>753</ele>
        <time>2022-09-29T10:46:05Z</time>
      </trkpt>
      <trkpt lat="44.42669" lon="5.25375">
        <ele>753</ele>
        <time>2022-09-29T10:46:06Z</time>
      </trkpt>
      <trkpt lat="44.42669" lon="5.25376">
        <ele>753</ele>
        <time>2022-09-29T10:46:07Z</time>
      </trkpt>
      <trkpt lat="44.4267" lon="5.25377">
        <ele>753</ele>
        <time>2022-09-29T10:46:08Z</time>
      </trkpt>
      <trkpt lat="44.4267" lon="5.25378">
        <ele>753</ele>
        <time>2022-09-29T10:46:09Z</time>
      </trkpt>
      <trkpt lat="44.42671" lon="5.25378">
        <ele>753</ele>
        <time>2022-09-29T10:46:10Z</time>
      </trkpt>
      <trkpt lat="44.42671" lon="5.25378">
        <ele>753</ele>
        <time>2022-09-29T10:46:11Z</time>
      </trkpt>
      <trkpt lat="44.42671" lon="5.25379">
        <ele>753</ele>
        <time>2022-09-29T10:46:12Z</time>
      </trkpt>
      <trkpt lat="44.42671" lon="5.25379">
        <ele>754</ele>
        <time>2022-09-29T10:46:13Z</time>
      </trkpt>
      <trkpt lat="44.42671" lon="5.2538">
        <ele>754</ele>
        <time>2022-09-29T10:46:14Z</time>
      </trkpt>
      <trkpt lat="44.42672" lon="5.25381">
        <ele>754</ele>
        <time>2022-09-29T10:46:15Z</time>
      </trkpt>
      <trkpt lat="44.42672" lon="5.25383">
        <ele>754</ele>
        <time>2022-09-29T10:46:16Z</time>
      </trkpt>
      <trkpt lat="44.42672" lon="5.25386">
        <ele>754</ele>
        <time>2022-09-29T10:47:04Z</time>
      </trkpt>
      <trkpt lat="44.42672" lon="5.25387">
        <ele>754</ele>
        <time>2022-09-29T10:47:05Z</time>
      </trkpt>
      <trkpt lat="44.42672" lon="5.25388">
        <ele>754</ele>
        <time>2022-09-29T10:47:06Z</time>
      </trkpt>
      <trkpt lat="44.42672" lon="5.25388">
        <ele>754</ele>
        <time>2022-09-29T10:47:07Z</time>
      </trkpt>
      <trkpt lat="44.42672" lon="5.25388">
        <ele>754</ele>
        <time>2022-09-29T10:47:08Z</time>
      </trkpt>
      <trkpt lat="44.42672" lon="5.25387">
        <ele>754</ele>
        <time>2022-09-29T10:47:09Z</time>
      </trkpt>
      <trkpt lat="44.42672" lon="5.25386">
        <ele>754</ele>
        <time>2022-09-29T10:47:10Z</time>
      </trkpt>
      <trkpt lat="44.42672" lon="5.25386">
        <ele>754</ele>
        <time>2022-09-29T10:47:11Z</time>
      </trkpt>
      <trkpt lat="44.42672" lon="5.25385">
        <ele>754</ele>
        <time>2022-09-29T10:47:12Z</time>
      </trkpt>
      <trkpt lat="44.42672" lon="5.25384">
        <ele>754</ele>
        <time>2022-09-29T10:47:13Z</time>
      </trkpt>
      <trkpt lat="44.42671" lon="5.25383">
        <ele>753</ele>
        <time>2022-09-29T10:47:14Z</time>
      </trkpt>
      <trkpt lat="44.42671" lon="5.25382">
        <ele>753</ele>
        <time>2022-09-29T10:47:15Z</time>
      </trkpt>
      <trkpt lat="44.42671" lon="5.25381">
        <ele>753</ele>
        <time>2022-09-29T10:47:16Z</time>
      </trkpt>
      <trkpt lat="44.42671" lon="5.25381">
        <ele>753</ele>
        <time>2022-09-29T10:47:17Z</time>
      </trkpt>
      <trkpt lat="44.42671" lon="5.2538">
        <ele>753</ele>
        <time>2022-09-29T10:47:18Z</time>
      </trkpt>
      <trkpt lat="44.4267" lon="5.25379">
        <ele>753</ele>
        <time>2022-09-29T10:47:19Z</time>
      </trkpt>
      <trkpt lat="44.4267" lon="5.25378">
        <ele>753</ele>
        <time>2022-09-29T10:47:20Z</time>
      </trkpt>
      <trkpt lat="44.42669" lon="5.25378">
        <ele>753</ele>
        <time>2022-09-29T10:47:21Z</time>
      </trkpt>
      <trkpt lat="44.42669" lon="5.25377">
        <ele>753</ele>
        <time>2022-09-29T10:47:22Z</time>
      </trkpt>
      <trkpt lat="44.42668" lon="5.25376">
        <ele>754</ele>
        <time>2022-09-29T10:47:23Z</time>
      </trkpt>
      <trkpt lat="44.42668" lon="5.25376">
        <ele>754</ele>
        <time>2022-09-29T10:47:24Z</time>
      </trkpt>
      <trkpt lat="44.42666" lon="5.25374">
        <ele>754</ele>
        <time>2022-09-29T10:47:32Z</time>
      </trkpt>
      <trkpt lat="44.42665" lon="5.25373">
        <ele>754</ele>
        <time>2022-09-29T10:47:33Z</time>
      </trkpt>
      <trkpt lat="44.42664" lon="5.25372">
        <ele>754</ele>
        <time>2022-09-29T10:47:34Z</time>
      </trkpt>
      <trkpt lat="44.42664" lon="5.25371">
        <ele>754</ele>
        <time>2022-09-29T10:47:35Z</time>
      </trkpt>
      <trkpt lat="44.42663" lon="5.2537">
        <ele>754</ele>
        <time>2022-09-29T10:47:36Z</time>
      </trkpt>
      <trkpt lat="44.42663" lon="5.25369">
        <ele>754</ele>
        <time>2022-09-29T10:47:37Z</time>
      </trkpt>
      <trkpt lat="44.42662" lon="5.25368">
        <ele>754</ele>
        <time>2022-09-29T10:47:38Z</time>
      </trkpt>
      <trkpt lat="44.42662" lon="5.25368">
        <ele>753</ele>
        <time>2022-09-29T10:47:39Z</time>
      </trkpt>
      <trkpt lat="44.42662" lon="5.25367">
        <ele>753</ele>
        <time>2022-09-29T10:47:40Z</time>
      </trkpt>
      <trkpt lat="44.42662" lon="5.25365">
        <ele>753</ele>
        <time>2022-09-29T10:47:53Z</time>
      </trkpt>
      <trkpt lat="44.42662" lon="5.25364">
        <ele>753</ele>
        <time>2022-09-29T10:47:54Z</time>
      </trkpt>
      <trkpt lat="44.42663" lon="5.25364">
        <ele>753</ele>
        <time>2022-09-29T10:47:55Z</time>
      </trkpt>
      <trkpt lat="44.42664" lon="5.25364">
        <ele>753</ele>
        <time>2022-09-29T10:47:56Z</time>
      </trkpt>
      <trkpt lat="44.42664" lon="5.25364">
        <ele>753</ele>
        <time>2022-09-29T10:47:57Z</time>
      </trkpt>
      <trkpt lat="44.42665" lon="5.25363">
        <ele>753</ele>
        <time>2022-09-29T10:47:58Z</time>
      </trkpt>
      <trkpt lat="44.42666" lon="5.25363">
        <ele>753</ele>
        <time>2022-09-29T10:47:59Z</time>
      </trkpt>
      <trkpt lat="44.42667" lon="5.25363">
        <ele>753</ele>
        <time>2022-09-29T10:48:07Z</time>
      </trkpt>
      <trkpt lat="44.42668" lon="5.25363">
        <ele>753</ele>
        <time>2022-09-29T10:48:08Z</time>
      </trkpt>
      <trkpt lat="44.42669" lon="5.25362">
        <ele>753</ele>
        <time>2022-09-29T10:48:09Z</time>
      </trkpt>
      <trkpt lat="44.42669" lon="5.25362">
        <ele>753</ele>
        <time>2022-09-29T10:48:10Z</time>
      </trkpt>
      <trkpt lat="44.4267" lon="5.25362">
        <ele>753</ele>
        <time>2022-09-29T10:48:11Z</time>
      </trkpt>
      <trkpt lat="44.4267" lon="5.25362">
        <ele>753</ele>
        <time>2022-09-29T10:48:12Z</time>
      </trkpt>
      <trkpt lat="44.4267" lon="5.25363">
        <ele>753</ele>
        <time>2022-09-29T11:07:27Z</time>
      </trkpt>
      <trkpt lat="44.42669" lon="5.25364">
        <ele>753</ele>
        <time>2022-09-29T11:07:28Z</time>
      </trkpt>
      <trkpt lat="44.42668" lon="5.25365">
        <ele>753</ele>
        <time>2022-09-29T11:07:29Z</time>
      </trkpt>
      <trkpt lat="44.42668" lon="5.25365">
        <ele>753</ele>
        <time>2022-09-29T11:07:30Z</time>
      </trkpt>
      <trkpt lat="44.42667" lon="5.25365">
        <ele>753</ele>
        <time>2022-09-29T11:07:31Z</time>
      </trkpt>
      <trkpt lat="44.42667" lon="5.25365">
        <ele>753</ele>
        <time>2022-09-29T11:07:32Z</time>
      </trkpt>
      <trkpt lat="44.42666" lon="5.25366">
        <ele>753</ele>
        <time>2022-09-29T11:07:33Z</time>
      </trkpt>
      <trkpt lat="44.42666" lon="5.25366">
        <ele>753</ele>
        <time>2022-09-29T11:07:34Z</time>
      </trkpt>
      <trkpt lat="44.42666" lon="5.25365">
        <ele>754</ele>
        <time>2022-09-29T11:09:19Z</time>
      </trkpt>
      <trkpt lat="44.42666" lon="5.25365">
        <ele>754</ele>
        <time>2022-09-29T11:09:20Z</time>
      </trkpt>
      <trkpt lat="44.42667" lon="5.25364">
        <ele>754</ele>
        <time>2022-09-29T11:09:21Z</time>
      </trkpt>
      <trkpt lat="44.42668" lon="5.25364">
        <ele>754</ele>
        <time>2022-09-29T11:09:22Z</time>
      </trkpt>
      <trkpt lat="44.42668" lon="5.25364">
        <ele>754</ele>
        <time>2022-09-29T11:09:23Z</time>
      </trkpt>
      <trkpt lat="44.42669" lon="5.25364">
        <ele>754</ele>
        <time>2022-09-29T11:09:24Z</time>
      </trkpt>
      <trkpt lat="44.42669" lon="5.25364">
        <ele>754</ele>
        <time>2022-09-29T11:09:25Z</time>
      </trkpt>
      <trkpt lat="44.42668" lon="5.25363">
        <ele>753</ele>
        <time>2022-09-29T11:12:38Z</time>
      </trkpt>
      <trkpt lat="44.42668" lon="5.25362">
        <ele>753</ele>
        <time>2022-09-29T11:12:39Z</time>
      </trkpt>
      <trkpt lat="44.42667" lon="5.25362">
        <ele>753</ele>
        <time>2022-09-29T11:12:40Z</time>
      </trkpt>
      <trkpt lat="44.42668" lon="5.25363">
        <ele>753</ele>
        <time>2022-09-29T11:12:55Z</time>
      </trkpt>
      <trkpt lat="44.42668" lon="5.25363">
        <ele>753</ele>
        <time>2022-09-29T11:12:56Z</time>
      </trkpt>
      <trkpt lat="44.42668" lon="5.25364">
        <ele>753</ele>
        <time>2022-09-29T11:12:57Z</time>
      </trkpt>
      <trkpt lat="44.42669" lon="5.25365">
        <ele>753</ele>
        <time>2022-09-29T11:13:16Z</time>
      </trkpt>
      <trkpt lat="44.42669" lon="5.25364">
        <ele>753</ele>
        <time>2022-09-29T11:13:17Z</time>
      </trkpt>
      <trkpt lat="44.4267" lon="5.25364">
        <ele>753</ele>
        <time>2022-09-29T11:13:18Z</time>
      </trkpt>
      <trkpt lat="44.4267" lon="5.25364">
        <ele>753</ele>
        <time>2022-09-29T11:13:19Z</time>
      </trkpt>
      <trkpt lat="44.42671" lon="5.25364">
        <ele>753</ele>
        <time>2022-09-29T11:13:20Z</time>
      </trkpt>
      <trkpt lat="44.42672" lon="5.25364">
        <ele>754</ele>
        <time>2022-09-29T11:13:57Z</time>
      </trkpt>
      <trkpt lat="44.42672" lon="5.25364">
        <ele>754</ele>
        <time>2022-09-29T11:13:58Z</time>
      </trkpt>
      <trkpt lat="44.42673" lon="5.25364">
        <ele>754</ele>
        <time>2022-09-29T11:13:59Z</time>
      </trkpt>
      <trkpt lat="44.42673" lon="5.25364">
        <ele>753</ele>
        <time>2022-09-29T11:14:09Z</time>
      </trkpt>
      <trkpt lat="44.42674" lon="5.25363">
        <ele>753</ele>
        <time>2022-09-29T11:14:10Z</time>
      </trkpt>
      <trkpt lat="44.42674" lon="5.25363">
        <ele>753</ele>
        <time>2022-09-29T11:14:11Z</time>
      </trkpt>
      <trkpt lat="44.42675" lon="5.25363">
        <ele>753</ele>
        <time>2022-09-29T11:14:12Z</time>
      </trkpt>
      <trkpt lat="44.42675" lon="5.25362">
        <ele>753</ele>
        <time>2022-09-29T11:14:13Z</time>
      </trkpt>
      <trkpt lat="44.42676" lon="5.25362">
        <ele>753</ele>
        <time>2022-09-29T11:14:14Z</time>
      </trkpt>
      <trkpt lat="44.42677" lon="5.25362">
        <ele>753</ele>
        <time>2022-09-29T11:14:15Z</time>
      </trkpt>
      <trkpt lat="44.42677" lon="5.25362">
        <ele>753</ele>
        <time>2022-09-29T11:14:16Z</time>
      </trkpt>
      <trkpt lat="44.42677" lon="5.25362">
        <ele>753</ele>
        <time>2022-09-29T11:14:17Z</time>
      </trkpt>
      <trkpt lat="44.42677" lon="5.25362">
        <ele>753</ele>
        <time>2022-09-29T11:14:18Z</time>
      </trkpt>
      <trkpt lat="44.42678" lon="5.25362">
        <ele>753</ele>
        <time>2022-09-29T11:14:19Z</time>
      </trkpt>
      <trkpt lat="44.42678" lon="5.25361">
        <ele>753</ele>
        <time>2022-09-29T11:14:20Z</time>
      </trkpt>
      <trkpt lat="44.42678" lon="5.25361">
        <ele>753</ele>
        <time>2022-09-29T11:14:21Z</time>
      </trkpt>
      <trkpt lat="44.42678" lon="5.2536">
        <ele>753</ele>
        <time>2022-09-29T11:14:22Z</time>
      </trkpt>
      <trkpt lat="44.42678" lon="5.2536">
        <ele>753</ele>
        <time>2022-09-29T11:14:23Z</time>
      </trkpt>
      <trkpt lat="44.42678" lon="5.2536">
        <ele>753</ele>
        <time>2022-09-29T11:14:24Z</time>
      </trkpt>
      <trkpt lat="44.42678" lon="5.2536">
        <ele>753</ele>
        <time>2022-09-29T11:14:25Z</time>
      </trkpt>
      <trkpt lat="44.42677" lon="5.25361">
        <ele>753</ele>
        <time>2022-09-29T11:14:26Z</time>
      </trkpt>
      <trkpt lat="44.42677" lon="5.25363">
        <ele>753</ele>
        <time>2022-09-29T11:14:27Z</time>
      </trkpt>
      <trkpt lat="44.42676" lon="5.25364">
        <ele>753</ele>
        <time>2022-09-29T11:14:28Z</time>
      </trkpt>
      <trkpt lat="44.42675" lon="5.25365">
        <ele>753</ele>
        <time>2022-09-29T11:14:29Z</time>
      </trkpt>
      <trkpt lat="44.42674" lon="5.25366">
        <ele>753</ele>
        <time>2022-09-29T11:14:30Z</time>
      </trkpt>
      <trkpt lat="44.42672" lon="5.25366">
        <ele>753</ele>
        <time>2022-09-29T11:14:31Z</time>
      </trkpt>
      <trkpt lat="44.42671" lon="5.25366">
        <ele>753</ele>
        <time>2022-09-29T11:14:32Z</time>
      </trkpt>
      <trkpt lat="44.42671" lon="5.25366">
        <ele>754</ele>
        <time>2022-09-29T11:14:33Z</time>
      </trkpt>
      <trkpt lat="44.4267" lon="5.25366">
        <ele>753</ele>
        <time>2022-09-29T11:14:34Z</time>
      </trkpt>
      <trkpt lat="44.42669" lon="5.25365">
        <ele>753</ele>
        <time>2022-09-29T11:14:35Z</time>
      </trkpt>
      <trkpt lat="44.4267" lon="5.25365">
        <ele>753</ele>
        <time>2022-09-29T11:14:36Z</time>
      </trkpt>
      <trkpt lat="44.4267" lon="5.25364">
        <ele>753</ele>
        <time>2022-09-29T11:14:37Z</time>
      </trkpt>
      <trkpt lat="44.4267" lon="5.25364">
        <ele>753</ele>
        <time>2022-09-29T11:14:38Z</time>
      </trkpt>
      <trkpt lat="44.42671" lon="5.25364">
        <ele>753</ele>
        <time>2022-09-29T11:14:39Z</time>
      </trkpt>
      <trkpt lat="44.42671" lon="5.25363">
        <ele>753</ele>
        <time>2022-09-29T11:14:40Z</time>
      </trkpt>
      <trkpt lat="44.42672" lon="5.25362">
        <ele>753</ele>
        <time>2022-09-29T11:14:41Z</time>
      </trkpt>
      <trkpt lat="44.42673" lon="5.25361">
        <ele>753</ele>
        <time>2022-09-29T11:14:42Z</time>
      </trkpt>
      <trkpt lat="44.42674" lon="5.25361">
        <ele>754</ele>
        <time>2022-09-29T11:15:06Z</time>
      </trkpt>
      <trkpt lat="44.42673" lon="5.25362">
        <ele>754</ele>
        <time>2022-09-29T11:15:07Z</time>
      </trkpt>
      <trkpt lat="44.42672" lon="5.25362">
        <ele>754</ele>
        <time>2022-09-29T11:15:08Z</time>
      </trkpt>
      <trkpt lat="44.42672" lon="5.25363">
        <ele>754</ele>
        <time>2022-09-29T11:15:09Z</time>
      </trkpt>
      <trkpt lat="44.42671" lon="5.25364">
        <ele>754</ele>
        <time>2022-09-29T11:15:10Z</time>
      </trkpt>
      <trkpt lat="44.42671" lon="5.25365">
        <ele>754</ele>
        <time>2022-09-29T11:15:11Z</time>
      </trkpt>
      <trkpt lat="44.42672" lon="5.25365">
        <ele>754</ele>
        <time>2022-09-29T11:15:12Z</time>
      </trkpt>
      <trkpt lat="44.42672" lon="5.25366">
        <ele>753</ele>
        <time>2022-09-29T11:15:24Z</time>
      </trkpt>
      <trkpt lat="44.42672" lon="5.25366">
        <ele>753</ele>
        <time>2022-09-29T11:15:25Z</time>
      </trkpt>
      <trkpt lat="44.42671" lon="5.25366">
        <ele>753</ele>
        <time>2022-09-29T11:15:26Z</time>
      </trkpt>
      <trkpt lat="44.42671" lon="5.25366">
        <ele>753</ele>
        <time>2022-09-29T11:15:27Z</time>
      </trkpt>
      <trkpt lat="44.42671" lon="5.25366">
        <ele>753</ele>
        <time>2022-09-29T11:15:28Z</time>
      </trkpt>
      <trkpt lat="44.42671" lon="5.25364">
        <ele>754</ele>
        <time>2022-09-29T11:15:42Z</time>
      </trkpt>
      <trkpt lat="44.42672" lon="5.25363">
        <ele>754</ele>
        <time>2022-09-29T11:15:43Z</time>
      </trkpt>
      <trkpt lat="44.42672" lon="5.25362">
        <ele>754</ele>
        <time>2022-09-29T11:15:44Z</time>
      </trkpt>
      <trkpt lat="44.42672" lon="5.25363">
        <ele>754</ele>
        <time>2022-09-29T11:17:20Z</time>
      </trkpt>
      <trkpt lat="44.42672" lon="5.25364">
        <ele>754</ele>
        <time>2022-09-29T11:17:21Z</time>
      </trkpt>
      <trkpt lat="44.42672" lon="5.25365">
        <ele>754</ele>
        <time>2022-09-29T11:17:22Z</time>
      </trkpt>
      <trkpt lat="44.42672" lon="5.25366">
        <ele>754</ele>
        <time>2022-09-29T11:17:23Z</time>
      </trkpt>
      <trkpt lat="44.42672" lon="5.25367">
        <ele>753</ele>
        <time>2022-09-29T11:17:24Z</time>
      </trkpt>
      <trkpt lat="44.42672" lon="5.25367">
        <ele>753</ele>
        <time>2022-09-29T11:17:25Z</time>
      </trkpt>
      <trkpt lat="44.42673" lon="5.25367">
        <ele>753</ele>
        <time>2022-09-29T11:17:26Z</time>
      </trkpt>
      <trkpt lat="44.42673" lon="5.25367">
        <ele>753</ele>
        <time>2022-09-29T11:17:27Z</time>
      </trkpt>
      <trkpt lat="44.42674" lon="5.25368">
        <ele>753</ele>
        <time>2022-09-29T11:17:28Z</time>
      </trkpt>
      <trkpt lat="44.42674" lon="5.25368">
        <ele>753</ele>
        <time>2022-09-29T11:17:29Z</time>
      </trkpt>
      <trkpt lat="44.42675" lon="5.25369">
        <ele>753</ele>
        <time>2022-09-29T11:17:30Z</time>
      </trkpt>
      <trkpt lat="44.42675" lon="5.2537">
        <ele>753</ele>
        <time>2022-09-29T11:17:40Z</time>
      </trkpt>
      <trkpt lat="44.42675" lon="5.2537">
        <ele>753</ele>
        <time>2022-09-29T11:17:41Z</time>
      </trkpt>
      <trkpt lat="44.42675" lon="5.2537">
        <ele>753</ele>
        <time>2022-09-29T11:17:42Z</time>
      </trkpt>
      <trkpt lat="44.42674" lon="5.2537">
        <ele>753</ele>
        <time>2022-09-29T11:17:43Z</time>
      </trkpt>
      <trkpt lat="44.42674" lon="5.2537">
        <ele>753</ele>
        <time>2022-09-29T11:17:44Z</time>
      </trkpt>
      <trkpt lat="44.42673" lon="5.25366">
        <ele>755</ele>
        <time>2022-09-29T11:23:54Z</time>
      </trkpt>
      <trkpt lat="44.42673" lon="5.25365">
        <ele>755</ele>
        <time>2022-09-29T11:23:55Z</time>
      </trkpt>
      <trkpt lat="44.42672" lon="5.25364">
        <ele>755</ele>
        <time>2022-09-29T11:23:56Z</time>
      </trkpt>
      <trkpt lat="44.42671" lon="5.25364">
        <ele>755</ele>
        <time>2022-09-29T11:24:10Z</time>
      </trkpt>
      <trkpt lat="44.4267" lon="5.25365">
        <ele>755</ele>
        <time>2022-09-29T11:24:11Z</time>
      </trkpt>
      <trkpt lat="44.4267" lon="5.25365">
        <ele>755</ele>
        <time>2022-09-29T11:24:12Z</time>
      </trkpt>
      <trkpt lat="44.42668" lon="5.25366">
        <ele>757</ele>
        <time>2022-09-29T11:24:53Z</time>
      </trkpt>
      <trkpt lat="44.42668" lon="5.25366">
        <ele>756</ele>
        <time>2022-09-29T11:24:54Z</time>
      </trkpt>
      <trkpt lat="44.42667" lon="5.25366">
        <ele>756</ele>
        <time>2022-09-29T11:24:55Z</time>
      </trkpt>
      <trkpt lat="44.42667" lon="5.25366">
        <ele>755</ele>
        <time>2022-09-29T11:25:16Z</time>
      </trkpt>
      <trkpt lat="44.42667" lon="5.25366">
        <ele>755</ele>
        <time>2022-09-29T11:25:17Z</time>
      </trkpt>
      <trkpt lat="44.42667" lon="5.25366">
        <ele>755</ele>
        <time>2022-09-29T11:25:18Z</time>
      </trkpt>
      <trkpt lat="44.42665" lon="5.25365">
        <ele>757</ele>
        <time>2022-09-29T11:26:04Z</time>
      </trkpt>
      <trkpt lat="44.42665" lon="5.25365">
        <ele>757</ele>
        <time>2022-09-29T11:26:05Z</time>
      </trkpt>
      <trkpt lat="44.42664" lon="5.25365">
        <ele>757</ele>
        <time>2022-09-29T11:26:06Z</time>
      </trkpt>
      <trkpt lat="44.42664" lon="5.25365">
        <ele>757</ele>
        <time>2022-09-29T11:26:07Z</time>
      </trkpt>
      <trkpt lat="44.42663" lon="5.25365">
        <ele>757</ele>
        <time>2022-09-29T11:26:08Z</time>
      </trkpt>
      <trkpt lat="44.42663" lon="5.25366">
        <ele>757</ele>
        <time>2022-09-29T11:26:36Z</time>
      </trkpt>
      <trkpt lat="44.42663" lon="5.25366">
        <ele>757</ele>
        <time>2022-09-29T11:26:37Z</time>
      </trkpt>
      <trkpt lat="44.42663" lon="5.25367">
        <ele>757</ele>
        <time>2022-09-29T11:26:38Z</time>
      </trkpt>
      <trkpt lat="44.42664" lon="5.25365">
        <ele>755</ele>
        <time>2022-09-29T11:27:02Z</time>
      </trkpt>
      <trkpt lat="44.42665" lon="5.25364">
        <ele>755</ele>
        <time>2022-09-29T11:27:03Z</time>
      </trkpt>
      <trkpt lat="44.42666" lon="5.25363">
        <ele>755</ele>
        <time>2022-09-29T11:27:04Z</time>
      </trkpt>
      <trkpt lat="44.42666" lon="5.25362">
        <ele>755</ele>
        <time>2022-09-29T11:27:05Z</time>
      </trkpt>
      <trkpt lat="44.42667" lon="5.25361">
        <ele>755</ele>
        <time>2022-09-29T11:27:06Z</time>
      </trkpt>
      <trkpt lat="44.42668" lon="5.2536">
        <ele>755</ele>
        <time>2022-09-29T11:27:07Z</time>
      </trkpt>
      <trkpt lat="44.42668" lon="5.2536">
        <ele>755</ele>
        <time>2022-09-29T11:27:08Z</time>
      </trkpt>
      <trkpt lat="44.42668" lon="5.25359">
        <ele>755</ele>
        <time>2022-09-29T11:27:09Z</time>
      </trkpt>
      <trkpt lat="44.42669" lon="5.25359">
        <ele>755</ele>
        <time>2022-09-29T11:27:10Z</time>
      </trkpt>
      <trkpt lat="44.42668" lon="5.25359">
        <ele>756</ele>
        <time>2022-09-29T11:27:11Z</time>
      </trkpt>
      <trkpt lat="44.42668" lon="5.2536">
        <ele>756</ele>
        <time>2022-09-29T11:27:12Z</time>
      </trkpt>
      <trkpt lat="44.42668" lon="5.2536">
        <ele>755</ele>
        <time>2022-09-29T11:28:50Z</time>
      </trkpt>
      <trkpt lat="44.42668" lon="5.25361">
        <ele>755</ele>
        <time>2022-09-29T11:28:51Z</time>
      </trkpt>
      <trkpt lat="44.42668" lon="5.25362">
        <ele>755</ele>
        <time>2022-09-29T11:28:52Z</time>
      </trkpt>
      <trkpt lat="44.42668" lon="5.25363">
        <ele>755</ele>
        <time>2022-09-29T11:31:34Z</time>
      </trkpt>
      <trkpt lat="44.42668" lon="5.25363">
        <ele>755</ele>
        <time>2022-09-29T11:31:35Z</time>
      </trkpt>
      <trkpt lat="44.42668" lon="5.25363">
        <ele>755</ele>
        <time>2022-09-29T11:31:36Z</time>
      </trkpt>
      <trkpt lat="44.42668" lon="5.25363">
        <ele>755</ele>
        <time>2022-09-29T11:31:37Z</time>
      </trkpt>
      <trkpt lat="44.42668" lon="5.25363">
        <ele>755</ele>
        <time>2022-09-29T11:31:38Z</time>
      </trkpt>
      <trkpt lat="44.42669" lon="5.25363">
        <ele>755</ele>
        <time>2022-09-29T11:31:39Z</time>
      </trkpt>
      <trkpt lat="44.42669" lon="5.25363">
        <ele>755</ele>
        <time>2022-09-29T11:31:40Z</time>
      </trkpt>
      <trkpt lat="44.4267" lon="5.25363">
        <ele>755</ele>
        <time>2022-09-29T11:31:41Z</time>
      </trkpt>
      <trkpt lat="44.42668" lon="5.25362">
        <ele>755</ele>
        <time>2022-09-29T11:33:45Z</time>
      </trkpt>
      <trkpt lat="44.42668" lon="5.25361">
        <ele>755</ele>
        <time>2022-09-29T11:33:46Z</time>
      </trkpt>
      <trkpt lat="44.42667" lon="5.25361">
        <ele>755</ele>
        <time>2022-09-29T11:33:47Z</time>
      </trkpt>
      <trkpt lat="44.42667" lon="5.25361">
        <ele>755</ele>
        <time>2022-09-29T11:33:48Z</time>
      </trkpt>
      <trkpt lat="44.42667" lon="5.25361">
        <ele>755</ele>
        <time>2022-09-29T11:33:49Z</time>
      </trkpt>
      <trkpt lat="44.42666" lon="5.25362">
        <ele>755</ele>
        <time>2022-09-29T11:33:50Z</time>
      </trkpt>
      <trkpt lat="44.42666" lon="5.25363">
        <ele>755</ele>
        <time>2022-09-29T11:33:51Z</time>
      </trkpt>
      <trkpt lat="44.42666" lon="5.25363">
        <ele>755</ele>
        <time>2022-09-29T11:33:57Z</time>
      </trkpt>
      <trkpt lat="44.42666" lon="5.25363">
        <ele>755</ele>
        <time>2022-09-29T11:33:58Z</time>
      </trkpt>
      <trkpt lat="44.42666" lon="5.25363">
        <ele>755</ele>
        <time>2022-09-29T11:33:59Z</time>
      </trkpt>
      <trkpt lat="44.42666" lon="5.25362">
        <ele>755</ele>
        <time>2022-09-29T11:34:31Z</time>
      </trkpt>
      <trkpt lat="44.42666" lon="5.25362">
        <ele>755</ele>
        <time>2022-09-29T11:34:32Z</time>
      </trkpt>
      <trkpt lat="44.42666" lon="5.25362">
        <ele>755</ele>
        <time>2022-09-29T11:34:33Z</time>
      </trkpt>
      <trkpt lat="44.42666" lon="5.25362">
        <ele>755</ele>
        <time>2022-09-29T11:34:34Z</time>
      </trkpt>
      <trkpt lat="44.42665" lon="5.25362">
        <ele>755</ele>
        <time>2022-09-29T11:34:35Z</time>
      </trkpt>
      <trkpt lat="44.42666" lon="5.25363">
        <ele>755</ele>
        <time>2022-09-29T11:34:52Z</time>
      </trkpt>
      <trkpt lat="44.42667" lon="5.25363">
        <ele>755</ele>
        <time>2022-09-29T11:34:53Z</time>
      </trkpt>
      <trkpt lat="44.42667" lon="5.25363">
        <ele>755</ele>
        <time>2022-09-29T11:34:54Z</time>
      </trkpt>
      <trkpt lat="44.42668" lon="5.25364">
        <ele>755</ele>
        <time>2022-09-29T11:34:55Z</time>
      </trkpt>
      <trkpt lat="44.42669" lon="5.25364">
        <ele>755</ele>
        <time>2022-09-29T11:34:56Z</time>
      </trkpt>
      <trkpt lat="44.42669" lon="5.25364">
        <ele>755</ele>
        <time>2022-09-29T11:37:21Z</time>
      </trkpt>
      <trkpt lat="44.42669" lon="5.25364">
        <ele>755</ele>
        <time>2022-09-29T11:37:22Z</time>
      </trkpt>
      <trkpt lat="44.42669" lon="5.25364">
        <ele>755</ele>
        <time>2022-09-29T11:37:23Z</time>
      </trkpt>
      <trkpt lat="44.42669" lon="5.25364">
        <ele>755</ele>
        <time>2022-09-29T11:37:24Z</time>
      </trkpt>
      <trkpt lat="44.42669" lon="5.25364">
        <ele>755</ele>
        <time>2022-09-29T11:37:25Z</time>
      </trkpt>
      <trkpt lat="44.42669" lon="5.25364">
        <ele>755</ele>
        <time>2022-09-29T11:37:26Z</time>
      </trkpt>
      <trkpt lat="44.42669" lon="5.25364">
        <ele>755</ele>
        <time>2022-09-29T11:37:27Z</time>
      </trkpt>
      <trkpt lat="44.42668" lon="5.25364">
        <ele>755</ele>
        <time>2022-09-29T11:37:28Z</time>
      </trkpt>
      <trkpt lat="44.42667" lon="5.25364">
        <ele>755</ele>
        <time>2022-09-29T11:37:29Z</time>
      </trkpt>
      <trkpt lat="44.42667" lon="5.25364">
        <ele>755</ele>
        <time>2022-09-29T11:37:30Z</time>
      </trkpt>
      <trkpt lat="44.42666" lon="5.25364">
        <ele>755</ele>
        <time>2022-09-29T11:37:31Z</time>
      </trkpt>
      <trkpt lat="44.42664" lon="5.25365">
        <ele>755</ele>
        <time>2022-09-29T11:38:26Z</time>
      </trkpt>
      <trkpt lat="44.42663" lon="5.25366">
        <ele>755</ele>
        <time>2022-09-29T11:38:27Z</time>
      </trkpt>
      <trkpt lat="44.42662" lon="5.25366">
        <ele>755</ele>
        <time>2022-09-29T11:38:28Z</time>
      </trkpt>
      <trkpt lat="44.42661" lon="5.25366">
        <ele>755</ele>
        <time>2022-09-29T11:38:29Z</time>
      </trkpt>
      <trkpt lat="44.4266" lon="5.25366">
        <ele>755</ele>
        <time>2022-09-29T11:38:30Z</time>
      </trkpt>
      <trkpt lat="44.42659" lon="5.25366">
        <ele>755</ele>
        <time>2022-09-29T11:38:31Z</time>
      </trkpt>
      <trkpt lat="44.42658" lon="5.25366">
        <ele>755</ele>
        <time>2022-09-29T11:38:32Z</time>
      </trkpt>
      <trkpt lat="44.42658" lon="5.25366">
        <ele>755</ele>
        <time>2022-09-29T11:38:33Z</time>
      </trkpt>
      <trkpt lat="44.42657" lon="5.25366">
        <ele>755</ele>
        <time>2022-09-29T11:38:34Z</time>
      </trkpt>
      <trkpt lat="44.42656" lon="5.25365">
        <ele>755</ele>
        <time>2022-09-29T11:39:25Z</time>
      </trkpt>
      <trkpt lat="44.42656" lon="5.25365">
        <ele>755</ele>
        <time>2022-09-29T11:39:26Z</time>
      </trkpt>
      <trkpt lat="44.42655" lon="5.25364">
        <ele>755</ele>
        <time>2022-09-29T11:39:27Z</time>
      </trkpt>
      <trkpt lat="44.42655" lon="5.25363">
        <ele>755</ele>
        <time>2022-09-29T11:39:28Z</time>
      </trkpt>
      <trkpt lat="44.42654" lon="5.25363">
        <ele>754</ele>
        <time>2022-09-29T11:39:29Z</time>
      </trkpt>
      <trkpt lat="44.42654" lon="5.25362">
        <ele>754</ele>
        <time>2022-09-29T11:39:30Z</time>
      </trkpt>
      <trkpt lat="44.42654" lon="5.25362">
        <ele>754</ele>
        <time>2022-09-29T11:39:31Z</time>
      </trkpt>
      <trkpt lat="44.42653" lon="5.25361">
        <ele>754</ele>
        <time>2022-09-29T11:39:32Z</time>
      </trkpt>
      <trkpt lat="44.42653" lon="5.2536">
        <ele>754</ele>
        <time>2022-09-29T11:39:33Z</time>
      </trkpt>
      <trkpt lat="44.42652" lon="5.25359">
        <ele>754</ele>
        <time>2022-09-29T11:39:34Z</time>
      </trkpt>
      <trkpt lat="44.42652" lon="5.25359">
        <ele>754</ele>
        <time>2022-09-29T11:39:35Z</time>
      </trkpt>
      <trkpt lat="44.42651" lon="5.25358">
        <ele>754</ele>
        <time>2022-09-29T11:39:36Z</time>
      </trkpt>
      <trkpt lat="44.4265" lon="5.25357">
        <ele>754</ele>
        <time>2022-09-29T11:39:37Z</time>
      </trkpt>
      <trkpt lat="44.4265" lon="5.25356">
        <ele>754</ele>
        <time>2022-09-29T11:39:38Z</time>
      </trkpt>
      <trkpt lat="44.42649" lon="5.25356">
        <ele>754</ele>
        <time>2022-09-29T11:39:39Z</time>
      </trkpt>
      <trkpt lat="44.42648" lon="5.25353">
        <ele>754</ele>
        <time>2022-09-29T11:39:54Z</time>
      </trkpt>
      <trkpt lat="44.42647" lon="5.25351">
        <ele>754</ele>
        <time>2022-09-29T11:39:55Z</time>
      </trkpt>
      <trkpt lat="44.42647" lon="5.2535">
        <ele>754</ele>
        <time>2022-09-29T11:39:56Z</time>
      </trkpt>
      <trkpt lat="44.42646" lon="5.25349">
        <ele>754</ele>
        <time>2022-09-29T11:39:57Z</time>
      </trkpt>
      <trkpt lat="44.42646" lon="5.25348">
        <ele>754</ele>
        <time>2022-09-29T11:39:58Z</time>
      </trkpt>
      <trkpt lat="44.42645" lon="5.25347">
        <ele>754</ele>
        <time>2022-09-29T11:39:59Z</time>
      </trkpt>
      <trkpt lat="44.42645" lon="5.25347">
        <ele>754</ele>
        <time>2022-09-29T11:40:00Z</time>
      </trkpt>
      <trkpt lat="44.42644" lon="5.25346">
        <ele>754</ele>
        <time>2022-09-29T11:40:01Z</time>
      </trkpt>
      <trkpt lat="44.42644" lon="5.25345">
        <ele>754</ele>
        <time>2022-09-29T11:40:02Z</time>
      </trkpt>
      <trkpt lat="44.42643" lon="5.25344">
        <ele>754</ele>
        <time>2022-09-29T11:40:03Z</time>
      </trkpt>
      <trkpt lat="44.42643" lon="5.25343">
        <ele>754</ele>
        <time>2022-09-29T11:40:04Z</time>
      </trkpt>
      <trkpt lat="44.42642" lon="5.25342">
        <ele>754</ele>
        <time>2022-09-29T11:40:05Z</time>
      </trkpt>
      <trkpt lat="44.42641" lon="5.25341">
        <ele>754</ele>
        <time>2022-09-29T11:40:06Z</time>
      </trkpt>
      <trkpt lat="44.42641" lon="5.25341">
        <ele>754</ele>
        <time>2022-09-29T11:40:07Z</time>
      </trkpt>
      <trkpt lat="44.4264" lon="5.2534">
        <ele>754</ele>
        <time>2022-09-29T11:40:08Z</time>
      </trkpt>
      <trkpt lat="44.42639" lon="5.25339">
        <ele>753</ele>
        <time>2022-09-29T11:40:09Z</time>
      </trkpt>
      <trkpt lat="44.42639" lon="5.25339">
        <ele>753</ele>
        <time>2022-09-29T11:40:10Z</time>
      </trkpt>
      <trkpt lat="44.42638" lon="5.25338">
        <ele>753</ele>
        <time>2022-09-29T11:40:11Z</time>
      </trkpt>
      <trkpt lat="44.42637" lon="5.25337">
        <ele>753</ele>
        <time>2022-09-29T11:40:12Z</time>
      </trkpt>
      <trkpt lat="44.42637" lon="5.25337">
        <ele>753</ele>
        <time>2022-09-29T11:40:13Z</time>
      </trkpt>
      <trkpt lat="44.42636" lon="5.25336">
        <ele>753</ele>
        <time>2022-09-29T11:40:14Z</time>
      </trkpt>
      <trkpt lat="44.42636" lon="5.25336">
        <ele>753</ele>
        <time>2022-09-29T11:40:15Z</time>
      </trkpt>
      <trkpt lat="44.42635" lon="5.25335">
        <ele>753</ele>
        <time>2022-09-29T11:40:16Z</time>
      </trkpt>
      <trkpt lat="44.42635" lon="5.25334">
        <ele>753</ele>
        <time>2022-09-29T11:40:17Z</time>
      </trkpt>
      <trkpt lat="44.42634" lon="5.25333">
        <ele>753</ele>
        <time>2022-09-29T11:40:18Z</time>
      </trkpt>
      <trkpt lat="44.42634" lon="5.25332">
        <ele>753</ele>
        <time>2022-09-29T11:40:19Z</time>
      </trkpt>
      <trkpt lat="44.42634" lon="5.25331">
        <ele>753</ele>
        <time>2022-09-29T11:40:20Z</time>
      </trkpt>
      <trkpt lat="44.42633" lon="5.25331">
        <ele>753</ele>
        <time>2022-09-29T11:40:21Z</time>
      </trkpt>
      <trkpt lat="44.42633" lon="5.2533">
        <ele>753</ele>
        <time>2022-09-29T11:40:22Z</time>
      </trkpt>
      <trkpt lat="44.42633" lon="5.25329">
        <ele>753</ele>
        <time>2022-09-29T11:40:23Z</time>
      </trkpt>
      <trkpt lat="44.42632" lon="5.25329">
        <ele>752</ele>
        <time>2022-09-29T11:40:24Z</time>
      </trkpt>
      <trkpt lat="44.42632" lon="5.25328">
        <ele>752</ele>
        <time>2022-09-29T11:40:25Z</time>
      </trkpt>
      <trkpt lat="44.42631" lon="5.25327">
        <ele>752</ele>
        <time>2022-09-29T11:40:26Z</time>
      </trkpt>
      <trkpt lat="44.42631" lon="5.25327">
        <ele>752</ele>
        <time>2022-09-29T11:40:27Z</time>
      </trkpt>
      <trkpt lat="44.4263" lon="5.25326">
        <ele>752</ele>
        <time>2022-09-29T11:40:28Z</time>
      </trkpt>
      <trkpt lat="44.4263" lon="5.25326">
        <ele>752</ele>
        <time>2022-09-29T11:40:29Z</time>
      </trkpt>
      <trkpt lat="44.42629" lon="5.25325">
        <ele>752</ele>
        <time>2022-09-29T11:40:30Z</time>
      </trkpt>
      <trkpt lat="44.42628" lon="5.25325">
        <ele>752</ele>
        <time>2022-09-29T11:40:31Z</time>
      </trkpt>
      <trkpt lat="44.42627" lon="5.25324">
        <ele>752</ele>
        <time>2022-09-29T11:40:32Z</time>
      </trkpt>
      <trkpt lat="44.42627" lon="5.25323">
        <ele>752</ele>
        <time>2022-09-29T11:40:33Z</time>
      </trkpt>
      <trkpt lat="44.42626" lon="5.25322">
        <ele>751</ele>
        <time>2022-09-29T11:40:34Z</time>
      </trkpt>
      <trkpt lat="44.42625" lon="5.25321">
        <ele>751</ele>
        <time>2022-09-29T11:40:35Z</time>
      </trkpt>
      <trkpt lat="44.42624" lon="5.25321">
        <ele>751</ele>
        <time>2022-09-29T11:40:36Z</time>
      </trkpt>
      <trkpt lat="44.42623" lon="5.2532">
        <ele>751</ele>
        <time>2022-09-29T11:40:37Z</time>
      </trkpt>
      <trkpt lat="44.42623" lon="5.2532">
        <ele>751</ele>
        <time>2022-09-29T11:40:38Z</time>
      </trkpt>
      <trkpt lat="44.42622" lon="5.25319">
        <ele>751</ele>
        <time>2022-09-29T11:40:39Z</time>
      </trkpt>
      <trkpt lat="44.42621" lon="5.25319">
        <ele>751</ele>
        <time>2022-09-29T11:40:40Z</time>
      </trkpt>
      <trkpt lat="44.4262" lon="5.25319">
        <ele>751</ele>
        <time>2022-09-29T11:40:41Z</time>
      </trkpt>
      <trkpt lat="44.42619" lon="5.25319">
        <ele>751</ele>
        <time>2022-09-29T11:40:42Z</time>
      </trkpt>
      <trkpt lat="44.42619" lon="5.25318">
        <ele>751</ele>
        <time>2022-09-29T11:40:43Z</time>
      </trkpt>
      <trkpt lat="44.42618" lon="5.25318">
        <ele>750</ele>
        <time>2022-09-29T11:40:44Z</time>
      </trkpt>
      <trkpt lat="44.42617" lon="5.25317">
        <ele>750</ele>
        <time>2022-09-29T11:40:45Z</time>
      </trkpt>
      <trkpt lat="44.42616" lon="5.25317">
        <ele>750</ele>
        <time>2022-09-29T11:40:46Z</time>
      </trkpt>
      <trkpt lat="44.42615" lon="5.25317">
        <ele>750</ele>
        <time>2022-09-29T11:40:47Z</time>
      </trkpt>
      <trkpt lat="44.42615" lon="5.25316">
        <ele>750</ele>
        <time>2022-09-29T11:40:48Z</time>
      </trkpt>
      <trkpt lat="44.42614" lon="5.25315">
        <ele>749</ele>
        <time>2022-09-29T11:40:49Z</time>
      </trkpt>
      <trkpt lat="44.42613" lon="5.25315">
        <ele>749</ele>
        <time>2022-09-29T11:40:50Z</time>
      </trkpt>
      <trkpt lat="44.42613" lon="5.25314">
        <ele>749</ele>
        <time>2022-09-29T11:40:51Z</time>
      </trkpt>
      <trkpt lat="44.42612" lon="5.25313">
        <ele>749</ele>
        <time>2022-09-29T11:40:52Z</time>
      </trkpt>
      <trkpt lat="44.42612" lon="5.25313">
        <ele>749</ele>
        <time>2022-09-29T11:40:53Z</time>
      </trkpt>
      <trkpt lat="44.42612" lon="5.25312">
        <ele>748</ele>
        <time>2022-09-29T11:40:54Z</time>
      </trkpt>
      <trkpt lat="44.42611" lon="5.25311">
        <ele>748</ele>
        <time>2022-09-29T11:40:55Z</time>
      </trkpt>
      <trkpt lat="44.42611" lon="5.2531">
        <ele>748</ele>
        <time>2022-09-29T11:40:56Z</time>
      </trkpt>
      <trkpt lat="44.4261" lon="5.25309">
        <ele>748</ele>
        <time>2022-09-29T11:40:57Z</time>
      </trkpt>
      <trkpt lat="44.4261" lon="5.25308">
        <ele>748</ele>
        <time>2022-09-29T11:40:58Z</time>
      </trkpt>
      <trkpt lat="44.4261" lon="5.25307">
        <ele>747</ele>
        <time>2022-09-29T11:40:59Z</time>
      </trkpt>
      <trkpt lat="44.4261" lon="5.25306">
        <ele>747</ele>
        <time>2022-09-29T11:41:00Z</time>
      </trkpt>
      <trkpt lat="44.42609" lon="5.25305">
        <ele>747</ele>
        <time>2022-09-29T11:41:01Z</time>
      </trkpt>
      <trkpt lat="44.42609" lon="5.25304">
        <ele>747</ele>
        <time>2022-09-29T11:41:02Z</time>
      </trkpt>
      <trkpt lat="44.42609" lon="5.25303">
        <ele>747</ele>
        <time>2022-09-29T11:41:03Z</time>
      </trkpt>
      <trkpt lat="44.42608" lon="5.25302">
        <ele>746</ele>
        <time>2022-09-29T11:41:04Z</time>
      </trkpt>
      <trkpt lat="44.42608" lon="5.25301">
        <ele>746</ele>
        <time>2022-09-29T11:41:05Z</time>
      </trkpt>
      <trkpt lat="44.42607" lon="5.253">
        <ele>746</ele>
        <time>2022-09-29T11:41:06Z</time>
      </trkpt>
      <trkpt lat="44.42607" lon="5.25299">
        <ele>746</ele>
        <time>2022-09-29T11:41:07Z</time>
      </trkpt>
      <trkpt lat="44.42606" lon="5.25298">
        <ele>746</ele>
        <time>2022-09-29T11:41:08Z</time>
      </trkpt>
      <trkpt lat="44.42606" lon="5.25297">
        <ele>745</ele>
        <time>2022-09-29T11:41:09Z</time>
      </trkpt>
      <trkpt lat="44.42605" lon="5.25297">
        <ele>745</ele>
        <time>2022-09-29T11:41:10Z</time>
      </trkpt>
      <trkpt lat="44.42605" lon="5.25296">
        <ele>745</ele>
        <time>2022-09-29T11:41:11Z</time>
      </trkpt>
      <trkpt lat="44.42605" lon="5.25295">
        <ele>745</ele>
        <time>2022-09-29T11:41:12Z</time>
      </trkpt>
      <trkpt lat="44.42604" lon="5.25294">
        <ele>745</ele>
        <time>2022-09-29T11:41:13Z</time>
      </trkpt>
      <trkpt lat="44.42604" lon="5.25293">
        <ele>744</ele>
        <time>2022-09-29T11:41:14Z</time>
      </trkpt>
      <trkpt lat="44.42603" lon="5.25292">
        <ele>744</ele>
        <time>2022-09-29T11:41:15Z</time>
      </trkpt>
      <trkpt lat="44.42603" lon="5.25291">
        <ele>744</ele>
        <time>2022-09-29T11:41:16Z</time>
      </trkpt>
      <trkpt lat="44.42603" lon="5.25291">
        <ele>744</ele>
        <time>2022-09-29T11:41:17Z</time>
      </trkpt>
      <trkpt lat="44.42602" lon="5.2529">
        <ele>744</ele>
        <time>2022-09-29T11:41:18Z</time>
      </trkpt>
      <trkpt lat="44.42602" lon="5.25289">
        <ele>743</ele>
        <time>2022-09-29T11:41:19Z</time>
      </trkpt>
      <trkpt lat="44.42601" lon="5.25288">
        <ele>743</ele>
        <time>2022-09-29T11:41:20Z</time>
      </trkpt>
      <trkpt lat="44.42601" lon="5.25287">
        <ele>743</ele>
        <time>2022-09-29T11:41:21Z</time>
      </trkpt>
      <trkpt lat="44.426" lon="5.25286">
        <ele>743</ele>
        <time>2022-09-29T11:41:22Z</time>
      </trkpt>
      <trkpt lat="44.42599" lon="5.25286">
        <ele>743</ele>
        <time>2022-09-29T11:41:23Z</time>
      </trkpt>
      <trkpt lat="44.42599" lon="5.25285">
        <ele>742</ele>
        <time>2022-09-29T11:41:24Z</time>
      </trkpt>
      <trkpt lat="44.42598" lon="5.25284">
        <ele>742</ele>
        <time>2022-09-29T11:41:25Z</time>
      </trkpt>
      <trkpt lat="44.42597" lon="5.25284">
        <ele>742</ele>
        <time>2022-09-29T11:41:26Z</time>
      </trkpt>
      <trkpt lat="44.42597" lon="5.25283">
        <ele>742</ele>
        <time>2022-09-29T11:41:27Z</time>
      </trkpt>
      <trkpt lat="44.42596" lon="5.25283">
        <ele>742</ele>
        <time>2022-09-29T11:41:28Z</time>
      </trkpt>
      <trkpt lat="44.42596" lon="5.25282">
        <ele>741</ele>
        <time>2022-09-29T11:41:29Z</time>
      </trkpt>
      <trkpt lat="44.42595" lon="5.25282">
        <ele>741</ele>
        <time>2022-09-29T11:41:30Z</time>
      </trkpt>
      <trkpt lat="44.42595" lon="5.25281">
        <ele>741</ele>
        <time>2022-09-29T11:41:31Z</time>
      </trkpt>
      <trkpt lat="44.42594" lon="5.25281">
        <ele>741</ele>
        <time>2022-09-29T11:41:32Z</time>
      </trkpt>
      <trkpt lat="44.42594" lon="5.25281">
        <ele>741</ele>
        <time>2022-09-29T11:41:33Z</time>
      </trkpt>
      <trkpt lat="44.42594" lon="5.2528">
        <ele>740</ele>
        <time>2022-09-29T11:41:34Z</time>
      </trkpt>
      <trkpt lat="44.42593" lon="5.2528">
        <ele>740</ele>
        <time>2022-09-29T11:41:35Z</time>
      </trkpt>
      <trkpt lat="44.42593" lon="5.25279">
        <ele>740</ele>
        <time>2022-09-29T11:41:36Z</time>
      </trkpt>
      <trkpt lat="44.42592" lon="5.25279">
        <ele>740</ele>
        <time>2022-09-29T11:41:37Z</time>
      </trkpt>
      <trkpt lat="44.42592" lon="5.25278">
        <ele>740</ele>
        <time>2022-09-29T11:41:38Z</time>
      </trkpt>
      <trkpt lat="44.42592" lon="5.25277">
        <ele>739</ele>
        <time>2022-09-29T11:41:39Z</time>
      </trkpt>
      <trkpt lat="44.42591" lon="5.25277">
        <ele>739</ele>
        <time>2022-09-29T11:41:40Z</time>
      </trkpt>
      <trkpt lat="44.42591" lon="5.25276">
        <ele>739</ele>
        <time>2022-09-29T11:41:41Z</time>
      </trkpt>
      <trkpt lat="44.4259" lon="5.25275">
        <ele>739</ele>
        <time>2022-09-29T11:41:42Z</time>
      </trkpt>
      <trkpt lat="44.4259" lon="5.25274">
        <ele>739</ele>
        <time>2022-09-29T11:41:43Z</time>
      </trkpt>
      <trkpt lat="44.4259" lon="5.25274">
        <ele>738</ele>
        <time>2022-09-29T11:41:44Z</time>
      </trkpt>
      <trkpt lat="44.42589" lon="5.25273">
        <ele>738</ele>
        <time>2022-09-29T11:41:45Z</time>
      </trkpt>
      <trkpt lat="44.42589" lon="5.25272">
        <ele>738</ele>
        <time>2022-09-29T11:41:46Z</time>
      </trkpt>
      <trkpt lat="44.42589" lon="5.25271">
        <ele>738</ele>
        <time>2022-09-29T11:41:47Z</time>
      </trkpt>
      <trkpt lat="44.42588" lon="5.2527">
        <ele>738</ele>
        <time>2022-09-29T11:41:48Z</time>
      </trkpt>
      <trkpt lat="44.42588" lon="5.25269">
        <ele>737</ele>
        <time>2022-09-29T11:41:49Z</time>
      </trkpt>
      <trkpt lat="44.42587" lon="5.25268">
        <ele>737</ele>
        <time>2022-09-29T11:41:50Z</time>
      </trkpt>
      <trkpt lat="44.42587" lon="5.25268">
        <ele>737</ele>
        <time>2022-09-29T11:41:51Z</time>
      </trkpt>
      <trkpt lat="44.42587" lon="5.25267">
        <ele>737</ele>
        <time>2022-09-29T11:41:52Z</time>
      </trkpt>
      <trkpt lat="44.42586" lon="5.25266">
        <ele>737</ele>
        <time>2022-09-29T11:41:53Z</time>
      </trkpt>
      <trkpt lat="44.42586" lon="5.25265">
        <ele>736</ele>
        <time>2022-09-29T11:41:54Z</time>
      </trkpt>
      <trkpt lat="44.42585" lon="5.25264">
        <ele>736</ele>
        <time>2022-09-29T11:41:55Z</time>
      </trkpt>
      <trkpt lat="44.42585" lon="5.25264">
        <ele>736</ele>
        <time>2022-09-29T11:41:56Z</time>
      </trkpt>
      <trkpt lat="44.42584" lon="5.25263">
        <ele>736</ele>
        <time>2022-09-29T11:41:57Z</time>
      </trkpt>
      <trkpt lat="44.42583" lon="5.25263">
        <ele>736</ele>
        <time>2022-09-29T11:41:58Z</time>
      </trkpt>
      <trkpt lat="44.42583" lon="5.25262">
        <ele>736</ele>
        <time>2022-09-29T11:41:59Z</time>
      </trkpt>
      <trkpt lat="44.42582" lon="5.25262">
        <ele>736</ele>
        <time>2022-09-29T11:42:00Z</time>
      </trkpt>
      <trkpt lat="44.42582" lon="5.25261">
        <ele>736</ele>
        <time>2022-09-29T11:42:01Z</time>
      </trkpt>
      <trkpt lat="44.42581" lon="5.25261">
        <ele>736</ele>
        <time>2022-09-29T11:42:02Z</time>
      </trkpt>
      <trkpt lat="44.4258" lon="5.2526">
        <ele>736</ele>
        <time>2022-09-29T11:42:03Z</time>
      </trkpt>
      <trkpt lat="44.4258" lon="5.25259">
        <ele>735</ele>
        <time>2022-09-29T11:42:04Z</time>
      </trkpt>
      <trkpt lat="44.42579" lon="5.25259">
        <ele>735</ele>
        <time>2022-09-29T11:42:05Z</time>
      </trkpt>
      <trkpt lat="44.42578" lon="5.25258">
        <ele>735</ele>
        <time>2022-09-29T11:42:06Z</time>
      </trkpt>
      <trkpt lat="44.42578" lon="5.25257">
        <ele>735</ele>
        <time>2022-09-29T11:42:07Z</time>
      </trkpt>
      <trkpt lat="44.42577" lon="5.25256">
        <ele>735</ele>
        <time>2022-09-29T11:42:08Z</time>
      </trkpt>
      <trkpt lat="44.42577" lon="5.25256">
        <ele>734</ele>
        <time>2022-09-29T11:42:09Z</time>
      </trkpt>
      <trkpt lat="44.42576" lon="5.25255">
        <ele>734</ele>
        <time>2022-09-29T11:42:10Z</time>
      </trkpt>
      <trkpt lat="44.42576" lon="5.25254">
        <ele>734</ele>
        <time>2022-09-29T11:42:11Z</time>
      </trkpt>
      <trkpt lat="44.42575" lon="5.25253">
        <ele>734</ele>
        <time>2022-09-29T11:42:12Z</time>
      </trkpt>
      <trkpt lat="44.42575" lon="5.25252">
        <ele>734</ele>
        <time>2022-09-29T11:42:13Z</time>
      </trkpt>
      <trkpt lat="44.42574" lon="5.25251">
        <ele>733</ele>
        <time>2022-09-29T11:42:14Z</time>
      </trkpt>
      <trkpt lat="44.42574" lon="5.2525">
        <ele>733</ele>
        <time>2022-09-29T11:42:15Z</time>
      </trkpt>
      <trkpt lat="44.42573" lon="5.25249">
        <ele>733</ele>
        <time>2022-09-29T11:42:16Z</time>
      </trkpt>
      <trkpt lat="44.42573" lon="5.25249">
        <ele>733</ele>
        <time>2022-09-29T11:42:17Z</time>
      </trkpt>
      <trkpt lat="44.42572" lon="5.25248">
        <ele>733</ele>
        <time>2022-09-29T11:42:18Z</time>
      </trkpt>
      <trkpt lat="44.42572" lon="5.25247">
        <ele>732</ele>
        <time>2022-09-29T11:42:19Z</time>
      </trkpt>
      <trkpt lat="44.42571" lon="5.25246">
        <ele>732</ele>
        <time>2022-09-29T11:42:20Z</time>
      </trkpt>
      <trkpt lat="44.42571" lon="5.25245">
        <ele>732</ele>
        <time>2022-09-29T11:42:21Z</time>
      </trkpt>
      <trkpt lat="44.4257" lon="5.25244">
        <ele>732</ele>
        <time>2022-09-29T11:42:22Z</time>
      </trkpt>
      <trkpt lat="44.4257" lon="5.25243">
        <ele>732</ele>
        <time>2022-09-29T11:42:23Z</time>
      </trkpt>
      <trkpt lat="44.42569" lon="5.25242">
        <ele>731</ele>
        <time>2022-09-29T11:42:24Z</time>
      </trkpt>
      <trkpt lat="44.42569" lon="5.25241">
        <ele>731</ele>
        <time>2022-09-29T11:42:25Z</time>
      </trkpt>
      <trkpt lat="44.42569" lon="5.2524">
        <ele>731</ele>
        <time>2022-09-29T11:42:26Z</time>
      </trkpt>
      <trkpt lat="44.42569" lon="5.25238">
        <ele>731</ele>
        <time>2022-09-29T11:42:27Z</time>
      </trkpt>
      <trkpt lat="44.42569" lon="5.25237">
        <ele>731</ele>
        <time>2022-09-29T11:42:28Z</time>
      </trkpt>
      <trkpt lat="44.42568" lon="5.25236">
        <ele>730</ele>
        <time>2022-09-29T11:42:29Z</time>
      </trkpt>
      <trkpt lat="44.42568" lon="5.25235">
        <ele>730</ele>
        <time>2022-09-29T11:42:30Z</time>
      </trkpt>
      <trkpt lat="44.42568" lon="5.25234">
        <ele>730</ele>
        <time>2022-09-29T11:42:31Z</time>
      </trkpt>
      <trkpt lat="44.42568" lon="5.25233">
        <ele>730</ele>
        <time>2022-09-29T11:42:32Z</time>
      </trkpt>
      <trkpt lat="44.42568" lon="5.25232">
        <ele>730</ele>
        <time>2022-09-29T11:42:33Z</time>
      </trkpt>
      <trkpt lat="44.42567" lon="5.2523">
        <ele>730</ele>
        <time>2022-09-29T11:42:34Z</time>
      </trkpt>
      <trkpt lat="44.42567" lon="5.25229">
        <ele>730</ele>
        <time>2022-09-29T11:42:35Z</time>
      </trkpt>
      <trkpt lat="44.42567" lon="5.25228">
        <ele>730</ele>
        <time>2022-09-29T11:42:36Z</time>
      </trkpt>
      <trkpt lat="44.42567" lon="5.25227">
        <ele>730</ele>
        <time>2022-09-29T11:42:37Z</time>
      </trkpt>
      <trkpt lat="44.42567" lon="5.25226">
        <ele>730</ele>
        <time>2022-09-29T11:42:38Z</time>
      </trkpt>
      <trkpt lat="44.42567" lon="5.25224">
        <ele>729</ele>
        <time>2022-09-29T11:42:39Z</time>
      </trkpt>
      <trkpt lat="44.42567" lon="5.25223">
        <ele>729</ele>
        <time>2022-09-29T11:42:40Z</time>
      </trkpt>
      <trkpt lat="44.42568" lon="5.25222">
        <ele>729</ele>
        <time>2022-09-29T11:42:41Z</time>
      </trkpt>
      <trkpt lat="44.42568" lon="5.25221">
        <ele>729</ele>
        <time>2022-09-29T11:42:42Z</time>
      </trkpt>
      <trkpt lat="44.42568" lon="5.25219">
        <ele>729</ele>
        <time>2022-09-29T11:42:43Z</time>
      </trkpt>
      <trkpt lat="44.42568" lon="5.25218">
        <ele>728</ele>
        <time>2022-09-29T11:42:44Z</time>
      </trkpt>
      <trkpt lat="44.42568" lon="5.25217">
        <ele>728</ele>
        <time>2022-09-29T11:42:45Z</time>
      </trkpt>
      <trkpt lat="44.42568" lon="5.25216">
        <ele>728</ele>
        <time>2022-09-29T11:42:46Z</time>
      </trkpt>
      <trkpt lat="44.42568" lon="5.25214">
        <ele>728</ele>
        <time>2022-09-29T11:42:47Z</time>
      </trkpt>
      <trkpt lat="44.42568" lon="5.25213">
        <ele>728</ele>
        <time>2022-09-29T11:42:48Z</time>
      </trkpt>
      <trkpt lat="44.42568" lon="5.25212">
        <ele>727</ele>
        <time>2022-09-29T11:42:49Z</time>
      </trkpt>
      <trkpt lat="44.42568" lon="5.25211">
        <ele>727</ele>
        <time>2022-09-29T11:42:50Z</time>
      </trkpt>
      <trkpt lat="44.42568" lon="5.2521">
        <ele>727</ele>
        <time>2022-09-29T11:42:51Z</time>
      </trkpt>
      <trkpt lat="44.42567" lon="5.25209">
        <ele>727</ele>
        <time>2022-09-29T11:42:52Z</time>
      </trkpt>
      <trkpt lat="44.42567" lon="5.25208">
        <ele>727</ele>
        <time>2022-09-29T11:42:53Z</time>
      </trkpt>
      <trkpt lat="44.42567" lon="5.25207">
        <ele>726</ele>
        <time>2022-09-29T11:42:54Z</time>
      </trkpt>
      <trkpt lat="44.42566" lon="5.25206">
        <ele>726</ele>
        <time>2022-09-29T11:42:55Z</time>
      </trkpt>
      <trkpt lat="44.42566" lon="5.25205">
        <ele>726</ele>
        <time>2022-09-29T11:42:56Z</time>
      </trkpt>
      <trkpt lat="44.42566" lon="5.25204">
        <ele>726</ele>
        <time>2022-09-29T11:42:57Z</time>
      </trkpt>
      <trkpt lat="44.42565" lon="5.25203">
        <ele>726</ele>
        <time>2022-09-29T11:42:58Z</time>
      </trkpt>
      <trkpt lat="44.42565" lon="5.25202">
        <ele>726</ele>
        <time>2022-09-29T11:42:59Z</time>
      </trkpt>
      <trkpt lat="44.42565" lon="5.25202">
        <ele>726</ele>
        <time>2022-09-29T11:43:00Z</time>
      </trkpt>
      <trkpt lat="44.42565" lon="5.25201">
        <ele>726</ele>
        <time>2022-09-29T11:43:01Z</time>
      </trkpt>
      <trkpt lat="44.42565" lon="5.252">
        <ele>726</ele>
        <time>2022-09-29T11:43:02Z</time>
      </trkpt>
      <trkpt lat="44.42565" lon="5.25199">
        <ele>726</ele>
        <time>2022-09-29T11:43:03Z</time>
      </trkpt>
      <trkpt lat="44.42565" lon="5.25198">
        <ele>725</ele>
        <time>2022-09-29T11:43:04Z</time>
      </trkpt>
      <trkpt lat="44.42565" lon="5.25196">
        <ele>725</ele>
        <time>2022-09-29T11:43:05Z</time>
      </trkpt>
      <trkpt lat="44.42565" lon="5.25195">
        <ele>725</ele>
        <time>2022-09-29T11:43:06Z</time>
      </trkpt>
      <trkpt lat="44.42565" lon="5.25194">
        <ele>725</ele>
        <time>2022-09-29T11:43:07Z</time>
      </trkpt>
      <trkpt lat="44.42565" lon="5.25193">
        <ele>725</ele>
        <time>2022-09-29T11:43:08Z</time>
      </trkpt>
      <trkpt lat="44.42565" lon="5.25192">
        <ele>724</ele>
        <time>2022-09-29T11:43:09Z</time>
      </trkpt>
      <trkpt lat="44.42565" lon="5.25191">
        <ele>724</ele>
        <time>2022-09-29T11:43:10Z</time>
      </trkpt>
      <trkpt lat="44.42566" lon="5.2519">
        <ele>724</ele>
        <time>2022-09-29T11:43:11Z</time>
      </trkpt>
      <trkpt lat="44.42566" lon="5.25189">
        <ele>724</ele>
        <time>2022-09-29T11:43:12Z</time>
      </trkpt>
      <trkpt lat="44.42566" lon="5.25188">
        <ele>724</ele>
        <time>2022-09-29T11:43:13Z</time>
      </trkpt>
      <trkpt lat="44.42566" lon="5.25186">
        <ele>723</ele>
        <time>2022-09-29T11:43:14Z</time>
      </trkpt>
      <trkpt lat="44.42566" lon="5.25185">
        <ele>723</ele>
        <time>2022-09-29T11:43:15Z</time>
      </trkpt>
      <trkpt lat="44.42566" lon="5.25184">
        <ele>723</ele>
        <time>2022-09-29T11:43:16Z</time>
      </trkpt>
      <trkpt lat="44.42566" lon="5.25183">
        <ele>723</ele>
        <time>2022-09-29T11:43:17Z</time>
      </trkpt>
      <trkpt lat="44.42566" lon="5.25182">
        <ele>723</ele>
        <time>2022-09-29T11:43:18Z</time>
      </trkpt>
      <trkpt lat="44.42566" lon="5.25181">
        <ele>722</ele>
        <time>2022-09-29T11:43:19Z</time>
      </trkpt>
      <trkpt lat="44.42566" lon="5.2518">
        <ele>722</ele>
        <time>2022-09-29T11:43:20Z</time>
      </trkpt>
      <trkpt lat="44.42566" lon="5.25178">
        <ele>722</ele>
        <time>2022-09-29T11:43:21Z</time>
      </trkpt>
      <trkpt lat="44.42566" lon="5.25177">
        <ele>722</ele>
        <time>2022-09-29T11:43:22Z</time>
      </trkpt>
      <trkpt lat="44.42566" lon="5.25176">
        <ele>722</ele>
        <time>2022-09-29T11:43:23Z</time>
      </trkpt>
      <trkpt lat="44.42566" lon="5.25175">
        <ele>721</ele>
        <time>2022-09-29T11:43:24Z</time>
      </trkpt>
      <trkpt lat="44.42566" lon="5.25174">
        <ele>721</ele>
        <time>2022-09-29T11:43:25Z</time>
      </trkpt>
      <trkpt lat="44.42566" lon="5.25173">
        <ele>721</ele>
        <time>2022-09-29T11:43:26Z</time>
      </trkpt>
      <trkpt lat="44.42566" lon="5.25172">
        <ele>721</ele>
        <time>2022-09-29T11:43:27Z</time>
      </trkpt>
      <trkpt lat="44.42565" lon="5.25171">
        <ele>721</ele>
        <time>2022-09-29T11:43:28Z</time>
      </trkpt>
      <trkpt lat="44.42565" lon="5.2517">
        <ele>720</ele>
        <time>2022-09-29T11:43:29Z</time>
      </trkpt>
      <trkpt lat="44.42565" lon="5.25169">
        <ele>720</ele>
        <time>2022-09-29T11:43:30Z</time>
      </trkpt>
      <trkpt lat="44.42565" lon="5.25168">
        <ele>720</ele>
        <time>2022-09-29T11:43:31Z</time>
      </trkpt>
      <trkpt lat="44.42565" lon="5.25167">
        <ele>720</ele>
        <time>2022-09-29T11:43:32Z</time>
      </trkpt>
      <trkpt lat="44.42564" lon="5.25166">
        <ele>720</ele>
        <time>2022-09-29T11:43:33Z</time>
      </trkpt>
      <trkpt lat="44.42564" lon="5.25165">
        <ele>719</ele>
        <time>2022-09-29T11:43:34Z</time>
      </trkpt>
      <trkpt lat="44.42564" lon="5.25164">
        <ele>719</ele>
        <time>2022-09-29T11:43:35Z</time>
      </trkpt>
      <trkpt lat="44.42563" lon="5.25163">
        <ele>719</ele>
        <time>2022-09-29T11:43:36Z</time>
      </trkpt>
      <trkpt lat="44.42562" lon="5.25162">
        <ele>719</ele>
        <time>2022-09-29T11:43:37Z</time>
      </trkpt>
      <trkpt lat="44.42562" lon="5.25161">
        <ele>719</ele>
        <time>2022-09-29T11:43:38Z</time>
      </trkpt>
      <trkpt lat="44.42561" lon="5.2516">
        <ele>718</ele>
        <time>2022-09-29T11:43:39Z</time>
      </trkpt>
      <trkpt lat="44.42561" lon="5.25159">
        <ele>718</ele>
        <time>2022-09-29T11:43:40Z</time>
      </trkpt>
      <trkpt lat="44.42561" lon="5.25158">
        <ele>718</ele>
        <time>2022-09-29T11:43:41Z</time>
      </trkpt>
      <trkpt lat="44.4256" lon="5.25157">
        <ele>718</ele>
        <time>2022-09-29T11:43:42Z</time>
      </trkpt>
      <trkpt lat="44.4256" lon="5.25156">
        <ele>718</ele>
        <time>2022-09-29T11:43:43Z</time>
      </trkpt>
      <trkpt lat="44.42559" lon="5.25155">
        <ele>717</ele>
        <time>2022-09-29T11:43:44Z</time>
      </trkpt>
      <trkpt lat="44.42559" lon="5.25154">
        <ele>717</ele>
        <time>2022-09-29T11:43:45Z</time>
      </trkpt>
      <trkpt lat="44.42559" lon="5.25153">
        <ele>717</ele>
        <time>2022-09-29T11:43:46Z</time>
      </trkpt>
      <trkpt lat="44.42558" lon="5.25152">
        <ele>717</ele>
        <time>2022-09-29T11:43:47Z</time>
      </trkpt>
      <trkpt lat="44.42558" lon="5.25151">
        <ele>717</ele>
        <time>2022-09-29T11:43:48Z</time>
      </trkpt>
      <trkpt lat="44.42558" lon="5.2515">
        <ele>716</ele>
        <time>2022-09-29T11:43:49Z</time>
      </trkpt>
      <trkpt lat="44.42557" lon="5.25149">
        <ele>716</ele>
        <time>2022-09-29T11:43:50Z</time>
      </trkpt>
      <trkpt lat="44.42557" lon="5.25148">
        <ele>716</ele>
        <time>2022-09-29T11:43:51Z</time>
      </trkpt>
      <trkpt lat="44.42557" lon="5.25147">
        <ele>716</ele>
        <time>2022-09-29T11:43:52Z</time>
      </trkpt>
      <trkpt lat="44.42556" lon="5.25146">
        <ele>716</ele>
        <time>2022-09-29T11:43:53Z</time>
      </trkpt>
      <trkpt lat="44.42556" lon="5.25145">
        <ele>715</ele>
        <time>2022-09-29T11:43:54Z</time>
      </trkpt>
      <trkpt lat="44.42555" lon="5.25144">
        <ele>715</ele>
        <time>2022-09-29T11:43:55Z</time>
      </trkpt>
      <trkpt lat="44.42555" lon="5.25143">
        <ele>715</ele>
        <time>2022-09-29T11:43:56Z</time>
      </trkpt>
      <trkpt lat="44.42555" lon="5.25142">
        <ele>715</ele>
        <time>2022-09-29T11:43:57Z</time>
      </trkpt>
      <trkpt lat="44.42554" lon="5.25141">
        <ele>715</ele>
        <time>2022-09-29T11:43:58Z</time>
      </trkpt>
      <trkpt lat="44.42554" lon="5.2514">
        <ele>714</ele>
        <time>2022-09-29T11:43:59Z</time>
      </trkpt>
      <trkpt lat="44.42554" lon="5.25139">
        <ele>714</ele>
        <time>2022-09-29T11:44:00Z</time>
      </trkpt>
      <trkpt lat="44.42553" lon="5.25137">
        <ele>714</ele>
        <time>2022-09-29T11:44:01Z</time>
      </trkpt>
      <trkpt lat="44.42553" lon="5.25136">
        <ele>714</ele>
        <time>2022-09-29T11:44:02Z</time>
      </trkpt>
      <trkpt lat="44.42552" lon="5.25135">
        <ele>714</ele>
        <time>2022-09-29T11:44:03Z</time>
      </trkpt>
      <trkpt lat="44.42552" lon="5.25134">
        <ele>713</ele>
        <time>2022-09-29T11:44:04Z</time>
      </trkpt>
      <trkpt lat="44.42551" lon="5.25133">
        <ele>713</ele>
        <time>2022-09-29T11:44:05Z</time>
      </trkpt>
      <trkpt lat="44.42551" lon="5.25132">
        <ele>713</ele>
        <time>2022-09-29T11:44:06Z</time>
      </trkpt>
      <trkpt lat="44.4255" lon="5.25131">
        <ele>713</ele>
        <time>2022-09-29T11:44:07Z</time>
      </trkpt>
      <trkpt lat="44.4255" lon="5.2513">
        <ele>713</ele>
        <time>2022-09-29T11:44:08Z</time>
      </trkpt>
      <trkpt lat="44.42549" lon="5.25129">
        <ele>712</ele>
        <time>2022-09-29T11:44:09Z</time>
      </trkpt>
      <trkpt lat="44.42548" lon="5.25128">
        <ele>712</ele>
        <time>2022-09-29T11:44:10Z</time>
      </trkpt>
      <trkpt lat="44.42547" lon="5.25127">
        <ele>712</ele>
        <time>2022-09-29T11:44:11Z</time>
      </trkpt>
      <trkpt lat="44.42546" lon="5.25126">
        <ele>712</ele>
        <time>2022-09-29T11:44:12Z</time>
      </trkpt>
      <trkpt lat="44.42545" lon="5.25125">
        <ele>712</ele>
        <time>2022-09-29T11:44:13Z</time>
      </trkpt>
      <trkpt lat="44.42544" lon="5.25124">
        <ele>711</ele>
        <time>2022-09-29T11:44:14Z</time>
      </trkpt>
      <trkpt lat="44.42544" lon="5.25123">
        <ele>711</ele>
        <time>2022-09-29T11:44:15Z</time>
      </trkpt>
      <trkpt lat="44.42543" lon="5.25121">
        <ele>711</ele>
        <time>2022-09-29T11:44:16Z</time>
      </trkpt>
      <trkpt lat="44.42543" lon="5.2512">
        <ele>711</ele>
        <time>2022-09-29T11:44:17Z</time>
      </trkpt>
      <trkpt lat="44.42542" lon="5.25119">
        <ele>711</ele>
        <time>2022-09-29T11:44:18Z</time>
      </trkpt>
      <trkpt lat="44.42542" lon="5.25117">
        <ele>711</ele>
        <time>2022-09-29T11:44:19Z</time>
      </trkpt>
      <trkpt lat="44.42541" lon="5.25116">
        <ele>711</ele>
        <time>2022-09-29T11:44:20Z</time>
      </trkpt>
      <trkpt lat="44.42541" lon="5.25114">
        <ele>711</ele>
        <time>2022-09-29T11:44:21Z</time>
      </trkpt>
      <trkpt lat="44.42541" lon="5.25113">
        <ele>711</ele>
        <time>2022-09-29T11:44:22Z</time>
      </trkpt>
      <trkpt lat="44.42541" lon="5.25111">
        <ele>711</ele>
        <time>2022-09-29T11:44:23Z</time>
      </trkpt>
      <trkpt lat="44.4254" lon="5.2511">
        <ele>710</ele>
        <time>2022-09-29T11:44:24Z</time>
      </trkpt>
      <trkpt lat="44.4254" lon="5.25109">
        <ele>710</ele>
        <time>2022-09-29T11:44:25Z</time>
      </trkpt>
      <trkpt lat="44.4254" lon="5.25107">
        <ele>710</ele>
        <time>2022-09-29T11:44:26Z</time>
      </trkpt>
      <trkpt lat="44.42539" lon="5.25106">
        <ele>710</ele>
        <time>2022-09-29T11:44:27Z</time>
      </trkpt>
      <trkpt lat="44.42539" lon="5.25105">
        <ele>710</ele>
        <time>2022-09-29T11:44:28Z</time>
      </trkpt>
      <trkpt lat="44.42539" lon="5.25104">
        <ele>709</ele>
        <time>2022-09-29T11:44:29Z</time>
      </trkpt>
      <trkpt lat="44.42538" lon="5.25103">
        <ele>709</ele>
        <time>2022-09-29T11:44:30Z</time>
      </trkpt>
      <trkpt lat="44.42538" lon="5.25102">
        <ele>709</ele>
        <time>2022-09-29T11:44:31Z</time>
      </trkpt>
      <trkpt lat="44.42538" lon="5.251">
        <ele>709</ele>
        <time>2022-09-29T11:44:32Z</time>
      </trkpt>
      <trkpt lat="44.42538" lon="5.25099">
        <ele>709</ele>
        <time>2022-09-29T11:44:33Z</time>
      </trkpt>
      <trkpt lat="44.42537" lon="5.25098">
        <ele>709</ele>
        <time>2022-09-29T11:44:34Z</time>
      </trkpt>
      <trkpt lat="44.42537" lon="5.25097">
        <ele>709</ele>
        <time>2022-09-29T11:44:35Z</time>
      </trkpt>
      <trkpt lat="44.42537" lon="5.25096">
        <ele>709</ele>
        <time>2022-09-29T11:44:36Z</time>
      </trkpt>
      <trkpt lat="44.42537" lon="5.25095">
        <ele>709</ele>
        <time>2022-09-29T11:44:37Z</time>
      </trkpt>
      <trkpt lat="44.42536" lon="5.25094">
        <ele>709</ele>
        <time>2022-09-29T11:44:38Z</time>
      </trkpt>
      <trkpt lat="44.42536" lon="5.25093">
        <ele>708</ele>
        <time>2022-09-29T11:44:39Z</time>
      </trkpt>
      <trkpt lat="44.42536" lon="5.25091">
        <ele>708</ele>
        <time>2022-09-29T11:44:40Z</time>
      </trkpt>
      <trkpt lat="44.42536" lon="5.2509">
        <ele>708</ele>
        <time>2022-09-29T11:44:41Z</time>
      </trkpt>
      <trkpt lat="44.42535" lon="5.25089">
        <ele>708</ele>
        <time>2022-09-29T11:44:42Z</time>
      </trkpt>
      <trkpt lat="44.42535" lon="5.25088">
        <ele>708</ele>
        <time>2022-09-29T11:44:43Z</time>
      </trkpt>
      <trkpt lat="44.42535" lon="5.25086">
        <ele>707</ele>
        <time>2022-09-29T11:44:44Z</time>
      </trkpt>
      <trkpt lat="44.42535" lon="5.25085">
        <ele>707</ele>
        <time>2022-09-29T11:44:45Z</time>
      </trkpt>
      <trkpt lat="44.42535" lon="5.25084">
        <ele>707</ele>
        <time>2022-09-29T11:44:46Z</time>
      </trkpt>
      <trkpt lat="44.42534" lon="5.25082">
        <ele>707</ele>
        <time>2022-09-29T11:44:47Z</time>
      </trkpt>
      <trkpt lat="44.42534" lon="5.25081">
        <ele>707</ele>
        <time>2022-09-29T11:44:48Z</time>
      </trkpt>
      <trkpt lat="44.42534" lon="5.2508">
        <ele>706</ele>
        <time>2022-09-29T11:44:49Z</time>
      </trkpt>
      <trkpt lat="44.42534" lon="5.25079">
        <ele>706</ele>
        <time>2022-09-29T11:44:50Z</time>
      </trkpt>
      <trkpt lat="44.42534" lon="5.25078">
        <ele>706</ele>
        <time>2022-09-29T11:44:51Z</time>
      </trkpt>
      <trkpt lat="44.42534" lon="5.25077">
        <ele>706</ele>
        <time>2022-09-29T11:44:52Z</time>
      </trkpt>
      <trkpt lat="44.42534" lon="5.25076">
        <ele>706</ele>
        <time>2022-09-29T11:44:53Z</time>
      </trkpt>
      <trkpt lat="44.42534" lon="5.25075">
        <ele>706</ele>
        <time>2022-09-29T11:44:54Z</time>
      </trkpt>
      <trkpt lat="44.42535" lon="5.25073">
        <ele>706</ele>
        <time>2022-09-29T11:44:55Z</time>
      </trkpt>
      <trkpt lat="44.42535" lon="5.25072">
        <ele>706</ele>
        <time>2022-09-29T11:44:56Z</time>
      </trkpt>
      <trkpt lat="44.42535" lon="5.25071">
        <ele>706</ele>
        <time>2022-09-29T11:44:57Z</time>
      </trkpt>
      <trkpt lat="44.42535" lon="5.25069">
        <ele>706</ele>
        <time>2022-09-29T11:44:58Z</time>
      </trkpt>
      <trkpt lat="44.42535" lon="5.25068">
        <ele>705</ele>
        <time>2022-09-29T11:44:59Z</time>
      </trkpt>
      <trkpt lat="44.42535" lon="5.25067">
        <ele>705</ele>
        <time>2022-09-29T11:45:00Z</time>
      </trkpt>
      <trkpt lat="44.42535" lon="5.25065">
        <ele>705</ele>
        <time>2022-09-29T11:45:01Z</time>
      </trkpt>
      <trkpt lat="44.42534" lon="5.25064">
        <ele>705</ele>
        <time>2022-09-29T11:45:02Z</time>
      </trkpt>
      <trkpt lat="44.42534" lon="5.25063">
        <ele>705</ele>
        <time>2022-09-29T11:45:03Z</time>
      </trkpt>
      <trkpt lat="44.42533" lon="5.25061">
        <ele>704</ele>
        <time>2022-09-29T11:45:04Z</time>
      </trkpt>
      <trkpt lat="44.42533" lon="5.2506">
        <ele>704</ele>
        <time>2022-09-29T11:45:05Z</time>
      </trkpt>
      <trkpt lat="44.42533" lon="5.25059">
        <ele>704</ele>
        <time>2022-09-29T11:45:06Z</time>
      </trkpt>
      <trkpt lat="44.42532" lon="5.25058">
        <ele>704</ele>
        <time>2022-09-29T11:45:07Z</time>
      </trkpt>
      <trkpt lat="44.42532" lon="5.25057">
        <ele>704</ele>
        <time>2022-09-29T11:45:08Z</time>
      </trkpt>
      <trkpt lat="44.42531" lon="5.25055">
        <ele>704</ele>
        <time>2022-09-29T11:45:09Z</time>
      </trkpt>
      <trkpt lat="44.42531" lon="5.25054">
        <ele>704</ele>
        <time>2022-09-29T11:45:10Z</time>
      </trkpt>
      <trkpt lat="44.4253" lon="5.25053">
        <ele>704</ele>
        <time>2022-09-29T11:45:11Z</time>
      </trkpt>
      <trkpt lat="44.42529" lon="5.25052">
        <ele>704</ele>
        <time>2022-09-29T11:45:12Z</time>
      </trkpt>
      <trkpt lat="44.42529" lon="5.25051">
        <ele>704</ele>
        <time>2022-09-29T11:45:13Z</time>
      </trkpt>
      <trkpt lat="44.42528" lon="5.2505">
        <ele>703</ele>
        <time>2022-09-29T11:45:14Z</time>
      </trkpt>
      <trkpt lat="44.42527" lon="5.25049">
        <ele>703</ele>
        <time>2022-09-29T11:45:15Z</time>
      </trkpt>
      <trkpt lat="44.42527" lon="5.25048">
        <ele>703</ele>
        <time>2022-09-29T11:45:16Z</time>
      </trkpt>
      <trkpt lat="44.42526" lon="5.25047">
        <ele>703</ele>
        <time>2022-09-29T11:45:17Z</time>
      </trkpt>
      <trkpt lat="44.42525" lon="5.25046">
        <ele>703</ele>
        <time>2022-09-29T11:45:18Z</time>
      </trkpt>
      <trkpt lat="44.42525" lon="5.25044">
        <ele>702</ele>
        <time>2022-09-29T11:45:19Z</time>
      </trkpt>
      <trkpt lat="44.42524" lon="5.25043">
        <ele>702</ele>
        <time>2022-09-29T11:45:20Z</time>
      </trkpt>
      <trkpt lat="44.42523" lon="5.25042">
        <ele>702</ele>
        <time>2022-09-29T11:45:21Z</time>
      </trkpt>
      <trkpt lat="44.42523" lon="5.25042">
        <ele>702</ele>
        <time>2022-09-29T11:45:22Z</time>
      </trkpt>
      <trkpt lat="44.42522" lon="5.25041">
        <ele>702</ele>
        <time>2022-09-29T11:45:23Z</time>
      </trkpt>
      <trkpt lat="44.42522" lon="5.25041">
        <ele>702</ele>
        <time>2022-09-29T11:45:24Z</time>
      </trkpt>
      <trkpt lat="44.42522" lon="5.25041">
        <ele>702</ele>
        <time>2022-09-29T11:45:25Z</time>
      </trkpt>
      <trkpt lat="44.42521" lon="5.25041">
        <ele>702</ele>
        <time>2022-09-29T11:45:26Z</time>
      </trkpt>
      <trkpt lat="44.4252" lon="5.25041">
        <ele>702</ele>
        <time>2022-09-29T11:45:27Z</time>
      </trkpt>
      <trkpt lat="44.4252" lon="5.25041">
        <ele>702</ele>
        <time>2022-09-29T11:45:28Z</time>
      </trkpt>
      <trkpt lat="44.42519" lon="5.25041">
        <ele>702</ele>
        <time>2022-09-29T11:45:29Z</time>
      </trkpt>
      <trkpt lat="44.42518" lon="5.25042">
        <ele>702</ele>
        <time>2022-09-29T11:45:30Z</time>
      </trkpt>
      <trkpt lat="44.42517" lon="5.25042">
        <ele>702</ele>
        <time>2022-09-29T11:45:31Z</time>
      </trkpt>
      <trkpt lat="44.42517" lon="5.25042">
        <ele>702</ele>
        <time>2022-09-29T11:45:32Z</time>
      </trkpt>
      <trkpt lat="44.42516" lon="5.25042">
        <ele>702</ele>
        <time>2022-09-29T11:45:33Z</time>
      </trkpt>
      <trkpt lat="44.42516" lon="5.25042">
        <ele>701</ele>
        <time>2022-09-29T11:46:27Z</time>
      </trkpt>
      <trkpt lat="44.42516" lon="5.25041">
        <ele>701</ele>
        <time>2022-09-29T11:46:28Z</time>
      </trkpt>
      <trkpt lat="44.42516" lon="5.2504">
        <ele>701</ele>
        <time>2022-09-29T11:46:29Z</time>
      </trkpt>
      <trkpt lat="44.42517" lon="5.2504">
        <ele>701</ele>
        <time>2022-09-29T11:46:30Z</time>
      </trkpt>
      <trkpt lat="44.42517" lon="5.25039">
        <ele>701</ele>
        <time>2022-09-29T11:46:31Z</time>
      </trkpt>
      <trkpt lat="44.42518" lon="5.25038">
        <ele>701</ele>
        <time>2022-09-29T11:46:32Z</time>
      </trkpt>
      <trkpt lat="44.42518" lon="5.25038">
        <ele>701</ele>
        <time>2022-09-29T11:46:33Z</time>
      </trkpt>
      <trkpt lat="44.42519" lon="5.25038">
        <ele>701</ele>
        <time>2022-09-29T11:46:34Z</time>
      </trkpt>
      <trkpt lat="44.42519" lon="5.25037">
        <ele>701</ele>
        <time>2022-09-29T11:46:35Z</time>
      </trkpt>
      <trkpt lat="44.4252" lon="5.25036">
        <ele>701</ele>
        <time>2022-09-29T11:46:51Z</time>
      </trkpt>
      <trkpt lat="44.4252" lon="5.25036">
        <ele>701</ele>
        <time>2022-09-29T11:46:52Z</time>
      </trkpt>
      <trkpt lat="44.4252" lon="5.25035">
        <ele>701</ele>
        <time>2022-09-29T11:46:53Z</time>
      </trkpt>
      <trkpt lat="44.4252" lon="5.25035">
        <ele>701</ele>
        <time>2022-09-29T11:46:54Z</time>
      </trkpt>
      <trkpt lat="44.4252" lon="5.25034">
        <ele>701</ele>
        <time>2022-09-29T11:46:55Z</time>
      </trkpt>
      <trkpt lat="44.4252" lon="5.25033">
        <ele>701</ele>
        <time>2022-09-29T11:46:56Z</time>
      </trkpt>
      <trkpt lat="44.4252" lon="5.25033">
        <ele>701</ele>
        <time>2022-09-29T11:46:57Z</time>
      </trkpt>
      <trkpt lat="44.42519" lon="5.25031">
        <ele>701</ele>
        <time>2022-09-29T11:47:11Z</time>
      </trkpt>
      <trkpt lat="44.42519" lon="5.25031">
        <ele>701</ele>
        <time>2022-09-29T11:47:12Z</time>
      </trkpt>
      <trkpt lat="44.42519" lon="5.2503">
        <ele>701</ele>
        <time>2022-09-29T11:47:13Z</time>
      </trkpt>
      <trkpt lat="44.42518" lon="5.25029">
        <ele>701</ele>
        <time>2022-09-29T11:47:14Z</time>
      </trkpt>
      <trkpt lat="44.42518" lon="5.25028">
        <ele>701</ele>
        <time>2022-09-29T11:47:15Z</time>
      </trkpt>
      <trkpt lat="44.42518" lon="5.25027">
        <ele>701</ele>
        <time>2022-09-29T11:47:16Z</time>
      </trkpt>
      <trkpt lat="44.42518" lon="5.25026">
        <ele>701</ele>
        <time>2022-09-29T11:47:17Z</time>
      </trkpt>
      <trkpt lat="44.42518" lon="5.25025">
        <ele>701</ele>
        <time>2022-09-29T11:47:18Z</time>
      </trkpt>
      <trkpt lat="44.42518" lon="5.25023">
        <ele>700</ele>
        <time>2022-09-29T11:47:19Z</time>
      </trkpt>
      <trkpt lat="44.42518" lon="5.25022">
        <ele>700</ele>
        <time>2022-09-29T11:47:20Z</time>
      </trkpt>
      <trkpt lat="44.42517" lon="5.25021">
        <ele>700</ele>
        <time>2022-09-29T11:47:21Z</time>
      </trkpt>
      <trkpt lat="44.42517" lon="5.2502">
        <ele>700</ele>
        <time>2022-09-29T11:47:22Z</time>
      </trkpt>
      <trkpt lat="44.42517" lon="5.25019">
        <ele>700</ele>
        <time>2022-09-29T11:47:23Z</time>
      </trkpt>
      <trkpt lat="44.42517" lon="5.25018">
        <ele>700</ele>
        <time>2022-09-29T11:47:24Z</time>
      </trkpt>
      <trkpt lat="44.42517" lon="5.25018">
        <ele>700</ele>
        <time>2022-09-29T11:47:25Z</time>
      </trkpt>
      <trkpt lat="44.42516" lon="5.25017">
        <ele>700</ele>
        <time>2022-09-29T11:47:26Z</time>
      </trkpt>
      <trkpt lat="44.42516" lon="5.25016">
        <ele>700</ele>
        <time>2022-09-29T11:47:27Z</time>
      </trkpt>
      <trkpt lat="44.42516" lon="5.25015">
        <ele>700</ele>
        <time>2022-09-29T11:47:28Z</time>
      </trkpt>
      <trkpt lat="44.42515" lon="5.25014">
        <ele>700</ele>
        <time>2022-09-29T11:47:29Z</time>
      </trkpt>
      <trkpt lat="44.42515" lon="5.25013">
        <ele>700</ele>
        <time>2022-09-29T11:47:30Z</time>
      </trkpt>
      <trkpt lat="44.42515" lon="5.25012">
        <ele>700</ele>
        <time>2022-09-29T11:47:31Z</time>
      </trkpt>
      <trkpt lat="44.42514" lon="5.2501">
        <ele>700</ele>
        <time>2022-09-29T11:47:32Z</time>
      </trkpt>
      <trkpt lat="44.42514" lon="5.25009">
        <ele>700</ele>
        <time>2022-09-29T11:47:33Z</time>
      </trkpt>
      <trkpt lat="44.42514" lon="5.25008">
        <ele>699</ele>
        <time>2022-09-29T11:47:34Z</time>
      </trkpt>
      <trkpt lat="44.42513" lon="5.25007">
        <ele>699</ele>
        <time>2022-09-29T11:47:35Z</time>
      </trkpt>
      <trkpt lat="44.42513" lon="5.25005">
        <ele>699</ele>
        <time>2022-09-29T11:47:36Z</time>
      </trkpt>
      <trkpt lat="44.42513" lon="5.25004">
        <ele>699</ele>
        <time>2022-09-29T11:47:37Z</time>
      </trkpt>
      <trkpt lat="44.42512" lon="5.25003">
        <ele>699</ele>
        <time>2022-09-29T11:47:38Z</time>
      </trkpt>
      <trkpt lat="44.42512" lon="5.25002">
        <ele>698</ele>
        <time>2022-09-29T11:47:39Z</time>
      </trkpt>
      <trkpt lat="44.42511" lon="5.25001">
        <ele>698</ele>
        <time>2022-09-29T11:47:40Z</time>
      </trkpt>
      <trkpt lat="44.42511" lon="5.25">
        <ele>698</ele>
        <time>2022-09-29T11:47:41Z</time>
      </trkpt>
      <trkpt lat="44.4251" lon="5.24998">
        <ele>698</ele>
        <time>2022-09-29T11:47:42Z</time>
      </trkpt>
      <trkpt lat="44.4251" lon="5.24997">
        <ele>698</ele>
        <time>2022-09-29T11:47:43Z</time>
      </trkpt>
      <trkpt lat="44.42509" lon="5.24996">
        <ele>698</ele>
        <time>2022-09-29T11:47:44Z</time>
      </trkpt>
      <trkpt lat="44.42508" lon="5.24995">
        <ele>698</ele>
        <time>2022-09-29T11:47:45Z</time>
      </trkpt>
      <trkpt lat="44.42508" lon="5.24994">
        <ele>698</ele>
        <time>2022-09-29T11:47:46Z</time>
      </trkpt>
      <trkpt lat="44.42507" lon="5.24992">
        <ele>698</ele>
        <time>2022-09-29T11:47:47Z</time>
      </trkpt>
      <trkpt lat="44.42507" lon="5.24991">
        <ele>698</ele>
        <time>2022-09-29T11:47:48Z</time>
      </trkpt>
      <trkpt lat="44.42507" lon="5.2499">
        <ele>698</ele>
        <time>2022-09-29T11:47:49Z</time>
      </trkpt>
      <trkpt lat="44.42506" lon="5.24989">
        <ele>698</ele>
        <time>2022-09-29T11:47:50Z</time>
      </trkpt>
      <trkpt lat="44.42506" lon="5.24988">
        <ele>698</ele>
        <time>2022-09-29T11:47:51Z</time>
      </trkpt>
      <trkpt lat="44.42506" lon="5.24986">
        <ele>698</ele>
        <time>2022-09-29T11:47:52Z</time>
      </trkpt>
      <trkpt lat="44.42505" lon="5.24985">
        <ele>698</ele>
        <time>2022-09-29T11:47:53Z</time>
      </trkpt>
      <trkpt lat="44.42505" lon="5.24983">
        <ele>697</ele>
        <time>2022-09-29T11:47:54Z</time>
      </trkpt>
      <trkpt lat="44.42505" lon="5.24982">
        <ele>697</ele>
        <time>2022-09-29T11:47:55Z</time>
      </trkpt>
      <trkpt lat="44.42505" lon="5.24981">
        <ele>697</ele>
        <time>2022-09-29T11:47:56Z</time>
      </trkpt>
      <trkpt lat="44.42504" lon="5.24979">
        <ele>697</ele>
        <time>2022-09-29T11:47:57Z</time>
      </trkpt>
      <trkpt lat="44.42504" lon="5.24978">
        <ele>697</ele>
        <time>2022-09-29T11:47:58Z</time>
      </trkpt>
      <trkpt lat="44.42503" lon="5.24977">
        <ele>697</ele>
        <time>2022-09-29T11:47:59Z</time>
      </trkpt>
      <trkpt lat="44.42503" lon="5.24975">
        <ele>697</ele>
        <time>2022-09-29T11:48:00Z</time>
      </trkpt>
      <trkpt lat="44.42502" lon="5.24974">
        <ele>697</ele>
        <time>2022-09-29T11:48:01Z</time>
      </trkpt>
      <trkpt lat="44.42502" lon="5.24973">
        <ele>697</ele>
        <time>2022-09-29T11:48:02Z</time>
      </trkpt>
      <trkpt lat="44.42501" lon="5.24971">
        <ele>697</ele>
        <time>2022-09-29T11:48:03Z</time>
      </trkpt>
      <trkpt lat="44.425" lon="5.2497">
        <ele>696</ele>
        <time>2022-09-29T11:48:04Z</time>
      </trkpt>
      <trkpt lat="44.425" lon="5.24969">
        <ele>696</ele>
        <time>2022-09-29T11:48:05Z</time>
      </trkpt>
      <trkpt lat="44.42499" lon="5.24968">
        <ele>696</ele>
        <time>2022-09-29T11:48:06Z</time>
      </trkpt>
      <trkpt lat="44.42498" lon="5.24967">
        <ele>696</ele>
        <time>2022-09-29T11:48:07Z</time>
      </trkpt>
      <trkpt lat="44.42498" lon="5.24966">
        <ele>696</ele>
        <time>2022-09-29T11:48:08Z</time>
      </trkpt>
      <trkpt lat="44.42497" lon="5.24965">
        <ele>696</ele>
        <time>2022-09-29T11:48:09Z</time>
      </trkpt>
      <trkpt lat="44.42496" lon="5.24964">
        <ele>696</ele>
        <time>2022-09-29T11:48:10Z</time>
      </trkpt>
      <trkpt lat="44.42496" lon="5.24962">
        <ele>696</ele>
        <time>2022-09-29T11:48:11Z</time>
      </trkpt>
      <trkpt lat="44.42495" lon="5.24961">
        <ele>696</ele>
        <time>2022-09-29T11:48:12Z</time>
      </trkpt>
      <trkpt lat="44.42494" lon="5.2496">
        <ele>696</ele>
        <time>2022-09-29T11:48:13Z</time>
      </trkpt>
      <trkpt lat="44.42494" lon="5.24959">
        <ele>695</ele>
        <time>2022-09-29T11:48:14Z</time>
      </trkpt>
      <trkpt lat="44.42493" lon="5.24958">
        <ele>695</ele>
        <time>2022-09-29T11:48:15Z</time>
      </trkpt>
      <trkpt lat="44.42492" lon="5.24957">
        <ele>695</ele>
        <time>2022-09-29T11:48:16Z</time>
      </trkpt>
      <trkpt lat="44.42491" lon="5.24955">
        <ele>695</ele>
        <time>2022-09-29T11:48:17Z</time>
      </trkpt>
      <trkpt lat="44.4249" lon="5.24954">
        <ele>695</ele>
        <time>2022-09-29T11:48:18Z</time>
      </trkpt>
      <trkpt lat="44.4249" lon="5.24953">
        <ele>695</ele>
        <time>2022-09-29T11:48:19Z</time>
      </trkpt>
      <trkpt lat="44.42489" lon="5.24952">
        <ele>695</ele>
        <time>2022-09-29T11:48:20Z</time>
      </trkpt>
      <trkpt lat="44.42488" lon="5.24951">
        <ele>695</ele>
        <time>2022-09-29T11:48:21Z</time>
      </trkpt>
      <trkpt lat="44.42488" lon="5.24949">
        <ele>695</ele>
        <time>2022-09-29T11:48:22Z</time>
      </trkpt>
      <trkpt lat="44.42487" lon="5.24948">
        <ele>695</ele>
        <time>2022-09-29T11:48:23Z</time>
      </trkpt>
      <trkpt lat="44.42486" lon="5.24947">
        <ele>694</ele>
        <time>2022-09-29T11:48:24Z</time>
      </trkpt>
      <trkpt lat="44.42486" lon="5.24945">
        <ele>694</ele>
        <time>2022-09-29T11:48:25Z</time>
      </trkpt>
      <trkpt lat="44.42485" lon="5.24944">
        <ele>694</ele>
        <time>2022-09-29T11:48:26Z</time>
      </trkpt>
      <trkpt lat="44.42484" lon="5.24943">
        <ele>694</ele>
        <time>2022-09-29T11:48:27Z</time>
      </trkpt>
      <trkpt lat="44.42483" lon="5.24942">
        <ele>694</ele>
        <time>2022-09-29T11:48:28Z</time>
      </trkpt>
      <trkpt lat="44.42483" lon="5.2494">
        <ele>694</ele>
        <time>2022-09-29T11:48:29Z</time>
      </trkpt>
      <trkpt lat="44.42482" lon="5.24939">
        <ele>694</ele>
        <time>2022-09-29T11:48:30Z</time>
      </trkpt>
      <trkpt lat="44.42481" lon="5.24938">
        <ele>694</ele>
        <time>2022-09-29T11:48:31Z</time>
      </trkpt>
      <trkpt lat="44.42481" lon="5.24937">
        <ele>694</ele>
        <time>2022-09-29T11:48:32Z</time>
      </trkpt>
      <trkpt lat="44.4248" lon="5.24935">
        <ele>694</ele>
        <time>2022-09-29T11:48:33Z</time>
      </trkpt>
      <trkpt lat="44.42479" lon="5.24934">
        <ele>694</ele>
        <time>2022-09-29T11:48:34Z</time>
      </trkpt>
      <trkpt lat="44.42479" lon="5.24933">
        <ele>694</ele>
        <time>2022-09-29T11:48:35Z</time>
      </trkpt>
      <trkpt lat="44.42478" lon="5.24931">
        <ele>694</ele>
        <time>2022-09-29T11:48:36Z</time>
      </trkpt>
      <trkpt lat="44.42478" lon="5.2493">
        <ele>694</ele>
        <time>2022-09-29T11:48:37Z</time>
      </trkpt>
      <trkpt lat="44.42477" lon="5.24929">
        <ele>694</ele>
        <time>2022-09-29T11:48:38Z</time>
      </trkpt>
      <trkpt lat="44.42477" lon="5.24928">
        <ele>693</ele>
        <time>2022-09-29T11:48:39Z</time>
      </trkpt>
      <trkpt lat="44.42476" lon="5.24926">
        <ele>693</ele>
        <time>2022-09-29T11:48:40Z</time>
      </trkpt>
      <trkpt lat="44.42476" lon="5.24925">
        <ele>693</ele>
        <time>2022-09-29T11:48:41Z</time>
      </trkpt>
      <trkpt lat="44.42476" lon="5.24924">
        <ele>693</ele>
        <time>2022-09-29T11:48:42Z</time>
      </trkpt>
      <trkpt lat="44.42476" lon="5.24922">
        <ele>693</ele>
        <time>2022-09-29T11:48:43Z</time>
      </trkpt>
      <trkpt lat="44.42475" lon="5.24921">
        <ele>693</ele>
        <time>2022-09-29T11:48:44Z</time>
      </trkpt>
      <trkpt lat="44.42475" lon="5.2492">
        <ele>693</ele>
        <time>2022-09-29T11:48:45Z</time>
      </trkpt>
      <trkpt lat="44.42475" lon="5.24918">
        <ele>693</ele>
        <time>2022-09-29T11:48:46Z</time>
      </trkpt>
      <trkpt lat="44.42474" lon="5.24917">
        <ele>693</ele>
        <time>2022-09-29T11:48:47Z</time>
      </trkpt>
      <trkpt lat="44.42474" lon="5.24915">
        <ele>693</ele>
        <time>2022-09-29T11:48:48Z</time>
      </trkpt>
      <trkpt lat="44.42474" lon="5.24914">
        <ele>692</ele>
        <time>2022-09-29T11:48:49Z</time>
      </trkpt>
      <trkpt lat="44.42473" lon="5.24913">
        <ele>692</ele>
        <time>2022-09-29T11:48:50Z</time>
      </trkpt>
      <trkpt lat="44.42472" lon="5.24911">
        <ele>692</ele>
        <time>2022-09-29T11:48:51Z</time>
      </trkpt>
      <trkpt lat="44.42472" lon="5.2491">
        <ele>692</ele>
        <time>2022-09-29T11:48:52Z</time>
      </trkpt>
      <trkpt lat="44.42471" lon="5.24909">
        <ele>692</ele>
        <time>2022-09-29T11:48:53Z</time>
      </trkpt>
      <trkpt lat="44.4247" lon="5.24908">
        <ele>692</ele>
        <time>2022-09-29T11:48:54Z</time>
      </trkpt>
      <trkpt lat="44.42469" lon="5.24907">
        <ele>692</ele>
        <time>2022-09-29T11:48:55Z</time>
      </trkpt>
      <trkpt lat="44.42469" lon="5.24906">
        <ele>692</ele>
        <time>2022-09-29T11:48:56Z</time>
      </trkpt>
      <trkpt lat="44.42468" lon="5.24905">
        <ele>692</ele>
        <time>2022-09-29T11:48:57Z</time>
      </trkpt>
      <trkpt lat="44.42467" lon="5.24904">
        <ele>692</ele>
        <time>2022-09-29T11:48:58Z</time>
      </trkpt>
      <trkpt lat="44.42467" lon="5.24903">
        <ele>692</ele>
        <time>2022-09-29T11:48:59Z</time>
      </trkpt>
      <trkpt lat="44.42467" lon="5.24902">
        <ele>692</ele>
        <time>2022-09-29T11:49:00Z</time>
      </trkpt>
      <trkpt lat="44.42466" lon="5.249">
        <ele>692</ele>
        <time>2022-09-29T11:49:01Z</time>
      </trkpt>
      <trkpt lat="44.42466" lon="5.24899">
        <ele>692</ele>
        <time>2022-09-29T11:49:02Z</time>
      </trkpt>
      <trkpt lat="44.42465" lon="5.24898">
        <ele>692</ele>
        <time>2022-09-29T11:49:03Z</time>
      </trkpt>
      <trkpt lat="44.42465" lon="5.24897">
        <ele>691</ele>
        <time>2022-09-29T11:49:04Z</time>
      </trkpt>
      <trkpt lat="44.42464" lon="5.24896">
        <ele>691</ele>
        <time>2022-09-29T11:49:05Z</time>
      </trkpt>
      <trkpt lat="44.42464" lon="5.24894">
        <ele>691</ele>
        <time>2022-09-29T11:49:06Z</time>
      </trkpt>
      <trkpt lat="44.42463" lon="5.24893">
        <ele>691</ele>
        <time>2022-09-29T11:49:07Z</time>
      </trkpt>
      <trkpt lat="44.42463" lon="5.24892">
        <ele>691</ele>
        <time>2022-09-29T11:49:08Z</time>
      </trkpt>
      <trkpt lat="44.42462" lon="5.24891">
        <ele>690</ele>
        <time>2022-09-29T11:49:09Z</time>
      </trkpt>
      <trkpt lat="44.42462" lon="5.2489">
        <ele>690</ele>
        <time>2022-09-29T11:49:10Z</time>
      </trkpt>
      <trkpt lat="44.42461" lon="5.24889">
        <ele>690</ele>
        <time>2022-09-29T11:49:11Z</time>
      </trkpt>
      <trkpt lat="44.4246" lon="5.24888">
        <ele>690</ele>
        <time>2022-09-29T11:49:12Z</time>
      </trkpt>
      <trkpt lat="44.4246" lon="5.24887">
        <ele>690</ele>
        <time>2022-09-29T11:49:13Z</time>
      </trkpt>
      <trkpt lat="44.42459" lon="5.24886">
        <ele>690</ele>
        <time>2022-09-29T11:49:14Z</time>
      </trkpt>
      <trkpt lat="44.42458" lon="5.24885">
        <ele>690</ele>
        <time>2022-09-29T11:49:15Z</time>
      </trkpt>
      <trkpt lat="44.42457" lon="5.24884">
        <ele>690</ele>
        <time>2022-09-29T11:49:16Z</time>
      </trkpt>
      <trkpt lat="44.42456" lon="5.24883">
        <ele>690</ele>
        <time>2022-09-29T11:49:17Z</time>
      </trkpt>
      <trkpt lat="44.42455" lon="5.24882">
        <ele>690</ele>
        <time>2022-09-29T11:49:18Z</time>
      </trkpt>
      <trkpt lat="44.42454" lon="5.24881">
        <ele>690</ele>
        <time>2022-09-29T11:49:19Z</time>
      </trkpt>
      <trkpt lat="44.42454" lon="5.2488">
        <ele>690</ele>
        <time>2022-09-29T11:49:20Z</time>
      </trkpt>
      <trkpt lat="44.42453" lon="5.24879">
        <ele>690</ele>
        <time>2022-09-29T11:49:21Z</time>
      </trkpt>
      <trkpt lat="44.42453" lon="5.24879">
        <ele>690</ele>
        <time>2022-09-29T11:49:22Z</time>
      </trkpt>
      <trkpt lat="44.42452" lon="5.24878">
        <ele>690</ele>
        <time>2022-09-29T11:49:23Z</time>
      </trkpt>
      <trkpt lat="44.42452" lon="5.24877">
        <ele>689</ele>
        <time>2022-09-29T11:49:24Z</time>
      </trkpt>
      <trkpt lat="44.42451" lon="5.24877">
        <ele>689</ele>
        <time>2022-09-29T11:49:25Z</time>
      </trkpt>
      <trkpt lat="44.42451" lon="5.24876">
        <ele>689</ele>
        <time>2022-09-29T11:49:26Z</time>
      </trkpt>
      <trkpt lat="44.4245" lon="5.24876">
        <ele>689</ele>
        <time>2022-09-29T11:49:27Z</time>
      </trkpt>
      <trkpt lat="44.4245" lon="5.24875">
        <ele>689</ele>
        <time>2022-09-29T11:49:28Z</time>
      </trkpt>
      <trkpt lat="44.42449" lon="5.24874">
        <ele>689</ele>
        <time>2022-09-29T11:49:29Z</time>
      </trkpt>
      <trkpt lat="44.42449" lon="5.24874">
        <ele>689</ele>
        <time>2022-09-29T11:49:30Z</time>
      </trkpt>
      <trkpt lat="44.42449" lon="5.24873">
        <ele>689</ele>
        <time>2022-09-29T11:49:31Z</time>
      </trkpt>
      <trkpt lat="44.42449" lon="5.24872">
        <ele>689</ele>
        <time>2022-09-29T11:49:32Z</time>
      </trkpt>
      <trkpt lat="44.42448" lon="5.24871">
        <ele>689</ele>
        <time>2022-09-29T11:49:33Z</time>
      </trkpt>
      <trkpt lat="44.42448" lon="5.2487">
        <ele>689</ele>
        <time>2022-09-29T11:49:34Z</time>
      </trkpt>
      <trkpt lat="44.42448" lon="5.24869">
        <ele>689</ele>
        <time>2022-09-29T11:49:35Z</time>
      </trkpt>
      <trkpt lat="44.42448" lon="5.24868">
        <ele>689</ele>
        <time>2022-09-29T11:49:36Z</time>
      </trkpt>
      <trkpt lat="44.42447" lon="5.24867">
        <ele>689</ele>
        <time>2022-09-29T11:49:37Z</time>
      </trkpt>
      <trkpt lat="44.42447" lon="5.24865">
        <ele>689</ele>
        <time>2022-09-29T11:49:38Z</time>
      </trkpt>
      <trkpt lat="44.42446" lon="5.24864">
        <ele>688</ele>
        <time>2022-09-29T11:49:39Z</time>
      </trkpt>
      <trkpt lat="44.42446" lon="5.24863">
        <ele>688</ele>
        <time>2022-09-29T11:49:40Z</time>
      </trkpt>
      <trkpt lat="44.42445" lon="5.24862">
        <ele>687</ele>
        <time>2022-09-29T11:49:41Z</time>
      </trkpt>
      <trkpt lat="44.42445" lon="5.2486">
        <ele>687</ele>
        <time>2022-09-29T11:49:42Z</time>
      </trkpt>
      <trkpt lat="44.42444" lon="5.24859">
        <ele>687</ele>
        <time>2022-09-29T11:49:43Z</time>
      </trkpt>
      <trkpt lat="44.42444" lon="5.24858">
        <ele>687</ele>
        <time>2022-09-29T11:49:44Z</time>
      </trkpt>
      <trkpt lat="44.42443" lon="5.24856">
        <ele>687</ele>
        <time>2022-09-29T11:49:45Z</time>
      </trkpt>
      <trkpt lat="44.42442" lon="5.24855">
        <ele>687</ele>
        <time>2022-09-29T11:49:46Z</time>
      </trkpt>
      <trkpt lat="44.42442" lon="5.24854">
        <ele>687</ele>
        <time>2022-09-29T11:49:47Z</time>
      </trkpt>
      <trkpt lat="44.42441" lon="5.24853">
        <ele>687</ele>
        <time>2022-09-29T11:49:48Z</time>
      </trkpt>
      <trkpt lat="44.42441" lon="5.24852">
        <ele>687</ele>
        <time>2022-09-29T11:49:49Z</time>
      </trkpt>
      <trkpt lat="44.4244" lon="5.24851">
        <ele>687</ele>
        <time>2022-09-29T11:49:50Z</time>
      </trkpt>
      <trkpt lat="44.42439" lon="5.2485">
        <ele>687</ele>
        <time>2022-09-29T11:49:51Z</time>
      </trkpt>
      <trkpt lat="44.42439" lon="5.24849">
        <ele>687</ele>
        <time>2022-09-29T11:49:52Z</time>
      </trkpt>
      <trkpt lat="44.42438" lon="5.24848">
        <ele>687</ele>
        <time>2022-09-29T11:49:53Z</time>
      </trkpt>
      <trkpt lat="44.42437" lon="5.24847">
        <ele>686</ele>
        <time>2022-09-29T11:49:54Z</time>
      </trkpt>
      <trkpt lat="44.42436" lon="5.24847">
        <ele>686</ele>
        <time>2022-09-29T11:49:55Z</time>
      </trkpt>
      <trkpt lat="44.42435" lon="5.24846">
        <ele>686</ele>
        <time>2022-09-29T11:49:56Z</time>
      </trkpt>
      <trkpt lat="44.42435" lon="5.24844">
        <ele>686</ele>
        <time>2022-09-29T11:49:57Z</time>
      </trkpt>
      <trkpt lat="44.42434" lon="5.24843">
        <ele>686</ele>
        <time>2022-09-29T11:49:58Z</time>
      </trkpt>
      <trkpt lat="44.42434" lon="5.24842">
        <ele>686</ele>
        <time>2022-09-29T11:49:59Z</time>
      </trkpt>
      <trkpt lat="44.42433" lon="5.24841">
        <ele>686</ele>
        <time>2022-09-29T11:50:00Z</time>
      </trkpt>
      <trkpt lat="44.42433" lon="5.2484">
        <ele>686</ele>
        <time>2022-09-29T11:50:01Z</time>
      </trkpt>
      <trkpt lat="44.42432" lon="5.24839">
        <ele>686</ele>
        <time>2022-09-29T11:50:02Z</time>
      </trkpt>
      <trkpt lat="44.42432" lon="5.24838">
        <ele>686</ele>
        <time>2022-09-29T11:50:03Z</time>
      </trkpt>
      <trkpt lat="44.42431" lon="5.24837">
        <ele>686</ele>
        <time>2022-09-29T11:50:04Z</time>
      </trkpt>
      <trkpt lat="44.4243" lon="5.24836">
        <ele>686</ele>
        <time>2022-09-29T11:50:05Z</time>
      </trkpt>
      <trkpt lat="44.42429" lon="5.24835">
        <ele>686</ele>
        <time>2022-09-29T11:50:06Z</time>
      </trkpt>
      <trkpt lat="44.42428" lon="5.24834">
        <ele>686</ele>
        <time>2022-09-29T11:50:07Z</time>
      </trkpt>
      <trkpt lat="44.42427" lon="5.24833">
        <ele>686</ele>
        <time>2022-09-29T11:50:08Z</time>
      </trkpt>
      <trkpt lat="44.42426" lon="5.24832">
        <ele>686</ele>
        <time>2022-09-29T11:50:09Z</time>
      </trkpt>
      <trkpt lat="44.42425" lon="5.24831">
        <ele>686</ele>
        <time>2022-09-29T11:50:10Z</time>
      </trkpt>
      <trkpt lat="44.42424" lon="5.2483">
        <ele>686</ele>
        <time>2022-09-29T11:50:11Z</time>
      </trkpt>
      <trkpt lat="44.42424" lon="5.24829">
        <ele>686</ele>
        <time>2022-09-29T11:50:12Z</time>
      </trkpt>
      <trkpt lat="44.42423" lon="5.24828">
        <ele>686</ele>
        <time>2022-09-29T11:50:13Z</time>
      </trkpt>
      <trkpt lat="44.42422" lon="5.24827">
        <ele>685</ele>
        <time>2022-09-29T11:50:14Z</time>
      </trkpt>
      <trkpt lat="44.42421" lon="5.24826">
        <ele>685</ele>
        <time>2022-09-29T11:50:15Z</time>
      </trkpt>
      <trkpt lat="44.42421" lon="5.24825">
        <ele>685</ele>
        <time>2022-09-29T11:50:16Z</time>
      </trkpt>
      <trkpt lat="44.4242" lon="5.24824">
        <ele>685</ele>
        <time>2022-09-29T11:50:17Z</time>
      </trkpt>
      <trkpt lat="44.42419" lon="5.24823">
        <ele>685</ele>
        <time>2022-09-29T11:50:18Z</time>
      </trkpt>
      <trkpt lat="44.42418" lon="5.24821">
        <ele>685</ele>
        <time>2022-09-29T11:50:19Z</time>
      </trkpt>
      <trkpt lat="44.42417" lon="5.2482">
        <ele>685</ele>
        <time>2022-09-29T11:50:20Z</time>
      </trkpt>
      <trkpt lat="44.42417" lon="5.24819">
        <ele>685</ele>
        <time>2022-09-29T11:50:21Z</time>
      </trkpt>
      <trkpt lat="44.42416" lon="5.24819">
        <ele>685</ele>
        <time>2022-09-29T11:50:22Z</time>
      </trkpt>
      <trkpt lat="44.42415" lon="5.24818">
        <ele>685</ele>
        <time>2022-09-29T11:50:23Z</time>
      </trkpt>
      <trkpt lat="44.42414" lon="5.24817">
        <ele>685</ele>
        <time>2022-09-29T11:50:24Z</time>
      </trkpt>
      <trkpt lat="44.42413" lon="5.24816">
        <ele>685</ele>
        <time>2022-09-29T11:50:25Z</time>
      </trkpt>
      <trkpt lat="44.42412" lon="5.24815">
        <ele>685</ele>
        <time>2022-09-29T11:50:26Z</time>
      </trkpt>
      <trkpt lat="44.42412" lon="5.24814">
        <ele>685</ele>
        <time>2022-09-29T11:50:27Z</time>
      </trkpt>
      <trkpt lat="44.42411" lon="5.24813">
        <ele>685</ele>
        <time>2022-09-29T11:50:28Z</time>
      </trkpt>
      <trkpt lat="44.4241" lon="5.24812">
        <ele>685</ele>
        <time>2022-09-29T11:50:29Z</time>
      </trkpt>
      <trkpt lat="44.42409" lon="5.24811">
        <ele>685</ele>
        <time>2022-09-29T11:50:30Z</time>
      </trkpt>
      <trkpt lat="44.42409" lon="5.2481">
        <ele>685</ele>
        <time>2022-09-29T11:50:31Z</time>
      </trkpt>
      <trkpt lat="44.42408" lon="5.24809">
        <ele>685</ele>
        <time>2022-09-29T11:50:32Z</time>
      </trkpt>
      <trkpt lat="44.42407" lon="5.24809">
        <ele>685</ele>
        <time>2022-09-29T11:50:33Z</time>
      </trkpt>
      <trkpt lat="44.42406" lon="5.24808">
        <ele>685</ele>
        <time>2022-09-29T11:50:34Z</time>
      </trkpt>
      <trkpt lat="44.42406" lon="5.24807">
        <ele>685</ele>
        <time>2022-09-29T11:50:35Z</time>
      </trkpt>
      <trkpt lat="44.42405" lon="5.24807">
        <ele>685</ele>
        <time>2022-09-29T11:50:36Z</time>
      </trkpt>
      <trkpt lat="44.42404" lon="5.24806">
        <ele>685</ele>
        <time>2022-09-29T11:50:37Z</time>
      </trkpt>
      <trkpt lat="44.42403" lon="5.24805">
        <ele>685</ele>
        <time>2022-09-29T11:50:38Z</time>
      </trkpt>
      <trkpt lat="44.42402" lon="5.24804">
        <ele>685</ele>
        <time>2022-09-29T11:50:39Z</time>
      </trkpt>
      <trkpt lat="44.42401" lon="5.24804">
        <ele>685</ele>
        <time>2022-09-29T11:50:40Z</time>
      </trkpt>
      <trkpt lat="44.42401" lon="5.24803">
        <ele>685</ele>
        <time>2022-09-29T11:50:41Z</time>
      </trkpt>
      <trkpt lat="44.424" lon="5.24802">
        <ele>685</ele>
        <time>2022-09-29T11:50:42Z</time>
      </trkpt>
      <trkpt lat="44.424" lon="5.24801">
        <ele>685</ele>
        <time>2022-09-29T11:50:43Z</time>
      </trkpt>
      <trkpt lat="44.42399" lon="5.248">
        <ele>684</ele>
        <time>2022-09-29T11:50:44Z</time>
      </trkpt>
      <trkpt lat="44.42398" lon="5.24799">
        <ele>684</ele>
        <time>2022-09-29T11:50:45Z</time>
      </trkpt>
      <trkpt lat="44.42398" lon="5.24798">
        <ele>684</ele>
        <time>2022-09-29T11:50:46Z</time>
      </trkpt>
      <trkpt lat="44.42398" lon="5.24797">
        <ele>684</ele>
        <time>2022-09-29T11:50:47Z</time>
      </trkpt>
      <trkpt lat="44.42397" lon="5.24796">
        <ele>684</ele>
        <time>2022-09-29T11:50:48Z</time>
      </trkpt>
      <trkpt lat="44.42397" lon="5.24796">
        <ele>684</ele>
        <time>2022-09-29T11:50:49Z</time>
      </trkpt>
      <trkpt lat="44.42396" lon="5.24795">
        <ele>684</ele>
        <time>2022-09-29T11:50:50Z</time>
      </trkpt>
      <trkpt lat="44.42396" lon="5.24794">
        <ele>684</ele>
        <time>2022-09-29T11:50:51Z</time>
      </trkpt>
      <trkpt lat="44.42396" lon="5.24794">
        <ele>684</ele>
        <time>2022-09-29T11:50:52Z</time>
      </trkpt>
      <trkpt lat="44.42395" lon="5.24793">
        <ele>684</ele>
        <time>2022-09-29T11:50:53Z</time>
      </trkpt>
      <trkpt lat="44.42394" lon="5.24792">
        <ele>684</ele>
        <time>2022-09-29T11:50:54Z</time>
      </trkpt>
      <trkpt lat="44.42394" lon="5.24792">
        <ele>684</ele>
        <time>2022-09-29T11:50:55Z</time>
      </trkpt>
      <trkpt lat="44.42393" lon="5.24791">
        <ele>684</ele>
        <time>2022-09-29T11:50:56Z</time>
      </trkpt>
      <trkpt lat="44.42393" lon="5.2479">
        <ele>684</ele>
        <time>2022-09-29T11:50:57Z</time>
      </trkpt>
      <trkpt lat="44.42392" lon="5.24789">
        <ele>684</ele>
        <time>2022-09-29T11:50:58Z</time>
      </trkpt>
      <trkpt lat="44.42392" lon="5.24788">
        <ele>684</ele>
        <time>2022-09-29T11:50:59Z</time>
      </trkpt>
      <trkpt lat="44.42392" lon="5.24787">
        <ele>684</ele>
        <time>2022-09-29T11:51:00Z</time>
      </trkpt>
      <trkpt lat="44.42391" lon="5.24786">
        <ele>684</ele>
        <time>2022-09-29T11:51:01Z</time>
      </trkpt>
      <trkpt lat="44.42391" lon="5.24784">
        <ele>684</ele>
        <time>2022-09-29T11:51:02Z</time>
      </trkpt>
      <trkpt lat="44.42391" lon="5.24783">
        <ele>684</ele>
        <time>2022-09-29T11:51:03Z</time>
      </trkpt>
      <trkpt lat="44.4239" lon="5.24782">
        <ele>683</ele>
        <time>2022-09-29T11:51:04Z</time>
      </trkpt>
      <trkpt lat="44.4239" lon="5.24781">
        <ele>683</ele>
        <time>2022-09-29T11:51:05Z</time>
      </trkpt>
      <trkpt lat="44.4239" lon="5.24779">
        <ele>683</ele>
        <time>2022-09-29T11:51:06Z</time>
      </trkpt>
      <trkpt lat="44.42389" lon="5.24778">
        <ele>683</ele>
        <time>2022-09-29T11:51:07Z</time>
      </trkpt>
      <trkpt lat="44.42388" lon="5.24777">
        <ele>683</ele>
        <time>2022-09-29T11:51:08Z</time>
      </trkpt>
      <trkpt lat="44.42388" lon="5.24776">
        <ele>683</ele>
        <time>2022-09-29T11:51:09Z</time>
      </trkpt>
      <trkpt lat="44.42387" lon="5.24775">
        <ele>683</ele>
        <time>2022-09-29T11:51:10Z</time>
      </trkpt>
      <trkpt lat="44.42387" lon="5.24774">
        <ele>683</ele>
        <time>2022-09-29T11:51:11Z</time>
      </trkpt>
      <trkpt lat="44.42386" lon="5.24773">
        <ele>683</ele>
        <time>2022-09-29T11:51:12Z</time>
      </trkpt>
      <trkpt lat="44.42386" lon="5.24772">
        <ele>683</ele>
        <time>2022-09-29T11:51:13Z</time>
      </trkpt>
      <trkpt lat="44.42386" lon="5.2477">
        <ele>682</ele>
        <time>2022-09-29T11:51:14Z</time>
      </trkpt>
      <trkpt lat="44.42385" lon="5.24769">
        <ele>682</ele>
        <time>2022-09-29T11:51:15Z</time>
      </trkpt>
      <trkpt lat="44.42385" lon="5.24768">
        <ele>682</ele>
        <time>2022-09-29T11:51:16Z</time>
      </trkpt>
      <trkpt lat="44.42385" lon="5.24767">
        <ele>682</ele>
        <time>2022-09-29T11:51:17Z</time>
      </trkpt>
      <trkpt lat="44.42384" lon="5.24766">
        <ele>682</ele>
        <time>2022-09-29T11:51:18Z</time>
      </trkpt>
      <trkpt lat="44.42384" lon="5.24764">
        <ele>682</ele>
        <time>2022-09-29T11:51:19Z</time>
      </trkpt>
      <trkpt lat="44.42384" lon="5.24763">
        <ele>682</ele>
        <time>2022-09-29T11:51:20Z</time>
      </trkpt>
      <trkpt lat="44.42384" lon="5.24762">
        <ele>682</ele>
        <time>2022-09-29T11:51:21Z</time>
      </trkpt>
      <trkpt lat="44.42383" lon="5.2476">
        <ele>682</ele>
        <time>2022-09-29T11:51:22Z</time>
      </trkpt>
      <trkpt lat="44.42383" lon="5.24759">
        <ele>682</ele>
        <time>2022-09-29T11:51:23Z</time>
      </trkpt>
      <trkpt lat="44.42383" lon="5.24758">
        <ele>681</ele>
        <time>2022-09-29T11:51:24Z</time>
      </trkpt>
      <trkpt lat="44.42383" lon="5.24756">
        <ele>681</ele>
        <time>2022-09-29T11:51:25Z</time>
      </trkpt>
      <trkpt lat="44.42383" lon="5.24755">
        <ele>681</ele>
        <time>2022-09-29T11:51:26Z</time>
      </trkpt>
      <trkpt lat="44.42382" lon="5.24754">
        <ele>681</ele>
        <time>2022-09-29T11:51:27Z</time>
      </trkpt>
      <trkpt lat="44.42382" lon="5.24752">
        <ele>681</ele>
        <time>2022-09-29T11:51:28Z</time>
      </trkpt>
      <trkpt lat="44.42382" lon="5.24752">
        <ele>681</ele>
        <time>2022-09-29T11:51:29Z</time>
      </trkpt>
      <trkpt lat="44.42382" lon="5.24751">
        <ele>681</ele>
        <time>2022-09-29T11:51:30Z</time>
      </trkpt>
      <trkpt lat="44.42382" lon="5.24751">
        <ele>681</ele>
        <time>2022-09-29T11:51:31Z</time>
      </trkpt>
      <trkpt lat="44.42382" lon="5.2475">
        <ele>681</ele>
        <time>2022-09-29T11:51:32Z</time>
      </trkpt>
      <trkpt lat="44.42382" lon="5.2475">
        <ele>681</ele>
        <time>2022-09-29T11:51:33Z</time>
      </trkpt>
      <trkpt lat="44.42381" lon="5.24749">
        <ele>680</ele>
        <time>2022-09-29T11:51:34Z</time>
      </trkpt>
      <trkpt lat="44.42381" lon="5.24748">
        <ele>680</ele>
        <time>2022-09-29T11:51:35Z</time>
      </trkpt>
      <trkpt lat="44.42381" lon="5.24747">
        <ele>680</ele>
        <time>2022-09-29T11:51:36Z</time>
      </trkpt>
      <trkpt lat="44.42381" lon="5.24746">
        <ele>680</ele>
        <time>2022-09-29T11:51:37Z</time>
      </trkpt>
      <trkpt lat="44.4238" lon="5.24745">
        <ele>680</ele>
        <time>2022-09-29T11:51:38Z</time>
      </trkpt>
      <trkpt lat="44.4238" lon="5.24744">
        <ele>680</ele>
        <time>2022-09-29T11:51:39Z</time>
      </trkpt>
      <trkpt lat="44.4238" lon="5.24742">
        <ele>680</ele>
        <time>2022-09-29T11:51:40Z</time>
      </trkpt>
      <trkpt lat="44.4238" lon="5.24741">
        <ele>680</ele>
        <time>2022-09-29T11:51:41Z</time>
      </trkpt>
      <trkpt lat="44.42379" lon="5.24739">
        <ele>680</ele>
        <time>2022-09-29T11:51:42Z</time>
      </trkpt>
      <trkpt lat="44.42379" lon="5.24737">
        <ele>680</ele>
        <time>2022-09-29T11:51:43Z</time>
      </trkpt>
      <trkpt lat="44.42379" lon="5.24735">
        <ele>679</ele>
        <time>2022-09-29T11:51:44Z</time>
      </trkpt>
      <trkpt lat="44.42378" lon="5.24733">
        <ele>679</ele>
        <time>2022-09-29T11:51:45Z</time>
      </trkpt>
      <trkpt lat="44.42378" lon="5.24732">
        <ele>679</ele>
        <time>2022-09-29T11:51:46Z</time>
      </trkpt>
      <trkpt lat="44.42378" lon="5.24731">
        <ele>679</ele>
        <time>2022-09-29T11:51:47Z</time>
      </trkpt>
      <trkpt lat="44.42378" lon="5.24729">
        <ele>679</ele>
        <time>2022-09-29T11:51:48Z</time>
      </trkpt>
      <trkpt lat="44.42378" lon="5.24728">
        <ele>679</ele>
        <time>2022-09-29T11:51:49Z</time>
      </trkpt>
      <trkpt lat="44.42378" lon="5.24726">
        <ele>679</ele>
        <time>2022-09-29T11:51:50Z</time>
      </trkpt>
      <trkpt lat="44.42378" lon="5.24724">
        <ele>679</ele>
        <time>2022-09-29T11:51:51Z</time>
      </trkpt>
      <trkpt lat="44.42378" lon="5.24722">
        <ele>679</ele>
        <time>2022-09-29T11:51:52Z</time>
      </trkpt>
      <trkpt lat="44.42378" lon="5.2472">
        <ele>679</ele>
        <time>2022-09-29T11:51:53Z</time>
      </trkpt>
      <trkpt lat="44.42378" lon="5.24719">
        <ele>679</ele>
        <time>2022-09-29T11:51:54Z</time>
      </trkpt>
      <trkpt lat="44.42378" lon="5.24718">
        <ele>679</ele>
        <time>2022-09-29T11:51:55Z</time>
      </trkpt>
      <trkpt lat="44.42378" lon="5.24717">
        <ele>679</ele>
        <time>2022-09-29T11:51:56Z</time>
      </trkpt>
      <trkpt lat="44.42378" lon="5.24716">
        <ele>679</ele>
        <time>2022-09-29T11:51:57Z</time>
      </trkpt>
      <trkpt lat="44.42378" lon="5.24715">
        <ele>679</ele>
        <time>2022-09-29T11:51:58Z</time>
      </trkpt>
      <trkpt lat="44.42378" lon="5.24714">
        <ele>679</ele>
        <time>2022-09-29T11:51:59Z</time>
      </trkpt>
      <trkpt lat="44.42378" lon="5.24713">
        <ele>679</ele>
        <time>2022-09-29T11:52:00Z</time>
      </trkpt>
      <trkpt lat="44.42378" lon="5.24713">
        <ele>679</ele>
        <time>2022-09-29T11:52:01Z</time>
      </trkpt>
      <trkpt lat="44.42377" lon="5.24712">
        <ele>679</ele>
        <time>2022-09-29T11:52:02Z</time>
      </trkpt>
      <trkpt lat="44.42377" lon="5.24711">
        <ele>679</ele>
        <time>2022-09-29T11:52:03Z</time>
      </trkpt>
      <trkpt lat="44.42377" lon="5.2471">
        <ele>679</ele>
        <time>2022-09-29T11:52:04Z</time>
      </trkpt>
      <trkpt lat="44.42377" lon="5.24709">
        <ele>679</ele>
        <time>2022-09-29T11:52:05Z</time>
      </trkpt>
      <trkpt lat="44.42377" lon="5.24708">
        <ele>679</ele>
        <time>2022-09-29T11:52:06Z</time>
      </trkpt>
      <trkpt lat="44.42376" lon="5.24708">
        <ele>679</ele>
        <time>2022-09-29T11:52:07Z</time>
      </trkpt>
      <trkpt lat="44.42376" lon="5.24706">
        <ele>679</ele>
        <time>2022-09-29T11:52:08Z</time>
      </trkpt>
      <trkpt lat="44.42376" lon="5.24705">
        <ele>678</ele>
        <time>2022-09-29T11:52:09Z</time>
      </trkpt>
      <trkpt lat="44.42376" lon="5.24704">
        <ele>678</ele>
        <time>2022-09-29T11:52:10Z</time>
      </trkpt>
      <trkpt lat="44.42375" lon="5.24703">
        <ele>678</ele>
        <time>2022-09-29T11:52:11Z</time>
      </trkpt>
      <trkpt lat="44.42375" lon="5.24702">
        <ele>678</ele>
        <time>2022-09-29T11:52:12Z</time>
      </trkpt>
      <trkpt lat="44.42375" lon="5.24701">
        <ele>678</ele>
        <time>2022-09-29T11:52:13Z</time>
      </trkpt>
      <trkpt lat="44.42375" lon="5.247">
        <ele>678</ele>
        <time>2022-09-29T11:52:14Z</time>
      </trkpt>
      <trkpt lat="44.42375" lon="5.24699">
        <ele>678</ele>
        <time>2022-09-29T11:52:15Z</time>
      </trkpt>
      <trkpt lat="44.42375" lon="5.24697">
        <ele>678</ele>
        <time>2022-09-29T11:52:16Z</time>
      </trkpt>
      <trkpt lat="44.42375" lon="5.24696">
        <ele>678</ele>
        <time>2022-09-29T11:52:17Z</time>
      </trkpt>
      <trkpt lat="44.42376" lon="5.24695">
        <ele>678</ele>
        <time>2022-09-29T11:52:18Z</time>
      </trkpt>
      <trkpt lat="44.42376" lon="5.24694">
        <ele>678</ele>
        <time>2022-09-29T11:52:19Z</time>
      </trkpt>
      <trkpt lat="44.42376" lon="5.24693">
        <ele>678</ele>
        <time>2022-09-29T11:52:20Z</time>
      </trkpt>
      <trkpt lat="44.42376" lon="5.24692">
        <ele>678</ele>
        <time>2022-09-29T11:52:21Z</time>
      </trkpt>
      <trkpt lat="44.42377" lon="5.2469">
        <ele>678</ele>
        <time>2022-09-29T11:52:22Z</time>
      </trkpt>
      <trkpt lat="44.42377" lon="5.24689">
        <ele>678</ele>
        <time>2022-09-29T11:52:23Z</time>
      </trkpt>
      <trkpt lat="44.42377" lon="5.24687">
        <ele>677</ele>
        <time>2022-09-29T11:52:24Z</time>
      </trkpt>
      <trkpt lat="44.42377" lon="5.24685">
        <ele>677</ele>
        <time>2022-09-29T11:52:25Z</time>
      </trkpt>
      <trkpt lat="44.42377" lon="5.24683">
        <ele>677</ele>
        <time>2022-09-29T11:52:26Z</time>
      </trkpt>
      <trkpt lat="44.42377" lon="5.24681">
        <ele>677</ele>
        <time>2022-09-29T11:52:27Z</time>
      </trkpt>
      <trkpt lat="44.42377" lon="5.24679">
        <ele>677</ele>
        <time>2022-09-29T11:52:28Z</time>
      </trkpt>
      <trkpt lat="44.42377" lon="5.24677">
        <ele>677</ele>
        <time>2022-09-29T11:52:29Z</time>
      </trkpt>
      <trkpt lat="44.42378" lon="5.24675">
        <ele>677</ele>
        <time>2022-09-29T11:52:30Z</time>
      </trkpt>
      <trkpt lat="44.42378" lon="5.24673">
        <ele>677</ele>
        <time>2022-09-29T11:52:31Z</time>
      </trkpt>
      <trkpt lat="44.42378" lon="5.24671">
        <ele>677</ele>
        <time>2022-09-29T11:52:32Z</time>
      </trkpt>
      <trkpt lat="44.42379" lon="5.24669">
        <ele>677</ele>
        <time>2022-09-29T11:52:33Z</time>
      </trkpt>
      <trkpt lat="44.42379" lon="5.24668">
        <ele>677</ele>
        <time>2022-09-29T11:52:34Z</time>
      </trkpt>
      <trkpt lat="44.42379" lon="5.24667">
        <ele>677</ele>
        <time>2022-09-29T11:52:35Z</time>
      </trkpt>
      <trkpt lat="44.42379" lon="5.24666">
        <ele>677</ele>
        <time>2022-09-29T11:52:36Z</time>
      </trkpt>
      <trkpt lat="44.42379" lon="5.24665">
        <ele>677</ele>
        <time>2022-09-29T11:52:37Z</time>
      </trkpt>
      <trkpt lat="44.42379" lon="5.24664">
        <ele>677</ele>
        <time>2022-09-29T11:52:38Z</time>
      </trkpt>
      <trkpt lat="44.42378" lon="5.24663">
        <ele>676</ele>
        <time>2022-09-29T11:52:39Z</time>
      </trkpt>
      <trkpt lat="44.42378" lon="5.24663">
        <ele>676</ele>
        <time>2022-09-29T11:52:40Z</time>
      </trkpt>
      <trkpt lat="44.42378" lon="5.24662">
        <ele>676</ele>
        <time>2022-09-29T11:52:41Z</time>
      </trkpt>
      <trkpt lat="44.42377" lon="5.24661">
        <ele>676</ele>
        <time>2022-09-29T11:52:42Z</time>
      </trkpt>
      <trkpt lat="44.42377" lon="5.2466">
        <ele>676</ele>
        <time>2022-09-29T11:52:43Z</time>
      </trkpt>
      <trkpt lat="44.42376" lon="5.24658">
        <ele>676</ele>
        <time>2022-09-29T11:52:44Z</time>
      </trkpt>
      <trkpt lat="44.42376" lon="5.24657">
        <ele>676</ele>
        <time>2022-09-29T11:52:45Z</time>
      </trkpt>
      <trkpt lat="44.42375" lon="5.24655">
        <ele>676</ele>
        <time>2022-09-29T11:52:46Z</time>
      </trkpt>
      <trkpt lat="44.42375" lon="5.24654">
        <ele>676</ele>
        <time>2022-09-29T11:52:47Z</time>
      </trkpt>
      <trkpt lat="44.42374" lon="5.24652">
        <ele>676</ele>
        <time>2022-09-29T11:52:48Z</time>
      </trkpt>
      <trkpt lat="44.42374" lon="5.2465">
        <ele>675</ele>
        <time>2022-09-29T11:52:49Z</time>
      </trkpt>
      <trkpt lat="44.42373" lon="5.24649">
        <ele>675</ele>
        <time>2022-09-29T11:52:50Z</time>
      </trkpt>
      <trkpt lat="44.42373" lon="5.24647">
        <ele>675</ele>
        <time>2022-09-29T11:52:51Z</time>
      </trkpt>
      <trkpt lat="44.42373" lon="5.24646">
        <ele>675</ele>
        <time>2022-09-29T11:52:52Z</time>
      </trkpt>
      <trkpt lat="44.42372" lon="5.24644">
        <ele>675</ele>
        <time>2022-09-29T11:52:53Z</time>
      </trkpt>
      <trkpt lat="44.42372" lon="5.24643">
        <ele>675</ele>
        <time>2022-09-29T11:52:54Z</time>
      </trkpt>
      <trkpt lat="44.42372" lon="5.24641">
        <ele>675</ele>
        <time>2022-09-29T11:52:55Z</time>
      </trkpt>
      <trkpt lat="44.42371" lon="5.2464">
        <ele>675</ele>
        <time>2022-09-29T11:52:56Z</time>
      </trkpt>
      <trkpt lat="44.42371" lon="5.24638">
        <ele>675</ele>
        <time>2022-09-29T11:52:57Z</time>
      </trkpt>
      <trkpt lat="44.42371" lon="5.24637">
        <ele>675</ele>
        <time>2022-09-29T11:52:58Z</time>
      </trkpt>
      <trkpt lat="44.4237" lon="5.24636">
        <ele>674</ele>
        <time>2022-09-29T11:52:59Z</time>
      </trkpt>
      <trkpt lat="44.4237" lon="5.24634">
        <ele>674</ele>
        <time>2022-09-29T11:53:00Z</time>
      </trkpt>
      <trkpt lat="44.42369" lon="5.24633">
        <ele>674</ele>
        <time>2022-09-29T11:53:01Z</time>
      </trkpt>
      <trkpt lat="44.42369" lon="5.24632">
        <ele>674</ele>
        <time>2022-09-29T11:53:02Z</time>
      </trkpt>
      <trkpt lat="44.42368" lon="5.24631">
        <ele>674</ele>
        <time>2022-09-29T11:53:03Z</time>
      </trkpt>
      <trkpt lat="44.42367" lon="5.2463">
        <ele>674</ele>
        <time>2022-09-29T11:53:04Z</time>
      </trkpt>
      <trkpt lat="44.42367" lon="5.24629">
        <ele>674</ele>
        <time>2022-09-29T11:53:05Z</time>
      </trkpt>
      <trkpt lat="44.42366" lon="5.24628">
        <ele>674</ele>
        <time>2022-09-29T11:53:06Z</time>
      </trkpt>
      <trkpt lat="44.42366" lon="5.24627">
        <ele>674</ele>
        <time>2022-09-29T11:53:07Z</time>
      </trkpt>
      <trkpt lat="44.42365" lon="5.24626">
        <ele>674</ele>
        <time>2022-09-29T11:53:08Z</time>
      </trkpt>
      <trkpt lat="44.42365" lon="5.24625">
        <ele>673</ele>
        <time>2022-09-29T11:53:09Z</time>
      </trkpt>
      <trkpt lat="44.42364" lon="5.24624">
        <ele>673</ele>
        <time>2022-09-29T11:53:10Z</time>
      </trkpt>
      <trkpt lat="44.42363" lon="5.24623">
        <ele>673</ele>
        <time>2022-09-29T11:53:11Z</time>
      </trkpt>
      <trkpt lat="44.42363" lon="5.24622">
        <ele>673</ele>
        <time>2022-09-29T11:53:12Z</time>
      </trkpt>
      <trkpt lat="44.42362" lon="5.2462">
        <ele>673</ele>
        <time>2022-09-29T11:53:13Z</time>
      </trkpt>
      <trkpt lat="44.42362" lon="5.24619">
        <ele>673</ele>
        <time>2022-09-29T11:53:14Z</time>
      </trkpt>
      <trkpt lat="44.42361" lon="5.24618">
        <ele>673</ele>
        <time>2022-09-29T11:53:15Z</time>
      </trkpt>
      <trkpt lat="44.42361" lon="5.24617">
        <ele>673</ele>
        <time>2022-09-29T11:53:16Z</time>
      </trkpt>
      <trkpt lat="44.42361" lon="5.24615">
        <ele>673</ele>
        <time>2022-09-29T11:53:17Z</time>
      </trkpt>
      <trkpt lat="44.4236" lon="5.24614">
        <ele>673</ele>
        <time>2022-09-29T11:53:18Z</time>
      </trkpt>
      <trkpt lat="44.42359" lon="5.24613">
        <ele>672</ele>
        <time>2022-09-29T11:53:19Z</time>
      </trkpt>
      <trkpt lat="44.42359" lon="5.24612">
        <ele>672</ele>
        <time>2022-09-29T11:53:20Z</time>
      </trkpt>
      <trkpt lat="44.42358" lon="5.24611">
        <ele>672</ele>
        <time>2022-09-29T11:53:21Z</time>
      </trkpt>
      <trkpt lat="44.42357" lon="5.2461">
        <ele>672</ele>
        <time>2022-09-29T11:53:22Z</time>
      </trkpt>
      <trkpt lat="44.42356" lon="5.24609">
        <ele>672</ele>
        <time>2022-09-29T11:53:23Z</time>
      </trkpt>
      <trkpt lat="44.42356" lon="5.24607">
        <ele>672</ele>
        <time>2022-09-29T11:53:24Z</time>
      </trkpt>
      <trkpt lat="44.42355" lon="5.24606">
        <ele>672</ele>
        <time>2022-09-29T11:53:25Z</time>
      </trkpt>
      <trkpt lat="44.42355" lon="5.24605">
        <ele>672</ele>
        <time>2022-09-29T11:53:26Z</time>
      </trkpt>
      <trkpt lat="44.42354" lon="5.24604">
        <ele>672</ele>
        <time>2022-09-29T11:53:27Z</time>
      </trkpt>
      <trkpt lat="44.42354" lon="5.24602">
        <ele>672</ele>
        <time>2022-09-29T11:53:28Z</time>
      </trkpt>
      <trkpt lat="44.42354" lon="5.24601">
        <ele>671</ele>
        <time>2022-09-29T11:53:29Z</time>
      </trkpt>
      <trkpt lat="44.42354" lon="5.246">
        <ele>671</ele>
        <time>2022-09-29T11:53:30Z</time>
      </trkpt>
      <trkpt lat="44.42353" lon="5.24599">
        <ele>671</ele>
        <time>2022-09-29T11:53:31Z</time>
      </trkpt>
      <trkpt lat="44.42353" lon="5.24598">
        <ele>671</ele>
        <time>2022-09-29T11:53:32Z</time>
      </trkpt>
      <trkpt lat="44.42353" lon="5.24597">
        <ele>671</ele>
        <time>2022-09-29T11:53:33Z</time>
      </trkpt>
      <trkpt lat="44.42352" lon="5.24596">
        <ele>671</ele>
        <time>2022-09-29T11:53:34Z</time>
      </trkpt>
      <trkpt lat="44.42352" lon="5.24595">
        <ele>671</ele>
        <time>2022-09-29T11:53:35Z</time>
      </trkpt>
      <trkpt lat="44.42351" lon="5.24594">
        <ele>671</ele>
        <time>2022-09-29T11:53:36Z</time>
      </trkpt>
      <trkpt lat="44.42351" lon="5.24593">
        <ele>671</ele>
        <time>2022-09-29T11:53:37Z</time>
      </trkpt>
      <trkpt lat="44.42351" lon="5.24591">
        <ele>671</ele>
        <time>2022-09-29T11:53:38Z</time>
      </trkpt>
      <trkpt lat="44.42351" lon="5.2459">
        <ele>670</ele>
        <time>2022-09-29T11:53:39Z</time>
      </trkpt>
      <trkpt lat="44.4235" lon="5.24589">
        <ele>670</ele>
        <time>2022-09-29T11:53:40Z</time>
      </trkpt>
      <trkpt lat="44.4235" lon="5.24588">
        <ele>670</ele>
        <time>2022-09-29T11:53:41Z</time>
      </trkpt>
      <trkpt lat="44.42349" lon="5.24586">
        <ele>670</ele>
        <time>2022-09-29T11:53:42Z</time>
      </trkpt>
      <trkpt lat="44.42349" lon="5.24585">
        <ele>670</ele>
        <time>2022-09-29T11:53:43Z</time>
      </trkpt>
      <trkpt lat="44.42348" lon="5.24584">
        <ele>669</ele>
        <time>2022-09-29T11:53:44Z</time>
      </trkpt>
      <trkpt lat="44.42347" lon="5.24582">
        <ele>669</ele>
        <time>2022-09-29T11:53:45Z</time>
      </trkpt>
      <trkpt lat="44.42346" lon="5.24581">
        <ele>669</ele>
        <time>2022-09-29T11:53:46Z</time>
      </trkpt>
      <trkpt lat="44.42346" lon="5.2458">
        <ele>669</ele>
        <time>2022-09-29T11:53:47Z</time>
      </trkpt>
      <trkpt lat="44.42345" lon="5.24579">
        <ele>669</ele>
        <time>2022-09-29T11:53:48Z</time>
      </trkpt>
      <trkpt lat="44.42344" lon="5.24578">
        <ele>669</ele>
        <time>2022-09-29T11:53:49Z</time>
      </trkpt>
      <trkpt lat="44.42343" lon="5.24577">
        <ele>669</ele>
        <time>2022-09-29T11:53:50Z</time>
      </trkpt>
      <trkpt lat="44.42343" lon="5.24576">
        <ele>669</ele>
        <time>2022-09-29T11:53:51Z</time>
      </trkpt>
      <trkpt lat="44.42342" lon="5.24575">
        <ele>669</ele>
        <time>2022-09-29T11:53:52Z</time>
      </trkpt>
      <trkpt lat="44.42341" lon="5.24573">
        <ele>669</ele>
        <time>2022-09-29T11:53:53Z</time>
      </trkpt>
      <trkpt lat="44.4234" lon="5.24572">
        <ele>668</ele>
        <time>2022-09-29T11:53:54Z</time>
      </trkpt>
      <trkpt lat="44.4234" lon="5.2457">
        <ele>668</ele>
        <time>2022-09-29T11:53:55Z</time>
      </trkpt>
      <trkpt lat="44.42339" lon="5.24569">
        <ele>668</ele>
        <time>2022-09-29T11:53:56Z</time>
      </trkpt>
      <trkpt lat="44.42338" lon="5.24568">
        <ele>668</ele>
        <time>2022-09-29T11:53:57Z</time>
      </trkpt>
      <trkpt lat="44.42338" lon="5.24566">
        <ele>668</ele>
        <time>2022-09-29T11:53:58Z</time>
      </trkpt>
      <trkpt lat="44.42337" lon="5.24565">
        <ele>668</ele>
        <time>2022-09-29T11:53:59Z</time>
      </trkpt>
      <trkpt lat="44.42337" lon="5.24563">
        <ele>668</ele>
        <time>2022-09-29T11:54:00Z</time>
      </trkpt>
      <trkpt lat="44.42336" lon="5.24562">
        <ele>668</ele>
        <time>2022-09-29T11:54:01Z</time>
      </trkpt>
      <trkpt lat="44.42336" lon="5.24561">
        <ele>668</ele>
        <time>2022-09-29T11:54:02Z</time>
      </trkpt>
      <trkpt lat="44.42335" lon="5.24559">
        <ele>668</ele>
        <time>2022-09-29T11:54:03Z</time>
      </trkpt>
      <trkpt lat="44.42335" lon="5.24558">
        <ele>667</ele>
        <time>2022-09-29T11:54:04Z</time>
      </trkpt>
      <trkpt lat="44.42334" lon="5.24557">
        <ele>667</ele>
        <time>2022-09-29T11:54:05Z</time>
      </trkpt>
      <trkpt lat="44.42333" lon="5.24556">
        <ele>667</ele>
        <time>2022-09-29T11:54:06Z</time>
      </trkpt>
      <trkpt lat="44.42332" lon="5.24555">
        <ele>667</ele>
        <time>2022-09-29T11:54:07Z</time>
      </trkpt>
      <trkpt lat="44.42332" lon="5.24554">
        <ele>667</ele>
        <time>2022-09-29T11:54:08Z</time>
      </trkpt>
      <trkpt lat="44.42331" lon="5.24553">
        <ele>667</ele>
        <time>2022-09-29T11:54:09Z</time>
      </trkpt>
      <trkpt lat="44.4233" lon="5.24552">
        <ele>667</ele>
        <time>2022-09-29T11:54:10Z</time>
      </trkpt>
      <trkpt lat="44.4233" lon="5.24552">
        <ele>667</ele>
        <time>2022-09-29T11:54:11Z</time>
      </trkpt>
      <trkpt lat="44.42329" lon="5.24551">
        <ele>667</ele>
        <time>2022-09-29T11:54:12Z</time>
      </trkpt>
      <trkpt lat="44.42328" lon="5.2455">
        <ele>667</ele>
        <time>2022-09-29T11:54:13Z</time>
      </trkpt>
      <trkpt lat="44.42327" lon="5.24549">
        <ele>666</ele>
        <time>2022-09-29T11:54:14Z</time>
      </trkpt>
      <trkpt lat="44.42327" lon="5.24548">
        <ele>666</ele>
        <time>2022-09-29T11:54:15Z</time>
      </trkpt>
      <trkpt lat="44.42326" lon="5.24547">
        <ele>666</ele>
        <time>2022-09-29T11:54:16Z</time>
      </trkpt>
      <trkpt lat="44.42325" lon="5.24546">
        <ele>666</ele>
        <time>2022-09-29T11:54:17Z</time>
      </trkpt>
      <trkpt lat="44.42325" lon="5.24545">
        <ele>666</ele>
        <time>2022-09-29T11:54:18Z</time>
      </trkpt>
      <trkpt lat="44.42325" lon="5.24544">
        <ele>665</ele>
        <time>2022-09-29T11:54:19Z</time>
      </trkpt>
      <trkpt lat="44.42324" lon="5.24543">
        <ele>665</ele>
        <time>2022-09-29T11:54:20Z</time>
      </trkpt>
      <trkpt lat="44.42324" lon="5.24542">
        <ele>665</ele>
        <time>2022-09-29T11:54:21Z</time>
      </trkpt>
      <trkpt lat="44.42323" lon="5.24541">
        <ele>665</ele>
        <time>2022-09-29T11:54:22Z</time>
      </trkpt>
      <trkpt lat="44.42323" lon="5.24541">
        <ele>665</ele>
        <time>2022-09-29T11:54:23Z</time>
      </trkpt>
      <trkpt lat="44.42322" lon="5.24541">
        <ele>665</ele>
        <time>2022-09-29T11:54:24Z</time>
      </trkpt>
      <trkpt lat="44.42321" lon="5.2454">
        <ele>665</ele>
        <time>2022-09-29T11:54:25Z</time>
      </trkpt>
      <trkpt lat="44.4232" lon="5.2454">
        <ele>665</ele>
        <time>2022-09-29T11:54:26Z</time>
      </trkpt>
      <trkpt lat="44.42319" lon="5.2454">
        <ele>665</ele>
        <time>2022-09-29T11:54:27Z</time>
      </trkpt>
      <trkpt lat="44.42318" lon="5.24539">
        <ele>665</ele>
        <time>2022-09-29T11:54:28Z</time>
      </trkpt>
      <trkpt lat="44.42317" lon="5.24539">
        <ele>664</ele>
        <time>2022-09-29T11:54:29Z</time>
      </trkpt>
      <trkpt lat="44.42316" lon="5.24538">
        <ele>664</ele>
        <time>2022-09-29T11:54:30Z</time>
      </trkpt>
      <trkpt lat="44.42316" lon="5.24538">
        <ele>664</ele>
        <time>2022-09-29T11:54:31Z</time>
      </trkpt>
      <trkpt lat="44.42315" lon="5.24537">
        <ele>664</ele>
        <time>2022-09-29T11:54:32Z</time>
      </trkpt>
      <trkpt lat="44.42314" lon="5.24536">
        <ele>664</ele>
        <time>2022-09-29T11:54:33Z</time>
      </trkpt>
      <trkpt lat="44.42313" lon="5.24535">
        <ele>664</ele>
        <time>2022-09-29T11:54:34Z</time>
      </trkpt>
      <trkpt lat="44.42312" lon="5.24534">
        <ele>664</ele>
        <time>2022-09-29T11:54:35Z</time>
      </trkpt>
      <trkpt lat="44.42312" lon="5.24534">
        <ele>664</ele>
        <time>2022-09-29T11:54:36Z</time>
      </trkpt>
      <trkpt lat="44.42311" lon="5.24533">
        <ele>664</ele>
        <time>2022-09-29T11:54:37Z</time>
      </trkpt>
      <trkpt lat="44.4231" lon="5.24533">
        <ele>664</ele>
        <time>2022-09-29T11:54:38Z</time>
      </trkpt>
      <trkpt lat="44.42309" lon="5.24532">
        <ele>663</ele>
        <time>2022-09-29T11:54:39Z</time>
      </trkpt>
      <trkpt lat="44.42309" lon="5.24532">
        <ele>663</ele>
        <time>2022-09-29T11:54:40Z</time>
      </trkpt>
      <trkpt lat="44.42308" lon="5.24531">
        <ele>663</ele>
        <time>2022-09-29T11:54:41Z</time>
      </trkpt>
      <trkpt lat="44.42307" lon="5.2453">
        <ele>663</ele>
        <time>2022-09-29T11:54:42Z</time>
      </trkpt>
      <trkpt lat="44.42306" lon="5.24529">
        <ele>663</ele>
        <time>2022-09-29T11:54:43Z</time>
      </trkpt>
      <trkpt lat="44.42305" lon="5.24528">
        <ele>662</ele>
        <time>2022-09-29T11:54:44Z</time>
      </trkpt>
      <trkpt lat="44.42305" lon="5.24527">
        <ele>662</ele>
        <time>2022-09-29T11:54:45Z</time>
      </trkpt>
      <trkpt lat="44.42304" lon="5.24525">
        <ele>662</ele>
        <time>2022-09-29T11:54:46Z</time>
      </trkpt>
      <trkpt lat="44.42303" lon="5.24523">
        <ele>662</ele>
        <time>2022-09-29T11:54:47Z</time>
      </trkpt>
      <trkpt lat="44.42303" lon="5.24522">
        <ele>662</ele>
        <time>2022-09-29T11:54:48Z</time>
      </trkpt>
      <trkpt lat="44.42302" lon="5.2452">
        <ele>662</ele>
        <time>2022-09-29T11:54:49Z</time>
      </trkpt>
      <trkpt lat="44.42302" lon="5.24518">
        <ele>662</ele>
        <time>2022-09-29T11:54:50Z</time>
      </trkpt>
      <trkpt lat="44.42302" lon="5.24516">
        <ele>662</ele>
        <time>2022-09-29T11:54:51Z</time>
      </trkpt>
      <trkpt lat="44.42302" lon="5.24514">
        <ele>662</ele>
        <time>2022-09-29T11:54:52Z</time>
      </trkpt>
      <trkpt lat="44.42302" lon="5.24513">
        <ele>662</ele>
        <time>2022-09-29T11:54:53Z</time>
      </trkpt>
      <trkpt lat="44.42302" lon="5.24511">
        <ele>662</ele>
        <time>2022-09-29T11:54:54Z</time>
      </trkpt>
      <trkpt lat="44.42301" lon="5.2451">
        <ele>662</ele>
        <time>2022-09-29T11:54:55Z</time>
      </trkpt>
      <trkpt lat="44.42302" lon="5.24508">
        <ele>662</ele>
        <time>2022-09-29T11:54:56Z</time>
      </trkpt>
      <trkpt lat="44.42302" lon="5.24507">
        <ele>662</ele>
        <time>2022-09-29T11:54:57Z</time>
      </trkpt>
      <trkpt lat="44.42302" lon="5.24505">
        <ele>662</ele>
        <time>2022-09-29T11:54:58Z</time>
      </trkpt>
      <trkpt lat="44.42302" lon="5.24504">
        <ele>661</ele>
        <time>2022-09-29T11:54:59Z</time>
      </trkpt>
      <trkpt lat="44.42301" lon="5.24503">
        <ele>661</ele>
        <time>2022-09-29T11:55:00Z</time>
      </trkpt>
      <trkpt lat="44.42301" lon="5.24501">
        <ele>661</ele>
        <time>2022-09-29T11:55:01Z</time>
      </trkpt>
      <trkpt lat="44.42301" lon="5.245">
        <ele>661</ele>
        <time>2022-09-29T11:55:02Z</time>
      </trkpt>
      <trkpt lat="44.423" lon="5.24499">
        <ele>661</ele>
        <time>2022-09-29T11:55:03Z</time>
      </trkpt>
      <trkpt lat="44.42299" lon="5.24497">
        <ele>660</ele>
        <time>2022-09-29T11:55:04Z</time>
      </trkpt>
      <trkpt lat="44.42299" lon="5.24496">
        <ele>660</ele>
        <time>2022-09-29T11:55:05Z</time>
      </trkpt>
      <trkpt lat="44.42298" lon="5.24494">
        <ele>660</ele>
        <time>2022-09-29T11:55:06Z</time>
      </trkpt>
      <trkpt lat="44.42298" lon="5.24493">
        <ele>660</ele>
        <time>2022-09-29T11:55:07Z</time>
      </trkpt>
      <trkpt lat="44.42298" lon="5.24491">
        <ele>660</ele>
        <time>2022-09-29T11:55:08Z</time>
      </trkpt>
      <trkpt lat="44.42298" lon="5.2449">
        <ele>659</ele>
        <time>2022-09-29T11:55:09Z</time>
      </trkpt>
      <trkpt lat="44.42298" lon="5.24489">
        <ele>659</ele>
        <time>2022-09-29T11:55:10Z</time>
      </trkpt>
      <trkpt lat="44.42297" lon="5.24487">
        <ele>659</ele>
        <time>2022-09-29T11:55:11Z</time>
      </trkpt>
      <trkpt lat="44.42297" lon="5.24487">
        <ele>659</ele>
        <time>2022-09-29T11:55:12Z</time>
      </trkpt>
      <trkpt lat="44.42297" lon="5.24486">
        <ele>659</ele>
        <time>2022-09-29T11:55:13Z</time>
      </trkpt>
      <trkpt lat="44.42296" lon="5.24485">
        <ele>658</ele>
        <time>2022-09-29T11:55:14Z</time>
      </trkpt>
      <trkpt lat="44.42296" lon="5.24484">
        <ele>658</ele>
        <time>2022-09-29T11:55:15Z</time>
      </trkpt>
      <trkpt lat="44.42295" lon="5.24483">
        <ele>658</ele>
        <time>2022-09-29T11:55:16Z</time>
      </trkpt>
      <trkpt lat="44.42295" lon="5.24482">
        <ele>658</ele>
        <time>2022-09-29T11:55:17Z</time>
      </trkpt>
      <trkpt lat="44.42295" lon="5.24481">
        <ele>658</ele>
        <time>2022-09-29T11:55:18Z</time>
      </trkpt>
      <trkpt lat="44.42294" lon="5.2448">
        <ele>657</ele>
        <time>2022-09-29T11:55:19Z</time>
      </trkpt>
      <trkpt lat="44.42294" lon="5.24479">
        <ele>657</ele>
        <time>2022-09-29T11:55:20Z</time>
      </trkpt>
      <trkpt lat="44.42293" lon="5.24478">
        <ele>657</ele>
        <time>2022-09-29T11:55:21Z</time>
      </trkpt>
      <trkpt lat="44.42293" lon="5.24477">
        <ele>657</ele>
        <time>2022-09-29T11:55:22Z</time>
      </trkpt>
      <trkpt lat="44.42292" lon="5.24476">
        <ele>657</ele>
        <time>2022-09-29T11:55:23Z</time>
      </trkpt>
      <trkpt lat="44.42291" lon="5.24475">
        <ele>656</ele>
        <time>2022-09-29T11:55:24Z</time>
      </trkpt>
      <trkpt lat="44.42291" lon="5.24474">
        <ele>656</ele>
        <time>2022-09-29T11:55:25Z</time>
      </trkpt>
      <trkpt lat="44.42291" lon="5.24474">
        <ele>656</ele>
        <time>2022-09-29T11:55:26Z</time>
      </trkpt>
      <trkpt lat="44.42291" lon="5.24473">
        <ele>656</ele>
        <time>2022-09-29T11:55:27Z</time>
      </trkpt>
      <trkpt lat="44.4229" lon="5.24472">
        <ele>656</ele>
        <time>2022-09-29T11:55:28Z</time>
      </trkpt>
      <trkpt lat="44.4229" lon="5.24471">
        <ele>655</ele>
        <time>2022-09-29T11:55:29Z</time>
      </trkpt>
      <trkpt lat="44.4229" lon="5.2447">
        <ele>655</ele>
        <time>2022-09-29T11:55:30Z</time>
      </trkpt>
      <trkpt lat="44.4229" lon="5.24469">
        <ele>655</ele>
        <time>2022-09-29T11:55:31Z</time>
      </trkpt>
      <trkpt lat="44.42289" lon="5.24467">
        <ele>655</ele>
        <time>2022-09-29T11:55:32Z</time>
      </trkpt>
      <trkpt lat="44.42289" lon="5.24466">
        <ele>655</ele>
        <time>2022-09-29T11:55:33Z</time>
      </trkpt>
      <trkpt lat="44.42289" lon="5.24465">
        <ele>654</ele>
        <time>2022-09-29T11:55:34Z</time>
      </trkpt>
      <trkpt lat="44.42288" lon="5.24464">
        <ele>654</ele>
        <time>2022-09-29T11:55:35Z</time>
      </trkpt>
      <trkpt lat="44.42288" lon="5.24463">
        <ele>654</ele>
        <time>2022-09-29T11:55:36Z</time>
      </trkpt>
      <trkpt lat="44.42288" lon="5.24461">
        <ele>654</ele>
        <time>2022-09-29T11:55:37Z</time>
      </trkpt>
      <trkpt lat="44.42288" lon="5.2446">
        <ele>654</ele>
        <time>2022-09-29T11:55:38Z</time>
      </trkpt>
      <trkpt lat="44.42287" lon="5.24459">
        <ele>653</ele>
        <time>2022-09-29T11:55:39Z</time>
      </trkpt>
      <trkpt lat="44.42287" lon="5.24458">
        <ele>653</ele>
        <time>2022-09-29T11:55:40Z</time>
      </trkpt>
      <trkpt lat="44.42287" lon="5.24457">
        <ele>653</ele>
        <time>2022-09-29T11:55:41Z</time>
      </trkpt>
      <trkpt lat="44.42286" lon="5.24456">
        <ele>653</ele>
        <time>2022-09-29T11:55:42Z</time>
      </trkpt>
      <trkpt lat="44.42286" lon="5.24455">
        <ele>653</ele>
        <time>2022-09-29T11:55:43Z</time>
      </trkpt>
      <trkpt lat="44.42285" lon="5.24454">
        <ele>652</ele>
        <time>2022-09-29T11:55:44Z</time>
      </trkpt>
      <trkpt lat="44.42285" lon="5.24453">
        <ele>652</ele>
        <time>2022-09-29T11:55:45Z</time>
      </trkpt>
      <trkpt lat="44.42284" lon="5.24452">
        <ele>652</ele>
        <time>2022-09-29T11:55:46Z</time>
      </trkpt>
      <trkpt lat="44.42283" lon="5.24451">
        <ele>652</ele>
        <time>2022-09-29T11:55:47Z</time>
      </trkpt>
      <trkpt lat="44.42283" lon="5.2445">
        <ele>652</ele>
        <time>2022-09-29T11:55:48Z</time>
      </trkpt>
      <trkpt lat="44.42282" lon="5.24449">
        <ele>651</ele>
        <time>2022-09-29T11:55:49Z</time>
      </trkpt>
      <trkpt lat="44.42282" lon="5.24448">
        <ele>651</ele>
        <time>2022-09-29T11:55:50Z</time>
      </trkpt>
      <trkpt lat="44.42281" lon="5.24447">
        <ele>651</ele>
        <time>2022-09-29T11:55:51Z</time>
      </trkpt>
      <trkpt lat="44.42281" lon="5.24446">
        <ele>651</ele>
        <time>2022-09-29T11:55:52Z</time>
      </trkpt>
      <trkpt lat="44.42281" lon="5.24443">
        <ele>651</ele>
        <time>2022-09-29T11:55:53Z</time>
      </trkpt>
      <trkpt lat="44.4228" lon="5.24441">
        <ele>650</ele>
        <time>2022-09-29T11:55:54Z</time>
      </trkpt>
      <trkpt lat="44.4228" lon="5.24438">
        <ele>650</ele>
        <time>2022-09-29T11:55:55Z</time>
      </trkpt>
      <trkpt lat="44.4228" lon="5.24435">
        <ele>650</ele>
        <time>2022-09-29T11:55:56Z</time>
      </trkpt>
      <trkpt lat="44.4228" lon="5.24433">
        <ele>650</ele>
        <time>2022-09-29T11:55:57Z</time>
      </trkpt>
      <trkpt lat="44.42279" lon="5.24431">
        <ele>650</ele>
        <time>2022-09-29T11:55:58Z</time>
      </trkpt>
      <trkpt lat="44.42279" lon="5.2443">
        <ele>649</ele>
        <time>2022-09-29T11:55:59Z</time>
      </trkpt>
      <trkpt lat="44.42279" lon="5.24428">
        <ele>649</ele>
        <time>2022-09-29T11:56:00Z</time>
      </trkpt>
      <trkpt lat="44.42279" lon="5.24427">
        <ele>649</ele>
        <time>2022-09-29T11:56:01Z</time>
      </trkpt>
      <trkpt lat="44.42279" lon="5.24426">
        <ele>649</ele>
        <time>2022-09-29T11:56:02Z</time>
      </trkpt>
      <trkpt lat="44.42278" lon="5.24425">
        <ele>649</ele>
        <time>2022-09-29T11:56:03Z</time>
      </trkpt>
      <trkpt lat="44.42278" lon="5.24424">
        <ele>648</ele>
        <time>2022-09-29T11:56:04Z</time>
      </trkpt>
      <trkpt lat="44.42277" lon="5.24423">
        <ele>648</ele>
        <time>2022-09-29T11:56:05Z</time>
      </trkpt>
      <trkpt lat="44.42277" lon="5.24422">
        <ele>648</ele>
        <time>2022-09-29T11:56:06Z</time>
      </trkpt>
      <trkpt lat="44.42276" lon="5.24421">
        <ele>648</ele>
        <time>2022-09-29T11:56:07Z</time>
      </trkpt>
      <trkpt lat="44.42276" lon="5.2442">
        <ele>648</ele>
        <time>2022-09-29T11:56:08Z</time>
      </trkpt>
      <trkpt lat="44.42275" lon="5.24419">
        <ele>647</ele>
        <time>2022-09-29T11:56:09Z</time>
      </trkpt>
      <trkpt lat="44.42275" lon="5.24419">
        <ele>647</ele>
        <time>2022-09-29T11:56:10Z</time>
      </trkpt>
      <trkpt lat="44.42275" lon="5.24418">
        <ele>647</ele>
        <time>2022-09-29T11:56:11Z</time>
      </trkpt>
      <trkpt lat="44.42275" lon="5.24418">
        <ele>647</ele>
        <time>2022-09-29T11:56:12Z</time>
      </trkpt>
      <trkpt lat="44.42275" lon="5.24417">
        <ele>647</ele>
        <time>2022-09-29T11:56:13Z</time>
      </trkpt>
      <trkpt lat="44.42274" lon="5.24417">
        <ele>646</ele>
        <time>2022-09-29T11:56:14Z</time>
      </trkpt>
      <trkpt lat="44.42274" lon="5.24416">
        <ele>646</ele>
        <time>2022-09-29T11:56:15Z</time>
      </trkpt>
      <trkpt lat="44.42273" lon="5.24415">
        <ele>646</ele>
        <time>2022-09-29T11:56:16Z</time>
      </trkpt>
      <trkpt lat="44.42273" lon="5.24415">
        <ele>646</ele>
        <time>2022-09-29T11:56:17Z</time>
      </trkpt>
      <trkpt lat="44.42272" lon="5.24414">
        <ele>646</ele>
        <time>2022-09-29T11:56:18Z</time>
      </trkpt>
      <trkpt lat="44.42271" lon="5.24413">
        <ele>645</ele>
        <time>2022-09-29T11:56:19Z</time>
      </trkpt>
      <trkpt lat="44.42271" lon="5.24412">
        <ele>645</ele>
        <time>2022-09-29T11:56:20Z</time>
      </trkpt>
      <trkpt lat="44.42271" lon="5.24411">
        <ele>645</ele>
        <time>2022-09-29T11:56:21Z</time>
      </trkpt>
      <trkpt lat="44.4227" lon="5.2441">
        <ele>645</ele>
        <time>2022-09-29T11:56:22Z</time>
      </trkpt>
      <trkpt lat="44.4227" lon="5.24409">
        <ele>645</ele>
        <time>2022-09-29T11:56:23Z</time>
      </trkpt>
      <trkpt lat="44.4227" lon="5.24409">
        <ele>644</ele>
        <time>2022-09-29T11:56:24Z</time>
      </trkpt>
      <trkpt lat="44.4227" lon="5.24409">
        <ele>644</ele>
        <time>2022-09-29T11:56:25Z</time>
      </trkpt>
      <trkpt lat="44.4227" lon="5.24409">
        <ele>644</ele>
        <time>2022-09-29T11:56:26Z</time>
      </trkpt>
      <trkpt lat="44.42269" lon="5.24408">
        <ele>644</ele>
        <time>2022-09-29T11:56:27Z</time>
      </trkpt>
      <trkpt lat="44.42269" lon="5.24407">
        <ele>644</ele>
        <time>2022-09-29T11:56:28Z</time>
      </trkpt>
      <trkpt lat="44.42269" lon="5.24407">
        <ele>644</ele>
        <time>2022-09-29T11:56:29Z</time>
      </trkpt>
      <trkpt lat="44.42268" lon="5.24406">
        <ele>644</ele>
        <time>2022-09-29T11:56:30Z</time>
      </trkpt>
      <trkpt lat="44.42268" lon="5.24405">
        <ele>644</ele>
        <time>2022-09-29T11:56:31Z</time>
      </trkpt>
      <trkpt lat="44.42268" lon="5.24404">
        <ele>644</ele>
        <time>2022-09-29T11:56:32Z</time>
      </trkpt>
      <trkpt lat="44.42267" lon="5.24402">
        <ele>644</ele>
        <time>2022-09-29T11:56:33Z</time>
      </trkpt>
      <trkpt lat="44.42267" lon="5.244">
        <ele>643</ele>
        <time>2022-09-29T11:56:34Z</time>
      </trkpt>
      <trkpt lat="44.42267" lon="5.24399">
        <ele>643</ele>
        <time>2022-09-29T11:56:35Z</time>
      </trkpt>
      <trkpt lat="44.42266" lon="5.24398">
        <ele>643</ele>
        <time>2022-09-29T11:56:36Z</time>
      </trkpt>
      <trkpt lat="44.42266" lon="5.24397">
        <ele>643</ele>
        <time>2022-09-29T11:56:37Z</time>
      </trkpt>
      <trkpt lat="44.42265" lon="5.24396">
        <ele>643</ele>
        <time>2022-09-29T11:56:38Z</time>
      </trkpt>
      <trkpt lat="44.42265" lon="5.24394">
        <ele>642</ele>
        <time>2022-09-29T11:56:39Z</time>
      </trkpt>
      <trkpt lat="44.42264" lon="5.24393">
        <ele>642</ele>
        <time>2022-09-29T11:56:40Z</time>
      </trkpt>
      <trkpt lat="44.42263" lon="5.24391">
        <ele>642</ele>
        <time>2022-09-29T11:56:41Z</time>
      </trkpt>
      <trkpt lat="44.42263" lon="5.24389">
        <ele>642</ele>
        <time>2022-09-29T11:56:42Z</time>
      </trkpt>
      <trkpt lat="44.42262" lon="5.24387">
        <ele>642</ele>
        <time>2022-09-29T11:56:43Z</time>
      </trkpt>
      <trkpt lat="44.42262" lon="5.24386">
        <ele>641</ele>
        <time>2022-09-29T11:56:44Z</time>
      </trkpt>
      <trkpt lat="44.42261" lon="5.24384">
        <ele>641</ele>
        <time>2022-09-29T11:56:45Z</time>
      </trkpt>
      <trkpt lat="44.42261" lon="5.24382">
        <ele>641</ele>
        <time>2022-09-29T11:56:46Z</time>
      </trkpt>
      <trkpt lat="44.42261" lon="5.24381">
        <ele>641</ele>
        <time>2022-09-29T11:56:47Z</time>
      </trkpt>
      <trkpt lat="44.4226" lon="5.2438">
        <ele>641</ele>
        <time>2022-09-29T11:56:48Z</time>
      </trkpt>
      <trkpt lat="44.4226" lon="5.24379">
        <ele>640</ele>
        <time>2022-09-29T11:56:49Z</time>
      </trkpt>
      <trkpt lat="44.4226" lon="5.24377">
        <ele>640</ele>
        <time>2022-09-29T11:56:50Z</time>
      </trkpt>
      <trkpt lat="44.42259" lon="5.24376">
        <ele>640</ele>
        <time>2022-09-29T11:56:51Z</time>
      </trkpt>
      <trkpt lat="44.42259" lon="5.24375">
        <ele>640</ele>
        <time>2022-09-29T11:56:52Z</time>
      </trkpt>
      <trkpt lat="44.42258" lon="5.24374">
        <ele>640</ele>
        <time>2022-09-29T11:56:53Z</time>
      </trkpt>
      <trkpt lat="44.42258" lon="5.24373">
        <ele>639</ele>
        <time>2022-09-29T11:56:54Z</time>
      </trkpt>
      <trkpt lat="44.42257" lon="5.24371">
        <ele>639</ele>
        <time>2022-09-29T11:56:55Z</time>
      </trkpt>
      <trkpt lat="44.42257" lon="5.2437">
        <ele>639</ele>
        <time>2022-09-29T11:56:56Z</time>
      </trkpt>
      <trkpt lat="44.42256" lon="5.24369">
        <ele>639</ele>
        <time>2022-09-29T11:56:57Z</time>
      </trkpt>
      <trkpt lat="44.42255" lon="5.24368">
        <ele>639</ele>
        <time>2022-09-29T11:56:58Z</time>
      </trkpt>
      <trkpt lat="44.42255" lon="5.24367">
        <ele>638</ele>
        <time>2022-09-29T11:56:59Z</time>
      </trkpt>
      <trkpt lat="44.42255" lon="5.24366">
        <ele>638</ele>
        <time>2022-09-29T11:57:00Z</time>
      </trkpt>
      <trkpt lat="44.42254" lon="5.24365">
        <ele>638</ele>
        <time>2022-09-29T11:57:01Z</time>
      </trkpt>
      <trkpt lat="44.42254" lon="5.24363">
        <ele>638</ele>
        <time>2022-09-29T11:57:02Z</time>
      </trkpt>
      <trkpt lat="44.42254" lon="5.24361">
        <ele>638</ele>
        <time>2022-09-29T11:57:03Z</time>
      </trkpt>
      <trkpt lat="44.42254" lon="5.2436">
        <ele>637</ele>
        <time>2022-09-29T11:57:04Z</time>
      </trkpt>
      <trkpt lat="44.42254" lon="5.24359">
        <ele>637</ele>
        <time>2022-09-29T11:57:05Z</time>
      </trkpt>
      <trkpt lat="44.42254" lon="5.24358">
        <ele>637</ele>
        <time>2022-09-29T11:57:06Z</time>
      </trkpt>
      <trkpt lat="44.42254" lon="5.24357">
        <ele>637</ele>
        <time>2022-09-29T11:57:07Z</time>
      </trkpt>
      <trkpt lat="44.42254" lon="5.24356">
        <ele>637</ele>
        <time>2022-09-29T11:57:08Z</time>
      </trkpt>
      <trkpt lat="44.42254" lon="5.24355">
        <ele>636</ele>
        <time>2022-09-29T11:57:09Z</time>
      </trkpt>
      <trkpt lat="44.42254" lon="5.24354">
        <ele>636</ele>
        <time>2022-09-29T11:57:10Z</time>
      </trkpt>
      <trkpt lat="44.42254" lon="5.24354">
        <ele>636</ele>
        <time>2022-09-29T11:57:11Z</time>
      </trkpt>
      <trkpt lat="44.42254" lon="5.24353">
        <ele>636</ele>
        <time>2022-09-29T11:57:12Z</time>
      </trkpt>
      <trkpt lat="44.42254" lon="5.24352">
        <ele>636</ele>
        <time>2022-09-29T11:57:13Z</time>
      </trkpt>
      <trkpt lat="44.42254" lon="5.2435">
        <ele>635</ele>
        <time>2022-09-29T11:57:14Z</time>
      </trkpt>
      <trkpt lat="44.42254" lon="5.24349">
        <ele>635</ele>
        <time>2022-09-29T11:57:15Z</time>
      </trkpt>
      <trkpt lat="44.42254" lon="5.24348">
        <ele>635</ele>
        <time>2022-09-29T11:57:16Z</time>
      </trkpt>
      <trkpt lat="44.42254" lon="5.24346">
        <ele>635</ele>
        <time>2022-09-29T11:57:17Z</time>
      </trkpt>
      <trkpt lat="44.42254" lon="5.24345">
        <ele>635</ele>
        <time>2022-09-29T11:57:18Z</time>
      </trkpt>
      <trkpt lat="44.42254" lon="5.24344">
        <ele>634</ele>
        <time>2022-09-29T11:57:19Z</time>
      </trkpt>
      <trkpt lat="44.42255" lon="5.24342">
        <ele>634</ele>
        <time>2022-09-29T11:57:20Z</time>
      </trkpt>
      <trkpt lat="44.42255" lon="5.24341">
        <ele>634</ele>
        <time>2022-09-29T11:57:21Z</time>
      </trkpt>
      <trkpt lat="44.42256" lon="5.24339">
        <ele>634</ele>
        <time>2022-09-29T11:57:22Z</time>
      </trkpt>
      <trkpt lat="44.42256" lon="5.24338">
        <ele>634</ele>
        <time>2022-09-29T11:57:23Z</time>
      </trkpt>
      <trkpt lat="44.42257" lon="5.24337">
        <ele>634</ele>
        <time>2022-09-29T11:57:24Z</time>
      </trkpt>
      <trkpt lat="44.42257" lon="5.24335">
        <ele>634</ele>
        <time>2022-09-29T11:57:25Z</time>
      </trkpt>
      <trkpt lat="44.42257" lon="5.24334">
        <ele>634</ele>
        <time>2022-09-29T11:57:26Z</time>
      </trkpt>
      <trkpt lat="44.42257" lon="5.24333">
        <ele>634</ele>
        <time>2022-09-29T11:57:27Z</time>
      </trkpt>
      <trkpt lat="44.42258" lon="5.24331">
        <ele>634</ele>
        <time>2022-09-29T11:57:28Z</time>
      </trkpt>
      <trkpt lat="44.42258" lon="5.2433">
        <ele>633</ele>
        <time>2022-09-29T11:57:29Z</time>
      </trkpt>
      <trkpt lat="44.42258" lon="5.24329">
        <ele>633</ele>
        <time>2022-09-29T11:57:30Z</time>
      </trkpt>
      <trkpt lat="44.42259" lon="5.24328">
        <ele>633</ele>
        <time>2022-09-29T11:57:31Z</time>
      </trkpt>
      <trkpt lat="44.42259" lon="5.24327">
        <ele>633</ele>
        <time>2022-09-29T11:57:32Z</time>
      </trkpt>
      <trkpt lat="44.42259" lon="5.24326">
        <ele>633</ele>
        <time>2022-09-29T11:57:33Z</time>
      </trkpt>
      <trkpt lat="44.4226" lon="5.24325">
        <ele>632</ele>
        <time>2022-09-29T11:57:34Z</time>
      </trkpt>
      <trkpt lat="44.4226" lon="5.24324">
        <ele>632</ele>
        <time>2022-09-29T11:57:35Z</time>
      </trkpt>
      <trkpt lat="44.4226" lon="5.24323">
        <ele>632</ele>
        <time>2022-09-29T11:57:36Z</time>
      </trkpt>
      <trkpt lat="44.4226" lon="5.24322">
        <ele>632</ele>
        <time>2022-09-29T11:57:37Z</time>
      </trkpt>
      <trkpt lat="44.42261" lon="5.24321">
        <ele>632</ele>
        <time>2022-09-29T11:57:38Z</time>
      </trkpt>
      <trkpt lat="44.42261" lon="5.24319">
        <ele>631</ele>
        <time>2022-09-29T11:57:39Z</time>
      </trkpt>
      <trkpt lat="44.42261" lon="5.24318">
        <ele>631</ele>
        <time>2022-09-29T11:57:40Z</time>
      </trkpt>
      <trkpt lat="44.42261" lon="5.24317">
        <ele>631</ele>
        <time>2022-09-29T11:57:41Z</time>
      </trkpt>
      <trkpt lat="44.42262" lon="5.24316">
        <ele>631</ele>
        <time>2022-09-29T11:57:42Z</time>
      </trkpt>
      <trkpt lat="44.42262" lon="5.24315">
        <ele>631</ele>
        <time>2022-09-29T11:57:43Z</time>
      </trkpt>
      <trkpt lat="44.42262" lon="5.24313">
        <ele>630</ele>
        <time>2022-09-29T11:57:44Z</time>
      </trkpt>
      <trkpt lat="44.42263" lon="5.24312">
        <ele>630</ele>
        <time>2022-09-29T11:57:45Z</time>
      </trkpt>
      <trkpt lat="44.42263" lon="5.24311">
        <ele>630</ele>
        <time>2022-09-29T11:57:46Z</time>
      </trkpt>
      <trkpt lat="44.42264" lon="5.2431">
        <ele>630</ele>
        <time>2022-09-29T11:57:47Z</time>
      </trkpt>
      <trkpt lat="44.42265" lon="5.24309">
        <ele>630</ele>
        <time>2022-09-29T11:57:48Z</time>
      </trkpt>
      <trkpt lat="44.42265" lon="5.24307">
        <ele>629</ele>
        <time>2022-09-29T11:57:49Z</time>
      </trkpt>
      <trkpt lat="44.42266" lon="5.24305">
        <ele>629</ele>
        <time>2022-09-29T11:57:50Z</time>
      </trkpt>
      <trkpt lat="44.42266" lon="5.24303">
        <ele>629</ele>
        <time>2022-09-29T11:57:51Z</time>
      </trkpt>
      <trkpt lat="44.42267" lon="5.24302">
        <ele>629</ele>
        <time>2022-09-29T11:57:52Z</time>
      </trkpt>
      <trkpt lat="44.42268" lon="5.243">
        <ele>629</ele>
        <time>2022-09-29T11:57:53Z</time>
      </trkpt>
      <trkpt lat="44.42268" lon="5.24299">
        <ele>628</ele>
        <time>2022-09-29T11:57:54Z</time>
      </trkpt>
      <trkpt lat="44.42269" lon="5.24297">
        <ele>628</ele>
        <time>2022-09-29T11:57:55Z</time>
      </trkpt>
      <trkpt lat="44.4227" lon="5.24296">
        <ele>628</ele>
        <time>2022-09-29T11:57:56Z</time>
      </trkpt>
      <trkpt lat="44.4227" lon="5.24295">
        <ele>628</ele>
        <time>2022-09-29T11:57:57Z</time>
      </trkpt>
      <trkpt lat="44.4227" lon="5.24294">
        <ele>628</ele>
        <time>2022-09-29T11:57:58Z</time>
      </trkpt>
      <trkpt lat="44.42271" lon="5.24293">
        <ele>628</ele>
        <time>2022-09-29T11:57:59Z</time>
      </trkpt>
      <trkpt lat="44.42271" lon="5.24292">
        <ele>628</ele>
        <time>2022-09-29T11:58:00Z</time>
      </trkpt>
      <trkpt lat="44.42271" lon="5.24292">
        <ele>628</ele>
        <time>2022-09-29T11:58:01Z</time>
      </trkpt>
      <trkpt lat="44.42271" lon="5.24291">
        <ele>628</ele>
        <time>2022-09-29T11:58:02Z</time>
      </trkpt>
      <trkpt lat="44.42271" lon="5.24291">
        <ele>628</ele>
        <time>2022-09-29T11:58:03Z</time>
      </trkpt>
      <trkpt lat="44.42272" lon="5.2429">
        <ele>627</ele>
        <time>2022-09-29T11:58:04Z</time>
      </trkpt>
      <trkpt lat="44.42272" lon="5.24289">
        <ele>627</ele>
        <time>2022-09-29T11:58:05Z</time>
      </trkpt>
      <trkpt lat="44.42272" lon="5.24288">
        <ele>627</ele>
        <time>2022-09-29T11:58:06Z</time>
      </trkpt>
      <trkpt lat="44.42273" lon="5.24287">
        <ele>627</ele>
        <time>2022-09-29T11:58:07Z</time>
      </trkpt>
      <trkpt lat="44.42273" lon="5.24286">
        <ele>627</ele>
        <time>2022-09-29T11:58:08Z</time>
      </trkpt>
      <trkpt lat="44.42273" lon="5.24286">
        <ele>626</ele>
        <time>2022-09-29T11:58:09Z</time>
      </trkpt>
      <trkpt lat="44.42274" lon="5.24285">
        <ele>626</ele>
        <time>2022-09-29T11:58:10Z</time>
      </trkpt>
      <trkpt lat="44.42274" lon="5.24285">
        <ele>626</ele>
        <time>2022-09-29T11:58:11Z</time>
      </trkpt>
      <trkpt lat="44.42275" lon="5.24284">
        <ele>626</ele>
        <time>2022-09-29T11:58:12Z</time>
      </trkpt>
      <trkpt lat="44.42276" lon="5.24283">
        <ele>626</ele>
        <time>2022-09-29T11:58:13Z</time>
      </trkpt>
      <trkpt lat="44.42276" lon="5.24282">
        <ele>625</ele>
        <time>2022-09-29T11:58:14Z</time>
      </trkpt>
      <trkpt lat="44.42277" lon="5.24281">
        <ele>625</ele>
        <time>2022-09-29T11:58:15Z</time>
      </trkpt>
      <trkpt lat="44.42277" lon="5.2428">
        <ele>625</ele>
        <time>2022-09-29T11:58:16Z</time>
      </trkpt>
      <trkpt lat="44.42278" lon="5.24279">
        <ele>625</ele>
        <time>2022-09-29T11:58:17Z</time>
      </trkpt>
      <trkpt lat="44.42278" lon="5.24278">
        <ele>625</ele>
        <time>2022-09-29T11:58:18Z</time>
      </trkpt>
      <trkpt lat="44.42279" lon="5.24277">
        <ele>625</ele>
        <time>2022-09-29T11:58:19Z</time>
      </trkpt>
      <trkpt lat="44.42279" lon="5.24275">
        <ele>625</ele>
        <time>2022-09-29T11:58:20Z</time>
      </trkpt>
      <trkpt lat="44.4228" lon="5.24274">
        <ele>625</ele>
        <time>2022-09-29T11:58:21Z</time>
      </trkpt>
      <trkpt lat="44.4228" lon="5.24272">
        <ele>625</ele>
        <time>2022-09-29T11:58:22Z</time>
      </trkpt>
      <trkpt lat="44.42281" lon="5.24271">
        <ele>625</ele>
        <time>2022-09-29T11:58:23Z</time>
      </trkpt>
      <trkpt lat="44.42281" lon="5.24271">
        <ele>625</ele>
        <time>2022-09-29T11:58:24Z</time>
      </trkpt>
      <trkpt lat="44.42281" lon="5.2427">
        <ele>625</ele>
        <time>2022-09-29T11:58:25Z</time>
      </trkpt>
      <trkpt lat="44.42281" lon="5.2427">
        <ele>625</ele>
        <time>2022-09-29T11:58:26Z</time>
      </trkpt>
      <trkpt lat="44.42282" lon="5.2427">
        <ele>625</ele>
        <time>2022-09-29T11:58:27Z</time>
      </trkpt>
      <trkpt lat="44.42282" lon="5.24269">
        <ele>625</ele>
        <time>2022-09-29T11:58:28Z</time>
      </trkpt>
      <trkpt lat="44.42282" lon="5.24268">
        <ele>624</ele>
        <time>2022-09-29T11:58:29Z</time>
      </trkpt>
      <trkpt lat="44.42283" lon="5.24267">
        <ele>624</ele>
        <time>2022-09-29T11:58:30Z</time>
      </trkpt>
      <trkpt lat="44.42283" lon="5.24266">
        <ele>623</ele>
        <time>2022-09-29T11:58:31Z</time>
      </trkpt>
      <trkpt lat="44.42283" lon="5.24264">
        <ele>623</ele>
        <time>2022-09-29T11:58:32Z</time>
      </trkpt>
      <trkpt lat="44.42283" lon="5.24263">
        <ele>623</ele>
        <time>2022-09-29T11:58:33Z</time>
      </trkpt>
      <trkpt lat="44.42284" lon="5.24261">
        <ele>623</ele>
        <time>2022-09-29T11:58:34Z</time>
      </trkpt>
      <trkpt lat="44.42284" lon="5.24259">
        <ele>623</ele>
        <time>2022-09-29T11:58:35Z</time>
      </trkpt>
      <trkpt lat="44.42284" lon="5.24257">
        <ele>623</ele>
        <time>2022-09-29T11:58:36Z</time>
      </trkpt>
      <trkpt lat="44.42284" lon="5.24256">
        <ele>623</ele>
        <time>2022-09-29T11:58:37Z</time>
      </trkpt>
      <trkpt lat="44.42285" lon="5.24254">
        <ele>623</ele>
        <time>2022-09-29T11:58:38Z</time>
      </trkpt>
      <trkpt lat="44.42285" lon="5.24253">
        <ele>622</ele>
        <time>2022-09-29T11:58:39Z</time>
      </trkpt>
      <trkpt lat="44.42285" lon="5.24252">
        <ele>622</ele>
        <time>2022-09-29T11:58:40Z</time>
      </trkpt>
      <trkpt lat="44.42285" lon="5.24251">
        <ele>622</ele>
        <time>2022-09-29T11:58:41Z</time>
      </trkpt>
      <trkpt lat="44.42285" lon="5.2425">
        <ele>622</ele>
        <time>2022-09-29T11:58:42Z</time>
      </trkpt>
      <trkpt lat="44.42286" lon="5.24249">
        <ele>622</ele>
        <time>2022-09-29T11:58:43Z</time>
      </trkpt>
      <trkpt lat="44.42286" lon="5.24248">
        <ele>621</ele>
        <time>2022-09-29T11:58:44Z</time>
      </trkpt>
      <trkpt lat="44.42286" lon="5.24247">
        <ele>621</ele>
        <time>2022-09-29T11:58:45Z</time>
      </trkpt>
      <trkpt lat="44.42286" lon="5.24247">
        <ele>621</ele>
        <time>2022-09-29T11:58:46Z</time>
      </trkpt>
      <trkpt lat="44.42287" lon="5.24246">
        <ele>621</ele>
        <time>2022-09-29T11:58:47Z</time>
      </trkpt>
      <trkpt lat="44.42287" lon="5.24245">
        <ele>621</ele>
        <time>2022-09-29T11:58:48Z</time>
      </trkpt>
      <trkpt lat="44.42288" lon="5.24243">
        <ele>620</ele>
        <time>2022-09-29T11:58:49Z</time>
      </trkpt>
      <trkpt lat="44.42288" lon="5.24242">
        <ele>620</ele>
        <time>2022-09-29T11:58:50Z</time>
      </trkpt>
      <trkpt lat="44.42289" lon="5.2424">
        <ele>619</ele>
        <time>2022-09-29T11:58:51Z</time>
      </trkpt>
      <trkpt lat="44.42289" lon="5.24239">
        <ele>619</ele>
        <time>2022-09-29T11:58:52Z</time>
      </trkpt>
      <trkpt lat="44.4229" lon="5.24237">
        <ele>619</ele>
        <time>2022-09-29T11:58:53Z</time>
      </trkpt>
      <trkpt lat="44.4229" lon="5.24235">
        <ele>618</ele>
        <time>2022-09-29T11:58:54Z</time>
      </trkpt>
      <trkpt lat="44.4229" lon="5.24233">
        <ele>618</ele>
        <time>2022-09-29T11:58:55Z</time>
      </trkpt>
      <trkpt lat="44.42291" lon="5.24232">
        <ele>618</ele>
        <time>2022-09-29T11:58:56Z</time>
      </trkpt>
      <trkpt lat="44.42292" lon="5.2423">
        <ele>618</ele>
        <time>2022-09-29T11:58:57Z</time>
      </trkpt>
      <trkpt lat="44.42292" lon="5.24229">
        <ele>618</ele>
        <time>2022-09-29T11:58:58Z</time>
      </trkpt>
      <trkpt lat="44.42293" lon="5.24228">
        <ele>617</ele>
        <time>2022-09-29T11:58:59Z</time>
      </trkpt>
      <trkpt lat="44.42293" lon="5.24227">
        <ele>617</ele>
        <time>2022-09-29T11:59:00Z</time>
      </trkpt>
      <trkpt lat="44.42294" lon="5.24226">
        <ele>617</ele>
        <time>2022-09-29T11:59:01Z</time>
      </trkpt>
      <trkpt lat="44.42294" lon="5.24225">
        <ele>617</ele>
        <time>2022-09-29T11:59:02Z</time>
      </trkpt>
      <trkpt lat="44.42295" lon="5.24224">
        <ele>617</ele>
        <time>2022-09-29T11:59:03Z</time>
      </trkpt>
      <trkpt lat="44.42295" lon="5.24222">
        <ele>617</ele>
        <time>2022-09-29T11:59:04Z</time>
      </trkpt>
      <trkpt lat="44.42296" lon="5.24221">
        <ele>617</ele>
        <time>2022-09-29T11:59:05Z</time>
      </trkpt>
      <trkpt lat="44.42296" lon="5.24219">
        <ele>617</ele>
        <time>2022-09-29T11:59:06Z</time>
      </trkpt>
      <trkpt lat="44.42297" lon="5.24218">
        <ele>617</ele>
        <time>2022-09-29T11:59:07Z</time>
      </trkpt>
      <trkpt lat="44.42297" lon="5.24216">
        <ele>617</ele>
        <time>2022-09-29T11:59:08Z</time>
      </trkpt>
      <trkpt lat="44.42298" lon="5.24214">
        <ele>616</ele>
        <time>2022-09-29T11:59:09Z</time>
      </trkpt>
      <trkpt lat="44.42298" lon="5.24212">
        <ele>616</ele>
        <time>2022-09-29T11:59:10Z</time>
      </trkpt>
      <trkpt lat="44.42299" lon="5.24211">
        <ele>616</ele>
        <time>2022-09-29T11:59:11Z</time>
      </trkpt>
      <trkpt lat="44.42299" lon="5.24209">
        <ele>616</ele>
        <time>2022-09-29T11:59:12Z</time>
      </trkpt>
      <trkpt lat="44.423" lon="5.24208">
        <ele>616</ele>
        <time>2022-09-29T11:59:13Z</time>
      </trkpt>
      <trkpt lat="44.423" lon="5.24207">
        <ele>615</ele>
        <time>2022-09-29T11:59:14Z</time>
      </trkpt>
      <trkpt lat="44.423" lon="5.24206">
        <ele>615</ele>
        <time>2022-09-29T11:59:15Z</time>
      </trkpt>
      <trkpt lat="44.42301" lon="5.24204">
        <ele>615</ele>
        <time>2022-09-29T11:59:16Z</time>
      </trkpt>
      <trkpt lat="44.42301" lon="5.24203">
        <ele>615</ele>
        <time>2022-09-29T11:59:17Z</time>
      </trkpt>
      <trkpt lat="44.42302" lon="5.24202">
        <ele>615</ele>
        <time>2022-09-29T11:59:18Z</time>
      </trkpt>
      <trkpt lat="44.42302" lon="5.24201">
        <ele>614</ele>
        <time>2022-09-29T11:59:19Z</time>
      </trkpt>
      <trkpt lat="44.42302" lon="5.242">
        <ele>614</ele>
        <time>2022-09-29T11:59:20Z</time>
      </trkpt>
      <trkpt lat="44.42303" lon="5.24199">
        <ele>614</ele>
        <time>2022-09-29T11:59:21Z</time>
      </trkpt>
      <trkpt lat="44.42303" lon="5.24199">
        <ele>614</ele>
        <time>2022-09-29T11:59:22Z</time>
      </trkpt>
      <trkpt lat="44.42304" lon="5.24198">
        <ele>614</ele>
        <time>2022-09-29T11:59:23Z</time>
      </trkpt>
      <trkpt lat="44.42304" lon="5.24198">
        <ele>613</ele>
        <time>2022-09-29T11:59:24Z</time>
      </trkpt>
      <trkpt lat="44.42304" lon="5.24198">
        <ele>613</ele>
        <time>2022-09-29T11:59:25Z</time>
      </trkpt>
      <trkpt lat="44.42304" lon="5.24197">
        <ele>613</ele>
        <time>2022-09-29T11:59:26Z</time>
      </trkpt>
      <trkpt lat="44.42305" lon="5.24197">
        <ele>613</ele>
        <time>2022-09-29T11:59:27Z</time>
      </trkpt>
      <trkpt lat="44.42306" lon="5.24196">
        <ele>613</ele>
        <time>2022-09-29T11:59:28Z</time>
      </trkpt>
      <trkpt lat="44.42306" lon="5.24196">
        <ele>612</ele>
        <time>2022-09-29T11:59:29Z</time>
      </trkpt>
      <trkpt lat="44.42307" lon="5.24195">
        <ele>612</ele>
        <time>2022-09-29T11:59:30Z</time>
      </trkpt>
      <trkpt lat="44.42307" lon="5.24195">
        <ele>612</ele>
        <time>2022-09-29T11:59:31Z</time>
      </trkpt>
      <trkpt lat="44.42308" lon="5.24194">
        <ele>612</ele>
        <time>2022-09-29T11:59:32Z</time>
      </trkpt>
      <trkpt lat="44.42308" lon="5.24194">
        <ele>612</ele>
        <time>2022-09-29T11:59:33Z</time>
      </trkpt>
      <trkpt lat="44.42308" lon="5.24193">
        <ele>611</ele>
        <time>2022-09-29T11:59:34Z</time>
      </trkpt>
      <trkpt lat="44.42308" lon="5.24192">
        <ele>611</ele>
        <time>2022-09-29T11:59:35Z</time>
      </trkpt>
      <trkpt lat="44.42308" lon="5.24191">
        <ele>611</ele>
        <time>2022-09-29T11:59:36Z</time>
      </trkpt>
      <trkpt lat="44.42309" lon="5.2419">
        <ele>611</ele>
        <time>2022-09-29T11:59:37Z</time>
      </trkpt>
      <trkpt lat="44.42309" lon="5.2419">
        <ele>611</ele>
        <time>2022-09-29T11:59:38Z</time>
      </trkpt>
      <trkpt lat="44.42309" lon="5.24189">
        <ele>610</ele>
        <time>2022-09-29T11:59:39Z</time>
      </trkpt>
      <trkpt lat="44.42309" lon="5.24188">
        <ele>610</ele>
        <time>2022-09-29T11:59:40Z</time>
      </trkpt>
      <trkpt lat="44.42309" lon="5.24186">
        <ele>610</ele>
        <time>2022-09-29T11:59:41Z</time>
      </trkpt>
      <trkpt lat="44.4231" lon="5.24185">
        <ele>610</ele>
        <time>2022-09-29T11:59:42Z</time>
      </trkpt>
      <trkpt lat="44.4231" lon="5.24184">
        <ele>610</ele>
        <time>2022-09-29T11:59:43Z</time>
      </trkpt>
      <trkpt lat="44.42311" lon="5.24183">
        <ele>609</ele>
        <time>2022-09-29T11:59:44Z</time>
      </trkpt>
      <trkpt lat="44.42311" lon="5.24182">
        <ele>609</ele>
        <time>2022-09-29T11:59:45Z</time>
      </trkpt>
      <trkpt lat="44.42311" lon="5.24182">
        <ele>609</ele>
        <time>2022-09-29T11:59:46Z</time>
      </trkpt>
      <trkpt lat="44.42312" lon="5.24181">
        <ele>609</ele>
        <time>2022-09-29T11:59:47Z</time>
      </trkpt>
      <trkpt lat="44.42312" lon="5.2418">
        <ele>609</ele>
        <time>2022-09-29T11:59:48Z</time>
      </trkpt>
      <trkpt lat="44.42312" lon="5.2418">
        <ele>608</ele>
        <time>2022-09-29T11:59:49Z</time>
      </trkpt>
      <trkpt lat="44.42313" lon="5.24179">
        <ele>608</ele>
        <time>2022-09-29T11:59:50Z</time>
      </trkpt>
      <trkpt lat="44.42313" lon="5.24178">
        <ele>608</ele>
        <time>2022-09-29T11:59:51Z</time>
      </trkpt>
      <trkpt lat="44.42313" lon="5.24178">
        <ele>608</ele>
        <time>2022-09-29T11:59:52Z</time>
      </trkpt>
      <trkpt lat="44.42313" lon="5.24178">
        <ele>608</ele>
        <time>2022-09-29T11:59:53Z</time>
      </trkpt>
      <trkpt lat="44.42314" lon="5.24177">
        <ele>607</ele>
        <time>2022-09-29T11:59:54Z</time>
      </trkpt>
      <trkpt lat="44.42314" lon="5.24177">
        <ele>607</ele>
        <time>2022-09-29T11:59:55Z</time>
      </trkpt>
      <trkpt lat="44.42314" lon="5.24176">
        <ele>607</ele>
        <time>2022-09-29T11:59:56Z</time>
      </trkpt>
      <trkpt lat="44.42315" lon="5.24176">
        <ele>607</ele>
        <time>2022-09-29T11:59:57Z</time>
      </trkpt>
      <trkpt lat="44.42316" lon="5.24175">
        <ele>607</ele>
        <time>2022-09-29T11:59:58Z</time>
      </trkpt>
      <trkpt lat="44.42316" lon="5.24175">
        <ele>606</ele>
        <time>2022-09-29T11:59:59Z</time>
      </trkpt>
      <trkpt lat="44.42316" lon="5.24174">
        <ele>606</ele>
        <time>2022-09-29T12:00:00Z</time>
      </trkpt>
      <trkpt lat="44.42316" lon="5.24173">
        <ele>606</ele>
        <time>2022-09-29T12:00:01Z</time>
      </trkpt>
      <trkpt lat="44.42317" lon="5.24172">
        <ele>606</ele>
        <time>2022-09-29T12:00:02Z</time>
      </trkpt>
      <trkpt lat="44.42317" lon="5.2417">
        <ele>606</ele>
        <time>2022-09-29T12:00:11Z</time>
      </trkpt>
      <trkpt lat="44.42317" lon="5.24169">
        <ele>606</ele>
        <time>2022-09-29T12:00:12Z</time>
      </trkpt>
      <trkpt lat="44.42316" lon="5.24168">
        <ele>606</ele>
        <time>2022-09-29T12:00:13Z</time>
      </trkpt>
      <trkpt lat="44.42316" lon="5.24168">
        <ele>605</ele>
        <time>2022-09-29T12:00:14Z</time>
      </trkpt>
      <trkpt lat="44.42316" lon="5.24168">
        <ele>605</ele>
        <time>2022-09-29T12:00:15Z</time>
      </trkpt>
      <trkpt lat="44.42316" lon="5.24167">
        <ele>605</ele>
        <time>2022-09-29T12:00:16Z</time>
      </trkpt>
      <trkpt lat="44.42316" lon="5.24167">
        <ele>605</ele>
        <time>2022-09-29T12:00:17Z</time>
      </trkpt>
      <trkpt lat="44.42316" lon="5.24167">
        <ele>605</ele>
        <time>2022-09-29T12:00:18Z</time>
      </trkpt>
      <trkpt lat="44.42315" lon="5.24166">
        <ele>605</ele>
        <time>2022-09-29T12:00:19Z</time>
      </trkpt>
      <trkpt lat="44.42315" lon="5.24165">
        <ele>605</ele>
        <time>2022-09-29T12:00:20Z</time>
      </trkpt>
      <trkpt lat="44.42314" lon="5.24165">
        <ele>605</ele>
        <time>2022-09-29T12:00:21Z</time>
      </trkpt>
      <trkpt lat="44.42313" lon="5.24164">
        <ele>605</ele>
        <time>2022-09-29T12:00:22Z</time>
      </trkpt>
      <trkpt lat="44.42313" lon="5.24164">
        <ele>605</ele>
        <time>2022-09-29T12:00:23Z</time>
      </trkpt>
      <trkpt lat="44.42312" lon="5.24163">
        <ele>605</ele>
        <time>2022-09-29T12:00:24Z</time>
      </trkpt>
      <trkpt lat="44.42311" lon="5.24162">
        <ele>605</ele>
        <time>2022-09-29T12:00:25Z</time>
      </trkpt>
      <trkpt lat="44.4231" lon="5.24162">
        <ele>605</ele>
        <time>2022-09-29T12:00:26Z</time>
      </trkpt>
      <trkpt lat="44.42309" lon="5.24162">
        <ele>605</ele>
        <time>2022-09-29T12:00:27Z</time>
      </trkpt>
      <trkpt lat="44.42308" lon="5.24161">
        <ele>605</ele>
        <time>2022-09-29T12:00:28Z</time>
      </trkpt>
      <trkpt lat="44.42307" lon="5.24161">
        <ele>604</ele>
        <time>2022-09-29T12:00:29Z</time>
      </trkpt>
      <trkpt lat="44.42307" lon="5.24161">
        <ele>604</ele>
        <time>2022-09-29T12:00:30Z</time>
      </trkpt>
      <trkpt lat="44.42306" lon="5.24161">
        <ele>604</ele>
        <time>2022-09-29T12:00:31Z</time>
      </trkpt>
      <trkpt lat="44.42305" lon="5.2416">
        <ele>604</ele>
        <time>2022-09-29T12:00:32Z</time>
      </trkpt>
      <trkpt lat="44.42304" lon="5.2416">
        <ele>604</ele>
        <time>2022-09-29T12:00:33Z</time>
      </trkpt>
      <trkpt lat="44.42303" lon="5.2416">
        <ele>604</ele>
        <time>2022-09-29T12:00:34Z</time>
      </trkpt>
      <trkpt lat="44.42303" lon="5.2416">
        <ele>604</ele>
        <time>2022-09-29T12:00:35Z</time>
      </trkpt>
      <trkpt lat="44.42303" lon="5.2416">
        <ele>604</ele>
        <time>2022-09-29T12:00:36Z</time>
      </trkpt>
      <trkpt lat="44.42302" lon="5.2416">
        <ele>604</ele>
        <time>2022-09-29T12:00:37Z</time>
      </trkpt>
      <trkpt lat="44.42302" lon="5.2416">
        <ele>604</ele>
        <time>2022-09-29T12:00:38Z</time>
      </trkpt>
      <trkpt lat="44.42301" lon="5.2416">
        <ele>604</ele>
        <time>2022-09-29T12:00:39Z</time>
      </trkpt>
      <trkpt lat="44.423" lon="5.2416">
        <ele>604</ele>
        <time>2022-09-29T12:00:40Z</time>
      </trkpt>
      <trkpt lat="44.42299" lon="5.2416">
        <ele>604</ele>
        <time>2022-09-29T12:00:41Z</time>
      </trkpt>
      <trkpt lat="44.42298" lon="5.2416">
        <ele>604</ele>
        <time>2022-09-29T12:00:42Z</time>
      </trkpt>
      <trkpt lat="44.42298" lon="5.2416">
        <ele>604</ele>
        <time>2022-09-29T12:00:43Z</time>
      </trkpt>
      <trkpt lat="44.42297" lon="5.2416">
        <ele>604</ele>
        <time>2022-09-29T12:00:44Z</time>
      </trkpt>
      <trkpt lat="44.42296" lon="5.2416">
        <ele>604</ele>
        <time>2022-09-29T12:00:45Z</time>
      </trkpt>
      <trkpt lat="44.42294" lon="5.24161">
        <ele>604</ele>
        <time>2022-09-29T12:00:46Z</time>
      </trkpt>
      <trkpt lat="44.42293" lon="5.24161">
        <ele>604</ele>
        <time>2022-09-29T12:00:47Z</time>
      </trkpt>
      <trkpt lat="44.42292" lon="5.24161">
        <ele>604</ele>
        <time>2022-09-29T12:00:48Z</time>
      </trkpt>
      <trkpt lat="44.42292" lon="5.24161">
        <ele>604</ele>
        <time>2022-09-29T12:00:49Z</time>
      </trkpt>
      <trkpt lat="44.42291" lon="5.24161">
        <ele>604</ele>
        <time>2022-09-29T12:00:50Z</time>
      </trkpt>
      <trkpt lat="44.4229" lon="5.2416">
        <ele>604</ele>
        <time>2022-09-29T12:00:51Z</time>
      </trkpt>
      <trkpt lat="44.42289" lon="5.2416">
        <ele>604</ele>
        <time>2022-09-29T12:00:52Z</time>
      </trkpt>
      <trkpt lat="44.42288" lon="5.24159">
        <ele>604</ele>
        <time>2022-09-29T12:00:53Z</time>
      </trkpt>
      <trkpt lat="44.42287" lon="5.24159">
        <ele>604</ele>
        <time>2022-09-29T12:00:54Z</time>
      </trkpt>
      <trkpt lat="44.42286" lon="5.24159">
        <ele>604</ele>
        <time>2022-09-29T12:00:55Z</time>
      </trkpt>
      <trkpt lat="44.42285" lon="5.24159">
        <ele>604</ele>
        <time>2022-09-29T12:00:56Z</time>
      </trkpt>
      <trkpt lat="44.42283" lon="5.24159">
        <ele>604</ele>
        <time>2022-09-29T12:00:57Z</time>
      </trkpt>
      <trkpt lat="44.42282" lon="5.24159">
        <ele>604</ele>
        <time>2022-09-29T12:00:58Z</time>
      </trkpt>
      <trkpt lat="44.42281" lon="5.24159">
        <ele>604</ele>
        <time>2022-09-29T12:00:59Z</time>
      </trkpt>
      <trkpt lat="44.4228" lon="5.24159">
        <ele>604</ele>
        <time>2022-09-29T12:01:00Z</time>
      </trkpt>
      <trkpt lat="44.42279" lon="5.24158">
        <ele>604</ele>
        <time>2022-09-29T12:01:01Z</time>
      </trkpt>
      <trkpt lat="44.42278" lon="5.24157">
        <ele>604</ele>
        <time>2022-09-29T12:01:02Z</time>
      </trkpt>
      <trkpt lat="44.42277" lon="5.24157">
        <ele>604</ele>
        <time>2022-09-29T12:01:03Z</time>
      </trkpt>
      <trkpt lat="44.42277" lon="5.24156">
        <ele>603</ele>
        <time>2022-09-29T12:01:04Z</time>
      </trkpt>
      <trkpt lat="44.42276" lon="5.24156">
        <ele>603</ele>
        <time>2022-09-29T12:01:05Z</time>
      </trkpt>
      <trkpt lat="44.42275" lon="5.24155">
        <ele>603</ele>
        <time>2022-09-29T12:01:06Z</time>
      </trkpt>
      <trkpt lat="44.42274" lon="5.24155">
        <ele>603</ele>
        <time>2022-09-29T12:01:07Z</time>
      </trkpt>
      <trkpt lat="44.42274" lon="5.24155">
        <ele>603</ele>
        <time>2022-09-29T12:01:08Z</time>
      </trkpt>
      <trkpt lat="44.42273" lon="5.24156">
        <ele>603</ele>
        <time>2022-09-29T12:01:09Z</time>
      </trkpt>
      <trkpt lat="44.42272" lon="5.24156">
        <ele>603</ele>
        <time>2022-09-29T12:01:10Z</time>
      </trkpt>
      <trkpt lat="44.42271" lon="5.24157">
        <ele>603</ele>
        <time>2022-09-29T12:01:11Z</time>
      </trkpt>
      <trkpt lat="44.4227" lon="5.24157">
        <ele>603</ele>
        <time>2022-09-29T12:01:12Z</time>
      </trkpt>
      <trkpt lat="44.42269" lon="5.24157">
        <ele>603</ele>
        <time>2022-09-29T12:01:13Z</time>
      </trkpt>
      <trkpt lat="44.42268" lon="5.24158">
        <ele>602</ele>
        <time>2022-09-29T12:01:14Z</time>
      </trkpt>
      <trkpt lat="44.42267" lon="5.24158">
        <ele>602</ele>
        <time>2022-09-29T12:01:15Z</time>
      </trkpt>
      <trkpt lat="44.42266" lon="5.24158">
        <ele>602</ele>
        <time>2022-09-29T12:01:16Z</time>
      </trkpt>
      <trkpt lat="44.42265" lon="5.24157">
        <ele>602</ele>
        <time>2022-09-29T12:01:17Z</time>
      </trkpt>
      <trkpt lat="44.42264" lon="5.24156">
        <ele>602</ele>
        <time>2022-09-29T12:01:18Z</time>
      </trkpt>
      <trkpt lat="44.42263" lon="5.24156">
        <ele>602</ele>
        <time>2022-09-29T12:01:24Z</time>
      </trkpt>
      <trkpt lat="44.42263" lon="5.24156">
        <ele>602</ele>
        <time>2022-09-29T12:01:25Z</time>
      </trkpt>
      <trkpt lat="44.42262" lon="5.24156">
        <ele>602</ele>
        <time>2022-09-29T12:01:26Z</time>
      </trkpt>
      <trkpt lat="44.42261" lon="5.24156">
        <ele>602</ele>
        <time>2022-09-29T12:01:27Z</time>
      </trkpt>
      <trkpt lat="44.42261" lon="5.24156">
        <ele>602</ele>
        <time>2022-09-29T12:01:28Z</time>
      </trkpt>
      <trkpt lat="44.42261" lon="5.24157">
        <ele>602</ele>
        <time>2022-09-29T12:01:29Z</time>
      </trkpt>
      <trkpt lat="44.42261" lon="5.24157">
        <ele>602</ele>
        <time>2022-09-29T12:01:30Z</time>
      </trkpt>
      <trkpt lat="44.4226" lon="5.24157">
        <ele>602</ele>
        <time>2022-09-29T12:01:31Z</time>
      </trkpt>
      <trkpt lat="44.4226" lon="5.24157">
        <ele>602</ele>
        <time>2022-09-29T12:01:32Z</time>
      </trkpt>
      <trkpt lat="44.4226" lon="5.24158">
        <ele>602</ele>
        <time>2022-09-29T12:01:33Z</time>
      </trkpt>
      <trkpt lat="44.4226" lon="5.24159">
        <ele>602</ele>
        <time>2022-09-29T12:01:34Z</time>
      </trkpt>
      <trkpt lat="44.42259" lon="5.2416">
        <ele>602</ele>
        <time>2022-09-29T12:01:35Z</time>
      </trkpt>
      <trkpt lat="44.42259" lon="5.24161">
        <ele>602</ele>
        <time>2022-09-29T12:01:36Z</time>
      </trkpt>
      <trkpt lat="44.42259" lon="5.24161">
        <ele>602</ele>
        <time>2022-09-29T12:01:37Z</time>
      </trkpt>
      <trkpt lat="44.42259" lon="5.24162">
        <ele>603</ele>
        <time>2022-09-29T12:01:38Z</time>
      </trkpt>
      <trkpt lat="44.42258" lon="5.24163">
        <ele>603</ele>
        <time>2022-09-29T12:01:39Z</time>
      </trkpt>
      <trkpt lat="44.42258" lon="5.24164">
        <ele>603</ele>
        <time>2022-09-29T12:01:40Z</time>
      </trkpt>
      <trkpt lat="44.42258" lon="5.24165">
        <ele>603</ele>
        <time>2022-09-29T12:01:41Z</time>
      </trkpt>
      <trkpt lat="44.42257" lon="5.24165">
        <ele>603</ele>
        <time>2022-09-29T12:01:42Z</time>
      </trkpt>
      <trkpt lat="44.42257" lon="5.24166">
        <ele>603</ele>
        <time>2022-09-29T12:01:43Z</time>
      </trkpt>
      <trkpt lat="44.42256" lon="5.24167">
        <ele>603</ele>
        <time>2022-09-29T12:01:44Z</time>
      </trkpt>
      <trkpt lat="44.42256" lon="5.24168">
        <ele>603</ele>
        <time>2022-09-29T12:01:45Z</time>
      </trkpt>
      <trkpt lat="44.42255" lon="5.24168">
        <ele>603</ele>
        <time>2022-09-29T12:01:46Z</time>
      </trkpt>
      <trkpt lat="44.42255" lon="5.24169">
        <ele>603</ele>
        <time>2022-09-29T12:01:47Z</time>
      </trkpt>
      <trkpt lat="44.42254" lon="5.2417">
        <ele>604</ele>
        <time>2022-09-29T12:01:48Z</time>
      </trkpt>
      <trkpt lat="44.42254" lon="5.2417">
        <ele>604</ele>
        <time>2022-09-29T12:01:49Z</time>
      </trkpt>
      <trkpt lat="44.42254" lon="5.2417">
        <ele>604</ele>
        <time>2022-09-29T12:01:50Z</time>
      </trkpt>
      <trkpt lat="44.42254" lon="5.24171">
        <ele>604</ele>
        <time>2022-09-29T12:01:51Z</time>
      </trkpt>
      <trkpt lat="44.42253" lon="5.24171">
        <ele>604</ele>
        <time>2022-09-29T12:01:52Z</time>
      </trkpt>
      <trkpt lat="44.42253" lon="5.24172">
        <ele>604</ele>
        <time>2022-09-29T12:01:53Z</time>
      </trkpt>
      <trkpt lat="44.42252" lon="5.24173">
        <ele>604</ele>
        <time>2022-09-29T12:01:54Z</time>
      </trkpt>
      <trkpt lat="44.42252" lon="5.24174">
        <ele>604</ele>
        <time>2022-09-29T12:01:55Z</time>
      </trkpt>
      <trkpt lat="44.42252" lon="5.24175">
        <ele>604</ele>
        <time>2022-09-29T12:01:56Z</time>
      </trkpt>
      <trkpt lat="44.42252" lon="5.24176">
        <ele>604</ele>
        <time>2022-09-29T12:01:57Z</time>
      </trkpt>
      <trkpt lat="44.42251" lon="5.24177">
        <ele>605</ele>
        <time>2022-09-29T12:01:58Z</time>
      </trkpt>
      <trkpt lat="44.42251" lon="5.24178">
        <ele>605</ele>
        <time>2022-09-29T12:01:59Z</time>
      </trkpt>
      <trkpt lat="44.42251" lon="5.2418">
        <ele>605</ele>
        <time>2022-09-29T12:02:00Z</time>
      </trkpt>
      <trkpt lat="44.42251" lon="5.24182">
        <ele>605</ele>
        <time>2022-09-29T12:02:01Z</time>
      </trkpt>
      <trkpt lat="44.42251" lon="5.24183">
        <ele>605</ele>
        <time>2022-09-29T12:02:02Z</time>
      </trkpt>
      <trkpt lat="44.4225" lon="5.24187">
        <ele>608</ele>
        <time>2022-09-29T12:02:13Z</time>
      </trkpt>
      <trkpt lat="44.42249" lon="5.24189">
        <ele>608</ele>
        <time>2022-09-29T12:02:14Z</time>
      </trkpt>
      <trkpt lat="44.42249" lon="5.24191">
        <ele>608</ele>
        <time>2022-09-29T12:02:15Z</time>
      </trkpt>
      <trkpt lat="44.42248" lon="5.24192">
        <ele>608</ele>
        <time>2022-09-29T12:02:16Z</time>
      </trkpt>
      <trkpt lat="44.42248" lon="5.24193">
        <ele>608</ele>
        <time>2022-09-29T12:02:17Z</time>
      </trkpt>
      <trkpt lat="44.42247" lon="5.24194">
        <ele>609</ele>
        <time>2022-09-29T12:02:18Z</time>
      </trkpt>
      <trkpt lat="44.42246" lon="5.24194">
        <ele>609</ele>
        <time>2022-09-29T12:02:19Z</time>
      </trkpt>
      <trkpt lat="44.42246" lon="5.24194">
        <ele>609</ele>
        <time>2022-09-29T12:02:20Z</time>
      </trkpt>
      <trkpt lat="44.42245" lon="5.24195">
        <ele>609</ele>
        <time>2022-09-29T12:02:21Z</time>
      </trkpt>
      <trkpt lat="44.42245" lon="5.24195">
        <ele>609</ele>
        <time>2022-09-29T12:02:22Z</time>
      </trkpt>
      <trkpt lat="44.42244" lon="5.24195">
        <ele>609</ele>
        <time>2022-09-29T12:02:23Z</time>
      </trkpt>
      <trkpt lat="44.42244" lon="5.24196">
        <ele>609</ele>
        <time>2022-09-29T12:02:24Z</time>
      </trkpt>
      <trkpt lat="44.42244" lon="5.24196">
        <ele>609</ele>
        <time>2022-09-29T12:02:25Z</time>
      </trkpt>
      <trkpt lat="44.42243" lon="5.24197">
        <ele>609</ele>
        <time>2022-09-29T12:02:26Z</time>
      </trkpt>
      <trkpt lat="44.42243" lon="5.24197">
        <ele>609</ele>
        <time>2022-09-29T12:02:27Z</time>
      </trkpt>
      <trkpt lat="44.42243" lon="5.24198">
        <ele>610</ele>
        <time>2022-09-29T12:02:28Z</time>
      </trkpt>
      <trkpt lat="44.42242" lon="5.24199">
        <ele>610</ele>
        <time>2022-09-29T12:02:29Z</time>
      </trkpt>
      <trkpt lat="44.42242" lon="5.242">
        <ele>610</ele>
        <time>2022-09-29T12:02:30Z</time>
      </trkpt>
      <trkpt lat="44.42242" lon="5.24201">
        <ele>610</ele>
        <time>2022-09-29T12:02:31Z</time>
      </trkpt>
      <trkpt lat="44.42241" lon="5.24202">
        <ele>610</ele>
        <time>2022-09-29T12:02:32Z</time>
      </trkpt>
      <trkpt lat="44.42241" lon="5.24203">
        <ele>611</ele>
        <time>2022-09-29T12:02:33Z</time>
      </trkpt>
      <trkpt lat="44.42241" lon="5.24205">
        <ele>611</ele>
        <time>2022-09-29T12:02:34Z</time>
      </trkpt>
      <trkpt lat="44.4224" lon="5.24206">
        <ele>611</ele>
        <time>2022-09-29T12:02:35Z</time>
      </trkpt>
      <trkpt lat="44.4224" lon="5.24207">
        <ele>611</ele>
        <time>2022-09-29T12:02:36Z</time>
      </trkpt>
      <trkpt lat="44.42239" lon="5.24208">
        <ele>611</ele>
        <time>2022-09-29T12:02:37Z</time>
      </trkpt>
      <trkpt lat="44.42238" lon="5.24209">
        <ele>611</ele>
        <time>2022-09-29T12:02:38Z</time>
      </trkpt>
      <trkpt lat="44.42237" lon="5.24211">
        <ele>611</ele>
        <time>2022-09-29T12:02:39Z</time>
      </trkpt>
      <trkpt lat="44.42237" lon="5.24211">
        <ele>611</ele>
        <time>2022-09-29T12:02:40Z</time>
      </trkpt>
      <trkpt lat="44.42237" lon="5.24212">
        <ele>611</ele>
        <time>2022-09-29T12:02:41Z</time>
      </trkpt>
      <trkpt lat="44.42236" lon="5.24212">
        <ele>611</ele>
        <time>2022-09-29T12:02:42Z</time>
      </trkpt>
      <trkpt lat="44.42236" lon="5.24213">
        <ele>612</ele>
        <time>2022-09-29T12:02:43Z</time>
      </trkpt>
      <trkpt lat="44.42235" lon="5.24214">
        <ele>612</ele>
        <time>2022-09-29T12:02:44Z</time>
      </trkpt>
      <trkpt lat="44.42235" lon="5.24214">
        <ele>612</ele>
        <time>2022-09-29T12:02:45Z</time>
      </trkpt>
      <trkpt lat="44.42234" lon="5.24214">
        <ele>612</ele>
        <time>2022-09-29T12:02:46Z</time>
      </trkpt>
      <trkpt lat="44.42233" lon="5.24215">
        <ele>612</ele>
        <time>2022-09-29T12:02:47Z</time>
      </trkpt>
      <trkpt lat="44.42233" lon="5.24215">
        <ele>613</ele>
        <time>2022-09-29T12:02:48Z</time>
      </trkpt>
      <trkpt lat="44.42232" lon="5.24216">
        <ele>613</ele>
        <time>2022-09-29T12:02:49Z</time>
      </trkpt>
      <trkpt lat="44.42231" lon="5.24217">
        <ele>613</ele>
        <time>2022-09-29T12:02:50Z</time>
      </trkpt>
      <trkpt lat="44.4223" lon="5.24218">
        <ele>613</ele>
        <time>2022-09-29T12:02:51Z</time>
      </trkpt>
      <trkpt lat="44.4223" lon="5.24218">
        <ele>613</ele>
        <time>2022-09-29T12:02:52Z</time>
      </trkpt>
      <trkpt lat="44.42229" lon="5.24219">
        <ele>613</ele>
        <time>2022-09-29T12:02:53Z</time>
      </trkpt>
      <trkpt lat="44.42228" lon="5.2422">
        <ele>613</ele>
        <time>2022-09-29T12:02:54Z</time>
      </trkpt>
      <trkpt lat="44.42228" lon="5.24221">
        <ele>613</ele>
        <time>2022-09-29T12:02:55Z</time>
      </trkpt>
      <trkpt lat="44.42227" lon="5.24222">
        <ele>613</ele>
        <time>2022-09-29T12:02:56Z</time>
      </trkpt>
      <trkpt lat="44.42226" lon="5.24223">
        <ele>613</ele>
        <time>2022-09-29T12:02:57Z</time>
      </trkpt>
      <trkpt lat="44.42226" lon="5.24224">
        <ele>613</ele>
        <time>2022-09-29T12:02:58Z</time>
      </trkpt>
      <trkpt lat="44.42225" lon="5.24225">
        <ele>613</ele>
        <time>2022-09-29T12:02:59Z</time>
      </trkpt>
      <trkpt lat="44.42224" lon="5.24226">
        <ele>613</ele>
        <time>2022-09-29T12:03:00Z</time>
      </trkpt>
      <trkpt lat="44.42223" lon="5.24227">
        <ele>613</ele>
        <time>2022-09-29T12:03:01Z</time>
      </trkpt>
      <trkpt lat="44.42223" lon="5.24227">
        <ele>613</ele>
        <time>2022-09-29T12:03:02Z</time>
      </trkpt>
      <trkpt lat="44.42223" lon="5.24227">
        <ele>614</ele>
        <time>2022-09-29T12:03:03Z</time>
      </trkpt>
      <trkpt lat="44.42222" lon="5.24227">
        <ele>614</ele>
        <time>2022-09-29T12:03:04Z</time>
      </trkpt>
      <trkpt lat="44.42222" lon="5.24228">
        <ele>614</ele>
        <time>2022-09-29T12:03:05Z</time>
      </trkpt>
      <trkpt lat="44.42222" lon="5.24228">
        <ele>614</ele>
        <time>2022-09-29T12:03:06Z</time>
      </trkpt>
      <trkpt lat="44.42221" lon="5.24229">
        <ele>614</ele>
        <time>2022-09-29T12:03:07Z</time>
      </trkpt>
      <trkpt lat="44.42221" lon="5.2423">
        <ele>614</ele>
        <time>2022-09-29T12:03:08Z</time>
      </trkpt>
      <trkpt lat="44.4222" lon="5.24231">
        <ele>614</ele>
        <time>2022-09-29T12:03:09Z</time>
      </trkpt>
      <trkpt lat="44.4222" lon="5.24232">
        <ele>614</ele>
        <time>2022-09-29T12:03:10Z</time>
      </trkpt>
      <trkpt lat="44.4222" lon="5.24233">
        <ele>614</ele>
        <time>2022-09-29T12:03:11Z</time>
      </trkpt>
      <trkpt lat="44.42219" lon="5.24234">
        <ele>614</ele>
        <time>2022-09-29T12:03:12Z</time>
      </trkpt>
      <trkpt lat="44.42218" lon="5.24238">
        <ele>615</ele>
        <time>2022-09-29T12:03:33Z</time>
      </trkpt>
      <trkpt lat="44.42218" lon="5.24239">
        <ele>615</ele>
        <time>2022-09-29T12:03:34Z</time>
      </trkpt>
      <trkpt lat="44.42217" lon="5.24241">
        <ele>615</ele>
        <time>2022-09-29T12:03:35Z</time>
      </trkpt>
      <trkpt lat="44.42217" lon="5.24241">
        <ele>615</ele>
        <time>2022-09-29T12:03:36Z</time>
      </trkpt>
      <trkpt lat="44.42217" lon="5.24242">
        <ele>615</ele>
        <time>2022-09-29T12:03:37Z</time>
      </trkpt>
      <trkpt lat="44.42216" lon="5.24243">
        <ele>615</ele>
        <time>2022-09-29T12:03:38Z</time>
      </trkpt>
      <trkpt lat="44.42216" lon="5.24244">
        <ele>615</ele>
        <time>2022-09-29T12:03:39Z</time>
      </trkpt>
      <trkpt lat="44.42216" lon="5.24245">
        <ele>615</ele>
        <time>2022-09-29T12:03:40Z</time>
      </trkpt>
      <trkpt lat="44.42215" lon="5.24246">
        <ele>615</ele>
        <time>2022-09-29T12:03:41Z</time>
      </trkpt>
      <trkpt lat="44.42215" lon="5.24247">
        <ele>615</ele>
        <time>2022-09-29T12:03:42Z</time>
      </trkpt>
      <trkpt lat="44.42214" lon="5.24248">
        <ele>616</ele>
        <time>2022-09-29T12:03:43Z</time>
      </trkpt>
      <trkpt lat="44.42214" lon="5.24248">
        <ele>616</ele>
        <time>2022-09-29T12:03:44Z</time>
      </trkpt>
      <trkpt lat="44.42213" lon="5.24249">
        <ele>616</ele>
        <time>2022-09-29T12:03:45Z</time>
      </trkpt>
      <trkpt lat="44.42213" lon="5.2425">
        <ele>616</ele>
        <time>2022-09-29T12:03:46Z</time>
      </trkpt>
      <trkpt lat="44.42212" lon="5.24251">
        <ele>616</ele>
        <time>2022-09-29T12:03:47Z</time>
      </trkpt>
      <trkpt lat="44.42211" lon="5.24252">
        <ele>616</ele>
        <time>2022-09-29T12:03:48Z</time>
      </trkpt>
      <trkpt lat="44.42211" lon="5.24252">
        <ele>616</ele>
        <time>2022-09-29T12:03:49Z</time>
      </trkpt>
      <trkpt lat="44.4221" lon="5.24253">
        <ele>616</ele>
        <time>2022-09-29T12:03:50Z</time>
      </trkpt>
      <trkpt lat="44.4221" lon="5.24254">
        <ele>616</ele>
        <time>2022-09-29T12:03:51Z</time>
      </trkpt>
      <trkpt lat="44.42209" lon="5.24255">
        <ele>616</ele>
        <time>2022-09-29T12:03:52Z</time>
      </trkpt>
      <trkpt lat="44.42209" lon="5.24256">
        <ele>616</ele>
        <time>2022-09-29T12:03:53Z</time>
      </trkpt>
      <trkpt lat="44.42208" lon="5.24257">
        <ele>616</ele>
        <time>2022-09-29T12:03:54Z</time>
      </trkpt>
      <trkpt lat="44.42208" lon="5.24257">
        <ele>616</ele>
        <time>2022-09-29T12:03:55Z</time>
      </trkpt>
      <trkpt lat="44.42207" lon="5.24258">
        <ele>616</ele>
        <time>2022-09-29T12:03:56Z</time>
      </trkpt>
      <trkpt lat="44.42207" lon="5.24259">
        <ele>616</ele>
        <time>2022-09-29T12:03:57Z</time>
      </trkpt>
      <trkpt lat="44.42206" lon="5.2426">
        <ele>617</ele>
        <time>2022-09-29T12:03:58Z</time>
      </trkpt>
      <trkpt lat="44.42206" lon="5.24261">
        <ele>617</ele>
        <time>2022-09-29T12:03:59Z</time>
      </trkpt>
      <trkpt lat="44.42205" lon="5.24261">
        <ele>617</ele>
        <time>2022-09-29T12:04:00Z</time>
      </trkpt>
      <trkpt lat="44.42205" lon="5.24262">
        <ele>617</ele>
        <time>2022-09-29T12:04:01Z</time>
      </trkpt>
      <trkpt lat="44.42204" lon="5.24262">
        <ele>617</ele>
        <time>2022-09-29T12:04:02Z</time>
      </trkpt>
      <trkpt lat="44.42203" lon="5.24263">
        <ele>617</ele>
        <time>2022-09-29T12:04:03Z</time>
      </trkpt>
      <trkpt lat="44.42203" lon="5.24263">
        <ele>617</ele>
        <time>2022-09-29T12:04:04Z</time>
      </trkpt>
      <trkpt lat="44.42202" lon="5.24264">
        <ele>617</ele>
        <time>2022-09-29T12:04:05Z</time>
      </trkpt>
      <trkpt lat="44.42201" lon="5.24264">
        <ele>617</ele>
        <time>2022-09-29T12:04:06Z</time>
      </trkpt>
      <trkpt lat="44.422" lon="5.24264">
        <ele>617</ele>
        <time>2022-09-29T12:04:07Z</time>
      </trkpt>
      <trkpt lat="44.422" lon="5.24265">
        <ele>617</ele>
        <time>2022-09-29T12:04:08Z</time>
      </trkpt>
      <trkpt lat="44.42199" lon="5.24265">
        <ele>617</ele>
        <time>2022-09-29T12:04:09Z</time>
      </trkpt>
      <trkpt lat="44.42199" lon="5.24266">
        <ele>617</ele>
        <time>2022-09-29T12:04:10Z</time>
      </trkpt>
      <trkpt lat="44.42198" lon="5.24266">
        <ele>617</ele>
        <time>2022-09-29T12:04:11Z</time>
      </trkpt>
      <trkpt lat="44.42197" lon="5.24266">
        <ele>617</ele>
        <time>2022-09-29T12:04:12Z</time>
      </trkpt>
      <trkpt lat="44.42197" lon="5.24267">
        <ele>617</ele>
        <time>2022-09-29T12:04:13Z</time>
      </trkpt>
      <trkpt lat="44.42196" lon="5.24267">
        <ele>617</ele>
        <time>2022-09-29T12:04:14Z</time>
      </trkpt>
      <trkpt lat="44.42195" lon="5.24268">
        <ele>617</ele>
        <time>2022-09-29T12:04:15Z</time>
      </trkpt>
      <trkpt lat="44.42193" lon="5.24268">
        <ele>617</ele>
        <time>2022-09-29T12:04:16Z</time>
      </trkpt>
      <trkpt lat="44.42192" lon="5.24269">
        <ele>617</ele>
        <time>2022-09-29T12:04:17Z</time>
      </trkpt>
      <trkpt lat="44.42191" lon="5.2427">
        <ele>617</ele>
        <time>2022-09-29T12:04:18Z</time>
      </trkpt>
      <trkpt lat="44.4219" lon="5.24271">
        <ele>617</ele>
        <time>2022-09-29T12:04:19Z</time>
      </trkpt>
      <trkpt lat="44.42189" lon="5.24271">
        <ele>617</ele>
        <time>2022-09-29T12:04:20Z</time>
      </trkpt>
      <trkpt lat="44.42188" lon="5.24272">
        <ele>617</ele>
        <time>2022-09-29T12:04:21Z</time>
      </trkpt>
      <trkpt lat="44.42188" lon="5.24272">
        <ele>617</ele>
        <time>2022-09-29T12:04:22Z</time>
      </trkpt>
      <trkpt lat="44.42187" lon="5.24273">
        <ele>617</ele>
        <time>2022-09-29T12:04:23Z</time>
      </trkpt>
      <trkpt lat="44.42186" lon="5.24274">
        <ele>616</ele>
        <time>2022-09-29T12:04:24Z</time>
      </trkpt>
      <trkpt lat="44.42186" lon="5.24275">
        <ele>616</ele>
        <time>2022-09-29T12:04:25Z</time>
      </trkpt>
      <trkpt lat="44.42185" lon="5.24276">
        <ele>616</ele>
        <time>2022-09-29T12:04:26Z</time>
      </trkpt>
      <trkpt lat="44.42185" lon="5.24277">
        <ele>616</ele>
        <time>2022-09-29T12:04:27Z</time>
      </trkpt>
      <trkpt lat="44.42184" lon="5.24279">
        <ele>616</ele>
        <time>2022-09-29T12:04:28Z</time>
      </trkpt>
      <trkpt lat="44.42183" lon="5.24281">
        <ele>616</ele>
        <time>2022-09-29T12:04:29Z</time>
      </trkpt>
      <trkpt lat="44.42182" lon="5.24283">
        <ele>616</ele>
        <time>2022-09-29T12:04:30Z</time>
      </trkpt>
      <trkpt lat="44.42181" lon="5.24284">
        <ele>616</ele>
        <time>2022-09-29T12:04:31Z</time>
      </trkpt>
      <trkpt lat="44.4218" lon="5.24284">
        <ele>616</ele>
        <time>2022-09-29T12:04:32Z</time>
      </trkpt>
      <trkpt lat="44.42179" lon="5.24285">
        <ele>616</ele>
        <time>2022-09-29T12:04:33Z</time>
      </trkpt>
      <trkpt lat="44.42179" lon="5.24285">
        <ele>616</ele>
        <time>2022-09-29T12:04:34Z</time>
      </trkpt>
      <trkpt lat="44.42179" lon="5.24285">
        <ele>616</ele>
        <time>2022-09-29T12:04:35Z</time>
      </trkpt>
      <trkpt lat="44.42178" lon="5.24285">
        <ele>616</ele>
        <time>2022-09-29T12:04:36Z</time>
      </trkpt>
      <trkpt lat="44.42178" lon="5.24286">
        <ele>616</ele>
        <time>2022-09-29T12:04:37Z</time>
      </trkpt>
      <trkpt lat="44.42177" lon="5.24286">
        <ele>616</ele>
        <time>2022-09-29T12:04:38Z</time>
      </trkpt>
      <trkpt lat="44.42177" lon="5.24287">
        <ele>616</ele>
        <time>2022-09-29T12:04:39Z</time>
      </trkpt>
      <trkpt lat="44.42176" lon="5.24287">
        <ele>616</ele>
        <time>2022-09-29T12:04:40Z</time>
      </trkpt>
      <trkpt lat="44.42176" lon="5.24287">
        <ele>616</ele>
        <time>2022-09-29T12:04:41Z</time>
      </trkpt>
      <trkpt lat="44.42175" lon="5.24288">
        <ele>616</ele>
        <time>2022-09-29T12:04:42Z</time>
      </trkpt>
      <trkpt lat="44.42175" lon="5.24288">
        <ele>616</ele>
        <time>2022-09-29T12:04:43Z</time>
      </trkpt>
      <trkpt lat="44.42174" lon="5.24289">
        <ele>616</ele>
        <time>2022-09-29T12:04:44Z</time>
      </trkpt>
      <trkpt lat="44.42173" lon="5.24289">
        <ele>616</ele>
        <time>2022-09-29T12:04:45Z</time>
      </trkpt>
      <trkpt lat="44.42173" lon="5.2429">
        <ele>616</ele>
        <time>2022-09-29T12:04:46Z</time>
      </trkpt>
      <trkpt lat="44.42172" lon="5.2429">
        <ele>616</ele>
        <time>2022-09-29T12:04:47Z</time>
      </trkpt>
      <trkpt lat="44.42172" lon="5.24291">
        <ele>616</ele>
        <time>2022-09-29T12:04:48Z</time>
      </trkpt>
      <trkpt lat="44.42171" lon="5.24291">
        <ele>616</ele>
        <time>2022-09-29T12:04:49Z</time>
      </trkpt>
      <trkpt lat="44.42171" lon="5.24291">
        <ele>616</ele>
        <time>2022-09-29T12:04:50Z</time>
      </trkpt>
      <trkpt lat="44.42171" lon="5.24291">
        <ele>616</ele>
        <time>2022-09-29T12:04:51Z</time>
      </trkpt>
      <trkpt lat="44.4217" lon="5.24292">
        <ele>616</ele>
        <time>2022-09-29T12:04:52Z</time>
      </trkpt>
      <trkpt lat="44.42169" lon="5.24292">
        <ele>616</ele>
        <time>2022-09-29T12:04:53Z</time>
      </trkpt>
      <trkpt lat="44.42169" lon="5.24293">
        <ele>616</ele>
        <time>2022-09-29T12:04:54Z</time>
      </trkpt>
      <trkpt lat="44.42168" lon="5.24293">
        <ele>616</ele>
        <time>2022-09-29T12:04:55Z</time>
      </trkpt>
      <trkpt lat="44.42168" lon="5.24294">
        <ele>616</ele>
        <time>2022-09-29T12:04:56Z</time>
      </trkpt>
      <trkpt lat="44.42167" lon="5.24294">
        <ele>616</ele>
        <time>2022-09-29T12:04:57Z</time>
      </trkpt>
      <trkpt lat="44.42167" lon="5.24295">
        <ele>616</ele>
        <time>2022-09-29T12:04:58Z</time>
      </trkpt>
      <trkpt lat="44.42166" lon="5.24296">
        <ele>616</ele>
        <time>2022-09-29T12:04:59Z</time>
      </trkpt>
      <trkpt lat="44.42166" lon="5.24297">
        <ele>616</ele>
        <time>2022-09-29T12:05:00Z</time>
      </trkpt>
      <trkpt lat="44.42165" lon="5.24298">
        <ele>616</ele>
        <time>2022-09-29T12:05:01Z</time>
      </trkpt>
      <trkpt lat="44.42165" lon="5.24299">
        <ele>616</ele>
        <time>2022-09-29T12:05:02Z</time>
      </trkpt>
      <trkpt lat="44.42165" lon="5.243">
        <ele>616</ele>
        <time>2022-09-29T12:05:03Z</time>
      </trkpt>
      <trkpt lat="44.42165" lon="5.24301">
        <ele>616</ele>
        <time>2022-09-29T12:05:04Z</time>
      </trkpt>
      <trkpt lat="44.42165" lon="5.24302">
        <ele>616</ele>
        <time>2022-09-29T12:05:05Z</time>
      </trkpt>
      <trkpt lat="44.42165" lon="5.24303">
        <ele>616</ele>
        <time>2022-09-29T12:05:06Z</time>
      </trkpt>
      <trkpt lat="44.42165" lon="5.24304">
        <ele>616</ele>
        <time>2022-09-29T12:05:07Z</time>
      </trkpt>
      <trkpt lat="44.42164" lon="5.24305">
        <ele>617</ele>
        <time>2022-09-29T12:05:08Z</time>
      </trkpt>
      <trkpt lat="44.42164" lon="5.24306">
        <ele>617</ele>
        <time>2022-09-29T12:05:09Z</time>
      </trkpt>
      <trkpt lat="44.42164" lon="5.24307">
        <ele>617</ele>
        <time>2022-09-29T12:05:10Z</time>
      </trkpt>
      <trkpt lat="44.42163" lon="5.24309">
        <ele>617</ele>
        <time>2022-09-29T12:05:11Z</time>
      </trkpt>
      <trkpt lat="44.42162" lon="5.2431">
        <ele>617</ele>
        <time>2022-09-29T12:05:12Z</time>
      </trkpt>
      <trkpt lat="44.42162" lon="5.24311">
        <ele>617</ele>
        <time>2022-09-29T12:05:13Z</time>
      </trkpt>
      <trkpt lat="44.42161" lon="5.24312">
        <ele>617</ele>
        <time>2022-09-29T12:05:14Z</time>
      </trkpt>
      <trkpt lat="44.42161" lon="5.24313">
        <ele>617</ele>
        <time>2022-09-29T12:05:15Z</time>
      </trkpt>
      <trkpt lat="44.4216" lon="5.24314">
        <ele>617</ele>
        <time>2022-09-29T12:05:16Z</time>
      </trkpt>
      <trkpt lat="44.4216" lon="5.24315">
        <ele>617</ele>
        <time>2022-09-29T12:05:17Z</time>
      </trkpt>
      <trkpt lat="44.42159" lon="5.24316">
        <ele>618</ele>
        <time>2022-09-29T12:05:18Z</time>
      </trkpt>
      <trkpt lat="44.42158" lon="5.24317">
        <ele>618</ele>
        <time>2022-09-29T12:05:19Z</time>
      </trkpt>
      <trkpt lat="44.42158" lon="5.24318">
        <ele>618</ele>
        <time>2022-09-29T12:05:20Z</time>
      </trkpt>
      <trkpt lat="44.42157" lon="5.24319">
        <ele>618</ele>
        <time>2022-09-29T12:05:21Z</time>
      </trkpt>
      <trkpt lat="44.42156" lon="5.24319">
        <ele>618</ele>
        <time>2022-09-29T12:05:22Z</time>
      </trkpt>
      <trkpt lat="44.42155" lon="5.2432">
        <ele>618</ele>
        <time>2022-09-29T12:05:23Z</time>
      </trkpt>
      <trkpt lat="44.42155" lon="5.24321">
        <ele>618</ele>
        <time>2022-09-29T12:05:24Z</time>
      </trkpt>
      <trkpt lat="44.42154" lon="5.24322">
        <ele>618</ele>
        <time>2022-09-29T12:05:25Z</time>
      </trkpt>
      <trkpt lat="44.42154" lon="5.24323">
        <ele>618</ele>
        <time>2022-09-29T12:05:26Z</time>
      </trkpt>
      <trkpt lat="44.42153" lon="5.24324">
        <ele>618</ele>
        <time>2022-09-29T12:05:27Z</time>
      </trkpt>
      <trkpt lat="44.42153" lon="5.24325">
        <ele>618</ele>
        <time>2022-09-29T12:05:28Z</time>
      </trkpt>
      <trkpt lat="44.42152" lon="5.24326">
        <ele>618</ele>
        <time>2022-09-29T12:05:29Z</time>
      </trkpt>
      <trkpt lat="44.42151" lon="5.24327">
        <ele>618</ele>
        <time>2022-09-29T12:05:30Z</time>
      </trkpt>
      <trkpt lat="44.42151" lon="5.24328">
        <ele>618</ele>
        <time>2022-09-29T12:05:31Z</time>
      </trkpt>
      <trkpt lat="44.4215" lon="5.24329">
        <ele>618</ele>
        <time>2022-09-29T12:05:32Z</time>
      </trkpt>
      <trkpt lat="44.42149" lon="5.2433">
        <ele>618</ele>
        <time>2022-09-29T12:05:33Z</time>
      </trkpt>
      <trkpt lat="44.42149" lon="5.24331">
        <ele>618</ele>
        <time>2022-09-29T12:05:34Z</time>
      </trkpt>
      <trkpt lat="44.42148" lon="5.24332">
        <ele>618</ele>
        <time>2022-09-29T12:05:35Z</time>
      </trkpt>
      <trkpt lat="44.42147" lon="5.24333">
        <ele>618</ele>
        <time>2022-09-29T12:05:36Z</time>
      </trkpt>
      <trkpt lat="44.42147" lon="5.24334">
        <ele>618</ele>
        <time>2022-09-29T12:05:37Z</time>
      </trkpt>
      <trkpt lat="44.42146" lon="5.24335">
        <ele>619</ele>
        <time>2022-09-29T12:05:38Z</time>
      </trkpt>
      <trkpt lat="44.42145" lon="5.24336">
        <ele>619</ele>
        <time>2022-09-29T12:05:39Z</time>
      </trkpt>
      <trkpt lat="44.42145" lon="5.24337">
        <ele>619</ele>
        <time>2022-09-29T12:05:40Z</time>
      </trkpt>
      <trkpt lat="44.42144" lon="5.24338">
        <ele>619</ele>
        <time>2022-09-29T12:05:41Z</time>
      </trkpt>
      <trkpt lat="44.42143" lon="5.24339">
        <ele>619</ele>
        <time>2022-09-29T12:05:42Z</time>
      </trkpt>
      <trkpt lat="44.42142" lon="5.2434">
        <ele>619</ele>
        <time>2022-09-29T12:05:43Z</time>
      </trkpt>
      <trkpt lat="44.42141" lon="5.24341">
        <ele>619</ele>
        <time>2022-09-29T12:05:44Z</time>
      </trkpt>
      <trkpt lat="44.4214" lon="5.24342">
        <ele>619</ele>
        <time>2022-09-29T12:05:45Z</time>
      </trkpt>
      <trkpt lat="44.4214" lon="5.24342">
        <ele>619</ele>
        <time>2022-09-29T12:05:46Z</time>
      </trkpt>
      <trkpt lat="44.42139" lon="5.24343">
        <ele>619</ele>
        <time>2022-09-29T12:05:47Z</time>
      </trkpt>
      <trkpt lat="44.42138" lon="5.24344">
        <ele>619</ele>
        <time>2022-09-29T12:05:48Z</time>
      </trkpt>
      <trkpt lat="44.42137" lon="5.24344">
        <ele>619</ele>
        <time>2022-09-29T12:05:49Z</time>
      </trkpt>
      <trkpt lat="44.42137" lon="5.24345">
        <ele>619</ele>
        <time>2022-09-29T12:05:50Z</time>
      </trkpt>
      <trkpt lat="44.42136" lon="5.24345">
        <ele>619</ele>
        <time>2022-09-29T12:05:51Z</time>
      </trkpt>
      <trkpt lat="44.42135" lon="5.24346">
        <ele>619</ele>
        <time>2022-09-29T12:05:52Z</time>
      </trkpt>
      <trkpt lat="44.42135" lon="5.24346">
        <ele>619</ele>
        <time>2022-09-29T12:05:53Z</time>
      </trkpt>
      <trkpt lat="44.42134" lon="5.24347">
        <ele>619</ele>
        <time>2022-09-29T12:05:54Z</time>
      </trkpt>
      <trkpt lat="44.42133" lon="5.24348">
        <ele>619</ele>
        <time>2022-09-29T12:05:55Z</time>
      </trkpt>
      <trkpt lat="44.42132" lon="5.24349">
        <ele>619</ele>
        <time>2022-09-29T12:05:56Z</time>
      </trkpt>
      <trkpt lat="44.42132" lon="5.2435">
        <ele>619</ele>
        <time>2022-09-29T12:05:57Z</time>
      </trkpt>
      <trkpt lat="44.42131" lon="5.24351">
        <ele>619</ele>
        <time>2022-09-29T12:05:58Z</time>
      </trkpt>
      <trkpt lat="44.42131" lon="5.24352">
        <ele>619</ele>
        <time>2022-09-29T12:05:59Z</time>
      </trkpt>
      <trkpt lat="44.4213" lon="5.24352">
        <ele>619</ele>
        <time>2022-09-29T12:06:00Z</time>
      </trkpt>
      <trkpt lat="44.4213" lon="5.24353">
        <ele>619</ele>
        <time>2022-09-29T12:06:01Z</time>
      </trkpt>
      <trkpt lat="44.42129" lon="5.24353">
        <ele>619</ele>
        <time>2022-09-29T12:06:02Z</time>
      </trkpt>
      <trkpt lat="44.42128" lon="5.24353">
        <ele>619</ele>
        <time>2022-09-29T12:06:03Z</time>
      </trkpt>
      <trkpt lat="44.42128" lon="5.24354">
        <ele>619</ele>
        <time>2022-09-29T12:06:04Z</time>
      </trkpt>
      <trkpt lat="44.42127" lon="5.24354">
        <ele>619</ele>
        <time>2022-09-29T12:06:05Z</time>
      </trkpt>
      <trkpt lat="44.42126" lon="5.24354">
        <ele>619</ele>
        <time>2022-09-29T12:06:06Z</time>
      </trkpt>
      <trkpt lat="44.42125" lon="5.24355">
        <ele>619</ele>
        <time>2022-09-29T12:06:07Z</time>
      </trkpt>
      <trkpt lat="44.42125" lon="5.24355">
        <ele>619</ele>
        <time>2022-09-29T12:06:08Z</time>
      </trkpt>
      <trkpt lat="44.42124" lon="5.24356">
        <ele>619</ele>
        <time>2022-09-29T12:06:09Z</time>
      </trkpt>
      <trkpt lat="44.42123" lon="5.24356">
        <ele>619</ele>
        <time>2022-09-29T12:06:10Z</time>
      </trkpt>
      <trkpt lat="44.42123" lon="5.24357">
        <ele>619</ele>
        <time>2022-09-29T12:06:11Z</time>
      </trkpt>
      <trkpt lat="44.42122" lon="5.24358">
        <ele>619</ele>
        <time>2022-09-29T12:06:12Z</time>
      </trkpt>
      <trkpt lat="44.42122" lon="5.24359">
        <ele>619</ele>
        <time>2022-09-29T12:06:13Z</time>
      </trkpt>
      <trkpt lat="44.42121" lon="5.24359">
        <ele>619</ele>
        <time>2022-09-29T12:06:14Z</time>
      </trkpt>
      <trkpt lat="44.42121" lon="5.2436">
        <ele>619</ele>
        <time>2022-09-29T12:06:15Z</time>
      </trkpt>
      <trkpt lat="44.4212" lon="5.24361">
        <ele>619</ele>
        <time>2022-09-29T12:06:16Z</time>
      </trkpt>
      <trkpt lat="44.42119" lon="5.24362">
        <ele>619</ele>
        <time>2022-09-29T12:06:17Z</time>
      </trkpt>
      <trkpt lat="44.42119" lon="5.24362">
        <ele>619</ele>
        <time>2022-09-29T12:06:18Z</time>
      </trkpt>
      <trkpt lat="44.42118" lon="5.24363">
        <ele>619</ele>
        <time>2022-09-29T12:06:19Z</time>
      </trkpt>
      <trkpt lat="44.42117" lon="5.24363">
        <ele>619</ele>
        <time>2022-09-29T12:06:20Z</time>
      </trkpt>
      <trkpt lat="44.42116" lon="5.24364">
        <ele>619</ele>
        <time>2022-09-29T12:06:21Z</time>
      </trkpt>
      <trkpt lat="44.42115" lon="5.24364">
        <ele>619</ele>
        <time>2022-09-29T12:06:22Z</time>
      </trkpt>
      <trkpt lat="44.42114" lon="5.24364">
        <ele>619</ele>
        <time>2022-09-29T12:06:23Z</time>
      </trkpt>
      <trkpt lat="44.42113" lon="5.24364">
        <ele>618</ele>
        <time>2022-09-29T12:06:24Z</time>
      </trkpt>
      <trkpt lat="44.42113" lon="5.24365">
        <ele>618</ele>
        <time>2022-09-29T12:06:25Z</time>
      </trkpt>
      <trkpt lat="44.42112" lon="5.24365">
        <ele>618</ele>
        <time>2022-09-29T12:06:26Z</time>
      </trkpt>
      <trkpt lat="44.42111" lon="5.24365">
        <ele>618</ele>
        <time>2022-09-29T12:06:27Z</time>
      </trkpt>
      <trkpt lat="44.42111" lon="5.24365">
        <ele>618</ele>
        <time>2022-09-29T12:06:28Z</time>
      </trkpt>
      <trkpt lat="44.4211" lon="5.24366">
        <ele>618</ele>
        <time>2022-09-29T12:06:29Z</time>
      </trkpt>
      <trkpt lat="44.42109" lon="5.24366">
        <ele>618</ele>
        <time>2022-09-29T12:06:30Z</time>
      </trkpt>
      <trkpt lat="44.42108" lon="5.24367">
        <ele>618</ele>
        <time>2022-09-29T12:06:31Z</time>
      </trkpt>
      <trkpt lat="44.42107" lon="5.24367">
        <ele>618</ele>
        <time>2022-09-29T12:06:32Z</time>
      </trkpt>
      <trkpt lat="44.42106" lon="5.24368">
        <ele>618</ele>
        <time>2022-09-29T12:06:33Z</time>
      </trkpt>
      <trkpt lat="44.42105" lon="5.24368">
        <ele>617</ele>
        <time>2022-09-29T12:06:34Z</time>
      </trkpt>
      <trkpt lat="44.42104" lon="5.24369">
        <ele>617</ele>
        <time>2022-09-29T12:06:35Z</time>
      </trkpt>
      <trkpt lat="44.42103" lon="5.24369">
        <ele>617</ele>
        <time>2022-09-29T12:06:36Z</time>
      </trkpt>
      <trkpt lat="44.42102" lon="5.2437">
        <ele>617</ele>
        <time>2022-09-29T12:06:37Z</time>
      </trkpt>
      <trkpt lat="44.42101" lon="5.2437">
        <ele>617</ele>
        <time>2022-09-29T12:06:38Z</time>
      </trkpt>
      <trkpt lat="44.421" lon="5.24371">
        <ele>616</ele>
        <time>2022-09-29T12:06:39Z</time>
      </trkpt>
      <trkpt lat="44.421" lon="5.24372">
        <ele>615</ele>
        <time>2022-09-29T12:07:25Z</time>
      </trkpt>
      <trkpt lat="44.421" lon="5.24372">
        <ele>615</ele>
        <time>2022-09-29T12:07:26Z</time>
      </trkpt>
      <trkpt lat="44.421" lon="5.24372">
        <ele>615</ele>
        <time>2022-09-29T12:07:27Z</time>
      </trkpt>
      <trkpt lat="44.42099" lon="5.24372">
        <ele>615</ele>
        <time>2022-09-29T12:07:28Z</time>
      </trkpt>
      <trkpt lat="44.42099" lon="5.24373">
        <ele>615</ele>
        <time>2022-09-29T12:07:29Z</time>
      </trkpt>
      <trkpt lat="44.42099" lon="5.24373">
        <ele>615</ele>
        <time>2022-09-29T12:07:30Z</time>
      </trkpt>
      <trkpt lat="44.42098" lon="5.24374">
        <ele>615</ele>
        <time>2022-09-29T12:07:31Z</time>
      </trkpt>
      <trkpt lat="44.42098" lon="5.24374">
        <ele>615</ele>
        <time>2022-09-29T12:07:32Z</time>
      </trkpt>
      <trkpt lat="44.42097" lon="5.24374">
        <ele>615</ele>
        <time>2022-09-29T12:07:33Z</time>
      </trkpt>
      <trkpt lat="44.42097" lon="5.24375">
        <ele>615</ele>
        <time>2022-09-29T12:07:34Z</time>
      </trkpt>
      <trkpt lat="44.42096" lon="5.24375">
        <ele>615</ele>
        <time>2022-09-29T12:07:35Z</time>
      </trkpt>
      <trkpt lat="44.42096" lon="5.24376">
        <ele>615</ele>
        <time>2022-09-29T12:07:36Z</time>
      </trkpt>
      <trkpt lat="44.42095" lon="5.24377">
        <ele>615</ele>
        <time>2022-09-29T12:07:37Z</time>
      </trkpt>
      <trkpt lat="44.42095" lon="5.24378">
        <ele>615</ele>
        <time>2022-09-29T12:07:38Z</time>
      </trkpt>
      <trkpt lat="44.42094" lon="5.24378">
        <ele>615</ele>
        <time>2022-09-29T12:07:39Z</time>
      </trkpt>
      <trkpt lat="44.42094" lon="5.24379">
        <ele>615</ele>
        <time>2022-09-29T12:07:40Z</time>
      </trkpt>
      <trkpt lat="44.42094" lon="5.24379">
        <ele>615</ele>
        <time>2022-09-29T12:07:41Z</time>
      </trkpt>
      <trkpt lat="44.42094" lon="5.2438">
        <ele>615</ele>
        <time>2022-09-29T12:07:42Z</time>
      </trkpt>
      <trkpt lat="44.42093" lon="5.24381">
        <ele>615</ele>
        <time>2022-09-29T12:07:43Z</time>
      </trkpt>
      <trkpt lat="44.42092" lon="5.24382">
        <ele>615</ele>
        <time>2022-09-29T12:07:44Z</time>
      </trkpt>
      <trkpt lat="44.42092" lon="5.24382">
        <ele>615</ele>
        <time>2022-09-29T12:07:45Z</time>
      </trkpt>
      <trkpt lat="44.42091" lon="5.24383">
        <ele>615</ele>
        <time>2022-09-29T12:07:46Z</time>
      </trkpt>
      <trkpt lat="44.4209" lon="5.24383">
        <ele>615</ele>
        <time>2022-09-29T12:07:47Z</time>
      </trkpt>
      <trkpt lat="44.42089" lon="5.24384">
        <ele>615</ele>
        <time>2022-09-29T12:07:48Z</time>
      </trkpt>
      <trkpt lat="44.42088" lon="5.24384">
        <ele>614</ele>
        <time>2022-09-29T12:07:49Z</time>
      </trkpt>
      <trkpt lat="44.42087" lon="5.24385">
        <ele>614</ele>
        <time>2022-09-29T12:07:50Z</time>
      </trkpt>
      <trkpt lat="44.42086" lon="5.24385">
        <ele>614</ele>
        <time>2022-09-29T12:07:51Z</time>
      </trkpt>
      <trkpt lat="44.42085" lon="5.24386">
        <ele>614</ele>
        <time>2022-09-29T12:07:52Z</time>
      </trkpt>
      <trkpt lat="44.42084" lon="5.24386">
        <ele>614</ele>
        <time>2022-09-29T12:07:53Z</time>
      </trkpt>
      <trkpt lat="44.42084" lon="5.24387">
        <ele>613</ele>
        <time>2022-09-29T12:07:54Z</time>
      </trkpt>
      <trkpt lat="44.42083" lon="5.24387">
        <ele>613</ele>
        <time>2022-09-29T12:07:55Z</time>
      </trkpt>
      <trkpt lat="44.42082" lon="5.24388">
        <ele>613</ele>
        <time>2022-09-29T12:07:56Z</time>
      </trkpt>
      <trkpt lat="44.42082" lon="5.24389">
        <ele>613</ele>
        <time>2022-09-29T12:07:57Z</time>
      </trkpt>
      <trkpt lat="44.42081" lon="5.24389">
        <ele>613</ele>
        <time>2022-09-29T12:07:58Z</time>
      </trkpt>
      <trkpt lat="44.42081" lon="5.2439">
        <ele>612</ele>
        <time>2022-09-29T12:07:59Z</time>
      </trkpt>
      <trkpt lat="44.42081" lon="5.2439">
        <ele>612</ele>
        <time>2022-09-29T12:08:00Z</time>
      </trkpt>
      <trkpt lat="44.4208" lon="5.24391">
        <ele>612</ele>
        <time>2022-09-29T12:08:01Z</time>
      </trkpt>
      <trkpt lat="44.4208" lon="5.24392">
        <ele>612</ele>
        <time>2022-09-29T12:08:02Z</time>
      </trkpt>
      <trkpt lat="44.42079" lon="5.24393">
        <ele>612</ele>
        <time>2022-09-29T12:08:03Z</time>
      </trkpt>
      <trkpt lat="44.42078" lon="5.24393">
        <ele>611</ele>
        <time>2022-09-29T12:08:04Z</time>
      </trkpt>
      <trkpt lat="44.42077" lon="5.24394">
        <ele>611</ele>
        <time>2022-09-29T12:08:05Z</time>
      </trkpt>
      <trkpt lat="44.42076" lon="5.24395">
        <ele>611</ele>
        <time>2022-09-29T12:08:06Z</time>
      </trkpt>
      <trkpt lat="44.42075" lon="5.24395">
        <ele>611</ele>
        <time>2022-09-29T12:08:07Z</time>
      </trkpt>
      <trkpt lat="44.42074" lon="5.24396">
        <ele>611</ele>
        <time>2022-09-29T12:08:08Z</time>
      </trkpt>
      <trkpt lat="44.42073" lon="5.24396">
        <ele>611</ele>
        <time>2022-09-29T12:08:09Z</time>
      </trkpt>
      <trkpt lat="44.42072" lon="5.24396">
        <ele>611</ele>
        <time>2022-09-29T12:08:10Z</time>
      </trkpt>
      <trkpt lat="44.42071" lon="5.24396">
        <ele>611</ele>
        <time>2022-09-29T12:08:11Z</time>
      </trkpt>
      <trkpt lat="44.42071" lon="5.24396">
        <ele>611</ele>
        <time>2022-09-29T12:08:12Z</time>
      </trkpt>
      <trkpt lat="44.4207" lon="5.24396">
        <ele>611</ele>
        <time>2022-09-29T12:08:13Z</time>
      </trkpt>
      <trkpt lat="44.4207" lon="5.24396">
        <ele>610</ele>
        <time>2022-09-29T12:08:14Z</time>
      </trkpt>
      <trkpt lat="44.4207" lon="5.24395">
        <ele>610</ele>
        <time>2022-09-29T12:08:15Z</time>
      </trkpt>
      <trkpt lat="44.42069" lon="5.24395">
        <ele>610</ele>
        <time>2022-09-29T12:08:16Z</time>
      </trkpt>
      <trkpt lat="44.42069" lon="5.24395">
        <ele>610</ele>
        <time>2022-09-29T12:08:17Z</time>
      </trkpt>
      <trkpt lat="44.42068" lon="5.24394">
        <ele>610</ele>
        <time>2022-09-29T12:08:18Z</time>
      </trkpt>
      <trkpt lat="44.42067" lon="5.24394">
        <ele>609</ele>
        <time>2022-09-29T12:08:19Z</time>
      </trkpt>
      <trkpt lat="44.42067" lon="5.24393">
        <ele>609</ele>
        <time>2022-09-29T12:08:20Z</time>
      </trkpt>
      <trkpt lat="44.42066" lon="5.24393">
        <ele>609</ele>
        <time>2022-09-29T12:08:21Z</time>
      </trkpt>
      <trkpt lat="44.42066" lon="5.24393">
        <ele>609</ele>
        <time>2022-09-29T12:08:22Z</time>
      </trkpt>
      <trkpt lat="44.42066" lon="5.24393">
        <ele>609</ele>
        <time>2022-09-29T12:08:23Z</time>
      </trkpt>
      <trkpt lat="44.42066" lon="5.24393">
        <ele>608</ele>
        <time>2022-09-29T12:08:24Z</time>
      </trkpt>
      <trkpt lat="44.42065" lon="5.24392">
        <ele>608</ele>
        <time>2022-09-29T12:08:25Z</time>
      </trkpt>
      <trkpt lat="44.42065" lon="5.24392">
        <ele>608</ele>
        <time>2022-09-29T12:08:26Z</time>
      </trkpt>
      <trkpt lat="44.42065" lon="5.24392">
        <ele>608</ele>
        <time>2022-09-29T12:08:27Z</time>
      </trkpt>
      <trkpt lat="44.42064" lon="5.24392">
        <ele>608</ele>
        <time>2022-09-29T12:08:28Z</time>
      </trkpt>
      <trkpt lat="44.42063" lon="5.24392">
        <ele>608</ele>
        <time>2022-09-29T12:08:29Z</time>
      </trkpt>
      <trkpt lat="44.42063" lon="5.24392">
        <ele>608</ele>
        <time>2022-09-29T12:08:30Z</time>
      </trkpt>
      <trkpt lat="44.42063" lon="5.24392">
        <ele>608</ele>
        <time>2022-09-29T12:08:31Z</time>
      </trkpt>
      <trkpt lat="44.42062" lon="5.24391">
        <ele>608</ele>
        <time>2022-09-29T12:08:32Z</time>
      </trkpt>
      <trkpt lat="44.42062" lon="5.24391">
        <ele>608</ele>
        <time>2022-09-29T12:08:33Z</time>
      </trkpt>
      <trkpt lat="44.42061" lon="5.24391">
        <ele>607</ele>
        <time>2022-09-29T12:08:34Z</time>
      </trkpt>
      <trkpt lat="44.42061" lon="5.2439">
        <ele>607</ele>
        <time>2022-09-29T12:08:35Z</time>
      </trkpt>
      <trkpt lat="44.4206" lon="5.2439">
        <ele>607</ele>
        <time>2022-09-29T12:08:36Z</time>
      </trkpt>
      <trkpt lat="44.4206" lon="5.2439">
        <ele>607</ele>
        <time>2022-09-29T12:08:37Z</time>
      </trkpt>
      <trkpt lat="44.42059" lon="5.24389">
        <ele>607</ele>
        <time>2022-09-29T12:08:38Z</time>
      </trkpt>
      <trkpt lat="44.42059" lon="5.24389">
        <ele>606</ele>
        <time>2022-09-29T12:08:39Z</time>
      </trkpt>
      <trkpt lat="44.42058" lon="5.24388">
        <ele>606</ele>
        <time>2022-09-29T12:08:40Z</time>
      </trkpt>
      <trkpt lat="44.42058" lon="5.24387">
        <ele>606</ele>
        <time>2022-09-29T12:08:41Z</time>
      </trkpt>
      <trkpt lat="44.42058" lon="5.24386">
        <ele>606</ele>
        <time>2022-09-29T12:08:42Z</time>
      </trkpt>
      <trkpt lat="44.42057" lon="5.24385">
        <ele>606</ele>
        <time>2022-09-29T12:08:43Z</time>
      </trkpt>
      <trkpt lat="44.42057" lon="5.24385">
        <ele>605</ele>
        <time>2022-09-29T12:08:44Z</time>
      </trkpt>
      <trkpt lat="44.42056" lon="5.24384">
        <ele>605</ele>
        <time>2022-09-29T12:08:45Z</time>
      </trkpt>
      <trkpt lat="44.42055" lon="5.24383">
        <ele>605</ele>
        <time>2022-09-29T12:08:46Z</time>
      </trkpt>
      <trkpt lat="44.42055" lon="5.24382">
        <ele>605</ele>
        <time>2022-09-29T12:08:47Z</time>
      </trkpt>
      <trkpt lat="44.42054" lon="5.24381">
        <ele>605</ele>
        <time>2022-09-29T12:08:48Z</time>
      </trkpt>
      <trkpt lat="44.42053" lon="5.2438">
        <ele>604</ele>
        <time>2022-09-29T12:08:49Z</time>
      </trkpt>
      <trkpt lat="44.42052" lon="5.24379">
        <ele>603</ele>
        <time>2022-09-29T12:08:55Z</time>
      </trkpt>
      <trkpt lat="44.42052" lon="5.24379">
        <ele>603</ele>
        <time>2022-09-29T12:08:56Z</time>
      </trkpt>
      <trkpt lat="44.42051" lon="5.24378">
        <ele>603</ele>
        <time>2022-09-29T12:08:57Z</time>
      </trkpt>
      <trkpt lat="44.42051" lon="5.24377">
        <ele>603</ele>
        <time>2022-09-29T12:08:58Z</time>
      </trkpt>
      <trkpt lat="44.4205" lon="5.24377">
        <ele>602</ele>
        <time>2022-09-29T12:08:59Z</time>
      </trkpt>
      <trkpt lat="44.4205" lon="5.24376">
        <ele>602</ele>
        <time>2022-09-29T12:09:00Z</time>
      </trkpt>
      <trkpt lat="44.4205" lon="5.24375">
        <ele>602</ele>
        <time>2022-09-29T12:09:01Z</time>
      </trkpt>
      <trkpt lat="44.42049" lon="5.24374">
        <ele>601</ele>
        <time>2022-09-29T12:09:07Z</time>
      </trkpt>
      <trkpt lat="44.42048" lon="5.24373">
        <ele>601</ele>
        <time>2022-09-29T12:09:08Z</time>
      </trkpt>
      <trkpt lat="44.42048" lon="5.24372">
        <ele>600</ele>
        <time>2022-09-29T12:09:09Z</time>
      </trkpt>
      <trkpt lat="44.42047" lon="5.24372">
        <ele>600</ele>
        <time>2022-09-29T12:09:10Z</time>
      </trkpt>
      <trkpt lat="44.42047" lon="5.24371">
        <ele>600</ele>
        <time>2022-09-29T12:09:11Z</time>
      </trkpt>
      <trkpt lat="44.42046" lon="5.24371">
        <ele>600</ele>
        <time>2022-09-29T12:09:12Z</time>
      </trkpt>
      <trkpt lat="44.42046" lon="5.24371">
        <ele>600</ele>
        <time>2022-09-29T12:09:13Z</time>
      </trkpt>
      <trkpt lat="44.42045" lon="5.2437">
        <ele>599</ele>
        <time>2022-09-29T12:09:14Z</time>
      </trkpt>
      <trkpt lat="44.42044" lon="5.2437">
        <ele>599</ele>
        <time>2022-09-29T12:09:15Z</time>
      </trkpt>
      <trkpt lat="44.42044" lon="5.24369">
        <ele>598</ele>
        <time>2022-09-29T12:09:16Z</time>
      </trkpt>
      <trkpt lat="44.42043" lon="5.24368">
        <ele>598</ele>
        <time>2022-09-29T12:09:17Z</time>
      </trkpt>
      <trkpt lat="44.42042" lon="5.24369">
        <ele>595</ele>
        <time>2022-09-29T12:09:29Z</time>
      </trkpt>
      <trkpt lat="44.42041" lon="5.2437">
        <ele>595</ele>
        <time>2022-09-29T12:09:30Z</time>
      </trkpt>
      <trkpt lat="44.4204" lon="5.24371">
        <ele>595</ele>
        <time>2022-09-29T12:09:31Z</time>
      </trkpt>
      <trkpt lat="44.42039" lon="5.24371">
        <ele>595</ele>
        <time>2022-09-29T12:09:32Z</time>
      </trkpt>
      <trkpt lat="44.42039" lon="5.24372">
        <ele>595</ele>
        <time>2022-09-29T12:09:33Z</time>
      </trkpt>
      <trkpt lat="44.42038" lon="5.24372">
        <ele>594</ele>
        <time>2022-09-29T12:09:34Z</time>
      </trkpt>
      <trkpt lat="44.42038" lon="5.24373">
        <ele>594</ele>
        <time>2022-09-29T12:09:35Z</time>
      </trkpt>
      <trkpt lat="44.42037" lon="5.24373">
        <ele>594</ele>
        <time>2022-09-29T12:09:36Z</time>
      </trkpt>
      <trkpt lat="44.42037" lon="5.24374">
        <ele>594</ele>
        <time>2022-09-29T12:09:37Z</time>
      </trkpt>
      <trkpt lat="44.42036" lon="5.24375">
        <ele>594</ele>
        <time>2022-09-29T12:09:38Z</time>
      </trkpt>
      <trkpt lat="44.42035" lon="5.24375">
        <ele>594</ele>
        <time>2022-09-29T12:09:39Z</time>
      </trkpt>
      <trkpt lat="44.42035" lon="5.24376">
        <ele>594</ele>
        <time>2022-09-29T12:09:40Z</time>
      </trkpt>
      <trkpt lat="44.42034" lon="5.24376">
        <ele>594</ele>
        <time>2022-09-29T12:09:41Z</time>
      </trkpt>
      <trkpt lat="44.42033" lon="5.24377">
        <ele>594</ele>
        <time>2022-09-29T12:09:42Z</time>
      </trkpt>
      <trkpt lat="44.42032" lon="5.24377">
        <ele>594</ele>
        <time>2022-09-29T12:09:43Z</time>
      </trkpt>
      <trkpt lat="44.42031" lon="5.24378">
        <ele>594</ele>
        <time>2022-09-29T12:09:44Z</time>
      </trkpt>
      <trkpt lat="44.42031" lon="5.24378">
        <ele>594</ele>
        <time>2022-09-29T12:09:45Z</time>
      </trkpt>
      <trkpt lat="44.4203" lon="5.24378">
        <ele>594</ele>
        <time>2022-09-29T12:09:46Z</time>
      </trkpt>
      <trkpt lat="44.42029" lon="5.24378">
        <ele>594</ele>
        <time>2022-09-29T12:09:47Z</time>
      </trkpt>
      <trkpt lat="44.42028" lon="5.24378">
        <ele>594</ele>
        <time>2022-09-29T12:09:48Z</time>
      </trkpt>
      <trkpt lat="44.42025" lon="5.24374">
        <ele>592</ele>
        <time>2022-09-29T12:11:22Z</time>
      </trkpt>
      <trkpt lat="44.42023" lon="5.24372">
        <ele>592</ele>
        <time>2022-09-29T12:11:23Z</time>
      </trkpt>
      <trkpt lat="44.42021" lon="5.24371">
        <ele>591</ele>
        <time>2022-09-29T12:11:24Z</time>
      </trkpt>
      <trkpt lat="44.4202" lon="5.24369">
        <ele>591</ele>
        <time>2022-09-29T12:11:25Z</time>
      </trkpt>
      <trkpt lat="44.42019" lon="5.24368">
        <ele>591</ele>
        <time>2022-09-29T12:11:26Z</time>
      </trkpt>
      <trkpt lat="44.42018" lon="5.24367">
        <ele>591</ele>
        <time>2022-09-29T12:11:27Z</time>
      </trkpt>
      <trkpt lat="44.42018" lon="5.24366">
        <ele>591</ele>
        <time>2022-09-29T12:11:28Z</time>
      </trkpt>
      <trkpt lat="44.42017" lon="5.24365">
        <ele>591</ele>
        <time>2022-09-29T12:11:29Z</time>
      </trkpt>
      <trkpt lat="44.42016" lon="5.24364">
        <ele>591</ele>
        <time>2022-09-29T12:11:30Z</time>
      </trkpt>
      <trkpt lat="44.42015" lon="5.24363">
        <ele>591</ele>
        <time>2022-09-29T12:11:31Z</time>
      </trkpt>
      <trkpt lat="44.42015" lon="5.24362">
        <ele>591</ele>
        <time>2022-09-29T12:11:32Z</time>
      </trkpt>
      <trkpt lat="44.42014" lon="5.24362">
        <ele>591</ele>
        <time>2022-09-29T12:11:33Z</time>
      </trkpt>
      <trkpt lat="44.42013" lon="5.24361">
        <ele>590</ele>
        <time>2022-09-29T12:11:34Z</time>
      </trkpt>
      <trkpt lat="44.42013" lon="5.2436">
        <ele>590</ele>
        <time>2022-09-29T12:11:35Z</time>
      </trkpt>
      <trkpt lat="44.42012" lon="5.24359">
        <ele>590</ele>
        <time>2022-09-29T12:11:36Z</time>
      </trkpt>
      <trkpt lat="44.42012" lon="5.24359">
        <ele>590</ele>
        <time>2022-09-29T12:11:37Z</time>
      </trkpt>
      <trkpt lat="44.42012" lon="5.24358">
        <ele>590</ele>
        <time>2022-09-29T12:11:38Z</time>
      </trkpt>
      <trkpt lat="44.42012" lon="5.24357">
        <ele>589</ele>
        <time>2022-09-29T12:11:39Z</time>
      </trkpt>
      <trkpt lat="44.42012" lon="5.24356">
        <ele>589</ele>
        <time>2022-09-29T12:11:40Z</time>
      </trkpt>
      <trkpt lat="44.42011" lon="5.24356">
        <ele>589</ele>
        <time>2022-09-29T12:11:41Z</time>
      </trkpt>
      <trkpt lat="44.42011" lon="5.24355">
        <ele>589</ele>
        <time>2022-09-29T12:11:42Z</time>
      </trkpt>
      <trkpt lat="44.42011" lon="5.24354">
        <ele>589</ele>
        <time>2022-09-29T12:11:43Z</time>
      </trkpt>
      <trkpt lat="44.42011" lon="5.24353">
        <ele>588</ele>
        <time>2022-09-29T12:11:44Z</time>
      </trkpt>
      <trkpt lat="44.4201" lon="5.24353">
        <ele>588</ele>
        <time>2022-09-29T12:11:45Z</time>
      </trkpt>
      <trkpt lat="44.4201" lon="5.24352">
        <ele>588</ele>
        <time>2022-09-29T12:11:46Z</time>
      </trkpt>
      <trkpt lat="44.4201" lon="5.24351">
        <ele>588</ele>
        <time>2022-09-29T12:11:47Z</time>
      </trkpt>
      <trkpt lat="44.4201" lon="5.24351">
        <ele>588</ele>
        <time>2022-09-29T12:11:48Z</time>
      </trkpt>
      <trkpt lat="44.42009" lon="5.2435">
        <ele>587</ele>
        <time>2022-09-29T12:11:49Z</time>
      </trkpt>
      <trkpt lat="44.42009" lon="5.2435">
        <ele>587</ele>
        <time>2022-09-29T12:11:50Z</time>
      </trkpt>
      <trkpt lat="44.42008" lon="5.2435">
        <ele>587</ele>
        <time>2022-09-29T12:11:51Z</time>
      </trkpt>
      <trkpt lat="44.42008" lon="5.2435">
        <ele>587</ele>
        <time>2022-09-29T12:11:52Z</time>
      </trkpt>
      <trkpt lat="44.42007" lon="5.24349">
        <ele>587</ele>
        <time>2022-09-29T12:11:53Z</time>
      </trkpt>
      <trkpt lat="44.42006" lon="5.24349">
        <ele>586</ele>
        <time>2022-09-29T12:11:54Z</time>
      </trkpt>
      <trkpt lat="44.42006" lon="5.24349">
        <ele>586</ele>
        <time>2022-09-29T12:11:55Z</time>
      </trkpt>
      <trkpt lat="44.42006" lon="5.24348">
        <ele>586</ele>
        <time>2022-09-29T12:11:56Z</time>
      </trkpt>
      <trkpt lat="44.42005" lon="5.24347">
        <ele>586</ele>
        <time>2022-09-29T12:11:57Z</time>
      </trkpt>
      <trkpt lat="44.42005" lon="5.24346">
        <ele>586</ele>
        <time>2022-09-29T12:11:58Z</time>
      </trkpt>
      <trkpt lat="44.42005" lon="5.24346">
        <ele>585</ele>
        <time>2022-09-29T12:11:59Z</time>
      </trkpt>
      <trkpt lat="44.42005" lon="5.24345">
        <ele>585</ele>
        <time>2022-09-29T12:12:00Z</time>
      </trkpt>
      <trkpt lat="44.42004" lon="5.24344">
        <ele>585</ele>
        <time>2022-09-29T12:12:01Z</time>
      </trkpt>
      <trkpt lat="44.42004" lon="5.24343">
        <ele>585</ele>
        <time>2022-09-29T12:12:02Z</time>
      </trkpt>
      <trkpt lat="44.42004" lon="5.24343">
        <ele>585</ele>
        <time>2022-09-29T12:12:03Z</time>
      </trkpt>
      <trkpt lat="44.42003" lon="5.24342">
        <ele>584</ele>
        <time>2022-09-29T12:12:04Z</time>
      </trkpt>
      <trkpt lat="44.42003" lon="5.24341">
        <ele>584</ele>
        <time>2022-09-29T12:12:05Z</time>
      </trkpt>
      <trkpt lat="44.42002" lon="5.24341">
        <ele>584</ele>
        <time>2022-09-29T12:12:06Z</time>
      </trkpt>
      <trkpt lat="44.42002" lon="5.2434">
        <ele>584</ele>
        <time>2022-09-29T12:12:07Z</time>
      </trkpt>
      <trkpt lat="44.42001" lon="5.24339">
        <ele>584</ele>
        <time>2022-09-29T12:12:08Z</time>
      </trkpt>
      <trkpt lat="44.42001" lon="5.24339">
        <ele>583</ele>
        <time>2022-09-29T12:12:09Z</time>
      </trkpt>
      <trkpt lat="44.42" lon="5.24338">
        <ele>583</ele>
        <time>2022-09-29T12:12:10Z</time>
      </trkpt>
      <trkpt lat="44.41999" lon="5.24338">
        <ele>583</ele>
        <time>2022-09-29T12:12:11Z</time>
      </trkpt>
      <trkpt lat="44.41999" lon="5.24337">
        <ele>583</ele>
        <time>2022-09-29T12:12:12Z</time>
      </trkpt>
      <trkpt lat="44.41998" lon="5.24337">
        <ele>583</ele>
        <time>2022-09-29T12:12:13Z</time>
      </trkpt>
      <trkpt lat="44.41998" lon="5.24336">
        <ele>583</ele>
        <time>2022-09-29T12:12:14Z</time>
      </trkpt>
      <trkpt lat="44.41997" lon="5.24335">
        <ele>583</ele>
        <time>2022-09-29T12:12:15Z</time>
      </trkpt>
      <trkpt lat="44.41997" lon="5.24335">
        <ele>583</ele>
        <time>2022-09-29T12:12:16Z</time>
      </trkpt>
      <trkpt lat="44.41996" lon="5.24334">
        <ele>583</ele>
        <time>2022-09-29T12:12:17Z</time>
      </trkpt>
      <trkpt lat="44.41996" lon="5.24334">
        <ele>583</ele>
        <time>2022-09-29T12:12:18Z</time>
      </trkpt>
      <trkpt lat="44.41994" lon="5.24331">
        <ele>581</ele>
        <time>2022-09-29T12:12:33Z</time>
      </trkpt>
      <trkpt lat="44.41994" lon="5.2433">
        <ele>580</ele>
        <time>2022-09-29T12:12:34Z</time>
      </trkpt>
      <trkpt lat="44.41993" lon="5.24329">
        <ele>580</ele>
        <time>2022-09-29T12:12:35Z</time>
      </trkpt>
      <trkpt lat="44.41992" lon="5.24328">
        <ele>580</ele>
        <time>2022-09-29T12:12:36Z</time>
      </trkpt>
      <trkpt lat="44.41992" lon="5.24327">
        <ele>580</ele>
        <time>2022-09-29T12:12:37Z</time>
      </trkpt>
      <trkpt lat="44.41991" lon="5.24327">
        <ele>580</ele>
        <time>2022-09-29T12:12:38Z</time>
      </trkpt>
      <trkpt lat="44.41991" lon="5.24326">
        <ele>580</ele>
        <time>2022-09-29T12:12:39Z</time>
      </trkpt>
      <trkpt lat="44.4199" lon="5.24325">
        <ele>580</ele>
        <time>2022-09-29T12:12:40Z</time>
      </trkpt>
      <trkpt lat="44.4199" lon="5.24324">
        <ele>580</ele>
        <time>2022-09-29T12:12:41Z</time>
      </trkpt>
      <trkpt lat="44.4199" lon="5.24323">
        <ele>580</ele>
        <time>2022-09-29T12:12:42Z</time>
      </trkpt>
      <trkpt lat="44.41989" lon="5.24322">
        <ele>580</ele>
        <time>2022-09-29T12:12:43Z</time>
      </trkpt>
      <trkpt lat="44.41989" lon="5.24321">
        <ele>579</ele>
        <time>2022-09-29T12:12:44Z</time>
      </trkpt>
      <trkpt lat="44.41988" lon="5.24321">
        <ele>579</ele>
        <time>2022-09-29T12:12:45Z</time>
      </trkpt>
      <trkpt lat="44.41988" lon="5.2432">
        <ele>579</ele>
        <time>2022-09-29T12:12:46Z</time>
      </trkpt>
      <trkpt lat="44.41987" lon="5.24319">
        <ele>579</ele>
        <time>2022-09-29T12:12:47Z</time>
      </trkpt>
      <trkpt lat="44.41987" lon="5.24318">
        <ele>579</ele>
        <time>2022-09-29T12:12:48Z</time>
      </trkpt>
      <trkpt lat="44.41986" lon="5.24317">
        <ele>578</ele>
        <time>2022-09-29T12:12:49Z</time>
      </trkpt>
      <trkpt lat="44.41986" lon="5.24316">
        <ele>578</ele>
        <time>2022-09-29T12:12:50Z</time>
      </trkpt>
      <trkpt lat="44.41985" lon="5.24315">
        <ele>578</ele>
        <time>2022-09-29T12:12:51Z</time>
      </trkpt>
      <trkpt lat="44.41985" lon="5.24314">
        <ele>578</ele>
        <time>2022-09-29T12:12:52Z</time>
      </trkpt>
      <trkpt lat="44.41985" lon="5.24313">
        <ele>578</ele>
        <time>2022-09-29T12:12:53Z</time>
      </trkpt>
      <trkpt lat="44.41985" lon="5.24311">
        <ele>577</ele>
        <time>2022-09-29T12:12:54Z</time>
      </trkpt>
      <trkpt lat="44.41985" lon="5.2431">
        <ele>577</ele>
        <time>2022-09-29T12:12:55Z</time>
      </trkpt>
      <trkpt lat="44.41986" lon="5.24309">
        <ele>577</ele>
        <time>2022-09-29T12:12:56Z</time>
      </trkpt>
      <trkpt lat="44.41986" lon="5.24307">
        <ele>577</ele>
        <time>2022-09-29T12:12:57Z</time>
      </trkpt>
      <trkpt lat="44.41986" lon="5.24306">
        <ele>577</ele>
        <time>2022-09-29T12:12:58Z</time>
      </trkpt>
      <trkpt lat="44.41987" lon="5.24304">
        <ele>576</ele>
        <time>2022-09-29T12:12:59Z</time>
      </trkpt>
      <trkpt lat="44.41987" lon="5.24303">
        <ele>576</ele>
        <time>2022-09-29T12:13:00Z</time>
      </trkpt>
      <trkpt lat="44.41988" lon="5.24302">
        <ele>576</ele>
        <time>2022-09-29T12:13:01Z</time>
      </trkpt>
      <trkpt lat="44.41988" lon="5.24301">
        <ele>576</ele>
        <time>2022-09-29T12:13:02Z</time>
      </trkpt>
      <trkpt lat="44.41989" lon="5.24301">
        <ele>576</ele>
        <time>2022-09-29T12:13:03Z</time>
      </trkpt>
      <trkpt lat="44.41989" lon="5.243">
        <ele>575</ele>
        <time>2022-09-29T12:13:04Z</time>
      </trkpt>
      <trkpt lat="44.4199" lon="5.243">
        <ele>575</ele>
        <time>2022-09-29T12:13:05Z</time>
      </trkpt>
      <trkpt lat="44.41991" lon="5.24299">
        <ele>575</ele>
        <time>2022-09-29T12:13:06Z</time>
      </trkpt>
      <trkpt lat="44.41992" lon="5.24299">
        <ele>575</ele>
        <time>2022-09-29T12:13:07Z</time>
      </trkpt>
      <trkpt lat="44.41992" lon="5.24298">
        <ele>575</ele>
        <time>2022-09-29T12:13:08Z</time>
      </trkpt>
      <trkpt lat="44.41993" lon="5.24298">
        <ele>574</ele>
        <time>2022-09-29T12:13:09Z</time>
      </trkpt>
      <trkpt lat="44.41993" lon="5.24297">
        <ele>574</ele>
        <time>2022-09-29T12:13:10Z</time>
      </trkpt>
      <trkpt lat="44.41994" lon="5.24296">
        <ele>574</ele>
        <time>2022-09-29T12:13:11Z</time>
      </trkpt>
      <trkpt lat="44.41994" lon="5.24295">
        <ele>574</ele>
        <time>2022-09-29T12:13:12Z</time>
      </trkpt>
      <trkpt lat="44.41994" lon="5.24294">
        <ele>574</ele>
        <time>2022-09-29T12:13:13Z</time>
      </trkpt>
      <trkpt lat="44.41994" lon="5.24292">
        <ele>573</ele>
        <time>2022-09-29T12:13:14Z</time>
      </trkpt>
      <trkpt lat="44.41995" lon="5.24291">
        <ele>573</ele>
        <time>2022-09-29T12:13:15Z</time>
      </trkpt>
      <trkpt lat="44.41995" lon="5.2429">
        <ele>573</ele>
        <time>2022-09-29T12:13:16Z</time>
      </trkpt>
      <trkpt lat="44.41995" lon="5.24289">
        <ele>573</ele>
        <time>2022-09-29T12:13:17Z</time>
      </trkpt>
      <trkpt lat="44.41996" lon="5.24288">
        <ele>573</ele>
        <time>2022-09-29T12:13:18Z</time>
      </trkpt>
      <trkpt lat="44.41996" lon="5.24287">
        <ele>572</ele>
        <time>2022-09-29T12:13:19Z</time>
      </trkpt>
      <trkpt lat="44.41996" lon="5.24286">
        <ele>572</ele>
        <time>2022-09-29T12:13:20Z</time>
      </trkpt>
      <trkpt lat="44.41997" lon="5.24285">
        <ele>572</ele>
        <time>2022-09-29T12:13:21Z</time>
      </trkpt>
      <trkpt lat="44.41997" lon="5.24284">
        <ele>572</ele>
        <time>2022-09-29T12:13:22Z</time>
      </trkpt>
      <trkpt lat="44.41997" lon="5.24283">
        <ele>572</ele>
        <time>2022-09-29T12:13:23Z</time>
      </trkpt>
      <trkpt lat="44.41998" lon="5.24282">
        <ele>571</ele>
        <time>2022-09-29T12:13:24Z</time>
      </trkpt>
      <trkpt lat="44.41998" lon="5.24281">
        <ele>571</ele>
        <time>2022-09-29T12:13:25Z</time>
      </trkpt>
      <trkpt lat="44.41998" lon="5.2428">
        <ele>571</ele>
        <time>2022-09-29T12:13:26Z</time>
      </trkpt>
      <trkpt lat="44.41998" lon="5.24279">
        <ele>571</ele>
        <time>2022-09-29T12:13:27Z</time>
      </trkpt>
      <trkpt lat="44.41999" lon="5.24277">
        <ele>571</ele>
        <time>2022-09-29T12:13:28Z</time>
      </trkpt>
      <trkpt lat="44.41999" lon="5.24276">
        <ele>571</ele>
        <time>2022-09-29T12:13:29Z</time>
      </trkpt>
      <trkpt lat="44.41999" lon="5.24275">
        <ele>571</ele>
        <time>2022-09-29T12:13:30Z</time>
      </trkpt>
      <trkpt lat="44.41999" lon="5.24273">
        <ele>571</ele>
        <time>2022-09-29T12:13:31Z</time>
      </trkpt>
      <trkpt lat="44.41999" lon="5.24272">
        <ele>571</ele>
        <time>2022-09-29T12:13:32Z</time>
      </trkpt>
      <trkpt lat="44.41999" lon="5.24271">
        <ele>571</ele>
        <time>2022-09-29T12:13:33Z</time>
      </trkpt>
      <trkpt lat="44.41998" lon="5.2427">
        <ele>570</ele>
        <time>2022-09-29T12:13:34Z</time>
      </trkpt>
      <trkpt lat="44.41998" lon="5.24269">
        <ele>570</ele>
        <time>2022-09-29T12:13:35Z</time>
      </trkpt>
      <trkpt lat="44.41998" lon="5.24268">
        <ele>570</ele>
        <time>2022-09-29T12:13:36Z</time>
      </trkpt>
      <trkpt lat="44.41997" lon="5.24267">
        <ele>570</ele>
        <time>2022-09-29T12:13:37Z</time>
      </trkpt>
      <trkpt lat="44.41997" lon="5.24266">
        <ele>570</ele>
        <time>2022-09-29T12:13:38Z</time>
      </trkpt>
      <trkpt lat="44.41997" lon="5.24265">
        <ele>570</ele>
        <time>2022-09-29T12:13:39Z</time>
      </trkpt>
      <trkpt lat="44.41996" lon="5.24264">
        <ele>570</ele>
        <time>2022-09-29T12:13:40Z</time>
      </trkpt>
      <trkpt lat="44.41996" lon="5.24263">
        <ele>570</ele>
        <time>2022-09-29T12:13:41Z</time>
      </trkpt>
      <trkpt lat="44.41995" lon="5.24261">
        <ele>570</ele>
        <time>2022-09-29T12:13:42Z</time>
      </trkpt>
      <trkpt lat="44.41995" lon="5.2426">
        <ele>570</ele>
        <time>2022-09-29T12:13:43Z</time>
      </trkpt>
      <trkpt lat="44.41994" lon="5.24259">
        <ele>569</ele>
        <time>2022-09-29T12:13:44Z</time>
      </trkpt>
      <trkpt lat="44.41994" lon="5.24258">
        <ele>569</ele>
        <time>2022-09-29T12:13:45Z</time>
      </trkpt>
      <trkpt lat="44.41993" lon="5.24257">
        <ele>569</ele>
        <time>2022-09-29T12:13:46Z</time>
      </trkpt>
      <trkpt lat="44.41993" lon="5.24256">
        <ele>569</ele>
        <time>2022-09-29T12:13:47Z</time>
      </trkpt>
      <trkpt lat="44.41993" lon="5.24255">
        <ele>569</ele>
        <time>2022-09-29T12:13:48Z</time>
      </trkpt>
      <trkpt lat="44.41992" lon="5.24255">
        <ele>568</ele>
        <time>2022-09-29T12:13:49Z</time>
      </trkpt>
      <trkpt lat="44.41992" lon="5.24254">
        <ele>568</ele>
        <time>2022-09-29T12:13:50Z</time>
      </trkpt>
      <trkpt lat="44.41991" lon="5.24254">
        <ele>568</ele>
        <time>2022-09-29T12:13:51Z</time>
      </trkpt>
      <trkpt lat="44.41991" lon="5.24253">
        <ele>568</ele>
        <time>2022-09-29T12:13:52Z</time>
      </trkpt>
      <trkpt lat="44.4199" lon="5.24252">
        <ele>568</ele>
        <time>2022-09-29T12:13:53Z</time>
      </trkpt>
      <trkpt lat="44.4199" lon="5.24252">
        <ele>567</ele>
        <time>2022-09-29T12:13:54Z</time>
      </trkpt>
      <trkpt lat="44.41989" lon="5.24251">
        <ele>567</ele>
        <time>2022-09-29T12:13:55Z</time>
      </trkpt>
      <trkpt lat="44.41989" lon="5.2425">
        <ele>567</ele>
        <time>2022-09-29T12:13:56Z</time>
      </trkpt>
      <trkpt lat="44.41989" lon="5.24249">
        <ele>567</ele>
        <time>2022-09-29T12:13:57Z</time>
      </trkpt>
      <trkpt lat="44.41989" lon="5.24248">
        <ele>567</ele>
        <time>2022-09-29T12:13:58Z</time>
      </trkpt>
      <trkpt lat="44.41989" lon="5.24247">
        <ele>567</ele>
        <time>2022-09-29T12:13:59Z</time>
      </trkpt>
      <trkpt lat="44.41989" lon="5.24246">
        <ele>567</ele>
        <time>2022-09-29T12:14:00Z</time>
      </trkpt>
      <trkpt lat="44.41989" lon="5.24246">
        <ele>567</ele>
        <time>2022-09-29T12:14:01Z</time>
      </trkpt>
      <trkpt lat="44.41988" lon="5.24244">
        <ele>565</ele>
        <time>2022-09-29T12:14:17Z</time>
      </trkpt>
      <trkpt lat="44.41988" lon="5.24243">
        <ele>565</ele>
        <time>2022-09-29T12:14:18Z</time>
      </trkpt>
      <trkpt lat="44.41987" lon="5.24242">
        <ele>565</ele>
        <time>2022-09-29T12:14:19Z</time>
      </trkpt>
      <trkpt lat="44.41987" lon="5.24242">
        <ele>565</ele>
        <time>2022-09-29T12:14:20Z</time>
      </trkpt>
      <trkpt lat="44.41987" lon="5.24241">
        <ele>565</ele>
        <time>2022-09-29T12:14:21Z</time>
      </trkpt>
      <trkpt lat="44.41986" lon="5.2424">
        <ele>565</ele>
        <time>2022-09-29T12:14:22Z</time>
      </trkpt>
      <trkpt lat="44.41986" lon="5.24239">
        <ele>565</ele>
        <time>2022-09-29T12:14:23Z</time>
      </trkpt>
      <trkpt lat="44.41985" lon="5.24238">
        <ele>564</ele>
        <time>2022-09-29T12:14:24Z</time>
      </trkpt>
      <trkpt lat="44.41985" lon="5.24237">
        <ele>564</ele>
        <time>2022-09-29T12:14:25Z</time>
      </trkpt>
      <trkpt lat="44.41984" lon="5.24237">
        <ele>564</ele>
        <time>2022-09-29T12:14:26Z</time>
      </trkpt>
      <trkpt lat="44.41984" lon="5.24236">
        <ele>564</ele>
        <time>2022-09-29T12:14:27Z</time>
      </trkpt>
      <trkpt lat="44.41984" lon="5.24234">
        <ele>564</ele>
        <time>2022-09-29T12:14:28Z</time>
      </trkpt>
      <trkpt lat="44.41983" lon="5.24233">
        <ele>564</ele>
        <time>2022-09-29T12:14:29Z</time>
      </trkpt>
      <trkpt lat="44.41983" lon="5.24232">
        <ele>564</ele>
        <time>2022-09-29T12:14:30Z</time>
      </trkpt>
      <trkpt lat="44.41983" lon="5.24231">
        <ele>564</ele>
        <time>2022-09-29T12:14:31Z</time>
      </trkpt>
      <trkpt lat="44.41983" lon="5.2423">
        <ele>564</ele>
        <time>2022-09-29T12:14:32Z</time>
      </trkpt>
      <trkpt lat="44.41982" lon="5.24229">
        <ele>564</ele>
        <time>2022-09-29T12:14:33Z</time>
      </trkpt>
      <trkpt lat="44.41982" lon="5.24228">
        <ele>563</ele>
        <time>2022-09-29T12:14:34Z</time>
      </trkpt>
      <trkpt lat="44.41982" lon="5.24227">
        <ele>563</ele>
        <time>2022-09-29T12:14:35Z</time>
      </trkpt>
      <trkpt lat="44.41982" lon="5.24225">
        <ele>563</ele>
        <time>2022-09-29T12:14:36Z</time>
      </trkpt>
      <trkpt lat="44.41981" lon="5.24224">
        <ele>563</ele>
        <time>2022-09-29T12:14:37Z</time>
      </trkpt>
      <trkpt lat="44.41981" lon="5.24223">
        <ele>563</ele>
        <time>2022-09-29T12:14:38Z</time>
      </trkpt>
      <trkpt lat="44.41981" lon="5.24222">
        <ele>562</ele>
        <time>2022-09-29T12:14:39Z</time>
      </trkpt>
      <trkpt lat="44.41981" lon="5.2422">
        <ele>562</ele>
        <time>2022-09-29T12:14:40Z</time>
      </trkpt>
      <trkpt lat="44.4198" lon="5.24219">
        <ele>562</ele>
        <time>2022-09-29T12:14:41Z</time>
      </trkpt>
      <trkpt lat="44.4198" lon="5.24218">
        <ele>562</ele>
        <time>2022-09-29T12:14:42Z</time>
      </trkpt>
      <trkpt lat="44.4198" lon="5.24217">
        <ele>562</ele>
        <time>2022-09-29T12:14:43Z</time>
      </trkpt>
      <trkpt lat="44.41979" lon="5.24216">
        <ele>562</ele>
        <time>2022-09-29T12:14:44Z</time>
      </trkpt>
      <trkpt lat="44.41979" lon="5.24215">
        <ele>562</ele>
        <time>2022-09-29T12:14:45Z</time>
      </trkpt>
      <trkpt lat="44.41979" lon="5.24214">
        <ele>562</ele>
        <time>2022-09-29T12:14:46Z</time>
      </trkpt>
      <trkpt lat="44.41979" lon="5.24213">
        <ele>562</ele>
        <time>2022-09-29T12:14:47Z</time>
      </trkpt>
      <trkpt lat="44.41978" lon="5.24213">
        <ele>562</ele>
        <time>2022-09-29T12:14:48Z</time>
      </trkpt>
      <trkpt lat="44.41978" lon="5.24213">
        <ele>561</ele>
        <time>2022-09-29T12:14:49Z</time>
      </trkpt>
      <trkpt lat="44.41978" lon="5.24212">
        <ele>561</ele>
        <time>2022-09-29T12:14:50Z</time>
      </trkpt>
      <trkpt lat="44.41978" lon="5.24212">
        <ele>561</ele>
        <time>2022-09-29T12:14:51Z</time>
      </trkpt>
      <trkpt lat="44.41977" lon="5.24212">
        <ele>561</ele>
        <time>2022-09-29T12:14:52Z</time>
      </trkpt>
      <trkpt lat="44.41977" lon="5.24212">
        <ele>561</ele>
        <time>2022-09-29T12:14:53Z</time>
      </trkpt>
      <trkpt lat="44.41976" lon="5.24213">
        <ele>560</ele>
        <time>2022-09-29T12:14:54Z</time>
      </trkpt>
      <trkpt lat="44.41975" lon="5.24213">
        <ele>560</ele>
        <time>2022-09-29T12:14:55Z</time>
      </trkpt>
      <trkpt lat="44.41975" lon="5.24214">
        <ele>560</ele>
        <time>2022-09-29T12:14:56Z</time>
      </trkpt>
      <trkpt lat="44.41974" lon="5.24215">
        <ele>560</ele>
        <time>2022-09-29T12:14:57Z</time>
      </trkpt>
      <trkpt lat="44.41973" lon="5.24216">
        <ele>560</ele>
        <time>2022-09-29T12:14:58Z</time>
      </trkpt>
      <trkpt lat="44.41972" lon="5.24216">
        <ele>559</ele>
        <time>2022-09-29T12:14:59Z</time>
      </trkpt>
      <trkpt lat="44.41971" lon="5.24217">
        <ele>559</ele>
        <time>2022-09-29T12:15:00Z</time>
      </trkpt>
      <trkpt lat="44.4197" lon="5.24218">
        <ele>559</ele>
        <time>2022-09-29T12:15:01Z</time>
      </trkpt>
      <trkpt lat="44.41969" lon="5.24219">
        <ele>559</ele>
        <time>2022-09-29T12:15:02Z</time>
      </trkpt>
      <trkpt lat="44.41969" lon="5.2422">
        <ele>559</ele>
        <time>2022-09-29T12:15:03Z</time>
      </trkpt>
      <trkpt lat="44.41968" lon="5.24221">
        <ele>559</ele>
        <time>2022-09-29T12:15:04Z</time>
      </trkpt>
      <trkpt lat="44.41967" lon="5.24222">
        <ele>559</ele>
        <time>2022-09-29T12:15:05Z</time>
      </trkpt>
      <trkpt lat="44.41967" lon="5.24222">
        <ele>559</ele>
        <time>2022-09-29T12:15:06Z</time>
      </trkpt>
      <trkpt lat="44.41967" lon="5.24223">
        <ele>559</ele>
        <time>2022-09-29T12:15:07Z</time>
      </trkpt>
      <trkpt lat="44.41966" lon="5.24224">
        <ele>560</ele>
        <time>2022-09-29T12:15:18Z</time>
      </trkpt>
      <trkpt lat="44.41965" lon="5.24225">
        <ele>560</ele>
        <time>2022-09-29T12:15:19Z</time>
      </trkpt>
      <trkpt lat="44.41965" lon="5.24225">
        <ele>560</ele>
        <time>2022-09-29T12:15:20Z</time>
      </trkpt>
      <trkpt lat="44.41965" lon="5.24226">
        <ele>560</ele>
        <time>2022-09-29T12:15:21Z</time>
      </trkpt>
      <trkpt lat="44.41964" lon="5.24226">
        <ele>560</ele>
        <time>2022-09-29T12:15:22Z</time>
      </trkpt>
      <trkpt lat="44.41963" lon="5.24226">
        <ele>560</ele>
        <time>2022-09-29T12:15:23Z</time>
      </trkpt>
      <trkpt lat="44.41963" lon="5.24227">
        <ele>560</ele>
        <time>2022-09-29T12:15:24Z</time>
      </trkpt>
      <trkpt lat="44.41962" lon="5.24227">
        <ele>560</ele>
        <time>2022-09-29T12:15:25Z</time>
      </trkpt>
      <trkpt lat="44.41961" lon="5.24227">
        <ele>560</ele>
        <time>2022-09-29T12:15:26Z</time>
      </trkpt>
      <trkpt lat="44.4196" lon="5.24228">
        <ele>560</ele>
        <time>2022-09-29T12:15:27Z</time>
      </trkpt>
      <trkpt lat="44.41959" lon="5.24228">
        <ele>560</ele>
        <time>2022-09-29T12:15:28Z</time>
      </trkpt>
      <trkpt lat="44.41959" lon="5.24229">
        <ele>560</ele>
        <time>2022-09-29T12:15:29Z</time>
      </trkpt>
      <trkpt lat="44.41958" lon="5.2423">
        <ele>560</ele>
        <time>2022-09-29T12:15:30Z</time>
      </trkpt>
      <trkpt lat="44.41957" lon="5.2423">
        <ele>560</ele>
        <time>2022-09-29T12:15:31Z</time>
      </trkpt>
      <trkpt lat="44.41957" lon="5.24231">
        <ele>560</ele>
        <time>2022-09-29T12:15:32Z</time>
      </trkpt>
      <trkpt lat="44.41956" lon="5.24232">
        <ele>560</ele>
        <time>2022-09-29T12:15:33Z</time>
      </trkpt>
      <trkpt lat="44.41955" lon="5.24232">
        <ele>560</ele>
        <time>2022-09-29T12:15:34Z</time>
      </trkpt>
      <trkpt lat="44.41955" lon="5.24233">
        <ele>560</ele>
        <time>2022-09-29T12:15:35Z</time>
      </trkpt>
      <trkpt lat="44.41954" lon="5.24233">
        <ele>560</ele>
        <time>2022-09-29T12:15:36Z</time>
      </trkpt>
      <trkpt lat="44.41954" lon="5.24233">
        <ele>560</ele>
        <time>2022-09-29T12:15:37Z</time>
      </trkpt>
      <trkpt lat="44.41954" lon="5.24234">
        <ele>560</ele>
        <time>2022-09-29T12:15:38Z</time>
      </trkpt>
      <trkpt lat="44.41953" lon="5.24234">
        <ele>560</ele>
        <time>2022-09-29T12:15:39Z</time>
      </trkpt>
      <trkpt lat="44.41953" lon="5.24235">
        <ele>560</ele>
        <time>2022-09-29T12:15:40Z</time>
      </trkpt>
      <trkpt lat="44.41952" lon="5.24235">
        <ele>560</ele>
        <time>2022-09-29T12:15:41Z</time>
      </trkpt>
      <trkpt lat="44.41952" lon="5.24236">
        <ele>560</ele>
        <time>2022-09-29T12:15:42Z</time>
      </trkpt>
      <trkpt lat="44.41951" lon="5.24236">
        <ele>560</ele>
        <time>2022-09-29T12:15:43Z</time>
      </trkpt>
      <trkpt lat="44.41951" lon="5.24237">
        <ele>560</ele>
        <time>2022-09-29T12:15:44Z</time>
      </trkpt>
      <trkpt lat="44.4195" lon="5.24237">
        <ele>560</ele>
        <time>2022-09-29T12:15:45Z</time>
      </trkpt>
      <trkpt lat="44.41949" lon="5.24238">
        <ele>560</ele>
        <time>2022-09-29T12:15:46Z</time>
      </trkpt>
      <trkpt lat="44.41948" lon="5.24238">
        <ele>560</ele>
        <time>2022-09-29T12:15:47Z</time>
      </trkpt>
      <trkpt lat="44.41948" lon="5.24239">
        <ele>561</ele>
        <time>2022-09-29T12:15:48Z</time>
      </trkpt>
      <trkpt lat="44.41947" lon="5.24239">
        <ele>560</ele>
        <time>2022-09-29T12:15:49Z</time>
      </trkpt>
      <trkpt lat="44.41944" lon="5.24239">
        <ele>558</ele>
        <time>2022-09-29T12:16:06Z</time>
      </trkpt>
      <trkpt lat="44.41942" lon="5.24239">
        <ele>558</ele>
        <time>2022-09-29T12:16:07Z</time>
      </trkpt>
      <trkpt lat="44.4194" lon="5.24239">
        <ele>558</ele>
        <time>2022-09-29T12:16:08Z</time>
      </trkpt>
      <trkpt lat="44.41939" lon="5.24239">
        <ele>557</ele>
        <time>2022-09-29T12:16:09Z</time>
      </trkpt>
      <trkpt lat="44.41938" lon="5.24239">
        <ele>557</ele>
        <time>2022-09-29T12:16:10Z</time>
      </trkpt>
      <trkpt lat="44.41937" lon="5.24238">
        <ele>557</ele>
        <time>2022-09-29T12:16:11Z</time>
      </trkpt>
      <trkpt lat="44.41936" lon="5.24237">
        <ele>557</ele>
        <time>2022-09-29T12:16:12Z</time>
      </trkpt>
      <trkpt lat="44.41936" lon="5.24237">
        <ele>557</ele>
        <time>2022-09-29T12:16:13Z</time>
      </trkpt>
      <trkpt lat="44.41935" lon="5.24236">
        <ele>557</ele>
        <time>2022-09-29T12:16:14Z</time>
      </trkpt>
      <trkpt lat="44.41934" lon="5.24236">
        <ele>557</ele>
        <time>2022-09-29T12:16:15Z</time>
      </trkpt>
      <trkpt lat="44.41933" lon="5.24235">
        <ele>557</ele>
        <time>2022-09-29T12:16:16Z</time>
      </trkpt>
      <trkpt lat="44.41933" lon="5.24234">
        <ele>557</ele>
        <time>2022-09-29T12:16:17Z</time>
      </trkpt>
      <trkpt lat="44.41933" lon="5.24234">
        <ele>557</ele>
        <time>2022-09-29T12:16:18Z</time>
      </trkpt>
      <trkpt lat="44.41932" lon="5.24233">
        <ele>556</ele>
        <time>2022-09-29T12:16:19Z</time>
      </trkpt>
      <trkpt lat="44.41932" lon="5.24233">
        <ele>556</ele>
        <time>2022-09-29T12:16:20Z</time>
      </trkpt>
      <trkpt lat="44.41931" lon="5.24232">
        <ele>556</ele>
        <time>2022-09-29T12:16:21Z</time>
      </trkpt>
      <trkpt lat="44.4193" lon="5.24232">
        <ele>556</ele>
        <time>2022-09-29T12:16:22Z</time>
      </trkpt>
      <trkpt lat="44.4193" lon="5.24231">
        <ele>556</ele>
        <time>2022-09-29T12:16:23Z</time>
      </trkpt>
      <trkpt lat="44.41929" lon="5.24231">
        <ele>556</ele>
        <time>2022-09-29T12:16:24Z</time>
      </trkpt>
      <trkpt lat="44.41928" lon="5.24231">
        <ele>556</ele>
        <time>2022-09-29T12:16:25Z</time>
      </trkpt>
      <trkpt lat="44.41927" lon="5.2423">
        <ele>556</ele>
        <time>2022-09-29T12:16:42Z</time>
      </trkpt>
      <trkpt lat="44.41927" lon="5.2423">
        <ele>556</ele>
        <time>2022-09-29T12:16:43Z</time>
      </trkpt>
      <trkpt lat="44.41926" lon="5.2423">
        <ele>556</ele>
        <time>2022-09-29T12:16:44Z</time>
      </trkpt>
      <trkpt lat="44.41925" lon="5.2423">
        <ele>556</ele>
        <time>2022-09-29T12:16:45Z</time>
      </trkpt>
      <trkpt lat="44.41925" lon="5.2423">
        <ele>556</ele>
        <time>2022-09-29T12:16:46Z</time>
      </trkpt>
      <trkpt lat="44.41924" lon="5.2423">
        <ele>556</ele>
        <time>2022-09-29T12:16:47Z</time>
      </trkpt>
      <trkpt lat="44.41923" lon="5.2423">
        <ele>556</ele>
        <time>2022-09-29T12:16:48Z</time>
      </trkpt>
      <trkpt lat="44.41923" lon="5.2423">
        <ele>556</ele>
        <time>2022-09-29T12:16:49Z</time>
      </trkpt>
      <trkpt lat="44.41922" lon="5.2423">
        <ele>556</ele>
        <time>2022-09-29T12:16:50Z</time>
      </trkpt>
      <trkpt lat="44.41922" lon="5.2423">
        <ele>556</ele>
        <time>2022-09-29T12:16:51Z</time>
      </trkpt>
      <trkpt lat="44.41921" lon="5.2423">
        <ele>556</ele>
        <time>2022-09-29T12:18:36Z</time>
      </trkpt>
      <trkpt lat="44.41921" lon="5.2423">
        <ele>556</ele>
        <time>2022-09-29T12:18:37Z</time>
      </trkpt>
      <trkpt lat="44.4192" lon="5.24231">
        <ele>556</ele>
        <time>2022-09-29T12:18:38Z</time>
      </trkpt>
      <trkpt lat="44.4192" lon="5.24231">
        <ele>556</ele>
        <time>2022-09-29T12:18:39Z</time>
      </trkpt>
      <trkpt lat="44.41919" lon="5.24231">
        <ele>556</ele>
        <time>2022-09-29T12:18:40Z</time>
      </trkpt>
      <trkpt lat="44.41918" lon="5.24231">
        <ele>556</ele>
        <time>2022-09-29T12:18:41Z</time>
      </trkpt>
      <trkpt lat="44.41918" lon="5.24231">
        <ele>556</ele>
        <time>2022-09-29T12:18:42Z</time>
      </trkpt>
      <trkpt lat="44.41917" lon="5.24231">
        <ele>556</ele>
        <time>2022-09-29T12:18:43Z</time>
      </trkpt>
      <trkpt lat="44.41916" lon="5.24231">
        <ele>556</ele>
        <time>2022-09-29T12:18:44Z</time>
      </trkpt>
      <trkpt lat="44.41915" lon="5.24231">
        <ele>556</ele>
        <time>2022-09-29T12:18:45Z</time>
      </trkpt>
      <trkpt lat="44.41915" lon="5.24232">
        <ele>556</ele>
        <time>2022-09-29T12:18:46Z</time>
      </trkpt>
      <trkpt lat="44.41914" lon="5.24232">
        <ele>556</ele>
        <time>2022-09-29T12:18:47Z</time>
      </trkpt>
      <trkpt lat="44.41913" lon="5.24232">
        <ele>556</ele>
        <time>2022-09-29T12:18:48Z</time>
      </trkpt>
      <trkpt lat="44.41912" lon="5.24232">
        <ele>556</ele>
        <time>2022-09-29T12:18:49Z</time>
      </trkpt>
      <trkpt lat="44.41911" lon="5.24233">
        <ele>556</ele>
        <time>2022-09-29T12:18:50Z</time>
      </trkpt>
      <trkpt lat="44.41911" lon="5.24233">
        <ele>556</ele>
        <time>2022-09-29T12:18:51Z</time>
      </trkpt>
      <trkpt lat="44.4191" lon="5.24233">
        <ele>556</ele>
        <time>2022-09-29T12:18:52Z</time>
      </trkpt>
      <trkpt lat="44.41909" lon="5.24233">
        <ele>556</ele>
        <time>2022-09-29T12:18:53Z</time>
      </trkpt>
      <trkpt lat="44.41908" lon="5.24234">
        <ele>556</ele>
        <time>2022-09-29T12:18:54Z</time>
      </trkpt>
      <trkpt lat="44.41907" lon="5.24234">
        <ele>556</ele>
        <time>2022-09-29T12:18:55Z</time>
      </trkpt>
      <trkpt lat="44.41906" lon="5.24234">
        <ele>556</ele>
        <time>2022-09-29T12:18:56Z</time>
      </trkpt>
      <trkpt lat="44.41905" lon="5.24235">
        <ele>556</ele>
        <time>2022-09-29T12:19:05Z</time>
      </trkpt>
      <trkpt lat="44.41904" lon="5.24235">
        <ele>556</ele>
        <time>2022-09-29T12:19:06Z</time>
      </trkpt>
      <trkpt lat="44.41904" lon="5.24235">
        <ele>556</ele>
        <time>2022-09-29T12:19:07Z</time>
      </trkpt>
      <trkpt lat="44.41903" lon="5.24236">
        <ele>556</ele>
        <time>2022-09-29T12:19:08Z</time>
      </trkpt>
      <trkpt lat="44.41903" lon="5.24236">
        <ele>556</ele>
        <time>2022-09-29T12:19:09Z</time>
      </trkpt>
      <trkpt lat="44.41902" lon="5.24237">
        <ele>556</ele>
        <time>2022-09-29T12:19:10Z</time>
      </trkpt>
      <trkpt lat="44.41902" lon="5.24238">
        <ele>556</ele>
        <time>2022-09-29T12:19:11Z</time>
      </trkpt>
      <trkpt lat="44.41901" lon="5.24239">
        <ele>556</ele>
        <time>2022-09-29T12:19:12Z</time>
      </trkpt>
      <trkpt lat="44.419" lon="5.2424">
        <ele>556</ele>
        <time>2022-09-29T12:19:13Z</time>
      </trkpt>
      <trkpt lat="44.419" lon="5.24241">
        <ele>556</ele>
        <time>2022-09-29T12:19:14Z</time>
      </trkpt>
      <trkpt lat="44.41899" lon="5.24242">
        <ele>556</ele>
        <time>2022-09-29T12:19:15Z</time>
      </trkpt>
      <trkpt lat="44.41899" lon="5.24243">
        <ele>556</ele>
        <time>2022-09-29T12:19:16Z</time>
      </trkpt>
      <trkpt lat="44.41898" lon="5.24244">
        <ele>556</ele>
        <time>2022-09-29T12:19:17Z</time>
      </trkpt>
      <trkpt lat="44.41897" lon="5.24245">
        <ele>556</ele>
        <time>2022-09-29T12:19:18Z</time>
      </trkpt>
      <trkpt lat="44.41897" lon="5.24246">
        <ele>556</ele>
        <time>2022-09-29T12:19:19Z</time>
      </trkpt>
      <trkpt lat="44.41896" lon="5.24247">
        <ele>556</ele>
        <time>2022-09-29T12:19:20Z</time>
      </trkpt>
      <trkpt lat="44.41896" lon="5.24248">
        <ele>556</ele>
        <time>2022-09-29T12:19:21Z</time>
      </trkpt>
      <trkpt lat="44.41895" lon="5.24249">
        <ele>556</ele>
        <time>2022-09-29T12:19:22Z</time>
      </trkpt>
      <trkpt lat="44.41895" lon="5.2425">
        <ele>556</ele>
        <time>2022-09-29T12:19:23Z</time>
      </trkpt>
      <trkpt lat="44.41894" lon="5.24251">
        <ele>556</ele>
        <time>2022-09-29T12:19:24Z</time>
      </trkpt>
      <trkpt lat="44.41894" lon="5.24253">
        <ele>556</ele>
        <time>2022-09-29T12:19:25Z</time>
      </trkpt>
      <trkpt lat="44.41893" lon="5.24254">
        <ele>556</ele>
        <time>2022-09-29T12:19:26Z</time>
      </trkpt>
      <trkpt lat="44.41893" lon="5.24255">
        <ele>556</ele>
        <time>2022-09-29T12:19:27Z</time>
      </trkpt>
      <trkpt lat="44.41892" lon="5.24257">
        <ele>556</ele>
        <time>2022-09-29T12:19:28Z</time>
      </trkpt>
      <trkpt lat="44.41892" lon="5.24258">
        <ele>556</ele>
        <time>2022-09-29T12:19:29Z</time>
      </trkpt>
      <trkpt lat="44.41891" lon="5.24259">
        <ele>556</ele>
        <time>2022-09-29T12:19:30Z</time>
      </trkpt>
      <trkpt lat="44.4189" lon="5.2426">
        <ele>556</ele>
        <time>2022-09-29T12:19:31Z</time>
      </trkpt>
      <trkpt lat="44.41889" lon="5.24261">
        <ele>556</ele>
        <time>2022-09-29T12:19:32Z</time>
      </trkpt>
      <trkpt lat="44.41889" lon="5.24262">
        <ele>556</ele>
        <time>2022-09-29T12:19:33Z</time>
      </trkpt>
      <trkpt lat="44.41888" lon="5.24263">
        <ele>556</ele>
        <time>2022-09-29T12:19:34Z</time>
      </trkpt>
      <trkpt lat="44.41887" lon="5.24264">
        <ele>556</ele>
        <time>2022-09-29T12:19:35Z</time>
      </trkpt>
      <trkpt lat="44.41886" lon="5.24265">
        <ele>556</ele>
        <time>2022-09-29T12:19:36Z</time>
      </trkpt>
      <trkpt lat="44.41885" lon="5.24266">
        <ele>556</ele>
        <time>2022-09-29T12:19:37Z</time>
      </trkpt>
      <trkpt lat="44.41884" lon="5.24266">
        <ele>556</ele>
        <time>2022-09-29T12:19:38Z</time>
      </trkpt>
      <trkpt lat="44.41884" lon="5.24267">
        <ele>556</ele>
        <time>2022-09-29T12:19:39Z</time>
      </trkpt>
      <trkpt lat="44.41883" lon="5.24267">
        <ele>556</ele>
        <time>2022-09-29T12:19:40Z</time>
      </trkpt>
      <trkpt lat="44.41882" lon="5.24268">
        <ele>556</ele>
        <time>2022-09-29T12:19:41Z</time>
      </trkpt>
      <trkpt lat="44.41881" lon="5.24269">
        <ele>556</ele>
        <time>2022-09-29T12:19:42Z</time>
      </trkpt>
      <trkpt lat="44.4188" lon="5.2427">
        <ele>556</ele>
        <time>2022-09-29T12:19:43Z</time>
      </trkpt>
      <trkpt lat="44.41879" lon="5.2427">
        <ele>556</ele>
        <time>2022-09-29T12:19:44Z</time>
      </trkpt>
      <trkpt lat="44.41878" lon="5.24271">
        <ele>556</ele>
        <time>2022-09-29T12:19:45Z</time>
      </trkpt>
      <trkpt lat="44.41877" lon="5.24272">
        <ele>556</ele>
        <time>2022-09-29T12:19:46Z</time>
      </trkpt>
      <trkpt lat="44.41876" lon="5.24273">
        <ele>556</ele>
        <time>2022-09-29T12:19:47Z</time>
      </trkpt>
      <trkpt lat="44.41875" lon="5.24274">
        <ele>557</ele>
        <time>2022-09-29T12:19:48Z</time>
      </trkpt>
      <trkpt lat="44.41874" lon="5.24275">
        <ele>557</ele>
        <time>2022-09-29T12:19:49Z</time>
      </trkpt>
      <trkpt lat="44.41873" lon="5.24275">
        <ele>557</ele>
        <time>2022-09-29T12:19:50Z</time>
      </trkpt>
      <trkpt lat="44.41872" lon="5.24276">
        <ele>557</ele>
        <time>2022-09-29T12:19:51Z</time>
      </trkpt>
      <trkpt lat="44.41871" lon="5.24277">
        <ele>557</ele>
        <time>2022-09-29T12:19:52Z</time>
      </trkpt>
      <trkpt lat="44.4187" lon="5.24278">
        <ele>557</ele>
        <time>2022-09-29T12:19:53Z</time>
      </trkpt>
      <trkpt lat="44.41869" lon="5.24279">
        <ele>557</ele>
        <time>2022-09-29T12:19:54Z</time>
      </trkpt>
      <trkpt lat="44.41868" lon="5.24279">
        <ele>557</ele>
        <time>2022-09-29T12:19:55Z</time>
      </trkpt>
      <trkpt lat="44.41868" lon="5.2428">
        <ele>557</ele>
        <time>2022-09-29T12:19:56Z</time>
      </trkpt>
      <trkpt lat="44.41867" lon="5.24281">
        <ele>557</ele>
        <time>2022-09-29T12:19:57Z</time>
      </trkpt>
      <trkpt lat="44.41866" lon="5.24282">
        <ele>558</ele>
        <time>2022-09-29T12:19:58Z</time>
      </trkpt>
      <trkpt lat="44.41865" lon="5.24283">
        <ele>558</ele>
        <time>2022-09-29T12:19:59Z</time>
      </trkpt>
      <trkpt lat="44.41864" lon="5.24284">
        <ele>558</ele>
        <time>2022-09-29T12:20:00Z</time>
      </trkpt>
      <trkpt lat="44.41863" lon="5.24285">
        <ele>558</ele>
        <time>2022-09-29T12:20:01Z</time>
      </trkpt>
      <trkpt lat="44.41862" lon="5.24286">
        <ele>558</ele>
        <time>2022-09-29T12:20:02Z</time>
      </trkpt>
      <trkpt lat="44.41862" lon="5.24286">
        <ele>558</ele>
        <time>2022-09-29T12:20:03Z</time>
      </trkpt>
      <trkpt lat="44.41861" lon="5.24287">
        <ele>558</ele>
        <time>2022-09-29T12:20:04Z</time>
      </trkpt>
      <trkpt lat="44.4186" lon="5.24288">
        <ele>558</ele>
        <time>2022-09-29T12:20:05Z</time>
      </trkpt>
      <trkpt lat="44.41859" lon="5.24288">
        <ele>558</ele>
        <time>2022-09-29T12:20:06Z</time>
      </trkpt>
      <trkpt lat="44.41858" lon="5.24289">
        <ele>558</ele>
        <time>2022-09-29T12:20:07Z</time>
      </trkpt>
      <trkpt lat="44.41857" lon="5.2429">
        <ele>558</ele>
        <time>2022-09-29T12:20:08Z</time>
      </trkpt>
      <trkpt lat="44.41856" lon="5.2429">
        <ele>558</ele>
        <time>2022-09-29T12:20:09Z</time>
      </trkpt>
      <trkpt lat="44.41855" lon="5.24291">
        <ele>558</ele>
        <time>2022-09-29T12:20:10Z</time>
      </trkpt>
      <trkpt lat="44.41854" lon="5.24291">
        <ele>558</ele>
        <time>2022-09-29T12:20:11Z</time>
      </trkpt>
      <trkpt lat="44.41853" lon="5.24292">
        <ele>558</ele>
        <time>2022-09-29T12:20:12Z</time>
      </trkpt>
      <trkpt lat="44.41852" lon="5.24292">
        <ele>558</ele>
        <time>2022-09-29T12:20:13Z</time>
      </trkpt>
      <trkpt lat="44.41852" lon="5.24292">
        <ele>558</ele>
        <time>2022-09-29T12:20:14Z</time>
      </trkpt>
      <trkpt lat="44.41851" lon="5.24293">
        <ele>558</ele>
        <time>2022-09-29T12:20:15Z</time>
      </trkpt>
      <trkpt lat="44.4185" lon="5.24293">
        <ele>558</ele>
        <time>2022-09-29T12:20:16Z</time>
      </trkpt>
      <trkpt lat="44.41849" lon="5.24293">
        <ele>558</ele>
        <time>2022-09-29T12:20:17Z</time>
      </trkpt>
      <trkpt lat="44.41848" lon="5.24294">
        <ele>558</ele>
        <time>2022-09-29T12:20:18Z</time>
      </trkpt>
      <trkpt lat="44.41847" lon="5.24294">
        <ele>558</ele>
        <time>2022-09-29T12:20:19Z</time>
      </trkpt>
      <trkpt lat="44.41846" lon="5.24295">
        <ele>558</ele>
        <time>2022-09-29T12:20:20Z</time>
      </trkpt>
      <trkpt lat="44.41846" lon="5.24296">
        <ele>558</ele>
        <time>2022-09-29T12:20:21Z</time>
      </trkpt>
      <trkpt lat="44.41845" lon="5.24297">
        <ele>558</ele>
        <time>2022-09-29T12:20:22Z</time>
      </trkpt>
      <trkpt lat="44.41844" lon="5.24297">
        <ele>558</ele>
        <time>2022-09-29T12:20:23Z</time>
      </trkpt>
      <trkpt lat="44.41843" lon="5.24298">
        <ele>558</ele>
        <time>2022-09-29T12:20:24Z</time>
      </trkpt>
      <trkpt lat="44.41842" lon="5.24299">
        <ele>558</ele>
        <time>2022-09-29T12:20:25Z</time>
      </trkpt>
      <trkpt lat="44.41842" lon="5.243">
        <ele>558</ele>
        <time>2022-09-29T12:20:26Z</time>
      </trkpt>
      <trkpt lat="44.41841" lon="5.24301">
        <ele>558</ele>
        <time>2022-09-29T12:20:27Z</time>
      </trkpt>
      <trkpt lat="44.4184" lon="5.24302">
        <ele>558</ele>
        <time>2022-09-29T12:20:28Z</time>
      </trkpt>
      <trkpt lat="44.4184" lon="5.24303">
        <ele>558</ele>
        <time>2022-09-29T12:20:29Z</time>
      </trkpt>
      <trkpt lat="44.41839" lon="5.24305">
        <ele>558</ele>
        <time>2022-09-29T12:20:30Z</time>
      </trkpt>
      <trkpt lat="44.41839" lon="5.24306">
        <ele>558</ele>
        <time>2022-09-29T12:20:31Z</time>
      </trkpt>
      <trkpt lat="44.41839" lon="5.24307">
        <ele>558</ele>
        <time>2022-09-29T12:20:32Z</time>
      </trkpt>
      <trkpt lat="44.41839" lon="5.24309">
        <ele>558</ele>
        <time>2022-09-29T12:20:33Z</time>
      </trkpt>
      <trkpt lat="44.41838" lon="5.2431">
        <ele>558</ele>
        <time>2022-09-29T12:20:34Z</time>
      </trkpt>
      <trkpt lat="44.41838" lon="5.24311">
        <ele>558</ele>
        <time>2022-09-29T12:20:35Z</time>
      </trkpt>
      <trkpt lat="44.41838" lon="5.24313">
        <ele>558</ele>
        <time>2022-09-29T12:20:36Z</time>
      </trkpt>
      <trkpt lat="44.41837" lon="5.24314">
        <ele>558</ele>
        <time>2022-09-29T12:20:37Z</time>
      </trkpt>
      <trkpt lat="44.41837" lon="5.24316">
        <ele>558</ele>
        <time>2022-09-29T12:20:38Z</time>
      </trkpt>
      <trkpt lat="44.41837" lon="5.24317">
        <ele>558</ele>
        <time>2022-09-29T12:20:39Z</time>
      </trkpt>
      <trkpt lat="44.41836" lon="5.24319">
        <ele>558</ele>
        <time>2022-09-29T12:20:40Z</time>
      </trkpt>
      <trkpt lat="44.41836" lon="5.2432">
        <ele>558</ele>
        <time>2022-09-29T12:20:41Z</time>
      </trkpt>
      <trkpt lat="44.41835" lon="5.24322">
        <ele>558</ele>
        <time>2022-09-29T12:20:42Z</time>
      </trkpt>
      <trkpt lat="44.41835" lon="5.24323">
        <ele>558</ele>
        <time>2022-09-29T12:20:43Z</time>
      </trkpt>
      <trkpt lat="44.41835" lon="5.24324">
        <ele>558</ele>
        <time>2022-09-29T12:20:44Z</time>
      </trkpt>
      <trkpt lat="44.41834" lon="5.24325">
        <ele>558</ele>
        <time>2022-09-29T12:20:45Z</time>
      </trkpt>
      <trkpt lat="44.41833" lon="5.24327">
        <ele>558</ele>
        <time>2022-09-29T12:20:46Z</time>
      </trkpt>
      <trkpt lat="44.41833" lon="5.24328">
        <ele>558</ele>
        <time>2022-09-29T12:20:47Z</time>
      </trkpt>
      <trkpt lat="44.41832" lon="5.24329">
        <ele>558</ele>
        <time>2022-09-29T12:20:48Z</time>
      </trkpt>
      <trkpt lat="44.41832" lon="5.2433">
        <ele>558</ele>
        <time>2022-09-29T12:20:49Z</time>
      </trkpt>
      <trkpt lat="44.41831" lon="5.24331">
        <ele>558</ele>
        <time>2022-09-29T12:20:50Z</time>
      </trkpt>
      <trkpt lat="44.41831" lon="5.24332">
        <ele>558</ele>
        <time>2022-09-29T12:20:51Z</time>
      </trkpt>
      <trkpt lat="44.41831" lon="5.24333">
        <ele>558</ele>
        <time>2022-09-29T12:20:52Z</time>
      </trkpt>
      <trkpt lat="44.4183" lon="5.24335">
        <ele>558</ele>
        <time>2022-09-29T12:20:53Z</time>
      </trkpt>
      <trkpt lat="44.4183" lon="5.24336">
        <ele>558</ele>
        <time>2022-09-29T12:20:54Z</time>
      </trkpt>
      <trkpt lat="44.4183" lon="5.24337">
        <ele>558</ele>
        <time>2022-09-29T12:20:55Z</time>
      </trkpt>
      <trkpt lat="44.41829" lon="5.24338">
        <ele>558</ele>
        <time>2022-09-29T12:20:56Z</time>
      </trkpt>
      <trkpt lat="44.41829" lon="5.2434">
        <ele>558</ele>
        <time>2022-09-29T12:20:57Z</time>
      </trkpt>
      <trkpt lat="44.41829" lon="5.24341">
        <ele>558</ele>
        <time>2022-09-29T12:20:58Z</time>
      </trkpt>
      <trkpt lat="44.41829" lon="5.24342">
        <ele>558</ele>
        <time>2022-09-29T12:20:59Z</time>
      </trkpt>
      <trkpt lat="44.41829" lon="5.24344">
        <ele>558</ele>
        <time>2022-09-29T12:21:00Z</time>
      </trkpt>
      <trkpt lat="44.41829" lon="5.24345">
        <ele>558</ele>
        <time>2022-09-29T12:21:01Z</time>
      </trkpt>
      <trkpt lat="44.41829" lon="5.24346">
        <ele>558</ele>
        <time>2022-09-29T12:21:02Z</time>
      </trkpt>
      <trkpt lat="44.41829" lon="5.24348">
        <ele>559</ele>
        <time>2022-09-29T12:21:03Z</time>
      </trkpt>
      <trkpt lat="44.41828" lon="5.24349">
        <ele>559</ele>
        <time>2022-09-29T12:21:04Z</time>
      </trkpt>
      <trkpt lat="44.41828" lon="5.2435">
        <ele>559</ele>
        <time>2022-09-29T12:21:05Z</time>
      </trkpt>
      <trkpt lat="44.41828" lon="5.24352">
        <ele>559</ele>
        <time>2022-09-29T12:21:06Z</time>
      </trkpt>
      <trkpt lat="44.41828" lon="5.24353">
        <ele>559</ele>
        <time>2022-09-29T12:21:07Z</time>
      </trkpt>
      <trkpt lat="44.41827" lon="5.24354">
        <ele>559</ele>
        <time>2022-09-29T12:21:08Z</time>
      </trkpt>
      <trkpt lat="44.41827" lon="5.24355">
        <ele>559</ele>
        <time>2022-09-29T12:21:09Z</time>
      </trkpt>
      <trkpt lat="44.41827" lon="5.24356">
        <ele>559</ele>
        <time>2022-09-29T12:21:10Z</time>
      </trkpt>
      <trkpt lat="44.41827" lon="5.24357">
        <ele>559</ele>
        <time>2022-09-29T12:21:11Z</time>
      </trkpt>
      <trkpt lat="44.41826" lon="5.24358">
        <ele>559</ele>
        <time>2022-09-29T12:21:12Z</time>
      </trkpt>
      <trkpt lat="44.41826" lon="5.24359">
        <ele>559</ele>
        <time>2022-09-29T12:21:13Z</time>
      </trkpt>
      <trkpt lat="44.41825" lon="5.2436">
        <ele>559</ele>
        <time>2022-09-29T12:21:14Z</time>
      </trkpt>
      <trkpt lat="44.41825" lon="5.24362">
        <ele>559</ele>
        <time>2022-09-29T12:21:15Z</time>
      </trkpt>
      <trkpt lat="44.41825" lon="5.24363">
        <ele>559</ele>
        <time>2022-09-29T12:21:16Z</time>
      </trkpt>
      <trkpt lat="44.41825" lon="5.24364">
        <ele>559</ele>
        <time>2022-09-29T12:21:17Z</time>
      </trkpt>
      <trkpt lat="44.41825" lon="5.24366">
        <ele>559</ele>
        <time>2022-09-29T12:21:18Z</time>
      </trkpt>
      <trkpt lat="44.41826" lon="5.24367">
        <ele>559</ele>
        <time>2022-09-29T12:21:19Z</time>
      </trkpt>
      <trkpt lat="44.41826" lon="5.24369">
        <ele>559</ele>
        <time>2022-09-29T12:21:20Z</time>
      </trkpt>
      <trkpt lat="44.41826" lon="5.2437">
        <ele>559</ele>
        <time>2022-09-29T12:21:21Z</time>
      </trkpt>
      <trkpt lat="44.41826" lon="5.24371">
        <ele>559</ele>
        <time>2022-09-29T12:21:22Z</time>
      </trkpt>
      <trkpt lat="44.41826" lon="5.24373">
        <ele>559</ele>
        <time>2022-09-29T12:21:23Z</time>
      </trkpt>
      <trkpt lat="44.41826" lon="5.24374">
        <ele>558</ele>
        <time>2022-09-29T12:21:24Z</time>
      </trkpt>
      <trkpt lat="44.41826" lon="5.24376">
        <ele>558</ele>
        <time>2022-09-29T12:21:25Z</time>
      </trkpt>
      <trkpt lat="44.41826" lon="5.24377">
        <ele>558</ele>
        <time>2022-09-29T12:21:26Z</time>
      </trkpt>
      <trkpt lat="44.41825" lon="5.24378">
        <ele>558</ele>
        <time>2022-09-29T12:21:27Z</time>
      </trkpt>
      <trkpt lat="44.41825" lon="5.24379">
        <ele>558</ele>
        <time>2022-09-29T12:21:28Z</time>
      </trkpt>
      <trkpt lat="44.41825" lon="5.2438">
        <ele>558</ele>
        <time>2022-09-29T12:21:29Z</time>
      </trkpt>
      <trkpt lat="44.41825" lon="5.24382">
        <ele>558</ele>
        <time>2022-09-29T12:21:30Z</time>
      </trkpt>
      <trkpt lat="44.41824" lon="5.24383">
        <ele>558</ele>
        <time>2022-09-29T12:21:31Z</time>
      </trkpt>
      <trkpt lat="44.41824" lon="5.24384">
        <ele>558</ele>
        <time>2022-09-29T12:21:32Z</time>
      </trkpt>
      <trkpt lat="44.41824" lon="5.24385">
        <ele>558</ele>
        <time>2022-09-29T12:21:33Z</time>
      </trkpt>
      <trkpt lat="44.41824" lon="5.24386">
        <ele>558</ele>
        <time>2022-09-29T12:21:34Z</time>
      </trkpt>
      <trkpt lat="44.41823" lon="5.24388">
        <ele>558</ele>
        <time>2022-09-29T12:21:35Z</time>
      </trkpt>
      <trkpt lat="44.41823" lon="5.24389">
        <ele>558</ele>
        <time>2022-09-29T12:21:36Z</time>
      </trkpt>
      <trkpt lat="44.41823" lon="5.2439">
        <ele>558</ele>
        <time>2022-09-29T12:21:37Z</time>
      </trkpt>
      <trkpt lat="44.41823" lon="5.24392">
        <ele>558</ele>
        <time>2022-09-29T12:21:38Z</time>
      </trkpt>
      <trkpt lat="44.41823" lon="5.24393">
        <ele>557</ele>
        <time>2022-09-29T12:21:39Z</time>
      </trkpt>
      <trkpt lat="44.41822" lon="5.24394">
        <ele>557</ele>
        <time>2022-09-29T12:21:40Z</time>
      </trkpt>
      <trkpt lat="44.41822" lon="5.24396">
        <ele>557</ele>
        <time>2022-09-29T12:21:41Z</time>
      </trkpt>
      <trkpt lat="44.41822" lon="5.24397">
        <ele>557</ele>
        <time>2022-09-29T12:21:42Z</time>
      </trkpt>
      <trkpt lat="44.41821" lon="5.24399">
        <ele>557</ele>
        <time>2022-09-29T12:21:43Z</time>
      </trkpt>
      <trkpt lat="44.41821" lon="5.244">
        <ele>557</ele>
        <time>2022-09-29T12:21:44Z</time>
      </trkpt>
      <trkpt lat="44.4182" lon="5.24401">
        <ele>557</ele>
        <time>2022-09-29T12:21:45Z</time>
      </trkpt>
      <trkpt lat="44.4182" lon="5.24402">
        <ele>557</ele>
        <time>2022-09-29T12:21:46Z</time>
      </trkpt>
      <trkpt lat="44.41819" lon="5.24404">
        <ele>557</ele>
        <time>2022-09-29T12:21:47Z</time>
      </trkpt>
      <trkpt lat="44.41819" lon="5.24405">
        <ele>557</ele>
        <time>2022-09-29T12:21:48Z</time>
      </trkpt>
      <trkpt lat="44.41818" lon="5.24406">
        <ele>557</ele>
        <time>2022-09-29T12:21:49Z</time>
      </trkpt>
      <trkpt lat="44.41818" lon="5.24407">
        <ele>557</ele>
        <time>2022-09-29T12:21:50Z</time>
      </trkpt>
      <trkpt lat="44.41818" lon="5.24408">
        <ele>557</ele>
        <time>2022-09-29T12:21:51Z</time>
      </trkpt>
      <trkpt lat="44.41818" lon="5.24409">
        <ele>557</ele>
        <time>2022-09-29T12:21:52Z</time>
      </trkpt>
      <trkpt lat="44.41818" lon="5.2441">
        <ele>557</ele>
        <time>2022-09-29T12:21:53Z</time>
      </trkpt>
      <trkpt lat="44.41818" lon="5.24411">
        <ele>557</ele>
        <time>2022-09-29T12:21:54Z</time>
      </trkpt>
      <trkpt lat="44.41818" lon="5.24413">
        <ele>557</ele>
        <time>2022-09-29T12:21:55Z</time>
      </trkpt>
      <trkpt lat="44.41818" lon="5.24414">
        <ele>557</ele>
        <time>2022-09-29T12:21:56Z</time>
      </trkpt>
      <trkpt lat="44.41819" lon="5.24415">
        <ele>557</ele>
        <time>2022-09-29T12:21:57Z</time>
      </trkpt>
      <trkpt lat="44.41819" lon="5.24416">
        <ele>557</ele>
        <time>2022-09-29T12:21:58Z</time>
      </trkpt>
      <trkpt lat="44.41819" lon="5.24417">
        <ele>557</ele>
        <time>2022-09-29T12:21:59Z</time>
      </trkpt>
      <trkpt lat="44.4182" lon="5.24419">
        <ele>557</ele>
        <time>2022-09-29T12:22:00Z</time>
      </trkpt>
      <trkpt lat="44.4182" lon="5.2442">
        <ele>557</ele>
        <time>2022-09-29T12:22:01Z</time>
      </trkpt>
      <trkpt lat="44.41821" lon="5.24421">
        <ele>557</ele>
        <time>2022-09-29T12:22:02Z</time>
      </trkpt>
      <trkpt lat="44.41821" lon="5.24422">
        <ele>557</ele>
        <time>2022-09-29T12:22:03Z</time>
      </trkpt>
      <trkpt lat="44.41822" lon="5.24424">
        <ele>557</ele>
        <time>2022-09-29T12:22:04Z</time>
      </trkpt>
      <trkpt lat="44.41822" lon="5.24425">
        <ele>557</ele>
        <time>2022-09-29T12:22:05Z</time>
      </trkpt>
      <trkpt lat="44.41822" lon="5.24427">
        <ele>557</ele>
        <time>2022-09-29T12:22:06Z</time>
      </trkpt>
      <trkpt lat="44.41823" lon="5.24428">
        <ele>557</ele>
        <time>2022-09-29T12:22:07Z</time>
      </trkpt>
      <trkpt lat="44.41823" lon="5.24429">
        <ele>557</ele>
        <time>2022-09-29T12:22:08Z</time>
      </trkpt>
      <trkpt lat="44.41823" lon="5.24431">
        <ele>557</ele>
        <time>2022-09-29T12:22:09Z</time>
      </trkpt>
      <trkpt lat="44.41824" lon="5.24432">
        <ele>557</ele>
        <time>2022-09-29T12:22:10Z</time>
      </trkpt>
      <trkpt lat="44.41824" lon="5.24434">
        <ele>557</ele>
        <time>2022-09-29T12:22:11Z</time>
      </trkpt>
      <trkpt lat="44.41824" lon="5.24435">
        <ele>557</ele>
        <time>2022-09-29T12:22:12Z</time>
      </trkpt>
      <trkpt lat="44.41825" lon="5.24437">
        <ele>557</ele>
        <time>2022-09-29T12:22:13Z</time>
      </trkpt>
      <trkpt lat="44.41825" lon="5.24438">
        <ele>557</ele>
        <time>2022-09-29T12:22:14Z</time>
      </trkpt>
      <trkpt lat="44.41825" lon="5.24439">
        <ele>557</ele>
        <time>2022-09-29T12:22:15Z</time>
      </trkpt>
      <trkpt lat="44.41825" lon="5.24441">
        <ele>557</ele>
        <time>2022-09-29T12:22:16Z</time>
      </trkpt>
      <trkpt lat="44.41825" lon="5.24442">
        <ele>557</ele>
        <time>2022-09-29T12:22:17Z</time>
      </trkpt>
      <trkpt lat="44.41826" lon="5.24444">
        <ele>558</ele>
        <time>2022-09-29T12:22:18Z</time>
      </trkpt>
      <trkpt lat="44.41826" lon="5.24445">
        <ele>558</ele>
        <time>2022-09-29T12:22:19Z</time>
      </trkpt>
      <trkpt lat="44.41826" lon="5.24447">
        <ele>558</ele>
        <time>2022-09-29T12:22:20Z</time>
      </trkpt>
      <trkpt lat="44.41827" lon="5.24448">
        <ele>558</ele>
        <time>2022-09-29T12:22:21Z</time>
      </trkpt>
      <trkpt lat="44.41827" lon="5.2445">
        <ele>558</ele>
        <time>2022-09-29T12:22:22Z</time>
      </trkpt>
      <trkpt lat="44.41827" lon="5.24451">
        <ele>558</ele>
        <time>2022-09-29T12:22:23Z</time>
      </trkpt>
      <trkpt lat="44.41827" lon="5.24452">
        <ele>558</ele>
        <time>2022-09-29T12:22:24Z</time>
      </trkpt>
      <trkpt lat="44.41827" lon="5.24454">
        <ele>558</ele>
        <time>2022-09-29T12:22:25Z</time>
      </trkpt>
      <trkpt lat="44.41828" lon="5.24455">
        <ele>558</ele>
        <time>2022-09-29T12:22:26Z</time>
      </trkpt>
      <trkpt lat="44.41828" lon="5.24456">
        <ele>558</ele>
        <time>2022-09-29T12:22:27Z</time>
      </trkpt>
      <trkpt lat="44.41828" lon="5.24458">
        <ele>559</ele>
        <time>2022-09-29T12:22:28Z</time>
      </trkpt>
      <trkpt lat="44.41828" lon="5.24459">
        <ele>559</ele>
        <time>2022-09-29T12:22:29Z</time>
      </trkpt>
      <trkpt lat="44.41828" lon="5.2446">
        <ele>559</ele>
        <time>2022-09-29T12:22:30Z</time>
      </trkpt>
      <trkpt lat="44.41828" lon="5.24462">
        <ele>559</ele>
        <time>2022-09-29T12:22:31Z</time>
      </trkpt>
      <trkpt lat="44.41828" lon="5.24463">
        <ele>559</ele>
        <time>2022-09-29T12:22:32Z</time>
      </trkpt>
      <trkpt lat="44.41829" lon="5.24464">
        <ele>559</ele>
        <time>2022-09-29T12:22:33Z</time>
      </trkpt>
      <trkpt lat="44.41829" lon="5.24466">
        <ele>559</ele>
        <time>2022-09-29T12:22:34Z</time>
      </trkpt>
      <trkpt lat="44.41829" lon="5.24467">
        <ele>559</ele>
        <time>2022-09-29T12:22:35Z</time>
      </trkpt>
      <trkpt lat="44.4183" lon="5.24468">
        <ele>559</ele>
        <time>2022-09-29T12:22:36Z</time>
      </trkpt>
      <trkpt lat="44.4183" lon="5.24469">
        <ele>559</ele>
        <time>2022-09-29T12:22:37Z</time>
      </trkpt>
      <trkpt lat="44.4183" lon="5.2447">
        <ele>559</ele>
        <time>2022-09-29T12:22:38Z</time>
      </trkpt>
      <trkpt lat="44.4183" lon="5.24472">
        <ele>559</ele>
        <time>2022-09-29T12:22:39Z</time>
      </trkpt>
      <trkpt lat="44.41831" lon="5.24473">
        <ele>559</ele>
        <time>2022-09-29T12:22:40Z</time>
      </trkpt>
      <trkpt lat="44.41831" lon="5.24474">
        <ele>559</ele>
        <time>2022-09-29T12:22:41Z</time>
      </trkpt>
      <trkpt lat="44.41831" lon="5.24475">
        <ele>559</ele>
        <time>2022-09-29T12:22:42Z</time>
      </trkpt>
      <trkpt lat="44.41831" lon="5.24476">
        <ele>560</ele>
        <time>2022-09-29T12:22:43Z</time>
      </trkpt>
      <trkpt lat="44.41832" lon="5.24477">
        <ele>560</ele>
        <time>2022-09-29T12:22:44Z</time>
      </trkpt>
      <trkpt lat="44.41832" lon="5.24478">
        <ele>560</ele>
        <time>2022-09-29T12:22:45Z</time>
      </trkpt>
      <trkpt lat="44.41832" lon="5.24479">
        <ele>560</ele>
        <time>2022-09-29T12:22:46Z</time>
      </trkpt>
      <trkpt lat="44.41832" lon="5.2448">
        <ele>560</ele>
        <time>2022-09-29T12:22:47Z</time>
      </trkpt>
      <trkpt lat="44.41833" lon="5.24481">
        <ele>560</ele>
        <time>2022-09-29T12:22:48Z</time>
      </trkpt>
      <trkpt lat="44.41833" lon="5.24482">
        <ele>560</ele>
        <time>2022-09-29T12:22:49Z</time>
      </trkpt>
      <trkpt lat="44.41834" lon="5.24483">
        <ele>560</ele>
        <time>2022-09-29T12:22:50Z</time>
      </trkpt>
      <trkpt lat="44.41834" lon="5.24484">
        <ele>560</ele>
        <time>2022-09-29T12:22:51Z</time>
      </trkpt>
      <trkpt lat="44.41835" lon="5.24485">
        <ele>560</ele>
        <time>2022-09-29T12:22:52Z</time>
      </trkpt>
      <trkpt lat="44.41835" lon="5.24487">
        <ele>561</ele>
        <time>2022-09-29T12:22:53Z</time>
      </trkpt>
      <trkpt lat="44.41836" lon="5.24488">
        <ele>561</ele>
        <time>2022-09-29T12:22:54Z</time>
      </trkpt>
      <trkpt lat="44.41836" lon="5.24489">
        <ele>561</ele>
        <time>2022-09-29T12:22:55Z</time>
      </trkpt>
      <trkpt lat="44.41837" lon="5.2449">
        <ele>561</ele>
        <time>2022-09-29T12:22:56Z</time>
      </trkpt>
      <trkpt lat="44.41837" lon="5.24491">
        <ele>561</ele>
        <time>2022-09-29T12:22:57Z</time>
      </trkpt>
      <trkpt lat="44.41838" lon="5.24492">
        <ele>562</ele>
        <time>2022-09-29T12:22:58Z</time>
      </trkpt>
      <trkpt lat="44.41838" lon="5.24493">
        <ele>562</ele>
        <time>2022-09-29T12:22:59Z</time>
      </trkpt>
      <trkpt lat="44.41839" lon="5.24494">
        <ele>562</ele>
        <time>2022-09-29T12:23:00Z</time>
      </trkpt>
      <trkpt lat="44.41839" lon="5.24495">
        <ele>562</ele>
        <time>2022-09-29T12:23:01Z</time>
      </trkpt>
      <trkpt lat="44.4184" lon="5.24496">
        <ele>562</ele>
        <time>2022-09-29T12:23:02Z</time>
      </trkpt>
      <trkpt lat="44.4184" lon="5.24497">
        <ele>562</ele>
        <time>2022-09-29T12:23:03Z</time>
      </trkpt>
      <trkpt lat="44.41841" lon="5.24498">
        <ele>562</ele>
        <time>2022-09-29T12:23:04Z</time>
      </trkpt>
      <trkpt lat="44.41842" lon="5.24499">
        <ele>562</ele>
        <time>2022-09-29T12:23:05Z</time>
      </trkpt>
      <trkpt lat="44.41842" lon="5.24501">
        <ele>562</ele>
        <time>2022-09-29T12:23:06Z</time>
      </trkpt>
      <trkpt lat="44.41843" lon="5.24502">
        <ele>562</ele>
        <time>2022-09-29T12:23:07Z</time>
      </trkpt>
      <trkpt lat="44.41844" lon="5.24503">
        <ele>563</ele>
        <time>2022-09-29T12:23:08Z</time>
      </trkpt>
      <trkpt lat="44.41844" lon="5.24504">
        <ele>563</ele>
        <time>2022-09-29T12:23:09Z</time>
      </trkpt>
      <trkpt lat="44.41845" lon="5.24505">
        <ele>563</ele>
        <time>2022-09-29T12:23:10Z</time>
      </trkpt>
      <trkpt lat="44.41845" lon="5.24506">
        <ele>563</ele>
        <time>2022-09-29T12:23:11Z</time>
      </trkpt>
      <trkpt lat="44.41846" lon="5.24507">
        <ele>563</ele>
        <time>2022-09-29T12:23:12Z</time>
      </trkpt>
      <trkpt lat="44.41846" lon="5.24509">
        <ele>563</ele>
        <time>2022-09-29T12:23:13Z</time>
      </trkpt>
      <trkpt lat="44.41847" lon="5.2451">
        <ele>563</ele>
        <time>2022-09-29T12:23:14Z</time>
      </trkpt>
      <trkpt lat="44.41848" lon="5.24511">
        <ele>563</ele>
        <time>2022-09-29T12:23:15Z</time>
      </trkpt>
      <trkpt lat="44.41848" lon="5.24512">
        <ele>563</ele>
        <time>2022-09-29T12:23:16Z</time>
      </trkpt>
      <trkpt lat="44.41849" lon="5.24513">
        <ele>563</ele>
        <time>2022-09-29T12:23:17Z</time>
      </trkpt>
      <trkpt lat="44.41849" lon="5.24515">
        <ele>564</ele>
        <time>2022-09-29T12:23:18Z</time>
      </trkpt>
      <trkpt lat="44.41849" lon="5.24516">
        <ele>564</ele>
        <time>2022-09-29T12:23:19Z</time>
      </trkpt>
      <trkpt lat="44.4185" lon="5.24517">
        <ele>564</ele>
        <time>2022-09-29T12:23:20Z</time>
      </trkpt>
      <trkpt lat="44.4185" lon="5.24518">
        <ele>564</ele>
        <time>2022-09-29T12:23:21Z</time>
      </trkpt>
      <trkpt lat="44.41851" lon="5.24519">
        <ele>564</ele>
        <time>2022-09-29T12:23:22Z</time>
      </trkpt>
      <trkpt lat="44.41851" lon="5.24521">
        <ele>564</ele>
        <time>2022-09-29T12:23:23Z</time>
      </trkpt>
      <trkpt lat="44.41852" lon="5.24522">
        <ele>564</ele>
        <time>2022-09-29T12:23:24Z</time>
      </trkpt>
      <trkpt lat="44.41852" lon="5.24523">
        <ele>564</ele>
        <time>2022-09-29T12:23:25Z</time>
      </trkpt>
      <trkpt lat="44.41852" lon="5.24524">
        <ele>564</ele>
        <time>2022-09-29T12:23:26Z</time>
      </trkpt>
      <trkpt lat="44.41853" lon="5.24525">
        <ele>564</ele>
        <time>2022-09-29T12:23:27Z</time>
      </trkpt>
      <trkpt lat="44.41854" lon="5.24526">
        <ele>565</ele>
        <time>2022-09-29T12:23:28Z</time>
      </trkpt>
      <trkpt lat="44.41854" lon="5.24527">
        <ele>565</ele>
        <time>2022-09-29T12:23:29Z</time>
      </trkpt>
      <trkpt lat="44.41855" lon="5.24529">
        <ele>565</ele>
        <time>2022-09-29T12:23:30Z</time>
      </trkpt>
      <trkpt lat="44.41855" lon="5.2453">
        <ele>565</ele>
        <time>2022-09-29T12:23:31Z</time>
      </trkpt>
      <trkpt lat="44.41856" lon="5.24531">
        <ele>565</ele>
        <time>2022-09-29T12:23:32Z</time>
      </trkpt>
      <trkpt lat="44.41856" lon="5.24533">
        <ele>565</ele>
        <time>2022-09-29T12:23:33Z</time>
      </trkpt>
      <trkpt lat="44.41857" lon="5.24534">
        <ele>565</ele>
        <time>2022-09-29T12:23:34Z</time>
      </trkpt>
      <trkpt lat="44.41857" lon="5.24535">
        <ele>565</ele>
        <time>2022-09-29T12:23:35Z</time>
      </trkpt>
      <trkpt lat="44.41857" lon="5.24536">
        <ele>565</ele>
        <time>2022-09-29T12:23:36Z</time>
      </trkpt>
      <trkpt lat="44.41857" lon="5.24538">
        <ele>565</ele>
        <time>2022-09-29T12:23:37Z</time>
      </trkpt>
      <trkpt lat="44.41858" lon="5.24539">
        <ele>566</ele>
        <time>2022-09-29T12:23:38Z</time>
      </trkpt>
      <trkpt lat="44.41858" lon="5.2454">
        <ele>566</ele>
        <time>2022-09-29T12:23:39Z</time>
      </trkpt>
      <trkpt lat="44.41858" lon="5.24541">
        <ele>566</ele>
        <time>2022-09-29T12:23:40Z</time>
      </trkpt>
      <trkpt lat="44.41858" lon="5.24542">
        <ele>566</ele>
        <time>2022-09-29T12:23:41Z</time>
      </trkpt>
      <trkpt lat="44.41858" lon="5.24543">
        <ele>566</ele>
        <time>2022-09-29T12:23:42Z</time>
      </trkpt>
      <trkpt lat="44.41859" lon="5.24544">
        <ele>566</ele>
        <time>2022-09-29T12:23:43Z</time>
      </trkpt>
      <trkpt lat="44.41859" lon="5.24546">
        <ele>566</ele>
        <time>2022-09-29T12:23:44Z</time>
      </trkpt>
      <trkpt lat="44.41859" lon="5.24547">
        <ele>566</ele>
        <time>2022-09-29T12:23:45Z</time>
      </trkpt>
      <trkpt lat="44.41859" lon="5.24548">
        <ele>566</ele>
        <time>2022-09-29T12:23:46Z</time>
      </trkpt>
      <trkpt lat="44.41859" lon="5.2455">
        <ele>566</ele>
        <time>2022-09-29T12:23:47Z</time>
      </trkpt>
      <trkpt lat="44.41859" lon="5.24551">
        <ele>567</ele>
        <time>2022-09-29T12:23:48Z</time>
      </trkpt>
      <trkpt lat="44.41859" lon="5.24552">
        <ele>567</ele>
        <time>2022-09-29T12:23:49Z</time>
      </trkpt>
      <trkpt lat="44.41859" lon="5.24554">
        <ele>567</ele>
        <time>2022-09-29T12:23:50Z</time>
      </trkpt>
      <trkpt lat="44.41858" lon="5.24555">
        <ele>567</ele>
        <time>2022-09-29T12:23:51Z</time>
      </trkpt>
      <trkpt lat="44.41858" lon="5.24556">
        <ele>567</ele>
        <time>2022-09-29T12:23:52Z</time>
      </trkpt>
      <trkpt lat="44.41857" lon="5.24557">
        <ele>567</ele>
        <time>2022-09-29T12:23:53Z</time>
      </trkpt>
      <trkpt lat="44.41856" lon="5.24558">
        <ele>567</ele>
        <time>2022-09-29T12:23:54Z</time>
      </trkpt>
      <trkpt lat="44.41855" lon="5.24559">
        <ele>567</ele>
        <time>2022-09-29T12:23:55Z</time>
      </trkpt>
      <trkpt lat="44.41854" lon="5.24559">
        <ele>567</ele>
        <time>2022-09-29T12:23:56Z</time>
      </trkpt>
      <trkpt lat="44.41853" lon="5.2456">
        <ele>567</ele>
        <time>2022-09-29T12:23:57Z</time>
      </trkpt>
      <trkpt lat="44.41852" lon="5.24561">
        <ele>568</ele>
        <time>2022-09-29T12:23:58Z</time>
      </trkpt>
      <trkpt lat="44.41851" lon="5.24561">
        <ele>568</ele>
        <time>2022-09-29T12:23:59Z</time>
      </trkpt>
      <trkpt lat="44.4185" lon="5.24562">
        <ele>568</ele>
        <time>2022-09-29T12:24:00Z</time>
      </trkpt>
      <trkpt lat="44.41849" lon="5.24562">
        <ele>568</ele>
        <time>2022-09-29T12:24:01Z</time>
      </trkpt>
      <trkpt lat="44.41848" lon="5.24563">
        <ele>568</ele>
        <time>2022-09-29T12:24:02Z</time>
      </trkpt>
      <trkpt lat="44.41847" lon="5.24563">
        <ele>568</ele>
        <time>2022-09-29T12:24:03Z</time>
      </trkpt>
      <trkpt lat="44.41846" lon="5.24564">
        <ele>568</ele>
        <time>2022-09-29T12:24:04Z</time>
      </trkpt>
      <trkpt lat="44.41845" lon="5.24564">
        <ele>568</ele>
        <time>2022-09-29T12:24:05Z</time>
      </trkpt>
      <trkpt lat="44.41845" lon="5.24565">
        <ele>568</ele>
        <time>2022-09-29T12:24:06Z</time>
      </trkpt>
      <trkpt lat="44.41844" lon="5.24566">
        <ele>568</ele>
        <time>2022-09-29T12:24:07Z</time>
      </trkpt>
      <trkpt lat="44.41843" lon="5.24567">
        <ele>569</ele>
        <time>2022-09-29T12:24:08Z</time>
      </trkpt>
      <trkpt lat="44.41842" lon="5.24567">
        <ele>569</ele>
        <time>2022-09-29T12:24:09Z</time>
      </trkpt>
      <trkpt lat="44.41841" lon="5.24569">
        <ele>569</ele>
        <time>2022-09-29T12:24:10Z</time>
      </trkpt>
      <trkpt lat="44.4184" lon="5.2457">
        <ele>569</ele>
        <time>2022-09-29T12:24:11Z</time>
      </trkpt>
      <trkpt lat="44.41838" lon="5.24571">
        <ele>569</ele>
        <time>2022-09-29T12:24:12Z</time>
      </trkpt>
      <trkpt lat="44.41837" lon="5.24573">
        <ele>569</ele>
        <time>2022-09-29T12:24:13Z</time>
      </trkpt>
      <trkpt lat="44.41836" lon="5.24574">
        <ele>569</ele>
        <time>2022-09-29T12:24:14Z</time>
      </trkpt>
      <trkpt lat="44.41834" lon="5.24575">
        <ele>569</ele>
        <time>2022-09-29T12:24:15Z</time>
      </trkpt>
      <trkpt lat="44.41833" lon="5.24576">
        <ele>569</ele>
        <time>2022-09-29T12:24:16Z</time>
      </trkpt>
      <trkpt lat="44.41832" lon="5.24577">
        <ele>569</ele>
        <time>2022-09-29T12:24:17Z</time>
      </trkpt>
      <trkpt lat="44.41831" lon="5.24577">
        <ele>569</ele>
        <time>2022-09-29T12:24:18Z</time>
      </trkpt>
      <trkpt lat="44.4183" lon="5.24578">
        <ele>569</ele>
        <time>2022-09-29T12:24:19Z</time>
      </trkpt>
      <trkpt lat="44.41829" lon="5.24578">
        <ele>569</ele>
        <time>2022-09-29T12:24:20Z</time>
      </trkpt>
      <trkpt lat="44.41828" lon="5.24578">
        <ele>569</ele>
        <time>2022-09-29T12:24:21Z</time>
      </trkpt>
      <trkpt lat="44.41827" lon="5.24579">
        <ele>569</ele>
        <time>2022-09-29T12:24:22Z</time>
      </trkpt>
      <trkpt lat="44.41826" lon="5.24579">
        <ele>569</ele>
        <time>2022-09-29T12:24:23Z</time>
      </trkpt>
      <trkpt lat="44.41825" lon="5.24579">
        <ele>569</ele>
        <time>2022-09-29T12:24:24Z</time>
      </trkpt>
      <trkpt lat="44.41824" lon="5.24579">
        <ele>569</ele>
        <time>2022-09-29T12:24:25Z</time>
      </trkpt>
      <trkpt lat="44.41823" lon="5.24579">
        <ele>569</ele>
        <time>2022-09-29T12:24:26Z</time>
      </trkpt>
      <trkpt lat="44.41822" lon="5.24579">
        <ele>569</ele>
        <time>2022-09-29T12:24:27Z</time>
      </trkpt>
      <trkpt lat="44.41821" lon="5.24579">
        <ele>569</ele>
        <time>2022-09-29T12:24:28Z</time>
      </trkpt>
      <trkpt lat="44.4182" lon="5.24579">
        <ele>569</ele>
        <time>2022-09-29T12:24:29Z</time>
      </trkpt>
      <trkpt lat="44.41819" lon="5.24579">
        <ele>569</ele>
        <time>2022-09-29T12:24:30Z</time>
      </trkpt>
      <trkpt lat="44.41818" lon="5.24579">
        <ele>569</ele>
        <time>2022-09-29T12:24:31Z</time>
      </trkpt>
      <trkpt lat="44.41817" lon="5.24578">
        <ele>569</ele>
        <time>2022-09-29T12:24:32Z</time>
      </trkpt>
      <trkpt lat="44.41816" lon="5.24578">
        <ele>569</ele>
        <time>2022-09-29T12:24:33Z</time>
      </trkpt>
      <trkpt lat="44.41815" lon="5.24577">
        <ele>569</ele>
        <time>2022-09-29T12:24:34Z</time>
      </trkpt>
      <trkpt lat="44.41814" lon="5.24577">
        <ele>569</ele>
        <time>2022-09-29T12:24:35Z</time>
      </trkpt>
      <trkpt lat="44.41813" lon="5.24576">
        <ele>569</ele>
        <time>2022-09-29T12:24:36Z</time>
      </trkpt>
      <trkpt lat="44.41812" lon="5.24576">
        <ele>569</ele>
        <time>2022-09-29T12:24:37Z</time>
      </trkpt>
      <trkpt lat="44.41811" lon="5.24575">
        <ele>569</ele>
        <time>2022-09-29T12:24:38Z</time>
      </trkpt>
      <trkpt lat="44.41811" lon="5.24575">
        <ele>569</ele>
        <time>2022-09-29T12:24:39Z</time>
      </trkpt>
      <trkpt lat="44.4181" lon="5.24574">
        <ele>569</ele>
        <time>2022-09-29T12:24:40Z</time>
      </trkpt>
      <trkpt lat="44.41809" lon="5.24574">
        <ele>569</ele>
        <time>2022-09-29T12:24:41Z</time>
      </trkpt>
      <trkpt lat="44.41808" lon="5.24573">
        <ele>569</ele>
        <time>2022-09-29T12:24:42Z</time>
      </trkpt>
      <trkpt lat="44.41808" lon="5.24573">
        <ele>569</ele>
        <time>2022-09-29T12:24:43Z</time>
      </trkpt>
      <trkpt lat="44.41807" lon="5.24572">
        <ele>569</ele>
        <time>2022-09-29T12:24:44Z</time>
      </trkpt>
      <trkpt lat="44.41806" lon="5.24571">
        <ele>569</ele>
        <time>2022-09-29T12:24:45Z</time>
      </trkpt>
      <trkpt lat="44.41805" lon="5.24571">
        <ele>569</ele>
        <time>2022-09-29T12:24:46Z</time>
      </trkpt>
      <trkpt lat="44.41804" lon="5.2457">
        <ele>569</ele>
        <time>2022-09-29T12:24:47Z</time>
      </trkpt>
      <trkpt lat="44.41803" lon="5.2457">
        <ele>569</ele>
        <time>2022-09-29T12:24:48Z</time>
      </trkpt>
      <trkpt lat="44.41802" lon="5.24569">
        <ele>569</ele>
        <time>2022-09-29T12:24:49Z</time>
      </trkpt>
      <trkpt lat="44.41801" lon="5.24569">
        <ele>569</ele>
        <time>2022-09-29T12:24:50Z</time>
      </trkpt>
      <trkpt lat="44.418" lon="5.24568">
        <ele>569</ele>
        <time>2022-09-29T12:24:51Z</time>
      </trkpt>
      <trkpt lat="44.41799" lon="5.24567">
        <ele>569</ele>
        <time>2022-09-29T12:24:52Z</time>
      </trkpt>
      <trkpt lat="44.41798" lon="5.24567">
        <ele>569</ele>
        <time>2022-09-29T12:24:53Z</time>
      </trkpt>
      <trkpt lat="44.41797" lon="5.24566">
        <ele>569</ele>
        <time>2022-09-29T12:24:54Z</time>
      </trkpt>
      <trkpt lat="44.41796" lon="5.24565">
        <ele>569</ele>
        <time>2022-09-29T12:24:55Z</time>
      </trkpt>
      <trkpt lat="44.41795" lon="5.24564">
        <ele>569</ele>
        <time>2022-09-29T12:24:56Z</time>
      </trkpt>
      <trkpt lat="44.41794" lon="5.24563">
        <ele>569</ele>
        <time>2022-09-29T12:24:57Z</time>
      </trkpt>
      <trkpt lat="44.41793" lon="5.24563">
        <ele>569</ele>
        <time>2022-09-29T12:24:58Z</time>
      </trkpt>
      <trkpt lat="44.41792" lon="5.24562">
        <ele>568</ele>
        <time>2022-09-29T12:24:59Z</time>
      </trkpt>
      <trkpt lat="44.41791" lon="5.24561">
        <ele>568</ele>
        <time>2022-09-29T12:25:00Z</time>
      </trkpt>
      <trkpt lat="44.4179" lon="5.2456">
        <ele>568</ele>
        <time>2022-09-29T12:25:01Z</time>
      </trkpt>
      <trkpt lat="44.41789" lon="5.24559">
        <ele>568</ele>
        <time>2022-09-29T12:25:02Z</time>
      </trkpt>
      <trkpt lat="44.41788" lon="5.24558">
        <ele>568</ele>
        <time>2022-09-29T12:25:03Z</time>
      </trkpt>
      <trkpt lat="44.41787" lon="5.24557">
        <ele>568</ele>
        <time>2022-09-29T12:25:04Z</time>
      </trkpt>
      <trkpt lat="44.41786" lon="5.24556">
        <ele>568</ele>
        <time>2022-09-29T12:25:05Z</time>
      </trkpt>
      <trkpt lat="44.41785" lon="5.24555">
        <ele>568</ele>
        <time>2022-09-29T12:25:06Z</time>
      </trkpt>
      <trkpt lat="44.41784" lon="5.24554">
        <ele>568</ele>
        <time>2022-09-29T12:25:07Z</time>
      </trkpt>
      <trkpt lat="44.41784" lon="5.24553">
        <ele>568</ele>
        <time>2022-09-29T12:25:08Z</time>
      </trkpt>
      <trkpt lat="44.41783" lon="5.24552">
        <ele>568</ele>
        <time>2022-09-29T12:25:09Z</time>
      </trkpt>
      <trkpt lat="44.41782" lon="5.24551">
        <ele>568</ele>
        <time>2022-09-29T12:25:10Z</time>
      </trkpt>
      <trkpt lat="44.41781" lon="5.2455">
        <ele>568</ele>
        <time>2022-09-29T12:25:11Z</time>
      </trkpt>
      <trkpt lat="44.4178" lon="5.24549">
        <ele>568</ele>
        <time>2022-09-29T12:25:12Z</time>
      </trkpt>
      <trkpt lat="44.41779" lon="5.24548">
        <ele>568</ele>
        <time>2022-09-29T12:25:13Z</time>
      </trkpt>
      <trkpt lat="44.41778" lon="5.24547">
        <ele>568</ele>
        <time>2022-09-29T12:25:14Z</time>
      </trkpt>
      <trkpt lat="44.41777" lon="5.24546">
        <ele>568</ele>
        <time>2022-09-29T12:25:15Z</time>
      </trkpt>
      <trkpt lat="44.41777" lon="5.24545">
        <ele>568</ele>
        <time>2022-09-29T12:25:16Z</time>
      </trkpt>
      <trkpt lat="44.41776" lon="5.24544">
        <ele>568</ele>
        <time>2022-09-29T12:25:17Z</time>
      </trkpt>
      <trkpt lat="44.41775" lon="5.24543">
        <ele>568</ele>
        <time>2022-09-29T12:25:18Z</time>
      </trkpt>
      <trkpt lat="44.41774" lon="5.24542">
        <ele>568</ele>
        <time>2022-09-29T12:25:19Z</time>
      </trkpt>
      <trkpt lat="44.41773" lon="5.24541">
        <ele>568</ele>
        <time>2022-09-29T12:25:20Z</time>
      </trkpt>
      <trkpt lat="44.41772" lon="5.2454">
        <ele>568</ele>
        <time>2022-09-29T12:25:21Z</time>
      </trkpt>
      <trkpt lat="44.41771" lon="5.24539">
        <ele>568</ele>
        <time>2022-09-29T12:25:22Z</time>
      </trkpt>
      <trkpt lat="44.4177" lon="5.24538">
        <ele>568</ele>
        <time>2022-09-29T12:25:23Z</time>
      </trkpt>
      <trkpt lat="44.41769" lon="5.24537">
        <ele>568</ele>
        <time>2022-09-29T12:25:24Z</time>
      </trkpt>
      <trkpt lat="44.41768" lon="5.24536">
        <ele>568</ele>
        <time>2022-09-29T12:25:25Z</time>
      </trkpt>
      <trkpt lat="44.41767" lon="5.24535">
        <ele>568</ele>
        <time>2022-09-29T12:25:26Z</time>
      </trkpt>
      <trkpt lat="44.41766" lon="5.24534">
        <ele>568</ele>
        <time>2022-09-29T12:25:27Z</time>
      </trkpt>
      <trkpt lat="44.41765" lon="5.24533">
        <ele>568</ele>
        <time>2022-09-29T12:25:28Z</time>
      </trkpt>
      <trkpt lat="44.41764" lon="5.24532">
        <ele>567</ele>
        <time>2022-09-29T12:25:29Z</time>
      </trkpt>
      <trkpt lat="44.41763" lon="5.24531">
        <ele>567</ele>
        <time>2022-09-29T12:25:30Z</time>
      </trkpt>
      <trkpt lat="44.41763" lon="5.2453">
        <ele>567</ele>
        <time>2022-09-29T12:25:31Z</time>
      </trkpt>
      <trkpt lat="44.41762" lon="5.24528">
        <ele>567</ele>
        <time>2022-09-29T12:25:32Z</time>
      </trkpt>
      <trkpt lat="44.41761" lon="5.24527">
        <ele>567</ele>
        <time>2022-09-29T12:25:33Z</time>
      </trkpt>
      <trkpt lat="44.4176" lon="5.24526">
        <ele>567</ele>
        <time>2022-09-29T12:25:34Z</time>
      </trkpt>
      <trkpt lat="44.41759" lon="5.24525">
        <ele>567</ele>
        <time>2022-09-29T12:25:35Z</time>
      </trkpt>
      <trkpt lat="44.41758" lon="5.24524">
        <ele>567</ele>
        <time>2022-09-29T12:25:36Z</time>
      </trkpt>
      <trkpt lat="44.41758" lon="5.24523">
        <ele>567</ele>
        <time>2022-09-29T12:25:37Z</time>
      </trkpt>
      <trkpt lat="44.41757" lon="5.24522">
        <ele>567</ele>
        <time>2022-09-29T12:25:38Z</time>
      </trkpt>
      <trkpt lat="44.41756" lon="5.2452">
        <ele>567</ele>
        <time>2022-09-29T12:25:39Z</time>
      </trkpt>
      <trkpt lat="44.41755" lon="5.24519">
        <ele>567</ele>
        <time>2022-09-29T12:25:40Z</time>
      </trkpt>
      <trkpt lat="44.41754" lon="5.24518">
        <ele>567</ele>
        <time>2022-09-29T12:25:41Z</time>
      </trkpt>
      <trkpt lat="44.41753" lon="5.24517">
        <ele>567</ele>
        <time>2022-09-29T12:25:42Z</time>
      </trkpt>
      <trkpt lat="44.41752" lon="5.24516">
        <ele>567</ele>
        <time>2022-09-29T12:25:43Z</time>
      </trkpt>
      <trkpt lat="44.41751" lon="5.24516">
        <ele>567</ele>
        <time>2022-09-29T12:25:44Z</time>
      </trkpt>
      <trkpt lat="44.41751" lon="5.24515">
        <ele>567</ele>
        <time>2022-09-29T12:25:45Z</time>
      </trkpt>
      <trkpt lat="44.4175" lon="5.24514">
        <ele>567</ele>
        <time>2022-09-29T12:25:46Z</time>
      </trkpt>
      <trkpt lat="44.41749" lon="5.24513">
        <ele>567</ele>
        <time>2022-09-29T12:25:47Z</time>
      </trkpt>
      <trkpt lat="44.41748" lon="5.24512">
        <ele>567</ele>
        <time>2022-09-29T12:25:48Z</time>
      </trkpt>
      <trkpt lat="44.41747" lon="5.24511">
        <ele>567</ele>
        <time>2022-09-29T12:25:49Z</time>
      </trkpt>
      <trkpt lat="44.41746" lon="5.24511">
        <ele>567</ele>
        <time>2022-09-29T12:25:50Z</time>
      </trkpt>
      <trkpt lat="44.41745" lon="5.2451">
        <ele>567</ele>
        <time>2022-09-29T12:25:51Z</time>
      </trkpt>
      <trkpt lat="44.41744" lon="5.2451">
        <ele>567</ele>
        <time>2022-09-29T12:25:52Z</time>
      </trkpt>
      <trkpt lat="44.41743" lon="5.24509">
        <ele>568</ele>
        <time>2022-09-29T12:25:53Z</time>
      </trkpt>
      <trkpt lat="44.41743" lon="5.24508">
        <ele>568</ele>
        <time>2022-09-29T12:25:54Z</time>
      </trkpt>
      <trkpt lat="44.41742" lon="5.24508">
        <ele>568</ele>
        <time>2022-09-29T12:25:55Z</time>
      </trkpt>
      <trkpt lat="44.41741" lon="5.24507">
        <ele>568</ele>
        <time>2022-09-29T12:25:56Z</time>
      </trkpt>
      <trkpt lat="44.4174" lon="5.24506">
        <ele>568</ele>
        <time>2022-09-29T12:25:57Z</time>
      </trkpt>
      <trkpt lat="44.41739" lon="5.24506">
        <ele>568</ele>
        <time>2022-09-29T12:25:58Z</time>
      </trkpt>
      <trkpt lat="44.41738" lon="5.24505">
        <ele>568</ele>
        <time>2022-09-29T12:25:59Z</time>
      </trkpt>
      <trkpt lat="44.41737" lon="5.24505">
        <ele>568</ele>
        <time>2022-09-29T12:26:00Z</time>
      </trkpt>
      <trkpt lat="44.41736" lon="5.24504">
        <ele>568</ele>
        <time>2022-09-29T12:26:01Z</time>
      </trkpt>
      <trkpt lat="44.41735" lon="5.24504">
        <ele>568</ele>
        <time>2022-09-29T12:26:02Z</time>
      </trkpt>
      <trkpt lat="44.41734" lon="5.24504">
        <ele>568</ele>
        <time>2022-09-29T12:26:03Z</time>
      </trkpt>
      <trkpt lat="44.41734" lon="5.24504">
        <ele>568</ele>
        <time>2022-09-29T12:26:04Z</time>
      </trkpt>
      <trkpt lat="44.41733" lon="5.24503">
        <ele>568</ele>
        <time>2022-09-29T12:26:05Z</time>
      </trkpt>
      <trkpt lat="44.41732" lon="5.24503">
        <ele>568</ele>
        <time>2022-09-29T12:26:06Z</time>
      </trkpt>
      <trkpt lat="44.41731" lon="5.24503">
        <ele>568</ele>
        <time>2022-09-29T12:26:07Z</time>
      </trkpt>
      <trkpt lat="44.4173" lon="5.24503">
        <ele>568</ele>
        <time>2022-09-29T12:26:08Z</time>
      </trkpt>
      <trkpt lat="44.41729" lon="5.24503">
        <ele>568</ele>
        <time>2022-09-29T12:26:09Z</time>
      </trkpt>
      <trkpt lat="44.41728" lon="5.24503">
        <ele>568</ele>
        <time>2022-09-29T12:26:10Z</time>
      </trkpt>
      <trkpt lat="44.41727" lon="5.24504">
        <ele>568</ele>
        <time>2022-09-29T12:26:11Z</time>
      </trkpt>
      <trkpt lat="44.41726" lon="5.24504">
        <ele>568</ele>
        <time>2022-09-29T12:26:12Z</time>
      </trkpt>
      <trkpt lat="44.41726" lon="5.24504">
        <ele>569</ele>
        <time>2022-09-29T12:26:13Z</time>
      </trkpt>
      <trkpt lat="44.41725" lon="5.24504">
        <ele>569</ele>
        <time>2022-09-29T12:26:14Z</time>
      </trkpt>
      <trkpt lat="44.41724" lon="5.24504">
        <ele>569</ele>
        <time>2022-09-29T12:26:15Z</time>
      </trkpt>
      <trkpt lat="44.41723" lon="5.24504">
        <ele>569</ele>
        <time>2022-09-29T12:26:16Z</time>
      </trkpt>
      <trkpt lat="44.41722" lon="5.24504">
        <ele>569</ele>
        <time>2022-09-29T12:26:17Z</time>
      </trkpt>
      <trkpt lat="44.41721" lon="5.24505">
        <ele>569</ele>
        <time>2022-09-29T12:26:18Z</time>
      </trkpt>
      <trkpt lat="44.41719" lon="5.24505">
        <ele>569</ele>
        <time>2022-09-29T12:26:19Z</time>
      </trkpt>
      <trkpt lat="44.41718" lon="5.24505">
        <ele>569</ele>
        <time>2022-09-29T12:26:20Z</time>
      </trkpt>
      <trkpt lat="44.41717" lon="5.24505">
        <ele>569</ele>
        <time>2022-09-29T12:26:21Z</time>
      </trkpt>
      <trkpt lat="44.41716" lon="5.24506">
        <ele>569</ele>
        <time>2022-09-29T12:26:22Z</time>
      </trkpt>
      <trkpt lat="44.41715" lon="5.24506">
        <ele>569</ele>
        <time>2022-09-29T12:26:23Z</time>
      </trkpt>
      <trkpt lat="44.41714" lon="5.24506">
        <ele>569</ele>
        <time>2022-09-29T12:26:24Z</time>
      </trkpt>
      <trkpt lat="44.41713" lon="5.24505">
        <ele>569</ele>
        <time>2022-09-29T12:26:25Z</time>
      </trkpt>
      <trkpt lat="44.41712" lon="5.24505">
        <ele>569</ele>
        <time>2022-09-29T12:26:26Z</time>
      </trkpt>
      <trkpt lat="44.41712" lon="5.24505">
        <ele>569</ele>
        <time>2022-09-29T12:26:27Z</time>
      </trkpt>
      <trkpt lat="44.41709" lon="5.24506">
        <ele>569</ele>
        <time>2022-09-29T12:28:44Z</time>
      </trkpt>
      <trkpt lat="44.41708" lon="5.24507">
        <ele>569</ele>
        <time>2022-09-29T12:28:45Z</time>
      </trkpt>
      <trkpt lat="44.41706" lon="5.24507">
        <ele>569</ele>
        <time>2022-09-29T12:28:46Z</time>
      </trkpt>
      <trkpt lat="44.41705" lon="5.24508">
        <ele>569</ele>
        <time>2022-09-29T12:28:47Z</time>
      </trkpt>
      <trkpt lat="44.41705" lon="5.24508">
        <ele>570</ele>
        <time>2022-09-29T12:28:48Z</time>
      </trkpt>
      <trkpt lat="44.41704" lon="5.24508">
        <ele>569</ele>
        <time>2022-09-29T12:28:49Z</time>
      </trkpt>
      <trkpt lat="44.41703" lon="5.24509">
        <ele>569</ele>
        <time>2022-09-29T12:28:50Z</time>
      </trkpt>
      <trkpt lat="44.41702" lon="5.24509">
        <ele>569</ele>
        <time>2022-09-29T12:28:51Z</time>
      </trkpt>
      <trkpt lat="44.41702" lon="5.2451">
        <ele>569</ele>
        <time>2022-09-29T12:28:52Z</time>
      </trkpt>
      <trkpt lat="44.41701" lon="5.2451">
        <ele>569</ele>
        <time>2022-09-29T12:28:53Z</time>
      </trkpt>
      <trkpt lat="44.417" lon="5.2451">
        <ele>569</ele>
        <time>2022-09-29T12:28:54Z</time>
      </trkpt>
      <trkpt lat="44.41699" lon="5.24511">
        <ele>569</ele>
        <time>2022-09-29T12:28:55Z</time>
      </trkpt>
      <trkpt lat="44.41698" lon="5.24511">
        <ele>569</ele>
        <time>2022-09-29T12:28:56Z</time>
      </trkpt>
      <trkpt lat="44.41698" lon="5.24512">
        <ele>569</ele>
        <time>2022-09-29T12:28:57Z</time>
      </trkpt>
      <trkpt lat="44.41697" lon="5.24512">
        <ele>569</ele>
        <time>2022-09-29T12:28:58Z</time>
      </trkpt>
      <trkpt lat="44.41696" lon="5.24513">
        <ele>569</ele>
        <time>2022-09-29T12:28:59Z</time>
      </trkpt>
      <trkpt lat="44.41695" lon="5.24513">
        <ele>569</ele>
        <time>2022-09-29T12:29:00Z</time>
      </trkpt>
      <trkpt lat="44.41694" lon="5.24513">
        <ele>569</ele>
        <time>2022-09-29T12:29:01Z</time>
      </trkpt>
      <trkpt lat="44.41694" lon="5.24513">
        <ele>569</ele>
        <time>2022-09-29T12:29:02Z</time>
      </trkpt>
      <trkpt lat="44.41693" lon="5.24514">
        <ele>569</ele>
        <time>2022-09-29T12:29:03Z</time>
      </trkpt>
      <trkpt lat="44.41692" lon="5.24514">
        <ele>569</ele>
        <time>2022-09-29T12:29:04Z</time>
      </trkpt>
      <trkpt lat="44.41691" lon="5.24514">
        <ele>569</ele>
        <time>2022-09-29T12:29:05Z</time>
      </trkpt>
      <trkpt lat="44.4169" lon="5.24515">
        <ele>569</ele>
        <time>2022-09-29T12:29:06Z</time>
      </trkpt>
      <trkpt lat="44.4169" lon="5.24515">
        <ele>569</ele>
        <time>2022-09-29T12:29:07Z</time>
      </trkpt>
      <trkpt lat="44.41689" lon="5.24515">
        <ele>569</ele>
        <time>2022-09-29T12:29:08Z</time>
      </trkpt>
      <trkpt lat="44.41688" lon="5.24515">
        <ele>569</ele>
        <time>2022-09-29T12:29:09Z</time>
      </trkpt>
      <trkpt lat="44.41688" lon="5.24516">
        <ele>569</ele>
        <time>2022-09-29T12:29:10Z</time>
      </trkpt>
      <trkpt lat="44.41687" lon="5.24516">
        <ele>569</ele>
        <time>2022-09-29T12:29:11Z</time>
      </trkpt>
      <trkpt lat="44.41686" lon="5.24516">
        <ele>569</ele>
        <time>2022-09-29T12:29:12Z</time>
      </trkpt>
      <trkpt lat="44.41685" lon="5.24517">
        <ele>569</ele>
        <time>2022-09-29T12:29:13Z</time>
      </trkpt>
      <trkpt lat="44.41685" lon="5.24517">
        <ele>569</ele>
        <time>2022-09-29T12:29:14Z</time>
      </trkpt>
      <trkpt lat="44.41684" lon="5.24517">
        <ele>569</ele>
        <time>2022-09-29T12:29:15Z</time>
      </trkpt>
      <trkpt lat="44.41683" lon="5.24517">
        <ele>569</ele>
        <time>2022-09-29T12:29:16Z</time>
      </trkpt>
      <trkpt lat="44.41682" lon="5.24517">
        <ele>569</ele>
        <time>2022-09-29T12:29:17Z</time>
      </trkpt>
      <trkpt lat="44.41682" lon="5.24517">
        <ele>569</ele>
        <time>2022-09-29T12:29:18Z</time>
      </trkpt>
      <trkpt lat="44.41681" lon="5.24518">
        <ele>569</ele>
        <time>2022-09-29T12:29:19Z</time>
      </trkpt>
      <trkpt lat="44.4168" lon="5.24518">
        <ele>569</ele>
        <time>2022-09-29T12:29:20Z</time>
      </trkpt>
      <trkpt lat="44.41679" lon="5.24518">
        <ele>569</ele>
        <time>2022-09-29T12:29:21Z</time>
      </trkpt>
      <trkpt lat="44.41678" lon="5.24519">
        <ele>569</ele>
        <time>2022-09-29T12:29:22Z</time>
      </trkpt>
      <trkpt lat="44.41677" lon="5.24519">
        <ele>569</ele>
        <time>2022-09-29T12:29:23Z</time>
      </trkpt>
      <trkpt lat="44.41676" lon="5.2452">
        <ele>568</ele>
        <time>2022-09-29T12:29:24Z</time>
      </trkpt>
      <trkpt lat="44.41675" lon="5.2452">
        <ele>568</ele>
        <time>2022-09-29T12:29:25Z</time>
      </trkpt>
      <trkpt lat="44.41674" lon="5.24521">
        <ele>568</ele>
        <time>2022-09-29T12:29:26Z</time>
      </trkpt>
      <trkpt lat="44.41673" lon="5.24521">
        <ele>568</ele>
        <time>2022-09-29T12:29:27Z</time>
      </trkpt>
      <trkpt lat="44.41671" lon="5.24522">
        <ele>568</ele>
        <time>2022-09-29T12:29:28Z</time>
      </trkpt>
      <trkpt lat="44.4167" lon="5.24522">
        <ele>568</ele>
        <time>2022-09-29T12:29:29Z</time>
      </trkpt>
      <trkpt lat="44.41669" lon="5.24523">
        <ele>568</ele>
        <time>2022-09-29T12:29:30Z</time>
      </trkpt>
      <trkpt lat="44.41668" lon="5.24523">
        <ele>568</ele>
        <time>2022-09-29T12:29:31Z</time>
      </trkpt>
      <trkpt lat="44.41667" lon="5.24524">
        <ele>568</ele>
        <time>2022-09-29T12:29:32Z</time>
      </trkpt>
      <trkpt lat="44.41666" lon="5.24524">
        <ele>568</ele>
        <time>2022-09-29T12:29:33Z</time>
      </trkpt>
      <trkpt lat="44.41665" lon="5.24525">
        <ele>568</ele>
        <time>2022-09-29T12:29:34Z</time>
      </trkpt>
      <trkpt lat="44.41664" lon="5.24525">
        <ele>568</ele>
        <time>2022-09-29T12:29:35Z</time>
      </trkpt>
      <trkpt lat="44.41663" lon="5.24526">
        <ele>568</ele>
        <time>2022-09-29T12:29:36Z</time>
      </trkpt>
      <trkpt lat="44.41662" lon="5.24526">
        <ele>568</ele>
        <time>2022-09-29T12:29:37Z</time>
      </trkpt>
      <trkpt lat="44.41661" lon="5.24527">
        <ele>568</ele>
        <time>2022-09-29T12:29:38Z</time>
      </trkpt>
      <trkpt lat="44.4166" lon="5.24527">
        <ele>568</ele>
        <time>2022-09-29T12:29:39Z</time>
      </trkpt>
      <trkpt lat="44.41659" lon="5.24528">
        <ele>568</ele>
        <time>2022-09-29T12:29:40Z</time>
      </trkpt>
      <trkpt lat="44.41658" lon="5.24528">
        <ele>568</ele>
        <time>2022-09-29T12:29:41Z</time>
      </trkpt>
      <trkpt lat="44.41656" lon="5.24528">
        <ele>568</ele>
        <time>2022-09-29T12:29:42Z</time>
      </trkpt>
      <trkpt lat="44.41655" lon="5.24529">
        <ele>568</ele>
        <time>2022-09-29T12:29:43Z</time>
      </trkpt>
      <trkpt lat="44.41654" lon="5.24529">
        <ele>568</ele>
        <time>2022-09-29T12:29:44Z</time>
      </trkpt>
      <trkpt lat="44.41653" lon="5.2453">
        <ele>568</ele>
        <time>2022-09-29T12:29:45Z</time>
      </trkpt>
      <trkpt lat="44.41652" lon="5.2453">
        <ele>568</ele>
        <time>2022-09-29T12:29:46Z</time>
      </trkpt>
      <trkpt lat="44.41651" lon="5.24531">
        <ele>568</ele>
        <time>2022-09-29T12:29:47Z</time>
      </trkpt>
      <trkpt lat="44.4165" lon="5.24531">
        <ele>568</ele>
        <time>2022-09-29T12:29:48Z</time>
      </trkpt>
      <trkpt lat="44.41649" lon="5.24532">
        <ele>568</ele>
        <time>2022-09-29T12:29:49Z</time>
      </trkpt>
      <trkpt lat="44.41648" lon="5.24532">
        <ele>568</ele>
        <time>2022-09-29T12:29:50Z</time>
      </trkpt>
      <trkpt lat="44.41647" lon="5.24533">
        <ele>568</ele>
        <time>2022-09-29T12:29:51Z</time>
      </trkpt>
      <trkpt lat="44.41646" lon="5.24534">
        <ele>568</ele>
        <time>2022-09-29T12:29:52Z</time>
      </trkpt>
      <trkpt lat="44.41645" lon="5.24535">
        <ele>568</ele>
        <time>2022-09-29T12:29:53Z</time>
      </trkpt>
      <trkpt lat="44.41644" lon="5.24536">
        <ele>568</ele>
        <time>2022-09-29T12:29:54Z</time>
      </trkpt>
      <trkpt lat="44.41643" lon="5.24537">
        <ele>568</ele>
        <time>2022-09-29T12:29:55Z</time>
      </trkpt>
      <trkpt lat="44.41642" lon="5.24537">
        <ele>568</ele>
        <time>2022-09-29T12:29:56Z</time>
      </trkpt>
      <trkpt lat="44.41642" lon="5.24538">
        <ele>568</ele>
        <time>2022-09-29T12:29:57Z</time>
      </trkpt>
      <trkpt lat="44.41641" lon="5.24539">
        <ele>568</ele>
        <time>2022-09-29T12:29:58Z</time>
      </trkpt>
      <trkpt lat="44.4164" lon="5.2454">
        <ele>568</ele>
        <time>2022-09-29T12:29:59Z</time>
      </trkpt>
      <trkpt lat="44.41639" lon="5.2454">
        <ele>568</ele>
        <time>2022-09-29T12:30:00Z</time>
      </trkpt>
      <trkpt lat="44.41638" lon="5.24541">
        <ele>568</ele>
        <time>2022-09-29T12:30:01Z</time>
      </trkpt>
      <trkpt lat="44.41637" lon="5.24542">
        <ele>568</ele>
        <time>2022-09-29T12:30:02Z</time>
      </trkpt>
      <trkpt lat="44.41636" lon="5.24542">
        <ele>568</ele>
        <time>2022-09-29T12:30:03Z</time>
      </trkpt>
      <trkpt lat="44.41635" lon="5.24543">
        <ele>568</ele>
        <time>2022-09-29T12:30:04Z</time>
      </trkpt>
      <trkpt lat="44.41634" lon="5.24544">
        <ele>568</ele>
        <time>2022-09-29T12:30:05Z</time>
      </trkpt>
      <trkpt lat="44.41633" lon="5.24545">
        <ele>568</ele>
        <time>2022-09-29T12:30:06Z</time>
      </trkpt>
      <trkpt lat="44.41632" lon="5.24545">
        <ele>568</ele>
        <time>2022-09-29T12:30:07Z</time>
      </trkpt>
      <trkpt lat="44.41631" lon="5.24546">
        <ele>568</ele>
        <time>2022-09-29T12:30:08Z</time>
      </trkpt>
      <trkpt lat="44.4163" lon="5.24547">
        <ele>568</ele>
        <time>2022-09-29T12:30:09Z</time>
      </trkpt>
      <trkpt lat="44.41629" lon="5.24548">
        <ele>568</ele>
        <time>2022-09-29T12:30:10Z</time>
      </trkpt>
      <trkpt lat="44.41628" lon="5.24549">
        <ele>568</ele>
        <time>2022-09-29T12:30:11Z</time>
      </trkpt>
      <trkpt lat="44.41627" lon="5.24549">
        <ele>568</ele>
        <time>2022-09-29T12:30:12Z</time>
      </trkpt>
      <trkpt lat="44.41626" lon="5.2455">
        <ele>568</ele>
        <time>2022-09-29T12:30:13Z</time>
      </trkpt>
      <trkpt lat="44.41625" lon="5.24551">
        <ele>568</ele>
        <time>2022-09-29T12:30:14Z</time>
      </trkpt>
      <trkpt lat="44.41623" lon="5.24551">
        <ele>568</ele>
        <time>2022-09-29T12:30:15Z</time>
      </trkpt>
      <trkpt lat="44.41622" lon="5.24552">
        <ele>568</ele>
        <time>2022-09-29T12:30:16Z</time>
      </trkpt>
      <trkpt lat="44.41621" lon="5.24552">
        <ele>568</ele>
        <time>2022-09-29T12:30:17Z</time>
      </trkpt>
      <trkpt lat="44.4162" lon="5.24553">
        <ele>568</ele>
        <time>2022-09-29T12:30:18Z</time>
      </trkpt>
      <trkpt lat="44.41618" lon="5.24553">
        <ele>568</ele>
        <time>2022-09-29T12:30:19Z</time>
      </trkpt>
      <trkpt lat="44.41617" lon="5.24553">
        <ele>568</ele>
        <time>2022-09-29T12:30:20Z</time>
      </trkpt>
      <trkpt lat="44.41616" lon="5.24553">
        <ele>568</ele>
        <time>2022-09-29T12:30:21Z</time>
      </trkpt>
      <trkpt lat="44.41615" lon="5.24553">
        <ele>568</ele>
        <time>2022-09-29T12:30:22Z</time>
      </trkpt>
      <trkpt lat="44.41614" lon="5.24553">
        <ele>568</ele>
        <time>2022-09-29T12:30:23Z</time>
      </trkpt>
      <trkpt lat="44.41612" lon="5.24553">
        <ele>568</ele>
        <time>2022-09-29T12:30:24Z</time>
      </trkpt>
      <trkpt lat="44.41611" lon="5.24553">
        <ele>568</ele>
        <time>2022-09-29T12:30:25Z</time>
      </trkpt>
      <trkpt lat="44.4161" lon="5.24553">
        <ele>568</ele>
        <time>2022-09-29T12:30:26Z</time>
      </trkpt>
      <trkpt lat="44.41609" lon="5.24553">
        <ele>568</ele>
        <time>2022-09-29T12:30:27Z</time>
      </trkpt>
      <trkpt lat="44.41608" lon="5.24553">
        <ele>568</ele>
        <time>2022-09-29T12:30:28Z</time>
      </trkpt>
      <trkpt lat="44.41606" lon="5.24553">
        <ele>568</ele>
        <time>2022-09-29T12:30:29Z</time>
      </trkpt>
      <trkpt lat="44.41605" lon="5.24553">
        <ele>568</ele>
        <time>2022-09-29T12:30:30Z</time>
      </trkpt>
      <trkpt lat="44.41604" lon="5.24553">
        <ele>568</ele>
        <time>2022-09-29T12:30:31Z</time>
      </trkpt>
      <trkpt lat="44.41603" lon="5.24553">
        <ele>568</ele>
        <time>2022-09-29T12:30:32Z</time>
      </trkpt>
      <trkpt lat="44.41602" lon="5.24553">
        <ele>568</ele>
        <time>2022-09-29T12:30:33Z</time>
      </trkpt>
      <trkpt lat="44.416" lon="5.24553">
        <ele>568</ele>
        <time>2022-09-29T12:30:34Z</time>
      </trkpt>
      <trkpt lat="44.41599" lon="5.24553">
        <ele>568</ele>
        <time>2022-09-29T12:30:35Z</time>
      </trkpt>
      <trkpt lat="44.41598" lon="5.24553">
        <ele>568</ele>
        <time>2022-09-29T12:30:36Z</time>
      </trkpt>
      <trkpt lat="44.41597" lon="5.24553">
        <ele>568</ele>
        <time>2022-09-29T12:30:37Z</time>
      </trkpt>
      <trkpt lat="44.41596" lon="5.24554">
        <ele>568</ele>
        <time>2022-09-29T12:30:38Z</time>
      </trkpt>
      <trkpt lat="44.41594" lon="5.24554">
        <ele>568</ele>
        <time>2022-09-29T12:30:39Z</time>
      </trkpt>
      <trkpt lat="44.41593" lon="5.24554">
        <ele>568</ele>
        <time>2022-09-29T12:30:40Z</time>
      </trkpt>
      <trkpt lat="44.41592" lon="5.24554">
        <ele>568</ele>
        <time>2022-09-29T12:30:41Z</time>
      </trkpt>
      <trkpt lat="44.41591" lon="5.24554">
        <ele>568</ele>
        <time>2022-09-29T12:30:42Z</time>
      </trkpt>
      <trkpt lat="44.4159" lon="5.24554">
        <ele>569</ele>
        <time>2022-09-29T12:30:43Z</time>
      </trkpt>
      <trkpt lat="44.41589" lon="5.24555">
        <ele>569</ele>
        <time>2022-09-29T12:30:44Z</time>
      </trkpt>
      <trkpt lat="44.41588" lon="5.24555">
        <ele>569</ele>
        <time>2022-09-29T12:30:45Z</time>
      </trkpt>
      <trkpt lat="44.41587" lon="5.24555">
        <ele>569</ele>
        <time>2022-09-29T12:30:46Z</time>
      </trkpt>
      <trkpt lat="44.41586" lon="5.24556">
        <ele>569</ele>
        <time>2022-09-29T12:30:47Z</time>
      </trkpt>
      <trkpt lat="44.41584" lon="5.24556">
        <ele>569</ele>
        <time>2022-09-29T12:30:48Z</time>
      </trkpt>
      <trkpt lat="44.41583" lon="5.24557">
        <ele>569</ele>
        <time>2022-09-29T12:30:49Z</time>
      </trkpt>
      <trkpt lat="44.41582" lon="5.24557">
        <ele>569</ele>
        <time>2022-09-29T12:30:50Z</time>
      </trkpt>
      <trkpt lat="44.4158" lon="5.24557">
        <ele>569</ele>
        <time>2022-09-29T12:30:51Z</time>
      </trkpt>
      <trkpt lat="44.41579" lon="5.24558">
        <ele>569</ele>
        <time>2022-09-29T12:30:52Z</time>
      </trkpt>
      <trkpt lat="44.41578" lon="5.24558">
        <ele>569</ele>
        <time>2022-09-29T12:30:53Z</time>
      </trkpt>
      <trkpt lat="44.41577" lon="5.24558">
        <ele>569</ele>
        <time>2022-09-29T12:30:54Z</time>
      </trkpt>
      <trkpt lat="44.41576" lon="5.24558">
        <ele>569</ele>
        <time>2022-09-29T12:30:55Z</time>
      </trkpt>
      <trkpt lat="44.41575" lon="5.24558">
        <ele>569</ele>
        <time>2022-09-29T12:30:56Z</time>
      </trkpt>
      <trkpt lat="44.41574" lon="5.24558">
        <ele>569</ele>
        <time>2022-09-29T12:30:57Z</time>
      </trkpt>
      <trkpt lat="44.41573" lon="5.24559">
        <ele>569</ele>
        <time>2022-09-29T12:30:58Z</time>
      </trkpt>
      <trkpt lat="44.41571" lon="5.24559">
        <ele>569</ele>
        <time>2022-09-29T12:30:59Z</time>
      </trkpt>
      <trkpt lat="44.4157" lon="5.24559">
        <ele>569</ele>
        <time>2022-09-29T12:31:00Z</time>
      </trkpt>
      <trkpt lat="44.41569" lon="5.24559">
        <ele>569</ele>
        <time>2022-09-29T12:31:01Z</time>
      </trkpt>
      <trkpt lat="44.41568" lon="5.24559">
        <ele>569</ele>
        <time>2022-09-29T12:31:02Z</time>
      </trkpt>
      <trkpt lat="44.41567" lon="5.24559">
        <ele>570</ele>
        <time>2022-09-29T12:31:03Z</time>
      </trkpt>
      <trkpt lat="44.41566" lon="5.24559">
        <ele>570</ele>
        <time>2022-09-29T12:31:04Z</time>
      </trkpt>
      <trkpt lat="44.41565" lon="5.24559">
        <ele>570</ele>
        <time>2022-09-29T12:31:05Z</time>
      </trkpt>
      <trkpt lat="44.41564" lon="5.24559">
        <ele>570</ele>
        <time>2022-09-29T12:31:06Z</time>
      </trkpt>
      <trkpt lat="44.41563" lon="5.24559">
        <ele>570</ele>
        <time>2022-09-29T12:31:07Z</time>
      </trkpt>
      <trkpt lat="44.41562" lon="5.24559">
        <ele>570</ele>
        <time>2022-09-29T12:31:08Z</time>
      </trkpt>
      <trkpt lat="44.41561" lon="5.24559">
        <ele>570</ele>
        <time>2022-09-29T12:31:09Z</time>
      </trkpt>
      <trkpt lat="44.4156" lon="5.24559">
        <ele>570</ele>
        <time>2022-09-29T12:31:10Z</time>
      </trkpt>
      <trkpt lat="44.41559" lon="5.24559">
        <ele>570</ele>
        <time>2022-09-29T12:31:11Z</time>
      </trkpt>
      <trkpt lat="44.41557" lon="5.2456">
        <ele>570</ele>
        <time>2022-09-29T12:31:12Z</time>
      </trkpt>
      <trkpt lat="44.41556" lon="5.2456">
        <ele>570</ele>
        <time>2022-09-29T12:31:13Z</time>
      </trkpt>
      <trkpt lat="44.41555" lon="5.24561">
        <ele>570</ele>
        <time>2022-09-29T12:31:14Z</time>
      </trkpt>
      <trkpt lat="44.41554" lon="5.24561">
        <ele>571</ele>
        <time>2022-09-29T12:31:39Z</time>
      </trkpt>
      <trkpt lat="44.41553" lon="5.24561">
        <ele>571</ele>
        <time>2022-09-29T12:31:40Z</time>
      </trkpt>
      <trkpt lat="44.41553" lon="5.24562">
        <ele>571</ele>
        <time>2022-09-29T12:31:41Z</time>
      </trkpt>
      <trkpt lat="44.41552" lon="5.24562">
        <ele>571</ele>
        <time>2022-09-29T12:31:42Z</time>
      </trkpt>
      <trkpt lat="44.41552" lon="5.24562">
        <ele>571</ele>
        <time>2022-09-29T12:31:43Z</time>
      </trkpt>
      <trkpt lat="44.41551" lon="5.24562">
        <ele>571</ele>
        <time>2022-09-29T12:31:44Z</time>
      </trkpt>
      <trkpt lat="44.41551" lon="5.24562">
        <ele>571</ele>
        <time>2022-09-29T12:31:45Z</time>
      </trkpt>
      <trkpt lat="44.41551" lon="5.24561">
        <ele>571</ele>
        <time>2022-09-29T12:31:46Z</time>
      </trkpt>
      <trkpt lat="44.4155" lon="5.24561">
        <ele>571</ele>
        <time>2022-09-29T12:31:47Z</time>
      </trkpt>
      <trkpt lat="44.4155" lon="5.24561">
        <ele>571</ele>
        <time>2022-09-29T12:31:48Z</time>
      </trkpt>
      <trkpt lat="44.4155" lon="5.24561">
        <ele>571</ele>
        <time>2022-09-29T12:31:49Z</time>
      </trkpt>
      <trkpt lat="44.4155" lon="5.24561">
        <ele>571</ele>
        <time>2022-09-29T12:31:50Z</time>
      </trkpt>
      <trkpt lat="44.41549" lon="5.2456">
        <ele>571</ele>
        <time>2022-09-29T12:31:51Z</time>
      </trkpt>
      <trkpt lat="44.41548" lon="5.24559">
        <ele>571</ele>
        <time>2022-09-29T12:31:52Z</time>
      </trkpt>
      <trkpt lat="44.41548" lon="5.24558">
        <ele>571</ele>
        <time>2022-09-29T12:31:53Z</time>
      </trkpt>
      <trkpt lat="44.41547" lon="5.24558">
        <ele>571</ele>
        <time>2022-09-29T12:31:54Z</time>
      </trkpt>
      <trkpt lat="44.41546" lon="5.24557">
        <ele>571</ele>
        <time>2022-09-29T12:31:55Z</time>
      </trkpt>
      <trkpt lat="44.41546" lon="5.24556">
        <ele>571</ele>
        <time>2022-09-29T12:31:56Z</time>
      </trkpt>
      <trkpt lat="44.41545" lon="5.24556">
        <ele>571</ele>
        <time>2022-09-29T12:31:57Z</time>
      </trkpt>
      <trkpt lat="44.41545" lon="5.24555">
        <ele>571</ele>
        <time>2022-09-29T12:31:58Z</time>
      </trkpt>
      <trkpt lat="44.41544" lon="5.24555">
        <ele>571</ele>
        <time>2022-09-29T12:31:59Z</time>
      </trkpt>
      <trkpt lat="44.41544" lon="5.24554">
        <ele>571</ele>
        <time>2022-09-29T12:32:00Z</time>
      </trkpt>
      <trkpt lat="44.41543" lon="5.24554">
        <ele>571</ele>
        <time>2022-09-29T12:32:01Z</time>
      </trkpt>
      <trkpt lat="44.41542" lon="5.24553">
        <ele>571</ele>
        <time>2022-09-29T12:32:02Z</time>
      </trkpt>
      <trkpt lat="44.41542" lon="5.24553">
        <ele>571</ele>
        <time>2022-09-29T12:32:03Z</time>
      </trkpt>
      <trkpt lat="44.41541" lon="5.24552">
        <ele>571</ele>
        <time>2022-09-29T12:32:04Z</time>
      </trkpt>
      <trkpt lat="44.41541" lon="5.24552">
        <ele>571</ele>
        <time>2022-09-29T12:32:05Z</time>
      </trkpt>
      <trkpt lat="44.4154" lon="5.24551">
        <ele>571</ele>
        <time>2022-09-29T12:32:06Z</time>
      </trkpt>
      <trkpt lat="44.41539" lon="5.24551">
        <ele>571</ele>
        <time>2022-09-29T12:32:07Z</time>
      </trkpt>
      <trkpt lat="44.41538" lon="5.2455">
        <ele>571</ele>
        <time>2022-09-29T12:32:08Z</time>
      </trkpt>
      <trkpt lat="44.41538" lon="5.2455">
        <ele>571</ele>
        <time>2022-09-29T12:32:09Z</time>
      </trkpt>
      <trkpt lat="44.41537" lon="5.2455">
        <ele>571</ele>
        <time>2022-09-29T12:32:10Z</time>
      </trkpt>
      <trkpt lat="44.41536" lon="5.24549">
        <ele>571</ele>
        <time>2022-09-29T12:32:11Z</time>
      </trkpt>
      <trkpt lat="44.41535" lon="5.24549">
        <ele>571</ele>
        <time>2022-09-29T12:32:12Z</time>
      </trkpt>
      <trkpt lat="44.41535" lon="5.24549">
        <ele>572</ele>
        <time>2022-09-29T12:32:13Z</time>
      </trkpt>
      <trkpt lat="44.41534" lon="5.24548">
        <ele>572</ele>
        <time>2022-09-29T12:32:14Z</time>
      </trkpt>
      <trkpt lat="44.41533" lon="5.24548">
        <ele>572</ele>
        <time>2022-09-29T12:32:15Z</time>
      </trkpt>
      <trkpt lat="44.41532" lon="5.24548">
        <ele>572</ele>
        <time>2022-09-29T12:32:16Z</time>
      </trkpt>
      <trkpt lat="44.41531" lon="5.24547">
        <ele>572</ele>
        <time>2022-09-29T12:32:17Z</time>
      </trkpt>
      <trkpt lat="44.4153" lon="5.24547">
        <ele>573</ele>
        <time>2022-09-29T12:32:18Z</time>
      </trkpt>
      <trkpt lat="44.4153" lon="5.24546">
        <ele>573</ele>
        <time>2022-09-29T12:32:19Z</time>
      </trkpt>
      <trkpt lat="44.41529" lon="5.24546">
        <ele>573</ele>
        <time>2022-09-29T12:32:20Z</time>
      </trkpt>
      <trkpt lat="44.41529" lon="5.24546">
        <ele>573</ele>
        <time>2022-09-29T12:32:21Z</time>
      </trkpt>
      <trkpt lat="44.41528" lon="5.24546">
        <ele>573</ele>
        <time>2022-09-29T12:32:22Z</time>
      </trkpt>
      <trkpt lat="44.41528" lon="5.24546">
        <ele>573</ele>
        <time>2022-09-29T12:32:23Z</time>
      </trkpt>
      <trkpt lat="44.41527" lon="5.24546">
        <ele>573</ele>
        <time>2022-09-29T12:32:24Z</time>
      </trkpt>
      <trkpt lat="44.41527" lon="5.24546">
        <ele>573</ele>
        <time>2022-09-29T12:32:25Z</time>
      </trkpt>
      <trkpt lat="44.41526" lon="5.24546">
        <ele>573</ele>
        <time>2022-09-29T12:32:26Z</time>
      </trkpt>
      <trkpt lat="44.41526" lon="5.24546">
        <ele>573</ele>
        <time>2022-09-29T12:32:27Z</time>
      </trkpt>
      <trkpt lat="44.41525" lon="5.24546">
        <ele>573</ele>
        <time>2022-09-29T12:32:28Z</time>
      </trkpt>
      <trkpt lat="44.41524" lon="5.24546">
        <ele>573</ele>
        <time>2022-09-29T12:32:29Z</time>
      </trkpt>
      <trkpt lat="44.41523" lon="5.24546">
        <ele>573</ele>
        <time>2022-09-29T12:32:30Z</time>
      </trkpt>
      <trkpt lat="44.41523" lon="5.24546">
        <ele>573</ele>
        <time>2022-09-29T12:32:31Z</time>
      </trkpt>
      <trkpt lat="44.41522" lon="5.24546">
        <ele>573</ele>
        <time>2022-09-29T12:32:32Z</time>
      </trkpt>
      <trkpt lat="44.41521" lon="5.24546">
        <ele>574</ele>
        <time>2022-09-29T12:32:33Z</time>
      </trkpt>
      <trkpt lat="44.4152" lon="5.24546">
        <ele>574</ele>
        <time>2022-09-29T12:32:34Z</time>
      </trkpt>
      <trkpt lat="44.41519" lon="5.24546">
        <ele>574</ele>
        <time>2022-09-29T12:32:35Z</time>
      </trkpt>
      <trkpt lat="44.41518" lon="5.24546">
        <ele>574</ele>
        <time>2022-09-29T12:32:36Z</time>
      </trkpt>
      <trkpt lat="44.41517" lon="5.24546">
        <ele>574</ele>
        <time>2022-09-29T12:32:37Z</time>
      </trkpt>
      <trkpt lat="44.41517" lon="5.24546">
        <ele>574</ele>
        <time>2022-09-29T12:32:38Z</time>
      </trkpt>
      <trkpt lat="44.41516" lon="5.24546">
        <ele>574</ele>
        <time>2022-09-29T12:32:39Z</time>
      </trkpt>
      <trkpt lat="44.41515" lon="5.24546">
        <ele>574</ele>
        <time>2022-09-29T12:32:40Z</time>
      </trkpt>
      <trkpt lat="44.41514" lon="5.24546">
        <ele>574</ele>
        <time>2022-09-29T12:32:41Z</time>
      </trkpt>
      <trkpt lat="44.41513" lon="5.24546">
        <ele>574</ele>
        <time>2022-09-29T12:32:42Z</time>
      </trkpt>
      <trkpt lat="44.41512" lon="5.24546">
        <ele>575</ele>
        <time>2022-09-29T12:32:43Z</time>
      </trkpt>
      <trkpt lat="44.41512" lon="5.24546">
        <ele>575</ele>
        <time>2022-09-29T12:32:44Z</time>
      </trkpt>
      <trkpt lat="44.41511" lon="5.24546">
        <ele>575</ele>
        <time>2022-09-29T12:32:45Z</time>
      </trkpt>
      <trkpt lat="44.4151" lon="5.24546">
        <ele>575</ele>
        <time>2022-09-29T12:32:46Z</time>
      </trkpt>
      <trkpt lat="44.4151" lon="5.24545">
        <ele>575</ele>
        <time>2022-09-29T12:32:47Z</time>
      </trkpt>
      <trkpt lat="44.41509" lon="5.24545">
        <ele>576</ele>
        <time>2022-09-29T12:32:48Z</time>
      </trkpt>
      <trkpt lat="44.41508" lon="5.24545">
        <ele>576</ele>
        <time>2022-09-29T12:32:49Z</time>
      </trkpt>
      <trkpt lat="44.41508" lon="5.24545">
        <ele>576</ele>
        <time>2022-09-29T12:32:50Z</time>
      </trkpt>
      <trkpt lat="44.41507" lon="5.24544">
        <ele>576</ele>
        <time>2022-09-29T12:32:51Z</time>
      </trkpt>
      <trkpt lat="44.41507" lon="5.24544">
        <ele>576</ele>
        <time>2022-09-29T12:32:52Z</time>
      </trkpt>
      <trkpt lat="44.41506" lon="5.24544">
        <ele>577</ele>
        <time>2022-09-29T12:32:53Z</time>
      </trkpt>
      <trkpt lat="44.41506" lon="5.24544">
        <ele>577</ele>
        <time>2022-09-29T12:32:54Z</time>
      </trkpt>
      <trkpt lat="44.41505" lon="5.24544">
        <ele>577</ele>
        <time>2022-09-29T12:32:55Z</time>
      </trkpt>
      <trkpt lat="44.41504" lon="5.24544">
        <ele>577</ele>
        <time>2022-09-29T12:32:56Z</time>
      </trkpt>
      <trkpt lat="44.41504" lon="5.24544">
        <ele>577</ele>
        <time>2022-09-29T12:32:57Z</time>
      </trkpt>
      <trkpt lat="44.41503" lon="5.24544">
        <ele>577</ele>
        <time>2022-09-29T12:32:58Z</time>
      </trkpt>
      <trkpt lat="44.41502" lon="5.24544">
        <ele>577</ele>
        <time>2022-09-29T12:32:59Z</time>
      </trkpt>
      <trkpt lat="44.41502" lon="5.24544">
        <ele>577</ele>
        <time>2022-09-29T12:33:00Z</time>
      </trkpt>
      <trkpt lat="44.41501" lon="5.24544">
        <ele>577</ele>
        <time>2022-09-29T12:33:01Z</time>
      </trkpt>
      <trkpt lat="44.41501" lon="5.24544">
        <ele>577</ele>
        <time>2022-09-29T12:33:02Z</time>
      </trkpt>
      <trkpt lat="44.415" lon="5.24544">
        <ele>578</ele>
        <time>2022-09-29T12:33:03Z</time>
      </trkpt>
      <trkpt lat="44.41499" lon="5.24544">
        <ele>578</ele>
        <time>2022-09-29T12:33:04Z</time>
      </trkpt>
      <trkpt lat="44.41498" lon="5.24544">
        <ele>578</ele>
        <time>2022-09-29T12:33:05Z</time>
      </trkpt>
      <trkpt lat="44.41497" lon="5.24545">
        <ele>578</ele>
        <time>2022-09-29T12:33:06Z</time>
      </trkpt>
      <trkpt lat="44.41497" lon="5.24545">
        <ele>578</ele>
        <time>2022-09-29T12:33:07Z</time>
      </trkpt>
      <trkpt lat="44.41496" lon="5.24545">
        <ele>578</ele>
        <time>2022-09-29T12:33:08Z</time>
      </trkpt>
      <trkpt lat="44.41496" lon="5.24545">
        <ele>578</ele>
        <time>2022-09-29T12:33:09Z</time>
      </trkpt>
      <trkpt lat="44.41495" lon="5.24546">
        <ele>578</ele>
        <time>2022-09-29T12:33:10Z</time>
      </trkpt>
      <trkpt lat="44.41494" lon="5.24546">
        <ele>578</ele>
        <time>2022-09-29T12:33:11Z</time>
      </trkpt>
      <trkpt lat="44.41494" lon="5.24546">
        <ele>578</ele>
        <time>2022-09-29T12:33:12Z</time>
      </trkpt>
      <trkpt lat="44.41493" lon="5.24546">
        <ele>579</ele>
        <time>2022-09-29T12:33:13Z</time>
      </trkpt>
      <trkpt lat="44.41493" lon="5.24547">
        <ele>579</ele>
        <time>2022-09-29T12:33:14Z</time>
      </trkpt>
      <trkpt lat="44.41492" lon="5.24547">
        <ele>579</ele>
        <time>2022-09-29T12:33:15Z</time>
      </trkpt>
      <trkpt lat="44.41491" lon="5.24547">
        <ele>579</ele>
        <time>2022-09-29T12:33:16Z</time>
      </trkpt>
      <trkpt lat="44.41491" lon="5.24547">
        <ele>579</ele>
        <time>2022-09-29T12:33:17Z</time>
      </trkpt>
      <trkpt lat="44.4149" lon="5.24547">
        <ele>580</ele>
        <time>2022-09-29T12:33:18Z</time>
      </trkpt>
      <trkpt lat="44.41489" lon="5.24547">
        <ele>580</ele>
        <time>2022-09-29T12:33:19Z</time>
      </trkpt>
      <trkpt lat="44.41489" lon="5.24547">
        <ele>580</ele>
        <time>2022-09-29T12:33:20Z</time>
      </trkpt>
      <trkpt lat="44.41488" lon="5.24548">
        <ele>580</ele>
        <time>2022-09-29T12:33:21Z</time>
      </trkpt>
      <trkpt lat="44.41487" lon="5.24548">
        <ele>580</ele>
        <time>2022-09-29T12:33:22Z</time>
      </trkpt>
      <trkpt lat="44.41486" lon="5.24548">
        <ele>580</ele>
        <time>2022-09-29T12:33:23Z</time>
      </trkpt>
      <trkpt lat="44.41486" lon="5.24548">
        <ele>580</ele>
        <time>2022-09-29T12:33:24Z</time>
      </trkpt>
      <trkpt lat="44.41485" lon="5.24548">
        <ele>580</ele>
        <time>2022-09-29T12:33:25Z</time>
      </trkpt>
      <trkpt lat="44.41484" lon="5.24548">
        <ele>580</ele>
        <time>2022-09-29T12:33:26Z</time>
      </trkpt>
      <trkpt lat="44.41483" lon="5.24548">
        <ele>580</ele>
        <time>2022-09-29T12:33:27Z</time>
      </trkpt>
      <trkpt lat="44.41483" lon="5.24548">
        <ele>581</ele>
        <time>2022-09-29T12:33:28Z</time>
      </trkpt>
      <trkpt lat="44.41482" lon="5.24547">
        <ele>581</ele>
        <time>2022-09-29T12:33:29Z</time>
      </trkpt>
      <trkpt lat="44.41481" lon="5.24547">
        <ele>581</ele>
        <time>2022-09-29T12:33:30Z</time>
      </trkpt>
      <trkpt lat="44.4148" lon="5.24547">
        <ele>581</ele>
        <time>2022-09-29T12:33:31Z</time>
      </trkpt>
      <trkpt lat="44.41479" lon="5.24548">
        <ele>581</ele>
        <time>2022-09-29T12:33:32Z</time>
      </trkpt>
      <trkpt lat="44.41479" lon="5.24548">
        <ele>582</ele>
        <time>2022-09-29T12:33:33Z</time>
      </trkpt>
      <trkpt lat="44.41478" lon="5.24548">
        <ele>582</ele>
        <time>2022-09-29T12:33:34Z</time>
      </trkpt>
      <trkpt lat="44.41477" lon="5.24548">
        <ele>582</ele>
        <time>2022-09-29T12:33:35Z</time>
      </trkpt>
      <trkpt lat="44.41476" lon="5.24548">
        <ele>582</ele>
        <time>2022-09-29T12:33:36Z</time>
      </trkpt>
      <trkpt lat="44.41476" lon="5.24548">
        <ele>582</ele>
        <time>2022-09-29T12:33:37Z</time>
      </trkpt>
      <trkpt lat="44.41475" lon="5.24548">
        <ele>583</ele>
        <time>2022-09-29T12:33:38Z</time>
      </trkpt>
      <trkpt lat="44.41475" lon="5.24548">
        <ele>583</ele>
        <time>2022-09-29T12:33:39Z</time>
      </trkpt>
      <trkpt lat="44.41474" lon="5.24547">
        <ele>583</ele>
        <time>2022-09-29T12:33:40Z</time>
      </trkpt>
      <trkpt lat="44.41473" lon="5.24547">
        <ele>583</ele>
        <time>2022-09-29T12:33:41Z</time>
      </trkpt>
      <trkpt lat="44.41472" lon="5.24547">
        <ele>583</ele>
        <time>2022-09-29T12:33:42Z</time>
      </trkpt>
      <trkpt lat="44.41471" lon="5.24546">
        <ele>583</ele>
        <time>2022-09-29T12:33:43Z</time>
      </trkpt>
      <trkpt lat="44.4147" lon="5.24546">
        <ele>583</ele>
        <time>2022-09-29T12:33:44Z</time>
      </trkpt>
      <trkpt lat="44.4147" lon="5.24546">
        <ele>583</ele>
        <time>2022-09-29T12:33:45Z</time>
      </trkpt>
      <trkpt lat="44.41469" lon="5.24546">
        <ele>583</ele>
        <time>2022-09-29T12:33:46Z</time>
      </trkpt>
      <trkpt lat="44.41468" lon="5.24546">
        <ele>583</ele>
        <time>2022-09-29T12:33:47Z</time>
      </trkpt>
      <trkpt lat="44.41467" lon="5.24546">
        <ele>584</ele>
        <time>2022-09-29T12:33:48Z</time>
      </trkpt>
      <trkpt lat="44.41466" lon="5.24546">
        <ele>584</ele>
        <time>2022-09-29T12:33:49Z</time>
      </trkpt>
      <trkpt lat="44.41465" lon="5.24546">
        <ele>584</ele>
        <time>2022-09-29T12:33:50Z</time>
      </trkpt>
      <trkpt lat="44.41465" lon="5.24546">
        <ele>584</ele>
        <time>2022-09-29T12:33:51Z</time>
      </trkpt>
      <trkpt lat="44.41464" lon="5.24546">
        <ele>584</ele>
        <time>2022-09-29T12:33:52Z</time>
      </trkpt>
      <trkpt lat="44.41463" lon="5.24546">
        <ele>585</ele>
        <time>2022-09-29T12:33:53Z</time>
      </trkpt>
      <trkpt lat="44.41462" lon="5.24546">
        <ele>585</ele>
        <time>2022-09-29T12:33:54Z</time>
      </trkpt>
      <trkpt lat="44.41462" lon="5.24545">
        <ele>585</ele>
        <time>2022-09-29T12:33:55Z</time>
      </trkpt>
      <trkpt lat="44.41461" lon="5.24545">
        <ele>585</ele>
        <time>2022-09-29T12:33:56Z</time>
      </trkpt>
      <trkpt lat="44.41461" lon="5.24545">
        <ele>585</ele>
        <time>2022-09-29T12:33:57Z</time>
      </trkpt>
      <trkpt lat="44.4146" lon="5.24545">
        <ele>585</ele>
        <time>2022-09-29T12:33:58Z</time>
      </trkpt>
      <trkpt lat="44.41459" lon="5.24545">
        <ele>585</ele>
        <time>2022-09-29T12:33:59Z</time>
      </trkpt>
      <trkpt lat="44.41459" lon="5.24545">
        <ele>585</ele>
        <time>2022-09-29T12:34:00Z</time>
      </trkpt>
      <trkpt lat="44.41458" lon="5.24545">
        <ele>585</ele>
        <time>2022-09-29T12:34:01Z</time>
      </trkpt>
      <trkpt lat="44.41457" lon="5.24545">
        <ele>585</ele>
        <time>2022-09-29T12:34:02Z</time>
      </trkpt>
      <trkpt lat="44.41456" lon="5.24545">
        <ele>586</ele>
        <time>2022-09-29T12:34:03Z</time>
      </trkpt>
      <trkpt lat="44.41455" lon="5.24544">
        <ele>586</ele>
        <time>2022-09-29T12:34:04Z</time>
      </trkpt>
      <trkpt lat="44.41454" lon="5.24544">
        <ele>586</ele>
        <time>2022-09-29T12:34:05Z</time>
      </trkpt>
      <trkpt lat="44.41454" lon="5.24544">
        <ele>586</ele>
        <time>2022-09-29T12:34:06Z</time>
      </trkpt>
      <trkpt lat="44.41453" lon="5.24544">
        <ele>586</ele>
        <time>2022-09-29T12:34:07Z</time>
      </trkpt>
      <trkpt lat="44.41452" lon="5.24544">
        <ele>587</ele>
        <time>2022-09-29T12:34:08Z</time>
      </trkpt>
      <trkpt lat="44.41451" lon="5.24544">
        <ele>587</ele>
        <time>2022-09-29T12:34:09Z</time>
      </trkpt>
      <trkpt lat="44.4145" lon="5.24544">
        <ele>587</ele>
        <time>2022-09-29T12:34:10Z</time>
      </trkpt>
      <trkpt lat="44.41449" lon="5.24543">
        <ele>587</ele>
        <time>2022-09-29T12:34:11Z</time>
      </trkpt>
      <trkpt lat="44.41449" lon="5.24543">
        <ele>587</ele>
        <time>2022-09-29T12:34:12Z</time>
      </trkpt>
      <trkpt lat="44.41448" lon="5.24543">
        <ele>587</ele>
        <time>2022-09-29T12:34:13Z</time>
      </trkpt>
      <trkpt lat="44.41447" lon="5.24543">
        <ele>587</ele>
        <time>2022-09-29T12:34:14Z</time>
      </trkpt>
      <trkpt lat="44.41446" lon="5.24542">
        <ele>587</ele>
        <time>2022-09-29T12:34:15Z</time>
      </trkpt>
      <trkpt lat="44.41446" lon="5.24542">
        <ele>587</ele>
        <time>2022-09-29T12:34:16Z</time>
      </trkpt>
      <trkpt lat="44.41445" lon="5.24542">
        <ele>587</ele>
        <time>2022-09-29T12:34:17Z</time>
      </trkpt>
      <trkpt lat="44.41444" lon="5.24542">
        <ele>588</ele>
        <time>2022-09-29T12:34:18Z</time>
      </trkpt>
      <trkpt lat="44.41443" lon="5.24542">
        <ele>588</ele>
        <time>2022-09-29T12:34:19Z</time>
      </trkpt>
      <trkpt lat="44.41442" lon="5.24541">
        <ele>588</ele>
        <time>2022-09-29T12:34:20Z</time>
      </trkpt>
      <trkpt lat="44.41441" lon="5.24541">
        <ele>588</ele>
        <time>2022-09-29T12:34:21Z</time>
      </trkpt>
      <trkpt lat="44.4144" lon="5.24541">
        <ele>588</ele>
        <time>2022-09-29T12:34:22Z</time>
      </trkpt>
      <trkpt lat="44.41439" lon="5.2454">
        <ele>588</ele>
        <time>2022-09-29T12:34:23Z</time>
      </trkpt>
      <trkpt lat="44.41438" lon="5.2454">
        <ele>588</ele>
        <time>2022-09-29T12:34:24Z</time>
      </trkpt>
      <trkpt lat="44.41437" lon="5.2454">
        <ele>588</ele>
        <time>2022-09-29T12:34:25Z</time>
      </trkpt>
      <trkpt lat="44.41437" lon="5.2454">
        <ele>588</ele>
        <time>2022-09-29T12:34:26Z</time>
      </trkpt>
      <trkpt lat="44.41436" lon="5.24539">
        <ele>588</ele>
        <time>2022-09-29T12:34:27Z</time>
      </trkpt>
      <trkpt lat="44.41435" lon="5.24539">
        <ele>589</ele>
        <time>2022-09-29T12:34:28Z</time>
      </trkpt>
      <trkpt lat="44.41434" lon="5.24539">
        <ele>589</ele>
        <time>2022-09-29T12:34:29Z</time>
      </trkpt>
      <trkpt lat="44.41433" lon="5.24538">
        <ele>589</ele>
        <time>2022-09-29T12:34:30Z</time>
      </trkpt>
      <trkpt lat="44.41432" lon="5.24538">
        <ele>589</ele>
        <time>2022-09-29T12:34:31Z</time>
      </trkpt>
      <trkpt lat="44.41431" lon="5.24537">
        <ele>589</ele>
        <time>2022-09-29T12:34:32Z</time>
      </trkpt>
      <trkpt lat="44.41431" lon="5.24537">
        <ele>590</ele>
        <time>2022-09-29T12:34:33Z</time>
      </trkpt>
      <trkpt lat="44.4143" lon="5.24536">
        <ele>590</ele>
        <time>2022-09-29T12:34:34Z</time>
      </trkpt>
      <trkpt lat="44.41429" lon="5.24536">
        <ele>590</ele>
        <time>2022-09-29T12:34:35Z</time>
      </trkpt>
      <trkpt lat="44.41428" lon="5.24536">
        <ele>590</ele>
        <time>2022-09-29T12:34:36Z</time>
      </trkpt>
      <trkpt lat="44.41427" lon="5.24535">
        <ele>590</ele>
        <time>2022-09-29T12:34:37Z</time>
      </trkpt>
      <trkpt lat="44.41427" lon="5.24535">
        <ele>590</ele>
        <time>2022-09-29T12:34:38Z</time>
      </trkpt>
      <trkpt lat="44.41426" lon="5.24535">
        <ele>590</ele>
        <time>2022-09-29T12:34:39Z</time>
      </trkpt>
      <trkpt lat="44.41425" lon="5.24534">
        <ele>590</ele>
        <time>2022-09-29T12:34:40Z</time>
      </trkpt>
      <trkpt lat="44.41424" lon="5.24534">
        <ele>590</ele>
        <time>2022-09-29T12:34:41Z</time>
      </trkpt>
      <trkpt lat="44.41423" lon="5.24534">
        <ele>590</ele>
        <time>2022-09-29T12:34:42Z</time>
      </trkpt>
      <trkpt lat="44.41422" lon="5.24534">
        <ele>591</ele>
        <time>2022-09-29T12:34:43Z</time>
      </trkpt>
      <trkpt lat="44.41421" lon="5.24533">
        <ele>591</ele>
        <time>2022-09-29T12:34:44Z</time>
      </trkpt>
      <trkpt lat="44.4142" lon="5.24533">
        <ele>591</ele>
        <time>2022-09-29T12:34:45Z</time>
      </trkpt>
      <trkpt lat="44.41419" lon="5.24533">
        <ele>591</ele>
        <time>2022-09-29T12:34:46Z</time>
      </trkpt>
      <trkpt lat="44.41419" lon="5.24533">
        <ele>591</ele>
        <time>2022-09-29T12:34:47Z</time>
      </trkpt>
      <trkpt lat="44.41418" lon="5.24532">
        <ele>592</ele>
        <time>2022-09-29T12:34:48Z</time>
      </trkpt>
      <trkpt lat="44.41417" lon="5.24532">
        <ele>592</ele>
        <time>2022-09-29T12:34:49Z</time>
      </trkpt>
      <trkpt lat="44.41416" lon="5.24532">
        <ele>592</ele>
        <time>2022-09-29T12:34:50Z</time>
      </trkpt>
      <trkpt lat="44.41416" lon="5.24531">
        <ele>592</ele>
        <time>2022-09-29T12:34:51Z</time>
      </trkpt>
      <trkpt lat="44.41415" lon="5.24531">
        <ele>592</ele>
        <time>2022-09-29T12:34:52Z</time>
      </trkpt>
      <trkpt lat="44.41414" lon="5.2453">
        <ele>592</ele>
        <time>2022-09-29T12:34:53Z</time>
      </trkpt>
      <trkpt lat="44.41413" lon="5.2453">
        <ele>592</ele>
        <time>2022-09-29T12:34:54Z</time>
      </trkpt>
      <trkpt lat="44.41412" lon="5.24529">
        <ele>592</ele>
        <time>2022-09-29T12:34:55Z</time>
      </trkpt>
      <trkpt lat="44.41411" lon="5.24528">
        <ele>592</ele>
        <time>2022-09-29T12:34:56Z</time>
      </trkpt>
      <trkpt lat="44.41411" lon="5.24528">
        <ele>592</ele>
        <time>2022-09-29T12:34:57Z</time>
      </trkpt>
      <trkpt lat="44.4141" lon="5.24527">
        <ele>593</ele>
        <time>2022-09-29T12:34:58Z</time>
      </trkpt>
      <trkpt lat="44.41409" lon="5.24526">
        <ele>593</ele>
        <time>2022-09-29T12:34:59Z</time>
      </trkpt>
      <trkpt lat="44.41408" lon="5.24525">
        <ele>593</ele>
        <time>2022-09-29T12:35:00Z</time>
      </trkpt>
      <trkpt lat="44.41407" lon="5.24525">
        <ele>593</ele>
        <time>2022-09-29T12:35:01Z</time>
      </trkpt>
      <trkpt lat="44.41407" lon="5.24524">
        <ele>593</ele>
        <time>2022-09-29T12:35:02Z</time>
      </trkpt>
      <trkpt lat="44.41406" lon="5.24523">
        <ele>593</ele>
        <time>2022-09-29T12:35:03Z</time>
      </trkpt>
      <trkpt lat="44.41405" lon="5.24522">
        <ele>593</ele>
        <time>2022-09-29T12:35:04Z</time>
      </trkpt>
      <trkpt lat="44.41405" lon="5.24521">
        <ele>593</ele>
        <time>2022-09-29T12:35:05Z</time>
      </trkpt>
      <trkpt lat="44.41404" lon="5.2452">
        <ele>593</ele>
        <time>2022-09-29T12:35:06Z</time>
      </trkpt>
      <trkpt lat="44.41403" lon="5.24519">
        <ele>593</ele>
        <time>2022-09-29T12:35:07Z</time>
      </trkpt>
      <trkpt lat="44.41402" lon="5.24518">
        <ele>594</ele>
        <time>2022-09-29T12:35:08Z</time>
      </trkpt>
      <trkpt lat="44.41402" lon="5.24517">
        <ele>594</ele>
        <time>2022-09-29T12:35:09Z</time>
      </trkpt>
      <trkpt lat="44.41401" lon="5.24516">
        <ele>594</ele>
        <time>2022-09-29T12:35:10Z</time>
      </trkpt>
      <trkpt lat="44.414" lon="5.24515">
        <ele>594</ele>
        <time>2022-09-29T12:35:11Z</time>
      </trkpt>
      <trkpt lat="44.414" lon="5.24515">
        <ele>594</ele>
        <time>2022-09-29T12:35:12Z</time>
      </trkpt>
      <trkpt lat="44.41399" lon="5.24514">
        <ele>595</ele>
        <time>2022-09-29T12:35:13Z</time>
      </trkpt>
      <trkpt lat="44.41398" lon="5.24513">
        <ele>595</ele>
        <time>2022-09-29T12:35:14Z</time>
      </trkpt>
      <trkpt lat="44.41398" lon="5.24512">
        <ele>595</ele>
        <time>2022-09-29T12:35:15Z</time>
      </trkpt>
      <trkpt lat="44.41397" lon="5.24511">
        <ele>595</ele>
        <time>2022-09-29T12:35:16Z</time>
      </trkpt>
      <trkpt lat="44.41396" lon="5.2451">
        <ele>595</ele>
        <time>2022-09-29T12:35:17Z</time>
      </trkpt>
      <trkpt lat="44.41395" lon="5.2451">
        <ele>595</ele>
        <time>2022-09-29T12:35:18Z</time>
      </trkpt>
      <trkpt lat="44.41395" lon="5.24509">
        <ele>595</ele>
        <time>2022-09-29T12:35:19Z</time>
      </trkpt>
      <trkpt lat="44.41394" lon="5.24508">
        <ele>595</ele>
        <time>2022-09-29T12:35:20Z</time>
      </trkpt>
      <trkpt lat="44.41394" lon="5.24507">
        <ele>595</ele>
        <time>2022-09-29T12:35:21Z</time>
      </trkpt>
      <trkpt lat="44.41393" lon="5.24506">
        <ele>595</ele>
        <time>2022-09-29T12:35:22Z</time>
      </trkpt>
      <trkpt lat="44.41393" lon="5.24505">
        <ele>596</ele>
        <time>2022-09-29T12:35:23Z</time>
      </trkpt>
      <trkpt lat="44.41392" lon="5.24504">
        <ele>596</ele>
        <time>2022-09-29T12:35:24Z</time>
      </trkpt>
      <trkpt lat="44.41391" lon="5.24503">
        <ele>596</ele>
        <time>2022-09-29T12:35:25Z</time>
      </trkpt>
      <trkpt lat="44.41391" lon="5.24503">
        <ele>596</ele>
        <time>2022-09-29T12:35:26Z</time>
      </trkpt>
      <trkpt lat="44.4139" lon="5.24502">
        <ele>596</ele>
        <time>2022-09-29T12:35:27Z</time>
      </trkpt>
      <trkpt lat="44.41389" lon="5.24501">
        <ele>597</ele>
        <time>2022-09-29T12:35:28Z</time>
      </trkpt>
      <trkpt lat="44.41389" lon="5.245">
        <ele>597</ele>
        <time>2022-09-29T12:35:29Z</time>
      </trkpt>
      <trkpt lat="44.41388" lon="5.24499">
        <ele>597</ele>
        <time>2022-09-29T12:35:30Z</time>
      </trkpt>
      <trkpt lat="44.41387" lon="5.24498">
        <ele>597</ele>
        <time>2022-09-29T12:35:31Z</time>
      </trkpt>
      <trkpt lat="44.41387" lon="5.24497">
        <ele>597</ele>
        <time>2022-09-29T12:35:32Z</time>
      </trkpt>
      <trkpt lat="44.41386" lon="5.24496">
        <ele>597</ele>
        <time>2022-09-29T12:35:33Z</time>
      </trkpt>
      <trkpt lat="44.41385" lon="5.24496">
        <ele>597</ele>
        <time>2022-09-29T12:35:34Z</time>
      </trkpt>
      <trkpt lat="44.41385" lon="5.24495">
        <ele>597</ele>
        <time>2022-09-29T12:35:35Z</time>
      </trkpt>
      <trkpt lat="44.41384" lon="5.24494">
        <ele>597</ele>
        <time>2022-09-29T12:35:36Z</time>
      </trkpt>
      <trkpt lat="44.41383" lon="5.24494">
        <ele>597</ele>
        <time>2022-09-29T12:35:37Z</time>
      </trkpt>
      <trkpt lat="44.41382" lon="5.24493">
        <ele>597</ele>
        <time>2022-09-29T12:35:38Z</time>
      </trkpt>
      <trkpt lat="44.41381" lon="5.24493">
        <ele>597</ele>
        <time>2022-09-29T12:35:39Z</time>
      </trkpt>
      <trkpt lat="44.4138" lon="5.24492">
        <ele>597</ele>
        <time>2022-09-29T12:35:40Z</time>
      </trkpt>
      <trkpt lat="44.41378" lon="5.24492">
        <ele>597</ele>
        <time>2022-09-29T12:35:41Z</time>
      </trkpt>
      <trkpt lat="44.41377" lon="5.24491">
        <ele>597</ele>
        <time>2022-09-29T12:35:42Z</time>
      </trkpt>
      <trkpt lat="44.41376" lon="5.24491">
        <ele>598</ele>
        <time>2022-09-29T12:35:43Z</time>
      </trkpt>
      <trkpt lat="44.41375" lon="5.2449">
        <ele>598</ele>
        <time>2022-09-29T12:35:44Z</time>
      </trkpt>
      <trkpt lat="44.41374" lon="5.24489">
        <ele>598</ele>
        <time>2022-09-29T12:35:45Z</time>
      </trkpt>
      <trkpt lat="44.41373" lon="5.24489">
        <ele>598</ele>
        <time>2022-09-29T12:35:46Z</time>
      </trkpt>
      <trkpt lat="44.41372" lon="5.24488">
        <ele>598</ele>
        <time>2022-09-29T12:35:47Z</time>
      </trkpt>
      <trkpt lat="44.41371" lon="5.24487">
        <ele>598</ele>
        <time>2022-09-29T12:35:48Z</time>
      </trkpt>
      <trkpt lat="44.4137" lon="5.24487">
        <ele>598</ele>
        <time>2022-09-29T12:35:49Z</time>
      </trkpt>
      <trkpt lat="44.41369" lon="5.24486">
        <ele>598</ele>
        <time>2022-09-29T12:35:50Z</time>
      </trkpt>
      <trkpt lat="44.41368" lon="5.24486">
        <ele>598</ele>
        <time>2022-09-29T12:35:51Z</time>
      </trkpt>
      <trkpt lat="44.41367" lon="5.24485">
        <ele>598</ele>
        <time>2022-09-29T12:35:52Z</time>
      </trkpt>
      <trkpt lat="44.41366" lon="5.24485">
        <ele>598</ele>
        <time>2022-09-29T12:35:53Z</time>
      </trkpt>
      <trkpt lat="44.41365" lon="5.24485">
        <ele>598</ele>
        <time>2022-09-29T12:35:54Z</time>
      </trkpt>
      <trkpt lat="44.41364" lon="5.24484">
        <ele>598</ele>
        <time>2022-09-29T12:35:55Z</time>
      </trkpt>
      <trkpt lat="44.41363" lon="5.24484">
        <ele>598</ele>
        <time>2022-09-29T12:35:56Z</time>
      </trkpt>
      <trkpt lat="44.41361" lon="5.24484">
        <ele>598</ele>
        <time>2022-09-29T12:35:57Z</time>
      </trkpt>
      <trkpt lat="44.4136" lon="5.24484">
        <ele>598</ele>
        <time>2022-09-29T12:35:58Z</time>
      </trkpt>
      <trkpt lat="44.41359" lon="5.24484">
        <ele>598</ele>
        <time>2022-09-29T12:35:59Z</time>
      </trkpt>
      <trkpt lat="44.41358" lon="5.24484">
        <ele>598</ele>
        <time>2022-09-29T12:36:00Z</time>
      </trkpt>
      <trkpt lat="44.41357" lon="5.24483">
        <ele>598</ele>
        <time>2022-09-29T12:36:01Z</time>
      </trkpt>
      <trkpt lat="44.41356" lon="5.24483">
        <ele>598</ele>
        <time>2022-09-29T12:36:02Z</time>
      </trkpt>
      <trkpt lat="44.41355" lon="5.24483">
        <ele>598</ele>
        <time>2022-09-29T12:36:03Z</time>
      </trkpt>
      <trkpt lat="44.41354" lon="5.24483">
        <ele>598</ele>
        <time>2022-09-29T12:36:04Z</time>
      </trkpt>
      <trkpt lat="44.41353" lon="5.24482">
        <ele>598</ele>
        <time>2022-09-29T12:36:05Z</time>
      </trkpt>
      <trkpt lat="44.41352" lon="5.24482">
        <ele>598</ele>
        <time>2022-09-29T12:36:06Z</time>
      </trkpt>
      <trkpt lat="44.41351" lon="5.24482">
        <ele>598</ele>
        <time>2022-09-29T12:36:07Z</time>
      </trkpt>
      <trkpt lat="44.41349" lon="5.24481">
        <ele>598</ele>
        <time>2022-09-29T12:36:08Z</time>
      </trkpt>
      <trkpt lat="44.41348" lon="5.24481">
        <ele>598</ele>
        <time>2022-09-29T12:36:09Z</time>
      </trkpt>
      <trkpt lat="44.41347" lon="5.2448">
        <ele>598</ele>
        <time>2022-09-29T12:36:10Z</time>
      </trkpt>
      <trkpt lat="44.41346" lon="5.2448">
        <ele>598</ele>
        <time>2022-09-29T12:36:11Z</time>
      </trkpt>
      <trkpt lat="44.41345" lon="5.2448">
        <ele>598</ele>
        <time>2022-09-29T12:36:12Z</time>
      </trkpt>
      <trkpt lat="44.41344" lon="5.2448">
        <ele>599</ele>
        <time>2022-09-29T12:36:13Z</time>
      </trkpt>
      <trkpt lat="44.41343" lon="5.24479">
        <ele>599</ele>
        <time>2022-09-29T12:36:14Z</time>
      </trkpt>
      <trkpt lat="44.41342" lon="5.24479">
        <ele>599</ele>
        <time>2022-09-29T12:36:15Z</time>
      </trkpt>
      <trkpt lat="44.41341" lon="5.2448">
        <ele>599</ele>
        <time>2022-09-29T12:36:16Z</time>
      </trkpt>
      <trkpt lat="44.4134" lon="5.2448">
        <ele>599</ele>
        <time>2022-09-29T12:36:17Z</time>
      </trkpt>
      <trkpt lat="44.41339" lon="5.2448">
        <ele>599</ele>
        <time>2022-09-29T12:36:18Z</time>
      </trkpt>
      <trkpt lat="44.41338" lon="5.2448">
        <ele>599</ele>
        <time>2022-09-29T12:36:19Z</time>
      </trkpt>
      <trkpt lat="44.41337" lon="5.2448">
        <ele>599</ele>
        <time>2022-09-29T12:36:20Z</time>
      </trkpt>
      <trkpt lat="44.41336" lon="5.2448">
        <ele>599</ele>
        <time>2022-09-29T12:36:21Z</time>
      </trkpt>
      <trkpt lat="44.41334" lon="5.2448">
        <ele>599</ele>
        <time>2022-09-29T12:36:22Z</time>
      </trkpt>
      <trkpt lat="44.41333" lon="5.24479">
        <ele>599</ele>
        <time>2022-09-29T12:36:23Z</time>
      </trkpt>
      <trkpt lat="44.41332" lon="5.24479">
        <ele>599</ele>
        <time>2022-09-29T12:36:24Z</time>
      </trkpt>
      <trkpt lat="44.41331" lon="5.24479">
        <ele>599</ele>
        <time>2022-09-29T12:36:25Z</time>
      </trkpt>
      <trkpt lat="44.4133" lon="5.24479">
        <ele>599</ele>
        <time>2022-09-29T12:36:26Z</time>
      </trkpt>
      <trkpt lat="44.41329" lon="5.24479">
        <ele>599</ele>
        <time>2022-09-29T12:36:27Z</time>
      </trkpt>
      <trkpt lat="44.41327" lon="5.24479">
        <ele>599</ele>
        <time>2022-09-29T12:36:28Z</time>
      </trkpt>
      <trkpt lat="44.41326" lon="5.24479">
        <ele>599</ele>
        <time>2022-09-29T12:36:29Z</time>
      </trkpt>
      <trkpt lat="44.41325" lon="5.24479">
        <ele>599</ele>
        <time>2022-09-29T12:36:30Z</time>
      </trkpt>
      <trkpt lat="44.41324" lon="5.24479">
        <ele>599</ele>
        <time>2022-09-29T12:36:31Z</time>
      </trkpt>
      <trkpt lat="44.41323" lon="5.24479">
        <ele>599</ele>
        <time>2022-09-29T12:36:32Z</time>
      </trkpt>
      <trkpt lat="44.41322" lon="5.24479">
        <ele>599</ele>
        <time>2022-09-29T12:36:33Z</time>
      </trkpt>
      <trkpt lat="44.4132" lon="5.24478">
        <ele>599</ele>
        <time>2022-09-29T12:36:34Z</time>
      </trkpt>
      <trkpt lat="44.41319" lon="5.24478">
        <ele>599</ele>
        <time>2022-09-29T12:36:35Z</time>
      </trkpt>
      <trkpt lat="44.41318" lon="5.24478">
        <ele>599</ele>
        <time>2022-09-29T12:36:36Z</time>
      </trkpt>
      <trkpt lat="44.41317" lon="5.24477">
        <ele>599</ele>
        <time>2022-09-29T12:36:37Z</time>
      </trkpt>
      <trkpt lat="44.41316" lon="5.24477">
        <ele>600</ele>
        <time>2022-09-29T12:36:38Z</time>
      </trkpt>
      <trkpt lat="44.41315" lon="5.24476">
        <ele>600</ele>
        <time>2022-09-29T12:36:39Z</time>
      </trkpt>
      <trkpt lat="44.41313" lon="5.24476">
        <ele>600</ele>
        <time>2022-09-29T12:36:40Z</time>
      </trkpt>
      <trkpt lat="44.41312" lon="5.24475">
        <ele>600</ele>
        <time>2022-09-29T12:36:41Z</time>
      </trkpt>
      <trkpt lat="44.41311" lon="5.24474">
        <ele>600</ele>
        <time>2022-09-29T12:36:42Z</time>
      </trkpt>
      <trkpt lat="44.4131" lon="5.24474">
        <ele>600</ele>
        <time>2022-09-29T12:36:43Z</time>
      </trkpt>
      <trkpt lat="44.41309" lon="5.24473">
        <ele>600</ele>
        <time>2022-09-29T12:36:44Z</time>
      </trkpt>
      <trkpt lat="44.41308" lon="5.24472">
        <ele>600</ele>
        <time>2022-09-29T12:36:45Z</time>
      </trkpt>
      <trkpt lat="44.41307" lon="5.24471">
        <ele>600</ele>
        <time>2022-09-29T12:36:46Z</time>
      </trkpt>
      <trkpt lat="44.41306" lon="5.2447">
        <ele>600</ele>
        <time>2022-09-29T12:36:47Z</time>
      </trkpt>
      <trkpt lat="44.41305" lon="5.24469">
        <ele>600</ele>
        <time>2022-09-29T12:36:48Z</time>
      </trkpt>
      <trkpt lat="44.41304" lon="5.24468">
        <ele>600</ele>
        <time>2022-09-29T12:36:49Z</time>
      </trkpt>
      <trkpt lat="44.41303" lon="5.24467">
        <ele>600</ele>
        <time>2022-09-29T12:36:50Z</time>
      </trkpt>
      <trkpt lat="44.41302" lon="5.24467">
        <ele>600</ele>
        <time>2022-09-29T12:36:51Z</time>
      </trkpt>
      <trkpt lat="44.41301" lon="5.24466">
        <ele>600</ele>
        <time>2022-09-29T12:36:52Z</time>
      </trkpt>
      <trkpt lat="44.413" lon="5.24465">
        <ele>600</ele>
        <time>2022-09-29T12:36:53Z</time>
      </trkpt>
      <trkpt lat="44.41299" lon="5.24464">
        <ele>600</ele>
        <time>2022-09-29T12:36:54Z</time>
      </trkpt>
      <trkpt lat="44.41298" lon="5.24464">
        <ele>600</ele>
        <time>2022-09-29T12:36:55Z</time>
      </trkpt>
      <trkpt lat="44.41296" lon="5.24463">
        <ele>600</ele>
        <time>2022-09-29T12:36:56Z</time>
      </trkpt>
      <trkpt lat="44.41295" lon="5.24462">
        <ele>600</ele>
        <time>2022-09-29T12:36:57Z</time>
      </trkpt>
      <trkpt lat="44.41294" lon="5.24462">
        <ele>601</ele>
        <time>2022-09-29T12:36:58Z</time>
      </trkpt>
      <trkpt lat="44.41293" lon="5.24461">
        <ele>601</ele>
        <time>2022-09-29T12:36:59Z</time>
      </trkpt>
      <trkpt lat="44.41292" lon="5.2446">
        <ele>601</ele>
        <time>2022-09-29T12:37:00Z</time>
      </trkpt>
      <trkpt lat="44.41291" lon="5.24459">
        <ele>601</ele>
        <time>2022-09-29T12:37:01Z</time>
      </trkpt>
      <trkpt lat="44.4129" lon="5.24459">
        <ele>601</ele>
        <time>2022-09-29T12:37:02Z</time>
      </trkpt>
      <trkpt lat="44.41289" lon="5.24458">
        <ele>601</ele>
        <time>2022-09-29T12:37:03Z</time>
      </trkpt>
      <trkpt lat="44.41288" lon="5.24457">
        <ele>601</ele>
        <time>2022-09-29T12:37:04Z</time>
      </trkpt>
      <trkpt lat="44.41287" lon="5.24456">
        <ele>601</ele>
        <time>2022-09-29T12:37:05Z</time>
      </trkpt>
      <trkpt lat="44.41286" lon="5.24456">
        <ele>601</ele>
        <time>2022-09-29T12:37:06Z</time>
      </trkpt>
      <trkpt lat="44.41285" lon="5.24455">
        <ele>601</ele>
        <time>2022-09-29T12:37:07Z</time>
      </trkpt>
      <trkpt lat="44.41284" lon="5.24454">
        <ele>601</ele>
        <time>2022-09-29T12:37:08Z</time>
      </trkpt>
      <trkpt lat="44.41283" lon="5.24454">
        <ele>601</ele>
        <time>2022-09-29T12:37:09Z</time>
      </trkpt>
      <trkpt lat="44.41282" lon="5.24453">
        <ele>601</ele>
        <time>2022-09-29T12:37:10Z</time>
      </trkpt>
      <trkpt lat="44.41281" lon="5.24452">
        <ele>601</ele>
        <time>2022-09-29T12:37:11Z</time>
      </trkpt>
      <trkpt lat="44.4128" lon="5.24452">
        <ele>601</ele>
        <time>2022-09-29T12:37:12Z</time>
      </trkpt>
      <trkpt lat="44.41279" lon="5.24451">
        <ele>601</ele>
        <time>2022-09-29T12:37:13Z</time>
      </trkpt>
      <trkpt lat="44.41278" lon="5.2445">
        <ele>601</ele>
        <time>2022-09-29T12:37:14Z</time>
      </trkpt>
      <trkpt lat="44.41277" lon="5.2445">
        <ele>601</ele>
        <time>2022-09-29T12:37:15Z</time>
      </trkpt>
      <trkpt lat="44.41276" lon="5.24449">
        <ele>601</ele>
        <time>2022-09-29T12:37:16Z</time>
      </trkpt>
      <trkpt lat="44.41275" lon="5.24448">
        <ele>601</ele>
        <time>2022-09-29T12:37:17Z</time>
      </trkpt>
      <trkpt lat="44.41274" lon="5.24448">
        <ele>601</ele>
        <time>2022-09-29T12:37:18Z</time>
      </trkpt>
      <trkpt lat="44.41273" lon="5.24447">
        <ele>601</ele>
        <time>2022-09-29T12:37:19Z</time>
      </trkpt>
      <trkpt lat="44.41272" lon="5.24446">
        <ele>601</ele>
        <time>2022-09-29T12:37:20Z</time>
      </trkpt>
      <trkpt lat="44.41271" lon="5.24446">
        <ele>601</ele>
        <time>2022-09-29T12:37:21Z</time>
      </trkpt>
      <trkpt lat="44.4127" lon="5.24445">
        <ele>601</ele>
        <time>2022-09-29T12:37:22Z</time>
      </trkpt>
      <trkpt lat="44.41269" lon="5.24444">
        <ele>602</ele>
        <time>2022-09-29T12:37:23Z</time>
      </trkpt>
      <trkpt lat="44.41268" lon="5.24443">
        <ele>602</ele>
        <time>2022-09-29T12:37:24Z</time>
      </trkpt>
      <trkpt lat="44.41267" lon="5.24442">
        <ele>602</ele>
        <time>2022-09-29T12:37:25Z</time>
      </trkpt>
      <trkpt lat="44.41267" lon="5.24441">
        <ele>602</ele>
        <time>2022-09-29T12:37:26Z</time>
      </trkpt>
      <trkpt lat="44.41266" lon="5.2444">
        <ele>602</ele>
        <time>2022-09-29T12:37:27Z</time>
      </trkpt>
      <trkpt lat="44.41265" lon="5.24439">
        <ele>602</ele>
        <time>2022-09-29T12:37:28Z</time>
      </trkpt>
      <trkpt lat="44.41265" lon="5.24438">
        <ele>602</ele>
        <time>2022-09-29T12:37:29Z</time>
      </trkpt>
      <trkpt lat="44.41264" lon="5.24436">
        <ele>602</ele>
        <time>2022-09-29T12:37:30Z</time>
      </trkpt>
      <trkpt lat="44.41263" lon="5.24435">
        <ele>602</ele>
        <time>2022-09-29T12:37:31Z</time>
      </trkpt>
      <trkpt lat="44.41263" lon="5.24434">
        <ele>602</ele>
        <time>2022-09-29T12:37:32Z</time>
      </trkpt>
      <trkpt lat="44.41262" lon="5.24433">
        <ele>602</ele>
        <time>2022-09-29T12:37:33Z</time>
      </trkpt>
      <trkpt lat="44.41261" lon="5.24432">
        <ele>602</ele>
        <time>2022-09-29T12:37:34Z</time>
      </trkpt>
      <trkpt lat="44.41261" lon="5.2443">
        <ele>602</ele>
        <time>2022-09-29T12:37:35Z</time>
      </trkpt>
      <trkpt lat="44.4126" lon="5.24429">
        <ele>602</ele>
        <time>2022-09-29T12:37:36Z</time>
      </trkpt>
      <trkpt lat="44.4126" lon="5.24428">
        <ele>602</ele>
        <time>2022-09-29T12:37:37Z</time>
      </trkpt>
      <trkpt lat="44.41259" lon="5.24426">
        <ele>602</ele>
        <time>2022-09-29T12:37:38Z</time>
      </trkpt>
      <trkpt lat="44.41259" lon="5.24425">
        <ele>602</ele>
        <time>2022-09-29T12:37:39Z</time>
      </trkpt>
      <trkpt lat="44.41258" lon="5.24424">
        <ele>602</ele>
        <time>2022-09-29T12:37:40Z</time>
      </trkpt>
      <trkpt lat="44.41258" lon="5.24422">
        <ele>602</ele>
        <time>2022-09-29T12:37:41Z</time>
      </trkpt>
      <trkpt lat="44.41257" lon="5.24421">
        <ele>602</ele>
        <time>2022-09-29T12:37:42Z</time>
      </trkpt>
      <trkpt lat="44.41257" lon="5.24419">
        <ele>602</ele>
        <time>2022-09-29T12:37:43Z</time>
      </trkpt>
      <trkpt lat="44.41256" lon="5.24418">
        <ele>602</ele>
        <time>2022-09-29T12:37:44Z</time>
      </trkpt>
      <trkpt lat="44.41256" lon="5.24416">
        <ele>602</ele>
        <time>2022-09-29T12:37:45Z</time>
      </trkpt>
      <trkpt lat="44.41255" lon="5.24415">
        <ele>602</ele>
        <time>2022-09-29T12:37:46Z</time>
      </trkpt>
      <trkpt lat="44.41255" lon="5.24413">
        <ele>602</ele>
        <time>2022-09-29T12:37:47Z</time>
      </trkpt>
      <trkpt lat="44.41254" lon="5.24412">
        <ele>602</ele>
        <time>2022-09-29T12:37:48Z</time>
      </trkpt>
      <trkpt lat="44.41254" lon="5.2441">
        <ele>602</ele>
        <time>2022-09-29T12:37:49Z</time>
      </trkpt>
      <trkpt lat="44.41253" lon="5.24409">
        <ele>602</ele>
        <time>2022-09-29T12:37:50Z</time>
      </trkpt>
      <trkpt lat="44.41253" lon="5.24407">
        <ele>602</ele>
        <time>2022-09-29T12:37:51Z</time>
      </trkpt>
      <trkpt lat="44.41252" lon="5.24406">
        <ele>602</ele>
        <time>2022-09-29T12:37:52Z</time>
      </trkpt>
      <trkpt lat="44.41252" lon="5.24404">
        <ele>603</ele>
        <time>2022-09-29T12:37:53Z</time>
      </trkpt>
      <trkpt lat="44.41251" lon="5.24403">
        <ele>603</ele>
        <time>2022-09-29T12:37:54Z</time>
      </trkpt>
      <trkpt lat="44.41251" lon="5.24401">
        <ele>603</ele>
        <time>2022-09-29T12:37:55Z</time>
      </trkpt>
      <trkpt lat="44.41251" lon="5.244">
        <ele>603</ele>
        <time>2022-09-29T12:37:56Z</time>
      </trkpt>
      <trkpt lat="44.4125" lon="5.24398">
        <ele>603</ele>
        <time>2022-09-29T12:37:57Z</time>
      </trkpt>
      <trkpt lat="44.4125" lon="5.24397">
        <ele>603</ele>
        <time>2022-09-29T12:37:58Z</time>
      </trkpt>
      <trkpt lat="44.41249" lon="5.24395">
        <ele>603</ele>
        <time>2022-09-29T12:37:59Z</time>
      </trkpt>
      <trkpt lat="44.41249" lon="5.24394">
        <ele>603</ele>
        <time>2022-09-29T12:38:00Z</time>
      </trkpt>
      <trkpt lat="44.41248" lon="5.24392">
        <ele>603</ele>
        <time>2022-09-29T12:38:01Z</time>
      </trkpt>
      <trkpt lat="44.41248" lon="5.2439">
        <ele>603</ele>
        <time>2022-09-29T12:38:02Z</time>
      </trkpt>
      <trkpt lat="44.41248" lon="5.24388">
        <ele>603</ele>
        <time>2022-09-29T12:38:03Z</time>
      </trkpt>
      <trkpt lat="44.41247" lon="5.24387">
        <ele>603</ele>
        <time>2022-09-29T12:38:04Z</time>
      </trkpt>
      <trkpt lat="44.41247" lon="5.24385">
        <ele>603</ele>
        <time>2022-09-29T12:38:05Z</time>
      </trkpt>
      <trkpt lat="44.41246" lon="5.24384">
        <ele>603</ele>
        <time>2022-09-29T12:38:06Z</time>
      </trkpt>
      <trkpt lat="44.41246" lon="5.24382">
        <ele>603</ele>
        <time>2022-09-29T12:38:07Z</time>
      </trkpt>
      <trkpt lat="44.41246" lon="5.24381">
        <ele>603</ele>
        <time>2022-09-29T12:38:08Z</time>
      </trkpt>
      <trkpt lat="44.41245" lon="5.2438">
        <ele>603</ele>
        <time>2022-09-29T12:38:09Z</time>
      </trkpt>
      <trkpt lat="44.41245" lon="5.24378">
        <ele>603</ele>
        <time>2022-09-29T12:38:10Z</time>
      </trkpt>
      <trkpt lat="44.41245" lon="5.24377">
        <ele>603</ele>
        <time>2022-09-29T12:38:11Z</time>
      </trkpt>
      <trkpt lat="44.41244" lon="5.24375">
        <ele>603</ele>
        <time>2022-09-29T12:38:12Z</time>
      </trkpt>
      <trkpt lat="44.41244" lon="5.24374">
        <ele>603</ele>
        <time>2022-09-29T12:38:13Z</time>
      </trkpt>
      <trkpt lat="44.41243" lon="5.24372">
        <ele>603</ele>
        <time>2022-09-29T12:38:14Z</time>
      </trkpt>
      <trkpt lat="44.41243" lon="5.24371">
        <ele>603</ele>
        <time>2022-09-29T12:38:15Z</time>
      </trkpt>
      <trkpt lat="44.41242" lon="5.24369">
        <ele>603</ele>
        <time>2022-09-29T12:38:16Z</time>
      </trkpt>
      <trkpt lat="44.41242" lon="5.24368">
        <ele>603</ele>
        <time>2022-09-29T12:38:17Z</time>
      </trkpt>
      <trkpt lat="44.41241" lon="5.24366">
        <ele>603</ele>
        <time>2022-09-29T12:38:18Z</time>
      </trkpt>
      <trkpt lat="44.41241" lon="5.24365">
        <ele>603</ele>
        <time>2022-09-29T12:38:19Z</time>
      </trkpt>
      <trkpt lat="44.41241" lon="5.24363">
        <ele>603</ele>
        <time>2022-09-29T12:38:20Z</time>
      </trkpt>
      <trkpt lat="44.4124" lon="5.24362">
        <ele>603</ele>
        <time>2022-09-29T12:38:21Z</time>
      </trkpt>
      <trkpt lat="44.4124" lon="5.2436">
        <ele>603</ele>
        <time>2022-09-29T12:38:22Z</time>
      </trkpt>
      <trkpt lat="44.41239" lon="5.24359">
        <ele>603</ele>
        <time>2022-09-29T12:38:23Z</time>
      </trkpt>
      <trkpt lat="44.41239" lon="5.24358">
        <ele>603</ele>
        <time>2022-09-29T12:38:24Z</time>
      </trkpt>
      <trkpt lat="44.41239" lon="5.24356">
        <ele>603</ele>
        <time>2022-09-29T12:38:25Z</time>
      </trkpt>
      <trkpt lat="44.41238" lon="5.24355">
        <ele>603</ele>
        <time>2022-09-29T12:38:26Z</time>
      </trkpt>
      <trkpt lat="44.41238" lon="5.24353">
        <ele>603</ele>
        <time>2022-09-29T12:38:27Z</time>
      </trkpt>
      <trkpt lat="44.41237" lon="5.24352">
        <ele>604</ele>
        <time>2022-09-29T12:38:28Z</time>
      </trkpt>
      <trkpt lat="44.41237" lon="5.24351">
        <ele>604</ele>
        <time>2022-09-29T12:38:29Z</time>
      </trkpt>
      <trkpt lat="44.41236" lon="5.24349">
        <ele>604</ele>
        <time>2022-09-29T12:38:30Z</time>
      </trkpt>
      <trkpt lat="44.41236" lon="5.24348">
        <ele>604</ele>
        <time>2022-09-29T12:38:31Z</time>
      </trkpt>
      <trkpt lat="44.41235" lon="5.24347">
        <ele>604</ele>
        <time>2022-09-29T12:38:32Z</time>
      </trkpt>
      <trkpt lat="44.41235" lon="5.24345">
        <ele>604</ele>
        <time>2022-09-29T12:38:33Z</time>
      </trkpt>
      <trkpt lat="44.41235" lon="5.24344">
        <ele>604</ele>
        <time>2022-09-29T12:38:34Z</time>
      </trkpt>
      <trkpt lat="44.41234" lon="5.24342">
        <ele>604</ele>
        <time>2022-09-29T12:38:35Z</time>
      </trkpt>
      <trkpt lat="44.41234" lon="5.24341">
        <ele>604</ele>
        <time>2022-09-29T12:38:36Z</time>
      </trkpt>
      <trkpt lat="44.41233" lon="5.24339">
        <ele>604</ele>
        <time>2022-09-29T12:38:37Z</time>
      </trkpt>
      <trkpt lat="44.41233" lon="5.24338">
        <ele>604</ele>
        <time>2022-09-29T12:38:38Z</time>
      </trkpt>
      <trkpt lat="44.41232" lon="5.24337">
        <ele>604</ele>
        <time>2022-09-29T12:38:39Z</time>
      </trkpt>
      <trkpt lat="44.41232" lon="5.24335">
        <ele>604</ele>
        <time>2022-09-29T12:38:40Z</time>
      </trkpt>
      <trkpt lat="44.41232" lon="5.24334">
        <ele>604</ele>
        <time>2022-09-29T12:38:41Z</time>
      </trkpt>
      <trkpt lat="44.41231" lon="5.24333">
        <ele>604</ele>
        <time>2022-09-29T12:38:42Z</time>
      </trkpt>
      <trkpt lat="44.4123" lon="5.2433">
        <ele>604</ele>
        <time>2022-09-29T12:38:48Z</time>
      </trkpt>
      <trkpt lat="44.4123" lon="5.24329">
        <ele>604</ele>
        <time>2022-09-29T12:38:49Z</time>
      </trkpt>
      <trkpt lat="44.4123" lon="5.24328">
        <ele>604</ele>
        <time>2022-09-29T12:38:50Z</time>
      </trkpt>
      <trkpt lat="44.41229" lon="5.24326">
        <ele>605</ele>
        <time>2022-09-29T12:39:22Z</time>
      </trkpt>
      <trkpt lat="44.41228" lon="5.24325">
        <ele>605</ele>
        <time>2022-09-29T12:39:23Z</time>
      </trkpt>
      <trkpt lat="44.41228" lon="5.24324">
        <ele>605</ele>
        <time>2022-09-29T12:39:24Z</time>
      </trkpt>
      <trkpt lat="44.41227" lon="5.24323">
        <ele>605</ele>
        <time>2022-09-29T12:39:25Z</time>
      </trkpt>
      <trkpt lat="44.41227" lon="5.24322">
        <ele>605</ele>
        <time>2022-09-29T12:39:26Z</time>
      </trkpt>
      <trkpt lat="44.41227" lon="5.24321">
        <ele>605</ele>
        <time>2022-09-29T12:39:27Z</time>
      </trkpt>
      <trkpt lat="44.41226" lon="5.2432">
        <ele>605</ele>
        <time>2022-09-29T12:39:28Z</time>
      </trkpt>
      <trkpt lat="44.41226" lon="5.24319">
        <ele>605</ele>
        <time>2022-09-29T12:39:29Z</time>
      </trkpt>
      <trkpt lat="44.41225" lon="5.24317">
        <ele>605</ele>
        <time>2022-09-29T12:39:30Z</time>
      </trkpt>
      <trkpt lat="44.41225" lon="5.24316">
        <ele>605</ele>
        <time>2022-09-29T12:39:31Z</time>
      </trkpt>
      <trkpt lat="44.41224" lon="5.24315">
        <ele>605</ele>
        <time>2022-09-29T12:39:32Z</time>
      </trkpt>
      <trkpt lat="44.41224" lon="5.24314">
        <ele>605</ele>
        <time>2022-09-29T12:39:33Z</time>
      </trkpt>
      <trkpt lat="44.41223" lon="5.24313">
        <ele>605</ele>
        <time>2022-09-29T12:39:34Z</time>
      </trkpt>
      <trkpt lat="44.41223" lon="5.24311">
        <ele>605</ele>
        <time>2022-09-29T12:39:35Z</time>
      </trkpt>
      <trkpt lat="44.41223" lon="5.2431">
        <ele>605</ele>
        <time>2022-09-29T12:39:36Z</time>
      </trkpt>
      <trkpt lat="44.41222" lon="5.24309">
        <ele>605</ele>
        <time>2022-09-29T12:39:37Z</time>
      </trkpt>
      <trkpt lat="44.41222" lon="5.24308">
        <ele>605</ele>
        <time>2022-09-29T12:39:38Z</time>
      </trkpt>
      <trkpt lat="44.41221" lon="5.24307">
        <ele>605</ele>
        <time>2022-09-29T12:39:39Z</time>
      </trkpt>
      <trkpt lat="44.41221" lon="5.24306">
        <ele>605</ele>
        <time>2022-09-29T12:39:40Z</time>
      </trkpt>
      <trkpt lat="44.4122" lon="5.24304">
        <ele>605</ele>
        <time>2022-09-29T12:39:41Z</time>
      </trkpt>
      <trkpt lat="44.4122" lon="5.24303">
        <ele>605</ele>
        <time>2022-09-29T12:39:42Z</time>
      </trkpt>
      <trkpt lat="44.41219" lon="5.24302">
        <ele>605</ele>
        <time>2022-09-29T12:39:43Z</time>
      </trkpt>
      <trkpt lat="44.41218" lon="5.24301">
        <ele>605</ele>
        <time>2022-09-29T12:39:44Z</time>
      </trkpt>
      <trkpt lat="44.41218" lon="5.243">
        <ele>605</ele>
        <time>2022-09-29T12:39:45Z</time>
      </trkpt>
      <trkpt lat="44.41217" lon="5.24299">
        <ele>605</ele>
        <time>2022-09-29T12:39:46Z</time>
      </trkpt>
      <trkpt lat="44.41216" lon="5.24299">
        <ele>605</ele>
        <time>2022-09-29T12:39:47Z</time>
      </trkpt>
      <trkpt lat="44.41215" lon="5.24298">
        <ele>605</ele>
        <time>2022-09-29T12:39:48Z</time>
      </trkpt>
      <trkpt lat="44.41214" lon="5.24297">
        <ele>605</ele>
        <time>2022-09-29T12:39:49Z</time>
      </trkpt>
      <trkpt lat="44.41213" lon="5.24296">
        <ele>605</ele>
        <time>2022-09-29T12:39:50Z</time>
      </trkpt>
      <trkpt lat="44.41213" lon="5.24296">
        <ele>605</ele>
        <time>2022-09-29T12:39:51Z</time>
      </trkpt>
      <trkpt lat="44.41212" lon="5.24295">
        <ele>605</ele>
        <time>2022-09-29T12:39:52Z</time>
      </trkpt>
      <trkpt lat="44.41211" lon="5.24294">
        <ele>605</ele>
        <time>2022-09-29T12:39:53Z</time>
      </trkpt>
      <trkpt lat="44.4121" lon="5.24294">
        <ele>605</ele>
        <time>2022-09-29T12:39:54Z</time>
      </trkpt>
      <trkpt lat="44.41209" lon="5.24293">
        <ele>605</ele>
        <time>2022-09-29T12:39:55Z</time>
      </trkpt>
      <trkpt lat="44.41208" lon="5.24293">
        <ele>605</ele>
        <time>2022-09-29T12:39:56Z</time>
      </trkpt>
      <trkpt lat="44.41207" lon="5.24292">
        <ele>605</ele>
        <time>2022-09-29T12:39:57Z</time>
      </trkpt>
      <trkpt lat="44.41206" lon="5.24291">
        <ele>605</ele>
        <time>2022-09-29T12:39:58Z</time>
      </trkpt>
      <trkpt lat="44.41205" lon="5.24291">
        <ele>605</ele>
        <time>2022-09-29T12:39:59Z</time>
      </trkpt>
      <trkpt lat="44.41204" lon="5.2429">
        <ele>605</ele>
        <time>2022-09-29T12:40:00Z</time>
      </trkpt>
      <trkpt lat="44.41203" lon="5.24289">
        <ele>605</ele>
        <time>2022-09-29T12:40:01Z</time>
      </trkpt>
      <trkpt lat="44.41202" lon="5.24288">
        <ele>605</ele>
        <time>2022-09-29T12:40:02Z</time>
      </trkpt>
      <trkpt lat="44.41201" lon="5.24287">
        <ele>606</ele>
        <time>2022-09-29T12:40:03Z</time>
      </trkpt>
      <trkpt lat="44.412" lon="5.24286">
        <ele>606</ele>
        <time>2022-09-29T12:40:04Z</time>
      </trkpt>
      <trkpt lat="44.41199" lon="5.24285">
        <ele>606</ele>
        <time>2022-09-29T12:40:05Z</time>
      </trkpt>
      <trkpt lat="44.41198" lon="5.24285">
        <ele>606</ele>
        <time>2022-09-29T12:40:06Z</time>
      </trkpt>
      <trkpt lat="44.41197" lon="5.24284">
        <ele>606</ele>
        <time>2022-09-29T12:40:07Z</time>
      </trkpt>
      <trkpt lat="44.41196" lon="5.24283">
        <ele>606</ele>
        <time>2022-09-29T12:40:08Z</time>
      </trkpt>
      <trkpt lat="44.41195" lon="5.24282">
        <ele>605</ele>
        <time>2022-09-29T12:40:09Z</time>
      </trkpt>
      <trkpt lat="44.41194" lon="5.24282">
        <ele>605</ele>
        <time>2022-09-29T12:40:10Z</time>
      </trkpt>
      <trkpt lat="44.41193" lon="5.24281">
        <ele>605</ele>
        <time>2022-09-29T12:40:11Z</time>
      </trkpt>
      <trkpt lat="44.41192" lon="5.2428">
        <ele>605</ele>
        <time>2022-09-29T12:40:12Z</time>
      </trkpt>
      <trkpt lat="44.41191" lon="5.2428">
        <ele>605</ele>
        <time>2022-09-29T12:40:13Z</time>
      </trkpt>
      <trkpt lat="44.4119" lon="5.24279">
        <ele>605</ele>
        <time>2022-09-29T12:40:14Z</time>
      </trkpt>
      <trkpt lat="44.4119" lon="5.24279">
        <ele>605</ele>
        <time>2022-09-29T12:40:15Z</time>
      </trkpt>
      <trkpt lat="44.41189" lon="5.24278">
        <ele>605</ele>
        <time>2022-09-29T12:40:16Z</time>
      </trkpt>
      <trkpt lat="44.41188" lon="5.24278">
        <ele>605</ele>
        <time>2022-09-29T12:40:17Z</time>
      </trkpt>
      <trkpt lat="44.41187" lon="5.24278">
        <ele>605</ele>
        <time>2022-09-29T12:40:18Z</time>
      </trkpt>
      <trkpt lat="44.41186" lon="5.24277">
        <ele>605</ele>
        <time>2022-09-29T12:40:19Z</time>
      </trkpt>
      <trkpt lat="44.41185" lon="5.24277">
        <ele>605</ele>
        <time>2022-09-29T12:40:20Z</time>
      </trkpt>
      <trkpt lat="44.41184" lon="5.24276">
        <ele>605</ele>
        <time>2022-09-29T12:40:21Z</time>
      </trkpt>
      <trkpt lat="44.41183" lon="5.24276">
        <ele>605</ele>
        <time>2022-09-29T12:40:22Z</time>
      </trkpt>
      <trkpt lat="44.41182" lon="5.24275">
        <ele>605</ele>
        <time>2022-09-29T12:40:23Z</time>
      </trkpt>
      <trkpt lat="44.41181" lon="5.24275">
        <ele>605</ele>
        <time>2022-09-29T12:40:24Z</time>
      </trkpt>
      <trkpt lat="44.4118" lon="5.24274">
        <ele>605</ele>
        <time>2022-09-29T12:40:25Z</time>
      </trkpt>
      <trkpt lat="44.41179" lon="5.24274">
        <ele>605</ele>
        <time>2022-09-29T12:40:26Z</time>
      </trkpt>
      <trkpt lat="44.41178" lon="5.24273">
        <ele>605</ele>
        <time>2022-09-29T12:40:27Z</time>
      </trkpt>
      <trkpt lat="44.41178" lon="5.24273">
        <ele>605</ele>
        <time>2022-09-29T12:40:28Z</time>
      </trkpt>
      <trkpt lat="44.41177" lon="5.24273">
        <ele>605</ele>
        <time>2022-09-29T12:40:29Z</time>
      </trkpt>
      <trkpt lat="44.41176" lon="5.24272">
        <ele>605</ele>
        <time>2022-09-29T12:40:30Z</time>
      </trkpt>
      <trkpt lat="44.41175" lon="5.24271">
        <ele>605</ele>
        <time>2022-09-29T12:40:31Z</time>
      </trkpt>
      <trkpt lat="44.41174" lon="5.24271">
        <ele>605</ele>
        <time>2022-09-29T12:40:32Z</time>
      </trkpt>
      <trkpt lat="44.41174" lon="5.2427">
        <ele>605</ele>
        <time>2022-09-29T12:40:33Z</time>
      </trkpt>
      <trkpt lat="44.41173" lon="5.2427">
        <ele>604</ele>
        <time>2022-09-29T12:40:34Z</time>
      </trkpt>
      <trkpt lat="44.41172" lon="5.24269">
        <ele>604</ele>
        <time>2022-09-29T12:40:35Z</time>
      </trkpt>
      <trkpt lat="44.41171" lon="5.24269">
        <ele>604</ele>
        <time>2022-09-29T12:40:36Z</time>
      </trkpt>
      <trkpt lat="44.4117" lon="5.24268">
        <ele>604</ele>
        <time>2022-09-29T12:40:37Z</time>
      </trkpt>
      <trkpt lat="44.41169" lon="5.24267">
        <ele>604</ele>
        <time>2022-09-29T12:40:38Z</time>
      </trkpt>
      <trkpt lat="44.41168" lon="5.24266">
        <ele>604</ele>
        <time>2022-09-29T12:40:39Z</time>
      </trkpt>
      <trkpt lat="44.41167" lon="5.24266">
        <ele>604</ele>
        <time>2022-09-29T12:40:40Z</time>
      </trkpt>
      <trkpt lat="44.41166" lon="5.24265">
        <ele>604</ele>
        <time>2022-09-29T12:40:41Z</time>
      </trkpt>
      <trkpt lat="44.41165" lon="5.24265">
        <ele>604</ele>
        <time>2022-09-29T12:40:42Z</time>
      </trkpt>
      <trkpt lat="44.41164" lon="5.24264">
        <ele>604</ele>
        <time>2022-09-29T12:40:43Z</time>
      </trkpt>
      <trkpt lat="44.41163" lon="5.24264">
        <ele>603</ele>
        <time>2022-09-29T12:40:44Z</time>
      </trkpt>
      <trkpt lat="44.41163" lon="5.24263">
        <ele>603</ele>
        <time>2022-09-29T12:40:45Z</time>
      </trkpt>
      <trkpt lat="44.41162" lon="5.24262">
        <ele>603</ele>
        <time>2022-09-29T12:40:46Z</time>
      </trkpt>
      <trkpt lat="44.41161" lon="5.24261">
        <ele>603</ele>
        <time>2022-09-29T12:40:47Z</time>
      </trkpt>
      <trkpt lat="44.4116" lon="5.24261">
        <ele>603</ele>
        <time>2022-09-29T12:40:48Z</time>
      </trkpt>
      <trkpt lat="44.41159" lon="5.2426">
        <ele>603</ele>
        <time>2022-09-29T12:40:49Z</time>
      </trkpt>
      <trkpt lat="44.41159" lon="5.24259">
        <ele>603</ele>
        <time>2022-09-29T12:40:50Z</time>
      </trkpt>
      <trkpt lat="44.41158" lon="5.24258">
        <ele>603</ele>
        <time>2022-09-29T12:40:51Z</time>
      </trkpt>
      <trkpt lat="44.41157" lon="5.24257">
        <ele>603</ele>
        <time>2022-09-29T12:40:52Z</time>
      </trkpt>
      <trkpt lat="44.41156" lon="5.24256">
        <ele>603</ele>
        <time>2022-09-29T12:40:53Z</time>
      </trkpt>
      <trkpt lat="44.41155" lon="5.24256">
        <ele>603</ele>
        <time>2022-09-29T12:40:54Z</time>
      </trkpt>
      <trkpt lat="44.41155" lon="5.24255">
        <ele>603</ele>
        <time>2022-09-29T12:40:55Z</time>
      </trkpt>
      <trkpt lat="44.41154" lon="5.24254">
        <ele>603</ele>
        <time>2022-09-29T12:40:56Z</time>
      </trkpt>
      <trkpt lat="44.41153" lon="5.24253">
        <ele>603</ele>
        <time>2022-09-29T12:40:57Z</time>
      </trkpt>
      <trkpt lat="44.41152" lon="5.24252">
        <ele>603</ele>
        <time>2022-09-29T12:40:58Z</time>
      </trkpt>
      <trkpt lat="44.41151" lon="5.24252">
        <ele>602</ele>
        <time>2022-09-29T12:40:59Z</time>
      </trkpt>
      <trkpt lat="44.41151" lon="5.24251">
        <ele>602</ele>
        <time>2022-09-29T12:41:00Z</time>
      </trkpt>
      <trkpt lat="44.4115" lon="5.24251">
        <ele>602</ele>
        <time>2022-09-29T12:41:01Z</time>
      </trkpt>
      <trkpt lat="44.41149" lon="5.2425">
        <ele>602</ele>
        <time>2022-09-29T12:41:02Z</time>
      </trkpt>
      <trkpt lat="44.41149" lon="5.2425">
        <ele>602</ele>
        <time>2022-09-29T12:41:03Z</time>
      </trkpt>
      <trkpt lat="44.41148" lon="5.2425">
        <ele>602</ele>
        <time>2022-09-29T12:41:04Z</time>
      </trkpt>
      <trkpt lat="44.41146" lon="5.2425">
        <ele>601</ele>
        <time>2022-09-29T12:41:19Z</time>
      </trkpt>
      <trkpt lat="44.41144" lon="5.24251">
        <ele>601</ele>
        <time>2022-09-29T12:41:20Z</time>
      </trkpt>
      <trkpt lat="44.41143" lon="5.24251">
        <ele>601</ele>
        <time>2022-09-29T12:41:21Z</time>
      </trkpt>
      <trkpt lat="44.41142" lon="5.24251">
        <ele>601</ele>
        <time>2022-09-29T12:41:22Z</time>
      </trkpt>
      <trkpt lat="44.41141" lon="5.24252">
        <ele>601</ele>
        <time>2022-09-29T12:41:23Z</time>
      </trkpt>
      <trkpt lat="44.4114" lon="5.24252">
        <ele>601</ele>
        <time>2022-09-29T12:41:24Z</time>
      </trkpt>
      <trkpt lat="44.41139" lon="5.24253">
        <ele>601</ele>
        <time>2022-09-29T12:41:25Z</time>
      </trkpt>
      <trkpt lat="44.41138" lon="5.24253">
        <ele>601</ele>
        <time>2022-09-29T12:41:26Z</time>
      </trkpt>
      <trkpt lat="44.41137" lon="5.24254">
        <ele>601</ele>
        <time>2022-09-29T12:41:27Z</time>
      </trkpt>
      <trkpt lat="44.41136" lon="5.24254">
        <ele>601</ele>
        <time>2022-09-29T12:41:28Z</time>
      </trkpt>
      <trkpt lat="44.41136" lon="5.24255">
        <ele>600</ele>
        <time>2022-09-29T12:41:29Z</time>
      </trkpt>
      <trkpt lat="44.41135" lon="5.24255">
        <ele>600</ele>
        <time>2022-09-29T12:41:30Z</time>
      </trkpt>
      <trkpt lat="44.41134" lon="5.24256">
        <ele>600</ele>
        <time>2022-09-29T12:41:31Z</time>
      </trkpt>
      <trkpt lat="44.41132" lon="5.24256">
        <ele>599</ele>
        <time>2022-09-29T12:42:31Z</time>
      </trkpt>
      <trkpt lat="44.41131" lon="5.24256">
        <ele>599</ele>
        <time>2022-09-29T12:42:32Z</time>
      </trkpt>
      <trkpt lat="44.4113" lon="5.24256">
        <ele>599</ele>
        <time>2022-09-29T12:42:33Z</time>
      </trkpt>
      <trkpt lat="44.4113" lon="5.24256">
        <ele>599</ele>
        <time>2022-09-29T12:42:34Z</time>
      </trkpt>
      <trkpt lat="44.41129" lon="5.24256">
        <ele>599</ele>
        <time>2022-09-29T12:42:35Z</time>
      </trkpt>
      <trkpt lat="44.41128" lon="5.24257">
        <ele>599</ele>
        <time>2022-09-29T12:42:36Z</time>
      </trkpt>
      <trkpt lat="44.41127" lon="5.24257">
        <ele>599</ele>
        <time>2022-09-29T12:42:37Z</time>
      </trkpt>
      <trkpt lat="44.41127" lon="5.24257">
        <ele>599</ele>
        <time>2022-09-29T12:42:38Z</time>
      </trkpt>
      <trkpt lat="44.41126" lon="5.24257">
        <ele>599</ele>
        <time>2022-09-29T12:42:39Z</time>
      </trkpt>
      <trkpt lat="44.41125" lon="5.24258">
        <ele>599</ele>
        <time>2022-09-29T12:42:40Z</time>
      </trkpt>
      <trkpt lat="44.41124" lon="5.24258">
        <ele>599</ele>
        <time>2022-09-29T12:42:41Z</time>
      </trkpt>
      <trkpt lat="44.41123" lon="5.24259">
        <ele>599</ele>
        <time>2022-09-29T12:42:42Z</time>
      </trkpt>
      <trkpt lat="44.41122" lon="5.24259">
        <ele>599</ele>
        <time>2022-09-29T12:42:43Z</time>
      </trkpt>
      <trkpt lat="44.41121" lon="5.24259">
        <ele>599</ele>
        <time>2022-09-29T12:42:44Z</time>
      </trkpt>
      <trkpt lat="44.4112" lon="5.2426">
        <ele>599</ele>
        <time>2022-09-29T12:42:45Z</time>
      </trkpt>
      <trkpt lat="44.41119" lon="5.2426">
        <ele>599</ele>
        <time>2022-09-29T12:42:46Z</time>
      </trkpt>
      <trkpt lat="44.41118" lon="5.2426">
        <ele>599</ele>
        <time>2022-09-29T12:42:47Z</time>
      </trkpt>
      <trkpt lat="44.41118" lon="5.2426">
        <ele>599</ele>
        <time>2022-09-29T12:42:48Z</time>
      </trkpt>
      <trkpt lat="44.41117" lon="5.24261">
        <ele>599</ele>
        <time>2022-09-29T12:42:49Z</time>
      </trkpt>
      <trkpt lat="44.41115" lon="5.2426">
        <ele>600</ele>
        <time>2022-09-29T12:45:54Z</time>
      </trkpt>
      <trkpt lat="44.41114" lon="5.2426">
        <ele>600</ele>
        <time>2022-09-29T12:45:55Z</time>
      </trkpt>
      <trkpt lat="44.41113" lon="5.24259">
        <ele>600</ele>
        <time>2022-09-29T12:45:56Z</time>
      </trkpt>
      <trkpt lat="44.41112" lon="5.24259">
        <ele>600</ele>
        <time>2022-09-29T12:45:57Z</time>
      </trkpt>
      <trkpt lat="44.41112" lon="5.24258">
        <ele>600</ele>
        <time>2022-09-29T12:45:58Z</time>
      </trkpt>
      <trkpt lat="44.41111" lon="5.24257">
        <ele>600</ele>
        <time>2022-09-29T12:45:59Z</time>
      </trkpt>
      <trkpt lat="44.4111" lon="5.24256">
        <ele>600</ele>
        <time>2022-09-29T12:46:00Z</time>
      </trkpt>
      <trkpt lat="44.41109" lon="5.24255">
        <ele>600</ele>
        <time>2022-09-29T12:46:01Z</time>
      </trkpt>
      <trkpt lat="44.41108" lon="5.24254">
        <ele>600</ele>
        <time>2022-09-29T12:46:02Z</time>
      </trkpt>
      <trkpt lat="44.41108" lon="5.24253">
        <ele>600</ele>
        <time>2022-09-29T12:46:03Z</time>
      </trkpt>
      <trkpt lat="44.41107" lon="5.24252">
        <ele>600</ele>
        <time>2022-09-29T12:46:04Z</time>
      </trkpt>
      <trkpt lat="44.41106" lon="5.24251">
        <ele>600</ele>
        <time>2022-09-29T12:46:05Z</time>
      </trkpt>
      <trkpt lat="44.41106" lon="5.24251">
        <ele>600</ele>
        <time>2022-09-29T12:46:06Z</time>
      </trkpt>
      <trkpt lat="44.41106" lon="5.24251">
        <ele>600</ele>
        <time>2022-09-29T12:46:07Z</time>
      </trkpt>
      <trkpt lat="44.41106" lon="5.2425">
        <ele>600</ele>
        <time>2022-09-29T12:46:08Z</time>
      </trkpt>
      <trkpt lat="44.41105" lon="5.24249">
        <ele>600</ele>
        <time>2022-09-29T12:46:09Z</time>
      </trkpt>
      <trkpt lat="44.41105" lon="5.24249">
        <ele>600</ele>
        <time>2022-09-29T12:46:10Z</time>
      </trkpt>
      <trkpt lat="44.41104" lon="5.24248">
        <ele>600</ele>
        <time>2022-09-29T12:46:11Z</time>
      </trkpt>
      <trkpt lat="44.41104" lon="5.24248">
        <ele>600</ele>
        <time>2022-09-29T12:46:12Z</time>
      </trkpt>
      <trkpt lat="44.41103" lon="5.24247">
        <ele>600</ele>
        <time>2022-09-29T12:46:13Z</time>
      </trkpt>
      <trkpt lat="44.41103" lon="5.24247">
        <ele>599</ele>
        <time>2022-09-29T12:46:14Z</time>
      </trkpt>
      <trkpt lat="44.41102" lon="5.24246">
        <ele>599</ele>
        <time>2022-09-29T12:46:15Z</time>
      </trkpt>
      <trkpt lat="44.41101" lon="5.24246">
        <ele>599</ele>
        <time>2022-09-29T12:46:16Z</time>
      </trkpt>
      <trkpt lat="44.41101" lon="5.24245">
        <ele>599</ele>
        <time>2022-09-29T12:46:17Z</time>
      </trkpt>
      <trkpt lat="44.411" lon="5.24244">
        <ele>599</ele>
        <time>2022-09-29T12:46:18Z</time>
      </trkpt>
      <trkpt lat="44.411" lon="5.24244">
        <ele>599</ele>
        <time>2022-09-29T12:46:19Z</time>
      </trkpt>
      <trkpt lat="44.411" lon="5.24243">
        <ele>599</ele>
        <time>2022-09-29T12:46:20Z</time>
      </trkpt>
      <trkpt lat="44.41099" lon="5.24242">
        <ele>599</ele>
        <time>2022-09-29T12:46:21Z</time>
      </trkpt>
      <trkpt lat="44.41099" lon="5.24241">
        <ele>599</ele>
        <time>2022-09-29T12:46:22Z</time>
      </trkpt>
      <trkpt lat="44.41098" lon="5.2424">
        <ele>600</ele>
        <time>2022-09-29T12:46:23Z</time>
      </trkpt>
      <trkpt lat="44.41097" lon="5.24239">
        <ele>599</ele>
        <time>2022-09-29T12:46:24Z</time>
      </trkpt>
      <trkpt lat="44.41097" lon="5.24238">
        <ele>599</ele>
        <time>2022-09-29T12:46:25Z</time>
      </trkpt>
      <trkpt lat="44.41096" lon="5.24237">
        <ele>599</ele>
        <time>2022-09-29T12:46:26Z</time>
      </trkpt>
      <trkpt lat="44.41095" lon="5.24236">
        <ele>599</ele>
        <time>2022-09-29T12:46:27Z</time>
      </trkpt>
      <trkpt lat="44.41094" lon="5.24235">
        <ele>599</ele>
        <time>2022-09-29T12:46:28Z</time>
      </trkpt>
      <trkpt lat="44.41094" lon="5.24234">
        <ele>599</ele>
        <time>2022-09-29T12:46:29Z</time>
      </trkpt>
      <trkpt lat="44.41093" lon="5.24233">
        <ele>599</ele>
        <time>2022-09-29T12:46:30Z</time>
      </trkpt>
      <trkpt lat="44.41093" lon="5.24232">
        <ele>599</ele>
        <time>2022-09-29T12:46:31Z</time>
      </trkpt>
      <trkpt lat="44.41092" lon="5.24231">
        <ele>599</ele>
        <time>2022-09-29T12:46:32Z</time>
      </trkpt>
      <trkpt lat="44.41091" lon="5.2423">
        <ele>599</ele>
        <time>2022-09-29T12:46:33Z</time>
      </trkpt>
      <trkpt lat="44.41091" lon="5.24229">
        <ele>599</ele>
        <time>2022-09-29T12:46:34Z</time>
      </trkpt>
      <trkpt lat="44.4109" lon="5.24228">
        <ele>599</ele>
        <time>2022-09-29T12:46:35Z</time>
      </trkpt>
      <trkpt lat="44.41089" lon="5.24227">
        <ele>599</ele>
        <time>2022-09-29T12:46:36Z</time>
      </trkpt>
      <trkpt lat="44.41088" lon="5.24226">
        <ele>599</ele>
        <time>2022-09-29T12:46:37Z</time>
      </trkpt>
      <trkpt lat="44.41088" lon="5.24225">
        <ele>599</ele>
        <time>2022-09-29T12:46:38Z</time>
      </trkpt>
      <trkpt lat="44.41087" lon="5.24223">
        <ele>599</ele>
        <time>2022-09-29T12:46:39Z</time>
      </trkpt>
      <trkpt lat="44.41087" lon="5.24222">
        <ele>599</ele>
        <time>2022-09-29T12:46:40Z</time>
      </trkpt>
      <trkpt lat="44.41086" lon="5.24221">
        <ele>599</ele>
        <time>2022-09-29T12:46:41Z</time>
      </trkpt>
      <trkpt lat="44.41085" lon="5.2422">
        <ele>599</ele>
        <time>2022-09-29T12:46:42Z</time>
      </trkpt>
      <trkpt lat="44.41085" lon="5.24219">
        <ele>599</ele>
        <time>2022-09-29T12:46:43Z</time>
      </trkpt>
      <trkpt lat="44.41084" lon="5.24218">
        <ele>599</ele>
        <time>2022-09-29T12:46:44Z</time>
      </trkpt>
      <trkpt lat="44.41084" lon="5.24216">
        <ele>599</ele>
        <time>2022-09-29T12:46:45Z</time>
      </trkpt>
      <trkpt lat="44.41083" lon="5.24215">
        <ele>599</ele>
        <time>2022-09-29T12:46:46Z</time>
      </trkpt>
      <trkpt lat="44.41083" lon="5.24214">
        <ele>599</ele>
        <time>2022-09-29T12:46:47Z</time>
      </trkpt>
      <trkpt lat="44.41082" lon="5.24213">
        <ele>599</ele>
        <time>2022-09-29T12:46:48Z</time>
      </trkpt>
      <trkpt lat="44.41081" lon="5.24212">
        <ele>599</ele>
        <time>2022-09-29T12:46:49Z</time>
      </trkpt>
      <trkpt lat="44.41081" lon="5.2421">
        <ele>599</ele>
        <time>2022-09-29T12:46:50Z</time>
      </trkpt>
      <trkpt lat="44.4108" lon="5.24209">
        <ele>599</ele>
        <time>2022-09-29T12:46:51Z</time>
      </trkpt>
      <trkpt lat="44.41079" lon="5.24208">
        <ele>599</ele>
        <time>2022-09-29T12:46:52Z</time>
      </trkpt>
      <trkpt lat="44.41079" lon="5.24207">
        <ele>599</ele>
        <time>2022-09-29T12:46:53Z</time>
      </trkpt>
      <trkpt lat="44.41078" lon="5.24206">
        <ele>599</ele>
        <time>2022-09-29T12:46:54Z</time>
      </trkpt>
      <trkpt lat="44.41077" lon="5.24205">
        <ele>599</ele>
        <time>2022-09-29T12:46:55Z</time>
      </trkpt>
      <trkpt lat="44.41076" lon="5.24203">
        <ele>599</ele>
        <time>2022-09-29T12:46:56Z</time>
      </trkpt>
      <trkpt lat="44.41075" lon="5.24202">
        <ele>599</ele>
        <time>2022-09-29T12:46:57Z</time>
      </trkpt>
      <trkpt lat="44.41075" lon="5.24201">
        <ele>600</ele>
        <time>2022-09-29T12:46:58Z</time>
      </trkpt>
      <trkpt lat="44.41074" lon="5.242">
        <ele>599</ele>
        <time>2022-09-29T12:46:59Z</time>
      </trkpt>
      <trkpt lat="44.41073" lon="5.24199">
        <ele>599</ele>
        <time>2022-09-29T12:47:00Z</time>
      </trkpt>
      <trkpt lat="44.41072" lon="5.24198">
        <ele>599</ele>
        <time>2022-09-29T12:47:01Z</time>
      </trkpt>
      <trkpt lat="44.41072" lon="5.24197">
        <ele>599</ele>
        <time>2022-09-29T12:47:02Z</time>
      </trkpt>
      <trkpt lat="44.41071" lon="5.24196">
        <ele>599</ele>
        <time>2022-09-29T12:47:03Z</time>
      </trkpt>
      <trkpt lat="44.4107" lon="5.24195">
        <ele>599</ele>
        <time>2022-09-29T12:47:04Z</time>
      </trkpt>
      <trkpt lat="44.4107" lon="5.24193">
        <ele>599</ele>
        <time>2022-09-29T12:47:05Z</time>
      </trkpt>
      <trkpt lat="44.41069" lon="5.24192">
        <ele>599</ele>
        <time>2022-09-29T12:47:06Z</time>
      </trkpt>
      <trkpt lat="44.41069" lon="5.24191">
        <ele>599</ele>
        <time>2022-09-29T12:47:07Z</time>
      </trkpt>
      <trkpt lat="44.41068" lon="5.2419">
        <ele>599</ele>
        <time>2022-09-29T12:47:08Z</time>
      </trkpt>
      <trkpt lat="44.41068" lon="5.24189">
        <ele>599</ele>
        <time>2022-09-29T12:47:09Z</time>
      </trkpt>
      <trkpt lat="44.41067" lon="5.24187">
        <ele>599</ele>
        <time>2022-09-29T12:47:10Z</time>
      </trkpt>
      <trkpt lat="44.41067" lon="5.24186">
        <ele>599</ele>
        <time>2022-09-29T12:47:11Z</time>
      </trkpt>
      <trkpt lat="44.41067" lon="5.24185">
        <ele>599</ele>
        <time>2022-09-29T12:47:12Z</time>
      </trkpt>
      <trkpt lat="44.41066" lon="5.24184">
        <ele>599</ele>
        <time>2022-09-29T12:47:13Z</time>
      </trkpt>
      <trkpt lat="44.41066" lon="5.24183">
        <ele>599</ele>
        <time>2022-09-29T12:47:14Z</time>
      </trkpt>
      <trkpt lat="44.41065" lon="5.24181">
        <ele>599</ele>
        <time>2022-09-29T12:47:15Z</time>
      </trkpt>
      <trkpt lat="44.41065" lon="5.2418">
        <ele>599</ele>
        <time>2022-09-29T12:47:16Z</time>
      </trkpt>
      <trkpt lat="44.41064" lon="5.24179">
        <ele>599</ele>
        <time>2022-09-29T12:47:17Z</time>
      </trkpt>
      <trkpt lat="44.41064" lon="5.24177">
        <ele>599</ele>
        <time>2022-09-29T12:47:18Z</time>
      </trkpt>
      <trkpt lat="44.41063" lon="5.24176">
        <ele>599</ele>
        <time>2022-09-29T12:47:19Z</time>
      </trkpt>
      <trkpt lat="44.41063" lon="5.24174">
        <ele>599</ele>
        <time>2022-09-29T12:47:20Z</time>
      </trkpt>
      <trkpt lat="44.41062" lon="5.24173">
        <ele>599</ele>
        <time>2022-09-29T12:47:21Z</time>
      </trkpt>
      <trkpt lat="44.41062" lon="5.24171">
        <ele>599</ele>
        <time>2022-09-29T12:47:22Z</time>
      </trkpt>
      <trkpt lat="44.41062" lon="5.2417">
        <ele>600</ele>
        <time>2022-09-29T12:47:23Z</time>
      </trkpt>
      <trkpt lat="44.41062" lon="5.24168">
        <ele>600</ele>
        <time>2022-09-29T12:47:24Z</time>
      </trkpt>
      <trkpt lat="44.41061" lon="5.24167">
        <ele>600</ele>
        <time>2022-09-29T12:47:25Z</time>
      </trkpt>
      <trkpt lat="44.41061" lon="5.24165">
        <ele>600</ele>
        <time>2022-09-29T12:47:26Z</time>
      </trkpt>
      <trkpt lat="44.41061" lon="5.24164">
        <ele>600</ele>
        <time>2022-09-29T12:47:27Z</time>
      </trkpt>
      <trkpt lat="44.4106" lon="5.24162">
        <ele>600</ele>
        <time>2022-09-29T12:47:28Z</time>
      </trkpt>
      <trkpt lat="44.4106" lon="5.24161">
        <ele>600</ele>
        <time>2022-09-29T12:47:29Z</time>
      </trkpt>
      <trkpt lat="44.4106" lon="5.24159">
        <ele>600</ele>
        <time>2022-09-29T12:47:30Z</time>
      </trkpt>
      <trkpt lat="44.4106" lon="5.24158">
        <ele>600</ele>
        <time>2022-09-29T12:47:31Z</time>
      </trkpt>
      <trkpt lat="44.4106" lon="5.24156">
        <ele>600</ele>
        <time>2022-09-29T12:47:32Z</time>
      </trkpt>
      <trkpt lat="44.4106" lon="5.24155">
        <ele>600</ele>
        <time>2022-09-29T12:47:33Z</time>
      </trkpt>
      <trkpt lat="44.41059" lon="5.24153">
        <ele>600</ele>
        <time>2022-09-29T12:47:34Z</time>
      </trkpt>
      <trkpt lat="44.41059" lon="5.24152">
        <ele>600</ele>
        <time>2022-09-29T12:47:35Z</time>
      </trkpt>
      <trkpt lat="44.41059" lon="5.24151">
        <ele>600</ele>
        <time>2022-09-29T12:47:36Z</time>
      </trkpt>
      <trkpt lat="44.41059" lon="5.24149">
        <ele>600</ele>
        <time>2022-09-29T12:47:37Z</time>
      </trkpt>
      <trkpt lat="44.41058" lon="5.24148">
        <ele>601</ele>
        <time>2022-09-29T12:47:38Z</time>
      </trkpt>
      <trkpt lat="44.41058" lon="5.24146">
        <ele>601</ele>
        <time>2022-09-29T12:47:39Z</time>
      </trkpt>
      <trkpt lat="44.41058" lon="5.24145">
        <ele>601</ele>
        <time>2022-09-29T12:47:40Z</time>
      </trkpt>
      <trkpt lat="44.41057" lon="5.24143">
        <ele>601</ele>
        <time>2022-09-29T12:47:41Z</time>
      </trkpt>
      <trkpt lat="44.41057" lon="5.24142">
        <ele>601</ele>
        <time>2022-09-29T12:47:42Z</time>
      </trkpt>
      <trkpt lat="44.41057" lon="5.2414">
        <ele>601</ele>
        <time>2022-09-29T12:47:43Z</time>
      </trkpt>
      <trkpt lat="44.41056" lon="5.24139">
        <ele>601</ele>
        <time>2022-09-29T12:47:44Z</time>
      </trkpt>
      <trkpt lat="44.41056" lon="5.24138">
        <ele>601</ele>
        <time>2022-09-29T12:47:45Z</time>
      </trkpt>
      <trkpt lat="44.41056" lon="5.24136">
        <ele>601</ele>
        <time>2022-09-29T12:47:46Z</time>
      </trkpt>
      <trkpt lat="44.41056" lon="5.24135">
        <ele>601</ele>
        <time>2022-09-29T12:47:47Z</time>
      </trkpt>
      <trkpt lat="44.41056" lon="5.24134">
        <ele>602</ele>
        <time>2022-09-29T12:47:48Z</time>
      </trkpt>
      <trkpt lat="44.41056" lon="5.24133">
        <ele>602</ele>
        <time>2022-09-29T12:47:49Z</time>
      </trkpt>
      <trkpt lat="44.41056" lon="5.24132">
        <ele>602</ele>
        <time>2022-09-29T12:47:50Z</time>
      </trkpt>
      <trkpt lat="44.41057" lon="5.24131">
        <ele>602</ele>
        <time>2022-09-29T12:47:51Z</time>
      </trkpt>
      <trkpt lat="44.41057" lon="5.24129">
        <ele>602</ele>
        <time>2022-09-29T12:47:52Z</time>
      </trkpt>
      <trkpt lat="44.41058" lon="5.24128">
        <ele>602</ele>
        <time>2022-09-29T12:47:53Z</time>
      </trkpt>
      <trkpt lat="44.41058" lon="5.24127">
        <ele>601</ele>
        <time>2022-09-29T12:47:54Z</time>
      </trkpt>
      <trkpt lat="44.41059" lon="5.24127">
        <ele>601</ele>
        <time>2022-09-29T12:47:55Z</time>
      </trkpt>
      <trkpt lat="44.41059" lon="5.24126">
        <ele>601</ele>
        <time>2022-09-29T12:47:56Z</time>
      </trkpt>
      <trkpt lat="44.4106" lon="5.24125">
        <ele>601</ele>
        <time>2022-09-29T12:47:57Z</time>
      </trkpt>
      <trkpt lat="44.41061" lon="5.24125">
        <ele>601</ele>
        <time>2022-09-29T12:47:58Z</time>
      </trkpt>
      <trkpt lat="44.41061" lon="5.24125">
        <ele>600</ele>
        <time>2022-09-29T12:47:59Z</time>
      </trkpt>
      <trkpt lat="44.41062" lon="5.24125">
        <ele>600</ele>
        <time>2022-09-29T12:48:00Z</time>
      </trkpt>
      <trkpt lat="44.41063" lon="5.24125">
        <ele>600</ele>
        <time>2022-09-29T12:48:01Z</time>
      </trkpt>
      <trkpt lat="44.41063" lon="5.24125">
        <ele>600</ele>
        <time>2022-09-29T12:48:02Z</time>
      </trkpt>
      <trkpt lat="44.41064" lon="5.24125">
        <ele>600</ele>
        <time>2022-09-29T12:48:03Z</time>
      </trkpt>
      <trkpt lat="44.41065" lon="5.24126">
        <ele>599</ele>
        <time>2022-09-29T12:48:04Z</time>
      </trkpt>
      <trkpt lat="44.41066" lon="5.24126">
        <ele>599</ele>
        <time>2022-09-29T12:48:05Z</time>
      </trkpt>
      <trkpt lat="44.41066" lon="5.24127">
        <ele>599</ele>
        <time>2022-09-29T12:48:06Z</time>
      </trkpt>
      <trkpt lat="44.41067" lon="5.24127">
        <ele>599</ele>
        <time>2022-09-29T12:48:07Z</time>
      </trkpt>
      <trkpt lat="44.41068" lon="5.24128">
        <ele>599</ele>
        <time>2022-09-29T12:48:08Z</time>
      </trkpt>
      <trkpt lat="44.41069" lon="5.24128">
        <ele>599</ele>
        <time>2022-09-29T12:48:09Z</time>
      </trkpt>
      <trkpt lat="44.41069" lon="5.24129">
        <ele>599</ele>
        <time>2022-09-29T12:48:10Z</time>
      </trkpt>
      <trkpt lat="44.4107" lon="5.24129">
        <ele>599</ele>
        <time>2022-09-29T12:48:11Z</time>
      </trkpt>
      <trkpt lat="44.41071" lon="5.24129">
        <ele>599</ele>
        <time>2022-09-29T12:48:12Z</time>
      </trkpt>
      <trkpt lat="44.41071" lon="5.2413">
        <ele>599</ele>
        <time>2022-09-29T12:48:13Z</time>
      </trkpt>
      <trkpt lat="44.41072" lon="5.2413">
        <ele>598</ele>
        <time>2022-09-29T12:48:14Z</time>
      </trkpt>
      <trkpt lat="44.41073" lon="5.2413">
        <ele>598</ele>
        <time>2022-09-29T12:48:15Z</time>
      </trkpt>
      <trkpt lat="44.41074" lon="5.2413">
        <ele>598</ele>
        <time>2022-09-29T12:48:16Z</time>
      </trkpt>
      <trkpt lat="44.41075" lon="5.2413">
        <ele>598</ele>
        <time>2022-09-29T12:48:17Z</time>
      </trkpt>
      <trkpt lat="44.41076" lon="5.2413">
        <ele>598</ele>
        <time>2022-09-29T12:48:18Z</time>
      </trkpt>
      <trkpt lat="44.41077" lon="5.24131">
        <ele>597</ele>
        <time>2022-09-29T12:48:19Z</time>
      </trkpt>
      <trkpt lat="44.41077" lon="5.24131">
        <ele>597</ele>
        <time>2022-09-29T12:48:20Z</time>
      </trkpt>
      <trkpt lat="44.41078" lon="5.24131">
        <ele>597</ele>
        <time>2022-09-29T12:48:21Z</time>
      </trkpt>
      <trkpt lat="44.41079" lon="5.24131">
        <ele>597</ele>
        <time>2022-09-29T12:48:22Z</time>
      </trkpt>
      <trkpt lat="44.4108" lon="5.24131">
        <ele>597</ele>
        <time>2022-09-29T12:48:23Z</time>
      </trkpt>
      <trkpt lat="44.4108" lon="5.24131">
        <ele>596</ele>
        <time>2022-09-29T12:48:24Z</time>
      </trkpt>
      <trkpt lat="44.41081" lon="5.24132">
        <ele>596</ele>
        <time>2022-09-29T12:48:25Z</time>
      </trkpt>
      <trkpt lat="44.41082" lon="5.24132">
        <ele>596</ele>
        <time>2022-09-29T12:48:26Z</time>
      </trkpt>
      <trkpt lat="44.41083" lon="5.24132">
        <ele>596</ele>
        <time>2022-09-29T12:48:27Z</time>
      </trkpt>
      <trkpt lat="44.41083" lon="5.24132">
        <ele>596</ele>
        <time>2022-09-29T12:48:28Z</time>
      </trkpt>
      <trkpt lat="44.41084" lon="5.24133">
        <ele>595</ele>
        <time>2022-09-29T12:48:29Z</time>
      </trkpt>
      <trkpt lat="44.41085" lon="5.24133">
        <ele>595</ele>
        <time>2022-09-29T12:48:30Z</time>
      </trkpt>
      <trkpt lat="44.41086" lon="5.24133">
        <ele>595</ele>
        <time>2022-09-29T12:48:31Z</time>
      </trkpt>
      <trkpt lat="44.41086" lon="5.24134">
        <ele>595</ele>
        <time>2022-09-29T12:48:32Z</time>
      </trkpt>
      <trkpt lat="44.41087" lon="5.24134">
        <ele>595</ele>
        <time>2022-09-29T12:48:33Z</time>
      </trkpt>
      <trkpt lat="44.41088" lon="5.24134">
        <ele>594</ele>
        <time>2022-09-29T12:48:34Z</time>
      </trkpt>
      <trkpt lat="44.41088" lon="5.24134">
        <ele>594</ele>
        <time>2022-09-29T12:48:35Z</time>
      </trkpt>
      <trkpt lat="44.41089" lon="5.24135">
        <ele>594</ele>
        <time>2022-09-29T12:48:36Z</time>
      </trkpt>
      <trkpt lat="44.4109" lon="5.24135">
        <ele>594</ele>
        <time>2022-09-29T12:48:37Z</time>
      </trkpt>
      <trkpt lat="44.41091" lon="5.24135">
        <ele>594</ele>
        <time>2022-09-29T12:48:38Z</time>
      </trkpt>
      <trkpt lat="44.41092" lon="5.24135">
        <ele>593</ele>
        <time>2022-09-29T12:48:39Z</time>
      </trkpt>
      <trkpt lat="44.41092" lon="5.24135">
        <ele>593</ele>
        <time>2022-09-29T12:48:40Z</time>
      </trkpt>
      <trkpt lat="44.41093" lon="5.24135">
        <ele>593</ele>
        <time>2022-09-29T12:48:41Z</time>
      </trkpt>
      <trkpt lat="44.41094" lon="5.24135">
        <ele>593</ele>
        <time>2022-09-29T12:48:42Z</time>
      </trkpt>
      <trkpt lat="44.41095" lon="5.24136">
        <ele>593</ele>
        <time>2022-09-29T12:48:43Z</time>
      </trkpt>
      <trkpt lat="44.41095" lon="5.24136">
        <ele>592</ele>
        <time>2022-09-29T12:48:44Z</time>
      </trkpt>
      <trkpt lat="44.41096" lon="5.24136">
        <ele>592</ele>
        <time>2022-09-29T12:48:45Z</time>
      </trkpt>
      <trkpt lat="44.41097" lon="5.24136">
        <ele>592</ele>
        <time>2022-09-29T12:48:46Z</time>
      </trkpt>
      <trkpt lat="44.41097" lon="5.24136">
        <ele>592</ele>
        <time>2022-09-29T12:48:47Z</time>
      </trkpt>
      <trkpt lat="44.41098" lon="5.24136">
        <ele>592</ele>
        <time>2022-09-29T12:48:48Z</time>
      </trkpt>
      <trkpt lat="44.41099" lon="5.24136">
        <ele>591</ele>
        <time>2022-09-29T12:48:49Z</time>
      </trkpt>
      <trkpt lat="44.411" lon="5.24136">
        <ele>591</ele>
        <time>2022-09-29T12:48:50Z</time>
      </trkpt>
      <trkpt lat="44.41101" lon="5.24136">
        <ele>591</ele>
        <time>2022-09-29T12:48:51Z</time>
      </trkpt>
      <trkpt lat="44.41101" lon="5.24137">
        <ele>591</ele>
        <time>2022-09-29T12:48:52Z</time>
      </trkpt>
      <trkpt lat="44.41102" lon="5.24137">
        <ele>591</ele>
        <time>2022-09-29T12:48:53Z</time>
      </trkpt>
      <trkpt lat="44.41103" lon="5.24137">
        <ele>590</ele>
        <time>2022-09-29T12:48:54Z</time>
      </trkpt>
      <trkpt lat="44.41103" lon="5.24136">
        <ele>590</ele>
        <time>2022-09-29T12:48:55Z</time>
      </trkpt>
      <trkpt lat="44.41104" lon="5.24136">
        <ele>590</ele>
        <time>2022-09-29T12:48:56Z</time>
      </trkpt>
      <trkpt lat="44.41105" lon="5.24136">
        <ele>590</ele>
        <time>2022-09-29T12:48:57Z</time>
      </trkpt>
      <trkpt lat="44.41105" lon="5.24136">
        <ele>590</ele>
        <time>2022-09-29T12:48:58Z</time>
      </trkpt>
      <trkpt lat="44.41106" lon="5.24136">
        <ele>589</ele>
        <time>2022-09-29T12:48:59Z</time>
      </trkpt>
      <trkpt lat="44.41107" lon="5.24136">
        <ele>589</ele>
        <time>2022-09-29T12:49:00Z</time>
      </trkpt>
      <trkpt lat="44.41107" lon="5.24136">
        <ele>589</ele>
        <time>2022-09-29T12:49:01Z</time>
      </trkpt>
      <trkpt lat="44.41108" lon="5.24136">
        <ele>589</ele>
        <time>2022-09-29T12:49:02Z</time>
      </trkpt>
      <trkpt lat="44.41109" lon="5.24137">
        <ele>589</ele>
        <time>2022-09-29T12:49:03Z</time>
      </trkpt>
      <trkpt lat="44.4111" lon="5.24137">
        <ele>588</ele>
        <time>2022-09-29T12:49:04Z</time>
      </trkpt>
      <trkpt lat="44.4111" lon="5.24138">
        <ele>588</ele>
        <time>2022-09-29T12:49:05Z</time>
      </trkpt>
      <trkpt lat="44.41111" lon="5.24138">
        <ele>588</ele>
        <time>2022-09-29T12:49:06Z</time>
      </trkpt>
      <trkpt lat="44.41112" lon="5.24139">
        <ele>588</ele>
        <time>2022-09-29T12:49:07Z</time>
      </trkpt>
      <trkpt lat="44.41113" lon="5.24139">
        <ele>588</ele>
        <time>2022-09-29T12:49:08Z</time>
      </trkpt>
      <trkpt lat="44.41113" lon="5.2414">
        <ele>587</ele>
        <time>2022-09-29T12:49:09Z</time>
      </trkpt>
      <trkpt lat="44.41114" lon="5.2414">
        <ele>587</ele>
        <time>2022-09-29T12:49:10Z</time>
      </trkpt>
      <trkpt lat="44.41115" lon="5.24141">
        <ele>587</ele>
        <time>2022-09-29T12:49:11Z</time>
      </trkpt>
      <trkpt lat="44.41116" lon="5.24141">
        <ele>587</ele>
        <time>2022-09-29T12:49:12Z</time>
      </trkpt>
      <trkpt lat="44.41117" lon="5.24142">
        <ele>587</ele>
        <time>2022-09-29T12:49:13Z</time>
      </trkpt>
      <trkpt lat="44.41118" lon="5.24142">
        <ele>586</ele>
        <time>2022-09-29T12:49:14Z</time>
      </trkpt>
      <trkpt lat="44.41119" lon="5.24142">
        <ele>586</ele>
        <time>2022-09-29T12:49:15Z</time>
      </trkpt>
      <trkpt lat="44.41119" lon="5.24143">
        <ele>586</ele>
        <time>2022-09-29T12:49:16Z</time>
      </trkpt>
      <trkpt lat="44.4112" lon="5.24143">
        <ele>586</ele>
        <time>2022-09-29T12:49:17Z</time>
      </trkpt>
      <trkpt lat="44.41121" lon="5.24143">
        <ele>586</ele>
        <time>2022-09-29T12:49:18Z</time>
      </trkpt>
      <trkpt lat="44.41122" lon="5.24143">
        <ele>585</ele>
        <time>2022-09-29T12:49:19Z</time>
      </trkpt>
      <trkpt lat="44.41123" lon="5.24143">
        <ele>585</ele>
        <time>2022-09-29T12:49:20Z</time>
      </trkpt>
      <trkpt lat="44.41123" lon="5.24142">
        <ele>585</ele>
        <time>2022-09-29T12:49:21Z</time>
      </trkpt>
      <trkpt lat="44.41124" lon="5.24142">
        <ele>585</ele>
        <time>2022-09-29T12:49:22Z</time>
      </trkpt>
      <trkpt lat="44.41125" lon="5.24142">
        <ele>585</ele>
        <time>2022-09-29T12:49:23Z</time>
      </trkpt>
      <trkpt lat="44.41125" lon="5.24141">
        <ele>584</ele>
        <time>2022-09-29T12:49:24Z</time>
      </trkpt>
      <trkpt lat="44.41126" lon="5.24141">
        <ele>584</ele>
        <time>2022-09-29T12:49:25Z</time>
      </trkpt>
      <trkpt lat="44.41126" lon="5.2414">
        <ele>584</ele>
        <time>2022-09-29T12:49:26Z</time>
      </trkpt>
      <trkpt lat="44.41127" lon="5.24139">
        <ele>584</ele>
        <time>2022-09-29T12:49:27Z</time>
      </trkpt>
      <trkpt lat="44.41127" lon="5.24139">
        <ele>584</ele>
        <time>2022-09-29T12:49:28Z</time>
      </trkpt>
      <trkpt lat="44.41128" lon="5.24138">
        <ele>583</ele>
        <time>2022-09-29T12:49:29Z</time>
      </trkpt>
      <trkpt lat="44.41128" lon="5.24137">
        <ele>583</ele>
        <time>2022-09-29T12:49:30Z</time>
      </trkpt>
      <trkpt lat="44.41128" lon="5.24137">
        <ele>583</ele>
        <time>2022-09-29T12:49:31Z</time>
      </trkpt>
      <trkpt lat="44.41129" lon="5.24136">
        <ele>583</ele>
        <time>2022-09-29T12:49:32Z</time>
      </trkpt>
      <trkpt lat="44.41129" lon="5.24135">
        <ele>583</ele>
        <time>2022-09-29T12:49:33Z</time>
      </trkpt>
      <trkpt lat="44.41129" lon="5.24135">
        <ele>582</ele>
        <time>2022-09-29T12:49:34Z</time>
      </trkpt>
      <trkpt lat="44.4113" lon="5.24134">
        <ele>582</ele>
        <time>2022-09-29T12:49:35Z</time>
      </trkpt>
      <trkpt lat="44.4113" lon="5.24133">
        <ele>582</ele>
        <time>2022-09-29T12:49:36Z</time>
      </trkpt>
      <trkpt lat="44.4113" lon="5.24133">
        <ele>582</ele>
        <time>2022-09-29T12:49:37Z</time>
      </trkpt>
      <trkpt lat="44.41131" lon="5.24132">
        <ele>582</ele>
        <time>2022-09-29T12:49:38Z</time>
      </trkpt>
      <trkpt lat="44.41131" lon="5.24131">
        <ele>581</ele>
        <time>2022-09-29T12:49:39Z</time>
      </trkpt>
      <trkpt lat="44.41131" lon="5.2413">
        <ele>581</ele>
        <time>2022-09-29T12:49:40Z</time>
      </trkpt>
      <trkpt lat="44.41132" lon="5.24129">
        <ele>581</ele>
        <time>2022-09-29T12:49:41Z</time>
      </trkpt>
      <trkpt lat="44.41132" lon="5.24128">
        <ele>581</ele>
        <time>2022-09-29T12:49:42Z</time>
      </trkpt>
      <trkpt lat="44.41133" lon="5.24127">
        <ele>581</ele>
        <time>2022-09-29T12:49:43Z</time>
      </trkpt>
      <trkpt lat="44.41134" lon="5.24126">
        <ele>580</ele>
        <time>2022-09-29T12:49:44Z</time>
      </trkpt>
      <trkpt lat="44.41134" lon="5.24125">
        <ele>580</ele>
        <time>2022-09-29T12:49:45Z</time>
      </trkpt>
      <trkpt lat="44.41135" lon="5.24125">
        <ele>580</ele>
        <time>2022-09-29T12:49:46Z</time>
      </trkpt>
      <trkpt lat="44.41136" lon="5.24124">
        <ele>580</ele>
        <time>2022-09-29T12:49:47Z</time>
      </trkpt>
      <trkpt lat="44.41136" lon="5.24123">
        <ele>580</ele>
        <time>2022-09-29T12:49:48Z</time>
      </trkpt>
      <trkpt lat="44.41137" lon="5.24123">
        <ele>579</ele>
        <time>2022-09-29T12:49:49Z</time>
      </trkpt>
      <trkpt lat="44.41137" lon="5.24122">
        <ele>579</ele>
        <time>2022-09-29T12:49:50Z</time>
      </trkpt>
      <trkpt lat="44.41138" lon="5.24121">
        <ele>579</ele>
        <time>2022-09-29T12:49:51Z</time>
      </trkpt>
      <trkpt lat="44.41139" lon="5.24119">
        <ele>577</ele>
        <time>2022-09-29T12:50:00Z</time>
      </trkpt>
      <trkpt lat="44.4114" lon="5.24118">
        <ele>577</ele>
        <time>2022-09-29T12:50:01Z</time>
      </trkpt>
      <trkpt lat="44.41141" lon="5.24117">
        <ele>577</ele>
        <time>2022-09-29T12:50:02Z</time>
      </trkpt>
      <trkpt lat="44.41141" lon="5.24117">
        <ele>577</ele>
        <time>2022-09-29T12:50:03Z</time>
      </trkpt>
      <trkpt lat="44.41142" lon="5.24116">
        <ele>576</ele>
        <time>2022-09-29T12:50:04Z</time>
      </trkpt>
      <trkpt lat="44.41143" lon="5.24115">
        <ele>574</ele>
        <time>2022-09-29T12:50:14Z</time>
      </trkpt>
      <trkpt lat="44.41144" lon="5.24113">
        <ele>574</ele>
        <time>2022-09-29T12:50:15Z</time>
      </trkpt>
      <trkpt lat="44.41145" lon="5.24112">
        <ele>574</ele>
        <time>2022-09-29T12:50:16Z</time>
      </trkpt>
      <trkpt lat="44.41145" lon="5.24111">
        <ele>574</ele>
        <time>2022-09-29T12:50:17Z</time>
      </trkpt>
      <trkpt lat="44.41146" lon="5.2411">
        <ele>574</ele>
        <time>2022-09-29T12:50:18Z</time>
      </trkpt>
      <trkpt lat="44.41146" lon="5.2411">
        <ele>574</ele>
        <time>2022-09-29T12:50:19Z</time>
      </trkpt>
      <trkpt lat="44.41146" lon="5.24109">
        <ele>574</ele>
        <time>2022-09-29T12:50:20Z</time>
      </trkpt>
      <trkpt lat="44.41146" lon="5.24109">
        <ele>574</ele>
        <time>2022-09-29T12:50:21Z</time>
      </trkpt>
      <trkpt lat="44.41147" lon="5.24108">
        <ele>574</ele>
        <time>2022-09-29T12:50:22Z</time>
      </trkpt>
      <trkpt lat="44.41147" lon="5.24108">
        <ele>574</ele>
        <time>2022-09-29T12:50:23Z</time>
      </trkpt>
      <trkpt lat="44.41147" lon="5.24107">
        <ele>573</ele>
        <time>2022-09-29T12:50:24Z</time>
      </trkpt>
      <trkpt lat="44.41147" lon="5.24107">
        <ele>573</ele>
        <time>2022-09-29T12:50:25Z</time>
      </trkpt>
      <trkpt lat="44.41148" lon="5.24106">
        <ele>573</ele>
        <time>2022-09-29T12:50:26Z</time>
      </trkpt>
      <trkpt lat="44.41148" lon="5.24106">
        <ele>573</ele>
        <time>2022-09-29T12:50:27Z</time>
      </trkpt>
      <trkpt lat="44.41148" lon="5.24105">
        <ele>573</ele>
        <time>2022-09-29T12:50:28Z</time>
      </trkpt>
      <trkpt lat="44.41149" lon="5.24105">
        <ele>572</ele>
        <time>2022-09-29T12:50:29Z</time>
      </trkpt>
      <trkpt lat="44.41149" lon="5.24105">
        <ele>572</ele>
        <time>2022-09-29T12:50:30Z</time>
      </trkpt>
      <trkpt lat="44.41149" lon="5.24104">
        <ele>572</ele>
        <time>2022-09-29T12:50:31Z</time>
      </trkpt>
      <trkpt lat="44.4115" lon="5.24104">
        <ele>572</ele>
        <time>2022-09-29T12:50:32Z</time>
      </trkpt>
      <trkpt lat="44.41152" lon="5.24104">
        <ele>571</ele>
        <time>2022-09-29T12:50:38Z</time>
      </trkpt>
      <trkpt lat="44.41153" lon="5.24104">
        <ele>570</ele>
        <time>2022-09-29T12:50:39Z</time>
      </trkpt>
      <trkpt lat="44.41153" lon="5.24105">
        <ele>570</ele>
        <time>2022-09-29T12:50:40Z</time>
      </trkpt>
      <trkpt lat="44.41154" lon="5.24104">
        <ele>570</ele>
        <time>2022-09-29T12:50:41Z</time>
      </trkpt>
      <trkpt lat="44.41155" lon="5.24104">
        <ele>570</ele>
        <time>2022-09-29T12:50:42Z</time>
      </trkpt>
      <trkpt lat="44.41156" lon="5.24104">
        <ele>570</ele>
        <time>2022-09-29T12:50:43Z</time>
      </trkpt>
      <trkpt lat="44.41156" lon="5.24104">
        <ele>569</ele>
        <time>2022-09-29T12:50:44Z</time>
      </trkpt>
      <trkpt lat="44.41157" lon="5.24104">
        <ele>569</ele>
        <time>2022-09-29T12:50:45Z</time>
      </trkpt>
      <trkpt lat="44.41158" lon="5.24104">
        <ele>569</ele>
        <time>2022-09-29T12:50:46Z</time>
      </trkpt>
      <trkpt lat="44.41158" lon="5.24103">
        <ele>569</ele>
        <time>2022-09-29T12:50:47Z</time>
      </trkpt>
      <trkpt lat="44.41159" lon="5.24103">
        <ele>569</ele>
        <time>2022-09-29T12:50:48Z</time>
      </trkpt>
      <trkpt lat="44.4116" lon="5.24102">
        <ele>568</ele>
        <time>2022-09-29T12:50:49Z</time>
      </trkpt>
      <trkpt lat="44.4116" lon="5.24102">
        <ele>568</ele>
        <time>2022-09-29T12:50:50Z</time>
      </trkpt>
      <trkpt lat="44.41161" lon="5.24102">
        <ele>568</ele>
        <time>2022-09-29T12:50:51Z</time>
      </trkpt>
      <trkpt lat="44.41161" lon="5.24101">
        <ele>568</ele>
        <time>2022-09-29T12:50:52Z</time>
      </trkpt>
      <trkpt lat="44.41162" lon="5.24101">
        <ele>568</ele>
        <time>2022-09-29T12:50:53Z</time>
      </trkpt>
      <trkpt lat="44.41162" lon="5.241">
        <ele>567</ele>
        <time>2022-09-29T12:50:54Z</time>
      </trkpt>
      <trkpt lat="44.41162" lon="5.241">
        <ele>567</ele>
        <time>2022-09-29T12:50:55Z</time>
      </trkpt>
      <trkpt lat="44.41162" lon="5.24099">
        <ele>567</ele>
        <time>2022-09-29T12:50:56Z</time>
      </trkpt>
      <trkpt lat="44.41163" lon="5.24098">
        <ele>567</ele>
        <time>2022-09-29T12:50:57Z</time>
      </trkpt>
      <trkpt lat="44.41163" lon="5.24098">
        <ele>567</ele>
        <time>2022-09-29T12:50:58Z</time>
      </trkpt>
      <trkpt lat="44.41163" lon="5.24097">
        <ele>566</ele>
        <time>2022-09-29T12:50:59Z</time>
      </trkpt>
      <trkpt lat="44.41163" lon="5.24096">
        <ele>566</ele>
        <time>2022-09-29T12:51:00Z</time>
      </trkpt>
      <trkpt lat="44.41164" lon="5.24096">
        <ele>566</ele>
        <time>2022-09-29T12:51:01Z</time>
      </trkpt>
      <trkpt lat="44.41164" lon="5.24095">
        <ele>566</ele>
        <time>2022-09-29T12:51:02Z</time>
      </trkpt>
      <trkpt lat="44.41164" lon="5.24094">
        <ele>566</ele>
        <time>2022-09-29T12:51:03Z</time>
      </trkpt>
      <trkpt lat="44.41165" lon="5.24094">
        <ele>565</ele>
        <time>2022-09-29T12:51:04Z</time>
      </trkpt>
      <trkpt lat="44.41165" lon="5.24093">
        <ele>565</ele>
        <time>2022-09-29T12:51:05Z</time>
      </trkpt>
      <trkpt lat="44.41165" lon="5.24093">
        <ele>565</ele>
        <time>2022-09-29T12:51:06Z</time>
      </trkpt>
      <trkpt lat="44.41165" lon="5.24092">
        <ele>565</ele>
        <time>2022-09-29T12:51:07Z</time>
      </trkpt>
      <trkpt lat="44.41166" lon="5.24091">
        <ele>565</ele>
        <time>2022-09-29T12:51:08Z</time>
      </trkpt>
      <trkpt lat="44.41166" lon="5.2409">
        <ele>564</ele>
        <time>2022-09-29T12:51:09Z</time>
      </trkpt>
      <trkpt lat="44.41166" lon="5.24089">
        <ele>564</ele>
        <time>2022-09-29T12:51:10Z</time>
      </trkpt>
      <trkpt lat="44.41167" lon="5.24088">
        <ele>564</ele>
        <time>2022-09-29T12:51:11Z</time>
      </trkpt>
      <trkpt lat="44.41167" lon="5.24088">
        <ele>564</ele>
        <time>2022-09-29T12:51:12Z</time>
      </trkpt>
      <trkpt lat="44.41168" lon="5.24087">
        <ele>564</ele>
        <time>2022-09-29T12:51:13Z</time>
      </trkpt>
      <trkpt lat="44.41168" lon="5.24086">
        <ele>563</ele>
        <time>2022-09-29T12:51:14Z</time>
      </trkpt>
      <trkpt lat="44.41169" lon="5.24085">
        <ele>563</ele>
        <time>2022-09-29T12:51:15Z</time>
      </trkpt>
      <trkpt lat="44.4117" lon="5.24084">
        <ele>562</ele>
        <time>2022-09-29T12:51:16Z</time>
      </trkpt>
      <trkpt lat="44.4117" lon="5.24084">
        <ele>562</ele>
        <time>2022-09-29T12:51:17Z</time>
      </trkpt>
      <trkpt lat="44.41171" lon="5.24083">
        <ele>562</ele>
        <time>2022-09-29T12:51:18Z</time>
      </trkpt>
      <trkpt lat="44.41171" lon="5.24082">
        <ele>561</ele>
        <time>2022-09-29T12:51:19Z</time>
      </trkpt>
      <trkpt lat="44.41171" lon="5.24082">
        <ele>561</ele>
        <time>2022-09-29T12:51:20Z</time>
      </trkpt>
      <trkpt lat="44.41172" lon="5.24082">
        <ele>561</ele>
        <time>2022-09-29T12:51:21Z</time>
      </trkpt>
      <trkpt lat="44.41172" lon="5.24081">
        <ele>561</ele>
        <time>2022-09-29T12:51:22Z</time>
      </trkpt>
      <trkpt lat="44.41173" lon="5.24081">
        <ele>561</ele>
        <time>2022-09-29T12:51:23Z</time>
      </trkpt>
      <trkpt lat="44.41174" lon="5.2408">
        <ele>560</ele>
        <time>2022-09-29T12:51:24Z</time>
      </trkpt>
      <trkpt lat="44.41175" lon="5.2408">
        <ele>560</ele>
        <time>2022-09-29T12:51:25Z</time>
      </trkpt>
      <trkpt lat="44.41175" lon="5.24079">
        <ele>560</ele>
        <time>2022-09-29T12:51:26Z</time>
      </trkpt>
      <trkpt lat="44.41176" lon="5.24078">
        <ele>560</ele>
        <time>2022-09-29T12:51:27Z</time>
      </trkpt>
      <trkpt lat="44.41176" lon="5.24077">
        <ele>560</ele>
        <time>2022-09-29T12:51:28Z</time>
      </trkpt>
      <trkpt lat="44.41177" lon="5.24076">
        <ele>559</ele>
        <time>2022-09-29T12:51:29Z</time>
      </trkpt>
      <trkpt lat="44.41178" lon="5.24076">
        <ele>559</ele>
        <time>2022-09-29T12:51:30Z</time>
      </trkpt>
      <trkpt lat="44.41178" lon="5.24075">
        <ele>559</ele>
        <time>2022-09-29T12:51:31Z</time>
      </trkpt>
      <trkpt lat="44.41179" lon="5.24074">
        <ele>559</ele>
        <time>2022-09-29T12:51:32Z</time>
      </trkpt>
      <trkpt lat="44.41179" lon="5.24073">
        <ele>559</ele>
        <time>2022-09-29T12:51:33Z</time>
      </trkpt>
      <trkpt lat="44.4118" lon="5.24073">
        <ele>558</ele>
        <time>2022-09-29T12:51:34Z</time>
      </trkpt>
      <trkpt lat="44.41181" lon="5.24072">
        <ele>558</ele>
        <time>2022-09-29T12:51:35Z</time>
      </trkpt>
      <trkpt lat="44.41181" lon="5.24071">
        <ele>558</ele>
        <time>2022-09-29T12:51:36Z</time>
      </trkpt>
      <trkpt lat="44.41182" lon="5.2407">
        <ele>558</ele>
        <time>2022-09-29T12:51:37Z</time>
      </trkpt>
      <trkpt lat="44.41182" lon="5.24069">
        <ele>558</ele>
        <time>2022-09-29T12:51:38Z</time>
      </trkpt>
      <trkpt lat="44.41183" lon="5.24069">
        <ele>557</ele>
        <time>2022-09-29T12:51:39Z</time>
      </trkpt>
      <trkpt lat="44.41183" lon="5.24068">
        <ele>557</ele>
        <time>2022-09-29T12:51:40Z</time>
      </trkpt>
      <trkpt lat="44.41183" lon="5.24067">
        <ele>556</ele>
        <time>2022-09-29T12:51:41Z</time>
      </trkpt>
      <trkpt lat="44.41183" lon="5.24066">
        <ele>556</ele>
        <time>2022-09-29T12:51:42Z</time>
      </trkpt>
      <trkpt lat="44.41183" lon="5.24066">
        <ele>556</ele>
        <time>2022-09-29T12:51:43Z</time>
      </trkpt>
      <trkpt lat="44.41184" lon="5.24065">
        <ele>555</ele>
        <time>2022-09-29T12:51:44Z</time>
      </trkpt>
      <trkpt lat="44.41184" lon="5.24064">
        <ele>555</ele>
        <time>2022-09-29T12:51:45Z</time>
      </trkpt>
      <trkpt lat="44.41184" lon="5.24063">
        <ele>555</ele>
        <time>2022-09-29T12:51:46Z</time>
      </trkpt>
      <trkpt lat="44.41184" lon="5.24062">
        <ele>555</ele>
        <time>2022-09-29T12:51:47Z</time>
      </trkpt>
      <trkpt lat="44.41185" lon="5.24061">
        <ele>555</ele>
        <time>2022-09-29T12:51:48Z</time>
      </trkpt>
      <trkpt lat="44.41185" lon="5.24059">
        <ele>554</ele>
        <time>2022-09-29T12:51:49Z</time>
      </trkpt>
      <trkpt lat="44.41185" lon="5.24058">
        <ele>554</ele>
        <time>2022-09-29T12:51:50Z</time>
      </trkpt>
      <trkpt lat="44.41186" lon="5.24057">
        <ele>554</ele>
        <time>2022-09-29T12:51:51Z</time>
      </trkpt>
      <trkpt lat="44.41186" lon="5.24055">
        <ele>554</ele>
        <time>2022-09-29T12:51:52Z</time>
      </trkpt>
      <trkpt lat="44.41186" lon="5.24054">
        <ele>554</ele>
        <time>2022-09-29T12:51:53Z</time>
      </trkpt>
      <trkpt lat="44.41186" lon="5.24053">
        <ele>553</ele>
        <time>2022-09-29T12:51:54Z</time>
      </trkpt>
      <trkpt lat="44.41186" lon="5.24052">
        <ele>553</ele>
        <time>2022-09-29T12:51:55Z</time>
      </trkpt>
      <trkpt lat="44.41187" lon="5.24051">
        <ele>553</ele>
        <time>2022-09-29T12:51:56Z</time>
      </trkpt>
      <trkpt lat="44.41187" lon="5.24049">
        <ele>553</ele>
        <time>2022-09-29T12:51:57Z</time>
      </trkpt>
      <trkpt lat="44.41187" lon="5.24049">
        <ele>553</ele>
        <time>2022-09-29T12:51:58Z</time>
      </trkpt>
      <trkpt lat="44.41188" lon="5.24048">
        <ele>552</ele>
        <time>2022-09-29T12:51:59Z</time>
      </trkpt>
      <trkpt lat="44.41188" lon="5.24047">
        <ele>551</ele>
        <time>2022-09-29T12:52:00Z</time>
      </trkpt>
      <trkpt lat="44.41188" lon="5.24047">
        <ele>551</ele>
        <time>2022-09-29T12:52:01Z</time>
      </trkpt>
      <trkpt lat="44.41189" lon="5.24046">
        <ele>550</ele>
        <time>2022-09-29T12:52:02Z</time>
      </trkpt>
      <trkpt lat="44.4119" lon="5.24045">
        <ele>550</ele>
        <time>2022-09-29T12:52:03Z</time>
      </trkpt>
      <trkpt lat="44.4119" lon="5.24043">
        <ele>549</ele>
        <time>2022-09-29T12:52:04Z</time>
      </trkpt>
      <trkpt lat="44.41191" lon="5.24042">
        <ele>549</ele>
        <time>2022-09-29T12:52:05Z</time>
      </trkpt>
      <trkpt lat="44.41192" lon="5.24041">
        <ele>549</ele>
        <time>2022-09-29T12:52:06Z</time>
      </trkpt>
      <trkpt lat="44.41192" lon="5.2404">
        <ele>549</ele>
        <time>2022-09-29T12:52:07Z</time>
      </trkpt>
      <trkpt lat="44.41193" lon="5.24039">
        <ele>549</ele>
        <time>2022-09-29T12:52:08Z</time>
      </trkpt>
      <trkpt lat="44.41193" lon="5.24038">
        <ele>548</ele>
        <time>2022-09-29T12:52:09Z</time>
      </trkpt>
      <trkpt lat="44.41194" lon="5.24037">
        <ele>548</ele>
        <time>2022-09-29T12:52:10Z</time>
      </trkpt>
      <trkpt lat="44.41194" lon="5.24036">
        <ele>548</ele>
        <time>2022-09-29T12:52:11Z</time>
      </trkpt>
      <trkpt lat="44.41195" lon="5.24036">
        <ele>548</ele>
        <time>2022-09-29T12:52:12Z</time>
      </trkpt>
      <trkpt lat="44.41195" lon="5.24035">
        <ele>548</ele>
        <time>2022-09-29T12:52:13Z</time>
      </trkpt>
      <trkpt lat="44.41196" lon="5.24034">
        <ele>547</ele>
        <time>2022-09-29T12:52:14Z</time>
      </trkpt>
      <trkpt lat="44.41196" lon="5.24034">
        <ele>547</ele>
        <time>2022-09-29T12:52:15Z</time>
      </trkpt>
      <trkpt lat="44.41196" lon="5.24033">
        <ele>547</ele>
        <time>2022-09-29T12:52:16Z</time>
      </trkpt>
      <trkpt lat="44.41196" lon="5.24032">
        <ele>547</ele>
        <time>2022-09-29T12:52:17Z</time>
      </trkpt>
      <trkpt lat="44.41197" lon="5.24031">
        <ele>547</ele>
        <time>2022-09-29T12:52:18Z</time>
      </trkpt>
      <trkpt lat="44.41197" lon="5.2403">
        <ele>546</ele>
        <time>2022-09-29T12:52:19Z</time>
      </trkpt>
      <trkpt lat="44.41197" lon="5.24029">
        <ele>546</ele>
        <time>2022-09-29T12:52:20Z</time>
      </trkpt>
      <trkpt lat="44.41198" lon="5.24028">
        <ele>545</ele>
        <time>2022-09-29T12:52:21Z</time>
      </trkpt>
      <trkpt lat="44.41198" lon="5.24027">
        <ele>545</ele>
        <time>2022-09-29T12:52:22Z</time>
      </trkpt>
      <trkpt lat="44.41199" lon="5.24026">
        <ele>545</ele>
        <time>2022-09-29T12:52:23Z</time>
      </trkpt>
      <trkpt lat="44.41199" lon="5.24026">
        <ele>544</ele>
        <time>2022-09-29T12:52:24Z</time>
      </trkpt>
      <trkpt lat="44.412" lon="5.24025">
        <ele>544</ele>
        <time>2022-09-29T12:52:25Z</time>
      </trkpt>
      <trkpt lat="44.412" lon="5.24024">
        <ele>544</ele>
        <time>2022-09-29T12:52:26Z</time>
      </trkpt>
      <trkpt lat="44.412" lon="5.24023">
        <ele>544</ele>
        <time>2022-09-29T12:52:27Z</time>
      </trkpt>
      <trkpt lat="44.41201" lon="5.24022">
        <ele>544</ele>
        <time>2022-09-29T12:52:28Z</time>
      </trkpt>
      <trkpt lat="44.41201" lon="5.24022">
        <ele>543</ele>
        <time>2022-09-29T12:52:29Z</time>
      </trkpt>
      <trkpt lat="44.41201" lon="5.24021">
        <ele>543</ele>
        <time>2022-09-29T12:52:30Z</time>
      </trkpt>
      <trkpt lat="44.41201" lon="5.24021">
        <ele>543</ele>
        <time>2022-09-29T12:52:31Z</time>
      </trkpt>
      <trkpt lat="44.41201" lon="5.24021">
        <ele>543</ele>
        <time>2022-09-29T12:52:32Z</time>
      </trkpt>
      <trkpt lat="44.41201" lon="5.2402">
        <ele>543</ele>
        <time>2022-09-29T12:52:33Z</time>
      </trkpt>
      <trkpt lat="44.41201" lon="5.24019">
        <ele>542</ele>
        <time>2022-09-29T12:52:34Z</time>
      </trkpt>
      <trkpt lat="44.41201" lon="5.24018">
        <ele>542</ele>
        <time>2022-09-29T12:52:35Z</time>
      </trkpt>
      <trkpt lat="44.41201" lon="5.24017">
        <ele>541</ele>
        <time>2022-09-29T12:52:36Z</time>
      </trkpt>
      <trkpt lat="44.41201" lon="5.24016">
        <ele>541</ele>
        <time>2022-09-29T12:52:37Z</time>
      </trkpt>
      <trkpt lat="44.41202" lon="5.24015">
        <ele>541</ele>
        <time>2022-09-29T12:52:38Z</time>
      </trkpt>
      <trkpt lat="44.41202" lon="5.24014">
        <ele>540</ele>
        <time>2022-09-29T12:52:39Z</time>
      </trkpt>
      <trkpt lat="44.41202" lon="5.24013">
        <ele>540</ele>
        <time>2022-09-29T12:52:40Z</time>
      </trkpt>
      <trkpt lat="44.41202" lon="5.24012">
        <ele>540</ele>
        <time>2022-09-29T12:52:41Z</time>
      </trkpt>
      <trkpt lat="44.41202" lon="5.24011">
        <ele>540</ele>
        <time>2022-09-29T12:52:42Z</time>
      </trkpt>
      <trkpt lat="44.41202" lon="5.24011">
        <ele>540</ele>
        <time>2022-09-29T12:52:43Z</time>
      </trkpt>
      <trkpt lat="44.41201" lon="5.2401">
        <ele>539</ele>
        <time>2022-09-29T12:52:44Z</time>
      </trkpt>
      <trkpt lat="44.41201" lon="5.24009">
        <ele>539</ele>
        <time>2022-09-29T12:52:45Z</time>
      </trkpt>
      <trkpt lat="44.41201" lon="5.24008">
        <ele>539</ele>
        <time>2022-09-29T12:52:46Z</time>
      </trkpt>
      <trkpt lat="44.41201" lon="5.24007">
        <ele>539</ele>
        <time>2022-09-29T12:52:47Z</time>
      </trkpt>
      <trkpt lat="44.41201" lon="5.24006">
        <ele>539</ele>
        <time>2022-09-29T12:52:48Z</time>
      </trkpt>
      <trkpt lat="44.41201" lon="5.24005">
        <ele>538</ele>
        <time>2022-09-29T12:52:49Z</time>
      </trkpt>
      <trkpt lat="44.41201" lon="5.24004">
        <ele>538</ele>
        <time>2022-09-29T12:52:50Z</time>
      </trkpt>
      <trkpt lat="44.41202" lon="5.24003">
        <ele>538</ele>
        <time>2022-09-29T12:52:51Z</time>
      </trkpt>
      <trkpt lat="44.41202" lon="5.24002">
        <ele>538</ele>
        <time>2022-09-29T12:52:52Z</time>
      </trkpt>
      <trkpt lat="44.41202" lon="5.24">
        <ele>538</ele>
        <time>2022-09-29T12:52:53Z</time>
      </trkpt>
      <trkpt lat="44.41202" lon="5.23999">
        <ele>537</ele>
        <time>2022-09-29T12:52:54Z</time>
      </trkpt>
      <trkpt lat="44.41202" lon="5.23998">
        <ele>537</ele>
        <time>2022-09-29T12:52:55Z</time>
      </trkpt>
      <trkpt lat="44.41202" lon="5.23997">
        <ele>537</ele>
        <time>2022-09-29T12:52:56Z</time>
      </trkpt>
      <trkpt lat="44.41203" lon="5.23996">
        <ele>537</ele>
        <time>2022-09-29T12:52:57Z</time>
      </trkpt>
      <trkpt lat="44.41203" lon="5.23995">
        <ele>537</ele>
        <time>2022-09-29T12:52:58Z</time>
      </trkpt>
      <trkpt lat="44.41203" lon="5.23994">
        <ele>536</ele>
        <time>2022-09-29T12:52:59Z</time>
      </trkpt>
      <trkpt lat="44.41203" lon="5.23993">
        <ele>536</ele>
        <time>2022-09-29T12:53:00Z</time>
      </trkpt>
      <trkpt lat="44.41203" lon="5.23992">
        <ele>536</ele>
        <time>2022-09-29T12:53:01Z</time>
      </trkpt>
      <trkpt lat="44.41203" lon="5.23992">
        <ele>536</ele>
        <time>2022-09-29T12:53:02Z</time>
      </trkpt>
      <trkpt lat="44.41203" lon="5.23991">
        <ele>536</ele>
        <time>2022-09-29T12:53:03Z</time>
      </trkpt>
      <trkpt lat="44.41203" lon="5.2399">
        <ele>535</ele>
        <time>2022-09-29T12:53:04Z</time>
      </trkpt>
      <trkpt lat="44.41203" lon="5.23989">
        <ele>535</ele>
        <time>2022-09-29T12:53:05Z</time>
      </trkpt>
      <trkpt lat="44.41204" lon="5.23988">
        <ele>535</ele>
        <time>2022-09-29T12:53:06Z</time>
      </trkpt>
      <trkpt lat="44.41204" lon="5.23988">
        <ele>535</ele>
        <time>2022-09-29T12:53:07Z</time>
      </trkpt>
      <trkpt lat="44.41204" lon="5.23987">
        <ele>535</ele>
        <time>2022-09-29T12:53:08Z</time>
      </trkpt>
      <trkpt lat="44.41204" lon="5.23986">
        <ele>534</ele>
        <time>2022-09-29T12:53:09Z</time>
      </trkpt>
      <trkpt lat="44.41204" lon="5.23985">
        <ele>534</ele>
        <time>2022-09-29T12:53:10Z</time>
      </trkpt>
      <trkpt lat="44.41204" lon="5.23984">
        <ele>534</ele>
        <time>2022-09-29T12:53:11Z</time>
      </trkpt>
      <trkpt lat="44.41204" lon="5.23982">
        <ele>534</ele>
        <time>2022-09-29T12:53:12Z</time>
      </trkpt>
      <trkpt lat="44.41204" lon="5.23981">
        <ele>534</ele>
        <time>2022-09-29T12:53:13Z</time>
      </trkpt>
      <trkpt lat="44.41203" lon="5.2398">
        <ele>533</ele>
        <time>2022-09-29T12:53:14Z</time>
      </trkpt>
      <trkpt lat="44.41203" lon="5.23979">
        <ele>533</ele>
        <time>2022-09-29T12:53:15Z</time>
      </trkpt>
      <trkpt lat="44.41203" lon="5.23978">
        <ele>533</ele>
        <time>2022-09-29T12:53:16Z</time>
      </trkpt>
      <trkpt lat="44.41203" lon="5.23977">
        <ele>533</ele>
        <time>2022-09-29T12:53:17Z</time>
      </trkpt>
      <trkpt lat="44.41203" lon="5.23975">
        <ele>533</ele>
        <time>2022-09-29T12:53:18Z</time>
      </trkpt>
      <trkpt lat="44.41203" lon="5.23974">
        <ele>532</ele>
        <time>2022-09-29T12:53:19Z</time>
      </trkpt>
      <trkpt lat="44.41203" lon="5.23973">
        <ele>532</ele>
        <time>2022-09-29T12:53:20Z</time>
      </trkpt>
      <trkpt lat="44.41203" lon="5.23971">
        <ele>532</ele>
        <time>2022-09-29T12:53:21Z</time>
      </trkpt>
      <trkpt lat="44.41203" lon="5.2397">
        <ele>532</ele>
        <time>2022-09-29T12:53:22Z</time>
      </trkpt>
      <trkpt lat="44.41203" lon="5.23969">
        <ele>532</ele>
        <time>2022-09-29T12:53:23Z</time>
      </trkpt>
      <trkpt lat="44.41203" lon="5.23968">
        <ele>531</ele>
        <time>2022-09-29T12:53:24Z</time>
      </trkpt>
      <trkpt lat="44.41203" lon="5.23967">
        <ele>531</ele>
        <time>2022-09-29T12:53:25Z</time>
      </trkpt>
      <trkpt lat="44.41202" lon="5.23965">
        <ele>531</ele>
        <time>2022-09-29T12:53:26Z</time>
      </trkpt>
      <trkpt lat="44.41202" lon="5.23964">
        <ele>531</ele>
        <time>2022-09-29T12:53:27Z</time>
      </trkpt>
      <trkpt lat="44.41202" lon="5.23963">
        <ele>531</ele>
        <time>2022-09-29T12:53:28Z</time>
      </trkpt>
      <trkpt lat="44.41202" lon="5.23962">
        <ele>530</ele>
        <time>2022-09-29T12:53:29Z</time>
      </trkpt>
      <trkpt lat="44.41202" lon="5.2396">
        <ele>530</ele>
        <time>2022-09-29T12:53:30Z</time>
      </trkpt>
      <trkpt lat="44.41201" lon="5.23959">
        <ele>530</ele>
        <time>2022-09-29T12:53:31Z</time>
      </trkpt>
      <trkpt lat="44.41201" lon="5.23958">
        <ele>530</ele>
        <time>2022-09-29T12:53:32Z</time>
      </trkpt>
      <trkpt lat="44.41201" lon="5.23957">
        <ele>530</ele>
        <time>2022-09-29T12:53:33Z</time>
      </trkpt>
      <trkpt lat="44.41201" lon="5.23955">
        <ele>530</ele>
        <time>2022-09-29T12:53:34Z</time>
      </trkpt>
      <trkpt lat="44.41201" lon="5.23954">
        <ele>530</ele>
        <time>2022-09-29T12:53:35Z</time>
      </trkpt>
      <trkpt lat="44.41201" lon="5.23953">
        <ele>530</ele>
        <time>2022-09-29T12:53:36Z</time>
      </trkpt>
      <trkpt lat="44.41201" lon="5.23951">
        <ele>530</ele>
        <time>2022-09-29T12:53:37Z</time>
      </trkpt>
      <trkpt lat="44.41201" lon="5.2395">
        <ele>530</ele>
        <time>2022-09-29T12:53:38Z</time>
      </trkpt>
      <trkpt lat="44.41201" lon="5.23948">
        <ele>529</ele>
        <time>2022-09-29T12:53:39Z</time>
      </trkpt>
      <trkpt lat="44.41201" lon="5.23947">
        <ele>529</ele>
        <time>2022-09-29T12:53:40Z</time>
      </trkpt>
      <trkpt lat="44.41202" lon="5.23946">
        <ele>529</ele>
        <time>2022-09-29T12:53:41Z</time>
      </trkpt>
      <trkpt lat="44.41202" lon="5.23944">
        <ele>529</ele>
        <time>2022-09-29T12:53:42Z</time>
      </trkpt>
      <trkpt lat="44.41202" lon="5.23943">
        <ele>529</ele>
        <time>2022-09-29T12:53:43Z</time>
      </trkpt>
      <trkpt lat="44.41202" lon="5.23943">
        <ele>528</ele>
        <time>2022-09-29T12:53:44Z</time>
      </trkpt>
      <trkpt lat="44.41202" lon="5.23942">
        <ele>528</ele>
        <time>2022-09-29T12:53:45Z</time>
      </trkpt>
      <trkpt lat="44.41203" lon="5.23941">
        <ele>528</ele>
        <time>2022-09-29T12:53:46Z</time>
      </trkpt>
      <trkpt lat="44.41203" lon="5.2394">
        <ele>528</ele>
        <time>2022-09-29T12:53:47Z</time>
      </trkpt>
      <trkpt lat="44.41203" lon="5.23939">
        <ele>528</ele>
        <time>2022-09-29T12:53:48Z</time>
      </trkpt>
      <trkpt lat="44.41203" lon="5.23938">
        <ele>527</ele>
        <time>2022-09-29T12:53:49Z</time>
      </trkpt>
      <trkpt lat="44.41203" lon="5.23937">
        <ele>527</ele>
        <time>2022-09-29T12:53:50Z</time>
      </trkpt>
      <trkpt lat="44.41203" lon="5.23936">
        <ele>526</ele>
        <time>2022-09-29T12:53:51Z</time>
      </trkpt>
      <trkpt lat="44.41203" lon="5.23936">
        <ele>526</ele>
        <time>2022-09-29T12:53:52Z</time>
      </trkpt>
      <trkpt lat="44.41203" lon="5.23935">
        <ele>526</ele>
        <time>2022-09-29T12:53:53Z</time>
      </trkpt>
      <trkpt lat="44.41203" lon="5.23934">
        <ele>525</ele>
        <time>2022-09-29T12:53:54Z</time>
      </trkpt>
      <trkpt lat="44.41203" lon="5.23934">
        <ele>525</ele>
        <time>2022-09-29T12:53:55Z</time>
      </trkpt>
      <trkpt lat="44.41203" lon="5.23933">
        <ele>525</ele>
        <time>2022-09-29T12:53:56Z</time>
      </trkpt>
      <trkpt lat="44.41202" lon="5.23932">
        <ele>525</ele>
        <time>2022-09-29T12:53:57Z</time>
      </trkpt>
      <trkpt lat="44.41202" lon="5.23931">
        <ele>525</ele>
        <time>2022-09-29T12:53:58Z</time>
      </trkpt>
      <trkpt lat="44.41202" lon="5.2393">
        <ele>524</ele>
        <time>2022-09-29T12:53:59Z</time>
      </trkpt>
      <trkpt lat="44.41202" lon="5.23929">
        <ele>524</ele>
        <time>2022-09-29T12:54:00Z</time>
      </trkpt>
      <trkpt lat="44.41202" lon="5.23928">
        <ele>524</ele>
        <time>2022-09-29T12:54:01Z</time>
      </trkpt>
      <trkpt lat="44.41202" lon="5.23927">
        <ele>524</ele>
        <time>2022-09-29T12:54:02Z</time>
      </trkpt>
      <trkpt lat="44.41202" lon="5.23926">
        <ele>524</ele>
        <time>2022-09-29T12:54:03Z</time>
      </trkpt>
      <trkpt lat="44.41202" lon="5.23925">
        <ele>524</ele>
        <time>2022-09-29T12:54:04Z</time>
      </trkpt>
      <trkpt lat="44.41202" lon="5.23924">
        <ele>524</ele>
        <time>2022-09-29T12:54:05Z</time>
      </trkpt>
      <trkpt lat="44.41201" lon="5.23923">
        <ele>524</ele>
        <time>2022-09-29T12:54:06Z</time>
      </trkpt>
      <trkpt lat="44.41201" lon="5.23922">
        <ele>524</ele>
        <time>2022-09-29T12:54:07Z</time>
      </trkpt>
      <trkpt lat="44.41201" lon="5.23921">
        <ele>524</ele>
        <time>2022-09-29T12:54:08Z</time>
      </trkpt>
      <trkpt lat="44.41201" lon="5.2392">
        <ele>523</ele>
        <time>2022-09-29T12:54:09Z</time>
      </trkpt>
      <trkpt lat="44.41201" lon="5.23919">
        <ele>523</ele>
        <time>2022-09-29T12:54:10Z</time>
      </trkpt>
      <trkpt lat="44.412" lon="5.23918">
        <ele>522</ele>
        <time>2022-09-29T12:54:11Z</time>
      </trkpt>
      <trkpt lat="44.412" lon="5.23917">
        <ele>522</ele>
        <time>2022-09-29T12:54:12Z</time>
      </trkpt>
      <trkpt lat="44.412" lon="5.23916">
        <ele>522</ele>
        <time>2022-09-29T12:54:13Z</time>
      </trkpt>
      <trkpt lat="44.412" lon="5.23915">
        <ele>521</ele>
        <time>2022-09-29T12:54:14Z</time>
      </trkpt>
      <trkpt lat="44.41199" lon="5.23914">
        <ele>521</ele>
        <time>2022-09-29T12:54:15Z</time>
      </trkpt>
      <trkpt lat="44.41199" lon="5.23913">
        <ele>521</ele>
        <time>2022-09-29T12:54:16Z</time>
      </trkpt>
      <trkpt lat="44.41199" lon="5.23912">
        <ele>521</ele>
        <time>2022-09-29T12:54:17Z</time>
      </trkpt>
      <trkpt lat="44.41198" lon="5.23912">
        <ele>521</ele>
        <time>2022-09-29T12:54:18Z</time>
      </trkpt>
      <trkpt lat="44.41198" lon="5.23911">
        <ele>521</ele>
        <time>2022-09-29T12:54:19Z</time>
      </trkpt>
      <trkpt lat="44.41198" lon="5.2391">
        <ele>521</ele>
        <time>2022-09-29T12:54:20Z</time>
      </trkpt>
      <trkpt lat="44.41198" lon="5.23909">
        <ele>521</ele>
        <time>2022-09-29T12:54:21Z</time>
      </trkpt>
      <trkpt lat="44.41198" lon="5.23908">
        <ele>521</ele>
        <time>2022-09-29T12:54:22Z</time>
      </trkpt>
      <trkpt lat="44.41198" lon="5.23907">
        <ele>521</ele>
        <time>2022-09-29T12:54:23Z</time>
      </trkpt>
      <trkpt lat="44.41198" lon="5.23906">
        <ele>520</ele>
        <time>2022-09-29T12:54:24Z</time>
      </trkpt>
      <trkpt lat="44.41197" lon="5.23905">
        <ele>520</ele>
        <time>2022-09-29T12:54:25Z</time>
      </trkpt>
      <trkpt lat="44.41197" lon="5.23904">
        <ele>520</ele>
        <time>2022-09-29T12:54:26Z</time>
      </trkpt>
      <trkpt lat="44.41197" lon="5.23903">
        <ele>520</ele>
        <time>2022-09-29T12:54:27Z</time>
      </trkpt>
      <trkpt lat="44.41197" lon="5.23902">
        <ele>520</ele>
        <time>2022-09-29T12:54:28Z</time>
      </trkpt>
      <trkpt lat="44.41197" lon="5.23901">
        <ele>519</ele>
        <time>2022-09-29T12:54:29Z</time>
      </trkpt>
      <trkpt lat="44.41196" lon="5.239">
        <ele>519</ele>
        <time>2022-09-29T12:54:30Z</time>
      </trkpt>
      <trkpt lat="44.41196" lon="5.23898">
        <ele>519</ele>
        <time>2022-09-29T12:54:31Z</time>
      </trkpt>
      <trkpt lat="44.41196" lon="5.23897">
        <ele>519</ele>
        <time>2022-09-29T12:54:32Z</time>
      </trkpt>
      <trkpt lat="44.41196" lon="5.23896">
        <ele>519</ele>
        <time>2022-09-29T12:54:33Z</time>
      </trkpt>
      <trkpt lat="44.41195" lon="5.23895">
        <ele>518</ele>
        <time>2022-09-29T12:54:34Z</time>
      </trkpt>
      <trkpt lat="44.41195" lon="5.23894">
        <ele>518</ele>
        <time>2022-09-29T12:54:35Z</time>
      </trkpt>
      <trkpt lat="44.41195" lon="5.23893">
        <ele>518</ele>
        <time>2022-09-29T12:54:36Z</time>
      </trkpt>
      <trkpt lat="44.41195" lon="5.23892">
        <ele>518</ele>
        <time>2022-09-29T12:54:37Z</time>
      </trkpt>
      <trkpt lat="44.41194" lon="5.23891">
        <ele>518</ele>
        <time>2022-09-29T12:54:38Z</time>
      </trkpt>
      <trkpt lat="44.41194" lon="5.23889">
        <ele>517</ele>
        <time>2022-09-29T12:54:39Z</time>
      </trkpt>
      <trkpt lat="44.41194" lon="5.23888">
        <ele>517</ele>
        <time>2022-09-29T12:54:40Z</time>
      </trkpt>
      <trkpt lat="44.41194" lon="5.23887">
        <ele>517</ele>
        <time>2022-09-29T12:54:41Z</time>
      </trkpt>
      <trkpt lat="44.41193" lon="5.23886">
        <ele>517</ele>
        <time>2022-09-29T12:54:42Z</time>
      </trkpt>
      <trkpt lat="44.41193" lon="5.23886">
        <ele>517</ele>
        <time>2022-09-29T12:54:43Z</time>
      </trkpt>
      <trkpt lat="44.41193" lon="5.23885">
        <ele>516</ele>
        <time>2022-09-29T12:54:44Z</time>
      </trkpt>
      <trkpt lat="44.41193" lon="5.23884">
        <ele>516</ele>
        <time>2022-09-29T12:54:45Z</time>
      </trkpt>
      <trkpt lat="44.41193" lon="5.23883">
        <ele>516</ele>
        <time>2022-09-29T12:54:46Z</time>
      </trkpt>
      <trkpt lat="44.41193" lon="5.23882">
        <ele>516</ele>
        <time>2022-09-29T12:54:47Z</time>
      </trkpt>
      <trkpt lat="44.41192" lon="5.23881">
        <ele>516</ele>
        <time>2022-09-29T12:54:48Z</time>
      </trkpt>
      <trkpt lat="44.41192" lon="5.2388">
        <ele>515</ele>
        <time>2022-09-29T12:54:49Z</time>
      </trkpt>
      <trkpt lat="44.41192" lon="5.23879">
        <ele>515</ele>
        <time>2022-09-29T12:54:50Z</time>
      </trkpt>
      <trkpt lat="44.41192" lon="5.23878">
        <ele>515</ele>
        <time>2022-09-29T12:54:51Z</time>
      </trkpt>
      <trkpt lat="44.41191" lon="5.23877">
        <ele>515</ele>
        <time>2022-09-29T12:54:52Z</time>
      </trkpt>
      <trkpt lat="44.41191" lon="5.23876">
        <ele>515</ele>
        <time>2022-09-29T12:54:53Z</time>
      </trkpt>
      <trkpt lat="44.41191" lon="5.23875">
        <ele>514</ele>
        <time>2022-09-29T12:54:54Z</time>
      </trkpt>
      <trkpt lat="44.41191" lon="5.23874">
        <ele>514</ele>
        <time>2022-09-29T12:54:55Z</time>
      </trkpt>
      <trkpt lat="44.4119" lon="5.23873">
        <ele>514</ele>
        <time>2022-09-29T12:54:56Z</time>
      </trkpt>
      <trkpt lat="44.4119" lon="5.23872">
        <ele>514</ele>
        <time>2022-09-29T12:54:57Z</time>
      </trkpt>
      <trkpt lat="44.4119" lon="5.2387">
        <ele>514</ele>
        <time>2022-09-29T12:54:58Z</time>
      </trkpt>
      <trkpt lat="44.4119" lon="5.23869">
        <ele>513</ele>
        <time>2022-09-29T12:54:59Z</time>
      </trkpt>
      <trkpt lat="44.4119" lon="5.23868">
        <ele>513</ele>
        <time>2022-09-29T12:55:00Z</time>
      </trkpt>
      <trkpt lat="44.4119" lon="5.23867">
        <ele>512</ele>
        <time>2022-09-29T12:55:01Z</time>
      </trkpt>
      <trkpt lat="44.4119" lon="5.23866">
        <ele>512</ele>
        <time>2022-09-29T12:55:02Z</time>
      </trkpt>
      <trkpt lat="44.4119" lon="5.23865">
        <ele>512</ele>
        <time>2022-09-29T12:55:03Z</time>
      </trkpt>
      <trkpt lat="44.4119" lon="5.23864">
        <ele>511</ele>
        <time>2022-09-29T12:55:04Z</time>
      </trkpt>
      <trkpt lat="44.4119" lon="5.23863">
        <ele>511</ele>
        <time>2022-09-29T12:55:05Z</time>
      </trkpt>
      <trkpt lat="44.4119" lon="5.23862">
        <ele>511</ele>
        <time>2022-09-29T12:55:06Z</time>
      </trkpt>
      <trkpt lat="44.4119" lon="5.23861">
        <ele>511</ele>
        <time>2022-09-29T12:55:07Z</time>
      </trkpt>
      <trkpt lat="44.41191" lon="5.2386">
        <ele>511</ele>
        <time>2022-09-29T12:55:08Z</time>
      </trkpt>
      <trkpt lat="44.41191" lon="5.23859">
        <ele>510</ele>
        <time>2022-09-29T12:55:09Z</time>
      </trkpt>
      <trkpt lat="44.41191" lon="5.23858">
        <ele>510</ele>
        <time>2022-09-29T12:55:10Z</time>
      </trkpt>
      <trkpt lat="44.41191" lon="5.23857">
        <ele>510</ele>
        <time>2022-09-29T12:55:11Z</time>
      </trkpt>
      <trkpt lat="44.41191" lon="5.23856">
        <ele>510</ele>
        <time>2022-09-29T12:55:12Z</time>
      </trkpt>
      <trkpt lat="44.41192" lon="5.23855">
        <ele>510</ele>
        <time>2022-09-29T12:55:13Z</time>
      </trkpt>
      <trkpt lat="44.41192" lon="5.23854">
        <ele>509</ele>
        <time>2022-09-29T12:55:14Z</time>
      </trkpt>
      <trkpt lat="44.41192" lon="5.23852">
        <ele>509</ele>
        <time>2022-09-29T12:55:15Z</time>
      </trkpt>
      <trkpt lat="44.41192" lon="5.23851">
        <ele>509</ele>
        <time>2022-09-29T12:55:16Z</time>
      </trkpt>
      <trkpt lat="44.41192" lon="5.2385">
        <ele>509</ele>
        <time>2022-09-29T12:55:17Z</time>
      </trkpt>
      <trkpt lat="44.41192" lon="5.23849">
        <ele>509</ele>
        <time>2022-09-29T12:55:18Z</time>
      </trkpt>
      <trkpt lat="44.41192" lon="5.23847">
        <ele>508</ele>
        <time>2022-09-29T12:55:19Z</time>
      </trkpt>
      <trkpt lat="44.41192" lon="5.23846">
        <ele>508</ele>
        <time>2022-09-29T12:55:20Z</time>
      </trkpt>
      <trkpt lat="44.41192" lon="5.23845">
        <ele>508</ele>
        <time>2022-09-29T12:55:21Z</time>
      </trkpt>
      <trkpt lat="44.41192" lon="5.23844">
        <ele>508</ele>
        <time>2022-09-29T12:55:22Z</time>
      </trkpt>
      <trkpt lat="44.41192" lon="5.23843">
        <ele>508</ele>
        <time>2022-09-29T12:55:23Z</time>
      </trkpt>
      <trkpt lat="44.41192" lon="5.23841">
        <ele>507</ele>
        <time>2022-09-29T12:55:24Z</time>
      </trkpt>
      <trkpt lat="44.41192" lon="5.2384">
        <ele>507</ele>
        <time>2022-09-29T12:55:25Z</time>
      </trkpt>
      <trkpt lat="44.41192" lon="5.23839">
        <ele>507</ele>
        <time>2022-09-29T12:55:26Z</time>
      </trkpt>
      <trkpt lat="44.41192" lon="5.23838">
        <ele>507</ele>
        <time>2022-09-29T12:55:27Z</time>
      </trkpt>
      <trkpt lat="44.41192" lon="5.23837">
        <ele>507</ele>
        <time>2022-09-29T12:55:28Z</time>
      </trkpt>
      <trkpt lat="44.41192" lon="5.23836">
        <ele>506</ele>
        <time>2022-09-29T12:55:29Z</time>
      </trkpt>
      <trkpt lat="44.41193" lon="5.23835">
        <ele>506</ele>
        <time>2022-09-29T12:55:30Z</time>
      </trkpt>
      <trkpt lat="44.41193" lon="5.23833">
        <ele>505</ele>
        <time>2022-09-29T12:55:31Z</time>
      </trkpt>
      <trkpt lat="44.41193" lon="5.23832">
        <ele>505</ele>
        <time>2022-09-29T12:55:32Z</time>
      </trkpt>
      <trkpt lat="44.41193" lon="5.23831">
        <ele>505</ele>
        <time>2022-09-29T12:55:33Z</time>
      </trkpt>
      <trkpt lat="44.41193" lon="5.2383">
        <ele>504</ele>
        <time>2022-09-29T12:55:34Z</time>
      </trkpt>
      <trkpt lat="44.41193" lon="5.23828">
        <ele>504</ele>
        <time>2022-09-29T12:55:35Z</time>
      </trkpt>
      <trkpt lat="44.41193" lon="5.23827">
        <ele>504</ele>
        <time>2022-09-29T12:55:36Z</time>
      </trkpt>
      <trkpt lat="44.41193" lon="5.23826">
        <ele>504</ele>
        <time>2022-09-29T12:55:37Z</time>
      </trkpt>
      <trkpt lat="44.41194" lon="5.23825">
        <ele>504</ele>
        <time>2022-09-29T12:55:38Z</time>
      </trkpt>
      <trkpt lat="44.41194" lon="5.23824">
        <ele>503</ele>
        <time>2022-09-29T12:55:39Z</time>
      </trkpt>
      <trkpt lat="44.41194" lon="5.23823">
        <ele>503</ele>
        <time>2022-09-29T12:55:40Z</time>
      </trkpt>
      <trkpt lat="44.41194" lon="5.23822">
        <ele>503</ele>
        <time>2022-09-29T12:55:41Z</time>
      </trkpt>
      <trkpt lat="44.41195" lon="5.23821">
        <ele>503</ele>
        <time>2022-09-29T12:55:42Z</time>
      </trkpt>
      <trkpt lat="44.41195" lon="5.2382">
        <ele>503</ele>
        <time>2022-09-29T12:55:43Z</time>
      </trkpt>
      <trkpt lat="44.41195" lon="5.23819">
        <ele>502</ele>
        <time>2022-09-29T12:55:44Z</time>
      </trkpt>
      <trkpt lat="44.41196" lon="5.23818">
        <ele>502</ele>
        <time>2022-09-29T12:55:45Z</time>
      </trkpt>
      <trkpt lat="44.41196" lon="5.23817">
        <ele>502</ele>
        <time>2022-09-29T12:55:46Z</time>
      </trkpt>
      <trkpt lat="44.41197" lon="5.23816">
        <ele>502</ele>
        <time>2022-09-29T12:55:47Z</time>
      </trkpt>
      <trkpt lat="44.41197" lon="5.23815">
        <ele>502</ele>
        <time>2022-09-29T12:55:48Z</time>
      </trkpt>
      <trkpt lat="44.41198" lon="5.23814">
        <ele>501</ele>
        <time>2022-09-29T12:55:49Z</time>
      </trkpt>
      <trkpt lat="44.41198" lon="5.23813">
        <ele>501</ele>
        <time>2022-09-29T12:55:50Z</time>
      </trkpt>
      <trkpt lat="44.41198" lon="5.23812">
        <ele>501</ele>
        <time>2022-09-29T12:55:51Z</time>
      </trkpt>
      <trkpt lat="44.41199" lon="5.23811">
        <ele>501</ele>
        <time>2022-09-29T12:55:52Z</time>
      </trkpt>
      <trkpt lat="44.41199" lon="5.23809">
        <ele>501</ele>
        <time>2022-09-29T12:55:53Z</time>
      </trkpt>
      <trkpt lat="44.41199" lon="5.23808">
        <ele>500</ele>
        <time>2022-09-29T12:55:54Z</time>
      </trkpt>
      <trkpt lat="44.41199" lon="5.23807">
        <ele>500</ele>
        <time>2022-09-29T12:55:55Z</time>
      </trkpt>
      <trkpt lat="44.41199" lon="5.23805">
        <ele>500</ele>
        <time>2022-09-29T12:55:56Z</time>
      </trkpt>
      <trkpt lat="44.412" lon="5.23804">
        <ele>500</ele>
        <time>2022-09-29T12:55:57Z</time>
      </trkpt>
      <trkpt lat="44.412" lon="5.23803">
        <ele>500</ele>
        <time>2022-09-29T12:55:58Z</time>
      </trkpt>
      <trkpt lat="44.412" lon="5.23802">
        <ele>499</ele>
        <time>2022-09-29T12:55:59Z</time>
      </trkpt>
      <trkpt lat="44.412" lon="5.23801">
        <ele>499</ele>
        <time>2022-09-29T12:56:00Z</time>
      </trkpt>
      <trkpt lat="44.41201" lon="5.238">
        <ele>499</ele>
        <time>2022-09-29T12:56:01Z</time>
      </trkpt>
      <trkpt lat="44.41201" lon="5.23799">
        <ele>499</ele>
        <time>2022-09-29T12:56:02Z</time>
      </trkpt>
      <trkpt lat="44.41201" lon="5.23798">
        <ele>499</ele>
        <time>2022-09-29T12:56:03Z</time>
      </trkpt>
      <trkpt lat="44.41202" lon="5.23797">
        <ele>499</ele>
        <time>2022-09-29T12:56:04Z</time>
      </trkpt>
      <trkpt lat="44.41202" lon="5.23796">
        <ele>499</ele>
        <time>2022-09-29T12:56:05Z</time>
      </trkpt>
      <trkpt lat="44.41202" lon="5.23795">
        <ele>499</ele>
        <time>2022-09-29T12:56:06Z</time>
      </trkpt>
      <trkpt lat="44.41202" lon="5.23794">
        <ele>499</ele>
        <time>2022-09-29T12:56:07Z</time>
      </trkpt>
      <trkpt lat="44.41203" lon="5.23793">
        <ele>499</ele>
        <time>2022-09-29T12:56:08Z</time>
      </trkpt>
      <trkpt lat="44.41203" lon="5.23792">
        <ele>498</ele>
        <time>2022-09-29T12:56:09Z</time>
      </trkpt>
      <trkpt lat="44.41203" lon="5.23791">
        <ele>498</ele>
        <time>2022-09-29T12:56:10Z</time>
      </trkpt>
      <trkpt lat="44.41203" lon="5.2379">
        <ele>498</ele>
        <time>2022-09-29T12:56:11Z</time>
      </trkpt>
      <trkpt lat="44.41203" lon="5.23789">
        <ele>498</ele>
        <time>2022-09-29T12:56:12Z</time>
      </trkpt>
      <trkpt lat="44.41203" lon="5.23788">
        <ele>498</ele>
        <time>2022-09-29T12:56:13Z</time>
      </trkpt>
      <trkpt lat="44.41204" lon="5.23788">
        <ele>497</ele>
        <time>2022-09-29T12:56:14Z</time>
      </trkpt>
      <trkpt lat="44.41204" lon="5.23787">
        <ele>497</ele>
        <time>2022-09-29T12:56:15Z</time>
      </trkpt>
      <trkpt lat="44.41204" lon="5.23786">
        <ele>496</ele>
        <time>2022-09-29T12:56:16Z</time>
      </trkpt>
      <trkpt lat="44.41204" lon="5.23784">
        <ele>496</ele>
        <time>2022-09-29T12:56:17Z</time>
      </trkpt>
      <trkpt lat="44.41204" lon="5.23783">
        <ele>496</ele>
        <time>2022-09-29T12:56:18Z</time>
      </trkpt>
      <trkpt lat="44.41204" lon="5.23782">
        <ele>496</ele>
        <time>2022-09-29T12:56:19Z</time>
      </trkpt>
      <trkpt lat="44.41205" lon="5.23781">
        <ele>496</ele>
        <time>2022-09-29T12:56:20Z</time>
      </trkpt>
      <trkpt lat="44.41205" lon="5.23779">
        <ele>496</ele>
        <time>2022-09-29T12:56:21Z</time>
      </trkpt>
      <trkpt lat="44.41205" lon="5.23778">
        <ele>496</ele>
        <time>2022-09-29T12:56:22Z</time>
      </trkpt>
      <trkpt lat="44.41206" lon="5.23776">
        <ele>496</ele>
        <time>2022-09-29T12:56:23Z</time>
      </trkpt>
      <trkpt lat="44.41206" lon="5.23775">
        <ele>496</ele>
        <time>2022-09-29T12:56:24Z</time>
      </trkpt>
      <trkpt lat="44.41207" lon="5.23774">
        <ele>496</ele>
        <time>2022-09-29T12:56:25Z</time>
      </trkpt>
      <trkpt lat="44.41208" lon="5.23773">
        <ele>496</ele>
        <time>2022-09-29T12:56:26Z</time>
      </trkpt>
      <trkpt lat="44.41208" lon="5.23773">
        <ele>496</ele>
        <time>2022-09-29T12:56:27Z</time>
      </trkpt>
      <trkpt lat="44.41209" lon="5.23772">
        <ele>496</ele>
        <time>2022-09-29T12:56:28Z</time>
      </trkpt>
      <trkpt lat="44.4121" lon="5.23772">
        <ele>496</ele>
        <time>2022-09-29T12:56:29Z</time>
      </trkpt>
      <trkpt lat="44.41211" lon="5.23772">
        <ele>496</ele>
        <time>2022-09-29T12:56:30Z</time>
      </trkpt>
      <trkpt lat="44.41212" lon="5.23772">
        <ele>496</ele>
        <time>2022-09-29T12:56:31Z</time>
      </trkpt>
      <trkpt lat="44.41212" lon="5.23772">
        <ele>496</ele>
        <time>2022-09-29T12:56:32Z</time>
      </trkpt>
      <trkpt lat="44.41213" lon="5.23772">
        <ele>496</ele>
        <time>2022-09-29T12:56:33Z</time>
      </trkpt>
      <trkpt lat="44.41213" lon="5.23772">
        <ele>495</ele>
        <time>2022-09-29T12:56:34Z</time>
      </trkpt>
      <trkpt lat="44.41213" lon="5.23772">
        <ele>495</ele>
        <time>2022-09-29T12:56:35Z</time>
      </trkpt>
      <trkpt lat="44.41213" lon="5.23772">
        <ele>495</ele>
        <time>2022-09-29T12:56:36Z</time>
      </trkpt>
      <trkpt lat="44.41213" lon="5.23772">
        <ele>495</ele>
        <time>2022-09-29T12:56:37Z</time>
      </trkpt>
      <trkpt lat="44.41214" lon="5.23771">
        <ele>495</ele>
        <time>2022-09-29T12:56:38Z</time>
      </trkpt>
      <trkpt lat="44.41214" lon="5.23771">
        <ele>495</ele>
        <time>2022-09-29T12:56:39Z</time>
      </trkpt>
      <trkpt lat="44.41215" lon="5.23771">
        <ele>495</ele>
        <time>2022-09-29T12:56:40Z</time>
      </trkpt>
      <trkpt lat="44.41215" lon="5.23771">
        <ele>495</ele>
        <time>2022-09-29T12:56:41Z</time>
      </trkpt>
      <trkpt lat="44.41216" lon="5.2377">
        <ele>495</ele>
        <time>2022-09-29T12:56:42Z</time>
      </trkpt>
      <trkpt lat="44.41216" lon="5.2377">
        <ele>495</ele>
        <time>2022-09-29T12:56:43Z</time>
      </trkpt>
      <trkpt lat="44.41217" lon="5.2377">
        <ele>495</ele>
        <time>2022-09-29T12:56:44Z</time>
      </trkpt>
      <trkpt lat="44.41218" lon="5.2377">
        <ele>495</ele>
        <time>2022-09-29T12:56:45Z</time>
      </trkpt>
      <trkpt lat="44.41219" lon="5.23769">
        <ele>495</ele>
        <time>2022-09-29T12:56:46Z</time>
      </trkpt>
      <trkpt lat="44.41219" lon="5.23769">
        <ele>495</ele>
        <time>2022-09-29T12:56:47Z</time>
      </trkpt>
      <trkpt lat="44.41221" lon="5.23769">
        <ele>495</ele>
        <time>2022-09-29T12:56:53Z</time>
      </trkpt>
      <trkpt lat="44.41222" lon="5.23769">
        <ele>495</ele>
        <time>2022-09-29T12:56:54Z</time>
      </trkpt>
      <trkpt lat="44.41222" lon="5.23769">
        <ele>495</ele>
        <time>2022-09-29T12:56:55Z</time>
      </trkpt>
      <trkpt lat="44.41223" lon="5.23769">
        <ele>495</ele>
        <time>2022-09-29T12:56:56Z</time>
      </trkpt>
      <trkpt lat="44.41224" lon="5.23769">
        <ele>495</ele>
        <time>2022-09-29T12:56:57Z</time>
      </trkpt>
      <trkpt lat="44.41225" lon="5.23769">
        <ele>496</ele>
        <time>2022-09-29T12:56:58Z</time>
      </trkpt>
      <trkpt lat="44.41226" lon="5.23769">
        <ele>496</ele>
        <time>2022-09-29T12:56:59Z</time>
      </trkpt>
      <trkpt lat="44.41227" lon="5.23769">
        <ele>496</ele>
        <time>2022-09-29T12:57:00Z</time>
      </trkpt>
      <trkpt lat="44.41227" lon="5.23769">
        <ele>496</ele>
        <time>2022-09-29T12:57:01Z</time>
      </trkpt>
      <trkpt lat="44.41228" lon="5.23769">
        <ele>496</ele>
        <time>2022-09-29T12:57:02Z</time>
      </trkpt>
      <trkpt lat="44.41229" lon="5.2377">
        <ele>496</ele>
        <time>2022-09-29T12:57:03Z</time>
      </trkpt>
      <trkpt lat="44.41231" lon="5.2377">
        <ele>496</ele>
        <time>2022-09-29T12:57:09Z</time>
      </trkpt>
      <trkpt lat="44.41231" lon="5.23771">
        <ele>496</ele>
        <time>2022-09-29T12:57:10Z</time>
      </trkpt>
      <trkpt lat="44.41231" lon="5.23771">
        <ele>496</ele>
        <time>2022-09-29T12:57:11Z</time>
      </trkpt>
      <trkpt lat="44.41231" lon="5.2377">
        <ele>496</ele>
        <time>2022-09-29T12:57:12Z</time>
      </trkpt>
      <trkpt lat="44.41232" lon="5.2377">
        <ele>496</ele>
        <time>2022-09-29T12:57:13Z</time>
      </trkpt>
      <trkpt lat="44.41232" lon="5.23769">
        <ele>496</ele>
        <time>2022-09-29T12:57:14Z</time>
      </trkpt>
      <trkpt lat="44.41233" lon="5.23769">
        <ele>496</ele>
        <time>2022-09-29T12:57:15Z</time>
      </trkpt>
      <trkpt lat="44.41233" lon="5.23769">
        <ele>496</ele>
        <time>2022-09-29T12:57:16Z</time>
      </trkpt>
      <trkpt lat="44.41234" lon="5.23769">
        <ele>496</ele>
        <time>2022-09-29T12:57:17Z</time>
      </trkpt>
      <trkpt lat="44.41234" lon="5.23769">
        <ele>496</ele>
        <time>2022-09-29T12:57:18Z</time>
      </trkpt>
      <trkpt lat="44.41235" lon="5.23769">
        <ele>496</ele>
        <time>2022-09-29T12:57:19Z</time>
      </trkpt>
      <trkpt lat="44.41236" lon="5.2377">
        <ele>496</ele>
        <time>2022-09-29T12:57:26Z</time>
      </trkpt>
      <trkpt lat="44.41236" lon="5.23771">
        <ele>496</ele>
        <time>2022-09-29T12:57:27Z</time>
      </trkpt>
      <trkpt lat="44.41237" lon="5.23771">
        <ele>496</ele>
        <time>2022-09-29T12:57:28Z</time>
      </trkpt>
      <trkpt lat="44.41237" lon="5.23772">
        <ele>496</ele>
        <time>2022-09-29T12:57:29Z</time>
      </trkpt>
      <trkpt lat="44.41238" lon="5.23773">
        <ele>496</ele>
        <time>2022-09-29T12:57:30Z</time>
      </trkpt>
      <trkpt lat="44.41238" lon="5.23773">
        <ele>496</ele>
        <time>2022-09-29T12:57:31Z</time>
      </trkpt>
      <trkpt lat="44.41238" lon="5.23774">
        <ele>496</ele>
        <time>2022-09-29T12:57:32Z</time>
      </trkpt>
      <trkpt lat="44.41239" lon="5.23775">
        <ele>496</ele>
        <time>2022-09-29T12:57:33Z</time>
      </trkpt>
      <trkpt lat="44.41239" lon="5.23776">
        <ele>496</ele>
        <time>2022-09-29T12:57:34Z</time>
      </trkpt>
      <trkpt lat="44.4124" lon="5.23776">
        <ele>496</ele>
        <time>2022-09-29T12:57:35Z</time>
      </trkpt>
      <trkpt lat="44.4124" lon="5.23777">
        <ele>496</ele>
        <time>2022-09-29T12:57:36Z</time>
      </trkpt>
      <trkpt lat="44.41241" lon="5.23778">
        <ele>496</ele>
        <time>2022-09-29T12:57:37Z</time>
      </trkpt>
      <trkpt lat="44.41241" lon="5.23778">
        <ele>496</ele>
        <time>2022-09-29T12:57:38Z</time>
      </trkpt>
      <trkpt lat="44.41242" lon="5.23779">
        <ele>496</ele>
        <time>2022-09-29T12:57:39Z</time>
      </trkpt>
      <trkpt lat="44.41243" lon="5.2378">
        <ele>496</ele>
        <time>2022-09-29T12:57:40Z</time>
      </trkpt>
      <trkpt lat="44.41243" lon="5.23781">
        <ele>496</ele>
        <time>2022-09-29T12:57:41Z</time>
      </trkpt>
      <trkpt lat="44.41244" lon="5.23781">
        <ele>496</ele>
        <time>2022-09-29T12:57:42Z</time>
      </trkpt>
      <trkpt lat="44.41244" lon="5.23782">
        <ele>496</ele>
        <time>2022-09-29T12:57:43Z</time>
      </trkpt>
      <trkpt lat="44.41245" lon="5.23783">
        <ele>496</ele>
        <time>2022-09-29T12:57:44Z</time>
      </trkpt>
      <trkpt lat="44.41246" lon="5.23783">
        <ele>496</ele>
        <time>2022-09-29T12:57:45Z</time>
      </trkpt>
      <trkpt lat="44.41246" lon="5.23784">
        <ele>496</ele>
        <time>2022-09-29T12:57:46Z</time>
      </trkpt>
      <trkpt lat="44.41246" lon="5.23784">
        <ele>496</ele>
        <time>2022-09-29T12:57:47Z</time>
      </trkpt>
      <trkpt lat="44.41247" lon="5.23784">
        <ele>496</ele>
        <time>2022-09-29T12:57:48Z</time>
      </trkpt>
      <trkpt lat="44.41247" lon="5.23784">
        <ele>496</ele>
        <time>2022-09-29T12:57:49Z</time>
      </trkpt>
      <trkpt lat="44.41247" lon="5.23785">
        <ele>496</ele>
        <time>2022-09-29T12:57:50Z</time>
      </trkpt>
      <trkpt lat="44.41247" lon="5.23785">
        <ele>496</ele>
        <time>2022-09-29T12:57:51Z</time>
      </trkpt>
      <trkpt lat="44.41248" lon="5.23785">
        <ele>496</ele>
        <time>2022-09-29T12:57:52Z</time>
      </trkpt>
      <trkpt lat="44.41249" lon="5.23785">
        <ele>496</ele>
        <time>2022-09-29T12:58:21Z</time>
      </trkpt>
      <trkpt lat="44.4125" lon="5.23786">
        <ele>496</ele>
        <time>2022-09-29T12:58:22Z</time>
      </trkpt>
      <trkpt lat="44.41251" lon="5.23786">
        <ele>496</ele>
        <time>2022-09-29T12:58:23Z</time>
      </trkpt>
      <trkpt lat="44.41251" lon="5.23786">
        <ele>496</ele>
        <time>2022-09-29T12:58:24Z</time>
      </trkpt>
      <trkpt lat="44.41252" lon="5.23786">
        <ele>496</ele>
        <time>2022-09-29T12:58:25Z</time>
      </trkpt>
      <trkpt lat="44.41252" lon="5.23786">
        <ele>496</ele>
        <time>2022-09-29T12:58:26Z</time>
      </trkpt>
      <trkpt lat="44.41253" lon="5.23787">
        <ele>496</ele>
        <time>2022-09-29T12:58:27Z</time>
      </trkpt>
      <trkpt lat="44.41253" lon="5.23787">
        <ele>496</ele>
        <time>2022-09-29T12:58:28Z</time>
      </trkpt>
      <trkpt lat="44.41254" lon="5.23787">
        <ele>496</ele>
        <time>2022-09-29T12:58:29Z</time>
      </trkpt>
      <trkpt lat="44.41255" lon="5.23787">
        <ele>496</ele>
        <time>2022-09-29T12:58:30Z</time>
      </trkpt>
      <trkpt lat="44.41255" lon="5.23787">
        <ele>496</ele>
        <time>2022-09-29T12:58:31Z</time>
      </trkpt>
      <trkpt lat="44.41256" lon="5.23787">
        <ele>496</ele>
        <time>2022-09-29T12:58:32Z</time>
      </trkpt>
      <trkpt lat="44.41257" lon="5.23788">
        <ele>496</ele>
        <time>2022-09-29T12:58:33Z</time>
      </trkpt>
      <trkpt lat="44.41258" lon="5.23788">
        <ele>496</ele>
        <time>2022-09-29T12:58:34Z</time>
      </trkpt>
      <trkpt lat="44.41259" lon="5.23788">
        <ele>496</ele>
        <time>2022-09-29T12:58:35Z</time>
      </trkpt>
      <trkpt lat="44.4126" lon="5.23788">
        <ele>496</ele>
        <time>2022-09-29T12:58:36Z</time>
      </trkpt>
      <trkpt lat="44.41261" lon="5.23788">
        <ele>496</ele>
        <time>2022-09-29T12:58:37Z</time>
      </trkpt>
      <trkpt lat="44.41262" lon="5.23788">
        <ele>496</ele>
        <time>2022-09-29T12:58:38Z</time>
      </trkpt>
      <trkpt lat="44.41262" lon="5.23787">
        <ele>496</ele>
        <time>2022-09-29T12:58:39Z</time>
      </trkpt>
      <trkpt lat="44.41263" lon="5.23787">
        <ele>496</ele>
        <time>2022-09-29T12:58:40Z</time>
      </trkpt>
      <trkpt lat="44.41264" lon="5.23787">
        <ele>496</ele>
        <time>2022-09-29T12:58:41Z</time>
      </trkpt>
      <trkpt lat="44.41265" lon="5.23787">
        <ele>496</ele>
        <time>2022-09-29T12:58:42Z</time>
      </trkpt>
      <trkpt lat="44.41266" lon="5.23786">
        <ele>496</ele>
        <time>2022-09-29T12:58:43Z</time>
      </trkpt>
      <trkpt lat="44.41267" lon="5.23786">
        <ele>496</ele>
        <time>2022-09-29T12:58:44Z</time>
      </trkpt>
      <trkpt lat="44.41268" lon="5.23786">
        <ele>496</ele>
        <time>2022-09-29T12:58:45Z</time>
      </trkpt>
      <trkpt lat="44.41269" lon="5.23785">
        <ele>496</ele>
        <time>2022-09-29T12:58:46Z</time>
      </trkpt>
      <trkpt lat="44.4127" lon="5.23785">
        <ele>496</ele>
        <time>2022-09-29T12:58:47Z</time>
      </trkpt>
      <trkpt lat="44.41271" lon="5.23785">
        <ele>496</ele>
        <time>2022-09-29T12:58:48Z</time>
      </trkpt>
      <trkpt lat="44.41272" lon="5.23784">
        <ele>496</ele>
        <time>2022-09-29T12:58:49Z</time>
      </trkpt>
      <trkpt lat="44.41272" lon="5.23784">
        <ele>496</ele>
        <time>2022-09-29T12:58:50Z</time>
      </trkpt>
      <trkpt lat="44.41273" lon="5.23784">
        <ele>496</ele>
        <time>2022-09-29T12:58:51Z</time>
      </trkpt>
      <trkpt lat="44.41274" lon="5.23784">
        <ele>496</ele>
        <time>2022-09-29T12:58:52Z</time>
      </trkpt>
      <trkpt lat="44.41275" lon="5.23783">
        <ele>497</ele>
        <time>2022-09-29T12:58:53Z</time>
      </trkpt>
      <trkpt lat="44.41276" lon="5.23783">
        <ele>497</ele>
        <time>2022-09-29T12:58:54Z</time>
      </trkpt>
      <trkpt lat="44.41277" lon="5.23783">
        <ele>497</ele>
        <time>2022-09-29T12:58:55Z</time>
      </trkpt>
      <trkpt lat="44.41278" lon="5.23782">
        <ele>497</ele>
        <time>2022-09-29T12:58:56Z</time>
      </trkpt>
      <trkpt lat="44.41279" lon="5.23782">
        <ele>497</ele>
        <time>2022-09-29T12:58:57Z</time>
      </trkpt>
      <trkpt lat="44.4128" lon="5.23781">
        <ele>497</ele>
        <time>2022-09-29T12:58:58Z</time>
      </trkpt>
      <trkpt lat="44.4128" lon="5.23781">
        <ele>497</ele>
        <time>2022-09-29T12:58:59Z</time>
      </trkpt>
      <trkpt lat="44.41281" lon="5.23781">
        <ele>497</ele>
        <time>2022-09-29T12:59:00Z</time>
      </trkpt>
      <trkpt lat="44.41282" lon="5.2378">
        <ele>497</ele>
        <time>2022-09-29T12:59:01Z</time>
      </trkpt>
      <trkpt lat="44.41283" lon="5.2378">
        <ele>497</ele>
        <time>2022-09-29T12:59:02Z</time>
      </trkpt>
      <trkpt lat="44.41284" lon="5.2378">
        <ele>497</ele>
        <time>2022-09-29T12:59:03Z</time>
      </trkpt>
      <trkpt lat="44.41285" lon="5.2378">
        <ele>497</ele>
        <time>2022-09-29T12:59:04Z</time>
      </trkpt>
      <trkpt lat="44.41286" lon="5.2378">
        <ele>497</ele>
        <time>2022-09-29T12:59:05Z</time>
      </trkpt>
      <trkpt lat="44.41287" lon="5.23779">
        <ele>497</ele>
        <time>2022-09-29T12:59:06Z</time>
      </trkpt>
      <trkpt lat="44.41288" lon="5.23779">
        <ele>497</ele>
        <time>2022-09-29T12:59:07Z</time>
      </trkpt>
      <trkpt lat="44.41289" lon="5.23779">
        <ele>497</ele>
        <time>2022-09-29T12:59:08Z</time>
      </trkpt>
      <trkpt lat="44.4129" lon="5.23779">
        <ele>497</ele>
        <time>2022-09-29T12:59:09Z</time>
      </trkpt>
      <trkpt lat="44.41291" lon="5.23778">
        <ele>497</ele>
        <time>2022-09-29T12:59:10Z</time>
      </trkpt>
      <trkpt lat="44.41292" lon="5.23778">
        <ele>497</ele>
        <time>2022-09-29T12:59:11Z</time>
      </trkpt>
      <trkpt lat="44.41293" lon="5.23777">
        <ele>497</ele>
        <time>2022-09-29T12:59:12Z</time>
      </trkpt>
      <trkpt lat="44.41294" lon="5.23777">
        <ele>497</ele>
        <time>2022-09-29T12:59:13Z</time>
      </trkpt>
      <trkpt lat="44.41294" lon="5.23776">
        <ele>497</ele>
        <time>2022-09-29T12:59:14Z</time>
      </trkpt>
      <trkpt lat="44.41295" lon="5.23776">
        <ele>497</ele>
        <time>2022-09-29T12:59:15Z</time>
      </trkpt>
      <trkpt lat="44.41296" lon="5.23775">
        <ele>497</ele>
        <time>2022-09-29T12:59:16Z</time>
      </trkpt>
      <trkpt lat="44.41297" lon="5.23775">
        <ele>497</ele>
        <time>2022-09-29T12:59:17Z</time>
      </trkpt>
      <trkpt lat="44.41297" lon="5.23775">
        <ele>497</ele>
        <time>2022-09-29T12:59:18Z</time>
      </trkpt>
      <trkpt lat="44.41298" lon="5.23774">
        <ele>497</ele>
        <time>2022-09-29T12:59:19Z</time>
      </trkpt>
      <trkpt lat="44.41298" lon="5.23774">
        <ele>497</ele>
        <time>2022-09-29T12:59:20Z</time>
      </trkpt>
      <trkpt lat="44.41299" lon="5.23773">
        <ele>497</ele>
        <time>2022-09-29T12:59:21Z</time>
      </trkpt>
      <trkpt lat="44.41299" lon="5.23773">
        <ele>497</ele>
        <time>2022-09-29T12:59:22Z</time>
      </trkpt>
      <trkpt lat="44.413" lon="5.23773">
        <ele>498</ele>
        <time>2022-09-29T12:59:23Z</time>
      </trkpt>
      <trkpt lat="44.41301" lon="5.23772">
        <ele>498</ele>
        <time>2022-09-29T12:59:24Z</time>
      </trkpt>
      <trkpt lat="44.41301" lon="5.23772">
        <ele>498</ele>
        <time>2022-09-29T12:59:25Z</time>
      </trkpt>
      <trkpt lat="44.41302" lon="5.23772">
        <ele>498</ele>
        <time>2022-09-29T12:59:26Z</time>
      </trkpt>
      <trkpt lat="44.41302" lon="5.23771">
        <ele>498</ele>
        <time>2022-09-29T12:59:27Z</time>
      </trkpt>
      <trkpt lat="44.41303" lon="5.23771">
        <ele>498</ele>
        <time>2022-09-29T12:59:28Z</time>
      </trkpt>
      <trkpt lat="44.41303" lon="5.23771">
        <ele>498</ele>
        <time>2022-09-29T12:59:29Z</time>
      </trkpt>
      <trkpt lat="44.41305" lon="5.2377">
        <ele>498</ele>
        <time>2022-09-29T12:59:38Z</time>
      </trkpt>
      <trkpt lat="44.41305" lon="5.2377">
        <ele>498</ele>
        <time>2022-09-29T12:59:39Z</time>
      </trkpt>
      <trkpt lat="44.41306" lon="5.23769">
        <ele>498</ele>
        <time>2022-09-29T12:59:40Z</time>
      </trkpt>
      <trkpt lat="44.41306" lon="5.23769">
        <ele>498</ele>
        <time>2022-09-29T12:59:41Z</time>
      </trkpt>
      <trkpt lat="44.41307" lon="5.23769">
        <ele>498</ele>
        <time>2022-09-29T12:59:42Z</time>
      </trkpt>
      <trkpt lat="44.41308" lon="5.23768">
        <ele>498</ele>
        <time>2022-09-29T12:59:43Z</time>
      </trkpt>
      <trkpt lat="44.41309" lon="5.23767">
        <ele>498</ele>
        <time>2022-09-29T12:59:44Z</time>
      </trkpt>
      <trkpt lat="44.41309" lon="5.23767">
        <ele>498</ele>
        <time>2022-09-29T12:59:45Z</time>
      </trkpt>
      <trkpt lat="44.4131" lon="5.23766">
        <ele>498</ele>
        <time>2022-09-29T12:59:46Z</time>
      </trkpt>
      <trkpt lat="44.41311" lon="5.23766">
        <ele>498</ele>
        <time>2022-09-29T12:59:47Z</time>
      </trkpt>
      <trkpt lat="44.41312" lon="5.23765">
        <ele>498</ele>
        <time>2022-09-29T12:59:48Z</time>
      </trkpt>
      <trkpt lat="44.41313" lon="5.23765">
        <ele>498</ele>
        <time>2022-09-29T12:59:49Z</time>
      </trkpt>
      <trkpt lat="44.41314" lon="5.23764">
        <ele>498</ele>
        <time>2022-09-29T12:59:50Z</time>
      </trkpt>
      <trkpt lat="44.41315" lon="5.23764">
        <ele>498</ele>
        <time>2022-09-29T12:59:51Z</time>
      </trkpt>
      <trkpt lat="44.41315" lon="5.23763">
        <ele>498</ele>
        <time>2022-09-29T12:59:52Z</time>
      </trkpt>
      <trkpt lat="44.41316" lon="5.23763">
        <ele>499</ele>
        <time>2022-09-29T12:59:53Z</time>
      </trkpt>
      <trkpt lat="44.41317" lon="5.23762">
        <ele>499</ele>
        <time>2022-09-29T12:59:54Z</time>
      </trkpt>
      <trkpt lat="44.41318" lon="5.23762">
        <ele>499</ele>
        <time>2022-09-29T12:59:55Z</time>
      </trkpt>
      <trkpt lat="44.41319" lon="5.23761">
        <ele>499</ele>
        <time>2022-09-29T12:59:56Z</time>
      </trkpt>
      <trkpt lat="44.41321" lon="5.2376">
        <ele>499</ele>
        <time>2022-09-29T13:00:04Z</time>
      </trkpt>
      <trkpt lat="44.41322" lon="5.23759">
        <ele>499</ele>
        <time>2022-09-29T13:00:05Z</time>
      </trkpt>
      <trkpt lat="44.41322" lon="5.23759">
        <ele>499</ele>
        <time>2022-09-29T13:00:06Z</time>
      </trkpt>
      <trkpt lat="44.41323" lon="5.23758">
        <ele>499</ele>
        <time>2022-09-29T13:00:07Z</time>
      </trkpt>
      <trkpt lat="44.41323" lon="5.23758">
        <ele>499</ele>
        <time>2022-09-29T13:00:08Z</time>
      </trkpt>
      <trkpt lat="44.41324" lon="5.23757">
        <ele>499</ele>
        <time>2022-09-29T13:00:09Z</time>
      </trkpt>
      <trkpt lat="44.41324" lon="5.23756">
        <ele>499</ele>
        <time>2022-09-29T13:00:10Z</time>
      </trkpt>
      <trkpt lat="44.41325" lon="5.23755">
        <ele>499</ele>
        <time>2022-09-29T13:00:11Z</time>
      </trkpt>
      <trkpt lat="44.41325" lon="5.23755">
        <ele>499</ele>
        <time>2022-09-29T13:00:12Z</time>
      </trkpt>
      <trkpt lat="44.41326" lon="5.23754">
        <ele>498</ele>
        <time>2022-09-29T13:01:14Z</time>
      </trkpt>
      <trkpt lat="44.41326" lon="5.23754">
        <ele>498</ele>
        <time>2022-09-29T13:01:15Z</time>
      </trkpt>
      <trkpt lat="44.41326" lon="5.23754">
        <ele>498</ele>
        <time>2022-09-29T13:01:16Z</time>
      </trkpt>
      <trkpt lat="44.41326" lon="5.23754">
        <ele>498</ele>
        <time>2022-09-29T13:01:17Z</time>
      </trkpt>
      <trkpt lat="44.41325" lon="5.23755">
        <ele>498</ele>
        <time>2022-09-29T13:01:18Z</time>
      </trkpt>
      <trkpt lat="44.41325" lon="5.23756">
        <ele>498</ele>
        <time>2022-09-29T13:01:19Z</time>
      </trkpt>
      <trkpt lat="44.41324" lon="5.23756">
        <ele>498</ele>
        <time>2022-09-29T13:01:20Z</time>
      </trkpt>
      <trkpt lat="44.41324" lon="5.23757">
        <ele>498</ele>
        <time>2022-09-29T13:01:21Z</time>
      </trkpt>
      <trkpt lat="44.41323" lon="5.23758">
        <ele>498</ele>
        <time>2022-09-29T13:01:22Z</time>
      </trkpt>
      <trkpt lat="44.41323" lon="5.23759">
        <ele>498</ele>
        <time>2022-09-29T13:01:23Z</time>
      </trkpt>
      <trkpt lat="44.41322" lon="5.2376">
        <ele>498</ele>
        <time>2022-09-29T13:01:24Z</time>
      </trkpt>
      <trkpt lat="44.41322" lon="5.2376">
        <ele>498</ele>
        <time>2022-09-29T13:01:25Z</time>
      </trkpt>
      <trkpt lat="44.41322" lon="5.23761">
        <ele>498</ele>
        <time>2022-09-29T13:01:26Z</time>
      </trkpt>
      <trkpt lat="44.41321" lon="5.23761">
        <ele>498</ele>
        <time>2022-09-29T13:01:27Z</time>
      </trkpt>
      <trkpt lat="44.41321" lon="5.23762">
        <ele>498</ele>
        <time>2022-09-29T13:01:28Z</time>
      </trkpt>
      <trkpt lat="44.4132" lon="5.23762">
        <ele>498</ele>
        <time>2022-09-29T13:01:29Z</time>
      </trkpt>
      <trkpt lat="44.41319" lon="5.23762">
        <ele>498</ele>
        <time>2022-09-29T13:01:30Z</time>
      </trkpt>
      <trkpt lat="44.41318" lon="5.23762">
        <ele>498</ele>
        <time>2022-09-29T13:01:31Z</time>
      </trkpt>
      <trkpt lat="44.41318" lon="5.23762">
        <ele>498</ele>
        <time>2022-09-29T13:01:32Z</time>
      </trkpt>
      <trkpt lat="44.41317" lon="5.23763">
        <ele>499</ele>
        <time>2022-09-29T13:01:33Z</time>
      </trkpt>
      <trkpt lat="44.41316" lon="5.23763">
        <ele>499</ele>
        <time>2022-09-29T13:01:34Z</time>
      </trkpt>
      <trkpt lat="44.41315" lon="5.23764">
        <ele>499</ele>
        <time>2022-09-29T13:01:35Z</time>
      </trkpt>
      <trkpt lat="44.41315" lon="5.23764">
        <ele>499</ele>
        <time>2022-09-29T13:01:36Z</time>
      </trkpt>
      <trkpt lat="44.41314" lon="5.23765">
        <ele>499</ele>
        <time>2022-09-29T13:01:37Z</time>
      </trkpt>
      <trkpt lat="44.41314" lon="5.23765">
        <ele>499</ele>
        <time>2022-09-29T13:01:38Z</time>
      </trkpt>
      <trkpt lat="44.41313" lon="5.23766">
        <ele>499</ele>
        <time>2022-09-29T13:01:39Z</time>
      </trkpt>
      <trkpt lat="44.41312" lon="5.23766">
        <ele>499</ele>
        <time>2022-09-29T13:01:40Z</time>
      </trkpt>
      <trkpt lat="44.4131" lon="5.23768">
        <ele>498</ele>
        <time>2022-09-29T13:02:34Z</time>
      </trkpt>
      <trkpt lat="44.4131" lon="5.23768">
        <ele>498</ele>
        <time>2022-09-29T13:02:35Z</time>
      </trkpt>
      <trkpt lat="44.41309" lon="5.23769">
        <ele>498</ele>
        <time>2022-09-29T13:02:36Z</time>
      </trkpt>
      <trkpt lat="44.41309" lon="5.23769">
        <ele>498</ele>
        <time>2022-09-29T13:02:37Z</time>
      </trkpt>
      <trkpt lat="44.41309" lon="5.2377">
        <ele>498</ele>
        <time>2022-09-29T13:02:38Z</time>
      </trkpt>
      <trkpt lat="44.41309" lon="5.23771">
        <ele>498</ele>
        <time>2022-09-29T13:03:43Z</time>
      </trkpt>
      <trkpt lat="44.41309" lon="5.23772">
        <ele>498</ele>
        <time>2022-09-29T13:03:44Z</time>
      </trkpt>
      <trkpt lat="44.4131" lon="5.23773">
        <ele>498</ele>
        <time>2022-09-29T13:03:45Z</time>
      </trkpt>
      <trkpt lat="44.4131" lon="5.23773">
        <ele>498</ele>
        <time>2022-09-29T13:03:46Z</time>
      </trkpt>
      <trkpt lat="44.4131" lon="5.23773">
        <ele>498</ele>
        <time>2022-09-29T13:03:47Z</time>
      </trkpt>
      <trkpt lat="44.41309" lon="5.23773">
        <ele>498</ele>
        <time>2022-09-29T13:09:48Z</time>
      </trkpt>
      <trkpt lat="44.41308" lon="5.23774">
        <ele>498</ele>
        <time>2022-09-29T13:09:49Z</time>
      </trkpt>
      <trkpt lat="44.41307" lon="5.23774">
        <ele>498</ele>
        <time>2022-09-29T13:09:50Z</time>
      </trkpt>
      <trkpt lat="44.41307" lon="5.23774">
        <ele>498</ele>
        <time>2022-09-29T13:09:51Z</time>
      </trkpt>
      <trkpt lat="44.41306" lon="5.23774">
        <ele>498</ele>
        <time>2022-09-29T13:09:52Z</time>
      </trkpt>
      <trkpt lat="44.41306" lon="5.23774">
        <ele>498</ele>
        <time>2022-09-29T13:09:53Z</time>
      </trkpt>
      <trkpt lat="44.41305" lon="5.23774">
        <ele>498</ele>
        <time>2022-09-29T13:09:54Z</time>
      </trkpt>
      <trkpt lat="44.41305" lon="5.23774">
        <ele>498</ele>
        <time>2022-09-29T13:09:55Z</time>
      </trkpt>
      <trkpt lat="44.41304" lon="5.23773">
        <ele>498</ele>
        <time>2022-09-29T13:09:56Z</time>
      </trkpt>
      <trkpt lat="44.41303" lon="5.23773">
        <ele>498</ele>
        <time>2022-09-29T13:09:57Z</time>
      </trkpt>
      <trkpt lat="44.41303" lon="5.23772">
        <ele>498</ele>
        <time>2022-09-29T13:09:58Z</time>
      </trkpt>
      <trkpt lat="44.41302" lon="5.23771">
        <ele>498</ele>
        <time>2022-09-29T13:09:59Z</time>
      </trkpt>
      <trkpt lat="44.41301" lon="5.23771">
        <ele>498</ele>
        <time>2022-09-29T13:10:00Z</time>
      </trkpt>
      <trkpt lat="44.41301" lon="5.2377">
        <ele>498</ele>
        <time>2022-09-29T13:10:01Z</time>
      </trkpt>
      <trkpt lat="44.413" lon="5.23769">
        <ele>498</ele>
        <time>2022-09-29T13:10:02Z</time>
      </trkpt>
      <trkpt lat="44.413" lon="5.23769">
        <ele>499</ele>
        <time>2022-09-29T13:10:03Z</time>
      </trkpt>
      <trkpt lat="44.41299" lon="5.23768">
        <ele>499</ele>
        <time>2022-09-29T13:10:04Z</time>
      </trkpt>
      <trkpt lat="44.41299" lon="5.23768">
        <ele>499</ele>
        <time>2022-09-29T13:10:05Z</time>
      </trkpt>
      <trkpt lat="44.41298" lon="5.23768">
        <ele>499</ele>
        <time>2022-09-29T13:10:06Z</time>
      </trkpt>
      <trkpt lat="44.41298" lon="5.23767">
        <ele>499</ele>
        <time>2022-09-29T13:10:07Z</time>
      </trkpt>
      <trkpt lat="44.41297" lon="5.23767">
        <ele>499</ele>
        <time>2022-09-29T13:10:08Z</time>
      </trkpt>
      <trkpt lat="44.41297" lon="5.23767">
        <ele>499</ele>
        <time>2022-09-29T13:10:09Z</time>
      </trkpt>
      <trkpt lat="44.41296" lon="5.23767">
        <ele>499</ele>
        <time>2022-09-29T13:10:10Z</time>
      </trkpt>
      <trkpt lat="44.41296" lon="5.23766">
        <ele>499</ele>
        <time>2022-09-29T13:10:11Z</time>
      </trkpt>
      <trkpt lat="44.41295" lon="5.23766">
        <ele>499</ele>
        <time>2022-09-29T13:10:12Z</time>
      </trkpt>
      <trkpt lat="44.41294" lon="5.23766">
        <ele>500</ele>
        <time>2022-09-29T13:10:13Z</time>
      </trkpt>
      <trkpt lat="44.41294" lon="5.23766">
        <ele>500</ele>
        <time>2022-09-29T13:10:14Z</time>
      </trkpt>
      <trkpt lat="44.41293" lon="5.23765">
        <ele>500</ele>
        <time>2022-09-29T13:10:15Z</time>
      </trkpt>
      <trkpt lat="44.41292" lon="5.23765">
        <ele>501</ele>
        <time>2022-09-29T13:10:22Z</time>
      </trkpt>
      <trkpt lat="44.41291" lon="5.23764">
        <ele>501</ele>
        <time>2022-09-29T13:10:23Z</time>
      </trkpt>
      <trkpt lat="44.41291" lon="5.23764">
        <ele>501</ele>
        <time>2022-09-29T13:10:24Z</time>
      </trkpt>
      <trkpt lat="44.4129" lon="5.23763">
        <ele>501</ele>
        <time>2022-09-29T13:10:25Z</time>
      </trkpt>
      <trkpt lat="44.41289" lon="5.23763">
        <ele>501</ele>
        <time>2022-09-29T13:10:26Z</time>
      </trkpt>
      <trkpt lat="44.41289" lon="5.23763">
        <ele>501</ele>
        <time>2022-09-29T13:10:27Z</time>
      </trkpt>
      <trkpt lat="44.41288" lon="5.23762">
        <ele>502</ele>
        <time>2022-09-29T13:10:28Z</time>
      </trkpt>
      <trkpt lat="44.41288" lon="5.23762">
        <ele>502</ele>
        <time>2022-09-29T13:10:29Z</time>
      </trkpt>
      <trkpt lat="44.41287" lon="5.23762">
        <ele>502</ele>
        <time>2022-09-29T13:10:30Z</time>
      </trkpt>
      <trkpt lat="44.41287" lon="5.23762">
        <ele>502</ele>
        <time>2022-09-29T13:10:31Z</time>
      </trkpt>
      <trkpt lat="44.41286" lon="5.23761">
        <ele>502</ele>
        <time>2022-09-29T13:10:32Z</time>
      </trkpt>
      <trkpt lat="44.41286" lon="5.23761">
        <ele>503</ele>
        <time>2022-09-29T13:10:33Z</time>
      </trkpt>
      <trkpt lat="44.41285" lon="5.23761">
        <ele>503</ele>
        <time>2022-09-29T13:10:34Z</time>
      </trkpt>
      <trkpt lat="44.41285" lon="5.23761">
        <ele>503</ele>
        <time>2022-09-29T13:10:35Z</time>
      </trkpt>
      <trkpt lat="44.41285" lon="5.23761">
        <ele>503</ele>
        <time>2022-09-29T13:10:36Z</time>
      </trkpt>
      <trkpt lat="44.41285" lon="5.23761">
        <ele>503</ele>
        <time>2022-09-29T13:10:37Z</time>
      </trkpt>
      <trkpt lat="44.41284" lon="5.2376">
        <ele>503</ele>
        <time>2022-09-29T13:10:38Z</time>
      </trkpt>
      <trkpt lat="44.41283" lon="5.2376">
        <ele>503</ele>
        <time>2022-09-29T13:10:39Z</time>
      </trkpt>
      <trkpt lat="44.41283" lon="5.2376">
        <ele>503</ele>
        <time>2022-09-29T13:10:40Z</time>
      </trkpt>
      <trkpt lat="44.41282" lon="5.2376">
        <ele>503</ele>
        <time>2022-09-29T13:10:41Z</time>
      </trkpt>
      <trkpt lat="44.41281" lon="5.2376">
        <ele>503</ele>
        <time>2022-09-29T13:10:42Z</time>
      </trkpt>
      <trkpt lat="44.41281" lon="5.2376">
        <ele>504</ele>
        <time>2022-09-29T13:10:43Z</time>
      </trkpt>
      <trkpt lat="44.4128" lon="5.23759">
        <ele>504</ele>
        <time>2022-09-29T13:10:44Z</time>
      </trkpt>
      <trkpt lat="44.41279" lon="5.23759">
        <ele>504</ele>
        <time>2022-09-29T13:10:45Z</time>
      </trkpt>
      <trkpt lat="44.41279" lon="5.23759">
        <ele>504</ele>
        <time>2022-09-29T13:10:46Z</time>
      </trkpt>
      <trkpt lat="44.41278" lon="5.23759">
        <ele>504</ele>
        <time>2022-09-29T13:10:47Z</time>
      </trkpt>
      <trkpt lat="44.41278" lon="5.23758">
        <ele>505</ele>
        <time>2022-09-29T13:10:48Z</time>
      </trkpt>
      <trkpt lat="44.41277" lon="5.23758">
        <ele>505</ele>
        <time>2022-09-29T13:10:49Z</time>
      </trkpt>
      <trkpt lat="44.41276" lon="5.23757">
        <ele>505</ele>
        <time>2022-09-29T13:10:50Z</time>
      </trkpt>
      <trkpt lat="44.41276" lon="5.23757">
        <ele>505</ele>
        <time>2022-09-29T13:10:51Z</time>
      </trkpt>
      <trkpt lat="44.41275" lon="5.23756">
        <ele>505</ele>
        <time>2022-09-29T13:10:52Z</time>
      </trkpt>
      <trkpt lat="44.41275" lon="5.23756">
        <ele>506</ele>
        <time>2022-09-29T13:10:53Z</time>
      </trkpt>
      <trkpt lat="44.41275" lon="5.23755">
        <ele>506</ele>
        <time>2022-09-29T13:10:54Z</time>
      </trkpt>
      <trkpt lat="44.41274" lon="5.23755">
        <ele>506</ele>
        <time>2022-09-29T13:10:55Z</time>
      </trkpt>
      <trkpt lat="44.41274" lon="5.23754">
        <ele>506</ele>
        <time>2022-09-29T13:10:56Z</time>
      </trkpt>
      <trkpt lat="44.41274" lon="5.23753">
        <ele>506</ele>
        <time>2022-09-29T13:10:57Z</time>
      </trkpt>
      <trkpt lat="44.41274" lon="5.23753">
        <ele>506</ele>
        <time>2022-09-29T13:10:58Z</time>
      </trkpt>
      <trkpt lat="44.41273" lon="5.23752">
        <ele>506</ele>
        <time>2022-09-29T13:10:59Z</time>
      </trkpt>
      <trkpt lat="44.41273" lon="5.23751">
        <ele>506</ele>
        <time>2022-09-29T13:11:00Z</time>
      </trkpt>
      <trkpt lat="44.41273" lon="5.2375">
        <ele>506</ele>
        <time>2022-09-29T13:11:01Z</time>
      </trkpt>
      <trkpt lat="44.41273" lon="5.23749">
        <ele>506</ele>
        <time>2022-09-29T13:11:02Z</time>
      </trkpt>
      <trkpt lat="44.41273" lon="5.23749">
        <ele>507</ele>
        <time>2022-09-29T13:11:03Z</time>
      </trkpt>
      <trkpt lat="44.41273" lon="5.23748">
        <ele>507</ele>
        <time>2022-09-29T13:11:04Z</time>
      </trkpt>
      <trkpt lat="44.41272" lon="5.23747">
        <ele>507</ele>
        <time>2022-09-29T13:11:05Z</time>
      </trkpt>
      <trkpt lat="44.41273" lon="5.23746">
        <ele>507</ele>
        <time>2022-09-29T13:11:06Z</time>
      </trkpt>
      <trkpt lat="44.41273" lon="5.23745">
        <ele>507</ele>
        <time>2022-09-29T13:11:07Z</time>
      </trkpt>
      <trkpt lat="44.41273" lon="5.23744">
        <ele>508</ele>
        <time>2022-09-29T13:11:08Z</time>
      </trkpt>
      <trkpt lat="44.41273" lon="5.23744">
        <ele>508</ele>
        <time>2022-09-29T13:11:09Z</time>
      </trkpt>
      <trkpt lat="44.41273" lon="5.23743">
        <ele>508</ele>
        <time>2022-09-29T13:11:10Z</time>
      </trkpt>
      <trkpt lat="44.41273" lon="5.23742">
        <ele>508</ele>
        <time>2022-09-29T13:11:11Z</time>
      </trkpt>
      <trkpt lat="44.41273" lon="5.23741">
        <ele>508</ele>
        <time>2022-09-29T13:11:12Z</time>
      </trkpt>
      <trkpt lat="44.41274" lon="5.2374">
        <ele>508</ele>
        <time>2022-09-29T13:11:13Z</time>
      </trkpt>
      <trkpt lat="44.41274" lon="5.23739">
        <ele>508</ele>
        <time>2022-09-29T13:11:14Z</time>
      </trkpt>
      <trkpt lat="44.41274" lon="5.23737">
        <ele>508</ele>
        <time>2022-09-29T13:11:15Z</time>
      </trkpt>
      <trkpt lat="44.41274" lon="5.23736">
        <ele>508</ele>
        <time>2022-09-29T13:11:16Z</time>
      </trkpt>
      <trkpt lat="44.41275" lon="5.23735">
        <ele>508</ele>
        <time>2022-09-29T13:11:17Z</time>
      </trkpt>
      <trkpt lat="44.41275" lon="5.23735">
        <ele>509</ele>
        <time>2022-09-29T13:11:18Z</time>
      </trkpt>
      <trkpt lat="44.41276" lon="5.23734">
        <ele>509</ele>
        <time>2022-09-29T13:11:19Z</time>
      </trkpt>
      <trkpt lat="44.41276" lon="5.23733">
        <ele>509</ele>
        <time>2022-09-29T13:11:20Z</time>
      </trkpt>
      <trkpt lat="44.41276" lon="5.23732">
        <ele>509</ele>
        <time>2022-09-29T13:11:21Z</time>
      </trkpt>
      <trkpt lat="44.41276" lon="5.23731">
        <ele>509</ele>
        <time>2022-09-29T13:11:22Z</time>
      </trkpt>
      <trkpt lat="44.41277" lon="5.23729">
        <ele>510</ele>
        <time>2022-09-29T13:11:23Z</time>
      </trkpt>
      <trkpt lat="44.41277" lon="5.23729">
        <ele>510</ele>
        <time>2022-09-29T13:11:24Z</time>
      </trkpt>
      <trkpt lat="44.41277" lon="5.23728">
        <ele>510</ele>
        <time>2022-09-29T13:11:25Z</time>
      </trkpt>
      <trkpt lat="44.41277" lon="5.23727">
        <ele>510</ele>
        <time>2022-09-29T13:11:26Z</time>
      </trkpt>
      <trkpt lat="44.41277" lon="5.23726">
        <ele>510</ele>
        <time>2022-09-29T13:11:27Z</time>
      </trkpt>
      <trkpt lat="44.41277" lon="5.23725">
        <ele>510</ele>
        <time>2022-09-29T13:11:28Z</time>
      </trkpt>
      <trkpt lat="44.41277" lon="5.23724">
        <ele>510</ele>
        <time>2022-09-29T13:11:29Z</time>
      </trkpt>
      <trkpt lat="44.41277" lon="5.23723">
        <ele>510</ele>
        <time>2022-09-29T13:11:30Z</time>
      </trkpt>
      <trkpt lat="44.41277" lon="5.23722">
        <ele>510</ele>
        <time>2022-09-29T13:11:31Z</time>
      </trkpt>
      <trkpt lat="44.41277" lon="5.23722">
        <ele>510</ele>
        <time>2022-09-29T13:11:32Z</time>
      </trkpt>
      <trkpt lat="44.41276" lon="5.23721">
        <ele>511</ele>
        <time>2022-09-29T13:11:33Z</time>
      </trkpt>
      <trkpt lat="44.41276" lon="5.2372">
        <ele>511</ele>
        <time>2022-09-29T13:11:34Z</time>
      </trkpt>
      <trkpt lat="44.41276" lon="5.2372">
        <ele>511</ele>
        <time>2022-09-29T13:11:35Z</time>
      </trkpt>
      <trkpt lat="44.41275" lon="5.23719">
        <ele>511</ele>
        <time>2022-09-29T13:11:36Z</time>
      </trkpt>
      <trkpt lat="44.41275" lon="5.23719">
        <ele>511</ele>
        <time>2022-09-29T13:11:37Z</time>
      </trkpt>
      <trkpt lat="44.41274" lon="5.23718">
        <ele>512</ele>
        <time>2022-09-29T13:11:38Z</time>
      </trkpt>
      <trkpt lat="44.41274" lon="5.23717">
        <ele>512</ele>
        <time>2022-09-29T13:11:39Z</time>
      </trkpt>
      <trkpt lat="44.41274" lon="5.23716">
        <ele>512</ele>
        <time>2022-09-29T13:11:40Z</time>
      </trkpt>
      <trkpt lat="44.41273" lon="5.23716">
        <ele>512</ele>
        <time>2022-09-29T13:11:41Z</time>
      </trkpt>
      <trkpt lat="44.41273" lon="5.23715">
        <ele>512</ele>
        <time>2022-09-29T13:11:42Z</time>
      </trkpt>
      <trkpt lat="44.41273" lon="5.23714">
        <ele>513</ele>
        <time>2022-09-29T13:11:43Z</time>
      </trkpt>
      <trkpt lat="44.41273" lon="5.23714">
        <ele>513</ele>
        <time>2022-09-29T13:11:44Z</time>
      </trkpt>
      <trkpt lat="44.41272" lon="5.23713">
        <ele>513</ele>
        <time>2022-09-29T13:11:45Z</time>
      </trkpt>
      <trkpt lat="44.41272" lon="5.23712">
        <ele>513</ele>
        <time>2022-09-29T13:11:46Z</time>
      </trkpt>
      <trkpt lat="44.41272" lon="5.23711">
        <ele>513</ele>
        <time>2022-09-29T13:11:47Z</time>
      </trkpt>
      <trkpt lat="44.41271" lon="5.2371">
        <ele>513</ele>
        <time>2022-09-29T13:11:48Z</time>
      </trkpt>
      <trkpt lat="44.41271" lon="5.2371">
        <ele>513</ele>
        <time>2022-09-29T13:11:49Z</time>
      </trkpt>
      <trkpt lat="44.41271" lon="5.23709">
        <ele>513</ele>
        <time>2022-09-29T13:11:50Z</time>
      </trkpt>
      <trkpt lat="44.41271" lon="5.23708">
        <ele>513</ele>
        <time>2022-09-29T13:11:51Z</time>
      </trkpt>
      <trkpt lat="44.41271" lon="5.23707">
        <ele>513</ele>
        <time>2022-09-29T13:11:52Z</time>
      </trkpt>
      <trkpt lat="44.41271" lon="5.23706">
        <ele>514</ele>
        <time>2022-09-29T13:11:53Z</time>
      </trkpt>
      <trkpt lat="44.4127" lon="5.23705">
        <ele>514</ele>
        <time>2022-09-29T13:11:54Z</time>
      </trkpt>
      <trkpt lat="44.4127" lon="5.23704">
        <ele>514</ele>
        <time>2022-09-29T13:11:55Z</time>
      </trkpt>
      <trkpt lat="44.4127" lon="5.23704">
        <ele>514</ele>
        <time>2022-09-29T13:11:56Z</time>
      </trkpt>
      <trkpt lat="44.4127" lon="5.23703">
        <ele>514</ele>
        <time>2022-09-29T13:11:57Z</time>
      </trkpt>
      <trkpt lat="44.4127" lon="5.23702">
        <ele>514</ele>
        <time>2022-09-29T13:11:58Z</time>
      </trkpt>
      <trkpt lat="44.4127" lon="5.23702">
        <ele>514</ele>
        <time>2022-09-29T13:11:59Z</time>
      </trkpt>
      <trkpt lat="44.4127" lon="5.237">
        <ele>514</ele>
        <time>2022-09-29T13:12:00Z</time>
      </trkpt>
      <trkpt lat="44.41269" lon="5.23699">
        <ele>514</ele>
        <time>2022-09-29T13:12:01Z</time>
      </trkpt>
      <trkpt lat="44.41269" lon="5.23699">
        <ele>514</ele>
        <time>2022-09-29T13:12:02Z</time>
      </trkpt>
      <trkpt lat="44.41269" lon="5.23698">
        <ele>515</ele>
        <time>2022-09-29T13:12:03Z</time>
      </trkpt>
      <trkpt lat="44.41269" lon="5.23697">
        <ele>515</ele>
        <time>2022-09-29T13:12:04Z</time>
      </trkpt>
      <trkpt lat="44.41269" lon="5.23696">
        <ele>515</ele>
        <time>2022-09-29T13:12:05Z</time>
      </trkpt>
      <trkpt lat="44.41268" lon="5.23695">
        <ele>515</ele>
        <time>2022-09-29T13:12:06Z</time>
      </trkpt>
      <trkpt lat="44.41268" lon="5.23694">
        <ele>515</ele>
        <time>2022-09-29T13:12:07Z</time>
      </trkpt>
      <trkpt lat="44.41268" lon="5.23693">
        <ele>516</ele>
        <time>2022-09-29T13:12:08Z</time>
      </trkpt>
      <trkpt lat="44.41268" lon="5.23693">
        <ele>516</ele>
        <time>2022-09-29T13:12:09Z</time>
      </trkpt>
      <trkpt lat="44.41267" lon="5.23692">
        <ele>516</ele>
        <time>2022-09-29T13:12:10Z</time>
      </trkpt>
      <trkpt lat="44.41267" lon="5.23691">
        <ele>516</ele>
        <time>2022-09-29T13:12:11Z</time>
      </trkpt>
      <trkpt lat="44.41267" lon="5.2369">
        <ele>516</ele>
        <time>2022-09-29T13:12:12Z</time>
      </trkpt>
      <trkpt lat="44.41267" lon="5.23689">
        <ele>516</ele>
        <time>2022-09-29T13:12:13Z</time>
      </trkpt>
      <trkpt lat="44.41267" lon="5.23688">
        <ele>516</ele>
        <time>2022-09-29T13:12:14Z</time>
      </trkpt>
      <trkpt lat="44.41267" lon="5.23687">
        <ele>516</ele>
        <time>2022-09-29T13:12:15Z</time>
      </trkpt>
      <trkpt lat="44.41267" lon="5.23686">
        <ele>516</ele>
        <time>2022-09-29T13:12:16Z</time>
      </trkpt>
      <trkpt lat="44.41267" lon="5.23685">
        <ele>516</ele>
        <time>2022-09-29T13:12:17Z</time>
      </trkpt>
      <trkpt lat="44.41267" lon="5.23684">
        <ele>517</ele>
        <time>2022-09-29T13:12:18Z</time>
      </trkpt>
      <trkpt lat="44.41266" lon="5.23683">
        <ele>517</ele>
        <time>2022-09-29T13:12:19Z</time>
      </trkpt>
      <trkpt lat="44.41266" lon="5.23682">
        <ele>517</ele>
        <time>2022-09-29T13:12:20Z</time>
      </trkpt>
      <trkpt lat="44.41266" lon="5.23681">
        <ele>517</ele>
        <time>2022-09-29T13:12:21Z</time>
      </trkpt>
      <trkpt lat="44.41266" lon="5.2368">
        <ele>517</ele>
        <time>2022-09-29T13:12:22Z</time>
      </trkpt>
      <trkpt lat="44.41266" lon="5.23679">
        <ele>518</ele>
        <time>2022-09-29T13:12:23Z</time>
      </trkpt>
      <trkpt lat="44.41265" lon="5.23678">
        <ele>518</ele>
        <time>2022-09-29T13:12:24Z</time>
      </trkpt>
      <trkpt lat="44.41265" lon="5.23677">
        <ele>518</ele>
        <time>2022-09-29T13:12:25Z</time>
      </trkpt>
      <trkpt lat="44.41265" lon="5.23676">
        <ele>518</ele>
        <time>2022-09-29T13:12:26Z</time>
      </trkpt>
      <trkpt lat="44.41265" lon="5.23675">
        <ele>518</ele>
        <time>2022-09-29T13:12:27Z</time>
      </trkpt>
      <trkpt lat="44.41265" lon="5.23675">
        <ele>518</ele>
        <time>2022-09-29T13:12:28Z</time>
      </trkpt>
      <trkpt lat="44.41264" lon="5.23674">
        <ele>518</ele>
        <time>2022-09-29T13:12:29Z</time>
      </trkpt>
      <trkpt lat="44.41264" lon="5.23673">
        <ele>518</ele>
        <time>2022-09-29T13:12:30Z</time>
      </trkpt>
      <trkpt lat="44.41264" lon="5.23672">
        <ele>518</ele>
        <time>2022-09-29T13:12:31Z</time>
      </trkpt>
      <trkpt lat="44.41264" lon="5.23671">
        <ele>518</ele>
        <time>2022-09-29T13:12:32Z</time>
      </trkpt>
      <trkpt lat="44.41264" lon="5.23671">
        <ele>519</ele>
        <time>2022-09-29T13:12:33Z</time>
      </trkpt>
      <trkpt lat="44.41264" lon="5.2367">
        <ele>519</ele>
        <time>2022-09-29T13:12:34Z</time>
      </trkpt>
      <trkpt lat="44.41264" lon="5.23669">
        <ele>519</ele>
        <time>2022-09-29T13:12:35Z</time>
      </trkpt>
      <trkpt lat="44.41264" lon="5.23668">
        <ele>519</ele>
        <time>2022-09-29T13:12:36Z</time>
      </trkpt>
      <trkpt lat="44.41264" lon="5.23667">
        <ele>519</ele>
        <time>2022-09-29T13:12:37Z</time>
      </trkpt>
      <trkpt lat="44.41264" lon="5.23666">
        <ele>519</ele>
        <time>2022-09-29T13:12:38Z</time>
      </trkpt>
      <trkpt lat="44.41264" lon="5.23665">
        <ele>519</ele>
        <time>2022-09-29T13:12:39Z</time>
      </trkpt>
      <trkpt lat="44.41263" lon="5.23664">
        <ele>519</ele>
        <time>2022-09-29T13:12:40Z</time>
      </trkpt>
      <trkpt lat="44.41263" lon="5.23663">
        <ele>519</ele>
        <time>2022-09-29T13:12:41Z</time>
      </trkpt>
      <trkpt lat="44.41263" lon="5.23662">
        <ele>519</ele>
        <time>2022-09-29T13:12:42Z</time>
      </trkpt>
      <trkpt lat="44.41263" lon="5.23661">
        <ele>520</ele>
        <time>2022-09-29T13:12:43Z</time>
      </trkpt>
      <trkpt lat="44.41263" lon="5.2366">
        <ele>520</ele>
        <time>2022-09-29T13:12:44Z</time>
      </trkpt>
      <trkpt lat="44.41263" lon="5.23659">
        <ele>520</ele>
        <time>2022-09-29T13:12:45Z</time>
      </trkpt>
      <trkpt lat="44.41262" lon="5.23658">
        <ele>520</ele>
        <time>2022-09-29T13:12:46Z</time>
      </trkpt>
      <trkpt lat="44.41262" lon="5.23657">
        <ele>520</ele>
        <time>2022-09-29T13:12:47Z</time>
      </trkpt>
      <trkpt lat="44.41262" lon="5.23656">
        <ele>521</ele>
        <time>2022-09-29T13:12:48Z</time>
      </trkpt>
      <trkpt lat="44.41262" lon="5.23655">
        <ele>521</ele>
        <time>2022-09-29T13:12:49Z</time>
      </trkpt>
      <trkpt lat="44.41261" lon="5.23654">
        <ele>521</ele>
        <time>2022-09-29T13:12:50Z</time>
      </trkpt>
      <trkpt lat="44.41261" lon="5.23653">
        <ele>521</ele>
        <time>2022-09-29T13:12:51Z</time>
      </trkpt>
      <trkpt lat="44.41261" lon="5.23652">
        <ele>521</ele>
        <time>2022-09-29T13:12:52Z</time>
      </trkpt>
      <trkpt lat="44.41261" lon="5.23651">
        <ele>521</ele>
        <time>2022-09-29T13:12:53Z</time>
      </trkpt>
      <trkpt lat="44.41261" lon="5.23651">
        <ele>521</ele>
        <time>2022-09-29T13:12:54Z</time>
      </trkpt>
      <trkpt lat="44.4126" lon="5.2365">
        <ele>521</ele>
        <time>2022-09-29T13:12:55Z</time>
      </trkpt>
      <trkpt lat="44.4126" lon="5.23649">
        <ele>521</ele>
        <time>2022-09-29T13:12:56Z</time>
      </trkpt>
      <trkpt lat="44.4126" lon="5.23648">
        <ele>521</ele>
        <time>2022-09-29T13:12:57Z</time>
      </trkpt>
      <trkpt lat="44.4126" lon="5.23647">
        <ele>522</ele>
        <time>2022-09-29T13:12:58Z</time>
      </trkpt>
      <trkpt lat="44.41259" lon="5.23646">
        <ele>522</ele>
        <time>2022-09-29T13:12:59Z</time>
      </trkpt>
      <trkpt lat="44.41259" lon="5.23645">
        <ele>522</ele>
        <time>2022-09-29T13:13:00Z</time>
      </trkpt>
      <trkpt lat="44.41259" lon="5.23644">
        <ele>522</ele>
        <time>2022-09-29T13:13:01Z</time>
      </trkpt>
      <trkpt lat="44.41258" lon="5.23643">
        <ele>522</ele>
        <time>2022-09-29T13:13:02Z</time>
      </trkpt>
      <trkpt lat="44.41258" lon="5.23642">
        <ele>523</ele>
        <time>2022-09-29T13:13:03Z</time>
      </trkpt>
      <trkpt lat="44.41257" lon="5.23641">
        <ele>523</ele>
        <time>2022-09-29T13:13:04Z</time>
      </trkpt>
      <trkpt lat="44.41257" lon="5.23641">
        <ele>523</ele>
        <time>2022-09-29T13:13:05Z</time>
      </trkpt>
      <trkpt lat="44.41257" lon="5.2364">
        <ele>523</ele>
        <time>2022-09-29T13:13:06Z</time>
      </trkpt>
      <trkpt lat="44.41256" lon="5.23639">
        <ele>523</ele>
        <time>2022-09-29T13:13:07Z</time>
      </trkpt>
      <trkpt lat="44.41256" lon="5.23638">
        <ele>523</ele>
        <time>2022-09-29T13:13:08Z</time>
      </trkpt>
      <trkpt lat="44.41255" lon="5.23638">
        <ele>523</ele>
        <time>2022-09-29T13:13:09Z</time>
      </trkpt>
      <trkpt lat="44.41255" lon="5.23637">
        <ele>523</ele>
        <time>2022-09-29T13:13:10Z</time>
      </trkpt>
      <trkpt lat="44.41254" lon="5.23636">
        <ele>523</ele>
        <time>2022-09-29T13:13:11Z</time>
      </trkpt>
      <trkpt lat="44.41254" lon="5.23636">
        <ele>523</ele>
        <time>2022-09-29T13:13:12Z</time>
      </trkpt>
      <trkpt lat="44.41254" lon="5.23635">
        <ele>524</ele>
        <time>2022-09-29T13:13:13Z</time>
      </trkpt>
      <trkpt lat="44.41253" lon="5.23634">
        <ele>524</ele>
        <time>2022-09-29T13:13:14Z</time>
      </trkpt>
      <trkpt lat="44.41253" lon="5.23633">
        <ele>524</ele>
        <time>2022-09-29T13:13:15Z</time>
      </trkpt>
      <trkpt lat="44.41253" lon="5.23633">
        <ele>524</ele>
        <time>2022-09-29T13:13:16Z</time>
      </trkpt>
      <trkpt lat="44.41252" lon="5.23632">
        <ele>524</ele>
        <time>2022-09-29T13:13:17Z</time>
      </trkpt>
      <trkpt lat="44.41252" lon="5.23631">
        <ele>525</ele>
        <time>2022-09-29T13:13:18Z</time>
      </trkpt>
      <trkpt lat="44.41251" lon="5.2363">
        <ele>525</ele>
        <time>2022-09-29T13:13:19Z</time>
      </trkpt>
      <trkpt lat="44.41251" lon="5.2363">
        <ele>525</ele>
        <time>2022-09-29T13:13:20Z</time>
      </trkpt>
      <trkpt lat="44.41251" lon="5.23629">
        <ele>525</ele>
        <time>2022-09-29T13:13:21Z</time>
      </trkpt>
      <trkpt lat="44.4125" lon="5.23628">
        <ele>525</ele>
        <time>2022-09-29T13:13:22Z</time>
      </trkpt>
      <trkpt lat="44.4125" lon="5.23628">
        <ele>525</ele>
        <time>2022-09-29T13:13:23Z</time>
      </trkpt>
      <trkpt lat="44.41249" lon="5.23627">
        <ele>525</ele>
        <time>2022-09-29T13:13:24Z</time>
      </trkpt>
      <trkpt lat="44.41249" lon="5.23626">
        <ele>525</ele>
        <time>2022-09-29T13:13:25Z</time>
      </trkpt>
      <trkpt lat="44.41248" lon="5.23625">
        <ele>525</ele>
        <time>2022-09-29T13:13:26Z</time>
      </trkpt>
      <trkpt lat="44.41247" lon="5.23624">
        <ele>525</ele>
        <time>2022-09-29T13:13:27Z</time>
      </trkpt>
      <trkpt lat="44.41247" lon="5.23623">
        <ele>526</ele>
        <time>2022-09-29T13:13:28Z</time>
      </trkpt>
      <trkpt lat="44.41246" lon="5.23623">
        <ele>526</ele>
        <time>2022-09-29T13:13:29Z</time>
      </trkpt>
      <trkpt lat="44.41246" lon="5.23622">
        <ele>526</ele>
        <time>2022-09-29T13:13:30Z</time>
      </trkpt>
      <trkpt lat="44.41245" lon="5.23621">
        <ele>526</ele>
        <time>2022-09-29T13:13:31Z</time>
      </trkpt>
      <trkpt lat="44.41245" lon="5.2362">
        <ele>526</ele>
        <time>2022-09-29T13:13:32Z</time>
      </trkpt>
      <trkpt lat="44.41244" lon="5.2362">
        <ele>527</ele>
        <time>2022-09-29T13:13:33Z</time>
      </trkpt>
      <trkpt lat="44.41244" lon="5.23619">
        <ele>527</ele>
        <time>2022-09-29T13:13:34Z</time>
      </trkpt>
      <trkpt lat="44.41243" lon="5.23618">
        <ele>527</ele>
        <time>2022-09-29T13:13:35Z</time>
      </trkpt>
      <trkpt lat="44.41243" lon="5.23618">
        <ele>527</ele>
        <time>2022-09-29T13:13:36Z</time>
      </trkpt>
      <trkpt lat="44.41242" lon="5.23618">
        <ele>527</ele>
        <time>2022-09-29T13:13:37Z</time>
      </trkpt>
      <trkpt lat="44.41241" lon="5.23617">
        <ele>527</ele>
        <time>2022-09-29T13:13:38Z</time>
      </trkpt>
      <trkpt lat="44.41241" lon="5.23616">
        <ele>527</ele>
        <time>2022-09-29T13:13:39Z</time>
      </trkpt>
      <trkpt lat="44.41241" lon="5.23616">
        <ele>527</ele>
        <time>2022-09-29T13:13:40Z</time>
      </trkpt>
      <trkpt lat="44.4124" lon="5.23615">
        <ele>527</ele>
        <time>2022-09-29T13:13:41Z</time>
      </trkpt>
      <trkpt lat="44.4124" lon="5.23614">
        <ele>527</ele>
        <time>2022-09-29T13:13:42Z</time>
      </trkpt>
      <trkpt lat="44.41239" lon="5.23614">
        <ele>528</ele>
        <time>2022-09-29T13:13:43Z</time>
      </trkpt>
      <trkpt lat="44.41239" lon="5.23613">
        <ele>528</ele>
        <time>2022-09-29T13:13:44Z</time>
      </trkpt>
      <trkpt lat="44.41239" lon="5.23612">
        <ele>528</ele>
        <time>2022-09-29T13:13:45Z</time>
      </trkpt>
      <trkpt lat="44.41238" lon="5.23611">
        <ele>528</ele>
        <time>2022-09-29T13:13:46Z</time>
      </trkpt>
      <trkpt lat="44.41238" lon="5.2361">
        <ele>528</ele>
        <time>2022-09-29T13:13:47Z</time>
      </trkpt>
      <trkpt lat="44.41238" lon="5.23609">
        <ele>529</ele>
        <time>2022-09-29T13:13:48Z</time>
      </trkpt>
      <trkpt lat="44.41237" lon="5.23609">
        <ele>529</ele>
        <time>2022-09-29T13:13:49Z</time>
      </trkpt>
      <trkpt lat="44.41237" lon="5.23608">
        <ele>529</ele>
        <time>2022-09-29T13:13:50Z</time>
      </trkpt>
      <trkpt lat="44.41237" lon="5.23607">
        <ele>529</ele>
        <time>2022-09-29T13:13:51Z</time>
      </trkpt>
      <trkpt lat="44.41236" lon="5.23606">
        <ele>529</ele>
        <time>2022-09-29T13:13:52Z</time>
      </trkpt>
      <trkpt lat="44.41236" lon="5.23605">
        <ele>529</ele>
        <time>2022-09-29T13:13:53Z</time>
      </trkpt>
      <trkpt lat="44.41236" lon="5.23604">
        <ele>529</ele>
        <time>2022-09-29T13:13:54Z</time>
      </trkpt>
      <trkpt lat="44.41235" lon="5.23603">
        <ele>529</ele>
        <time>2022-09-29T13:13:55Z</time>
      </trkpt>
      <trkpt lat="44.41235" lon="5.23603">
        <ele>529</ele>
        <time>2022-09-29T13:13:56Z</time>
      </trkpt>
      <trkpt lat="44.41235" lon="5.23602">
        <ele>529</ele>
        <time>2022-09-29T13:13:57Z</time>
      </trkpt>
      <trkpt lat="44.41235" lon="5.23601">
        <ele>530</ele>
        <time>2022-09-29T13:13:58Z</time>
      </trkpt>
      <trkpt lat="44.41234" lon="5.236">
        <ele>530</ele>
        <time>2022-09-29T13:13:59Z</time>
      </trkpt>
      <trkpt lat="44.41234" lon="5.23599">
        <ele>530</ele>
        <time>2022-09-29T13:14:00Z</time>
      </trkpt>
      <trkpt lat="44.41234" lon="5.23598">
        <ele>530</ele>
        <time>2022-09-29T13:14:01Z</time>
      </trkpt>
      <trkpt lat="44.41234" lon="5.23597">
        <ele>530</ele>
        <time>2022-09-29T13:14:02Z</time>
      </trkpt>
      <trkpt lat="44.41234" lon="5.23596">
        <ele>531</ele>
        <time>2022-09-29T13:14:03Z</time>
      </trkpt>
      <trkpt lat="44.41234" lon="5.23595">
        <ele>531</ele>
        <time>2022-09-29T13:14:04Z</time>
      </trkpt>
      <trkpt lat="44.41234" lon="5.23593">
        <ele>531</ele>
        <time>2022-09-29T13:14:05Z</time>
      </trkpt>
      <trkpt lat="44.41234" lon="5.23592">
        <ele>531</ele>
        <time>2022-09-29T13:14:06Z</time>
      </trkpt>
      <trkpt lat="44.41234" lon="5.23592">
        <ele>531</ele>
        <time>2022-09-29T13:14:07Z</time>
      </trkpt>
      <trkpt lat="44.41234" lon="5.23591">
        <ele>532</ele>
        <time>2022-09-29T13:14:08Z</time>
      </trkpt>
      <trkpt lat="44.41234" lon="5.2359">
        <ele>532</ele>
        <time>2022-09-29T13:14:09Z</time>
      </trkpt>
      <trkpt lat="44.41234" lon="5.23589">
        <ele>532</ele>
        <time>2022-09-29T13:14:10Z</time>
      </trkpt>
      <trkpt lat="44.41234" lon="5.23588">
        <ele>532</ele>
        <time>2022-09-29T13:14:11Z</time>
      </trkpt>
      <trkpt lat="44.41234" lon="5.23587">
        <ele>532</ele>
        <time>2022-09-29T13:14:12Z</time>
      </trkpt>
      <trkpt lat="44.41234" lon="5.23586">
        <ele>532</ele>
        <time>2022-09-29T13:14:13Z</time>
      </trkpt>
      <trkpt lat="44.41234" lon="5.23586">
        <ele>532</ele>
        <time>2022-09-29T13:14:14Z</time>
      </trkpt>
      <trkpt lat="44.41234" lon="5.23585">
        <ele>532</ele>
        <time>2022-09-29T13:14:15Z</time>
      </trkpt>
      <trkpt lat="44.41234" lon="5.23584">
        <ele>532</ele>
        <time>2022-09-29T13:14:16Z</time>
      </trkpt>
      <trkpt lat="44.41233" lon="5.23583">
        <ele>532</ele>
        <time>2022-09-29T13:14:17Z</time>
      </trkpt>
      <trkpt lat="44.41233" lon="5.23582">
        <ele>533</ele>
        <time>2022-09-29T13:14:18Z</time>
      </trkpt>
      <trkpt lat="44.41233" lon="5.23581">
        <ele>533</ele>
        <time>2022-09-29T13:14:19Z</time>
      </trkpt>
      <trkpt lat="44.41233" lon="5.2358">
        <ele>533</ele>
        <time>2022-09-29T13:14:20Z</time>
      </trkpt>
      <trkpt lat="44.41232" lon="5.2358">
        <ele>533</ele>
        <time>2022-09-29T13:14:21Z</time>
      </trkpt>
      <trkpt lat="44.41232" lon="5.23579">
        <ele>533</ele>
        <time>2022-09-29T13:14:22Z</time>
      </trkpt>
      <trkpt lat="44.41231" lon="5.23578">
        <ele>534</ele>
        <time>2022-09-29T13:14:23Z</time>
      </trkpt>
      <trkpt lat="44.41231" lon="5.23577">
        <ele>534</ele>
        <time>2022-09-29T13:14:24Z</time>
      </trkpt>
      <trkpt lat="44.4123" lon="5.23576">
        <ele>534</ele>
        <time>2022-09-29T13:14:25Z</time>
      </trkpt>
      <trkpt lat="44.4123" lon="5.23575">
        <ele>534</ele>
        <time>2022-09-29T13:14:26Z</time>
      </trkpt>
      <trkpt lat="44.41229" lon="5.23575">
        <ele>534</ele>
        <time>2022-09-29T13:14:27Z</time>
      </trkpt>
      <trkpt lat="44.41229" lon="5.23574">
        <ele>535</ele>
        <time>2022-09-29T13:14:28Z</time>
      </trkpt>
      <trkpt lat="44.41228" lon="5.23573">
        <ele>535</ele>
        <time>2022-09-29T13:14:29Z</time>
      </trkpt>
      <trkpt lat="44.41228" lon="5.23572">
        <ele>535</ele>
        <time>2022-09-29T13:14:30Z</time>
      </trkpt>
      <trkpt lat="44.41227" lon="5.23572">
        <ele>535</ele>
        <time>2022-09-29T13:14:31Z</time>
      </trkpt>
      <trkpt lat="44.41227" lon="5.23571">
        <ele>535</ele>
        <time>2022-09-29T13:14:32Z</time>
      </trkpt>
      <trkpt lat="44.41226" lon="5.2357">
        <ele>535</ele>
        <time>2022-09-29T13:14:33Z</time>
      </trkpt>
      <trkpt lat="44.41226" lon="5.2357">
        <ele>535</ele>
        <time>2022-09-29T13:14:34Z</time>
      </trkpt>
      <trkpt lat="44.41225" lon="5.23569">
        <ele>535</ele>
        <time>2022-09-29T13:14:35Z</time>
      </trkpt>
      <trkpt lat="44.41225" lon="5.23569">
        <ele>535</ele>
        <time>2022-09-29T13:14:36Z</time>
      </trkpt>
      <trkpt lat="44.41225" lon="5.23568">
        <ele>535</ele>
        <time>2022-09-29T13:14:37Z</time>
      </trkpt>
      <trkpt lat="44.41224" lon="5.23567">
        <ele>536</ele>
        <time>2022-09-29T13:14:38Z</time>
      </trkpt>
      <trkpt lat="44.41224" lon="5.23567">
        <ele>536</ele>
        <time>2022-09-29T13:14:39Z</time>
      </trkpt>
      <trkpt lat="44.41223" lon="5.23566">
        <ele>536</ele>
        <time>2022-09-29T13:14:40Z</time>
      </trkpt>
      <trkpt lat="44.41222" lon="5.23566">
        <ele>536</ele>
        <time>2022-09-29T13:14:41Z</time>
      </trkpt>
      <trkpt lat="44.41222" lon="5.23565">
        <ele>536</ele>
        <time>2022-09-29T13:14:42Z</time>
      </trkpt>
      <trkpt lat="44.41222" lon="5.23565">
        <ele>537</ele>
        <time>2022-09-29T13:14:43Z</time>
      </trkpt>
      <trkpt lat="44.41221" lon="5.23565">
        <ele>537</ele>
        <time>2022-09-29T13:14:44Z</time>
      </trkpt>
      <trkpt lat="44.4122" lon="5.23564">
        <ele>537</ele>
        <time>2022-09-29T13:14:45Z</time>
      </trkpt>
      <trkpt lat="44.4122" lon="5.23564">
        <ele>537</ele>
        <time>2022-09-29T13:14:46Z</time>
      </trkpt>
      <trkpt lat="44.41219" lon="5.23563">
        <ele>537</ele>
        <time>2022-09-29T13:14:47Z</time>
      </trkpt>
      <trkpt lat="44.41218" lon="5.23563">
        <ele>537</ele>
        <time>2022-09-29T13:14:48Z</time>
      </trkpt>
      <trkpt lat="44.41218" lon="5.23562">
        <ele>537</ele>
        <time>2022-09-29T13:14:49Z</time>
      </trkpt>
      <trkpt lat="44.41217" lon="5.23562">
        <ele>537</ele>
        <time>2022-09-29T13:14:50Z</time>
      </trkpt>
      <trkpt lat="44.41216" lon="5.23561">
        <ele>537</ele>
        <time>2022-09-29T13:14:51Z</time>
      </trkpt>
      <trkpt lat="44.41216" lon="5.23561">
        <ele>537</ele>
        <time>2022-09-29T13:14:52Z</time>
      </trkpt>
      <trkpt lat="44.41215" lon="5.23561">
        <ele>538</ele>
        <time>2022-09-29T13:14:53Z</time>
      </trkpt>
      <trkpt lat="44.41214" lon="5.23561">
        <ele>538</ele>
        <time>2022-09-29T13:14:54Z</time>
      </trkpt>
      <trkpt lat="44.41213" lon="5.23561">
        <ele>538</ele>
        <time>2022-09-29T13:14:55Z</time>
      </trkpt>
      <trkpt lat="44.41213" lon="5.2356">
        <ele>538</ele>
        <time>2022-09-29T13:14:56Z</time>
      </trkpt>
      <trkpt lat="44.41212" lon="5.2356">
        <ele>538</ele>
        <time>2022-09-29T13:14:57Z</time>
      </trkpt>
      <trkpt lat="44.41211" lon="5.2356">
        <ele>539</ele>
        <time>2022-09-29T13:14:58Z</time>
      </trkpt>
      <trkpt lat="44.41211" lon="5.23559">
        <ele>539</ele>
        <time>2022-09-29T13:14:59Z</time>
      </trkpt>
      <trkpt lat="44.4121" lon="5.23558">
        <ele>539</ele>
        <time>2022-09-29T13:15:00Z</time>
      </trkpt>
      <trkpt lat="44.4121" lon="5.23558">
        <ele>539</ele>
        <time>2022-09-29T13:15:01Z</time>
      </trkpt>
      <trkpt lat="44.41209" lon="5.23557">
        <ele>539</ele>
        <time>2022-09-29T13:15:02Z</time>
      </trkpt>
      <trkpt lat="44.41209" lon="5.23556">
        <ele>539</ele>
        <time>2022-09-29T13:15:03Z</time>
      </trkpt>
      <trkpt lat="44.41208" lon="5.23556">
        <ele>539</ele>
        <time>2022-09-29T13:15:04Z</time>
      </trkpt>
      <trkpt lat="44.41208" lon="5.23555">
        <ele>539</ele>
        <time>2022-09-29T13:15:05Z</time>
      </trkpt>
      <trkpt lat="44.41207" lon="5.23554">
        <ele>539</ele>
        <time>2022-09-29T13:15:06Z</time>
      </trkpt>
      <trkpt lat="44.41207" lon="5.23554">
        <ele>539</ele>
        <time>2022-09-29T13:15:07Z</time>
      </trkpt>
      <trkpt lat="44.41206" lon="5.23553">
        <ele>540</ele>
        <time>2022-09-29T13:15:08Z</time>
      </trkpt>
      <trkpt lat="44.41206" lon="5.23552">
        <ele>540</ele>
        <time>2022-09-29T13:15:09Z</time>
      </trkpt>
      <trkpt lat="44.41206" lon="5.23552">
        <ele>540</ele>
        <time>2022-09-29T13:15:10Z</time>
      </trkpt>
      <trkpt lat="44.41205" lon="5.23551">
        <ele>540</ele>
        <time>2022-09-29T13:15:11Z</time>
      </trkpt>
      <trkpt lat="44.41205" lon="5.2355">
        <ele>540</ele>
        <time>2022-09-29T13:15:12Z</time>
      </trkpt>
      <trkpt lat="44.41205" lon="5.2355">
        <ele>541</ele>
        <time>2022-09-29T13:15:13Z</time>
      </trkpt>
      <trkpt lat="44.41204" lon="5.23549">
        <ele>541</ele>
        <time>2022-09-29T13:15:14Z</time>
      </trkpt>
      <trkpt lat="44.41204" lon="5.23549">
        <ele>541</ele>
        <time>2022-09-29T13:15:15Z</time>
      </trkpt>
      <trkpt lat="44.41203" lon="5.23548">
        <ele>541</ele>
        <time>2022-09-29T13:15:16Z</time>
      </trkpt>
      <trkpt lat="44.41203" lon="5.23547">
        <ele>541</ele>
        <time>2022-09-29T13:15:17Z</time>
      </trkpt>
      <trkpt lat="44.41202" lon="5.23547">
        <ele>541</ele>
        <time>2022-09-29T13:15:18Z</time>
      </trkpt>
      <trkpt lat="44.41202" lon="5.23546">
        <ele>541</ele>
        <time>2022-09-29T13:15:19Z</time>
      </trkpt>
      <trkpt lat="44.41202" lon="5.23545">
        <ele>541</ele>
        <time>2022-09-29T13:15:20Z</time>
      </trkpt>
      <trkpt lat="44.41201" lon="5.23544">
        <ele>541</ele>
        <time>2022-09-29T13:15:21Z</time>
      </trkpt>
      <trkpt lat="44.41201" lon="5.23543">
        <ele>541</ele>
        <time>2022-09-29T13:15:22Z</time>
      </trkpt>
      <trkpt lat="44.41201" lon="5.23542">
        <ele>542</ele>
        <time>2022-09-29T13:15:23Z</time>
      </trkpt>
      <trkpt lat="44.412" lon="5.23541">
        <ele>542</ele>
        <time>2022-09-29T13:15:24Z</time>
      </trkpt>
      <trkpt lat="44.412" lon="5.23541">
        <ele>542</ele>
        <time>2022-09-29T13:15:25Z</time>
      </trkpt>
      <trkpt lat="44.41199" lon="5.2354">
        <ele>542</ele>
        <time>2022-09-29T13:15:26Z</time>
      </trkpt>
      <trkpt lat="44.41198" lon="5.23539">
        <ele>542</ele>
        <time>2022-09-29T13:15:27Z</time>
      </trkpt>
      <trkpt lat="44.41198" lon="5.23538">
        <ele>543</ele>
        <time>2022-09-29T13:15:28Z</time>
      </trkpt>
      <trkpt lat="44.41197" lon="5.23538">
        <ele>543</ele>
        <time>2022-09-29T13:15:29Z</time>
      </trkpt>
      <trkpt lat="44.41197" lon="5.23537">
        <ele>543</ele>
        <time>2022-09-29T13:15:30Z</time>
      </trkpt>
      <trkpt lat="44.41196" lon="5.23537">
        <ele>543</ele>
        <time>2022-09-29T13:15:31Z</time>
      </trkpt>
      <trkpt lat="44.41196" lon="5.23536">
        <ele>543</ele>
        <time>2022-09-29T13:15:32Z</time>
      </trkpt>
      <trkpt lat="44.41195" lon="5.23536">
        <ele>544</ele>
        <time>2022-09-29T13:15:33Z</time>
      </trkpt>
      <trkpt lat="44.41194" lon="5.23535">
        <ele>544</ele>
        <time>2022-09-29T13:15:34Z</time>
      </trkpt>
      <trkpt lat="44.41194" lon="5.23534">
        <ele>544</ele>
        <time>2022-09-29T13:15:35Z</time>
      </trkpt>
      <trkpt lat="44.41193" lon="5.23534">
        <ele>544</ele>
        <time>2022-09-29T13:15:36Z</time>
      </trkpt>
      <trkpt lat="44.41193" lon="5.23533">
        <ele>544</ele>
        <time>2022-09-29T13:15:37Z</time>
      </trkpt>
      <trkpt lat="44.41192" lon="5.23532">
        <ele>545</ele>
        <time>2022-09-29T13:15:38Z</time>
      </trkpt>
      <trkpt lat="44.41192" lon="5.23532">
        <ele>545</ele>
        <time>2022-09-29T13:15:39Z</time>
      </trkpt>
      <trkpt lat="44.41191" lon="5.23531">
        <ele>545</ele>
        <time>2022-09-29T13:15:40Z</time>
      </trkpt>
      <trkpt lat="44.41191" lon="5.2353">
        <ele>545</ele>
        <time>2022-09-29T13:15:41Z</time>
      </trkpt>
      <trkpt lat="44.4119" lon="5.2353">
        <ele>545</ele>
        <time>2022-09-29T13:15:42Z</time>
      </trkpt>
      <trkpt lat="44.41189" lon="5.23529">
        <ele>545</ele>
        <time>2022-09-29T13:15:43Z</time>
      </trkpt>
      <trkpt lat="44.41189" lon="5.23528">
        <ele>545</ele>
        <time>2022-09-29T13:15:44Z</time>
      </trkpt>
      <trkpt lat="44.41188" lon="5.23527">
        <ele>545</ele>
        <time>2022-09-29T13:15:45Z</time>
      </trkpt>
      <trkpt lat="44.41188" lon="5.23527">
        <ele>545</ele>
        <time>2022-09-29T13:15:46Z</time>
      </trkpt>
      <trkpt lat="44.41187" lon="5.23526">
        <ele>545</ele>
        <time>2022-09-29T13:15:47Z</time>
      </trkpt>
      <trkpt lat="44.41187" lon="5.23526">
        <ele>546</ele>
        <time>2022-09-29T13:15:48Z</time>
      </trkpt>
      <trkpt lat="44.41186" lon="5.23526">
        <ele>546</ele>
        <time>2022-09-29T13:15:49Z</time>
      </trkpt>
      <trkpt lat="44.41185" lon="5.23525">
        <ele>546</ele>
        <time>2022-09-29T13:15:50Z</time>
      </trkpt>
      <trkpt lat="44.41185" lon="5.23525">
        <ele>546</ele>
        <time>2022-09-29T13:15:51Z</time>
      </trkpt>
      <trkpt lat="44.41184" lon="5.23524">
        <ele>546</ele>
        <time>2022-09-29T13:15:52Z</time>
      </trkpt>
      <trkpt lat="44.41184" lon="5.23524">
        <ele>547</ele>
        <time>2022-09-29T13:15:53Z</time>
      </trkpt>
      <trkpt lat="44.41183" lon="5.23523">
        <ele>547</ele>
        <time>2022-09-29T13:15:54Z</time>
      </trkpt>
      <trkpt lat="44.41183" lon="5.23523">
        <ele>547</ele>
        <time>2022-09-29T13:15:55Z</time>
      </trkpt>
      <trkpt lat="44.41183" lon="5.23522">
        <ele>547</ele>
        <time>2022-09-29T13:15:56Z</time>
      </trkpt>
      <trkpt lat="44.41182" lon="5.23521">
        <ele>547</ele>
        <time>2022-09-29T13:15:57Z</time>
      </trkpt>
      <trkpt lat="44.41182" lon="5.23521">
        <ele>548</ele>
        <time>2022-09-29T13:15:58Z</time>
      </trkpt>
      <trkpt lat="44.41181" lon="5.2352">
        <ele>548</ele>
        <time>2022-09-29T13:15:59Z</time>
      </trkpt>
      <trkpt lat="44.41181" lon="5.2352">
        <ele>548</ele>
        <time>2022-09-29T13:16:00Z</time>
      </trkpt>
      <trkpt lat="44.4118" lon="5.23519">
        <ele>548</ele>
        <time>2022-09-29T13:16:01Z</time>
      </trkpt>
      <trkpt lat="44.4118" lon="5.23518">
        <ele>548</ele>
        <time>2022-09-29T13:16:02Z</time>
      </trkpt>
      <trkpt lat="44.4118" lon="5.23517">
        <ele>548</ele>
        <time>2022-09-29T13:16:03Z</time>
      </trkpt>
      <trkpt lat="44.41179" lon="5.23517">
        <ele>548</ele>
        <time>2022-09-29T13:16:04Z</time>
      </trkpt>
      <trkpt lat="44.41179" lon="5.23516">
        <ele>548</ele>
        <time>2022-09-29T13:16:05Z</time>
      </trkpt>
      <trkpt lat="44.41179" lon="5.23515">
        <ele>548</ele>
        <time>2022-09-29T13:16:06Z</time>
      </trkpt>
      <trkpt lat="44.41179" lon="5.23514">
        <ele>548</ele>
        <time>2022-09-29T13:16:07Z</time>
      </trkpt>
      <trkpt lat="44.41178" lon="5.23513">
        <ele>549</ele>
        <time>2022-09-29T13:16:08Z</time>
      </trkpt>
      <trkpt lat="44.41178" lon="5.23512">
        <ele>549</ele>
        <time>2022-09-29T13:16:09Z</time>
      </trkpt>
      <trkpt lat="44.41178" lon="5.23511">
        <ele>549</ele>
        <time>2022-09-29T13:16:10Z</time>
      </trkpt>
      <trkpt lat="44.41178" lon="5.2351">
        <ele>549</ele>
        <time>2022-09-29T13:16:11Z</time>
      </trkpt>
      <trkpt lat="44.41178" lon="5.23509">
        <ele>549</ele>
        <time>2022-09-29T13:16:12Z</time>
      </trkpt>
      <trkpt lat="44.41178" lon="5.23508">
        <ele>550</ele>
        <time>2022-09-29T13:16:13Z</time>
      </trkpt>
      <trkpt lat="44.41177" lon="5.23507">
        <ele>550</ele>
        <time>2022-09-29T13:16:14Z</time>
      </trkpt>
      <trkpt lat="44.41177" lon="5.23507">
        <ele>550</ele>
        <time>2022-09-29T13:16:15Z</time>
      </trkpt>
      <trkpt lat="44.41177" lon="5.23506">
        <ele>550</ele>
        <time>2022-09-29T13:16:16Z</time>
      </trkpt>
      <trkpt lat="44.41177" lon="5.23505">
        <ele>550</ele>
        <time>2022-09-29T13:16:17Z</time>
      </trkpt>
      <trkpt lat="44.41177" lon="5.23504">
        <ele>550</ele>
        <time>2022-09-29T13:16:18Z</time>
      </trkpt>
      <trkpt lat="44.41177" lon="5.23504">
        <ele>550</ele>
        <time>2022-09-29T13:16:19Z</time>
      </trkpt>
      <trkpt lat="44.41177" lon="5.23503">
        <ele>550</ele>
        <time>2022-09-29T13:16:20Z</time>
      </trkpt>
      <trkpt lat="44.41176" lon="5.23502">
        <ele>550</ele>
        <time>2022-09-29T13:16:21Z</time>
      </trkpt>
      <trkpt lat="44.41176" lon="5.23502">
        <ele>550</ele>
        <time>2022-09-29T13:16:22Z</time>
      </trkpt>
      <trkpt lat="44.41176" lon="5.23501">
        <ele>551</ele>
        <time>2022-09-29T13:16:23Z</time>
      </trkpt>
      <trkpt lat="44.41176" lon="5.23501">
        <ele>551</ele>
        <time>2022-09-29T13:16:24Z</time>
      </trkpt>
      <trkpt lat="44.41175" lon="5.235">
        <ele>551</ele>
        <time>2022-09-29T13:16:25Z</time>
      </trkpt>
      <trkpt lat="44.41175" lon="5.23499">
        <ele>552</ele>
        <time>2022-09-29T13:16:26Z</time>
      </trkpt>
      <trkpt lat="44.41175" lon="5.23498">
        <ele>552</ele>
        <time>2022-09-29T13:16:27Z</time>
      </trkpt>
      <trkpt lat="44.41174" lon="5.23497">
        <ele>553</ele>
        <time>2022-09-29T13:16:28Z</time>
      </trkpt>
      <trkpt lat="44.41174" lon="5.23496">
        <ele>553</ele>
        <time>2022-09-29T13:16:29Z</time>
      </trkpt>
      <trkpt lat="44.41174" lon="5.23495">
        <ele>553</ele>
        <time>2022-09-29T13:16:30Z</time>
      </trkpt>
      <trkpt lat="44.41174" lon="5.23495">
        <ele>553</ele>
        <time>2022-09-29T13:16:31Z</time>
      </trkpt>
      <trkpt lat="44.41173" lon="5.23494">
        <ele>553</ele>
        <time>2022-09-29T13:16:32Z</time>
      </trkpt>
      <trkpt lat="44.41173" lon="5.23493">
        <ele>554</ele>
        <time>2022-09-29T13:16:33Z</time>
      </trkpt>
      <trkpt lat="44.41173" lon="5.23492">
        <ele>554</ele>
        <time>2022-09-29T13:16:34Z</time>
      </trkpt>
      <trkpt lat="44.41173" lon="5.23491">
        <ele>554</ele>
        <time>2022-09-29T13:16:35Z</time>
      </trkpt>
      <trkpt lat="44.41172" lon="5.2349">
        <ele>554</ele>
        <time>2022-09-29T13:16:36Z</time>
      </trkpt>
      <trkpt lat="44.41172" lon="5.23489">
        <ele>554</ele>
        <time>2022-09-29T13:16:37Z</time>
      </trkpt>
      <trkpt lat="44.41172" lon="5.23488">
        <ele>554</ele>
        <time>2022-09-29T13:16:38Z</time>
      </trkpt>
      <trkpt lat="44.41172" lon="5.23487">
        <ele>554</ele>
        <time>2022-09-29T13:16:39Z</time>
      </trkpt>
      <trkpt lat="44.41171" lon="5.23486">
        <ele>554</ele>
        <time>2022-09-29T13:16:40Z</time>
      </trkpt>
      <trkpt lat="44.41171" lon="5.23485">
        <ele>554</ele>
        <time>2022-09-29T13:16:41Z</time>
      </trkpt>
      <trkpt lat="44.41171" lon="5.23484">
        <ele>554</ele>
        <time>2022-09-29T13:16:42Z</time>
      </trkpt>
      <trkpt lat="44.41171" lon="5.23483">
        <ele>555</ele>
        <time>2022-09-29T13:16:43Z</time>
      </trkpt>
      <trkpt lat="44.41171" lon="5.23482">
        <ele>555</ele>
        <time>2022-09-29T13:16:44Z</time>
      </trkpt>
      <trkpt lat="44.41171" lon="5.2348">
        <ele>555</ele>
        <time>2022-09-29T13:16:45Z</time>
      </trkpt>
      <trkpt lat="44.41171" lon="5.23479">
        <ele>555</ele>
        <time>2022-09-29T13:16:46Z</time>
      </trkpt>
      <trkpt lat="44.41171" lon="5.23478">
        <ele>555</ele>
        <time>2022-09-29T13:16:47Z</time>
      </trkpt>
      <trkpt lat="44.41171" lon="5.23477">
        <ele>555</ele>
        <time>2022-09-29T13:16:48Z</time>
      </trkpt>
      <trkpt lat="44.4117" lon="5.23475">
        <ele>555</ele>
        <time>2022-09-29T13:16:49Z</time>
      </trkpt>
      <trkpt lat="44.4117" lon="5.23474">
        <ele>555</ele>
        <time>2022-09-29T13:16:50Z</time>
      </trkpt>
      <trkpt lat="44.4117" lon="5.23473">
        <ele>555</ele>
        <time>2022-09-29T13:16:51Z</time>
      </trkpt>
      <trkpt lat="44.4117" lon="5.23472">
        <ele>555</ele>
        <time>2022-09-29T13:16:52Z</time>
      </trkpt>
      <trkpt lat="44.4117" lon="5.23471">
        <ele>556</ele>
        <time>2022-09-29T13:16:53Z</time>
      </trkpt>
      <trkpt lat="44.4117" lon="5.2347">
        <ele>556</ele>
        <time>2022-09-29T13:16:54Z</time>
      </trkpt>
      <trkpt lat="44.4117" lon="5.23469">
        <ele>556</ele>
        <time>2022-09-29T13:16:55Z</time>
      </trkpt>
      <trkpt lat="44.41169" lon="5.23468">
        <ele>556</ele>
        <time>2022-09-29T13:16:56Z</time>
      </trkpt>
      <trkpt lat="44.41169" lon="5.23467">
        <ele>556</ele>
        <time>2022-09-29T13:16:57Z</time>
      </trkpt>
      <trkpt lat="44.41169" lon="5.23465">
        <ele>556</ele>
        <time>2022-09-29T13:16:58Z</time>
      </trkpt>
      <trkpt lat="44.41169" lon="5.23464">
        <ele>556</ele>
        <time>2022-09-29T13:16:59Z</time>
      </trkpt>
      <trkpt lat="44.41169" lon="5.23463">
        <ele>556</ele>
        <time>2022-09-29T13:17:00Z</time>
      </trkpt>
      <trkpt lat="44.41169" lon="5.23462">
        <ele>556</ele>
        <time>2022-09-29T13:17:01Z</time>
      </trkpt>
      <trkpt lat="44.41168" lon="5.23461">
        <ele>556</ele>
        <time>2022-09-29T13:17:02Z</time>
      </trkpt>
      <trkpt lat="44.41168" lon="5.2346">
        <ele>556</ele>
        <time>2022-09-29T13:17:03Z</time>
      </trkpt>
      <trkpt lat="44.41168" lon="5.23458">
        <ele>556</ele>
        <time>2022-09-29T13:17:04Z</time>
      </trkpt>
      <trkpt lat="44.41168" lon="5.23457">
        <ele>556</ele>
        <time>2022-09-29T13:17:05Z</time>
      </trkpt>
      <trkpt lat="44.41167" lon="5.23456">
        <ele>556</ele>
        <time>2022-09-29T13:17:06Z</time>
      </trkpt>
      <trkpt lat="44.41167" lon="5.23455">
        <ele>556</ele>
        <time>2022-09-29T13:17:07Z</time>
      </trkpt>
      <trkpt lat="44.41167" lon="5.23453">
        <ele>557</ele>
        <time>2022-09-29T13:17:08Z</time>
      </trkpt>
      <trkpt lat="44.41167" lon="5.23452">
        <ele>557</ele>
        <time>2022-09-29T13:17:09Z</time>
      </trkpt>
      <trkpt lat="44.41166" lon="5.23451">
        <ele>557</ele>
        <time>2022-09-29T13:17:10Z</time>
      </trkpt>
      <trkpt lat="44.41166" lon="5.2345">
        <ele>557</ele>
        <time>2022-09-29T13:17:11Z</time>
      </trkpt>
      <trkpt lat="44.41166" lon="5.23448">
        <ele>557</ele>
        <time>2022-09-29T13:17:12Z</time>
      </trkpt>
      <trkpt lat="44.41165" lon="5.23447">
        <ele>557</ele>
        <time>2022-09-29T13:17:13Z</time>
      </trkpt>
      <trkpt lat="44.41165" lon="5.23446">
        <ele>557</ele>
        <time>2022-09-29T13:17:14Z</time>
      </trkpt>
      <trkpt lat="44.41165" lon="5.23444">
        <ele>557</ele>
        <time>2022-09-29T13:17:15Z</time>
      </trkpt>
      <trkpt lat="44.41165" lon="5.23443">
        <ele>557</ele>
        <time>2022-09-29T13:17:16Z</time>
      </trkpt>
      <trkpt lat="44.41164" lon="5.23442">
        <ele>557</ele>
        <time>2022-09-29T13:17:17Z</time>
      </trkpt>
      <trkpt lat="44.41164" lon="5.23441">
        <ele>558</ele>
        <time>2022-09-29T13:17:18Z</time>
      </trkpt>
      <trkpt lat="44.41164" lon="5.2344">
        <ele>558</ele>
        <time>2022-09-29T13:17:19Z</time>
      </trkpt>
      <trkpt lat="44.41164" lon="5.23438">
        <ele>558</ele>
        <time>2022-09-29T13:17:20Z</time>
      </trkpt>
      <trkpt lat="44.41164" lon="5.23437">
        <ele>558</ele>
        <time>2022-09-29T13:17:21Z</time>
      </trkpt>
      <trkpt lat="44.41164" lon="5.23436">
        <ele>558</ele>
        <time>2022-09-29T13:17:22Z</time>
      </trkpt>
      <trkpt lat="44.41164" lon="5.23434">
        <ele>559</ele>
        <time>2022-09-29T13:17:23Z</time>
      </trkpt>
      <trkpt lat="44.41164" lon="5.23433">
        <ele>559</ele>
        <time>2022-09-29T13:17:24Z</time>
      </trkpt>
      <trkpt lat="44.41164" lon="5.23432">
        <ele>559</ele>
        <time>2022-09-29T13:17:25Z</time>
      </trkpt>
      <trkpt lat="44.41164" lon="5.2343">
        <ele>559</ele>
        <time>2022-09-29T13:17:26Z</time>
      </trkpt>
      <trkpt lat="44.41164" lon="5.23429">
        <ele>559</ele>
        <time>2022-09-29T13:17:27Z</time>
      </trkpt>
      <trkpt lat="44.41164" lon="5.23428">
        <ele>559</ele>
        <time>2022-09-29T13:17:28Z</time>
      </trkpt>
      <trkpt lat="44.41164" lon="5.23426">
        <ele>559</ele>
        <time>2022-09-29T13:17:29Z</time>
      </trkpt>
      <trkpt lat="44.41164" lon="5.23425">
        <ele>559</ele>
        <time>2022-09-29T13:17:30Z</time>
      </trkpt>
      <trkpt lat="44.41164" lon="5.23424">
        <ele>559</ele>
        <time>2022-09-29T13:17:31Z</time>
      </trkpt>
      <trkpt lat="44.41163" lon="5.23423">
        <ele>559</ele>
        <time>2022-09-29T13:17:32Z</time>
      </trkpt>
      <trkpt lat="44.41163" lon="5.23422">
        <ele>559</ele>
        <time>2022-09-29T13:17:33Z</time>
      </trkpt>
      <trkpt lat="44.41163" lon="5.23421">
        <ele>559</ele>
        <time>2022-09-29T13:17:34Z</time>
      </trkpt>
      <trkpt lat="44.41163" lon="5.2342">
        <ele>559</ele>
        <time>2022-09-29T13:17:35Z</time>
      </trkpt>
      <trkpt lat="44.41163" lon="5.23419">
        <ele>559</ele>
        <time>2022-09-29T13:17:36Z</time>
      </trkpt>
      <trkpt lat="44.41163" lon="5.23418">
        <ele>559</ele>
        <time>2022-09-29T13:17:37Z</time>
      </trkpt>
      <trkpt lat="44.41163" lon="5.23416">
        <ele>559</ele>
        <time>2022-09-29T13:17:38Z</time>
      </trkpt>
      <trkpt lat="44.4116" lon="5.23415">
        <ele>560</ele>
        <time>2022-09-29T13:18:59Z</time>
      </trkpt>
      <trkpt lat="44.41159" lon="5.23414">
        <ele>560</ele>
        <time>2022-09-29T13:19:00Z</time>
      </trkpt>
      <trkpt lat="44.41157" lon="5.23414">
        <ele>560</ele>
        <time>2022-09-29T13:19:01Z</time>
      </trkpt>
      <trkpt lat="44.41156" lon="5.23414">
        <ele>560</ele>
        <time>2022-09-29T13:19:02Z</time>
      </trkpt>
      <trkpt lat="44.41155" lon="5.23414">
        <ele>560</ele>
        <time>2022-09-29T13:19:03Z</time>
      </trkpt>
      <trkpt lat="44.41155" lon="5.23414">
        <ele>560</ele>
        <time>2022-09-29T13:19:04Z</time>
      </trkpt>
      <trkpt lat="44.41154" lon="5.23414">
        <ele>560</ele>
        <time>2022-09-29T13:19:05Z</time>
      </trkpt>
      <trkpt lat="44.41153" lon="5.23414">
        <ele>560</ele>
        <time>2022-09-29T13:19:06Z</time>
      </trkpt>
      <trkpt lat="44.41152" lon="5.23414">
        <ele>560</ele>
        <time>2022-09-29T13:19:07Z</time>
      </trkpt>
      <trkpt lat="44.41152" lon="5.23414">
        <ele>560</ele>
        <time>2022-09-29T13:19:08Z</time>
      </trkpt>
      <trkpt lat="44.41151" lon="5.23414">
        <ele>560</ele>
        <time>2022-09-29T13:19:09Z</time>
      </trkpt>
      <trkpt lat="44.4115" lon="5.23414">
        <ele>560</ele>
        <time>2022-09-29T13:19:10Z</time>
      </trkpt>
      <trkpt lat="44.4115" lon="5.23414">
        <ele>560</ele>
        <time>2022-09-29T13:19:11Z</time>
      </trkpt>
      <trkpt lat="44.41149" lon="5.23414">
        <ele>560</ele>
        <time>2022-09-29T13:19:12Z</time>
      </trkpt>
      <trkpt lat="44.41148" lon="5.23414">
        <ele>560</ele>
        <time>2022-09-29T13:19:13Z</time>
      </trkpt>
      <trkpt lat="44.41148" lon="5.23414">
        <ele>560</ele>
        <time>2022-09-29T13:19:14Z</time>
      </trkpt>
      <trkpt lat="44.41147" lon="5.23414">
        <ele>560</ele>
        <time>2022-09-29T13:19:15Z</time>
      </trkpt>
      <trkpt lat="44.41146" lon="5.23413">
        <ele>560</ele>
        <time>2022-09-29T13:19:16Z</time>
      </trkpt>
      <trkpt lat="44.41145" lon="5.23413">
        <ele>560</ele>
        <time>2022-09-29T13:19:17Z</time>
      </trkpt>
      <trkpt lat="44.41144" lon="5.23413">
        <ele>560</ele>
        <time>2022-09-29T13:19:18Z</time>
      </trkpt>
      <trkpt lat="44.41143" lon="5.23413">
        <ele>560</ele>
        <time>2022-09-29T13:19:19Z</time>
      </trkpt>
      <trkpt lat="44.41142" lon="5.23413">
        <ele>560</ele>
        <time>2022-09-29T13:19:20Z</time>
      </trkpt>
      <trkpt lat="44.41142" lon="5.23413">
        <ele>560</ele>
        <time>2022-09-29T13:19:21Z</time>
      </trkpt>
      <trkpt lat="44.41141" lon="5.23412">
        <ele>560</ele>
        <time>2022-09-29T13:19:22Z</time>
      </trkpt>
      <trkpt lat="44.4114" lon="5.23412">
        <ele>560</ele>
        <time>2022-09-29T13:19:23Z</time>
      </trkpt>
      <trkpt lat="44.41139" lon="5.23412">
        <ele>560</ele>
        <time>2022-09-29T13:19:24Z</time>
      </trkpt>
      <trkpt lat="44.41139" lon="5.23412">
        <ele>560</ele>
        <time>2022-09-29T13:19:25Z</time>
      </trkpt>
      <trkpt lat="44.41138" lon="5.23411">
        <ele>560</ele>
        <time>2022-09-29T13:19:26Z</time>
      </trkpt>
      <trkpt lat="44.41137" lon="5.23411">
        <ele>560</ele>
        <time>2022-09-29T13:19:27Z</time>
      </trkpt>
      <trkpt lat="44.41136" lon="5.23411">
        <ele>560</ele>
        <time>2022-09-29T13:19:28Z</time>
      </trkpt>
      <trkpt lat="44.41135" lon="5.23411">
        <ele>560</ele>
        <time>2022-09-29T13:19:29Z</time>
      </trkpt>
      <trkpt lat="44.41134" lon="5.23411">
        <ele>560</ele>
        <time>2022-09-29T13:19:30Z</time>
      </trkpt>
      <trkpt lat="44.41134" lon="5.23411">
        <ele>560</ele>
        <time>2022-09-29T13:19:31Z</time>
      </trkpt>
      <trkpt lat="44.41133" lon="5.23411">
        <ele>560</ele>
        <time>2022-09-29T13:19:32Z</time>
      </trkpt>
      <trkpt lat="44.41132" lon="5.23411">
        <ele>560</ele>
        <time>2022-09-29T13:19:33Z</time>
      </trkpt>
      <trkpt lat="44.41131" lon="5.23411">
        <ele>560</ele>
        <time>2022-09-29T13:19:34Z</time>
      </trkpt>
      <trkpt lat="44.41131" lon="5.23411">
        <ele>560</ele>
        <time>2022-09-29T13:19:35Z</time>
      </trkpt>
      <trkpt lat="44.41128" lon="5.2341">
        <ele>560</ele>
        <time>2022-09-29T13:20:50Z</time>
      </trkpt>
      <trkpt lat="44.41127" lon="5.2341">
        <ele>560</ele>
        <time>2022-09-29T13:20:51Z</time>
      </trkpt>
      <trkpt lat="44.41125" lon="5.23409">
        <ele>560</ele>
        <time>2022-09-29T13:20:52Z</time>
      </trkpt>
      <trkpt lat="44.41125" lon="5.23409">
        <ele>560</ele>
        <time>2022-09-29T13:20:53Z</time>
      </trkpt>
      <trkpt lat="44.41124" lon="5.23409">
        <ele>560</ele>
        <time>2022-09-29T13:20:54Z</time>
      </trkpt>
      <trkpt lat="44.41123" lon="5.23408">
        <ele>560</ele>
        <time>2022-09-29T13:20:55Z</time>
      </trkpt>
      <trkpt lat="44.41122" lon="5.23408">
        <ele>560</ele>
        <time>2022-09-29T13:20:56Z</time>
      </trkpt>
      <trkpt lat="44.41121" lon="5.23408">
        <ele>560</ele>
        <time>2022-09-29T13:20:57Z</time>
      </trkpt>
      <trkpt lat="44.4112" lon="5.23407">
        <ele>560</ele>
        <time>2022-09-29T13:20:58Z</time>
      </trkpt>
      <trkpt lat="44.4112" lon="5.23407">
        <ele>559</ele>
        <time>2022-09-29T13:20:59Z</time>
      </trkpt>
      <trkpt lat="44.41119" lon="5.23406">
        <ele>559</ele>
        <time>2022-09-29T13:21:00Z</time>
      </trkpt>
      <trkpt lat="44.41118" lon="5.23406">
        <ele>559</ele>
        <time>2022-09-29T13:21:01Z</time>
      </trkpt>
      <trkpt lat="44.41117" lon="5.23406">
        <ele>559</ele>
        <time>2022-09-29T13:21:02Z</time>
      </trkpt>
      <trkpt lat="44.41117" lon="5.23406">
        <ele>559</ele>
        <time>2022-09-29T13:21:03Z</time>
      </trkpt>
      <trkpt lat="44.41116" lon="5.23406">
        <ele>559</ele>
        <time>2022-09-29T13:21:04Z</time>
      </trkpt>
      <trkpt lat="44.41115" lon="5.23406">
        <ele>559</ele>
        <time>2022-09-29T13:21:05Z</time>
      </trkpt>
      <trkpt lat="44.41113" lon="5.23406">
        <ele>559</ele>
        <time>2022-09-29T13:21:06Z</time>
      </trkpt>
      <trkpt lat="44.41112" lon="5.23406">
        <ele>559</ele>
        <time>2022-09-29T13:21:07Z</time>
      </trkpt>
      <trkpt lat="44.41111" lon="5.23406">
        <ele>559</ele>
        <time>2022-09-29T13:21:08Z</time>
      </trkpt>
      <trkpt lat="44.4111" lon="5.23406">
        <ele>559</ele>
        <time>2022-09-29T13:21:09Z</time>
      </trkpt>
      <trkpt lat="44.41109" lon="5.23406">
        <ele>559</ele>
        <time>2022-09-29T13:21:10Z</time>
      </trkpt>
      <trkpt lat="44.41108" lon="5.23406">
        <ele>559</ele>
        <time>2022-09-29T13:21:11Z</time>
      </trkpt>
      <trkpt lat="44.41108" lon="5.23405">
        <ele>559</ele>
        <time>2022-09-29T13:21:12Z</time>
      </trkpt>
      <trkpt lat="44.41107" lon="5.23405">
        <ele>559</ele>
        <time>2022-09-29T13:21:13Z</time>
      </trkpt>
      <trkpt lat="44.41106" lon="5.23405">
        <ele>559</ele>
        <time>2022-09-29T13:21:14Z</time>
      </trkpt>
      <trkpt lat="44.41105" lon="5.23405">
        <ele>559</ele>
        <time>2022-09-29T13:21:15Z</time>
      </trkpt>
      <trkpt lat="44.41104" lon="5.23405">
        <ele>559</ele>
        <time>2022-09-29T13:21:16Z</time>
      </trkpt>
      <trkpt lat="44.41103" lon="5.23404">
        <ele>559</ele>
        <time>2022-09-29T13:21:17Z</time>
      </trkpt>
      <trkpt lat="44.41102" lon="5.23404">
        <ele>559</ele>
        <time>2022-09-29T13:21:18Z</time>
      </trkpt>
      <trkpt lat="44.41101" lon="5.23404">
        <ele>559</ele>
        <time>2022-09-29T13:21:19Z</time>
      </trkpt>
      <trkpt lat="44.411" lon="5.23404">
        <ele>559</ele>
        <time>2022-09-29T13:21:20Z</time>
      </trkpt>
      <trkpt lat="44.41099" lon="5.23404">
        <ele>559</ele>
        <time>2022-09-29T13:21:21Z</time>
      </trkpt>
      <trkpt lat="44.41098" lon="5.23404">
        <ele>559</ele>
        <time>2022-09-29T13:21:22Z</time>
      </trkpt>
      <trkpt lat="44.41097" lon="5.23404">
        <ele>559</ele>
        <time>2022-09-29T13:21:23Z</time>
      </trkpt>
      <trkpt lat="44.41096" lon="5.23404">
        <ele>559</ele>
        <time>2022-09-29T13:21:24Z</time>
      </trkpt>
      <trkpt lat="44.41095" lon="5.23404">
        <ele>559</ele>
        <time>2022-09-29T13:21:25Z</time>
      </trkpt>
      <trkpt lat="44.41094" lon="5.23404">
        <ele>559</ele>
        <time>2022-09-29T13:21:26Z</time>
      </trkpt>
      <trkpt lat="44.41093" lon="5.23404">
        <ele>559</ele>
        <time>2022-09-29T13:21:27Z</time>
      </trkpt>
      <trkpt lat="44.41092" lon="5.23404">
        <ele>559</ele>
        <time>2022-09-29T13:21:28Z</time>
      </trkpt>
      <trkpt lat="44.41091" lon="5.23404">
        <ele>559</ele>
        <time>2022-09-29T13:21:29Z</time>
      </trkpt>
      <trkpt lat="44.4109" lon="5.23405">
        <ele>559</ele>
        <time>2022-09-29T13:21:30Z</time>
      </trkpt>
      <trkpt lat="44.41089" lon="5.23405">
        <ele>559</ele>
        <time>2022-09-29T13:21:31Z</time>
      </trkpt>
      <trkpt lat="44.41088" lon="5.23405">
        <ele>559</ele>
        <time>2022-09-29T13:21:32Z</time>
      </trkpt>
      <trkpt lat="44.41087" lon="5.23405">
        <ele>559</ele>
        <time>2022-09-29T13:21:33Z</time>
      </trkpt>
      <trkpt lat="44.41086" lon="5.23405">
        <ele>559</ele>
        <time>2022-09-29T13:21:34Z</time>
      </trkpt>
      <trkpt lat="44.41085" lon="5.23405">
        <ele>559</ele>
        <time>2022-09-29T13:21:35Z</time>
      </trkpt>
      <trkpt lat="44.41084" lon="5.23406">
        <ele>559</ele>
        <time>2022-09-29T13:21:36Z</time>
      </trkpt>
      <trkpt lat="44.41083" lon="5.23406">
        <ele>559</ele>
        <time>2022-09-29T13:21:37Z</time>
      </trkpt>
      <trkpt lat="44.41082" lon="5.23407">
        <ele>559</ele>
        <time>2022-09-29T13:21:38Z</time>
      </trkpt>
      <trkpt lat="44.41081" lon="5.23407">
        <ele>559</ele>
        <time>2022-09-29T13:21:39Z</time>
      </trkpt>
      <trkpt lat="44.4108" lon="5.23407">
        <ele>559</ele>
        <time>2022-09-29T13:21:40Z</time>
      </trkpt>
      <trkpt lat="44.41079" lon="5.23407">
        <ele>559</ele>
        <time>2022-09-29T13:21:41Z</time>
      </trkpt>
      <trkpt lat="44.41078" lon="5.23408">
        <ele>559</ele>
        <time>2022-09-29T13:21:42Z</time>
      </trkpt>
      <trkpt lat="44.41077" lon="5.23408">
        <ele>560</ele>
        <time>2022-09-29T13:21:43Z</time>
      </trkpt>
      <trkpt lat="44.41076" lon="5.23408">
        <ele>559</ele>
        <time>2022-09-29T13:21:44Z</time>
      </trkpt>
      <trkpt lat="44.41075" lon="5.23409">
        <ele>559</ele>
        <time>2022-09-29T13:21:45Z</time>
      </trkpt>
      <trkpt lat="44.41074" lon="5.23409">
        <ele>559</ele>
        <time>2022-09-29T13:21:46Z</time>
      </trkpt>
      <trkpt lat="44.41074" lon="5.23409">
        <ele>559</ele>
        <time>2022-09-29T13:21:47Z</time>
      </trkpt>
      <trkpt lat="44.41073" lon="5.23409">
        <ele>559</ele>
        <time>2022-09-29T13:21:48Z</time>
      </trkpt>
      <trkpt lat="44.41072" lon="5.2341">
        <ele>559</ele>
        <time>2022-09-29T13:21:49Z</time>
      </trkpt>
      <trkpt lat="44.4107" lon="5.2341">
        <ele>559</ele>
        <time>2022-09-29T13:21:50Z</time>
      </trkpt>
      <trkpt lat="44.41069" lon="5.23411">
        <ele>559</ele>
        <time>2022-09-29T13:21:51Z</time>
      </trkpt>
      <trkpt lat="44.41068" lon="5.23411">
        <ele>559</ele>
        <time>2022-09-29T13:21:52Z</time>
      </trkpt>
      <trkpt lat="44.41067" lon="5.23412">
        <ele>559</ele>
        <time>2022-09-29T13:21:53Z</time>
      </trkpt>
      <trkpt lat="44.41065" lon="5.23412">
        <ele>559</ele>
        <time>2022-09-29T13:21:54Z</time>
      </trkpt>
      <trkpt lat="44.41064" lon="5.23413">
        <ele>559</ele>
        <time>2022-09-29T13:21:55Z</time>
      </trkpt>
      <trkpt lat="44.41063" lon="5.23413">
        <ele>559</ele>
        <time>2022-09-29T13:21:56Z</time>
      </trkpt>
      <trkpt lat="44.41062" lon="5.23413">
        <ele>559</ele>
        <time>2022-09-29T13:21:57Z</time>
      </trkpt>
      <trkpt lat="44.41061" lon="5.23413">
        <ele>559</ele>
        <time>2022-09-29T13:21:58Z</time>
      </trkpt>
      <trkpt lat="44.4106" lon="5.23414">
        <ele>559</ele>
        <time>2022-09-29T13:21:59Z</time>
      </trkpt>
      <trkpt lat="44.4106" lon="5.23414">
        <ele>559</ele>
        <time>2022-09-29T13:22:00Z</time>
      </trkpt>
      <trkpt lat="44.41059" lon="5.23415">
        <ele>559</ele>
        <time>2022-09-29T13:22:01Z</time>
      </trkpt>
      <trkpt lat="44.41058" lon="5.23415">
        <ele>559</ele>
        <time>2022-09-29T13:22:02Z</time>
      </trkpt>
      <trkpt lat="44.41057" lon="5.23416">
        <ele>560</ele>
        <time>2022-09-29T13:22:03Z</time>
      </trkpt>
      <trkpt lat="44.41056" lon="5.23417">
        <ele>560</ele>
        <time>2022-09-29T13:22:04Z</time>
      </trkpt>
      <trkpt lat="44.41055" lon="5.23418">
        <ele>560</ele>
        <time>2022-09-29T13:22:05Z</time>
      </trkpt>
      <trkpt lat="44.41054" lon="5.23418">
        <ele>560</ele>
        <time>2022-09-29T13:22:06Z</time>
      </trkpt>
      <trkpt lat="44.41053" lon="5.23419">
        <ele>560</ele>
        <time>2022-09-29T13:22:07Z</time>
      </trkpt>
      <trkpt lat="44.41052" lon="5.23419">
        <ele>560</ele>
        <time>2022-09-29T13:22:08Z</time>
      </trkpt>
      <trkpt lat="44.41052" lon="5.2342">
        <ele>560</ele>
        <time>2022-09-29T13:22:09Z</time>
      </trkpt>
      <trkpt lat="44.41051" lon="5.2342">
        <ele>560</ele>
        <time>2022-09-29T13:22:10Z</time>
      </trkpt>
      <trkpt lat="44.4105" lon="5.23421">
        <ele>560</ele>
        <time>2022-09-29T13:22:11Z</time>
      </trkpt>
      <trkpt lat="44.41049" lon="5.23421">
        <ele>560</ele>
        <time>2022-09-29T13:22:12Z</time>
      </trkpt>
      <trkpt lat="44.41048" lon="5.23422">
        <ele>560</ele>
        <time>2022-09-29T13:22:13Z</time>
      </trkpt>
      <trkpt lat="44.41048" lon="5.23422">
        <ele>560</ele>
        <time>2022-09-29T13:22:14Z</time>
      </trkpt>
      <trkpt lat="44.41047" lon="5.23423">
        <ele>560</ele>
        <time>2022-09-29T13:22:15Z</time>
      </trkpt>
      <trkpt lat="44.41046" lon="5.23424">
        <ele>560</ele>
        <time>2022-09-29T13:22:16Z</time>
      </trkpt>
      <trkpt lat="44.41045" lon="5.23424">
        <ele>560</ele>
        <time>2022-09-29T13:22:17Z</time>
      </trkpt>
      <trkpt lat="44.41044" lon="5.23425">
        <ele>561</ele>
        <time>2022-09-29T13:22:18Z</time>
      </trkpt>
      <trkpt lat="44.41043" lon="5.23425">
        <ele>561</ele>
        <time>2022-09-29T13:22:19Z</time>
      </trkpt>
      <trkpt lat="44.41042" lon="5.23426">
        <ele>561</ele>
        <time>2022-09-29T13:22:20Z</time>
      </trkpt>
      <trkpt lat="44.41041" lon="5.23426">
        <ele>561</ele>
        <time>2022-09-29T13:22:21Z</time>
      </trkpt>
      <trkpt lat="44.4104" lon="5.23426">
        <ele>561</ele>
        <time>2022-09-29T13:22:22Z</time>
      </trkpt>
      <trkpt lat="44.41039" lon="5.23426">
        <ele>561</ele>
        <time>2022-09-29T13:22:23Z</time>
      </trkpt>
      <trkpt lat="44.41038" lon="5.23426">
        <ele>561</ele>
        <time>2022-09-29T13:22:24Z</time>
      </trkpt>
      <trkpt lat="44.41037" lon="5.23426">
        <ele>561</ele>
        <time>2022-09-29T13:22:25Z</time>
      </trkpt>
      <trkpt lat="44.41036" lon="5.23426">
        <ele>561</ele>
        <time>2022-09-29T13:22:26Z</time>
      </trkpt>
      <trkpt lat="44.41035" lon="5.23426">
        <ele>561</ele>
        <time>2022-09-29T13:22:27Z</time>
      </trkpt>
      <trkpt lat="44.41034" lon="5.23426">
        <ele>561</ele>
        <time>2022-09-29T13:22:28Z</time>
      </trkpt>
      <trkpt lat="44.41034" lon="5.23426">
        <ele>561</ele>
        <time>2022-09-29T13:22:29Z</time>
      </trkpt>
      <trkpt lat="44.41033" lon="5.23426">
        <ele>561</ele>
        <time>2022-09-29T13:22:30Z</time>
      </trkpt>
      <trkpt lat="44.41032" lon="5.23426">
        <ele>561</ele>
        <time>2022-09-29T13:22:31Z</time>
      </trkpt>
      <trkpt lat="44.41031" lon="5.23426">
        <ele>561</ele>
        <time>2022-09-29T13:22:32Z</time>
      </trkpt>
      <trkpt lat="44.4103" lon="5.23426">
        <ele>562</ele>
        <time>2022-09-29T13:22:33Z</time>
      </trkpt>
      <trkpt lat="44.41029" lon="5.23425">
        <ele>562</ele>
        <time>2022-09-29T13:22:34Z</time>
      </trkpt>
      <trkpt lat="44.41028" lon="5.23425">
        <ele>562</ele>
        <time>2022-09-29T13:22:35Z</time>
      </trkpt>
      <trkpt lat="44.41027" lon="5.23425">
        <ele>562</ele>
        <time>2022-09-29T13:22:36Z</time>
      </trkpt>
      <trkpt lat="44.41027" lon="5.23425">
        <ele>562</ele>
        <time>2022-09-29T13:22:37Z</time>
      </trkpt>
      <trkpt lat="44.41026" lon="5.23425">
        <ele>562</ele>
        <time>2022-09-29T13:22:38Z</time>
      </trkpt>
      <trkpt lat="44.41025" lon="5.23424">
        <ele>562</ele>
        <time>2022-09-29T13:22:39Z</time>
      </trkpt>
      <trkpt lat="44.41024" lon="5.23424">
        <ele>562</ele>
        <time>2022-09-29T13:22:40Z</time>
      </trkpt>
      <trkpt lat="44.41023" lon="5.23424">
        <ele>562</ele>
        <time>2022-09-29T13:22:41Z</time>
      </trkpt>
      <trkpt lat="44.41022" lon="5.23423">
        <ele>562</ele>
        <time>2022-09-29T13:22:42Z</time>
      </trkpt>
      <trkpt lat="44.41021" lon="5.23423">
        <ele>563</ele>
        <time>2022-09-29T13:22:43Z</time>
      </trkpt>
      <trkpt lat="44.4102" lon="5.23423">
        <ele>563</ele>
        <time>2022-09-29T13:22:44Z</time>
      </trkpt>
      <trkpt lat="44.41019" lon="5.23423">
        <ele>563</ele>
        <time>2022-09-29T13:22:45Z</time>
      </trkpt>
      <trkpt lat="44.41018" lon="5.23422">
        <ele>563</ele>
        <time>2022-09-29T13:22:46Z</time>
      </trkpt>
      <trkpt lat="44.41017" lon="5.23422">
        <ele>563</ele>
        <time>2022-09-29T13:22:47Z</time>
      </trkpt>
      <trkpt lat="44.41016" lon="5.23422">
        <ele>563</ele>
        <time>2022-09-29T13:22:48Z</time>
      </trkpt>
      <trkpt lat="44.41015" lon="5.23421">
        <ele>563</ele>
        <time>2022-09-29T13:22:49Z</time>
      </trkpt>
      <trkpt lat="44.41014" lon="5.23421">
        <ele>563</ele>
        <time>2022-09-29T13:22:50Z</time>
      </trkpt>
      <trkpt lat="44.41013" lon="5.2342">
        <ele>563</ele>
        <time>2022-09-29T13:22:51Z</time>
      </trkpt>
      <trkpt lat="44.41012" lon="5.2342">
        <ele>563</ele>
        <time>2022-09-29T13:22:52Z</time>
      </trkpt>
      <trkpt lat="44.41011" lon="5.23419">
        <ele>564</ele>
        <time>2022-09-29T13:22:53Z</time>
      </trkpt>
      <trkpt lat="44.4101" lon="5.23419">
        <ele>564</ele>
        <time>2022-09-29T13:22:54Z</time>
      </trkpt>
      <trkpt lat="44.41009" lon="5.23418">
        <ele>564</ele>
        <time>2022-09-29T13:22:55Z</time>
      </trkpt>
      <trkpt lat="44.41008" lon="5.23418">
        <ele>564</ele>
        <time>2022-09-29T13:22:56Z</time>
      </trkpt>
      <trkpt lat="44.41008" lon="5.23417">
        <ele>564</ele>
        <time>2022-09-29T13:22:57Z</time>
      </trkpt>
      <trkpt lat="44.41007" lon="5.23417">
        <ele>564</ele>
        <time>2022-09-29T13:22:58Z</time>
      </trkpt>
      <trkpt lat="44.41006" lon="5.23416">
        <ele>564</ele>
        <time>2022-09-29T13:22:59Z</time>
      </trkpt>
      <trkpt lat="44.41005" lon="5.23416">
        <ele>564</ele>
        <time>2022-09-29T13:23:00Z</time>
      </trkpt>
      <trkpt lat="44.41004" lon="5.23415">
        <ele>564</ele>
        <time>2022-09-29T13:23:01Z</time>
      </trkpt>
      <trkpt lat="44.41003" lon="5.23414">
        <ele>564</ele>
        <time>2022-09-29T13:23:02Z</time>
      </trkpt>
      <trkpt lat="44.41002" lon="5.23414">
        <ele>565</ele>
        <time>2022-09-29T13:23:03Z</time>
      </trkpt>
      <trkpt lat="44.41002" lon="5.23413">
        <ele>565</ele>
        <time>2022-09-29T13:23:04Z</time>
      </trkpt>
      <trkpt lat="44.41001" lon="5.23413">
        <ele>565</ele>
        <time>2022-09-29T13:23:05Z</time>
      </trkpt>
      <trkpt lat="44.41" lon="5.23412">
        <ele>565</ele>
        <time>2022-09-29T13:23:06Z</time>
      </trkpt>
      <trkpt lat="44.40999" lon="5.23412">
        <ele>565</ele>
        <time>2022-09-29T13:23:07Z</time>
      </trkpt>
      <trkpt lat="44.40998" lon="5.23411">
        <ele>565</ele>
        <time>2022-09-29T13:23:08Z</time>
      </trkpt>
      <trkpt lat="44.40997" lon="5.2341">
        <ele>565</ele>
        <time>2022-09-29T13:23:09Z</time>
      </trkpt>
      <trkpt lat="44.40996" lon="5.2341">
        <ele>565</ele>
        <time>2022-09-29T13:23:10Z</time>
      </trkpt>
      <trkpt lat="44.40996" lon="5.23409">
        <ele>565</ele>
        <time>2022-09-29T13:23:11Z</time>
      </trkpt>
      <trkpt lat="44.40995" lon="5.23408">
        <ele>565</ele>
        <time>2022-09-29T13:23:12Z</time>
      </trkpt>
      <trkpt lat="44.40994" lon="5.23408">
        <ele>565</ele>
        <time>2022-09-29T13:23:13Z</time>
      </trkpt>
      <trkpt lat="44.40993" lon="5.23407">
        <ele>565</ele>
        <time>2022-09-29T13:23:14Z</time>
      </trkpt>
      <trkpt lat="44.40992" lon="5.23406">
        <ele>565</ele>
        <time>2022-09-29T13:23:15Z</time>
      </trkpt>
      <trkpt lat="44.40992" lon="5.23406">
        <ele>565</ele>
        <time>2022-09-29T13:23:16Z</time>
      </trkpt>
      <trkpt lat="44.40991" lon="5.23405">
        <ele>565</ele>
        <time>2022-09-29T13:23:17Z</time>
      </trkpt>
      <trkpt lat="44.4099" lon="5.23404">
        <ele>565</ele>
        <time>2022-09-29T13:23:18Z</time>
      </trkpt>
      <trkpt lat="44.4099" lon="5.23403">
        <ele>565</ele>
        <time>2022-09-29T13:23:19Z</time>
      </trkpt>
      <trkpt lat="44.40989" lon="5.23402">
        <ele>565</ele>
        <time>2022-09-29T13:23:20Z</time>
      </trkpt>
      <trkpt lat="44.40988" lon="5.23401">
        <ele>565</ele>
        <time>2022-09-29T13:23:21Z</time>
      </trkpt>
      <trkpt lat="44.40988" lon="5.234">
        <ele>565</ele>
        <time>2022-09-29T13:23:22Z</time>
      </trkpt>
      <trkpt lat="44.40987" lon="5.234">
        <ele>565</ele>
        <time>2022-09-29T13:23:23Z</time>
      </trkpt>
      <trkpt lat="44.40986" lon="5.23399">
        <ele>565</ele>
        <time>2022-09-29T13:23:24Z</time>
      </trkpt>
      <trkpt lat="44.40985" lon="5.23398">
        <ele>565</ele>
        <time>2022-09-29T13:23:25Z</time>
      </trkpt>
      <trkpt lat="44.40985" lon="5.23397">
        <ele>565</ele>
        <time>2022-09-29T13:23:26Z</time>
      </trkpt>
      <trkpt lat="44.40984" lon="5.23396">
        <ele>565</ele>
        <time>2022-09-29T13:23:27Z</time>
      </trkpt>
      <trkpt lat="44.40983" lon="5.23395">
        <ele>565</ele>
        <time>2022-09-29T13:23:28Z</time>
      </trkpt>
      <trkpt lat="44.40983" lon="5.23393">
        <ele>565</ele>
        <time>2022-09-29T13:23:29Z</time>
      </trkpt>
      <trkpt lat="44.40982" lon="5.23392">
        <ele>565</ele>
        <time>2022-09-29T13:23:30Z</time>
      </trkpt>
      <trkpt lat="44.40982" lon="5.23391">
        <ele>565</ele>
        <time>2022-09-29T13:23:31Z</time>
      </trkpt>
      <trkpt lat="44.40981" lon="5.23389">
        <ele>565</ele>
        <time>2022-09-29T13:23:32Z</time>
      </trkpt>
      <trkpt lat="44.40981" lon="5.23388">
        <ele>565</ele>
        <time>2022-09-29T13:23:33Z</time>
      </trkpt>
      <trkpt lat="44.4098" lon="5.23386">
        <ele>565</ele>
        <time>2022-09-29T13:23:34Z</time>
      </trkpt>
      <trkpt lat="44.4098" lon="5.23384">
        <ele>565</ele>
        <time>2022-09-29T13:23:35Z</time>
      </trkpt>
      <trkpt lat="44.4098" lon="5.23383">
        <ele>565</ele>
        <time>2022-09-29T13:23:36Z</time>
      </trkpt>
      <trkpt lat="44.4098" lon="5.23381">
        <ele>565</ele>
        <time>2022-09-29T13:23:37Z</time>
      </trkpt>
      <trkpt lat="44.40979" lon="5.2338">
        <ele>565</ele>
        <time>2022-09-29T13:23:38Z</time>
      </trkpt>
      <trkpt lat="44.40979" lon="5.23378">
        <ele>564</ele>
        <time>2022-09-29T13:23:39Z</time>
      </trkpt>
      <trkpt lat="44.40979" lon="5.23376">
        <ele>564</ele>
        <time>2022-09-29T13:23:40Z</time>
      </trkpt>
      <trkpt lat="44.40979" lon="5.23375">
        <ele>564</ele>
        <time>2022-09-29T13:23:41Z</time>
      </trkpt>
      <trkpt lat="44.40978" lon="5.23373">
        <ele>564</ele>
        <time>2022-09-29T13:23:42Z</time>
      </trkpt>
      <trkpt lat="44.40978" lon="5.23372">
        <ele>564</ele>
        <time>2022-09-29T13:23:43Z</time>
      </trkpt>
      <trkpt lat="44.40978" lon="5.23371">
        <ele>564</ele>
        <time>2022-09-29T13:23:44Z</time>
      </trkpt>
      <trkpt lat="44.40978" lon="5.2337">
        <ele>564</ele>
        <time>2022-09-29T13:23:45Z</time>
      </trkpt>
      <trkpt lat="44.40978" lon="5.23369">
        <ele>564</ele>
        <time>2022-09-29T13:23:46Z</time>
      </trkpt>
      <trkpt lat="44.40978" lon="5.23368">
        <ele>564</ele>
        <time>2022-09-29T13:23:47Z</time>
      </trkpt>
      <trkpt lat="44.40978" lon="5.23367">
        <ele>564</ele>
        <time>2022-09-29T13:23:48Z</time>
      </trkpt>
      <trkpt lat="44.40978" lon="5.23366">
        <ele>564</ele>
        <time>2022-09-29T13:23:49Z</time>
      </trkpt>
      <trkpt lat="44.40978" lon="5.23365">
        <ele>564</ele>
        <time>2022-09-29T13:23:50Z</time>
      </trkpt>
      <trkpt lat="44.40978" lon="5.23363">
        <ele>564</ele>
        <time>2022-09-29T13:23:51Z</time>
      </trkpt>
      <trkpt lat="44.40978" lon="5.23362">
        <ele>564</ele>
        <time>2022-09-29T13:23:52Z</time>
      </trkpt>
      <trkpt lat="44.40977" lon="5.23361">
        <ele>564</ele>
        <time>2022-09-29T13:23:53Z</time>
      </trkpt>
      <trkpt lat="44.40977" lon="5.23359">
        <ele>564</ele>
        <time>2022-09-29T13:23:54Z</time>
      </trkpt>
      <trkpt lat="44.40977" lon="5.23358">
        <ele>564</ele>
        <time>2022-09-29T13:23:55Z</time>
      </trkpt>
      <trkpt lat="44.40977" lon="5.23357">
        <ele>564</ele>
        <time>2022-09-29T13:23:56Z</time>
      </trkpt>
      <trkpt lat="44.40977" lon="5.23355">
        <ele>564</ele>
        <time>2022-09-29T13:23:57Z</time>
      </trkpt>
      <trkpt lat="44.40976" lon="5.23354">
        <ele>564</ele>
        <time>2022-09-29T13:23:58Z</time>
      </trkpt>
      <trkpt lat="44.40976" lon="5.23353">
        <ele>564</ele>
        <time>2022-09-29T13:23:59Z</time>
      </trkpt>
      <trkpt lat="44.40976" lon="5.23351">
        <ele>564</ele>
        <time>2022-09-29T13:24:00Z</time>
      </trkpt>
      <trkpt lat="44.40976" lon="5.2335">
        <ele>564</ele>
        <time>2022-09-29T13:24:01Z</time>
      </trkpt>
      <trkpt lat="44.40976" lon="5.23349">
        <ele>564</ele>
        <time>2022-09-29T13:24:02Z</time>
      </trkpt>
      <trkpt lat="44.40975" lon="5.23347">
        <ele>564</ele>
        <time>2022-09-29T13:24:03Z</time>
      </trkpt>
      <trkpt lat="44.40975" lon="5.23346">
        <ele>563</ele>
        <time>2022-09-29T13:24:04Z</time>
      </trkpt>
      <trkpt lat="44.40975" lon="5.23345">
        <ele>563</ele>
        <time>2022-09-29T13:24:05Z</time>
      </trkpt>
      <trkpt lat="44.40975" lon="5.23343">
        <ele>563</ele>
        <time>2022-09-29T13:24:06Z</time>
      </trkpt>
      <trkpt lat="44.40975" lon="5.23342">
        <ele>563</ele>
        <time>2022-09-29T13:24:07Z</time>
      </trkpt>
      <trkpt lat="44.40975" lon="5.23341">
        <ele>563</ele>
        <time>2022-09-29T13:24:08Z</time>
      </trkpt>
      <trkpt lat="44.40975" lon="5.2334">
        <ele>563</ele>
        <time>2022-09-29T13:24:09Z</time>
      </trkpt>
      <trkpt lat="44.40974" lon="5.23338">
        <ele>563</ele>
        <time>2022-09-29T13:24:10Z</time>
      </trkpt>
      <trkpt lat="44.40974" lon="5.23337">
        <ele>563</ele>
        <time>2022-09-29T13:24:11Z</time>
      </trkpt>
      <trkpt lat="44.40974" lon="5.23336">
        <ele>563</ele>
        <time>2022-09-29T13:24:12Z</time>
      </trkpt>
      <trkpt lat="44.40973" lon="5.23334">
        <ele>563</ele>
        <time>2022-09-29T13:24:13Z</time>
      </trkpt>
      <trkpt lat="44.40973" lon="5.23333">
        <ele>563</ele>
        <time>2022-09-29T13:24:14Z</time>
      </trkpt>
      <trkpt lat="44.40973" lon="5.23332">
        <ele>563</ele>
        <time>2022-09-29T13:24:15Z</time>
      </trkpt>
      <trkpt lat="44.40972" lon="5.2333">
        <ele>563</ele>
        <time>2022-09-29T13:24:16Z</time>
      </trkpt>
      <trkpt lat="44.40972" lon="5.23329">
        <ele>563</ele>
        <time>2022-09-29T13:24:17Z</time>
      </trkpt>
      <trkpt lat="44.40972" lon="5.23328">
        <ele>563</ele>
        <time>2022-09-29T13:24:18Z</time>
      </trkpt>
      <trkpt lat="44.40971" lon="5.23327">
        <ele>562</ele>
        <time>2022-09-29T13:24:19Z</time>
      </trkpt>
      <trkpt lat="44.40971" lon="5.23325">
        <ele>562</ele>
        <time>2022-09-29T13:24:20Z</time>
      </trkpt>
      <trkpt lat="44.40971" lon="5.23324">
        <ele>562</ele>
        <time>2022-09-29T13:24:21Z</time>
      </trkpt>
      <trkpt lat="44.4097" lon="5.23322">
        <ele>562</ele>
        <time>2022-09-29T13:24:22Z</time>
      </trkpt>
      <trkpt lat="44.4097" lon="5.23321">
        <ele>562</ele>
        <time>2022-09-29T13:24:23Z</time>
      </trkpt>
      <trkpt lat="44.40969" lon="5.2332">
        <ele>562</ele>
        <time>2022-09-29T13:24:24Z</time>
      </trkpt>
      <trkpt lat="44.40969" lon="5.23318">
        <ele>562</ele>
        <time>2022-09-29T13:24:25Z</time>
      </trkpt>
      <trkpt lat="44.40968" lon="5.23317">
        <ele>562</ele>
        <time>2022-09-29T13:24:26Z</time>
      </trkpt>
      <trkpt lat="44.40967" lon="5.23316">
        <ele>562</ele>
        <time>2022-09-29T13:24:27Z</time>
      </trkpt>
      <trkpt lat="44.40966" lon="5.23315">
        <ele>562</ele>
        <time>2022-09-29T13:24:28Z</time>
      </trkpt>
      <trkpt lat="44.40966" lon="5.23314">
        <ele>561</ele>
        <time>2022-09-29T13:24:29Z</time>
      </trkpt>
      <trkpt lat="44.40965" lon="5.23312">
        <ele>561</ele>
        <time>2022-09-29T13:24:30Z</time>
      </trkpt>
      <trkpt lat="44.40964" lon="5.23311">
        <ele>561</ele>
        <time>2022-09-29T13:24:31Z</time>
      </trkpt>
      <trkpt lat="44.40964" lon="5.2331">
        <ele>561</ele>
        <time>2022-09-29T13:24:32Z</time>
      </trkpt>
      <trkpt lat="44.40963" lon="5.23308">
        <ele>561</ele>
        <time>2022-09-29T13:24:33Z</time>
      </trkpt>
      <trkpt lat="44.40963" lon="5.23307">
        <ele>561</ele>
        <time>2022-09-29T13:24:34Z</time>
      </trkpt>
      <trkpt lat="44.40962" lon="5.23306">
        <ele>561</ele>
        <time>2022-09-29T13:24:35Z</time>
      </trkpt>
      <trkpt lat="44.40962" lon="5.23305">
        <ele>561</ele>
        <time>2022-09-29T13:24:36Z</time>
      </trkpt>
      <trkpt lat="44.40961" lon="5.23303">
        <ele>561</ele>
        <time>2022-09-29T13:24:37Z</time>
      </trkpt>
      <trkpt lat="44.4096" lon="5.23302">
        <ele>561</ele>
        <time>2022-09-29T13:24:38Z</time>
      </trkpt>
      <trkpt lat="44.4096" lon="5.23301">
        <ele>561</ele>
        <time>2022-09-29T13:24:39Z</time>
      </trkpt>
      <trkpt lat="44.40959" lon="5.233">
        <ele>561</ele>
        <time>2022-09-29T13:24:40Z</time>
      </trkpt>
      <trkpt lat="44.40958" lon="5.23299">
        <ele>561</ele>
        <time>2022-09-29T13:24:41Z</time>
      </trkpt>
      <trkpt lat="44.40957" lon="5.23297">
        <ele>561</ele>
        <time>2022-09-29T13:24:42Z</time>
      </trkpt>
      <trkpt lat="44.40957" lon="5.23296">
        <ele>561</ele>
        <time>2022-09-29T13:24:43Z</time>
      </trkpt>
      <trkpt lat="44.40956" lon="5.23295">
        <ele>560</ele>
        <time>2022-09-29T13:24:44Z</time>
      </trkpt>
      <trkpt lat="44.40955" lon="5.23294">
        <ele>560</ele>
        <time>2022-09-29T13:24:45Z</time>
      </trkpt>
      <trkpt lat="44.40954" lon="5.23293">
        <ele>560</ele>
        <time>2022-09-29T13:24:46Z</time>
      </trkpt>
      <trkpt lat="44.40954" lon="5.23292">
        <ele>560</ele>
        <time>2022-09-29T13:24:47Z</time>
      </trkpt>
      <trkpt lat="44.40953" lon="5.23291">
        <ele>560</ele>
        <time>2022-09-29T13:24:48Z</time>
      </trkpt>
      <trkpt lat="44.40952" lon="5.2329">
        <ele>560</ele>
        <time>2022-09-29T13:24:49Z</time>
      </trkpt>
      <trkpt lat="44.40952" lon="5.23289">
        <ele>560</ele>
        <time>2022-09-29T13:24:50Z</time>
      </trkpt>
      <trkpt lat="44.40951" lon="5.23287">
        <ele>560</ele>
        <time>2022-09-29T13:24:51Z</time>
      </trkpt>
      <trkpt lat="44.4095" lon="5.23286">
        <ele>560</ele>
        <time>2022-09-29T13:24:52Z</time>
      </trkpt>
      <trkpt lat="44.4095" lon="5.23285">
        <ele>560</ele>
        <time>2022-09-29T13:24:53Z</time>
      </trkpt>
      <trkpt lat="44.40949" lon="5.23283">
        <ele>560</ele>
        <time>2022-09-29T13:24:54Z</time>
      </trkpt>
      <trkpt lat="44.40948" lon="5.23282">
        <ele>560</ele>
        <time>2022-09-29T13:24:55Z</time>
      </trkpt>
      <trkpt lat="44.40948" lon="5.23281">
        <ele>560</ele>
        <time>2022-09-29T13:24:56Z</time>
      </trkpt>
      <trkpt lat="44.40947" lon="5.23279">
        <ele>560</ele>
        <time>2022-09-29T13:24:57Z</time>
      </trkpt>
      <trkpt lat="44.40947" lon="5.23278">
        <ele>560</ele>
        <time>2022-09-29T13:24:58Z</time>
      </trkpt>
      <trkpt lat="44.40946" lon="5.23277">
        <ele>560</ele>
        <time>2022-09-29T13:24:59Z</time>
      </trkpt>
      <trkpt lat="44.40945" lon="5.23276">
        <ele>560</ele>
        <time>2022-09-29T13:25:00Z</time>
      </trkpt>
      <trkpt lat="44.40945" lon="5.23275">
        <ele>560</ele>
        <time>2022-09-29T13:25:01Z</time>
      </trkpt>
      <trkpt lat="44.40944" lon="5.23273">
        <ele>560</ele>
        <time>2022-09-29T13:25:02Z</time>
      </trkpt>
      <trkpt lat="44.40943" lon="5.23272">
        <ele>560</ele>
        <time>2022-09-29T13:25:03Z</time>
      </trkpt>
      <trkpt lat="44.40942" lon="5.23271">
        <ele>560</ele>
        <time>2022-09-29T13:25:04Z</time>
      </trkpt>
      <trkpt lat="44.40942" lon="5.2327">
        <ele>560</ele>
        <time>2022-09-29T13:25:05Z</time>
      </trkpt>
      <trkpt lat="44.40941" lon="5.23269">
        <ele>560</ele>
        <time>2022-09-29T13:25:06Z</time>
      </trkpt>
      <trkpt lat="44.4094" lon="5.23268">
        <ele>560</ele>
        <time>2022-09-29T13:25:07Z</time>
      </trkpt>
      <trkpt lat="44.40939" lon="5.23267">
        <ele>561</ele>
        <time>2022-09-29T13:25:08Z</time>
      </trkpt>
      <trkpt lat="44.40938" lon="5.23266">
        <ele>561</ele>
        <time>2022-09-29T13:25:09Z</time>
      </trkpt>
      <trkpt lat="44.40937" lon="5.23265">
        <ele>561</ele>
        <time>2022-09-29T13:25:10Z</time>
      </trkpt>
      <trkpt lat="44.40937" lon="5.23264">
        <ele>561</ele>
        <time>2022-09-29T13:25:11Z</time>
      </trkpt>
      <trkpt lat="44.40936" lon="5.23263">
        <ele>561</ele>
        <time>2022-09-29T13:25:12Z</time>
      </trkpt>
      <trkpt lat="44.40935" lon="5.23262">
        <ele>561</ele>
        <time>2022-09-29T13:25:13Z</time>
      </trkpt>
      <trkpt lat="44.40934" lon="5.2326">
        <ele>561</ele>
        <time>2022-09-29T13:25:14Z</time>
      </trkpt>
      <trkpt lat="44.40934" lon="5.23259">
        <ele>561</ele>
        <time>2022-09-29T13:25:15Z</time>
      </trkpt>
      <trkpt lat="44.40933" lon="5.23258">
        <ele>561</ele>
        <time>2022-09-29T13:25:16Z</time>
      </trkpt>
      <trkpt lat="44.40932" lon="5.23257">
        <ele>561</ele>
        <time>2022-09-29T13:25:17Z</time>
      </trkpt>
      <trkpt lat="44.40931" lon="5.23256">
        <ele>561</ele>
        <time>2022-09-29T13:25:18Z</time>
      </trkpt>
      <trkpt lat="44.40931" lon="5.23255">
        <ele>561</ele>
        <time>2022-09-29T13:25:19Z</time>
      </trkpt>
      <trkpt lat="44.4093" lon="5.23254">
        <ele>561</ele>
        <time>2022-09-29T13:25:20Z</time>
      </trkpt>
      <trkpt lat="44.40929" lon="5.23253">
        <ele>561</ele>
        <time>2022-09-29T13:25:21Z</time>
      </trkpt>
      <trkpt lat="44.40929" lon="5.23252">
        <ele>561</ele>
        <time>2022-09-29T13:25:22Z</time>
      </trkpt>
      <trkpt lat="44.40929" lon="5.23251">
        <ele>562</ele>
        <time>2022-09-29T13:25:23Z</time>
      </trkpt>
      <trkpt lat="44.40928" lon="5.2325">
        <ele>562</ele>
        <time>2022-09-29T13:25:24Z</time>
      </trkpt>
      <trkpt lat="44.40928" lon="5.2325">
        <ele>562</ele>
        <time>2022-09-29T13:25:25Z</time>
      </trkpt>
      <trkpt lat="44.40928" lon="5.23249">
        <ele>562</ele>
        <time>2022-09-29T13:25:26Z</time>
      </trkpt>
      <trkpt lat="44.40927" lon="5.23248">
        <ele>562</ele>
        <time>2022-09-29T13:25:27Z</time>
      </trkpt>
      <trkpt lat="44.40927" lon="5.23247">
        <ele>562</ele>
        <time>2022-09-29T13:25:28Z</time>
      </trkpt>
      <trkpt lat="44.40926" lon="5.23246">
        <ele>562</ele>
        <time>2022-09-29T13:25:29Z</time>
      </trkpt>
      <trkpt lat="44.40926" lon="5.23245">
        <ele>562</ele>
        <time>2022-09-29T13:25:30Z</time>
      </trkpt>
      <trkpt lat="44.40925" lon="5.23244">
        <ele>562</ele>
        <time>2022-09-29T13:25:31Z</time>
      </trkpt>
      <trkpt lat="44.40925" lon="5.23243">
        <ele>562</ele>
        <time>2022-09-29T13:25:32Z</time>
      </trkpt>
      <trkpt lat="44.40924" lon="5.23242">
        <ele>562</ele>
        <time>2022-09-29T13:25:33Z</time>
      </trkpt>
      <trkpt lat="44.40924" lon="5.23241">
        <ele>562</ele>
        <time>2022-09-29T13:25:34Z</time>
      </trkpt>
      <trkpt lat="44.40923" lon="5.2324">
        <ele>562</ele>
        <time>2022-09-29T13:25:35Z</time>
      </trkpt>
      <trkpt lat="44.40923" lon="5.23238">
        <ele>562</ele>
        <time>2022-09-29T13:25:36Z</time>
      </trkpt>
      <trkpt lat="44.40922" lon="5.23237">
        <ele>562</ele>
        <time>2022-09-29T13:25:37Z</time>
      </trkpt>
      <trkpt lat="44.40922" lon="5.23236">
        <ele>563</ele>
        <time>2022-09-29T13:25:38Z</time>
      </trkpt>
      <trkpt lat="44.40922" lon="5.23234">
        <ele>563</ele>
        <time>2022-09-29T13:25:39Z</time>
      </trkpt>
      <trkpt lat="44.40921" lon="5.23233">
        <ele>563</ele>
        <time>2022-09-29T13:25:40Z</time>
      </trkpt>
      <trkpt lat="44.40921" lon="5.23232">
        <ele>563</ele>
        <time>2022-09-29T13:25:41Z</time>
      </trkpt>
      <trkpt lat="44.40921" lon="5.2323">
        <ele>563</ele>
        <time>2022-09-29T13:25:42Z</time>
      </trkpt>
      <trkpt lat="44.4092" lon="5.23229">
        <ele>563</ele>
        <time>2022-09-29T13:25:43Z</time>
      </trkpt>
      <trkpt lat="44.4092" lon="5.23228">
        <ele>563</ele>
        <time>2022-09-29T13:25:44Z</time>
      </trkpt>
      <trkpt lat="44.4092" lon="5.23226">
        <ele>563</ele>
        <time>2022-09-29T13:25:45Z</time>
      </trkpt>
      <trkpt lat="44.4092" lon="5.23225">
        <ele>563</ele>
        <time>2022-09-29T13:25:46Z</time>
      </trkpt>
      <trkpt lat="44.4092" lon="5.23224">
        <ele>563</ele>
        <time>2022-09-29T13:25:47Z</time>
      </trkpt>
      <trkpt lat="44.40919" lon="5.23223">
        <ele>564</ele>
        <time>2022-09-29T13:25:48Z</time>
      </trkpt>
      <trkpt lat="44.40919" lon="5.23221">
        <ele>564</ele>
        <time>2022-09-29T13:25:49Z</time>
      </trkpt>
      <trkpt lat="44.40919" lon="5.2322">
        <ele>564</ele>
        <time>2022-09-29T13:25:50Z</time>
      </trkpt>
      <trkpt lat="44.40919" lon="5.23219">
        <ele>564</ele>
        <time>2022-09-29T13:25:51Z</time>
      </trkpt>
      <trkpt lat="44.40918" lon="5.23217">
        <ele>564</ele>
        <time>2022-09-29T13:25:52Z</time>
      </trkpt>
      <trkpt lat="44.40918" lon="5.23216">
        <ele>564</ele>
        <time>2022-09-29T13:25:53Z</time>
      </trkpt>
      <trkpt lat="44.40918" lon="5.23214">
        <ele>564</ele>
        <time>2022-09-29T13:25:54Z</time>
      </trkpt>
      <trkpt lat="44.40918" lon="5.23213">
        <ele>564</ele>
        <time>2022-09-29T13:25:55Z</time>
      </trkpt>
      <trkpt lat="44.40917" lon="5.23212">
        <ele>564</ele>
        <time>2022-09-29T13:25:56Z</time>
      </trkpt>
      <trkpt lat="44.40917" lon="5.2321">
        <ele>564</ele>
        <time>2022-09-29T13:25:57Z</time>
      </trkpt>
      <trkpt lat="44.40917" lon="5.23209">
        <ele>564</ele>
        <time>2022-09-29T13:25:58Z</time>
      </trkpt>
      <trkpt lat="44.40917" lon="5.23207">
        <ele>564</ele>
        <time>2022-09-29T13:25:59Z</time>
      </trkpt>
      <trkpt lat="44.40917" lon="5.23206">
        <ele>564</ele>
        <time>2022-09-29T13:26:00Z</time>
      </trkpt>
      <trkpt lat="44.40916" lon="5.23204">
        <ele>564</ele>
        <time>2022-09-29T13:26:01Z</time>
      </trkpt>
      <trkpt lat="44.40916" lon="5.23203">
        <ele>564</ele>
        <time>2022-09-29T13:26:02Z</time>
      </trkpt>
      <trkpt lat="44.40916" lon="5.23202">
        <ele>565</ele>
        <time>2022-09-29T13:26:03Z</time>
      </trkpt>
      <trkpt lat="44.40916" lon="5.232">
        <ele>565</ele>
        <time>2022-09-29T13:26:04Z</time>
      </trkpt>
      <trkpt lat="44.40915" lon="5.23199">
        <ele>565</ele>
        <time>2022-09-29T13:26:05Z</time>
      </trkpt>
      <trkpt lat="44.40915" lon="5.23197">
        <ele>565</ele>
        <time>2022-09-29T13:26:06Z</time>
      </trkpt>
      <trkpt lat="44.40915" lon="5.23196">
        <ele>565</ele>
        <time>2022-09-29T13:26:07Z</time>
      </trkpt>
      <trkpt lat="44.40915" lon="5.23196">
        <ele>566</ele>
        <time>2022-09-29T13:26:08Z</time>
      </trkpt>
      <trkpt lat="44.40915" lon="5.23195">
        <ele>566</ele>
        <time>2022-09-29T13:26:09Z</time>
      </trkpt>
      <trkpt lat="44.40915" lon="5.23194">
        <ele>566</ele>
        <time>2022-09-29T13:26:10Z</time>
      </trkpt>
      <trkpt lat="44.40914" lon="5.23193">
        <ele>566</ele>
        <time>2022-09-29T13:26:11Z</time>
      </trkpt>
      <trkpt lat="44.40914" lon="5.23192">
        <ele>566</ele>
        <time>2022-09-29T13:26:12Z</time>
      </trkpt>
      <trkpt lat="44.40914" lon="5.23191">
        <ele>566</ele>
        <time>2022-09-29T13:26:13Z</time>
      </trkpt>
      <trkpt lat="44.40913" lon="5.2319">
        <ele>566</ele>
        <time>2022-09-29T13:26:14Z</time>
      </trkpt>
      <trkpt lat="44.40913" lon="5.23189">
        <ele>566</ele>
        <time>2022-09-29T13:26:15Z</time>
      </trkpt>
      <trkpt lat="44.40913" lon="5.23188">
        <ele>566</ele>
        <time>2022-09-29T13:26:16Z</time>
      </trkpt>
      <trkpt lat="44.40913" lon="5.23187">
        <ele>566</ele>
        <time>2022-09-29T13:26:17Z</time>
      </trkpt>
      <trkpt lat="44.40912" lon="5.23185">
        <ele>567</ele>
        <time>2022-09-29T13:26:18Z</time>
      </trkpt>
      <trkpt lat="44.40912" lon="5.23184">
        <ele>567</ele>
        <time>2022-09-29T13:26:19Z</time>
      </trkpt>
      <trkpt lat="44.40912" lon="5.23183">
        <ele>567</ele>
        <time>2022-09-29T13:26:20Z</time>
      </trkpt>
      <trkpt lat="44.40911" lon="5.23182">
        <ele>567</ele>
        <time>2022-09-29T13:26:21Z</time>
      </trkpt>
      <trkpt lat="44.40911" lon="5.23181">
        <ele>567</ele>
        <time>2022-09-29T13:26:22Z</time>
      </trkpt>
      <trkpt lat="44.40911" lon="5.2318">
        <ele>568</ele>
        <time>2022-09-29T13:26:23Z</time>
      </trkpt>
      <trkpt lat="44.4091" lon="5.23179">
        <ele>568</ele>
        <time>2022-09-29T13:26:24Z</time>
      </trkpt>
      <trkpt lat="44.4091" lon="5.23177">
        <ele>568</ele>
        <time>2022-09-29T13:26:25Z</time>
      </trkpt>
      <trkpt lat="44.40909" lon="5.23176">
        <ele>568</ele>
        <time>2022-09-29T13:26:26Z</time>
      </trkpt>
      <trkpt lat="44.40909" lon="5.23175">
        <ele>568</ele>
        <time>2022-09-29T13:26:27Z</time>
      </trkpt>
      <trkpt lat="44.40909" lon="5.23174">
        <ele>568</ele>
        <time>2022-09-29T13:26:28Z</time>
      </trkpt>
      <trkpt lat="44.40908" lon="5.23173">
        <ele>568</ele>
        <time>2022-09-29T13:26:29Z</time>
      </trkpt>
      <trkpt lat="44.40908" lon="5.23172">
        <ele>568</ele>
        <time>2022-09-29T13:26:30Z</time>
      </trkpt>
      <trkpt lat="44.40907" lon="5.23171">
        <ele>568</ele>
        <time>2022-09-29T13:26:31Z</time>
      </trkpt>
      <trkpt lat="44.40907" lon="5.23169">
        <ele>568</ele>
        <time>2022-09-29T13:26:32Z</time>
      </trkpt>
      <trkpt lat="44.40906" lon="5.23168">
        <ele>569</ele>
        <time>2022-09-29T13:26:33Z</time>
      </trkpt>
      <trkpt lat="44.40906" lon="5.23167">
        <ele>569</ele>
        <time>2022-09-29T13:26:34Z</time>
      </trkpt>
      <trkpt lat="44.40906" lon="5.23166">
        <ele>569</ele>
        <time>2022-09-29T13:26:35Z</time>
      </trkpt>
      <trkpt lat="44.40905" lon="5.23164">
        <ele>569</ele>
        <time>2022-09-29T13:26:36Z</time>
      </trkpt>
      <trkpt lat="44.40905" lon="5.23163">
        <ele>569</ele>
        <time>2022-09-29T13:26:37Z</time>
      </trkpt>
      <trkpt lat="44.40905" lon="5.23162">
        <ele>569</ele>
        <time>2022-09-29T13:26:38Z</time>
      </trkpt>
      <trkpt lat="44.40904" lon="5.23161">
        <ele>569</ele>
        <time>2022-09-29T13:26:39Z</time>
      </trkpt>
      <trkpt lat="44.40904" lon="5.2316">
        <ele>569</ele>
        <time>2022-09-29T13:26:40Z</time>
      </trkpt>
      <trkpt lat="44.40903" lon="5.23159">
        <ele>569</ele>
        <time>2022-09-29T13:26:41Z</time>
      </trkpt>
      <trkpt lat="44.40903" lon="5.23158">
        <ele>569</ele>
        <time>2022-09-29T13:26:42Z</time>
      </trkpt>
      <trkpt lat="44.40902" lon="5.23157">
        <ele>570</ele>
        <time>2022-09-29T13:26:43Z</time>
      </trkpt>
      <trkpt lat="44.40902" lon="5.23156">
        <ele>570</ele>
        <time>2022-09-29T13:26:44Z</time>
      </trkpt>
      <trkpt lat="44.40901" lon="5.23156">
        <ele>570</ele>
        <time>2022-09-29T13:26:45Z</time>
      </trkpt>
      <trkpt lat="44.409" lon="5.23155">
        <ele>570</ele>
        <time>2022-09-29T13:26:46Z</time>
      </trkpt>
      <trkpt lat="44.409" lon="5.23154">
        <ele>570</ele>
        <time>2022-09-29T13:26:47Z</time>
      </trkpt>
      <trkpt lat="44.40899" lon="5.23153">
        <ele>571</ele>
        <time>2022-09-29T13:26:48Z</time>
      </trkpt>
      <trkpt lat="44.40898" lon="5.23152">
        <ele>571</ele>
        <time>2022-09-29T13:26:49Z</time>
      </trkpt>
      <trkpt lat="44.40898" lon="5.23152">
        <ele>571</ele>
        <time>2022-09-29T13:26:50Z</time>
      </trkpt>
      <trkpt lat="44.40897" lon="5.23151">
        <ele>571</ele>
        <time>2022-09-29T13:26:51Z</time>
      </trkpt>
      <trkpt lat="44.40896" lon="5.2315">
        <ele>571</ele>
        <time>2022-09-29T13:26:52Z</time>
      </trkpt>
      <trkpt lat="44.40895" lon="5.2315">
        <ele>572</ele>
        <time>2022-09-29T13:26:53Z</time>
      </trkpt>
      <trkpt lat="44.40895" lon="5.2315">
        <ele>572</ele>
        <time>2022-09-29T13:26:54Z</time>
      </trkpt>
      <trkpt lat="44.40894" lon="5.23149">
        <ele>572</ele>
        <time>2022-09-29T13:26:55Z</time>
      </trkpt>
      <trkpt lat="44.40893" lon="5.23149">
        <ele>572</ele>
        <time>2022-09-29T13:26:56Z</time>
      </trkpt>
      <trkpt lat="44.40892" lon="5.23149">
        <ele>572</ele>
        <time>2022-09-29T13:26:57Z</time>
      </trkpt>
      <trkpt lat="44.40892" lon="5.23148">
        <ele>572</ele>
        <time>2022-09-29T13:26:58Z</time>
      </trkpt>
      <trkpt lat="44.40891" lon="5.23148">
        <ele>572</ele>
        <time>2022-09-29T13:26:59Z</time>
      </trkpt>
      <trkpt lat="44.4089" lon="5.23148">
        <ele>572</ele>
        <time>2022-09-29T13:27:00Z</time>
      </trkpt>
      <trkpt lat="44.4089" lon="5.23148">
        <ele>572</ele>
        <time>2022-09-29T13:27:01Z</time>
      </trkpt>
      <trkpt lat="44.40889" lon="5.23148">
        <ele>572</ele>
        <time>2022-09-29T13:27:02Z</time>
      </trkpt>
      <trkpt lat="44.40888" lon="5.23148">
        <ele>572</ele>
        <time>2022-09-29T13:27:03Z</time>
      </trkpt>
      <trkpt lat="44.40887" lon="5.23148">
        <ele>572</ele>
        <time>2022-09-29T13:27:04Z</time>
      </trkpt>
      <trkpt lat="44.40887" lon="5.23148">
        <ele>572</ele>
        <time>2022-09-29T13:27:05Z</time>
      </trkpt>
      <trkpt lat="44.40886" lon="5.23148">
        <ele>572</ele>
        <time>2022-09-29T13:27:06Z</time>
      </trkpt>
      <trkpt lat="44.40885" lon="5.23148">
        <ele>572</ele>
        <time>2022-09-29T13:27:07Z</time>
      </trkpt>
      <trkpt lat="44.40884" lon="5.23148">
        <ele>573</ele>
        <time>2022-09-29T13:27:08Z</time>
      </trkpt>
      <trkpt lat="44.40883" lon="5.23148">
        <ele>573</ele>
        <time>2022-09-29T13:27:09Z</time>
      </trkpt>
      <trkpt lat="44.40882" lon="5.23148">
        <ele>573</ele>
        <time>2022-09-29T13:27:10Z</time>
      </trkpt>
      <trkpt lat="44.40882" lon="5.23148">
        <ele>573</ele>
        <time>2022-09-29T13:27:11Z</time>
      </trkpt>
      <trkpt lat="44.40881" lon="5.23148">
        <ele>573</ele>
        <time>2022-09-29T13:27:12Z</time>
      </trkpt>
      <trkpt lat="44.4088" lon="5.23148">
        <ele>574</ele>
        <time>2022-09-29T13:27:13Z</time>
      </trkpt>
      <trkpt lat="44.40879" lon="5.23148">
        <ele>574</ele>
        <time>2022-09-29T13:27:14Z</time>
      </trkpt>
      <trkpt lat="44.40878" lon="5.23148">
        <ele>574</ele>
        <time>2022-09-29T13:27:15Z</time>
      </trkpt>
      <trkpt lat="44.40877" lon="5.23148">
        <ele>574</ele>
        <time>2022-09-29T13:27:16Z</time>
      </trkpt>
      <trkpt lat="44.40877" lon="5.23148">
        <ele>574</ele>
        <time>2022-09-29T13:27:17Z</time>
      </trkpt>
      <trkpt lat="44.40876" lon="5.23147">
        <ele>575</ele>
        <time>2022-09-29T13:27:18Z</time>
      </trkpt>
      <trkpt lat="44.40875" lon="5.23147">
        <ele>575</ele>
        <time>2022-09-29T13:27:19Z</time>
      </trkpt>
      <trkpt lat="44.40874" lon="5.23147">
        <ele>575</ele>
        <time>2022-09-29T13:27:20Z</time>
      </trkpt>
      <trkpt lat="44.40874" lon="5.23146">
        <ele>575</ele>
        <time>2022-09-29T13:27:21Z</time>
      </trkpt>
      <trkpt lat="44.40873" lon="5.23145">
        <ele>575</ele>
        <time>2022-09-29T13:27:22Z</time>
      </trkpt>
      <trkpt lat="44.40872" lon="5.23145">
        <ele>575</ele>
        <time>2022-09-29T13:27:23Z</time>
      </trkpt>
      <trkpt lat="44.40872" lon="5.23144">
        <ele>575</ele>
        <time>2022-09-29T13:27:24Z</time>
      </trkpt>
      <trkpt lat="44.40871" lon="5.23144">
        <ele>575</ele>
        <time>2022-09-29T13:27:25Z</time>
      </trkpt>
      <trkpt lat="44.40871" lon="5.23143">
        <ele>575</ele>
        <time>2022-09-29T13:27:26Z</time>
      </trkpt>
      <trkpt lat="44.4087" lon="5.23143">
        <ele>575</ele>
        <time>2022-09-29T13:27:27Z</time>
      </trkpt>
      <trkpt lat="44.40869" lon="5.23142">
        <ele>576</ele>
        <time>2022-09-29T13:27:28Z</time>
      </trkpt>
      <trkpt lat="44.40868" lon="5.23141">
        <ele>576</ele>
        <time>2022-09-29T13:27:29Z</time>
      </trkpt>
      <trkpt lat="44.40868" lon="5.2314">
        <ele>576</ele>
        <time>2022-09-29T13:27:30Z</time>
      </trkpt>
      <trkpt lat="44.40867" lon="5.2314">
        <ele>576</ele>
        <time>2022-09-29T13:27:31Z</time>
      </trkpt>
      <trkpt lat="44.40866" lon="5.23139">
        <ele>576</ele>
        <time>2022-09-29T13:27:32Z</time>
      </trkpt>
      <trkpt lat="44.40866" lon="5.23138">
        <ele>576</ele>
        <time>2022-09-29T13:27:33Z</time>
      </trkpt>
      <trkpt lat="44.40865" lon="5.23138">
        <ele>576</ele>
        <time>2022-09-29T13:27:34Z</time>
      </trkpt>
      <trkpt lat="44.40864" lon="5.23137">
        <ele>576</ele>
        <time>2022-09-29T13:27:35Z</time>
      </trkpt>
      <trkpt lat="44.40864" lon="5.23136">
        <ele>576</ele>
        <time>2022-09-29T13:27:36Z</time>
      </trkpt>
      <trkpt lat="44.40863" lon="5.23136">
        <ele>576</ele>
        <time>2022-09-29T13:27:37Z</time>
      </trkpt>
      <trkpt lat="44.40863" lon="5.23135">
        <ele>577</ele>
        <time>2022-09-29T13:27:38Z</time>
      </trkpt>
      <trkpt lat="44.40862" lon="5.23134">
        <ele>577</ele>
        <time>2022-09-29T13:27:39Z</time>
      </trkpt>
      <trkpt lat="44.40862" lon="5.23133">
        <ele>577</ele>
        <time>2022-09-29T13:27:40Z</time>
      </trkpt>
      <trkpt lat="44.40861" lon="5.23132">
        <ele>577</ele>
        <time>2022-09-29T13:27:41Z</time>
      </trkpt>
      <trkpt lat="44.40861" lon="5.23131">
        <ele>577</ele>
        <time>2022-09-29T13:27:42Z</time>
      </trkpt>
      <trkpt lat="44.40861" lon="5.2313">
        <ele>577</ele>
        <time>2022-09-29T13:27:43Z</time>
      </trkpt>
      <trkpt lat="44.4086" lon="5.23129">
        <ele>577</ele>
        <time>2022-09-29T13:27:44Z</time>
      </trkpt>
      <trkpt lat="44.4086" lon="5.23127">
        <ele>577</ele>
        <time>2022-09-29T13:27:45Z</time>
      </trkpt>
      <trkpt lat="44.4086" lon="5.23126">
        <ele>577</ele>
        <time>2022-09-29T13:27:46Z</time>
      </trkpt>
      <trkpt lat="44.40859" lon="5.23125">
        <ele>577</ele>
        <time>2022-09-29T13:27:47Z</time>
      </trkpt>
      <trkpt lat="44.40859" lon="5.23124">
        <ele>578</ele>
        <time>2022-09-29T13:27:48Z</time>
      </trkpt>
      <trkpt lat="44.40858" lon="5.23123">
        <ele>578</ele>
        <time>2022-09-29T13:27:49Z</time>
      </trkpt>
      <trkpt lat="44.40858" lon="5.23122">
        <ele>578</ele>
        <time>2022-09-29T13:27:50Z</time>
      </trkpt>
      <trkpt lat="44.40857" lon="5.23122">
        <ele>578</ele>
        <time>2022-09-29T13:27:51Z</time>
      </trkpt>
      <trkpt lat="44.40857" lon="5.23121">
        <ele>578</ele>
        <time>2022-09-29T13:27:52Z</time>
      </trkpt>
      <trkpt lat="44.40856" lon="5.2312">
        <ele>579</ele>
        <time>2022-09-29T13:27:53Z</time>
      </trkpt>
      <trkpt lat="44.40856" lon="5.23119">
        <ele>579</ele>
        <time>2022-09-29T13:27:54Z</time>
      </trkpt>
      <trkpt lat="44.40855" lon="5.23118">
        <ele>579</ele>
        <time>2022-09-29T13:27:55Z</time>
      </trkpt>
      <trkpt lat="44.40855" lon="5.23117">
        <ele>579</ele>
        <time>2022-09-29T13:27:56Z</time>
      </trkpt>
      <trkpt lat="44.40854" lon="5.23116">
        <ele>579</ele>
        <time>2022-09-29T13:27:57Z</time>
      </trkpt>
      <trkpt lat="44.40854" lon="5.23116">
        <ele>580</ele>
        <time>2022-09-29T13:27:58Z</time>
      </trkpt>
      <trkpt lat="44.40854" lon="5.23115">
        <ele>580</ele>
        <time>2022-09-29T13:27:59Z</time>
      </trkpt>
      <trkpt lat="44.40853" lon="5.23114">
        <ele>580</ele>
        <time>2022-09-29T13:28:00Z</time>
      </trkpt>
      <trkpt lat="44.40853" lon="5.23113">
        <ele>580</ele>
        <time>2022-09-29T13:28:01Z</time>
      </trkpt>
      <trkpt lat="44.40852" lon="5.23112">
        <ele>580</ele>
        <time>2022-09-29T13:28:02Z</time>
      </trkpt>
      <trkpt lat="44.40852" lon="5.23111">
        <ele>580</ele>
        <time>2022-09-29T13:28:03Z</time>
      </trkpt>
      <trkpt lat="44.40851" lon="5.2311">
        <ele>580</ele>
        <time>2022-09-29T13:28:04Z</time>
      </trkpt>
      <trkpt lat="44.40851" lon="5.2311">
        <ele>580</ele>
        <time>2022-09-29T13:28:05Z</time>
      </trkpt>
      <trkpt lat="44.4085" lon="5.23109">
        <ele>580</ele>
        <time>2022-09-29T13:28:06Z</time>
      </trkpt>
      <trkpt lat="44.4085" lon="5.23108">
        <ele>580</ele>
        <time>2022-09-29T13:28:07Z</time>
      </trkpt>
      <trkpt lat="44.4085" lon="5.23107">
        <ele>581</ele>
        <time>2022-09-29T13:28:08Z</time>
      </trkpt>
      <trkpt lat="44.40849" lon="5.23106">
        <ele>581</ele>
        <time>2022-09-29T13:28:09Z</time>
      </trkpt>
      <trkpt lat="44.40849" lon="5.23105">
        <ele>581</ele>
        <time>2022-09-29T13:28:10Z</time>
      </trkpt>
      <trkpt lat="44.40849" lon="5.23104">
        <ele>581</ele>
        <time>2022-09-29T13:28:11Z</time>
      </trkpt>
      <trkpt lat="44.40849" lon="5.23103">
        <ele>581</ele>
        <time>2022-09-29T13:28:12Z</time>
      </trkpt>
      <trkpt lat="44.40848" lon="5.23102">
        <ele>582</ele>
        <time>2022-09-29T13:28:13Z</time>
      </trkpt>
      <trkpt lat="44.40848" lon="5.23102">
        <ele>582</ele>
        <time>2022-09-29T13:28:14Z</time>
      </trkpt>
      <trkpt lat="44.40848" lon="5.23101">
        <ele>582</ele>
        <time>2022-09-29T13:28:15Z</time>
      </trkpt>
      <trkpt lat="44.40848" lon="5.231">
        <ele>582</ele>
        <time>2022-09-29T13:28:16Z</time>
      </trkpt>
      <trkpt lat="44.40847" lon="5.23099">
        <ele>582</ele>
        <time>2022-09-29T13:28:17Z</time>
      </trkpt>
      <trkpt lat="44.40847" lon="5.23099">
        <ele>582</ele>
        <time>2022-09-29T13:28:18Z</time>
      </trkpt>
      <trkpt lat="44.40847" lon="5.23098">
        <ele>582</ele>
        <time>2022-09-29T13:28:19Z</time>
      </trkpt>
      <trkpt lat="44.40847" lon="5.23097">
        <ele>582</ele>
        <time>2022-09-29T13:28:20Z</time>
      </trkpt>
      <trkpt lat="44.40847" lon="5.23096">
        <ele>582</ele>
        <time>2022-09-29T13:28:21Z</time>
      </trkpt>
      <trkpt lat="44.40846" lon="5.23095">
        <ele>582</ele>
        <time>2022-09-29T13:28:22Z</time>
      </trkpt>
      <trkpt lat="44.40846" lon="5.23094">
        <ele>583</ele>
        <time>2022-09-29T13:28:23Z</time>
      </trkpt>
      <trkpt lat="44.40846" lon="5.23093">
        <ele>583</ele>
        <time>2022-09-29T13:28:24Z</time>
      </trkpt>
      <trkpt lat="44.40845" lon="5.23093">
        <ele>583</ele>
        <time>2022-09-29T13:28:25Z</time>
      </trkpt>
      <trkpt lat="44.40845" lon="5.23092">
        <ele>583</ele>
        <time>2022-09-29T13:28:26Z</time>
      </trkpt>
      <trkpt lat="44.40845" lon="5.23091">
        <ele>583</ele>
        <time>2022-09-29T13:28:27Z</time>
      </trkpt>
      <trkpt lat="44.40844" lon="5.2309">
        <ele>584</ele>
        <time>2022-09-29T13:28:28Z</time>
      </trkpt>
      <trkpt lat="44.40844" lon="5.23089">
        <ele>584</ele>
        <time>2022-09-29T13:28:29Z</time>
      </trkpt>
      <trkpt lat="44.40844" lon="5.23088">
        <ele>584</ele>
        <time>2022-09-29T13:28:30Z</time>
      </trkpt>
      <trkpt lat="44.40843" lon="5.23088">
        <ele>584</ele>
        <time>2022-09-29T13:28:31Z</time>
      </trkpt>
      <trkpt lat="44.40843" lon="5.23087">
        <ele>584</ele>
        <time>2022-09-29T13:28:32Z</time>
      </trkpt>
      <trkpt lat="44.40843" lon="5.23086">
        <ele>584</ele>
        <time>2022-09-29T13:28:33Z</time>
      </trkpt>
      <trkpt lat="44.40842" lon="5.23085">
        <ele>584</ele>
        <time>2022-09-29T13:28:34Z</time>
      </trkpt>
      <trkpt lat="44.40842" lon="5.23084">
        <ele>584</ele>
        <time>2022-09-29T13:28:35Z</time>
      </trkpt>
      <trkpt lat="44.40841" lon="5.23083">
        <ele>584</ele>
        <time>2022-09-29T13:28:36Z</time>
      </trkpt>
      <trkpt lat="44.40841" lon="5.23082">
        <ele>584</ele>
        <time>2022-09-29T13:28:37Z</time>
      </trkpt>
      <trkpt lat="44.4084" lon="5.23081">
        <ele>585</ele>
        <time>2022-09-29T13:28:38Z</time>
      </trkpt>
      <trkpt lat="44.4084" lon="5.2308">
        <ele>585</ele>
        <time>2022-09-29T13:28:39Z</time>
      </trkpt>
      <trkpt lat="44.4084" lon="5.23079">
        <ele>585</ele>
        <time>2022-09-29T13:28:40Z</time>
      </trkpt>
      <trkpt lat="44.40839" lon="5.23078">
        <ele>585</ele>
        <time>2022-09-29T13:28:41Z</time>
      </trkpt>
      <trkpt lat="44.40839" lon="5.23077">
        <ele>585</ele>
        <time>2022-09-29T13:28:42Z</time>
      </trkpt>
      <trkpt lat="44.40838" lon="5.23076">
        <ele>586</ele>
        <time>2022-09-29T13:28:43Z</time>
      </trkpt>
      <trkpt lat="44.40838" lon="5.23075">
        <ele>586</ele>
        <time>2022-09-29T13:28:44Z</time>
      </trkpt>
      <trkpt lat="44.40837" lon="5.23074">
        <ele>586</ele>
        <time>2022-09-29T13:28:45Z</time>
      </trkpt>
      <trkpt lat="44.40837" lon="5.23074">
        <ele>586</ele>
        <time>2022-09-29T13:28:46Z</time>
      </trkpt>
      <trkpt lat="44.40836" lon="5.23073">
        <ele>586</ele>
        <time>2022-09-29T13:28:47Z</time>
      </trkpt>
      <trkpt lat="44.40835" lon="5.23072">
        <ele>587</ele>
        <time>2022-09-29T13:28:48Z</time>
      </trkpt>
      <trkpt lat="44.40835" lon="5.2307">
        <ele>587</ele>
        <time>2022-09-29T13:28:49Z</time>
      </trkpt>
      <trkpt lat="44.40835" lon="5.23069">
        <ele>587</ele>
        <time>2022-09-29T13:28:50Z</time>
      </trkpt>
      <trkpt lat="44.40834" lon="5.23068">
        <ele>587</ele>
        <time>2022-09-29T13:28:51Z</time>
      </trkpt>
      <trkpt lat="44.40834" lon="5.23067">
        <ele>587</ele>
        <time>2022-09-29T13:28:52Z</time>
      </trkpt>
      <trkpt lat="44.40834" lon="5.23066">
        <ele>587</ele>
        <time>2022-09-29T13:28:53Z</time>
      </trkpt>
      <trkpt lat="44.40833" lon="5.23065">
        <ele>587</ele>
        <time>2022-09-29T13:28:54Z</time>
      </trkpt>
      <trkpt lat="44.40833" lon="5.23064">
        <ele>587</ele>
        <time>2022-09-29T13:28:55Z</time>
      </trkpt>
      <trkpt lat="44.40833" lon="5.23063">
        <ele>587</ele>
        <time>2022-09-29T13:28:56Z</time>
      </trkpt>
      <trkpt lat="44.40833" lon="5.23062">
        <ele>587</ele>
        <time>2022-09-29T13:28:57Z</time>
      </trkpt>
      <trkpt lat="44.40832" lon="5.23061">
        <ele>588</ele>
        <time>2022-09-29T13:28:58Z</time>
      </trkpt>
      <trkpt lat="44.40832" lon="5.23061">
        <ele>588</ele>
        <time>2022-09-29T13:28:59Z</time>
      </trkpt>
      <trkpt lat="44.40832" lon="5.23059">
        <ele>588</ele>
        <time>2022-09-29T13:29:00Z</time>
      </trkpt>
      <trkpt lat="44.40832" lon="5.23058">
        <ele>588</ele>
        <time>2022-09-29T13:29:01Z</time>
      </trkpt>
      <trkpt lat="44.40831" lon="5.23057">
        <ele>588</ele>
        <time>2022-09-29T13:29:02Z</time>
      </trkpt>
      <trkpt lat="44.40831" lon="5.23056">
        <ele>589</ele>
        <time>2022-09-29T13:29:03Z</time>
      </trkpt>
      <trkpt lat="44.40831" lon="5.23055">
        <ele>589</ele>
        <time>2022-09-29T13:29:04Z</time>
      </trkpt>
      <trkpt lat="44.4083" lon="5.23054">
        <ele>589</ele>
        <time>2022-09-29T13:29:05Z</time>
      </trkpt>
      <trkpt lat="44.4083" lon="5.23053">
        <ele>589</ele>
        <time>2022-09-29T13:29:06Z</time>
      </trkpt>
      <trkpt lat="44.4083" lon="5.23051">
        <ele>589</ele>
        <time>2022-09-29T13:29:07Z</time>
      </trkpt>
      <trkpt lat="44.40829" lon="5.2305">
        <ele>589</ele>
        <time>2022-09-29T13:29:08Z</time>
      </trkpt>
      <trkpt lat="44.40829" lon="5.23049">
        <ele>589</ele>
        <time>2022-09-29T13:29:09Z</time>
      </trkpt>
      <trkpt lat="44.40829" lon="5.23048">
        <ele>589</ele>
        <time>2022-09-29T13:29:10Z</time>
      </trkpt>
      <trkpt lat="44.40828" lon="5.23047">
        <ele>589</ele>
        <time>2022-09-29T13:29:11Z</time>
      </trkpt>
      <trkpt lat="44.40828" lon="5.23046">
        <ele>589</ele>
        <time>2022-09-29T13:29:12Z</time>
      </trkpt>
      <trkpt lat="44.40828" lon="5.23045">
        <ele>590</ele>
        <time>2022-09-29T13:29:13Z</time>
      </trkpt>
      <trkpt lat="44.40828" lon="5.23044">
        <ele>590</ele>
        <time>2022-09-29T13:29:14Z</time>
      </trkpt>
      <trkpt lat="44.40828" lon="5.23043">
        <ele>590</ele>
        <time>2022-09-29T13:29:15Z</time>
      </trkpt>
      <trkpt lat="44.40827" lon="5.23042">
        <ele>590</ele>
        <time>2022-09-29T13:29:16Z</time>
      </trkpt>
      <trkpt lat="44.40827" lon="5.23041">
        <ele>590</ele>
        <time>2022-09-29T13:29:17Z</time>
      </trkpt>
      <trkpt lat="44.40827" lon="5.2304">
        <ele>591</ele>
        <time>2022-09-29T13:29:18Z</time>
      </trkpt>
      <trkpt lat="44.40826" lon="5.23039">
        <ele>591</ele>
        <time>2022-09-29T13:29:19Z</time>
      </trkpt>
      <trkpt lat="44.40826" lon="5.23038">
        <ele>591</ele>
        <time>2022-09-29T13:29:20Z</time>
      </trkpt>
      <trkpt lat="44.40825" lon="5.23038">
        <ele>591</ele>
        <time>2022-09-29T13:29:21Z</time>
      </trkpt>
      <trkpt lat="44.40825" lon="5.23037">
        <ele>591</ele>
        <time>2022-09-29T13:29:22Z</time>
      </trkpt>
      <trkpt lat="44.40824" lon="5.23036">
        <ele>591</ele>
        <time>2022-09-29T13:29:23Z</time>
      </trkpt>
      <trkpt lat="44.40824" lon="5.23035">
        <ele>591</ele>
        <time>2022-09-29T13:29:24Z</time>
      </trkpt>
      <trkpt lat="44.40824" lon="5.23034">
        <ele>591</ele>
        <time>2022-09-29T13:29:25Z</time>
      </trkpt>
      <trkpt lat="44.40823" lon="5.23033">
        <ele>591</ele>
        <time>2022-09-29T13:29:26Z</time>
      </trkpt>
      <trkpt lat="44.40823" lon="5.23032">
        <ele>591</ele>
        <time>2022-09-29T13:29:27Z</time>
      </trkpt>
      <trkpt lat="44.40822" lon="5.23031">
        <ele>592</ele>
        <time>2022-09-29T13:29:28Z</time>
      </trkpt>
      <trkpt lat="44.40822" lon="5.2303">
        <ele>592</ele>
        <time>2022-09-29T13:29:29Z</time>
      </trkpt>
      <trkpt lat="44.40822" lon="5.23029">
        <ele>592</ele>
        <time>2022-09-29T13:29:30Z</time>
      </trkpt>
      <trkpt lat="44.40822" lon="5.23028">
        <ele>592</ele>
        <time>2022-09-29T13:29:31Z</time>
      </trkpt>
      <trkpt lat="44.40821" lon="5.23027">
        <ele>592</ele>
        <time>2022-09-29T13:29:32Z</time>
      </trkpt>
      <trkpt lat="44.40821" lon="5.23026">
        <ele>592</ele>
        <time>2022-09-29T13:29:33Z</time>
      </trkpt>
      <trkpt lat="44.40821" lon="5.23025">
        <ele>592</ele>
        <time>2022-09-29T13:29:34Z</time>
      </trkpt>
      <trkpt lat="44.4082" lon="5.23025">
        <ele>592</ele>
        <time>2022-09-29T13:29:35Z</time>
      </trkpt>
      <trkpt lat="44.4082" lon="5.23024">
        <ele>592</ele>
        <time>2022-09-29T13:29:36Z</time>
      </trkpt>
      <trkpt lat="44.40819" lon="5.23023">
        <ele>592</ele>
        <time>2022-09-29T13:29:37Z</time>
      </trkpt>
      <trkpt lat="44.40819" lon="5.23022">
        <ele>593</ele>
        <time>2022-09-29T13:29:38Z</time>
      </trkpt>
      <trkpt lat="44.40818" lon="5.23022">
        <ele>593</ele>
        <time>2022-09-29T13:29:39Z</time>
      </trkpt>
      <trkpt lat="44.40818" lon="5.23021">
        <ele>593</ele>
        <time>2022-09-29T13:29:40Z</time>
      </trkpt>
      <trkpt lat="44.40817" lon="5.2302">
        <ele>593</ele>
        <time>2022-09-29T13:29:41Z</time>
      </trkpt>
      <trkpt lat="44.40817" lon="5.23019">
        <ele>593</ele>
        <time>2022-09-29T13:29:42Z</time>
      </trkpt>
      <trkpt lat="44.40817" lon="5.23018">
        <ele>593</ele>
        <time>2022-09-29T13:29:43Z</time>
      </trkpt>
      <trkpt lat="44.40816" lon="5.23017">
        <ele>593</ele>
        <time>2022-09-29T13:29:44Z</time>
      </trkpt>
      <trkpt lat="44.40816" lon="5.23016">
        <ele>593</ele>
        <time>2022-09-29T13:29:45Z</time>
      </trkpt>
      <trkpt lat="44.40816" lon="5.23015">
        <ele>593</ele>
        <time>2022-09-29T13:29:46Z</time>
      </trkpt>
      <trkpt lat="44.40815" lon="5.23014">
        <ele>593</ele>
        <time>2022-09-29T13:29:47Z</time>
      </trkpt>
      <trkpt lat="44.40815" lon="5.23013">
        <ele>594</ele>
        <time>2022-09-29T13:29:48Z</time>
      </trkpt>
      <trkpt lat="44.40815" lon="5.23012">
        <ele>594</ele>
        <time>2022-09-29T13:29:49Z</time>
      </trkpt>
      <trkpt lat="44.40815" lon="5.23011">
        <ele>594</ele>
        <time>2022-09-29T13:29:50Z</time>
      </trkpt>
      <trkpt lat="44.40815" lon="5.2301">
        <ele>594</ele>
        <time>2022-09-29T13:29:51Z</time>
      </trkpt>
      <trkpt lat="44.40814" lon="5.23009">
        <ele>594</ele>
        <time>2022-09-29T13:29:52Z</time>
      </trkpt>
      <trkpt lat="44.40814" lon="5.23008">
        <ele>595</ele>
        <time>2022-09-29T13:29:53Z</time>
      </trkpt>
      <trkpt lat="44.40814" lon="5.23007">
        <ele>595</ele>
        <time>2022-09-29T13:29:54Z</time>
      </trkpt>
      <trkpt lat="44.40814" lon="5.23006">
        <ele>595</ele>
        <time>2022-09-29T13:29:55Z</time>
      </trkpt>
      <trkpt lat="44.40813" lon="5.23005">
        <ele>595</ele>
        <time>2022-09-29T13:29:56Z</time>
      </trkpt>
      <trkpt lat="44.40813" lon="5.23004">
        <ele>595</ele>
        <time>2022-09-29T13:29:57Z</time>
      </trkpt>
      <trkpt lat="44.40812" lon="5.23003">
        <ele>595</ele>
        <time>2022-09-29T13:29:58Z</time>
      </trkpt>
      <trkpt lat="44.40812" lon="5.23002">
        <ele>595</ele>
        <time>2022-09-29T13:29:59Z</time>
      </trkpt>
      <trkpt lat="44.40811" lon="5.23001">
        <ele>595</ele>
        <time>2022-09-29T13:30:00Z</time>
      </trkpt>
      <trkpt lat="44.40811" lon="5.23">
        <ele>595</ele>
        <time>2022-09-29T13:30:01Z</time>
      </trkpt>
      <trkpt lat="44.40811" lon="5.22999">
        <ele>595</ele>
        <time>2022-09-29T13:30:02Z</time>
      </trkpt>
      <trkpt lat="44.4081" lon="5.22998">
        <ele>595</ele>
        <time>2022-09-29T13:30:03Z</time>
      </trkpt>
      <trkpt lat="44.4081" lon="5.22997">
        <ele>595</ele>
        <time>2022-09-29T13:30:04Z</time>
      </trkpt>
      <trkpt lat="44.4081" lon="5.22997">
        <ele>595</ele>
        <time>2022-09-29T13:30:05Z</time>
      </trkpt>
      <trkpt lat="44.40809" lon="5.22996">
        <ele>595</ele>
        <time>2022-09-29T13:30:06Z</time>
      </trkpt>
      <trkpt lat="44.40809" lon="5.22995">
        <ele>595</ele>
        <time>2022-09-29T13:30:07Z</time>
      </trkpt>
      <trkpt lat="44.40809" lon="5.22994">
        <ele>596</ele>
        <time>2022-09-29T13:30:08Z</time>
      </trkpt>
      <trkpt lat="44.40809" lon="5.22993">
        <ele>596</ele>
        <time>2022-09-29T13:30:09Z</time>
      </trkpt>
      <trkpt lat="44.40808" lon="5.22992">
        <ele>596</ele>
        <time>2022-09-29T13:30:10Z</time>
      </trkpt>
      <trkpt lat="44.40808" lon="5.22991">
        <ele>596</ele>
        <time>2022-09-29T13:30:11Z</time>
      </trkpt>
      <trkpt lat="44.40808" lon="5.2299">
        <ele>596</ele>
        <time>2022-09-29T13:30:12Z</time>
      </trkpt>
      <trkpt lat="44.40808" lon="5.22989">
        <ele>597</ele>
        <time>2022-09-29T13:30:13Z</time>
      </trkpt>
      <trkpt lat="44.40807" lon="5.22988">
        <ele>597</ele>
        <time>2022-09-29T13:30:14Z</time>
      </trkpt>
      <trkpt lat="44.40807" lon="5.22987">
        <ele>597</ele>
        <time>2022-09-29T13:30:15Z</time>
      </trkpt>
      <trkpt lat="44.40807" lon="5.22986">
        <ele>597</ele>
        <time>2022-09-29T13:30:16Z</time>
      </trkpt>
      <trkpt lat="44.40807" lon="5.22985">
        <ele>597</ele>
        <time>2022-09-29T13:30:17Z</time>
      </trkpt>
      <trkpt lat="44.40806" lon="5.22985">
        <ele>597</ele>
        <time>2022-09-29T13:30:18Z</time>
      </trkpt>
      <trkpt lat="44.40806" lon="5.22984">
        <ele>597</ele>
        <time>2022-09-29T13:30:19Z</time>
      </trkpt>
      <trkpt lat="44.40806" lon="5.22983">
        <ele>597</ele>
        <time>2022-09-29T13:30:20Z</time>
      </trkpt>
      <trkpt lat="44.40806" lon="5.22981">
        <ele>599</ele>
        <time>2022-09-29T13:30:54Z</time>
      </trkpt>
      <trkpt lat="44.40806" lon="5.22981">
        <ele>599</ele>
        <time>2022-09-29T13:30:55Z</time>
      </trkpt>
      <trkpt lat="44.40806" lon="5.2298">
        <ele>599</ele>
        <time>2022-09-29T13:30:56Z</time>
      </trkpt>
      <trkpt lat="44.40805" lon="5.22979">
        <ele>599</ele>
        <time>2022-09-29T13:30:57Z</time>
      </trkpt>
      <trkpt lat="44.40805" lon="5.22978">
        <ele>599</ele>
        <time>2022-09-29T13:30:58Z</time>
      </trkpt>
      <trkpt lat="44.40804" lon="5.22977">
        <ele>599</ele>
        <time>2022-09-29T13:30:59Z</time>
      </trkpt>
      <trkpt lat="44.40804" lon="5.22977">
        <ele>599</ele>
        <time>2022-09-29T13:31:00Z</time>
      </trkpt>
      <trkpt lat="44.40803" lon="5.22975">
        <ele>599</ele>
        <time>2022-09-29T13:31:01Z</time>
      </trkpt>
      <trkpt lat="44.40803" lon="5.22974">
        <ele>599</ele>
        <time>2022-09-29T13:31:02Z</time>
      </trkpt>
      <trkpt lat="44.40802" lon="5.22973">
        <ele>599</ele>
        <time>2022-09-29T13:31:03Z</time>
      </trkpt>
      <trkpt lat="44.40802" lon="5.22972">
        <ele>599</ele>
        <time>2022-09-29T13:31:04Z</time>
      </trkpt>
      <trkpt lat="44.40801" lon="5.22971">
        <ele>599</ele>
        <time>2022-09-29T13:31:05Z</time>
      </trkpt>
      <trkpt lat="44.40801" lon="5.2297">
        <ele>599</ele>
        <time>2022-09-29T13:31:06Z</time>
      </trkpt>
      <trkpt lat="44.408" lon="5.22969">
        <ele>599</ele>
        <time>2022-09-29T13:31:07Z</time>
      </trkpt>
      <trkpt lat="44.408" lon="5.22968">
        <ele>600</ele>
        <time>2022-09-29T13:31:08Z</time>
      </trkpt>
      <trkpt lat="44.40799" lon="5.22967">
        <ele>600</ele>
        <time>2022-09-29T13:31:09Z</time>
      </trkpt>
      <trkpt lat="44.40798" lon="5.22966">
        <ele>600</ele>
        <time>2022-09-29T13:31:10Z</time>
      </trkpt>
      <trkpt lat="44.40798" lon="5.22966">
        <ele>600</ele>
        <time>2022-09-29T13:31:11Z</time>
      </trkpt>
      <trkpt lat="44.40797" lon="5.22965">
        <ele>600</ele>
        <time>2022-09-29T13:31:12Z</time>
      </trkpt>
      <trkpt lat="44.40797" lon="5.22964">
        <ele>600</ele>
        <time>2022-09-29T13:31:13Z</time>
      </trkpt>
      <trkpt lat="44.40797" lon="5.22963">
        <ele>600</ele>
        <time>2022-09-29T13:31:14Z</time>
      </trkpt>
      <trkpt lat="44.40796" lon="5.22961">
        <ele>600</ele>
        <time>2022-09-29T13:31:15Z</time>
      </trkpt>
      <trkpt lat="44.40796" lon="5.2296">
        <ele>600</ele>
        <time>2022-09-29T13:31:16Z</time>
      </trkpt>
      <trkpt lat="44.40796" lon="5.22959">
        <ele>600</ele>
        <time>2022-09-29T13:31:17Z</time>
      </trkpt>
      <trkpt lat="44.40796" lon="5.22958">
        <ele>601</ele>
        <time>2022-09-29T13:31:18Z</time>
      </trkpt>
      <trkpt lat="44.40795" lon="5.22957">
        <ele>601</ele>
        <time>2022-09-29T13:31:19Z</time>
      </trkpt>
      <trkpt lat="44.40795" lon="5.22956">
        <ele>601</ele>
        <time>2022-09-29T13:31:20Z</time>
      </trkpt>
      <trkpt lat="44.40795" lon="5.22955">
        <ele>601</ele>
        <time>2022-09-29T13:31:21Z</time>
      </trkpt>
      <trkpt lat="44.40795" lon="5.22953">
        <ele>601</ele>
        <time>2022-09-29T13:31:22Z</time>
      </trkpt>
      <trkpt lat="44.40795" lon="5.22952">
        <ele>601</ele>
        <time>2022-09-29T13:31:23Z</time>
      </trkpt>
      <trkpt lat="44.40795" lon="5.22951">
        <ele>601</ele>
        <time>2022-09-29T13:31:24Z</time>
      </trkpt>
      <trkpt lat="44.40795" lon="5.22951">
        <ele>601</ele>
        <time>2022-09-29T13:31:25Z</time>
      </trkpt>
      <trkpt lat="44.40795" lon="5.2295">
        <ele>601</ele>
        <time>2022-09-29T13:31:26Z</time>
      </trkpt>
      <trkpt lat="44.40794" lon="5.22949">
        <ele>601</ele>
        <time>2022-09-29T13:31:27Z</time>
      </trkpt>
      <trkpt lat="44.40794" lon="5.22948">
        <ele>602</ele>
        <time>2022-09-29T13:31:28Z</time>
      </trkpt>
      <trkpt lat="44.40794" lon="5.22946">
        <ele>602</ele>
        <time>2022-09-29T13:31:29Z</time>
      </trkpt>
      <trkpt lat="44.40794" lon="5.22945">
        <ele>602</ele>
        <time>2022-09-29T13:31:30Z</time>
      </trkpt>
      <trkpt lat="44.40794" lon="5.22945">
        <ele>602</ele>
        <time>2022-09-29T13:31:31Z</time>
      </trkpt>
      <trkpt lat="44.40794" lon="5.22944">
        <ele>602</ele>
        <time>2022-09-29T13:31:32Z</time>
      </trkpt>
      <trkpt lat="44.40794" lon="5.22943">
        <ele>603</ele>
        <time>2022-09-29T13:31:33Z</time>
      </trkpt>
      <trkpt lat="44.40794" lon="5.22942">
        <ele>603</ele>
        <time>2022-09-29T13:31:34Z</time>
      </trkpt>
      <trkpt lat="44.40794" lon="5.22941">
        <ele>603</ele>
        <time>2022-09-29T13:31:35Z</time>
      </trkpt>
      <trkpt lat="44.40794" lon="5.2294">
        <ele>603</ele>
        <time>2022-09-29T13:31:36Z</time>
      </trkpt>
      <trkpt lat="44.40794" lon="5.22938">
        <ele>603</ele>
        <time>2022-09-29T13:31:37Z</time>
      </trkpt>
      <trkpt lat="44.40795" lon="5.22937">
        <ele>603</ele>
        <time>2022-09-29T13:31:38Z</time>
      </trkpt>
      <trkpt lat="44.40795" lon="5.22936">
        <ele>603</ele>
        <time>2022-09-29T13:31:39Z</time>
      </trkpt>
      <trkpt lat="44.40795" lon="5.22935">
        <ele>603</ele>
        <time>2022-09-29T13:31:40Z</time>
      </trkpt>
      <trkpt lat="44.40795" lon="5.22934">
        <ele>603</ele>
        <time>2022-09-29T13:31:41Z</time>
      </trkpt>
      <trkpt lat="44.40795" lon="5.22933">
        <ele>603</ele>
        <time>2022-09-29T13:31:42Z</time>
      </trkpt>
      <trkpt lat="44.40795" lon="5.22932">
        <ele>604</ele>
        <time>2022-09-29T13:31:43Z</time>
      </trkpt>
      <trkpt lat="44.40795" lon="5.22931">
        <ele>604</ele>
        <time>2022-09-29T13:31:44Z</time>
      </trkpt>
      <trkpt lat="44.40795" lon="5.2293">
        <ele>604</ele>
        <time>2022-09-29T13:31:45Z</time>
      </trkpt>
      <trkpt lat="44.40795" lon="5.22929">
        <ele>604</ele>
        <time>2022-09-29T13:31:46Z</time>
      </trkpt>
      <trkpt lat="44.40795" lon="5.22928">
        <ele>604</ele>
        <time>2022-09-29T13:31:47Z</time>
      </trkpt>
      <trkpt lat="44.40795" lon="5.22927">
        <ele>605</ele>
        <time>2022-09-29T13:31:48Z</time>
      </trkpt>
      <trkpt lat="44.40795" lon="5.22926">
        <ele>605</ele>
        <time>2022-09-29T13:31:49Z</time>
      </trkpt>
      <trkpt lat="44.40795" lon="5.22926">
        <ele>605</ele>
        <time>2022-09-29T13:31:50Z</time>
      </trkpt>
      <trkpt lat="44.40796" lon="5.22925">
        <ele>605</ele>
        <time>2022-09-29T13:31:51Z</time>
      </trkpt>
      <trkpt lat="44.40796" lon="5.22924">
        <ele>605</ele>
        <time>2022-09-29T13:31:52Z</time>
      </trkpt>
      <trkpt lat="44.40796" lon="5.22923">
        <ele>605</ele>
        <time>2022-09-29T13:31:53Z</time>
      </trkpt>
      <trkpt lat="44.40796" lon="5.22922">
        <ele>605</ele>
        <time>2022-09-29T13:31:54Z</time>
      </trkpt>
      <trkpt lat="44.40797" lon="5.22921">
        <ele>605</ele>
        <time>2022-09-29T13:31:55Z</time>
      </trkpt>
      <trkpt lat="44.40797" lon="5.2292">
        <ele>605</ele>
        <time>2022-09-29T13:31:56Z</time>
      </trkpt>
      <trkpt lat="44.40797" lon="5.2292">
        <ele>605</ele>
        <time>2022-09-29T13:31:57Z</time>
      </trkpt>
      <trkpt lat="44.40797" lon="5.22919">
        <ele>606</ele>
        <time>2022-09-29T13:31:58Z</time>
      </trkpt>
      <trkpt lat="44.40797" lon="5.22918">
        <ele>606</ele>
        <time>2022-09-29T13:31:59Z</time>
      </trkpt>
      <trkpt lat="44.40797" lon="5.22917">
        <ele>606</ele>
        <time>2022-09-29T13:32:00Z</time>
      </trkpt>
      <trkpt lat="44.40798" lon="5.22916">
        <ele>606</ele>
        <time>2022-09-29T13:32:01Z</time>
      </trkpt>
      <trkpt lat="44.40798" lon="5.22915">
        <ele>606</ele>
        <time>2022-09-29T13:32:02Z</time>
      </trkpt>
      <trkpt lat="44.40798" lon="5.22915">
        <ele>607</ele>
        <time>2022-09-29T13:32:03Z</time>
      </trkpt>
      <trkpt lat="44.40798" lon="5.22914">
        <ele>607</ele>
        <time>2022-09-29T13:32:04Z</time>
      </trkpt>
      <trkpt lat="44.40798" lon="5.22913">
        <ele>607</ele>
        <time>2022-09-29T13:32:05Z</time>
      </trkpt>
      <trkpt lat="44.40798" lon="5.22912">
        <ele>607</ele>
        <time>2022-09-29T13:32:06Z</time>
      </trkpt>
      <trkpt lat="44.40799" lon="5.22911">
        <ele>607</ele>
        <time>2022-09-29T13:32:07Z</time>
      </trkpt>
      <trkpt lat="44.40799" lon="5.2291">
        <ele>607</ele>
        <time>2022-09-29T13:32:08Z</time>
      </trkpt>
      <trkpt lat="44.40799" lon="5.22909">
        <ele>607</ele>
        <time>2022-09-29T13:32:09Z</time>
      </trkpt>
      <trkpt lat="44.40799" lon="5.22908">
        <ele>607</ele>
        <time>2022-09-29T13:32:10Z</time>
      </trkpt>
      <trkpt lat="44.40799" lon="5.22907">
        <ele>607</ele>
        <time>2022-09-29T13:32:11Z</time>
      </trkpt>
      <trkpt lat="44.40799" lon="5.22906">
        <ele>607</ele>
        <time>2022-09-29T13:32:12Z</time>
      </trkpt>
      <trkpt lat="44.408" lon="5.22905">
        <ele>608</ele>
        <time>2022-09-29T13:32:13Z</time>
      </trkpt>
      <trkpt lat="44.408" lon="5.22904">
        <ele>608</ele>
        <time>2022-09-29T13:32:14Z</time>
      </trkpt>
      <trkpt lat="44.408" lon="5.22903">
        <ele>608</ele>
        <time>2022-09-29T13:32:15Z</time>
      </trkpt>
      <trkpt lat="44.408" lon="5.22902">
        <ele>608</ele>
        <time>2022-09-29T13:32:16Z</time>
      </trkpt>
      <trkpt lat="44.408" lon="5.22901">
        <ele>608</ele>
        <time>2022-09-29T13:32:17Z</time>
      </trkpt>
      <trkpt lat="44.408" lon="5.229">
        <ele>608</ele>
        <time>2022-09-29T13:32:18Z</time>
      </trkpt>
      <trkpt lat="44.408" lon="5.22899">
        <ele>608</ele>
        <time>2022-09-29T13:32:19Z</time>
      </trkpt>
      <trkpt lat="44.408" lon="5.22898">
        <ele>608</ele>
        <time>2022-09-29T13:32:20Z</time>
      </trkpt>
      <trkpt lat="44.40801" lon="5.22897">
        <ele>608</ele>
        <time>2022-09-29T13:32:21Z</time>
      </trkpt>
      <trkpt lat="44.40801" lon="5.22896">
        <ele>608</ele>
        <time>2022-09-29T13:32:22Z</time>
      </trkpt>
      <trkpt lat="44.40801" lon="5.22895">
        <ele>609</ele>
        <time>2022-09-29T13:32:23Z</time>
      </trkpt>
      <trkpt lat="44.40801" lon="5.22894">
        <ele>609</ele>
        <time>2022-09-29T13:32:24Z</time>
      </trkpt>
      <trkpt lat="44.40801" lon="5.22893">
        <ele>609</ele>
        <time>2022-09-29T13:32:25Z</time>
      </trkpt>
      <trkpt lat="44.40801" lon="5.22892">
        <ele>609</ele>
        <time>2022-09-29T13:32:26Z</time>
      </trkpt>
      <trkpt lat="44.40801" lon="5.22891">
        <ele>609</ele>
        <time>2022-09-29T13:32:27Z</time>
      </trkpt>
      <trkpt lat="44.40801" lon="5.2289">
        <ele>610</ele>
        <time>2022-09-29T13:32:28Z</time>
      </trkpt>
      <trkpt lat="44.40801" lon="5.2289">
        <ele>610</ele>
        <time>2022-09-29T13:32:29Z</time>
      </trkpt>
      <trkpt lat="44.40801" lon="5.22889">
        <ele>610</ele>
        <time>2022-09-29T13:32:30Z</time>
      </trkpt>
      <trkpt lat="44.40801" lon="5.22888">
        <ele>610</ele>
        <time>2022-09-29T13:32:31Z</time>
      </trkpt>
      <trkpt lat="44.40801" lon="5.22887">
        <ele>610</ele>
        <time>2022-09-29T13:32:32Z</time>
      </trkpt>
      <trkpt lat="44.40801" lon="5.22886">
        <ele>610</ele>
        <time>2022-09-29T13:32:33Z</time>
      </trkpt>
      <trkpt lat="44.40801" lon="5.22885">
        <ele>610</ele>
        <time>2022-09-29T13:32:34Z</time>
      </trkpt>
      <trkpt lat="44.40802" lon="5.22884">
        <ele>610</ele>
        <time>2022-09-29T13:32:35Z</time>
      </trkpt>
      <trkpt lat="44.40802" lon="5.22883">
        <ele>610</ele>
        <time>2022-09-29T13:32:36Z</time>
      </trkpt>
      <trkpt lat="44.40802" lon="5.22883">
        <ele>610</ele>
        <time>2022-09-29T13:32:37Z</time>
      </trkpt>
      <trkpt lat="44.40803" lon="5.22882">
        <ele>611</ele>
        <time>2022-09-29T13:32:38Z</time>
      </trkpt>
      <trkpt lat="44.40803" lon="5.22881">
        <ele>611</ele>
        <time>2022-09-29T13:32:39Z</time>
      </trkpt>
      <trkpt lat="44.40803" lon="5.2288">
        <ele>611</ele>
        <time>2022-09-29T13:32:40Z</time>
      </trkpt>
      <trkpt lat="44.40803" lon="5.22879">
        <ele>611</ele>
        <time>2022-09-29T13:32:41Z</time>
      </trkpt>
      <trkpt lat="44.40803" lon="5.22879">
        <ele>611</ele>
        <time>2022-09-29T13:32:42Z</time>
      </trkpt>
      <trkpt lat="44.40804" lon="5.22878">
        <ele>612</ele>
        <time>2022-09-29T13:32:43Z</time>
      </trkpt>
      <trkpt lat="44.40804" lon="5.22877">
        <ele>612</ele>
        <time>2022-09-29T13:32:44Z</time>
      </trkpt>
      <trkpt lat="44.40804" lon="5.22876">
        <ele>612</ele>
        <time>2022-09-29T13:32:45Z</time>
      </trkpt>
      <trkpt lat="44.40804" lon="5.22875">
        <ele>612</ele>
        <time>2022-09-29T13:32:46Z</time>
      </trkpt>
      <trkpt lat="44.40804" lon="5.22874">
        <ele>612</ele>
        <time>2022-09-29T13:32:47Z</time>
      </trkpt>
      <trkpt lat="44.40805" lon="5.22873">
        <ele>612</ele>
        <time>2022-09-29T13:32:48Z</time>
      </trkpt>
      <trkpt lat="44.40805" lon="5.22872">
        <ele>612</ele>
        <time>2022-09-29T13:32:49Z</time>
      </trkpt>
      <trkpt lat="44.40806" lon="5.22871">
        <ele>612</ele>
        <time>2022-09-29T13:32:50Z</time>
      </trkpt>
      <trkpt lat="44.40806" lon="5.22869">
        <ele>612</ele>
        <time>2022-09-29T13:32:51Z</time>
      </trkpt>
      <trkpt lat="44.40806" lon="5.22868">
        <ele>612</ele>
        <time>2022-09-29T13:32:52Z</time>
      </trkpt>
      <trkpt lat="44.40807" lon="5.22867">
        <ele>613</ele>
        <time>2022-09-29T13:32:53Z</time>
      </trkpt>
      <trkpt lat="44.40807" lon="5.22866">
        <ele>613</ele>
        <time>2022-09-29T13:32:54Z</time>
      </trkpt>
      <trkpt lat="44.40808" lon="5.22865">
        <ele>613</ele>
        <time>2022-09-29T13:32:55Z</time>
      </trkpt>
      <trkpt lat="44.40808" lon="5.22864">
        <ele>613</ele>
        <time>2022-09-29T13:32:56Z</time>
      </trkpt>
      <trkpt lat="44.40808" lon="5.22863">
        <ele>613</ele>
        <time>2022-09-29T13:32:57Z</time>
      </trkpt>
      <trkpt lat="44.40808" lon="5.22862">
        <ele>613</ele>
        <time>2022-09-29T13:32:58Z</time>
      </trkpt>
      <trkpt lat="44.40809" lon="5.2286">
        <ele>613</ele>
        <time>2022-09-29T13:32:59Z</time>
      </trkpt>
      <trkpt lat="44.40809" lon="5.22859">
        <ele>613</ele>
        <time>2022-09-29T13:33:00Z</time>
      </trkpt>
      <trkpt lat="44.40809" lon="5.22858">
        <ele>613</ele>
        <time>2022-09-29T13:33:01Z</time>
      </trkpt>
      <trkpt lat="44.40809" lon="5.22857">
        <ele>613</ele>
        <time>2022-09-29T13:33:02Z</time>
      </trkpt>
      <trkpt lat="44.40809" lon="5.22856">
        <ele>614</ele>
        <time>2022-09-29T13:33:03Z</time>
      </trkpt>
      <trkpt lat="44.4081" lon="5.22855">
        <ele>614</ele>
        <time>2022-09-29T13:33:04Z</time>
      </trkpt>
      <trkpt lat="44.4081" lon="5.22854">
        <ele>614</ele>
        <time>2022-09-29T13:33:05Z</time>
      </trkpt>
      <trkpt lat="44.4081" lon="5.22853">
        <ele>614</ele>
        <time>2022-09-29T13:33:06Z</time>
      </trkpt>
      <trkpt lat="44.4081" lon="5.22852">
        <ele>614</ele>
        <time>2022-09-29T13:33:07Z</time>
      </trkpt>
      <trkpt lat="44.40811" lon="5.22851">
        <ele>615</ele>
        <time>2022-09-29T13:33:08Z</time>
      </trkpt>
      <trkpt lat="44.40811" lon="5.2285">
        <ele>615</ele>
        <time>2022-09-29T13:33:09Z</time>
      </trkpt>
      <trkpt lat="44.40811" lon="5.22849">
        <ele>615</ele>
        <time>2022-09-29T13:33:10Z</time>
      </trkpt>
      <trkpt lat="44.40811" lon="5.22848">
        <ele>615</ele>
        <time>2022-09-29T13:33:11Z</time>
      </trkpt>
      <trkpt lat="44.40811" lon="5.22847">
        <ele>615</ele>
        <time>2022-09-29T13:33:12Z</time>
      </trkpt>
      <trkpt lat="44.40812" lon="5.22845">
        <ele>615</ele>
        <time>2022-09-29T13:33:13Z</time>
      </trkpt>
      <trkpt lat="44.40812" lon="5.22844">
        <ele>615</ele>
        <time>2022-09-29T13:33:14Z</time>
      </trkpt>
      <trkpt lat="44.40812" lon="5.22843">
        <ele>615</ele>
        <time>2022-09-29T13:33:15Z</time>
      </trkpt>
      <trkpt lat="44.40812" lon="5.22842">
        <ele>615</ele>
        <time>2022-09-29T13:33:16Z</time>
      </trkpt>
      <trkpt lat="44.40812" lon="5.22841">
        <ele>615</ele>
        <time>2022-09-29T13:33:17Z</time>
      </trkpt>
      <trkpt lat="44.40812" lon="5.2284">
        <ele>615</ele>
        <time>2022-09-29T13:33:18Z</time>
      </trkpt>
      <trkpt lat="44.40812" lon="5.22838">
        <ele>615</ele>
        <time>2022-09-29T13:33:19Z</time>
      </trkpt>
      <trkpt lat="44.40813" lon="5.22837">
        <ele>615</ele>
        <time>2022-09-29T13:33:20Z</time>
      </trkpt>
      <trkpt lat="44.40813" lon="5.22836">
        <ele>616</ele>
        <time>2022-09-29T13:33:21Z</time>
      </trkpt>
      <trkpt lat="44.40813" lon="5.22835">
        <ele>616</ele>
        <time>2022-09-29T13:33:22Z</time>
      </trkpt>
      <trkpt lat="44.40813" lon="5.22834">
        <ele>617</ele>
        <time>2022-09-29T13:33:23Z</time>
      </trkpt>
      <trkpt lat="44.40813" lon="5.22833">
        <ele>617</ele>
        <time>2022-09-29T13:33:24Z</time>
      </trkpt>
      <trkpt lat="44.40812" lon="5.22832">
        <ele>617</ele>
        <time>2022-09-29T13:33:25Z</time>
      </trkpt>
      <trkpt lat="44.40812" lon="5.22831">
        <ele>617</ele>
        <time>2022-09-29T13:33:26Z</time>
      </trkpt>
      <trkpt lat="44.40812" lon="5.2283">
        <ele>617</ele>
        <time>2022-09-29T13:33:27Z</time>
      </trkpt>
      <trkpt lat="44.40812" lon="5.22829">
        <ele>617</ele>
        <time>2022-09-29T13:33:28Z</time>
      </trkpt>
      <trkpt lat="44.40811" lon="5.22829">
        <ele>617</ele>
        <time>2022-09-29T13:33:29Z</time>
      </trkpt>
      <trkpt lat="44.40811" lon="5.22828">
        <ele>617</ele>
        <time>2022-09-29T13:33:30Z</time>
      </trkpt>
      <trkpt lat="44.40811" lon="5.22827">
        <ele>617</ele>
        <time>2022-09-29T13:33:31Z</time>
      </trkpt>
      <trkpt lat="44.4081" lon="5.22826">
        <ele>617</ele>
        <time>2022-09-29T13:33:32Z</time>
      </trkpt>
      <trkpt lat="44.4081" lon="5.22825">
        <ele>617</ele>
        <time>2022-09-29T13:33:33Z</time>
      </trkpt>
      <trkpt lat="44.40809" lon="5.22825">
        <ele>617</ele>
        <time>2022-09-29T13:33:34Z</time>
      </trkpt>
      <trkpt lat="44.40809" lon="5.22824">
        <ele>617</ele>
        <time>2022-09-29T13:33:35Z</time>
      </trkpt>
      <trkpt lat="44.40808" lon="5.22824">
        <ele>617</ele>
        <time>2022-09-29T13:33:36Z</time>
      </trkpt>
      <trkpt lat="44.40807" lon="5.22823">
        <ele>617</ele>
        <time>2022-09-29T13:33:37Z</time>
      </trkpt>
      <trkpt lat="44.40806" lon="5.22823">
        <ele>618</ele>
        <time>2022-09-29T13:33:38Z</time>
      </trkpt>
      <trkpt lat="44.40806" lon="5.22822">
        <ele>618</ele>
        <time>2022-09-29T13:33:39Z</time>
      </trkpt>
      <trkpt lat="44.40805" lon="5.22822">
        <ele>618</ele>
        <time>2022-09-29T13:33:40Z</time>
      </trkpt>
      <trkpt lat="44.40804" lon="5.22821">
        <ele>618</ele>
        <time>2022-09-29T13:33:41Z</time>
      </trkpt>
      <trkpt lat="44.40803" lon="5.22821">
        <ele>618</ele>
        <time>2022-09-29T13:33:42Z</time>
      </trkpt>
      <trkpt lat="44.40803" lon="5.2282">
        <ele>618</ele>
        <time>2022-09-29T13:33:43Z</time>
      </trkpt>
      <trkpt lat="44.40802" lon="5.2282">
        <ele>618</ele>
        <time>2022-09-29T13:33:44Z</time>
      </trkpt>
      <trkpt lat="44.40801" lon="5.22819">
        <ele>618</ele>
        <time>2022-09-29T13:33:45Z</time>
      </trkpt>
      <trkpt lat="44.40801" lon="5.22818">
        <ele>618</ele>
        <time>2022-09-29T13:33:46Z</time>
      </trkpt>
      <trkpt lat="44.408" lon="5.22818">
        <ele>618</ele>
        <time>2022-09-29T13:33:47Z</time>
      </trkpt>
      <trkpt lat="44.40799" lon="5.22817">
        <ele>619</ele>
        <time>2022-09-29T13:33:48Z</time>
      </trkpt>
      <trkpt lat="44.40798" lon="5.22817">
        <ele>619</ele>
        <time>2022-09-29T13:33:49Z</time>
      </trkpt>
      <trkpt lat="44.40797" lon="5.22816">
        <ele>619</ele>
        <time>2022-09-29T13:33:50Z</time>
      </trkpt>
      <trkpt lat="44.40797" lon="5.22815">
        <ele>619</ele>
        <time>2022-09-29T13:33:51Z</time>
      </trkpt>
      <trkpt lat="44.40796" lon="5.22814">
        <ele>619</ele>
        <time>2022-09-29T13:33:52Z</time>
      </trkpt>
      <trkpt lat="44.40796" lon="5.22813">
        <ele>619</ele>
        <time>2022-09-29T13:33:53Z</time>
      </trkpt>
      <trkpt lat="44.40795" lon="5.22813">
        <ele>619</ele>
        <time>2022-09-29T13:33:54Z</time>
      </trkpt>
      <trkpt lat="44.40795" lon="5.22812">
        <ele>619</ele>
        <time>2022-09-29T13:33:55Z</time>
      </trkpt>
      <trkpt lat="44.40794" lon="5.22811">
        <ele>620</ele>
        <time>2022-09-29T13:33:56Z</time>
      </trkpt>
      <trkpt lat="44.40794" lon="5.2281">
        <ele>620</ele>
        <time>2022-09-29T13:33:57Z</time>
      </trkpt>
      <trkpt lat="44.40793" lon="5.22809">
        <ele>621</ele>
        <time>2022-09-29T13:33:58Z</time>
      </trkpt>
      <trkpt lat="44.40793" lon="5.22807">
        <ele>621</ele>
        <time>2022-09-29T13:33:59Z</time>
      </trkpt>
      <trkpt lat="44.40793" lon="5.22806">
        <ele>621</ele>
        <time>2022-09-29T13:34:00Z</time>
      </trkpt>
      <trkpt lat="44.40793" lon="5.22805">
        <ele>621</ele>
        <time>2022-09-29T13:34:01Z</time>
      </trkpt>
      <trkpt lat="44.40793" lon="5.22804">
        <ele>621</ele>
        <time>2022-09-29T13:34:02Z</time>
      </trkpt>
      <trkpt lat="44.40792" lon="5.22803">
        <ele>622</ele>
        <time>2022-09-29T13:34:03Z</time>
      </trkpt>
      <trkpt lat="44.40792" lon="5.22802">
        <ele>622</ele>
        <time>2022-09-29T13:34:04Z</time>
      </trkpt>
      <trkpt lat="44.40792" lon="5.22801">
        <ele>622</ele>
        <time>2022-09-29T13:34:05Z</time>
      </trkpt>
      <trkpt lat="44.40792" lon="5.228">
        <ele>622</ele>
        <time>2022-09-29T13:34:06Z</time>
      </trkpt>
      <trkpt lat="44.40792" lon="5.22799">
        <ele>622</ele>
        <time>2022-09-29T13:34:07Z</time>
      </trkpt>
      <trkpt lat="44.40792" lon="5.22797">
        <ele>622</ele>
        <time>2022-09-29T13:34:08Z</time>
      </trkpt>
      <trkpt lat="44.40792" lon="5.22796">
        <ele>622</ele>
        <time>2022-09-29T13:34:09Z</time>
      </trkpt>
      <trkpt lat="44.40792" lon="5.22795">
        <ele>622</ele>
        <time>2022-09-29T13:34:10Z</time>
      </trkpt>
      <trkpt lat="44.40792" lon="5.22794">
        <ele>622</ele>
        <time>2022-09-29T13:34:11Z</time>
      </trkpt>
      <trkpt lat="44.40792" lon="5.22793">
        <ele>622</ele>
        <time>2022-09-29T13:34:12Z</time>
      </trkpt>
      <trkpt lat="44.40792" lon="5.22792">
        <ele>623</ele>
        <time>2022-09-29T13:34:13Z</time>
      </trkpt>
      <trkpt lat="44.40792" lon="5.22791">
        <ele>623</ele>
        <time>2022-09-29T13:34:14Z</time>
      </trkpt>
      <trkpt lat="44.40792" lon="5.22791">
        <ele>623</ele>
        <time>2022-09-29T13:34:15Z</time>
      </trkpt>
      <trkpt lat="44.40791" lon="5.2279">
        <ele>623</ele>
        <time>2022-09-29T13:34:16Z</time>
      </trkpt>
      <trkpt lat="44.40791" lon="5.22789">
        <ele>623</ele>
        <time>2022-09-29T13:34:17Z</time>
      </trkpt>
      <trkpt lat="44.40791" lon="5.22788">
        <ele>623</ele>
        <time>2022-09-29T13:34:18Z</time>
      </trkpt>
      <trkpt lat="44.40791" lon="5.22787">
        <ele>623</ele>
        <time>2022-09-29T13:34:19Z</time>
      </trkpt>
      <trkpt lat="44.4079" lon="5.22786">
        <ele>623</ele>
        <time>2022-09-29T13:34:20Z</time>
      </trkpt>
      <trkpt lat="44.4079" lon="5.22785">
        <ele>623</ele>
        <time>2022-09-29T13:34:21Z</time>
      </trkpt>
      <trkpt lat="44.4079" lon="5.22784">
        <ele>623</ele>
        <time>2022-09-29T13:34:22Z</time>
      </trkpt>
      <trkpt lat="44.40789" lon="5.22783">
        <ele>624</ele>
        <time>2022-09-29T13:34:23Z</time>
      </trkpt>
      <trkpt lat="44.40789" lon="5.22782">
        <ele>624</ele>
        <time>2022-09-29T13:34:24Z</time>
      </trkpt>
      <trkpt lat="44.40789" lon="5.22781">
        <ele>624</ele>
        <time>2022-09-29T13:34:25Z</time>
      </trkpt>
      <trkpt lat="44.40788" lon="5.2278">
        <ele>624</ele>
        <time>2022-09-29T13:34:26Z</time>
      </trkpt>
      <trkpt lat="44.40788" lon="5.2278">
        <ele>624</ele>
        <time>2022-09-29T13:34:27Z</time>
      </trkpt>
      <trkpt lat="44.40788" lon="5.22779">
        <ele>625</ele>
        <time>2022-09-29T13:34:28Z</time>
      </trkpt>
      <trkpt lat="44.40787" lon="5.22778">
        <ele>625</ele>
        <time>2022-09-29T13:34:29Z</time>
      </trkpt>
      <trkpt lat="44.40787" lon="5.22777">
        <ele>625</ele>
        <time>2022-09-29T13:34:30Z</time>
      </trkpt>
      <trkpt lat="44.40787" lon="5.22776">
        <ele>625</ele>
        <time>2022-09-29T13:34:31Z</time>
      </trkpt>
      <trkpt lat="44.40786" lon="5.22775">
        <ele>625</ele>
        <time>2022-09-29T13:34:32Z</time>
      </trkpt>
      <trkpt lat="44.40786" lon="5.22773">
        <ele>625</ele>
        <time>2022-09-29T13:34:33Z</time>
      </trkpt>
      <trkpt lat="44.40786" lon="5.22772">
        <ele>625</ele>
        <time>2022-09-29T13:34:34Z</time>
      </trkpt>
      <trkpt lat="44.40785" lon="5.22771">
        <ele>625</ele>
        <time>2022-09-29T13:34:35Z</time>
      </trkpt>
      <trkpt lat="44.40785" lon="5.2277">
        <ele>625</ele>
        <time>2022-09-29T13:34:36Z</time>
      </trkpt>
      <trkpt lat="44.40785" lon="5.22769">
        <ele>625</ele>
        <time>2022-09-29T13:34:37Z</time>
      </trkpt>
      <trkpt lat="44.40785" lon="5.22767">
        <ele>625</ele>
        <time>2022-09-29T13:34:38Z</time>
      </trkpt>
      <trkpt lat="44.40785" lon="5.22766">
        <ele>625</ele>
        <time>2022-09-29T13:34:39Z</time>
      </trkpt>
      <trkpt lat="44.40785" lon="5.22765">
        <ele>625</ele>
        <time>2022-09-29T13:34:40Z</time>
      </trkpt>
      <trkpt lat="44.40785" lon="5.22763">
        <ele>625</ele>
        <time>2022-09-29T13:34:41Z</time>
      </trkpt>
      <trkpt lat="44.40785" lon="5.22762">
        <ele>625</ele>
        <time>2022-09-29T13:34:42Z</time>
      </trkpt>
      <trkpt lat="44.40785" lon="5.22761">
        <ele>626</ele>
        <time>2022-09-29T13:34:43Z</time>
      </trkpt>
      <trkpt lat="44.40785" lon="5.2276">
        <ele>626</ele>
        <time>2022-09-29T13:34:44Z</time>
      </trkpt>
      <trkpt lat="44.40785" lon="5.22758">
        <ele>626</ele>
        <time>2022-09-29T13:34:45Z</time>
      </trkpt>
      <trkpt lat="44.40785" lon="5.22757">
        <ele>626</ele>
        <time>2022-09-29T13:34:46Z</time>
      </trkpt>
      <trkpt lat="44.40785" lon="5.22756">
        <ele>626</ele>
        <time>2022-09-29T13:34:47Z</time>
      </trkpt>
      <trkpt lat="44.40785" lon="5.22755">
        <ele>626</ele>
        <time>2022-09-29T13:34:48Z</time>
      </trkpt>
      <trkpt lat="44.40785" lon="5.22754">
        <ele>626</ele>
        <time>2022-09-29T13:34:49Z</time>
      </trkpt>
      <trkpt lat="44.40785" lon="5.22753">
        <ele>626</ele>
        <time>2022-09-29T13:34:50Z</time>
      </trkpt>
      <trkpt lat="44.40785" lon="5.22751">
        <ele>626</ele>
        <time>2022-09-29T13:34:51Z</time>
      </trkpt>
      <trkpt lat="44.40785" lon="5.2275">
        <ele>626</ele>
        <time>2022-09-29T13:34:52Z</time>
      </trkpt>
      <trkpt lat="44.40785" lon="5.22749">
        <ele>627</ele>
        <time>2022-09-29T13:34:53Z</time>
      </trkpt>
      <trkpt lat="44.40785" lon="5.22748">
        <ele>627</ele>
        <time>2022-09-29T13:34:54Z</time>
      </trkpt>
      <trkpt lat="44.40785" lon="5.22747">
        <ele>627</ele>
        <time>2022-09-29T13:34:55Z</time>
      </trkpt>
      <trkpt lat="44.40785" lon="5.22746">
        <ele>627</ele>
        <time>2022-09-29T13:34:56Z</time>
      </trkpt>
      <trkpt lat="44.40785" lon="5.22744">
        <ele>627</ele>
        <time>2022-09-29T13:34:57Z</time>
      </trkpt>
      <trkpt lat="44.40785" lon="5.22743">
        <ele>627</ele>
        <time>2022-09-29T13:34:58Z</time>
      </trkpt>
      <trkpt lat="44.40785" lon="5.22742">
        <ele>627</ele>
        <time>2022-09-29T13:34:59Z</time>
      </trkpt>
      <trkpt lat="44.40785" lon="5.22741">
        <ele>627</ele>
        <time>2022-09-29T13:35:00Z</time>
      </trkpt>
      <trkpt lat="44.40785" lon="5.2274">
        <ele>627</ele>
        <time>2022-09-29T13:35:01Z</time>
      </trkpt>
      <trkpt lat="44.40785" lon="5.22739">
        <ele>627</ele>
        <time>2022-09-29T13:35:02Z</time>
      </trkpt>
      <trkpt lat="44.40785" lon="5.22738">
        <ele>628</ele>
        <time>2022-09-29T13:35:03Z</time>
      </trkpt>
      <trkpt lat="44.40785" lon="5.22737">
        <ele>628</ele>
        <time>2022-09-29T13:35:04Z</time>
      </trkpt>
      <trkpt lat="44.40785" lon="5.22735">
        <ele>628</ele>
        <time>2022-09-29T13:35:05Z</time>
      </trkpt>
      <trkpt lat="44.40785" lon="5.22734">
        <ele>628</ele>
        <time>2022-09-29T13:35:06Z</time>
      </trkpt>
      <trkpt lat="44.40785" lon="5.22733">
        <ele>628</ele>
        <time>2022-09-29T13:35:07Z</time>
      </trkpt>
      <trkpt lat="44.40785" lon="5.22732">
        <ele>628</ele>
        <time>2022-09-29T13:35:08Z</time>
      </trkpt>
      <trkpt lat="44.40785" lon="5.22731">
        <ele>628</ele>
        <time>2022-09-29T13:35:09Z</time>
      </trkpt>
      <trkpt lat="44.40785" lon="5.22729">
        <ele>628</ele>
        <time>2022-09-29T13:35:10Z</time>
      </trkpt>
      <trkpt lat="44.40786" lon="5.22728">
        <ele>628</ele>
        <time>2022-09-29T13:35:11Z</time>
      </trkpt>
      <trkpt lat="44.40786" lon="5.22727">
        <ele>628</ele>
        <time>2022-09-29T13:35:12Z</time>
      </trkpt>
      <trkpt lat="44.40786" lon="5.22726">
        <ele>629</ele>
        <time>2022-09-29T13:35:13Z</time>
      </trkpt>
      <trkpt lat="44.40786" lon="5.22725">
        <ele>629</ele>
        <time>2022-09-29T13:35:14Z</time>
      </trkpt>
      <trkpt lat="44.40786" lon="5.22723">
        <ele>629</ele>
        <time>2022-09-29T13:35:15Z</time>
      </trkpt>
      <trkpt lat="44.40786" lon="5.22722">
        <ele>629</ele>
        <time>2022-09-29T13:35:16Z</time>
      </trkpt>
      <trkpt lat="44.40786" lon="5.22721">
        <ele>629</ele>
        <time>2022-09-29T13:35:17Z</time>
      </trkpt>
      <trkpt lat="44.40786" lon="5.2272">
        <ele>629</ele>
        <time>2022-09-29T13:35:18Z</time>
      </trkpt>
      <trkpt lat="44.40786" lon="5.22719">
        <ele>629</ele>
        <time>2022-09-29T13:35:19Z</time>
      </trkpt>
      <trkpt lat="44.40786" lon="5.22717">
        <ele>629</ele>
        <time>2022-09-29T13:35:20Z</time>
      </trkpt>
      <trkpt lat="44.40786" lon="5.22717">
        <ele>629</ele>
        <time>2022-09-29T13:35:21Z</time>
      </trkpt>
      <trkpt lat="44.40786" lon="5.22716">
        <ele>629</ele>
        <time>2022-09-29T13:35:22Z</time>
      </trkpt>
      <trkpt lat="44.40786" lon="5.22715">
        <ele>630</ele>
        <time>2022-09-29T13:35:23Z</time>
      </trkpt>
      <trkpt lat="44.40786" lon="5.22714">
        <ele>630</ele>
        <time>2022-09-29T13:35:24Z</time>
      </trkpt>
      <trkpt lat="44.40786" lon="5.22712">
        <ele>630</ele>
        <time>2022-09-29T13:35:25Z</time>
      </trkpt>
      <trkpt lat="44.40787" lon="5.22711">
        <ele>630</ele>
        <time>2022-09-29T13:35:26Z</time>
      </trkpt>
      <trkpt lat="44.40787" lon="5.2271">
        <ele>630</ele>
        <time>2022-09-29T13:35:27Z</time>
      </trkpt>
      <trkpt lat="44.40787" lon="5.22709">
        <ele>630</ele>
        <time>2022-09-29T13:35:28Z</time>
      </trkpt>
      <trkpt lat="44.40787" lon="5.22708">
        <ele>630</ele>
        <time>2022-09-29T13:35:29Z</time>
      </trkpt>
      <trkpt lat="44.40787" lon="5.22707">
        <ele>630</ele>
        <time>2022-09-29T13:35:30Z</time>
      </trkpt>
      <trkpt lat="44.40787" lon="5.22706">
        <ele>630</ele>
        <time>2022-09-29T13:35:31Z</time>
      </trkpt>
      <trkpt lat="44.40788" lon="5.22705">
        <ele>630</ele>
        <time>2022-09-29T13:35:32Z</time>
      </trkpt>
      <trkpt lat="44.40788" lon="5.22705">
        <ele>631</ele>
        <time>2022-09-29T13:35:33Z</time>
      </trkpt>
      <trkpt lat="44.40788" lon="5.22703">
        <ele>631</ele>
        <time>2022-09-29T13:35:34Z</time>
      </trkpt>
      <trkpt lat="44.40788" lon="5.22702">
        <ele>631</ele>
        <time>2022-09-29T13:35:35Z</time>
      </trkpt>
      <trkpt lat="44.40788" lon="5.22701">
        <ele>631</ele>
        <time>2022-09-29T13:35:36Z</time>
      </trkpt>
      <trkpt lat="44.40788" lon="5.227">
        <ele>631</ele>
        <time>2022-09-29T13:35:37Z</time>
      </trkpt>
      <trkpt lat="44.40788" lon="5.22699">
        <ele>631</ele>
        <time>2022-09-29T13:35:38Z</time>
      </trkpt>
      <trkpt lat="44.40788" lon="5.22697">
        <ele>631</ele>
        <time>2022-09-29T13:35:39Z</time>
      </trkpt>
      <trkpt lat="44.40788" lon="5.22696">
        <ele>631</ele>
        <time>2022-09-29T13:35:40Z</time>
      </trkpt>
      <trkpt lat="44.40789" lon="5.22695">
        <ele>631</ele>
        <time>2022-09-29T13:35:41Z</time>
      </trkpt>
      <trkpt lat="44.40789" lon="5.22694">
        <ele>631</ele>
        <time>2022-09-29T13:35:42Z</time>
      </trkpt>
      <trkpt lat="44.40789" lon="5.22693">
        <ele>632</ele>
        <time>2022-09-29T13:35:43Z</time>
      </trkpt>
      <trkpt lat="44.40789" lon="5.22692">
        <ele>632</ele>
        <time>2022-09-29T13:35:44Z</time>
      </trkpt>
      <trkpt lat="44.40789" lon="5.22691">
        <ele>632</ele>
        <time>2022-09-29T13:35:45Z</time>
      </trkpt>
      <trkpt lat="44.4079" lon="5.2269">
        <ele>632</ele>
        <time>2022-09-29T13:35:46Z</time>
      </trkpt>
      <trkpt lat="44.4079" lon="5.22689">
        <ele>632</ele>
        <time>2022-09-29T13:35:47Z</time>
      </trkpt>
      <trkpt lat="44.4079" lon="5.22688">
        <ele>632</ele>
        <time>2022-09-29T13:35:48Z</time>
      </trkpt>
      <trkpt lat="44.4079" lon="5.22687">
        <ele>632</ele>
        <time>2022-09-29T13:35:49Z</time>
      </trkpt>
      <trkpt lat="44.40791" lon="5.22686">
        <ele>632</ele>
        <time>2022-09-29T13:35:50Z</time>
      </trkpt>
      <trkpt lat="44.40791" lon="5.22685">
        <ele>632</ele>
        <time>2022-09-29T13:35:51Z</time>
      </trkpt>
      <trkpt lat="44.40791" lon="5.22683">
        <ele>632</ele>
        <time>2022-09-29T13:35:52Z</time>
      </trkpt>
      <trkpt lat="44.40791" lon="5.22682">
        <ele>633</ele>
        <time>2022-09-29T13:35:53Z</time>
      </trkpt>
      <trkpt lat="44.40791" lon="5.22681">
        <ele>633</ele>
        <time>2022-09-29T13:35:54Z</time>
      </trkpt>
      <trkpt lat="44.40791" lon="5.2268">
        <ele>633</ele>
        <time>2022-09-29T13:35:55Z</time>
      </trkpt>
      <trkpt lat="44.40791" lon="5.22678">
        <ele>633</ele>
        <time>2022-09-29T13:35:56Z</time>
      </trkpt>
      <trkpt lat="44.40791" lon="5.22677">
        <ele>633</ele>
        <time>2022-09-29T13:35:57Z</time>
      </trkpt>
      <trkpt lat="44.40792" lon="5.22676">
        <ele>633</ele>
        <time>2022-09-29T13:35:58Z</time>
      </trkpt>
      <trkpt lat="44.40792" lon="5.22675">
        <ele>633</ele>
        <time>2022-09-29T13:35:59Z</time>
      </trkpt>
      <trkpt lat="44.40792" lon="5.22674">
        <ele>633</ele>
        <time>2022-09-29T13:36:00Z</time>
      </trkpt>
      <trkpt lat="44.40792" lon="5.22673">
        <ele>633</ele>
        <time>2022-09-29T13:36:01Z</time>
      </trkpt>
      <trkpt lat="44.40792" lon="5.22672">
        <ele>633</ele>
        <time>2022-09-29T13:36:02Z</time>
      </trkpt>
      <trkpt lat="44.40792" lon="5.22671">
        <ele>634</ele>
        <time>2022-09-29T13:36:03Z</time>
      </trkpt>
      <trkpt lat="44.40792" lon="5.2267">
        <ele>634</ele>
        <time>2022-09-29T13:36:04Z</time>
      </trkpt>
      <trkpt lat="44.40792" lon="5.22669">
        <ele>634</ele>
        <time>2022-09-29T13:36:05Z</time>
      </trkpt>
      <trkpt lat="44.40792" lon="5.22668">
        <ele>634</ele>
        <time>2022-09-29T13:36:06Z</time>
      </trkpt>
      <trkpt lat="44.40792" lon="5.22666">
        <ele>634</ele>
        <time>2022-09-29T13:36:07Z</time>
      </trkpt>
      <trkpt lat="44.40791" lon="5.22665">
        <ele>634</ele>
        <time>2022-09-29T13:36:08Z</time>
      </trkpt>
      <trkpt lat="44.40791" lon="5.22664">
        <ele>634</ele>
        <time>2022-09-29T13:36:09Z</time>
      </trkpt>
      <trkpt lat="44.40791" lon="5.22663">
        <ele>634</ele>
        <time>2022-09-29T13:36:10Z</time>
      </trkpt>
      <trkpt lat="44.40791" lon="5.22662">
        <ele>634</ele>
        <time>2022-09-29T13:36:11Z</time>
      </trkpt>
      <trkpt lat="44.40791" lon="5.22661">
        <ele>634</ele>
        <time>2022-09-29T13:36:12Z</time>
      </trkpt>
      <trkpt lat="44.40791" lon="5.2266">
        <ele>635</ele>
        <time>2022-09-29T13:36:13Z</time>
      </trkpt>
      <trkpt lat="44.40791" lon="5.22659">
        <ele>635</ele>
        <time>2022-09-29T13:36:14Z</time>
      </trkpt>
      <trkpt lat="44.40791" lon="5.22658">
        <ele>635</ele>
        <time>2022-09-29T13:36:15Z</time>
      </trkpt>
      <trkpt lat="44.40791" lon="5.22657">
        <ele>635</ele>
        <time>2022-09-29T13:36:16Z</time>
      </trkpt>
      <trkpt lat="44.40791" lon="5.22656">
        <ele>635</ele>
        <time>2022-09-29T13:36:17Z</time>
      </trkpt>
      <trkpt lat="44.40791" lon="5.22655">
        <ele>636</ele>
        <time>2022-09-29T13:36:18Z</time>
      </trkpt>
      <trkpt lat="44.40791" lon="5.22654">
        <ele>636</ele>
        <time>2022-09-29T13:36:19Z</time>
      </trkpt>
      <trkpt lat="44.40791" lon="5.22653">
        <ele>636</ele>
        <time>2022-09-29T13:36:20Z</time>
      </trkpt>
      <trkpt lat="44.40791" lon="5.22652">
        <ele>636</ele>
        <time>2022-09-29T13:36:21Z</time>
      </trkpt>
      <trkpt lat="44.40791" lon="5.22651">
        <ele>636</ele>
        <time>2022-09-29T13:36:22Z</time>
      </trkpt>
      <trkpt lat="44.40791" lon="5.2265">
        <ele>636</ele>
        <time>2022-09-29T13:36:23Z</time>
      </trkpt>
      <trkpt lat="44.40791" lon="5.22649">
        <ele>636</ele>
        <time>2022-09-29T13:36:24Z</time>
      </trkpt>
      <trkpt lat="44.40791" lon="5.22648">
        <ele>636</ele>
        <time>2022-09-29T13:36:25Z</time>
      </trkpt>
      <trkpt lat="44.40791" lon="5.22647">
        <ele>636</ele>
        <time>2022-09-29T13:36:26Z</time>
      </trkpt>
      <trkpt lat="44.40791" lon="5.22646">
        <ele>636</ele>
        <time>2022-09-29T13:36:27Z</time>
      </trkpt>
      <trkpt lat="44.40791" lon="5.22645">
        <ele>637</ele>
        <time>2022-09-29T13:36:28Z</time>
      </trkpt>
      <trkpt lat="44.40791" lon="5.22644">
        <ele>637</ele>
        <time>2022-09-29T13:36:29Z</time>
      </trkpt>
      <trkpt lat="44.4079" lon="5.22643">
        <ele>637</ele>
        <time>2022-09-29T13:36:30Z</time>
      </trkpt>
      <trkpt lat="44.4079" lon="5.22642">
        <ele>637</ele>
        <time>2022-09-29T13:36:31Z</time>
      </trkpt>
      <trkpt lat="44.4079" lon="5.22641">
        <ele>637</ele>
        <time>2022-09-29T13:36:32Z</time>
      </trkpt>
      <trkpt lat="44.4079" lon="5.2264">
        <ele>637</ele>
        <time>2022-09-29T13:36:33Z</time>
      </trkpt>
      <trkpt lat="44.4079" lon="5.22639">
        <ele>637</ele>
        <time>2022-09-29T13:36:34Z</time>
      </trkpt>
      <trkpt lat="44.4079" lon="5.22638">
        <ele>637</ele>
        <time>2022-09-29T13:36:35Z</time>
      </trkpt>
      <trkpt lat="44.4079" lon="5.22637">
        <ele>637</ele>
        <time>2022-09-29T13:36:36Z</time>
      </trkpt>
      <trkpt lat="44.4079" lon="5.22636">
        <ele>637</ele>
        <time>2022-09-29T13:36:37Z</time>
      </trkpt>
      <trkpt lat="44.40789" lon="5.22635">
        <ele>638</ele>
        <time>2022-09-29T13:36:38Z</time>
      </trkpt>
      <trkpt lat="44.40789" lon="5.22634">
        <ele>638</ele>
        <time>2022-09-29T13:36:39Z</time>
      </trkpt>
      <trkpt lat="44.40789" lon="5.22632">
        <ele>639</ele>
        <time>2022-09-29T13:37:02Z</time>
      </trkpt>
      <trkpt lat="44.40789" lon="5.22631">
        <ele>639</ele>
        <time>2022-09-29T13:37:03Z</time>
      </trkpt>
      <trkpt lat="44.40788" lon="5.2263">
        <ele>639</ele>
        <time>2022-09-29T13:37:04Z</time>
      </trkpt>
      <trkpt lat="44.40788" lon="5.22629">
        <ele>639</ele>
        <time>2022-09-29T13:37:05Z</time>
      </trkpt>
      <trkpt lat="44.40788" lon="5.22627">
        <ele>639</ele>
        <time>2022-09-29T13:37:06Z</time>
      </trkpt>
      <trkpt lat="44.40787" lon="5.22626">
        <ele>639</ele>
        <time>2022-09-29T13:37:07Z</time>
      </trkpt>
      <trkpt lat="44.40787" lon="5.22625">
        <ele>639</ele>
        <time>2022-09-29T13:37:08Z</time>
      </trkpt>
      <trkpt lat="44.40787" lon="5.22624">
        <ele>639</ele>
        <time>2022-09-29T13:37:09Z</time>
      </trkpt>
      <trkpt lat="44.40786" lon="5.22623">
        <ele>639</ele>
        <time>2022-09-29T13:37:10Z</time>
      </trkpt>
      <trkpt lat="44.40786" lon="5.22622">
        <ele>639</ele>
        <time>2022-09-29T13:37:11Z</time>
      </trkpt>
      <trkpt lat="44.40786" lon="5.2262">
        <ele>639</ele>
        <time>2022-09-29T13:37:12Z</time>
      </trkpt>
      <trkpt lat="44.40786" lon="5.22619">
        <ele>639</ele>
        <time>2022-09-29T13:37:13Z</time>
      </trkpt>
      <trkpt lat="44.40785" lon="5.22618">
        <ele>639</ele>
        <time>2022-09-29T13:37:14Z</time>
      </trkpt>
      <trkpt lat="44.40785" lon="5.22617">
        <ele>639</ele>
        <time>2022-09-29T13:37:15Z</time>
      </trkpt>
      <trkpt lat="44.40785" lon="5.22615">
        <ele>639</ele>
        <time>2022-09-29T13:37:16Z</time>
      </trkpt>
      <trkpt lat="44.40785" lon="5.22614">
        <ele>639</ele>
        <time>2022-09-29T13:37:17Z</time>
      </trkpt>
      <trkpt lat="44.40785" lon="5.22612">
        <ele>639</ele>
        <time>2022-09-29T13:37:18Z</time>
      </trkpt>
      <trkpt lat="44.40785" lon="5.22611">
        <ele>639</ele>
        <time>2022-09-29T13:37:19Z</time>
      </trkpt>
      <trkpt lat="44.40785" lon="5.2261">
        <ele>639</ele>
        <time>2022-09-29T13:37:20Z</time>
      </trkpt>
      <trkpt lat="44.40784" lon="5.22608">
        <ele>639</ele>
        <time>2022-09-29T13:37:21Z</time>
      </trkpt>
      <trkpt lat="44.40784" lon="5.22607">
        <ele>639</ele>
        <time>2022-09-29T13:37:22Z</time>
      </trkpt>
      <trkpt lat="44.40784" lon="5.22606">
        <ele>640</ele>
        <time>2022-09-29T13:37:23Z</time>
      </trkpt>
      <trkpt lat="44.40784" lon="5.22605">
        <ele>640</ele>
        <time>2022-09-29T13:37:24Z</time>
      </trkpt>
      <trkpt lat="44.40784" lon="5.22603">
        <ele>640</ele>
        <time>2022-09-29T13:37:25Z</time>
      </trkpt>
      <trkpt lat="44.40784" lon="5.22602">
        <ele>640</ele>
        <time>2022-09-29T13:37:26Z</time>
      </trkpt>
      <trkpt lat="44.40784" lon="5.22601">
        <ele>640</ele>
        <time>2022-09-29T13:37:27Z</time>
      </trkpt>
      <trkpt lat="44.40783" lon="5.226">
        <ele>640</ele>
        <time>2022-09-29T13:37:28Z</time>
      </trkpt>
      <trkpt lat="44.40783" lon="5.22599">
        <ele>640</ele>
        <time>2022-09-29T13:37:29Z</time>
      </trkpt>
      <trkpt lat="44.40783" lon="5.22598">
        <ele>640</ele>
        <time>2022-09-29T13:37:30Z</time>
      </trkpt>
      <trkpt lat="44.40783" lon="5.22596">
        <ele>640</ele>
        <time>2022-09-29T13:37:31Z</time>
      </trkpt>
      <trkpt lat="44.40783" lon="5.22595">
        <ele>640</ele>
        <time>2022-09-29T13:37:32Z</time>
      </trkpt>
      <trkpt lat="44.40783" lon="5.22594">
        <ele>641</ele>
        <time>2022-09-29T13:37:33Z</time>
      </trkpt>
      <trkpt lat="44.40783" lon="5.22593">
        <ele>641</ele>
        <time>2022-09-29T13:37:34Z</time>
      </trkpt>
      <trkpt lat="44.40783" lon="5.22592">
        <ele>641</ele>
        <time>2022-09-29T13:37:35Z</time>
      </trkpt>
      <trkpt lat="44.40783" lon="5.22591">
        <ele>641</ele>
        <time>2022-09-29T13:37:36Z</time>
      </trkpt>
      <trkpt lat="44.40783" lon="5.2259">
        <ele>641</ele>
        <time>2022-09-29T13:37:37Z</time>
      </trkpt>
      <trkpt lat="44.40783" lon="5.22589">
        <ele>641</ele>
        <time>2022-09-29T13:37:38Z</time>
      </trkpt>
      <trkpt lat="44.40784" lon="5.22588">
        <ele>641</ele>
        <time>2022-09-29T13:37:39Z</time>
      </trkpt>
      <trkpt lat="44.40784" lon="5.22587">
        <ele>641</ele>
        <time>2022-09-29T13:37:40Z</time>
      </trkpt>
      <trkpt lat="44.40784" lon="5.22586">
        <ele>641</ele>
        <time>2022-09-29T13:37:41Z</time>
      </trkpt>
      <trkpt lat="44.40784" lon="5.22585">
        <ele>641</ele>
        <time>2022-09-29T13:37:42Z</time>
      </trkpt>
      <trkpt lat="44.40784" lon="5.22584">
        <ele>642</ele>
        <time>2022-09-29T13:37:43Z</time>
      </trkpt>
      <trkpt lat="44.40784" lon="5.22583">
        <ele>642</ele>
        <time>2022-09-29T13:37:44Z</time>
      </trkpt>
      <trkpt lat="44.40784" lon="5.22582">
        <ele>642</ele>
        <time>2022-09-29T13:37:45Z</time>
      </trkpt>
      <trkpt lat="44.40784" lon="5.22581">
        <ele>642</ele>
        <time>2022-09-29T13:37:46Z</time>
      </trkpt>
      <trkpt lat="44.40784" lon="5.2258">
        <ele>642</ele>
        <time>2022-09-29T13:37:47Z</time>
      </trkpt>
      <trkpt lat="44.40784" lon="5.22579">
        <ele>642</ele>
        <time>2022-09-29T13:37:48Z</time>
      </trkpt>
      <trkpt lat="44.40783" lon="5.22578">
        <ele>642</ele>
        <time>2022-09-29T13:37:49Z</time>
      </trkpt>
      <trkpt lat="44.40783" lon="5.22577">
        <ele>642</ele>
        <time>2022-09-29T13:37:50Z</time>
      </trkpt>
      <trkpt lat="44.40783" lon="5.22576">
        <ele>642</ele>
        <time>2022-09-29T13:37:51Z</time>
      </trkpt>
      <trkpt lat="44.40783" lon="5.22575">
        <ele>642</ele>
        <time>2022-09-29T13:37:52Z</time>
      </trkpt>
      <trkpt lat="44.40783" lon="5.22574">
        <ele>643</ele>
        <time>2022-09-29T13:37:53Z</time>
      </trkpt>
      <trkpt lat="44.40783" lon="5.22573">
        <ele>643</ele>
        <time>2022-09-29T13:37:54Z</time>
      </trkpt>
      <trkpt lat="44.40783" lon="5.22572">
        <ele>643</ele>
        <time>2022-09-29T13:37:55Z</time>
      </trkpt>
      <trkpt lat="44.40783" lon="5.22571">
        <ele>643</ele>
        <time>2022-09-29T13:37:56Z</time>
      </trkpt>
      <trkpt lat="44.40783" lon="5.2257">
        <ele>643</ele>
        <time>2022-09-29T13:37:57Z</time>
      </trkpt>
      <trkpt lat="44.40783" lon="5.22569">
        <ele>643</ele>
        <time>2022-09-29T13:37:58Z</time>
      </trkpt>
      <trkpt lat="44.40783" lon="5.22568">
        <ele>643</ele>
        <time>2022-09-29T13:37:59Z</time>
      </trkpt>
      <trkpt lat="44.40783" lon="5.22567">
        <ele>643</ele>
        <time>2022-09-29T13:38:00Z</time>
      </trkpt>
      <trkpt lat="44.40783" lon="5.22566">
        <ele>643</ele>
        <time>2022-09-29T13:38:01Z</time>
      </trkpt>
      <trkpt lat="44.40783" lon="5.22565">
        <ele>643</ele>
        <time>2022-09-29T13:38:02Z</time>
      </trkpt>
      <trkpt lat="44.40783" lon="5.22564">
        <ele>644</ele>
        <time>2022-09-29T13:38:03Z</time>
      </trkpt>
      <trkpt lat="44.40783" lon="5.22563">
        <ele>644</ele>
        <time>2022-09-29T13:38:04Z</time>
      </trkpt>
      <trkpt lat="44.40783" lon="5.22562">
        <ele>644</ele>
        <time>2022-09-29T13:38:05Z</time>
      </trkpt>
      <trkpt lat="44.40783" lon="5.22561">
        <ele>644</ele>
        <time>2022-09-29T13:38:06Z</time>
      </trkpt>
      <trkpt lat="44.40783" lon="5.22559">
        <ele>644</ele>
        <time>2022-09-29T13:38:07Z</time>
      </trkpt>
      <trkpt lat="44.40783" lon="5.22558">
        <ele>645</ele>
        <time>2022-09-29T13:38:08Z</time>
      </trkpt>
      <trkpt lat="44.40783" lon="5.22557">
        <ele>645</ele>
        <time>2022-09-29T13:38:09Z</time>
      </trkpt>
      <trkpt lat="44.40783" lon="5.22556">
        <ele>645</ele>
        <time>2022-09-29T13:38:10Z</time>
      </trkpt>
      <trkpt lat="44.40783" lon="5.22555">
        <ele>645</ele>
        <time>2022-09-29T13:38:11Z</time>
      </trkpt>
      <trkpt lat="44.40783" lon="5.22554">
        <ele>645</ele>
        <time>2022-09-29T13:38:12Z</time>
      </trkpt>
      <trkpt lat="44.40783" lon="5.22552">
        <ele>645</ele>
        <time>2022-09-29T13:38:13Z</time>
      </trkpt>
      <trkpt lat="44.40783" lon="5.22551">
        <ele>645</ele>
        <time>2022-09-29T13:38:14Z</time>
      </trkpt>
      <trkpt lat="44.40783" lon="5.2255">
        <ele>645</ele>
        <time>2022-09-29T13:38:15Z</time>
      </trkpt>
      <trkpt lat="44.40783" lon="5.22549">
        <ele>645</ele>
        <time>2022-09-29T13:38:16Z</time>
      </trkpt>
      <trkpt lat="44.40783" lon="5.22548">
        <ele>645</ele>
        <time>2022-09-29T13:38:17Z</time>
      </trkpt>
      <trkpt lat="44.40783" lon="5.22547">
        <ele>646</ele>
        <time>2022-09-29T13:38:18Z</time>
      </trkpt>
      <trkpt lat="44.40783" lon="5.22546">
        <ele>646</ele>
        <time>2022-09-29T13:38:19Z</time>
      </trkpt>
      <trkpt lat="44.40783" lon="5.22544">
        <ele>646</ele>
        <time>2022-09-29T13:38:20Z</time>
      </trkpt>
      <trkpt lat="44.40783" lon="5.22543">
        <ele>646</ele>
        <time>2022-09-29T13:38:21Z</time>
      </trkpt>
      <trkpt lat="44.40783" lon="5.22542">
        <ele>646</ele>
        <time>2022-09-29T13:38:22Z</time>
      </trkpt>
      <trkpt lat="44.40783" lon="5.22541">
        <ele>646</ele>
        <time>2022-09-29T13:38:23Z</time>
      </trkpt>
      <trkpt lat="44.40783" lon="5.2254">
        <ele>646</ele>
        <time>2022-09-29T13:38:24Z</time>
      </trkpt>
      <trkpt lat="44.40783" lon="5.22539">
        <ele>646</ele>
        <time>2022-09-29T13:38:25Z</time>
      </trkpt>
      <trkpt lat="44.40783" lon="5.22538">
        <ele>646</ele>
        <time>2022-09-29T13:38:26Z</time>
      </trkpt>
      <trkpt lat="44.40783" lon="5.22537">
        <ele>646</ele>
        <time>2022-09-29T13:38:27Z</time>
      </trkpt>
      <trkpt lat="44.40783" lon="5.22536">
        <ele>647</ele>
        <time>2022-09-29T13:38:28Z</time>
      </trkpt>
      <trkpt lat="44.40783" lon="5.22535">
        <ele>647</ele>
        <time>2022-09-29T13:38:29Z</time>
      </trkpt>
      <trkpt lat="44.40783" lon="5.22534">
        <ele>647</ele>
        <time>2022-09-29T13:38:30Z</time>
      </trkpt>
      <trkpt lat="44.40783" lon="5.22532">
        <ele>647</ele>
        <time>2022-09-29T13:38:31Z</time>
      </trkpt>
      <trkpt lat="44.40783" lon="5.22531">
        <ele>647</ele>
        <time>2022-09-29T13:38:32Z</time>
      </trkpt>
      <trkpt lat="44.40783" lon="5.2253">
        <ele>647</ele>
        <time>2022-09-29T13:38:33Z</time>
      </trkpt>
      <trkpt lat="44.40783" lon="5.22529">
        <ele>647</ele>
        <time>2022-09-29T13:38:34Z</time>
      </trkpt>
      <trkpt lat="44.40783" lon="5.22527">
        <ele>647</ele>
        <time>2022-09-29T13:38:35Z</time>
      </trkpt>
      <trkpt lat="44.40783" lon="5.22526">
        <ele>647</ele>
        <time>2022-09-29T13:38:36Z</time>
      </trkpt>
      <trkpt lat="44.40784" lon="5.22525">
        <ele>647</ele>
        <time>2022-09-29T13:38:37Z</time>
      </trkpt>
      <trkpt lat="44.40784" lon="5.22523">
        <ele>648</ele>
        <time>2022-09-29T13:38:38Z</time>
      </trkpt>
      <trkpt lat="44.40784" lon="5.22522">
        <ele>648</ele>
        <time>2022-09-29T13:38:39Z</time>
      </trkpt>
      <trkpt lat="44.40784" lon="5.22521">
        <ele>648</ele>
        <time>2022-09-29T13:38:40Z</time>
      </trkpt>
      <trkpt lat="44.40784" lon="5.2252">
        <ele>648</ele>
        <time>2022-09-29T13:38:41Z</time>
      </trkpt>
      <trkpt lat="44.40784" lon="5.22518">
        <ele>648</ele>
        <time>2022-09-29T13:38:42Z</time>
      </trkpt>
      <trkpt lat="44.40784" lon="5.22517">
        <ele>648</ele>
        <time>2022-09-29T13:38:43Z</time>
      </trkpt>
      <trkpt lat="44.40784" lon="5.22516">
        <ele>648</ele>
        <time>2022-09-29T13:38:44Z</time>
      </trkpt>
      <trkpt lat="44.40784" lon="5.22515">
        <ele>648</ele>
        <time>2022-09-29T13:38:45Z</time>
      </trkpt>
      <trkpt lat="44.40784" lon="5.22513">
        <ele>648</ele>
        <time>2022-09-29T13:38:46Z</time>
      </trkpt>
      <trkpt lat="44.40785" lon="5.22512">
        <ele>648</ele>
        <time>2022-09-29T13:38:47Z</time>
      </trkpt>
      <trkpt lat="44.40785" lon="5.22511">
        <ele>648</ele>
        <time>2022-09-29T13:38:48Z</time>
      </trkpt>
      <trkpt lat="44.40785" lon="5.2251">
        <ele>648</ele>
        <time>2022-09-29T13:38:49Z</time>
      </trkpt>
      <trkpt lat="44.40785" lon="5.22509">
        <ele>648</ele>
        <time>2022-09-29T13:38:50Z</time>
      </trkpt>
      <trkpt lat="44.40785" lon="5.22508">
        <ele>648</ele>
        <time>2022-09-29T13:38:51Z</time>
      </trkpt>
      <trkpt lat="44.40785" lon="5.22506">
        <ele>648</ele>
        <time>2022-09-29T13:38:52Z</time>
      </trkpt>
      <trkpt lat="44.40785" lon="5.22505">
        <ele>649</ele>
        <time>2022-09-29T13:38:53Z</time>
      </trkpt>
      <trkpt lat="44.40785" lon="5.22504">
        <ele>648</ele>
        <time>2022-09-29T13:39:02Z</time>
      </trkpt>
      <trkpt lat="44.40786" lon="5.22503">
        <ele>648</ele>
        <time>2022-09-29T13:39:03Z</time>
      </trkpt>
      <trkpt lat="44.40786" lon="5.22502">
        <ele>648</ele>
        <time>2022-09-29T13:39:04Z</time>
      </trkpt>
      <trkpt lat="44.40786" lon="5.22502">
        <ele>648</ele>
        <time>2022-09-29T13:39:05Z</time>
      </trkpt>
      <trkpt lat="44.40786" lon="5.22501">
        <ele>648</ele>
        <time>2022-09-29T13:39:06Z</time>
      </trkpt>
      <trkpt lat="44.40787" lon="5.225">
        <ele>648</ele>
        <time>2022-09-29T13:39:07Z</time>
      </trkpt>
      <trkpt lat="44.40787" lon="5.22499">
        <ele>649</ele>
        <time>2022-09-29T13:39:08Z</time>
      </trkpt>
      <trkpt lat="44.40787" lon="5.22498">
        <ele>649</ele>
        <time>2022-09-29T13:39:09Z</time>
      </trkpt>
      <trkpt lat="44.40788" lon="5.22497">
        <ele>649</ele>
        <time>2022-09-29T13:39:10Z</time>
      </trkpt>
      <trkpt lat="44.40788" lon="5.22495">
        <ele>649</ele>
        <time>2022-09-29T13:39:11Z</time>
      </trkpt>
      <trkpt lat="44.40788" lon="5.22494">
        <ele>649</ele>
        <time>2022-09-29T13:39:12Z</time>
      </trkpt>
      <trkpt lat="44.40789" lon="5.22492">
        <ele>649</ele>
        <time>2022-09-29T13:39:13Z</time>
      </trkpt>
      <trkpt lat="44.40789" lon="5.22491">
        <ele>649</ele>
        <time>2022-09-29T13:39:14Z</time>
      </trkpt>
      <trkpt lat="44.4079" lon="5.2249">
        <ele>649</ele>
        <time>2022-09-29T13:39:15Z</time>
      </trkpt>
      <trkpt lat="44.4079" lon="5.22489">
        <ele>649</ele>
        <time>2022-09-29T13:39:16Z</time>
      </trkpt>
      <trkpt lat="44.4079" lon="5.22488">
        <ele>649</ele>
        <time>2022-09-29T13:39:17Z</time>
      </trkpt>
      <trkpt lat="44.40791" lon="5.22487">
        <ele>649</ele>
        <time>2022-09-29T13:39:18Z</time>
      </trkpt>
      <trkpt lat="44.40791" lon="5.22485">
        <ele>649</ele>
        <time>2022-09-29T13:39:19Z</time>
      </trkpt>
      <trkpt lat="44.40792" lon="5.22484">
        <ele>649</ele>
        <time>2022-09-29T13:39:20Z</time>
      </trkpt>
      <trkpt lat="44.40792" lon="5.22483">
        <ele>649</ele>
        <time>2022-09-29T13:39:21Z</time>
      </trkpt>
      <trkpt lat="44.40793" lon="5.22482">
        <ele>649</ele>
        <time>2022-09-29T13:39:22Z</time>
      </trkpt>
      <trkpt lat="44.40794" lon="5.22481">
        <ele>649</ele>
        <time>2022-09-29T13:39:23Z</time>
      </trkpt>
      <trkpt lat="44.40794" lon="5.2248">
        <ele>649</ele>
        <time>2022-09-29T13:39:24Z</time>
      </trkpt>
      <trkpt lat="44.40795" lon="5.22479">
        <ele>649</ele>
        <time>2022-09-29T13:39:25Z</time>
      </trkpt>
      <trkpt lat="44.40795" lon="5.22478">
        <ele>649</ele>
        <time>2022-09-29T13:39:26Z</time>
      </trkpt>
      <trkpt lat="44.40796" lon="5.22476">
        <ele>649</ele>
        <time>2022-09-29T13:39:27Z</time>
      </trkpt>
      <trkpt lat="44.40796" lon="5.22475">
        <ele>649</ele>
        <time>2022-09-29T13:39:28Z</time>
      </trkpt>
      <trkpt lat="44.40797" lon="5.22474">
        <ele>649</ele>
        <time>2022-09-29T13:39:29Z</time>
      </trkpt>
      <trkpt lat="44.40797" lon="5.22473">
        <ele>649</ele>
        <time>2022-09-29T13:39:30Z</time>
      </trkpt>
      <trkpt lat="44.40797" lon="5.22472">
        <ele>649</ele>
        <time>2022-09-29T13:39:31Z</time>
      </trkpt>
      <trkpt lat="44.40798" lon="5.22471">
        <ele>649</ele>
        <time>2022-09-29T13:39:32Z</time>
      </trkpt>
      <trkpt lat="44.40798" lon="5.2247">
        <ele>649</ele>
        <time>2022-09-29T13:39:33Z</time>
      </trkpt>
      <trkpt lat="44.40798" lon="5.22469">
        <ele>649</ele>
        <time>2022-09-29T13:39:34Z</time>
      </trkpt>
      <trkpt lat="44.40798" lon="5.22468">
        <ele>649</ele>
        <time>2022-09-29T13:39:35Z</time>
      </trkpt>
      <trkpt lat="44.40799" lon="5.22466">
        <ele>649</ele>
        <time>2022-09-29T13:39:36Z</time>
      </trkpt>
      <trkpt lat="44.40799" lon="5.22465">
        <ele>649</ele>
        <time>2022-09-29T13:39:37Z</time>
      </trkpt>
      <trkpt lat="44.408" lon="5.22464">
        <ele>649</ele>
        <time>2022-09-29T13:39:38Z</time>
      </trkpt>
      <trkpt lat="44.40801" lon="5.22463">
        <ele>649</ele>
        <time>2022-09-29T13:39:39Z</time>
      </trkpt>
      <trkpt lat="44.40802" lon="5.22461">
        <ele>649</ele>
        <time>2022-09-29T13:39:40Z</time>
      </trkpt>
      <trkpt lat="44.40803" lon="5.2246">
        <ele>649</ele>
        <time>2022-09-29T13:39:41Z</time>
      </trkpt>
      <trkpt lat="44.40803" lon="5.22459">
        <ele>649</ele>
        <time>2022-09-29T13:39:42Z</time>
      </trkpt>
      <trkpt lat="44.40804" lon="5.22458">
        <ele>649</ele>
        <time>2022-09-29T13:39:43Z</time>
      </trkpt>
      <trkpt lat="44.40805" lon="5.22456">
        <ele>649</ele>
        <time>2022-09-29T13:39:44Z</time>
      </trkpt>
      <trkpt lat="44.40805" lon="5.22455">
        <ele>649</ele>
        <time>2022-09-29T13:39:45Z</time>
      </trkpt>
      <trkpt lat="44.40806" lon="5.22455">
        <ele>649</ele>
        <time>2022-09-29T13:39:46Z</time>
      </trkpt>
      <trkpt lat="44.40806" lon="5.22454">
        <ele>649</ele>
        <time>2022-09-29T13:39:47Z</time>
      </trkpt>
      <trkpt lat="44.40807" lon="5.22453">
        <ele>649</ele>
        <time>2022-09-29T13:39:48Z</time>
      </trkpt>
      <trkpt lat="44.40808" lon="5.22452">
        <ele>649</ele>
        <time>2022-09-29T13:39:49Z</time>
      </trkpt>
      <trkpt lat="44.40808" lon="5.22451">
        <ele>649</ele>
        <time>2022-09-29T13:39:50Z</time>
      </trkpt>
      <trkpt lat="44.40809" lon="5.2245">
        <ele>649</ele>
        <time>2022-09-29T13:39:51Z</time>
      </trkpt>
      <trkpt lat="44.4081" lon="5.22449">
        <ele>649</ele>
        <time>2022-09-29T13:39:52Z</time>
      </trkpt>
      <trkpt lat="44.40811" lon="5.22448">
        <ele>649</ele>
        <time>2022-09-29T13:39:53Z</time>
      </trkpt>
      <trkpt lat="44.40811" lon="5.22447">
        <ele>649</ele>
        <time>2022-09-29T13:39:54Z</time>
      </trkpt>
      <trkpt lat="44.40812" lon="5.22446">
        <ele>649</ele>
        <time>2022-09-29T13:39:55Z</time>
      </trkpt>
      <trkpt lat="44.40813" lon="5.22445">
        <ele>649</ele>
        <time>2022-09-29T13:39:56Z</time>
      </trkpt>
      <trkpt lat="44.40814" lon="5.22444">
        <ele>649</ele>
        <time>2022-09-29T13:39:57Z</time>
      </trkpt>
      <trkpt lat="44.40814" lon="5.22444">
        <ele>649</ele>
        <time>2022-09-29T13:39:58Z</time>
      </trkpt>
      <trkpt lat="44.40815" lon="5.22443">
        <ele>649</ele>
        <time>2022-09-29T13:39:59Z</time>
      </trkpt>
      <trkpt lat="44.40816" lon="5.22442">
        <ele>649</ele>
        <time>2022-09-29T13:40:00Z</time>
      </trkpt>
      <trkpt lat="44.40816" lon="5.22441">
        <ele>649</ele>
        <time>2022-09-29T13:40:01Z</time>
      </trkpt>
      <trkpt lat="44.40817" lon="5.2244">
        <ele>649</ele>
        <time>2022-09-29T13:40:02Z</time>
      </trkpt>
      <trkpt lat="44.40818" lon="5.2244">
        <ele>650</ele>
        <time>2022-09-29T13:40:03Z</time>
      </trkpt>
      <trkpt lat="44.40818" lon="5.22439">
        <ele>650</ele>
        <time>2022-09-29T13:40:04Z</time>
      </trkpt>
      <trkpt lat="44.40819" lon="5.22438">
        <ele>650</ele>
        <time>2022-09-29T13:40:05Z</time>
      </trkpt>
      <trkpt lat="44.4082" lon="5.22437">
        <ele>650</ele>
        <time>2022-09-29T13:40:06Z</time>
      </trkpt>
      <trkpt lat="44.40821" lon="5.22436">
        <ele>650</ele>
        <time>2022-09-29T13:40:07Z</time>
      </trkpt>
      <trkpt lat="44.40822" lon="5.22435">
        <ele>650</ele>
        <time>2022-09-29T13:40:08Z</time>
      </trkpt>
      <trkpt lat="44.40823" lon="5.22434">
        <ele>650</ele>
        <time>2022-09-29T13:40:09Z</time>
      </trkpt>
      <trkpt lat="44.40824" lon="5.22433">
        <ele>650</ele>
        <time>2022-09-29T13:40:10Z</time>
      </trkpt>
      <trkpt lat="44.40825" lon="5.22432">
        <ele>650</ele>
        <time>2022-09-29T13:40:11Z</time>
      </trkpt>
      <trkpt lat="44.40826" lon="5.22431">
        <ele>650</ele>
        <time>2022-09-29T13:40:12Z</time>
      </trkpt>
      <trkpt lat="44.40827" lon="5.2243">
        <ele>650</ele>
        <time>2022-09-29T13:40:13Z</time>
      </trkpt>
      <trkpt lat="44.40827" lon="5.2243">
        <ele>650</ele>
        <time>2022-09-29T13:40:14Z</time>
      </trkpt>
      <trkpt lat="44.40828" lon="5.22429">
        <ele>650</ele>
        <time>2022-09-29T13:40:15Z</time>
      </trkpt>
      <trkpt lat="44.40829" lon="5.22428">
        <ele>650</ele>
        <time>2022-09-29T13:40:16Z</time>
      </trkpt>
      <trkpt lat="44.4083" lon="5.22428">
        <ele>650</ele>
        <time>2022-09-29T13:40:17Z</time>
      </trkpt>
      <trkpt lat="44.40831" lon="5.22427">
        <ele>651</ele>
        <time>2022-09-29T13:40:18Z</time>
      </trkpt>
      <trkpt lat="44.40832" lon="5.22427">
        <ele>651</ele>
        <time>2022-09-29T13:40:19Z</time>
      </trkpt>
      <trkpt lat="44.40833" lon="5.22426">
        <ele>651</ele>
        <time>2022-09-29T13:40:20Z</time>
      </trkpt>
      <trkpt lat="44.40834" lon="5.22426">
        <ele>651</ele>
        <time>2022-09-29T13:40:21Z</time>
      </trkpt>
      <trkpt lat="44.40835" lon="5.22425">
        <ele>651</ele>
        <time>2022-09-29T13:40:22Z</time>
      </trkpt>
      <trkpt lat="44.40836" lon="5.22424">
        <ele>651</ele>
        <time>2022-09-29T13:40:23Z</time>
      </trkpt>
      <trkpt lat="44.40837" lon="5.22423">
        <ele>651</ele>
        <time>2022-09-29T13:40:24Z</time>
      </trkpt>
      <trkpt lat="44.40838" lon="5.22422">
        <ele>651</ele>
        <time>2022-09-29T13:40:25Z</time>
      </trkpt>
      <trkpt lat="44.40839" lon="5.22421">
        <ele>651</ele>
        <time>2022-09-29T13:40:26Z</time>
      </trkpt>
      <trkpt lat="44.4084" lon="5.2242">
        <ele>651</ele>
        <time>2022-09-29T13:40:27Z</time>
      </trkpt>
      <trkpt lat="44.40841" lon="5.22419">
        <ele>652</ele>
        <time>2022-09-29T13:40:28Z</time>
      </trkpt>
      <trkpt lat="44.40841" lon="5.22418">
        <ele>652</ele>
        <time>2022-09-29T13:40:29Z</time>
      </trkpt>
      <trkpt lat="44.40842" lon="5.22417">
        <ele>652</ele>
        <time>2022-09-29T13:40:30Z</time>
      </trkpt>
      <trkpt lat="44.40843" lon="5.22416">
        <ele>652</ele>
        <time>2022-09-29T13:40:31Z</time>
      </trkpt>
      <trkpt lat="44.40844" lon="5.22414">
        <ele>652</ele>
        <time>2022-09-29T13:40:32Z</time>
      </trkpt>
      <trkpt lat="44.40844" lon="5.22413">
        <ele>652</ele>
        <time>2022-09-29T13:40:33Z</time>
      </trkpt>
      <trkpt lat="44.40845" lon="5.22412">
        <ele>652</ele>
        <time>2022-09-29T13:40:34Z</time>
      </trkpt>
      <trkpt lat="44.40845" lon="5.22411">
        <ele>652</ele>
        <time>2022-09-29T13:40:35Z</time>
      </trkpt>
      <trkpt lat="44.40846" lon="5.2241">
        <ele>652</ele>
        <time>2022-09-29T13:40:36Z</time>
      </trkpt>
      <trkpt lat="44.40846" lon="5.22409">
        <ele>652</ele>
        <time>2022-09-29T13:40:37Z</time>
      </trkpt>
      <trkpt lat="44.40847" lon="5.22408">
        <ele>652</ele>
        <time>2022-09-29T13:40:38Z</time>
      </trkpt>
      <trkpt lat="44.40847" lon="5.22407">
        <ele>652</ele>
        <time>2022-09-29T13:40:39Z</time>
      </trkpt>
      <trkpt lat="44.40847" lon="5.22406">
        <ele>652</ele>
        <time>2022-09-29T13:40:40Z</time>
      </trkpt>
      <trkpt lat="44.40848" lon="5.22405">
        <ele>652</ele>
        <time>2022-09-29T13:40:41Z</time>
      </trkpt>
      <trkpt lat="44.40848" lon="5.22404">
        <ele>652</ele>
        <time>2022-09-29T13:40:42Z</time>
      </trkpt>
      <trkpt lat="44.40848" lon="5.22403">
        <ele>653</ele>
        <time>2022-09-29T13:40:43Z</time>
      </trkpt>
      <trkpt lat="44.40848" lon="5.22402">
        <ele>653</ele>
        <time>2022-09-29T13:40:44Z</time>
      </trkpt>
      <trkpt lat="44.40848" lon="5.22401">
        <ele>653</ele>
        <time>2022-09-29T13:40:45Z</time>
      </trkpt>
      <trkpt lat="44.40848" lon="5.22399">
        <ele>653</ele>
        <time>2022-09-29T13:40:46Z</time>
      </trkpt>
      <trkpt lat="44.40848" lon="5.22398">
        <ele>653</ele>
        <time>2022-09-29T13:40:47Z</time>
      </trkpt>
      <trkpt lat="44.40848" lon="5.22397">
        <ele>653</ele>
        <time>2022-09-29T13:40:48Z</time>
      </trkpt>
      <trkpt lat="44.40848" lon="5.22395">
        <ele>653</ele>
        <time>2022-09-29T13:40:49Z</time>
      </trkpt>
      <trkpt lat="44.40848" lon="5.22394">
        <ele>653</ele>
        <time>2022-09-29T13:40:50Z</time>
      </trkpt>
      <trkpt lat="44.40848" lon="5.22393">
        <ele>653</ele>
        <time>2022-09-29T13:40:51Z</time>
      </trkpt>
      <trkpt lat="44.40848" lon="5.22392">
        <ele>653</ele>
        <time>2022-09-29T13:40:52Z</time>
      </trkpt>
      <trkpt lat="44.40848" lon="5.22391">
        <ele>653</ele>
        <time>2022-09-29T13:40:53Z</time>
      </trkpt>
      <trkpt lat="44.40848" lon="5.22389">
        <ele>653</ele>
        <time>2022-09-29T13:40:54Z</time>
      </trkpt>
      <trkpt lat="44.40847" lon="5.22388">
        <ele>653</ele>
        <time>2022-09-29T13:40:55Z</time>
      </trkpt>
      <trkpt lat="44.40847" lon="5.22387">
        <ele>653</ele>
        <time>2022-09-29T13:40:56Z</time>
      </trkpt>
      <trkpt lat="44.40847" lon="5.22385">
        <ele>653</ele>
        <time>2022-09-29T13:40:57Z</time>
      </trkpt>
      <trkpt lat="44.40847" lon="5.22384">
        <ele>654</ele>
        <time>2022-09-29T13:40:58Z</time>
      </trkpt>
      <trkpt lat="44.40847" lon="5.22383">
        <ele>654</ele>
        <time>2022-09-29T13:40:59Z</time>
      </trkpt>
      <trkpt lat="44.40847" lon="5.22382">
        <ele>654</ele>
        <time>2022-09-29T13:41:00Z</time>
      </trkpt>
      <trkpt lat="44.40847" lon="5.2238">
        <ele>654</ele>
        <time>2022-09-29T13:41:01Z</time>
      </trkpt>
      <trkpt lat="44.40846" lon="5.22379">
        <ele>654</ele>
        <time>2022-09-29T13:41:02Z</time>
      </trkpt>
      <trkpt lat="44.40846" lon="5.22378">
        <ele>654</ele>
        <time>2022-09-29T13:41:03Z</time>
      </trkpt>
      <trkpt lat="44.40846" lon="5.22377">
        <ele>654</ele>
        <time>2022-09-29T13:41:04Z</time>
      </trkpt>
      <trkpt lat="44.40846" lon="5.22375">
        <ele>654</ele>
        <time>2022-09-29T13:41:05Z</time>
      </trkpt>
      <trkpt lat="44.40846" lon="5.22374">
        <ele>654</ele>
        <time>2022-09-29T13:41:06Z</time>
      </trkpt>
      <trkpt lat="44.40846" lon="5.22373">
        <ele>654</ele>
        <time>2022-09-29T13:41:07Z</time>
      </trkpt>
      <trkpt lat="44.40846" lon="5.22371">
        <ele>654</ele>
        <time>2022-09-29T13:41:08Z</time>
      </trkpt>
      <trkpt lat="44.40846" lon="5.2237">
        <ele>654</ele>
        <time>2022-09-29T13:41:09Z</time>
      </trkpt>
      <trkpt lat="44.40846" lon="5.22368">
        <ele>654</ele>
        <time>2022-09-29T13:41:10Z</time>
      </trkpt>
      <trkpt lat="44.40847" lon="5.22367">
        <ele>654</ele>
        <time>2022-09-29T13:41:11Z</time>
      </trkpt>
      <trkpt lat="44.40847" lon="5.22366">
        <ele>654</ele>
        <time>2022-09-29T13:41:12Z</time>
      </trkpt>
      <trkpt lat="44.40847" lon="5.22364">
        <ele>655</ele>
        <time>2022-09-29T13:41:13Z</time>
      </trkpt>
      <trkpt lat="44.40847" lon="5.22363">
        <ele>655</ele>
        <time>2022-09-29T13:41:14Z</time>
      </trkpt>
      <trkpt lat="44.40847" lon="5.22361">
        <ele>655</ele>
        <time>2022-09-29T13:41:15Z</time>
      </trkpt>
      <trkpt lat="44.40848" lon="5.22359">
        <ele>655</ele>
        <time>2022-09-29T13:41:16Z</time>
      </trkpt>
      <trkpt lat="44.40848" lon="5.22358">
        <ele>655</ele>
        <time>2022-09-29T13:41:17Z</time>
      </trkpt>
      <trkpt lat="44.40848" lon="5.22356">
        <ele>655</ele>
        <time>2022-09-29T13:41:18Z</time>
      </trkpt>
      <trkpt lat="44.40848" lon="5.22355">
        <ele>655</ele>
        <time>2022-09-29T13:41:19Z</time>
      </trkpt>
      <trkpt lat="44.40848" lon="5.22353">
        <ele>655</ele>
        <time>2022-09-29T13:41:20Z</time>
      </trkpt>
      <trkpt lat="44.40849" lon="5.22352">
        <ele>655</ele>
        <time>2022-09-29T13:41:21Z</time>
      </trkpt>
      <trkpt lat="44.40849" lon="5.2235">
        <ele>655</ele>
        <time>2022-09-29T13:41:22Z</time>
      </trkpt>
      <trkpt lat="44.40849" lon="5.22349">
        <ele>655</ele>
        <time>2022-09-29T13:41:23Z</time>
      </trkpt>
      <trkpt lat="44.40849" lon="5.22347">
        <ele>655</ele>
        <time>2022-09-29T13:41:24Z</time>
      </trkpt>
      <trkpt lat="44.40849" lon="5.22346">
        <ele>655</ele>
        <time>2022-09-29T13:41:25Z</time>
      </trkpt>
      <trkpt lat="44.4085" lon="5.22344">
        <ele>655</ele>
        <time>2022-09-29T13:41:26Z</time>
      </trkpt>
      <trkpt lat="44.4085" lon="5.22343">
        <ele>655</ele>
        <time>2022-09-29T13:41:27Z</time>
      </trkpt>
      <trkpt lat="44.4085" lon="5.22341">
        <ele>655</ele>
        <time>2022-09-29T13:41:28Z</time>
      </trkpt>
      <trkpt lat="44.4085" lon="5.2234">
        <ele>655</ele>
        <time>2022-09-29T13:41:29Z</time>
      </trkpt>
      <trkpt lat="44.4085" lon="5.22339">
        <ele>655</ele>
        <time>2022-09-29T13:41:30Z</time>
      </trkpt>
      <trkpt lat="44.4085" lon="5.22337">
        <ele>655</ele>
        <time>2022-09-29T13:41:31Z</time>
      </trkpt>
      <trkpt lat="44.4085" lon="5.22336">
        <ele>655</ele>
        <time>2022-09-29T13:41:32Z</time>
      </trkpt>
      <trkpt lat="44.40851" lon="5.22334">
        <ele>656</ele>
        <time>2022-09-29T13:41:33Z</time>
      </trkpt>
      <trkpt lat="44.40851" lon="5.22333">
        <ele>656</ele>
        <time>2022-09-29T13:41:34Z</time>
      </trkpt>
      <trkpt lat="44.40851" lon="5.22332">
        <ele>656</ele>
        <time>2022-09-29T13:41:35Z</time>
      </trkpt>
      <trkpt lat="44.40851" lon="5.2233">
        <ele>656</ele>
        <time>2022-09-29T13:41:36Z</time>
      </trkpt>
      <trkpt lat="44.40851" lon="5.22329">
        <ele>656</ele>
        <time>2022-09-29T13:41:37Z</time>
      </trkpt>
      <trkpt lat="44.40851" lon="5.22328">
        <ele>656</ele>
        <time>2022-09-29T13:41:38Z</time>
      </trkpt>
      <trkpt lat="44.40851" lon="5.22326">
        <ele>656</ele>
        <time>2022-09-29T13:41:39Z</time>
      </trkpt>
      <trkpt lat="44.40852" lon="5.22325">
        <ele>656</ele>
        <time>2022-09-29T13:41:40Z</time>
      </trkpt>
      <trkpt lat="44.40852" lon="5.22324">
        <ele>656</ele>
        <time>2022-09-29T13:41:41Z</time>
      </trkpt>
      <trkpt lat="44.40852" lon="5.22323">
        <ele>656</ele>
        <time>2022-09-29T13:41:42Z</time>
      </trkpt>
      <trkpt lat="44.40852" lon="5.22322">
        <ele>656</ele>
        <time>2022-09-29T13:41:43Z</time>
      </trkpt>
      <trkpt lat="44.40852" lon="5.2232">
        <ele>656</ele>
        <time>2022-09-29T13:41:44Z</time>
      </trkpt>
      <trkpt lat="44.40852" lon="5.22319">
        <ele>656</ele>
        <time>2022-09-29T13:41:45Z</time>
      </trkpt>
      <trkpt lat="44.40852" lon="5.22318">
        <ele>656</ele>
        <time>2022-09-29T13:41:46Z</time>
      </trkpt>
      <trkpt lat="44.40852" lon="5.22317">
        <ele>656</ele>
        <time>2022-09-29T13:41:47Z</time>
      </trkpt>
      <trkpt lat="44.40852" lon="5.22315">
        <ele>657</ele>
        <time>2022-09-29T13:41:48Z</time>
      </trkpt>
      <trkpt lat="44.40852" lon="5.22314">
        <ele>657</ele>
        <time>2022-09-29T13:41:49Z</time>
      </trkpt>
      <trkpt lat="44.40852" lon="5.22313">
        <ele>657</ele>
        <time>2022-09-29T13:41:50Z</time>
      </trkpt>
      <trkpt lat="44.40853" lon="5.22312">
        <ele>657</ele>
        <time>2022-09-29T13:41:51Z</time>
      </trkpt>
      <trkpt lat="44.40853" lon="5.22311">
        <ele>657</ele>
        <time>2022-09-29T13:41:52Z</time>
      </trkpt>
      <trkpt lat="44.40853" lon="5.22309">
        <ele>657</ele>
        <time>2022-09-29T13:41:53Z</time>
      </trkpt>
      <trkpt lat="44.40853" lon="5.22308">
        <ele>657</ele>
        <time>2022-09-29T13:41:54Z</time>
      </trkpt>
      <trkpt lat="44.40853" lon="5.22307">
        <ele>657</ele>
        <time>2022-09-29T13:41:55Z</time>
      </trkpt>
      <trkpt lat="44.40854" lon="5.22305">
        <ele>657</ele>
        <time>2022-09-29T13:41:56Z</time>
      </trkpt>
      <trkpt lat="44.40854" lon="5.22304">
        <ele>657</ele>
        <time>2022-09-29T13:41:57Z</time>
      </trkpt>
      <trkpt lat="44.40854" lon="5.22303">
        <ele>657</ele>
        <time>2022-09-29T13:41:58Z</time>
      </trkpt>
      <trkpt lat="44.40854" lon="5.22301">
        <ele>657</ele>
        <time>2022-09-29T13:41:59Z</time>
      </trkpt>
      <trkpt lat="44.40854" lon="5.223">
        <ele>657</ele>
        <time>2022-09-29T13:42:00Z</time>
      </trkpt>
      <trkpt lat="44.40854" lon="5.22298">
        <ele>657</ele>
        <time>2022-09-29T13:42:01Z</time>
      </trkpt>
      <trkpt lat="44.40854" lon="5.22297">
        <ele>657</ele>
        <time>2022-09-29T13:42:02Z</time>
      </trkpt>
      <trkpt lat="44.40855" lon="5.22295">
        <ele>657</ele>
        <time>2022-09-29T13:42:03Z</time>
      </trkpt>
      <trkpt lat="44.40855" lon="5.22294">
        <ele>657</ele>
        <time>2022-09-29T13:42:04Z</time>
      </trkpt>
      <trkpt lat="44.40855" lon="5.22292">
        <ele>657</ele>
        <time>2022-09-29T13:42:05Z</time>
      </trkpt>
      <trkpt lat="44.40855" lon="5.2229">
        <ele>657</ele>
        <time>2022-09-29T13:42:06Z</time>
      </trkpt>
      <trkpt lat="44.40855" lon="5.22289">
        <ele>657</ele>
        <time>2022-09-29T13:42:07Z</time>
      </trkpt>
      <trkpt lat="44.40856" lon="5.22287">
        <ele>657</ele>
        <time>2022-09-29T13:42:08Z</time>
      </trkpt>
      <trkpt lat="44.40856" lon="5.22286">
        <ele>657</ele>
        <time>2022-09-29T13:42:09Z</time>
      </trkpt>
      <trkpt lat="44.40856" lon="5.22285">
        <ele>657</ele>
        <time>2022-09-29T13:42:10Z</time>
      </trkpt>
      <trkpt lat="44.40856" lon="5.22283">
        <ele>657</ele>
        <time>2022-09-29T13:42:11Z</time>
      </trkpt>
      <trkpt lat="44.40857" lon="5.22282">
        <ele>657</ele>
        <time>2022-09-29T13:42:12Z</time>
      </trkpt>
      <trkpt lat="44.40857" lon="5.22281">
        <ele>658</ele>
        <time>2022-09-29T13:42:13Z</time>
      </trkpt>
      <trkpt lat="44.40857" lon="5.22279">
        <ele>658</ele>
        <time>2022-09-29T13:42:14Z</time>
      </trkpt>
      <trkpt lat="44.40857" lon="5.22278">
        <ele>658</ele>
        <time>2022-09-29T13:42:15Z</time>
      </trkpt>
      <trkpt lat="44.40857" lon="5.22276">
        <ele>658</ele>
        <time>2022-09-29T13:42:16Z</time>
      </trkpt>
      <trkpt lat="44.40857" lon="5.22275">
        <ele>658</ele>
        <time>2022-09-29T13:42:17Z</time>
      </trkpt>
      <trkpt lat="44.40857" lon="5.22274">
        <ele>658</ele>
        <time>2022-09-29T13:42:18Z</time>
      </trkpt>
      <trkpt lat="44.40857" lon="5.22272">
        <ele>658</ele>
        <time>2022-09-29T13:42:19Z</time>
      </trkpt>
      <trkpt lat="44.40857" lon="5.22271">
        <ele>658</ele>
        <time>2022-09-29T13:42:20Z</time>
      </trkpt>
      <trkpt lat="44.40857" lon="5.22269">
        <ele>658</ele>
        <time>2022-09-29T13:42:21Z</time>
      </trkpt>
      <trkpt lat="44.40857" lon="5.22268">
        <ele>658</ele>
        <time>2022-09-29T13:42:22Z</time>
      </trkpt>
      <trkpt lat="44.40857" lon="5.22267">
        <ele>658</ele>
        <time>2022-09-29T13:42:23Z</time>
      </trkpt>
      <trkpt lat="44.40857" lon="5.22265">
        <ele>658</ele>
        <time>2022-09-29T13:42:24Z</time>
      </trkpt>
      <trkpt lat="44.40857" lon="5.22264">
        <ele>658</ele>
        <time>2022-09-29T13:42:25Z</time>
      </trkpt>
      <trkpt lat="44.40857" lon="5.22263">
        <ele>658</ele>
        <time>2022-09-29T13:42:26Z</time>
      </trkpt>
      <trkpt lat="44.40858" lon="5.22262">
        <ele>658</ele>
        <time>2022-09-29T13:42:27Z</time>
      </trkpt>
      <trkpt lat="44.40858" lon="5.22261">
        <ele>658</ele>
        <time>2022-09-29T13:42:28Z</time>
      </trkpt>
      <trkpt lat="44.40858" lon="5.22259">
        <ele>657</ele>
        <time>2022-09-29T13:42:29Z</time>
      </trkpt>
      <trkpt lat="44.40858" lon="5.22258">
        <ele>657</ele>
        <time>2022-09-29T13:42:30Z</time>
      </trkpt>
      <trkpt lat="44.40858" lon="5.22257">
        <ele>657</ele>
        <time>2022-09-29T13:42:31Z</time>
      </trkpt>
      <trkpt lat="44.40858" lon="5.22256">
        <ele>657</ele>
        <time>2022-09-29T13:42:32Z</time>
      </trkpt>
      <trkpt lat="44.40858" lon="5.22254">
        <ele>657</ele>
        <time>2022-09-29T13:42:33Z</time>
      </trkpt>
      <trkpt lat="44.40859" lon="5.22253">
        <ele>657</ele>
        <time>2022-09-29T13:42:34Z</time>
      </trkpt>
      <trkpt lat="44.40859" lon="5.22252">
        <ele>657</ele>
        <time>2022-09-29T13:42:35Z</time>
      </trkpt>
      <trkpt lat="44.40859" lon="5.22251">
        <ele>657</ele>
        <time>2022-09-29T13:42:36Z</time>
      </trkpt>
      <trkpt lat="44.40859" lon="5.22249">
        <ele>657</ele>
        <time>2022-09-29T13:42:37Z</time>
      </trkpt>
      <trkpt lat="44.4086" lon="5.22248">
        <ele>657</ele>
        <time>2022-09-29T13:42:38Z</time>
      </trkpt>
      <trkpt lat="44.4086" lon="5.22247">
        <ele>657</ele>
        <time>2022-09-29T13:42:39Z</time>
      </trkpt>
      <trkpt lat="44.4086" lon="5.22246">
        <ele>657</ele>
        <time>2022-09-29T13:42:40Z</time>
      </trkpt>
      <trkpt lat="44.4086" lon="5.22245">
        <ele>657</ele>
        <time>2022-09-29T13:42:41Z</time>
      </trkpt>
      <trkpt lat="44.40861" lon="5.22244">
        <ele>657</ele>
        <time>2022-09-29T13:42:42Z</time>
      </trkpt>
      <trkpt lat="44.40861" lon="5.22243">
        <ele>657</ele>
        <time>2022-09-29T13:42:43Z</time>
      </trkpt>
      <trkpt lat="44.40861" lon="5.22242">
        <ele>656</ele>
        <time>2022-09-29T13:42:44Z</time>
      </trkpt>
      <trkpt lat="44.40861" lon="5.22241">
        <ele>656</ele>
        <time>2022-09-29T13:42:45Z</time>
      </trkpt>
      <trkpt lat="44.40861" lon="5.22239">
        <ele>656</ele>
        <time>2022-09-29T13:42:46Z</time>
      </trkpt>
      <trkpt lat="44.40861" lon="5.22238">
        <ele>656</ele>
        <time>2022-09-29T13:42:47Z</time>
      </trkpt>
      <trkpt lat="44.40861" lon="5.22237">
        <ele>656</ele>
        <time>2022-09-29T13:42:48Z</time>
      </trkpt>
      <trkpt lat="44.40861" lon="5.22236">
        <ele>656</ele>
        <time>2022-09-29T13:42:49Z</time>
      </trkpt>
      <trkpt lat="44.40861" lon="5.22235">
        <ele>656</ele>
        <time>2022-09-29T13:42:50Z</time>
      </trkpt>
      <trkpt lat="44.40861" lon="5.22234">
        <ele>656</ele>
        <time>2022-09-29T13:42:51Z</time>
      </trkpt>
      <trkpt lat="44.40861" lon="5.22233">
        <ele>656</ele>
        <time>2022-09-29T13:42:52Z</time>
      </trkpt>
      <trkpt lat="44.40861" lon="5.22231">
        <ele>656</ele>
        <time>2022-09-29T13:42:53Z</time>
      </trkpt>
      <trkpt lat="44.40861" lon="5.2223">
        <ele>655</ele>
        <time>2022-09-29T13:42:54Z</time>
      </trkpt>
      <trkpt lat="44.40861" lon="5.22229">
        <ele>655</ele>
        <time>2022-09-29T13:42:55Z</time>
      </trkpt>
      <trkpt lat="44.40861" lon="5.22228">
        <ele>655</ele>
        <time>2022-09-29T13:42:56Z</time>
      </trkpt>
      <trkpt lat="44.40861" lon="5.22226">
        <ele>655</ele>
        <time>2022-09-29T13:42:57Z</time>
      </trkpt>
      <trkpt lat="44.40861" lon="5.22225">
        <ele>655</ele>
        <time>2022-09-29T13:42:58Z</time>
      </trkpt>
      <trkpt lat="44.40861" lon="5.22224">
        <ele>655</ele>
        <time>2022-09-29T13:42:59Z</time>
      </trkpt>
      <trkpt lat="44.40861" lon="5.22223">
        <ele>655</ele>
        <time>2022-09-29T13:43:00Z</time>
      </trkpt>
      <trkpt lat="44.40861" lon="5.22222">
        <ele>655</ele>
        <time>2022-09-29T13:43:01Z</time>
      </trkpt>
      <trkpt lat="44.40861" lon="5.22221">
        <ele>655</ele>
        <time>2022-09-29T13:43:02Z</time>
      </trkpt>
      <trkpt lat="44.40861" lon="5.22219">
        <ele>655</ele>
        <time>2022-09-29T13:43:03Z</time>
      </trkpt>
      <trkpt lat="44.40861" lon="5.22218">
        <ele>655</ele>
        <time>2022-09-29T13:43:04Z</time>
      </trkpt>
      <trkpt lat="44.40862" lon="5.22217">
        <ele>655</ele>
        <time>2022-09-29T13:43:05Z</time>
      </trkpt>
      <trkpt lat="44.40862" lon="5.22216">
        <ele>655</ele>
        <time>2022-09-29T13:43:06Z</time>
      </trkpt>
      <trkpt lat="44.40862" lon="5.22215">
        <ele>655</ele>
        <time>2022-09-29T13:43:07Z</time>
      </trkpt>
      <trkpt lat="44.40862" lon="5.22214">
        <ele>655</ele>
        <time>2022-09-29T13:43:08Z</time>
      </trkpt>
      <trkpt lat="44.40862" lon="5.22213">
        <ele>654</ele>
        <time>2022-09-29T13:43:09Z</time>
      </trkpt>
      <trkpt lat="44.40862" lon="5.22212">
        <ele>654</ele>
        <time>2022-09-29T13:43:10Z</time>
      </trkpt>
      <trkpt lat="44.40863" lon="5.22212">
        <ele>654</ele>
        <time>2022-09-29T13:43:11Z</time>
      </trkpt>
      <trkpt lat="44.40862" lon="5.22209">
        <ele>654</ele>
        <time>2022-09-29T13:48:44Z</time>
      </trkpt>
      <trkpt lat="44.40862" lon="5.22207">
        <ele>654</ele>
        <time>2022-09-29T13:48:45Z</time>
      </trkpt>
      <trkpt lat="44.40862" lon="5.22205">
        <ele>654</ele>
        <time>2022-09-29T13:48:46Z</time>
      </trkpt>
      <trkpt lat="44.40861" lon="5.22204">
        <ele>654</ele>
        <time>2022-09-29T13:48:47Z</time>
      </trkpt>
      <trkpt lat="44.40861" lon="5.22203">
        <ele>654</ele>
        <time>2022-09-29T13:48:48Z</time>
      </trkpt>
      <trkpt lat="44.4086" lon="5.22202">
        <ele>654</ele>
        <time>2022-09-29T13:48:49Z</time>
      </trkpt>
      <trkpt lat="44.4086" lon="5.22201">
        <ele>654</ele>
        <time>2022-09-29T13:48:50Z</time>
      </trkpt>
      <trkpt lat="44.40859" lon="5.22201">
        <ele>654</ele>
        <time>2022-09-29T13:48:51Z</time>
      </trkpt>
      <trkpt lat="44.40859" lon="5.222">
        <ele>654</ele>
        <time>2022-09-29T13:48:52Z</time>
      </trkpt>
      <trkpt lat="44.40859" lon="5.22199">
        <ele>654</ele>
        <time>2022-09-29T13:48:53Z</time>
      </trkpt>
      <trkpt lat="44.40858" lon="5.22198">
        <ele>654</ele>
        <time>2022-09-29T13:48:54Z</time>
      </trkpt>
      <trkpt lat="44.40858" lon="5.22197">
        <ele>654</ele>
        <time>2022-09-29T13:48:55Z</time>
      </trkpt>
      <trkpt lat="44.40858" lon="5.22197">
        <ele>654</ele>
        <time>2022-09-29T13:48:56Z</time>
      </trkpt>
      <trkpt lat="44.40857" lon="5.22196">
        <ele>654</ele>
        <time>2022-09-29T13:48:57Z</time>
      </trkpt>
      <trkpt lat="44.40857" lon="5.22196">
        <ele>654</ele>
        <time>2022-09-29T13:48:58Z</time>
      </trkpt>
      <trkpt lat="44.40856" lon="5.22195">
        <ele>654</ele>
        <time>2022-09-29T13:48:59Z</time>
      </trkpt>
      <trkpt lat="44.40856" lon="5.22194">
        <ele>654</ele>
        <time>2022-09-29T13:49:00Z</time>
      </trkpt>
      <trkpt lat="44.40855" lon="5.22194">
        <ele>654</ele>
        <time>2022-09-29T13:49:01Z</time>
      </trkpt>
      <trkpt lat="44.40855" lon="5.22193">
        <ele>654</ele>
        <time>2022-09-29T13:49:02Z</time>
      </trkpt>
      <trkpt lat="44.40854" lon="5.22193">
        <ele>654</ele>
        <time>2022-09-29T13:49:03Z</time>
      </trkpt>
      <trkpt lat="44.40854" lon="5.22192">
        <ele>653</ele>
        <time>2022-09-29T13:49:04Z</time>
      </trkpt>
      <trkpt lat="44.40853" lon="5.22191">
        <ele>653</ele>
        <time>2022-09-29T13:49:05Z</time>
      </trkpt>
      <trkpt lat="44.40853" lon="5.22191">
        <ele>653</ele>
        <time>2022-09-29T13:49:06Z</time>
      </trkpt>
      <trkpt lat="44.40852" lon="5.2219">
        <ele>653</ele>
        <time>2022-09-29T13:49:07Z</time>
      </trkpt>
      <trkpt lat="44.40851" lon="5.22189">
        <ele>653</ele>
        <time>2022-09-29T13:49:08Z</time>
      </trkpt>
      <trkpt lat="44.40851" lon="5.22188">
        <ele>653</ele>
        <time>2022-09-29T13:49:09Z</time>
      </trkpt>
      <trkpt lat="44.4085" lon="5.22187">
        <ele>653</ele>
        <time>2022-09-29T13:49:10Z</time>
      </trkpt>
      <trkpt lat="44.40849" lon="5.22186">
        <ele>653</ele>
        <time>2022-09-29T13:49:11Z</time>
      </trkpt>
      <trkpt lat="44.40849" lon="5.22185">
        <ele>653</ele>
        <time>2022-09-29T13:49:12Z</time>
      </trkpt>
      <trkpt lat="44.40848" lon="5.22184">
        <ele>653</ele>
        <time>2022-09-29T13:49:13Z</time>
      </trkpt>
      <trkpt lat="44.40847" lon="5.22183">
        <ele>652</ele>
        <time>2022-09-29T13:49:14Z</time>
      </trkpt>
      <trkpt lat="44.40847" lon="5.22182">
        <ele>652</ele>
        <time>2022-09-29T13:49:15Z</time>
      </trkpt>
      <trkpt lat="44.40846" lon="5.22181">
        <ele>652</ele>
        <time>2022-09-29T13:49:16Z</time>
      </trkpt>
      <trkpt lat="44.40846" lon="5.2218">
        <ele>652</ele>
        <time>2022-09-29T13:49:17Z</time>
      </trkpt>
      <trkpt lat="44.40845" lon="5.22178">
        <ele>652</ele>
        <time>2022-09-29T13:49:18Z</time>
      </trkpt>
      <trkpt lat="44.40845" lon="5.22177">
        <ele>652</ele>
        <time>2022-09-29T13:49:19Z</time>
      </trkpt>
      <trkpt lat="44.40844" lon="5.22176">
        <ele>652</ele>
        <time>2022-09-29T13:49:20Z</time>
      </trkpt>
      <trkpt lat="44.40843" lon="5.22175">
        <ele>652</ele>
        <time>2022-09-29T13:49:21Z</time>
      </trkpt>
      <trkpt lat="44.40843" lon="5.22174">
        <ele>652</ele>
        <time>2022-09-29T13:49:22Z</time>
      </trkpt>
      <trkpt lat="44.40842" lon="5.22173">
        <ele>652</ele>
        <time>2022-09-29T13:49:23Z</time>
      </trkpt>
      <trkpt lat="44.40842" lon="5.22172">
        <ele>651</ele>
        <time>2022-09-29T13:49:24Z</time>
      </trkpt>
      <trkpt lat="44.40841" lon="5.22171">
        <ele>651</ele>
        <time>2022-09-29T13:49:25Z</time>
      </trkpt>
      <trkpt lat="44.4084" lon="5.2217">
        <ele>651</ele>
        <time>2022-09-29T13:49:26Z</time>
      </trkpt>
      <trkpt lat="44.4084" lon="5.22169">
        <ele>651</ele>
        <time>2022-09-29T13:49:27Z</time>
      </trkpt>
      <trkpt lat="44.40839" lon="5.22168">
        <ele>651</ele>
        <time>2022-09-29T13:49:28Z</time>
      </trkpt>
      <trkpt lat="44.40838" lon="5.22168">
        <ele>651</ele>
        <time>2022-09-29T13:49:29Z</time>
      </trkpt>
      <trkpt lat="44.40837" lon="5.22167">
        <ele>651</ele>
        <time>2022-09-29T13:49:30Z</time>
      </trkpt>
      <trkpt lat="44.40837" lon="5.22166">
        <ele>651</ele>
        <time>2022-09-29T13:49:31Z</time>
      </trkpt>
      <trkpt lat="44.40836" lon="5.22166">
        <ele>651</ele>
        <time>2022-09-29T13:49:32Z</time>
      </trkpt>
      <trkpt lat="44.40836" lon="5.22165">
        <ele>651</ele>
        <time>2022-09-29T13:49:33Z</time>
      </trkpt>
      <trkpt lat="44.40835" lon="5.22164">
        <ele>651</ele>
        <time>2022-09-29T13:49:34Z</time>
      </trkpt>
      <trkpt lat="44.40834" lon="5.22164">
        <ele>651</ele>
        <time>2022-09-29T13:49:35Z</time>
      </trkpt>
      <trkpt lat="44.40834" lon="5.22163">
        <ele>651</ele>
        <time>2022-09-29T13:49:36Z</time>
      </trkpt>
      <trkpt lat="44.40833" lon="5.22163">
        <ele>651</ele>
        <time>2022-09-29T13:49:37Z</time>
      </trkpt>
      <trkpt lat="44.40832" lon="5.22163">
        <ele>651</ele>
        <time>2022-09-29T13:49:38Z</time>
      </trkpt>
      <trkpt lat="44.40833" lon="5.22163">
        <ele>651</ele>
        <time>2022-09-29T13:50:06Z</time>
      </trkpt>
      <trkpt lat="44.40833" lon="5.22163">
        <ele>651</ele>
        <time>2022-09-29T13:50:07Z</time>
      </trkpt>
      <trkpt lat="44.40833" lon="5.22163">
        <ele>651</ele>
        <time>2022-09-29T13:50:08Z</time>
      </trkpt>
      <trkpt lat="44.40832" lon="5.22163">
        <ele>651</ele>
        <time>2022-09-29T13:50:09Z</time>
      </trkpt>
      <trkpt lat="44.40832" lon="5.22163">
        <ele>651</ele>
        <time>2022-09-29T13:50:10Z</time>
      </trkpt>
      <trkpt lat="44.40831" lon="5.22162">
        <ele>651</ele>
        <time>2022-09-29T13:50:11Z</time>
      </trkpt>
      <trkpt lat="44.40831" lon="5.22161">
        <ele>651</ele>
        <time>2022-09-29T13:50:12Z</time>
      </trkpt>
      <trkpt lat="44.4083" lon="5.2216">
        <ele>651</ele>
        <time>2022-09-29T13:50:13Z</time>
      </trkpt>
      <trkpt lat="44.40829" lon="5.2216">
        <ele>651</ele>
        <time>2022-09-29T13:50:14Z</time>
      </trkpt>
      <trkpt lat="44.40828" lon="5.22159">
        <ele>651</ele>
        <time>2022-09-29T13:50:15Z</time>
      </trkpt>
      <trkpt lat="44.40827" lon="5.22158">
        <ele>651</ele>
        <time>2022-09-29T13:50:16Z</time>
      </trkpt>
      <trkpt lat="44.40826" lon="5.22157">
        <ele>651</ele>
        <time>2022-09-29T13:50:17Z</time>
      </trkpt>
      <trkpt lat="44.40825" lon="5.22156">
        <ele>651</ele>
        <time>2022-09-29T13:50:18Z</time>
      </trkpt>
      <trkpt lat="44.40824" lon="5.22155">
        <ele>651</ele>
        <time>2022-09-29T13:50:19Z</time>
      </trkpt>
      <trkpt lat="44.40823" lon="5.22154">
        <ele>651</ele>
        <time>2022-09-29T13:50:20Z</time>
      </trkpt>
      <trkpt lat="44.40822" lon="5.22153">
        <ele>651</ele>
        <time>2022-09-29T13:50:21Z</time>
      </trkpt>
      <trkpt lat="44.40821" lon="5.22152">
        <ele>651</ele>
        <time>2022-09-29T13:50:22Z</time>
      </trkpt>
      <trkpt lat="44.4082" lon="5.22151">
        <ele>651</ele>
        <time>2022-09-29T13:50:23Z</time>
      </trkpt>
      <trkpt lat="44.40819" lon="5.22151">
        <ele>651</ele>
        <time>2022-09-29T13:50:24Z</time>
      </trkpt>
      <trkpt lat="44.40818" lon="5.2215">
        <ele>651</ele>
        <time>2022-09-29T13:50:25Z</time>
      </trkpt>
      <trkpt lat="44.40817" lon="5.22149">
        <ele>651</ele>
        <time>2022-09-29T13:50:26Z</time>
      </trkpt>
      <trkpt lat="44.40816" lon="5.22148">
        <ele>651</ele>
        <time>2022-09-29T13:50:27Z</time>
      </trkpt>
      <trkpt lat="44.40815" lon="5.22147">
        <ele>651</ele>
        <time>2022-09-29T13:50:28Z</time>
      </trkpt>
      <trkpt lat="44.40814" lon="5.22146">
        <ele>651</ele>
        <time>2022-09-29T13:50:29Z</time>
      </trkpt>
      <trkpt lat="44.40813" lon="5.22145">
        <ele>651</ele>
        <time>2022-09-29T13:50:30Z</time>
      </trkpt>
      <trkpt lat="44.40812" lon="5.22144">
        <ele>651</ele>
        <time>2022-09-29T13:50:31Z</time>
      </trkpt>
      <trkpt lat="44.40811" lon="5.22143">
        <ele>651</ele>
        <time>2022-09-29T13:50:32Z</time>
      </trkpt>
      <trkpt lat="44.4081" lon="5.22142">
        <ele>651</ele>
        <time>2022-09-29T13:50:33Z</time>
      </trkpt>
      <trkpt lat="44.40809" lon="5.22141">
        <ele>651</ele>
        <time>2022-09-29T13:50:34Z</time>
      </trkpt>
      <trkpt lat="44.40808" lon="5.2214">
        <ele>651</ele>
        <time>2022-09-29T13:50:35Z</time>
      </trkpt>
      <trkpt lat="44.40807" lon="5.2214">
        <ele>651</ele>
        <time>2022-09-29T13:50:36Z</time>
      </trkpt>
      <trkpt lat="44.40806" lon="5.22139">
        <ele>651</ele>
        <time>2022-09-29T13:50:37Z</time>
      </trkpt>
      <trkpt lat="44.40805" lon="5.22139">
        <ele>651</ele>
        <time>2022-09-29T13:50:38Z</time>
      </trkpt>
      <trkpt lat="44.40804" lon="5.22138">
        <ele>651</ele>
        <time>2022-09-29T13:50:39Z</time>
      </trkpt>
      <trkpt lat="44.40802" lon="5.22138">
        <ele>651</ele>
        <time>2022-09-29T13:50:40Z</time>
      </trkpt>
      <trkpt lat="44.40801" lon="5.22138">
        <ele>651</ele>
        <time>2022-09-29T13:50:41Z</time>
      </trkpt>
      <trkpt lat="44.408" lon="5.22138">
        <ele>651</ele>
        <time>2022-09-29T13:50:42Z</time>
      </trkpt>
      <trkpt lat="44.408" lon="5.22138">
        <ele>651</ele>
        <time>2022-09-29T13:50:43Z</time>
      </trkpt>
      <trkpt lat="44.408" lon="5.22138">
        <ele>651</ele>
        <time>2022-09-29T13:50:44Z</time>
      </trkpt>
      <trkpt lat="44.408" lon="5.22138">
        <ele>651</ele>
        <time>2022-09-29T13:50:45Z</time>
      </trkpt>
      <trkpt lat="44.40799" lon="5.22138">
        <ele>651</ele>
        <time>2022-09-29T13:50:46Z</time>
      </trkpt>
      <trkpt lat="44.40799" lon="5.22138">
        <ele>651</ele>
        <time>2022-09-29T13:50:47Z</time>
      </trkpt>
      <trkpt lat="44.40798" lon="5.22138">
        <ele>651</ele>
        <time>2022-09-29T13:50:48Z</time>
      </trkpt>
      <trkpt lat="44.40798" lon="5.22137">
        <ele>651</ele>
        <time>2022-09-29T13:50:49Z</time>
      </trkpt>
      <trkpt lat="44.40797" lon="5.22137">
        <ele>651</ele>
        <time>2022-09-29T13:50:50Z</time>
      </trkpt>
      <trkpt lat="44.40796" lon="5.22137">
        <ele>651</ele>
        <time>2022-09-29T13:50:51Z</time>
      </trkpt>
      <trkpt lat="44.40795" lon="5.22137">
        <ele>651</ele>
        <time>2022-09-29T13:50:52Z</time>
      </trkpt>
      <trkpt lat="44.40794" lon="5.22136">
        <ele>651</ele>
        <time>2022-09-29T13:50:53Z</time>
      </trkpt>
      <trkpt lat="44.40793" lon="5.22136">
        <ele>651</ele>
        <time>2022-09-29T13:50:54Z</time>
      </trkpt>
      <trkpt lat="44.40792" lon="5.22136">
        <ele>651</ele>
        <time>2022-09-29T13:50:55Z</time>
      </trkpt>
      <trkpt lat="44.40791" lon="5.22137">
        <ele>651</ele>
        <time>2022-09-29T13:50:56Z</time>
      </trkpt>
      <trkpt lat="44.4079" lon="5.22137">
        <ele>651</ele>
        <time>2022-09-29T13:50:57Z</time>
      </trkpt>
      <trkpt lat="44.40789" lon="5.22137">
        <ele>651</ele>
        <time>2022-09-29T13:50:58Z</time>
      </trkpt>
      <trkpt lat="44.40788" lon="5.22137">
        <ele>651</ele>
        <time>2022-09-29T13:50:59Z</time>
      </trkpt>
      <trkpt lat="44.40787" lon="5.22137">
        <ele>651</ele>
        <time>2022-09-29T13:51:00Z</time>
      </trkpt>
      <trkpt lat="44.40786" lon="5.22137">
        <ele>651</ele>
        <time>2022-09-29T13:51:01Z</time>
      </trkpt>
      <trkpt lat="44.40785" lon="5.22137">
        <ele>651</ele>
        <time>2022-09-29T13:51:02Z</time>
      </trkpt>
      <trkpt lat="44.40784" lon="5.22137">
        <ele>651</ele>
        <time>2022-09-29T13:51:03Z</time>
      </trkpt>
      <trkpt lat="44.40783" lon="5.22137">
        <ele>651</ele>
        <time>2022-09-29T13:51:04Z</time>
      </trkpt>
      <trkpt lat="44.40782" lon="5.22137">
        <ele>651</ele>
        <time>2022-09-29T13:51:05Z</time>
      </trkpt>
      <trkpt lat="44.40781" lon="5.22137">
        <ele>651</ele>
        <time>2022-09-29T13:51:06Z</time>
      </trkpt>
      <trkpt lat="44.4078" lon="5.22137">
        <ele>651</ele>
        <time>2022-09-29T13:51:07Z</time>
      </trkpt>
      <trkpt lat="44.40779" lon="5.22138">
        <ele>651</ele>
        <time>2022-09-29T13:51:08Z</time>
      </trkpt>
      <trkpt lat="44.40778" lon="5.22138">
        <ele>651</ele>
        <time>2022-09-29T13:51:09Z</time>
      </trkpt>
      <trkpt lat="44.40777" lon="5.22138">
        <ele>651</ele>
        <time>2022-09-29T13:51:10Z</time>
      </trkpt>
      <trkpt lat="44.40777" lon="5.22139">
        <ele>651</ele>
        <time>2022-09-29T13:51:11Z</time>
      </trkpt>
      <trkpt lat="44.40776" lon="5.22139">
        <ele>651</ele>
        <time>2022-09-29T13:51:12Z</time>
      </trkpt>
      <trkpt lat="44.40775" lon="5.2214">
        <ele>651</ele>
        <time>2022-09-29T13:51:13Z</time>
      </trkpt>
      <trkpt lat="44.40774" lon="5.22141">
        <ele>651</ele>
        <time>2022-09-29T13:51:14Z</time>
      </trkpt>
      <trkpt lat="44.40773" lon="5.22141">
        <ele>651</ele>
        <time>2022-09-29T13:51:15Z</time>
      </trkpt>
      <trkpt lat="44.40773" lon="5.22142">
        <ele>651</ele>
        <time>2022-09-29T13:51:16Z</time>
      </trkpt>
      <trkpt lat="44.40772" lon="5.22143">
        <ele>651</ele>
        <time>2022-09-29T13:51:17Z</time>
      </trkpt>
      <trkpt lat="44.40771" lon="5.22143">
        <ele>651</ele>
        <time>2022-09-29T13:51:18Z</time>
      </trkpt>
      <trkpt lat="44.4077" lon="5.22144">
        <ele>651</ele>
        <time>2022-09-29T13:51:19Z</time>
      </trkpt>
      <trkpt lat="44.40769" lon="5.22145">
        <ele>651</ele>
        <time>2022-09-29T13:51:20Z</time>
      </trkpt>
      <trkpt lat="44.40768" lon="5.22145">
        <ele>651</ele>
        <time>2022-09-29T13:51:21Z</time>
      </trkpt>
      <trkpt lat="44.40767" lon="5.22146">
        <ele>651</ele>
        <time>2022-09-29T13:51:22Z</time>
      </trkpt>
      <trkpt lat="44.40767" lon="5.22147">
        <ele>651</ele>
        <time>2022-09-29T13:51:23Z</time>
      </trkpt>
      <trkpt lat="44.40766" lon="5.22148">
        <ele>651</ele>
        <time>2022-09-29T13:51:24Z</time>
      </trkpt>
      <trkpt lat="44.40766" lon="5.22149">
        <ele>651</ele>
        <time>2022-09-29T13:51:25Z</time>
      </trkpt>
      <trkpt lat="44.40765" lon="5.2215">
        <ele>651</ele>
        <time>2022-09-29T13:51:26Z</time>
      </trkpt>
      <trkpt lat="44.40765" lon="5.22151">
        <ele>651</ele>
        <time>2022-09-29T13:51:27Z</time>
      </trkpt>
      <trkpt lat="44.40764" lon="5.22152">
        <ele>651</ele>
        <time>2022-09-29T13:51:28Z</time>
      </trkpt>
      <trkpt lat="44.40764" lon="5.22153">
        <ele>651</ele>
        <time>2022-09-29T13:51:29Z</time>
      </trkpt>
      <trkpt lat="44.40763" lon="5.22154">
        <ele>651</ele>
        <time>2022-09-29T13:51:30Z</time>
      </trkpt>
      <trkpt lat="44.40762" lon="5.22155">
        <ele>651</ele>
        <time>2022-09-29T13:51:31Z</time>
      </trkpt>
      <trkpt lat="44.40761" lon="5.22155">
        <ele>651</ele>
        <time>2022-09-29T13:51:32Z</time>
      </trkpt>
      <trkpt lat="44.4076" lon="5.22156">
        <ele>651</ele>
        <time>2022-09-29T13:51:33Z</time>
      </trkpt>
      <trkpt lat="44.40759" lon="5.22157">
        <ele>651</ele>
        <time>2022-09-29T13:51:34Z</time>
      </trkpt>
      <trkpt lat="44.40758" lon="5.22159">
        <ele>651</ele>
        <time>2022-09-29T13:51:35Z</time>
      </trkpt>
      <trkpt lat="44.40758" lon="5.2216">
        <ele>651</ele>
        <time>2022-09-29T13:51:36Z</time>
      </trkpt>
      <trkpt lat="44.40757" lon="5.22161">
        <ele>651</ele>
        <time>2022-09-29T13:51:37Z</time>
      </trkpt>
      <trkpt lat="44.40756" lon="5.22162">
        <ele>651</ele>
        <time>2022-09-29T13:51:38Z</time>
      </trkpt>
      <trkpt lat="44.40756" lon="5.22163">
        <ele>651</ele>
        <time>2022-09-29T13:51:39Z</time>
      </trkpt>
      <trkpt lat="44.40755" lon="5.22165">
        <ele>651</ele>
        <time>2022-09-29T13:51:40Z</time>
      </trkpt>
      <trkpt lat="44.40754" lon="5.22165">
        <ele>651</ele>
        <time>2022-09-29T13:51:41Z</time>
      </trkpt>
      <trkpt lat="44.40753" lon="5.22166">
        <ele>651</ele>
        <time>2022-09-29T13:51:42Z</time>
      </trkpt>
      <trkpt lat="44.40752" lon="5.22167">
        <ele>651</ele>
        <time>2022-09-29T13:51:43Z</time>
      </trkpt>
      <trkpt lat="44.40751" lon="5.22167">
        <ele>651</ele>
        <time>2022-09-29T13:51:44Z</time>
      </trkpt>
      <trkpt lat="44.4075" lon="5.22168">
        <ele>651</ele>
        <time>2022-09-29T13:51:45Z</time>
      </trkpt>
      <trkpt lat="44.40749" lon="5.22168">
        <ele>651</ele>
        <time>2022-09-29T13:51:46Z</time>
      </trkpt>
      <trkpt lat="44.40748" lon="5.22169">
        <ele>651</ele>
        <time>2022-09-29T13:51:47Z</time>
      </trkpt>
      <trkpt lat="44.40747" lon="5.22169">
        <ele>651</ele>
        <time>2022-09-29T13:51:48Z</time>
      </trkpt>
      <trkpt lat="44.40746" lon="5.2217">
        <ele>651</ele>
        <time>2022-09-29T13:51:49Z</time>
      </trkpt>
      <trkpt lat="44.40745" lon="5.22171">
        <ele>651</ele>
        <time>2022-09-29T13:51:50Z</time>
      </trkpt>
      <trkpt lat="44.40745" lon="5.22171">
        <ele>651</ele>
        <time>2022-09-29T13:51:51Z</time>
      </trkpt>
      <trkpt lat="44.40744" lon="5.22172">
        <ele>651</ele>
        <time>2022-09-29T13:51:52Z</time>
      </trkpt>
      <trkpt lat="44.40744" lon="5.22173">
        <ele>651</ele>
        <time>2022-09-29T13:51:53Z</time>
      </trkpt>
      <trkpt lat="44.40743" lon="5.22173">
        <ele>651</ele>
        <time>2022-09-29T13:51:54Z</time>
      </trkpt>
      <trkpt lat="44.40742" lon="5.22174">
        <ele>651</ele>
        <time>2022-09-29T13:51:55Z</time>
      </trkpt>
      <trkpt lat="44.40742" lon="5.22175">
        <ele>651</ele>
        <time>2022-09-29T13:51:56Z</time>
      </trkpt>
      <trkpt lat="44.40741" lon="5.22176">
        <ele>651</ele>
        <time>2022-09-29T13:51:57Z</time>
      </trkpt>
      <trkpt lat="44.40741" lon="5.22176">
        <ele>652</ele>
        <time>2022-09-29T13:51:58Z</time>
      </trkpt>
      <trkpt lat="44.4074" lon="5.22177">
        <ele>652</ele>
        <time>2022-09-29T13:51:59Z</time>
      </trkpt>
      <trkpt lat="44.4074" lon="5.22178">
        <ele>652</ele>
        <time>2022-09-29T13:52:00Z</time>
      </trkpt>
      <trkpt lat="44.40739" lon="5.22179">
        <ele>652</ele>
        <time>2022-09-29T13:52:01Z</time>
      </trkpt>
      <trkpt lat="44.40739" lon="5.2218">
        <ele>652</ele>
        <time>2022-09-29T13:52:02Z</time>
      </trkpt>
      <trkpt lat="44.40738" lon="5.22181">
        <ele>653</ele>
        <time>2022-09-29T13:52:03Z</time>
      </trkpt>
      <trkpt lat="44.40737" lon="5.22181">
        <ele>653</ele>
        <time>2022-09-29T13:52:04Z</time>
      </trkpt>
      <trkpt lat="44.40737" lon="5.22182">
        <ele>653</ele>
        <time>2022-09-29T13:52:05Z</time>
      </trkpt>
      <trkpt lat="44.40736" lon="5.22183">
        <ele>653</ele>
        <time>2022-09-29T13:52:06Z</time>
      </trkpt>
      <trkpt lat="44.40735" lon="5.22184">
        <ele>653</ele>
        <time>2022-09-29T13:52:07Z</time>
      </trkpt>
      <trkpt lat="44.40734" lon="5.22185">
        <ele>653</ele>
        <time>2022-09-29T13:52:08Z</time>
      </trkpt>
      <trkpt lat="44.40734" lon="5.22186">
        <ele>653</ele>
        <time>2022-09-29T13:52:09Z</time>
      </trkpt>
      <trkpt lat="44.40733" lon="5.22187">
        <ele>653</ele>
        <time>2022-09-29T13:52:10Z</time>
      </trkpt>
      <trkpt lat="44.40733" lon="5.22188">
        <ele>653</ele>
        <time>2022-09-29T13:52:11Z</time>
      </trkpt>
      <trkpt lat="44.40732" lon="5.2219">
        <ele>653</ele>
        <time>2022-09-29T13:52:12Z</time>
      </trkpt>
      <trkpt lat="44.40732" lon="5.22191">
        <ele>654</ele>
        <time>2022-09-29T13:52:13Z</time>
      </trkpt>
      <trkpt lat="44.40731" lon="5.22192">
        <ele>654</ele>
        <time>2022-09-29T13:52:14Z</time>
      </trkpt>
      <trkpt lat="44.4073" lon="5.22192">
        <ele>654</ele>
        <time>2022-09-29T13:52:15Z</time>
      </trkpt>
      <trkpt lat="44.4073" lon="5.22193">
        <ele>654</ele>
        <time>2022-09-29T13:52:16Z</time>
      </trkpt>
      <trkpt lat="44.40729" lon="5.22194">
        <ele>654</ele>
        <time>2022-09-29T13:52:17Z</time>
      </trkpt>
      <trkpt lat="44.40729" lon="5.22195">
        <ele>654</ele>
        <time>2022-09-29T13:52:18Z</time>
      </trkpt>
      <trkpt lat="44.40728" lon="5.22195">
        <ele>654</ele>
        <time>2022-09-29T13:52:19Z</time>
      </trkpt>
      <trkpt lat="44.40727" lon="5.22196">
        <ele>654</ele>
        <time>2022-09-29T13:52:20Z</time>
      </trkpt>
      <trkpt lat="44.40727" lon="5.22197">
        <ele>654</ele>
        <time>2022-09-29T13:52:21Z</time>
      </trkpt>
      <trkpt lat="44.40726" lon="5.22198">
        <ele>654</ele>
        <time>2022-09-29T13:52:22Z</time>
      </trkpt>
      <trkpt lat="44.40725" lon="5.22199">
        <ele>655</ele>
        <time>2022-09-29T13:52:23Z</time>
      </trkpt>
      <trkpt lat="44.40725" lon="5.222">
        <ele>655</ele>
        <time>2022-09-29T13:52:24Z</time>
      </trkpt>
      <trkpt lat="44.40724" lon="5.22201">
        <ele>655</ele>
        <time>2022-09-29T13:52:25Z</time>
      </trkpt>
      <trkpt lat="44.40723" lon="5.22202">
        <ele>655</ele>
        <time>2022-09-29T13:52:26Z</time>
      </trkpt>
      <trkpt lat="44.40723" lon="5.22203">
        <ele>655</ele>
        <time>2022-09-29T13:52:27Z</time>
      </trkpt>
      <trkpt lat="44.40722" lon="5.22204">
        <ele>656</ele>
        <time>2022-09-29T13:52:28Z</time>
      </trkpt>
      <trkpt lat="44.40722" lon="5.22205">
        <ele>656</ele>
        <time>2022-09-29T13:52:29Z</time>
      </trkpt>
      <trkpt lat="44.40721" lon="5.22206">
        <ele>656</ele>
        <time>2022-09-29T13:52:30Z</time>
      </trkpt>
      <trkpt lat="44.4072" lon="5.22207">
        <ele>656</ele>
        <time>2022-09-29T13:52:31Z</time>
      </trkpt>
      <trkpt lat="44.40719" lon="5.22208">
        <ele>656</ele>
        <time>2022-09-29T13:52:32Z</time>
      </trkpt>
      <trkpt lat="44.40718" lon="5.22209">
        <ele>656</ele>
        <time>2022-09-29T13:52:33Z</time>
      </trkpt>
      <trkpt lat="44.40718" lon="5.2221">
        <ele>656</ele>
        <time>2022-09-29T13:52:34Z</time>
      </trkpt>
      <trkpt lat="44.40717" lon="5.22211">
        <ele>656</ele>
        <time>2022-09-29T13:52:35Z</time>
      </trkpt>
      <trkpt lat="44.40716" lon="5.22212">
        <ele>656</ele>
        <time>2022-09-29T13:52:36Z</time>
      </trkpt>
      <trkpt lat="44.40716" lon="5.22213">
        <ele>656</ele>
        <time>2022-09-29T13:52:37Z</time>
      </trkpt>
      <trkpt lat="44.40715" lon="5.22214">
        <ele>657</ele>
        <time>2022-09-29T13:52:38Z</time>
      </trkpt>
      <trkpt lat="44.40714" lon="5.22215">
        <ele>657</ele>
        <time>2022-09-29T13:52:39Z</time>
      </trkpt>
      <trkpt lat="44.40714" lon="5.22216">
        <ele>657</ele>
        <time>2022-09-29T13:52:40Z</time>
      </trkpt>
      <trkpt lat="44.40713" lon="5.22217">
        <ele>657</ele>
        <time>2022-09-29T13:52:41Z</time>
      </trkpt>
      <trkpt lat="44.40712" lon="5.22217">
        <ele>657</ele>
        <time>2022-09-29T13:52:42Z</time>
      </trkpt>
      <trkpt lat="44.40712" lon="5.22218">
        <ele>658</ele>
        <time>2022-09-29T13:52:43Z</time>
      </trkpt>
      <trkpt lat="44.40711" lon="5.22219">
        <ele>658</ele>
        <time>2022-09-29T13:52:44Z</time>
      </trkpt>
      <trkpt lat="44.4071" lon="5.2222">
        <ele>658</ele>
        <time>2022-09-29T13:52:45Z</time>
      </trkpt>
      <trkpt lat="44.40709" lon="5.22221">
        <ele>658</ele>
        <time>2022-09-29T13:52:46Z</time>
      </trkpt>
      <trkpt lat="44.40708" lon="5.22222">
        <ele>658</ele>
        <time>2022-09-29T13:52:47Z</time>
      </trkpt>
      <trkpt lat="44.40708" lon="5.22222">
        <ele>658</ele>
        <time>2022-09-29T13:52:48Z</time>
      </trkpt>
      <trkpt lat="44.40707" lon="5.22223">
        <ele>658</ele>
        <time>2022-09-29T13:52:49Z</time>
      </trkpt>
      <trkpt lat="44.40706" lon="5.22224">
        <ele>658</ele>
        <time>2022-09-29T13:52:50Z</time>
      </trkpt>
      <trkpt lat="44.40705" lon="5.22224">
        <ele>658</ele>
        <time>2022-09-29T13:52:51Z</time>
      </trkpt>
      <trkpt lat="44.40705" lon="5.22225">
        <ele>658</ele>
        <time>2022-09-29T13:52:52Z</time>
      </trkpt>
      <trkpt lat="44.40704" lon="5.22226">
        <ele>659</ele>
        <time>2022-09-29T13:52:53Z</time>
      </trkpt>
      <trkpt lat="44.40703" lon="5.22227">
        <ele>659</ele>
        <time>2022-09-29T13:52:54Z</time>
      </trkpt>
      <trkpt lat="44.40702" lon="5.22228">
        <ele>659</ele>
        <time>2022-09-29T13:52:55Z</time>
      </trkpt>
      <trkpt lat="44.40702" lon="5.22228">
        <ele>659</ele>
        <time>2022-09-29T13:52:56Z</time>
      </trkpt>
      <trkpt lat="44.40701" lon="5.22229">
        <ele>659</ele>
        <time>2022-09-29T13:52:57Z</time>
      </trkpt>
      <trkpt lat="44.407" lon="5.2223">
        <ele>659</ele>
        <time>2022-09-29T13:52:58Z</time>
      </trkpt>
      <trkpt lat="44.40699" lon="5.22231">
        <ele>659</ele>
        <time>2022-09-29T13:52:59Z</time>
      </trkpt>
      <trkpt lat="44.40699" lon="5.22232">
        <ele>659</ele>
        <time>2022-09-29T13:53:00Z</time>
      </trkpt>
      <trkpt lat="44.40698" lon="5.22233">
        <ele>659</ele>
        <time>2022-09-29T13:53:01Z</time>
      </trkpt>
      <trkpt lat="44.40698" lon="5.22234">
        <ele>659</ele>
        <time>2022-09-29T13:53:02Z</time>
      </trkpt>
      <trkpt lat="44.40697" lon="5.22235">
        <ele>659</ele>
        <time>2022-09-29T13:53:03Z</time>
      </trkpt>
      <trkpt lat="44.40697" lon="5.22236">
        <ele>659</ele>
        <time>2022-09-29T13:53:04Z</time>
      </trkpt>
      <trkpt lat="44.40696" lon="5.22237">
        <ele>659</ele>
        <time>2022-09-29T13:53:05Z</time>
      </trkpt>
      <trkpt lat="44.40695" lon="5.22238">
        <ele>659</ele>
        <time>2022-09-29T13:53:06Z</time>
      </trkpt>
      <trkpt lat="44.40694" lon="5.22239">
        <ele>659</ele>
        <time>2022-09-29T13:53:07Z</time>
      </trkpt>
      <trkpt lat="44.40694" lon="5.2224">
        <ele>660</ele>
        <time>2022-09-29T13:53:08Z</time>
      </trkpt>
      <trkpt lat="44.40693" lon="5.22241">
        <ele>660</ele>
        <time>2022-09-29T13:53:09Z</time>
      </trkpt>
      <trkpt lat="44.40692" lon="5.22242">
        <ele>660</ele>
        <time>2022-09-29T13:53:10Z</time>
      </trkpt>
      <trkpt lat="44.40691" lon="5.22243">
        <ele>660</ele>
        <time>2022-09-29T13:53:11Z</time>
      </trkpt>
      <trkpt lat="44.4069" lon="5.22243">
        <ele>660</ele>
        <time>2022-09-29T13:53:12Z</time>
      </trkpt>
      <trkpt lat="44.40689" lon="5.22244">
        <ele>660</ele>
        <time>2022-09-29T13:53:13Z</time>
      </trkpt>
      <trkpt lat="44.40688" lon="5.22245">
        <ele>660</ele>
        <time>2022-09-29T13:53:14Z</time>
      </trkpt>
      <trkpt lat="44.40687" lon="5.22246">
        <ele>660</ele>
        <time>2022-09-29T13:53:15Z</time>
      </trkpt>
      <trkpt lat="44.40686" lon="5.22246">
        <ele>660</ele>
        <time>2022-09-29T13:53:16Z</time>
      </trkpt>
      <trkpt lat="44.40685" lon="5.22247">
        <ele>660</ele>
        <time>2022-09-29T13:53:17Z</time>
      </trkpt>
      <trkpt lat="44.40684" lon="5.22248">
        <ele>661</ele>
        <time>2022-09-29T13:53:18Z</time>
      </trkpt>
      <trkpt lat="44.40683" lon="5.22248">
        <ele>661</ele>
        <time>2022-09-29T13:53:19Z</time>
      </trkpt>
      <trkpt lat="44.40682" lon="5.22249">
        <ele>661</ele>
        <time>2022-09-29T13:53:20Z</time>
      </trkpt>
      <trkpt lat="44.40681" lon="5.2225">
        <ele>661</ele>
        <time>2022-09-29T13:53:21Z</time>
      </trkpt>
      <trkpt lat="44.4068" lon="5.2225">
        <ele>661</ele>
        <time>2022-09-29T13:53:22Z</time>
      </trkpt>
      <trkpt lat="44.40679" lon="5.22251">
        <ele>661</ele>
        <time>2022-09-29T13:53:23Z</time>
      </trkpt>
      <trkpt lat="44.40678" lon="5.22251">
        <ele>661</ele>
        <time>2022-09-29T13:53:24Z</time>
      </trkpt>
      <trkpt lat="44.40678" lon="5.22252">
        <ele>661</ele>
        <time>2022-09-29T13:53:25Z</time>
      </trkpt>
      <trkpt lat="44.40677" lon="5.22252">
        <ele>661</ele>
        <time>2022-09-29T13:53:26Z</time>
      </trkpt>
      <trkpt lat="44.40676" lon="5.22253">
        <ele>661</ele>
        <time>2022-09-29T13:53:27Z</time>
      </trkpt>
      <trkpt lat="44.40675" lon="5.22253">
        <ele>661</ele>
        <time>2022-09-29T13:53:28Z</time>
      </trkpt>
      <trkpt lat="44.40674" lon="5.22253">
        <ele>661</ele>
        <time>2022-09-29T13:53:29Z</time>
      </trkpt>
      <trkpt lat="44.40673" lon="5.22253">
        <ele>661</ele>
        <time>2022-09-29T13:53:30Z</time>
      </trkpt>
      <trkpt lat="44.40672" lon="5.22253">
        <ele>661</ele>
        <time>2022-09-29T13:53:31Z</time>
      </trkpt>
      <trkpt lat="44.40671" lon="5.22253">
        <ele>661</ele>
        <time>2022-09-29T13:53:32Z</time>
      </trkpt>
      <trkpt lat="44.4067" lon="5.22253">
        <ele>662</ele>
        <time>2022-09-29T13:53:33Z</time>
      </trkpt>
      <trkpt lat="44.40669" lon="5.22253">
        <ele>662</ele>
        <time>2022-09-29T13:53:34Z</time>
      </trkpt>
      <trkpt lat="44.40668" lon="5.22253">
        <ele>662</ele>
        <time>2022-09-29T13:53:35Z</time>
      </trkpt>
      <trkpt lat="44.40667" lon="5.22254">
        <ele>662</ele>
        <time>2022-09-29T13:53:36Z</time>
      </trkpt>
      <trkpt lat="44.40666" lon="5.22254">
        <ele>662</ele>
        <time>2022-09-29T13:53:37Z</time>
      </trkpt>
      <trkpt lat="44.40665" lon="5.22254">
        <ele>662</ele>
        <time>2022-09-29T13:53:38Z</time>
      </trkpt>
      <trkpt lat="44.40665" lon="5.22255">
        <ele>662</ele>
        <time>2022-09-29T13:53:39Z</time>
      </trkpt>
      <trkpt lat="44.40664" lon="5.22255">
        <ele>662</ele>
        <time>2022-09-29T13:53:40Z</time>
      </trkpt>
      <trkpt lat="44.40663" lon="5.22256">
        <ele>662</ele>
        <time>2022-09-29T13:53:41Z</time>
      </trkpt>
      <trkpt lat="44.40662" lon="5.22256">
        <ele>662</ele>
        <time>2022-09-29T13:53:42Z</time>
      </trkpt>
      <trkpt lat="44.40661" lon="5.22257">
        <ele>662</ele>
        <time>2022-09-29T13:53:43Z</time>
      </trkpt>
      <trkpt lat="44.4066" lon="5.22257">
        <ele>662</ele>
        <time>2022-09-29T13:53:44Z</time>
      </trkpt>
      <trkpt lat="44.40659" lon="5.22258">
        <ele>662</ele>
        <time>2022-09-29T13:53:45Z</time>
      </trkpt>
      <trkpt lat="44.40658" lon="5.22258">
        <ele>662</ele>
        <time>2022-09-29T13:53:46Z</time>
      </trkpt>
      <trkpt lat="44.40657" lon="5.22258">
        <ele>662</ele>
        <time>2022-09-29T13:53:47Z</time>
      </trkpt>
      <trkpt lat="44.40656" lon="5.22259">
        <ele>662</ele>
        <time>2022-09-29T13:53:48Z</time>
      </trkpt>
      <trkpt lat="44.40655" lon="5.22259">
        <ele>662</ele>
        <time>2022-09-29T13:53:49Z</time>
      </trkpt>
      <trkpt lat="44.40653" lon="5.22259">
        <ele>662</ele>
        <time>2022-09-29T13:53:50Z</time>
      </trkpt>
      <trkpt lat="44.40652" lon="5.2226">
        <ele>662</ele>
        <time>2022-09-29T13:53:51Z</time>
      </trkpt>
      <trkpt lat="44.40651" lon="5.2226">
        <ele>662</ele>
        <time>2022-09-29T13:53:52Z</time>
      </trkpt>
      <trkpt lat="44.4065" lon="5.2226">
        <ele>662</ele>
        <time>2022-09-29T13:53:53Z</time>
      </trkpt>
      <trkpt lat="44.40649" lon="5.2226">
        <ele>662</ele>
        <time>2022-09-29T13:53:54Z</time>
      </trkpt>
      <trkpt lat="44.40647" lon="5.2226">
        <ele>662</ele>
        <time>2022-09-29T13:53:55Z</time>
      </trkpt>
      <trkpt lat="44.40646" lon="5.2226">
        <ele>662</ele>
        <time>2022-09-29T13:53:56Z</time>
      </trkpt>
      <trkpt lat="44.40645" lon="5.22259">
        <ele>662</ele>
        <time>2022-09-29T13:53:57Z</time>
      </trkpt>
      <trkpt lat="44.40644" lon="5.22259">
        <ele>662</ele>
        <time>2022-09-29T13:53:58Z</time>
      </trkpt>
      <trkpt lat="44.40643" lon="5.22259">
        <ele>662</ele>
        <time>2022-09-29T13:53:59Z</time>
      </trkpt>
      <trkpt lat="44.40642" lon="5.22259">
        <ele>662</ele>
        <time>2022-09-29T13:54:00Z</time>
      </trkpt>
      <trkpt lat="44.40641" lon="5.22258">
        <ele>662</ele>
        <time>2022-09-29T13:54:01Z</time>
      </trkpt>
      <trkpt lat="44.4064" lon="5.22258">
        <ele>662</ele>
        <time>2022-09-29T13:54:02Z</time>
      </trkpt>
      <trkpt lat="44.40638" lon="5.22258">
        <ele>662</ele>
        <time>2022-09-29T13:54:38Z</time>
      </trkpt>
      <trkpt lat="44.40637" lon="5.22257">
        <ele>661</ele>
        <time>2022-09-29T13:54:39Z</time>
      </trkpt>
      <trkpt lat="44.40636" lon="5.22257">
        <ele>661</ele>
        <time>2022-09-29T13:54:40Z</time>
      </trkpt>
      <trkpt lat="44.40635" lon="5.22256">
        <ele>661</ele>
        <time>2022-09-29T13:54:41Z</time>
      </trkpt>
      <trkpt lat="44.40634" lon="5.22256">
        <ele>661</ele>
        <time>2022-09-29T13:54:42Z</time>
      </trkpt>
      <trkpt lat="44.40634" lon="5.22255">
        <ele>661</ele>
        <time>2022-09-29T13:54:43Z</time>
      </trkpt>
      <trkpt lat="44.40633" lon="5.22254">
        <ele>661</ele>
        <time>2022-09-29T13:54:44Z</time>
      </trkpt>
      <trkpt lat="44.40633" lon="5.22254">
        <ele>661</ele>
        <time>2022-09-29T13:54:45Z</time>
      </trkpt>
      <trkpt lat="44.40633" lon="5.22254">
        <ele>661</ele>
        <time>2022-09-29T13:54:46Z</time>
      </trkpt>
      <trkpt lat="44.40632" lon="5.22253">
        <ele>661</ele>
        <time>2022-09-29T13:54:47Z</time>
      </trkpt>
      <trkpt lat="44.40632" lon="5.22253">
        <ele>661</ele>
        <time>2022-09-29T13:54:48Z</time>
      </trkpt>
      <trkpt lat="44.40632" lon="5.22253">
        <ele>661</ele>
        <time>2022-09-29T13:54:49Z</time>
      </trkpt>
      <trkpt lat="44.40631" lon="5.22252">
        <ele>661</ele>
        <time>2022-09-29T13:54:50Z</time>
      </trkpt>
      <trkpt lat="44.40631" lon="5.22252">
        <ele>661</ele>
        <time>2022-09-29T13:54:51Z</time>
      </trkpt>
      <trkpt lat="44.4063" lon="5.22252">
        <ele>661</ele>
        <time>2022-09-29T13:54:52Z</time>
      </trkpt>
      <trkpt lat="44.40629" lon="5.22251">
        <ele>661</ele>
        <time>2022-09-29T13:54:53Z</time>
      </trkpt>
      <trkpt lat="44.40628" lon="5.22251">
        <ele>661</ele>
        <time>2022-09-29T13:54:54Z</time>
      </trkpt>
      <trkpt lat="44.40628" lon="5.2225">
        <ele>661</ele>
        <time>2022-09-29T13:54:55Z</time>
      </trkpt>
      <trkpt lat="44.40627" lon="5.2225">
        <ele>661</ele>
        <time>2022-09-29T13:54:56Z</time>
      </trkpt>
      <trkpt lat="44.40626" lon="5.22249">
        <ele>661</ele>
        <time>2022-09-29T13:54:57Z</time>
      </trkpt>
      <trkpt lat="44.40625" lon="5.22249">
        <ele>661</ele>
        <time>2022-09-29T13:54:58Z</time>
      </trkpt>
      <trkpt lat="44.40625" lon="5.22248">
        <ele>661</ele>
        <time>2022-09-29T13:54:59Z</time>
      </trkpt>
      <trkpt lat="44.40624" lon="5.22248">
        <ele>661</ele>
        <time>2022-09-29T13:55:00Z</time>
      </trkpt>
      <trkpt lat="44.40623" lon="5.22247">
        <ele>661</ele>
        <time>2022-09-29T13:55:01Z</time>
      </trkpt>
      <trkpt lat="44.40623" lon="5.22247">
        <ele>661</ele>
        <time>2022-09-29T13:55:02Z</time>
      </trkpt>
      <trkpt lat="44.40622" lon="5.22246">
        <ele>661</ele>
        <time>2022-09-29T13:55:03Z</time>
      </trkpt>
      <trkpt lat="44.40621" lon="5.22246">
        <ele>660</ele>
        <time>2022-09-29T13:55:04Z</time>
      </trkpt>
      <trkpt lat="44.4062" lon="5.22245">
        <ele>660</ele>
        <time>2022-09-29T13:55:05Z</time>
      </trkpt>
      <trkpt lat="44.40619" lon="5.22244">
        <ele>660</ele>
        <time>2022-09-29T13:55:06Z</time>
      </trkpt>
      <trkpt lat="44.40618" lon="5.22244">
        <ele>660</ele>
        <time>2022-09-29T13:55:07Z</time>
      </trkpt>
      <trkpt lat="44.40616" lon="5.22243">
        <ele>660</ele>
        <time>2022-09-29T13:55:08Z</time>
      </trkpt>
      <trkpt lat="44.40615" lon="5.22242">
        <ele>660</ele>
        <time>2022-09-29T13:55:09Z</time>
      </trkpt>
      <trkpt lat="44.40614" lon="5.22241">
        <ele>660</ele>
        <time>2022-09-29T13:55:10Z</time>
      </trkpt>
      <trkpt lat="44.40613" lon="5.2224">
        <ele>660</ele>
        <time>2022-09-29T13:55:11Z</time>
      </trkpt>
      <trkpt lat="44.40612" lon="5.22239">
        <ele>660</ele>
        <time>2022-09-29T13:55:12Z</time>
      </trkpt>
      <trkpt lat="44.40611" lon="5.22238">
        <ele>660</ele>
        <time>2022-09-29T13:55:13Z</time>
      </trkpt>
      <trkpt lat="44.4061" lon="5.22237">
        <ele>660</ele>
        <time>2022-09-29T13:55:14Z</time>
      </trkpt>
      <trkpt lat="44.40609" lon="5.22236">
        <ele>660</ele>
        <time>2022-09-29T13:55:15Z</time>
      </trkpt>
      <trkpt lat="44.40609" lon="5.22235">
        <ele>660</ele>
        <time>2022-09-29T13:55:16Z</time>
      </trkpt>
      <trkpt lat="44.40608" lon="5.22234">
        <ele>660</ele>
        <time>2022-09-29T13:55:17Z</time>
      </trkpt>
      <trkpt lat="44.40607" lon="5.22233">
        <ele>660</ele>
        <time>2022-09-29T13:55:18Z</time>
      </trkpt>
      <trkpt lat="44.40606" lon="5.22232">
        <ele>659</ele>
        <time>2022-09-29T13:55:19Z</time>
      </trkpt>
      <trkpt lat="44.40605" lon="5.22231">
        <ele>659</ele>
        <time>2022-09-29T13:55:20Z</time>
      </trkpt>
      <trkpt lat="44.40604" lon="5.22231">
        <ele>659</ele>
        <time>2022-09-29T13:55:21Z</time>
      </trkpt>
      <trkpt lat="44.40603" lon="5.2223">
        <ele>659</ele>
        <time>2022-09-29T13:55:22Z</time>
      </trkpt>
      <trkpt lat="44.40602" lon="5.2223">
        <ele>659</ele>
        <time>2022-09-29T13:55:23Z</time>
      </trkpt>
      <trkpt lat="44.40601" lon="5.22229">
        <ele>659</ele>
        <time>2022-09-29T13:55:24Z</time>
      </trkpt>
      <trkpt lat="44.406" lon="5.22228">
        <ele>659</ele>
        <time>2022-09-29T13:55:25Z</time>
      </trkpt>
      <trkpt lat="44.40599" lon="5.22228">
        <ele>659</ele>
        <time>2022-09-29T13:55:26Z</time>
      </trkpt>
      <trkpt lat="44.40598" lon="5.22227">
        <ele>659</ele>
        <time>2022-09-29T13:55:27Z</time>
      </trkpt>
      <trkpt lat="44.40597" lon="5.22227">
        <ele>659</ele>
        <time>2022-09-29T13:55:28Z</time>
      </trkpt>
      <trkpt lat="44.40596" lon="5.22226">
        <ele>658</ele>
        <time>2022-09-29T13:55:29Z</time>
      </trkpt>
      <trkpt lat="44.40595" lon="5.22226">
        <ele>658</ele>
        <time>2022-09-29T13:55:30Z</time>
      </trkpt>
      <trkpt lat="44.40594" lon="5.22225">
        <ele>658</ele>
        <time>2022-09-29T13:55:31Z</time>
      </trkpt>
      <trkpt lat="44.40593" lon="5.22225">
        <ele>658</ele>
        <time>2022-09-29T13:55:32Z</time>
      </trkpt>
      <trkpt lat="44.40592" lon="5.22224">
        <ele>658</ele>
        <time>2022-09-29T13:55:33Z</time>
      </trkpt>
      <trkpt lat="44.4059" lon="5.22223">
        <ele>658</ele>
        <time>2022-09-29T13:55:34Z</time>
      </trkpt>
      <trkpt lat="44.40589" lon="5.22222">
        <ele>658</ele>
        <time>2022-09-29T13:55:35Z</time>
      </trkpt>
      <trkpt lat="44.40588" lon="5.22222">
        <ele>658</ele>
        <time>2022-09-29T13:55:36Z</time>
      </trkpt>
      <trkpt lat="44.40587" lon="5.22221">
        <ele>658</ele>
        <time>2022-09-29T13:55:37Z</time>
      </trkpt>
      <trkpt lat="44.40586" lon="5.2222">
        <ele>658</ele>
        <time>2022-09-29T13:55:38Z</time>
      </trkpt>
      <trkpt lat="44.40585" lon="5.22219">
        <ele>658</ele>
        <time>2022-09-29T13:55:39Z</time>
      </trkpt>
      <trkpt lat="44.40585" lon="5.22218">
        <ele>658</ele>
        <time>2022-09-29T13:55:40Z</time>
      </trkpt>
      <trkpt lat="44.40584" lon="5.22217">
        <ele>658</ele>
        <time>2022-09-29T13:55:41Z</time>
      </trkpt>
      <trkpt lat="44.40583" lon="5.22216">
        <ele>658</ele>
        <time>2022-09-29T13:55:42Z</time>
      </trkpt>
      <trkpt lat="44.40582" lon="5.22215">
        <ele>658</ele>
        <time>2022-09-29T13:55:43Z</time>
      </trkpt>
      <trkpt lat="44.40581" lon="5.22215">
        <ele>657</ele>
        <time>2022-09-29T13:55:44Z</time>
      </trkpt>
      <trkpt lat="44.40581" lon="5.22214">
        <ele>657</ele>
        <time>2022-09-29T13:55:45Z</time>
      </trkpt>
      <trkpt lat="44.4058" lon="5.22214">
        <ele>657</ele>
        <time>2022-09-29T13:55:46Z</time>
      </trkpt>
      <trkpt lat="44.40579" lon="5.22213">
        <ele>657</ele>
        <time>2022-09-29T13:55:47Z</time>
      </trkpt>
      <trkpt lat="44.40578" lon="5.22212">
        <ele>657</ele>
        <time>2022-09-29T13:55:48Z</time>
      </trkpt>
      <trkpt lat="44.40577" lon="5.22212">
        <ele>657</ele>
        <time>2022-09-29T13:55:49Z</time>
      </trkpt>
      <trkpt lat="44.40576" lon="5.22211">
        <ele>657</ele>
        <time>2022-09-29T13:55:50Z</time>
      </trkpt>
      <trkpt lat="44.40575" lon="5.2221">
        <ele>657</ele>
        <time>2022-09-29T13:55:51Z</time>
      </trkpt>
      <trkpt lat="44.40573" lon="5.22209">
        <ele>657</ele>
        <time>2022-09-29T13:55:52Z</time>
      </trkpt>
      <trkpt lat="44.40572" lon="5.22208">
        <ele>657</ele>
        <time>2022-09-29T13:55:53Z</time>
      </trkpt>
      <trkpt lat="44.40571" lon="5.22208">
        <ele>657</ele>
        <time>2022-09-29T13:55:54Z</time>
      </trkpt>
      <trkpt lat="44.4057" lon="5.22207">
        <ele>657</ele>
        <time>2022-09-29T13:55:55Z</time>
      </trkpt>
      <trkpt lat="44.40569" lon="5.22206">
        <ele>657</ele>
        <time>2022-09-29T13:55:56Z</time>
      </trkpt>
      <trkpt lat="44.40568" lon="5.22205">
        <ele>657</ele>
        <time>2022-09-29T13:55:57Z</time>
      </trkpt>
      <trkpt lat="44.40567" lon="5.22205">
        <ele>657</ele>
        <time>2022-09-29T13:55:58Z</time>
      </trkpt>
      <trkpt lat="44.40566" lon="5.22204">
        <ele>657</ele>
        <time>2022-09-29T13:55:59Z</time>
      </trkpt>
      <trkpt lat="44.40565" lon="5.22203">
        <ele>657</ele>
        <time>2022-09-29T13:56:00Z</time>
      </trkpt>
      <trkpt lat="44.40563" lon="5.22202">
        <ele>657</ele>
        <time>2022-09-29T13:56:01Z</time>
      </trkpt>
      <trkpt lat="44.40563" lon="5.22201">
        <ele>657</ele>
        <time>2022-09-29T13:56:02Z</time>
      </trkpt>
      <trkpt lat="44.40562" lon="5.222">
        <ele>657</ele>
        <time>2022-09-29T13:56:03Z</time>
      </trkpt>
      <trkpt lat="44.40561" lon="5.22199">
        <ele>657</ele>
        <time>2022-09-29T13:56:04Z</time>
      </trkpt>
      <trkpt lat="44.4056" lon="5.22198">
        <ele>657</ele>
        <time>2022-09-29T13:56:05Z</time>
      </trkpt>
      <trkpt lat="44.40559" lon="5.22198">
        <ele>657</ele>
        <time>2022-09-29T13:56:06Z</time>
      </trkpt>
      <trkpt lat="44.40559" lon="5.22197">
        <ele>657</ele>
        <time>2022-09-29T13:56:07Z</time>
      </trkpt>
      <trkpt lat="44.40558" lon="5.22196">
        <ele>657</ele>
        <time>2022-09-29T13:56:08Z</time>
      </trkpt>
      <trkpt lat="44.40557" lon="5.22196">
        <ele>657</ele>
        <time>2022-09-29T13:56:09Z</time>
      </trkpt>
      <trkpt lat="44.40556" lon="5.22195">
        <ele>657</ele>
        <time>2022-09-29T13:56:10Z</time>
      </trkpt>
      <trkpt lat="44.40555" lon="5.22195">
        <ele>657</ele>
        <time>2022-09-29T13:56:11Z</time>
      </trkpt>
      <trkpt lat="44.40553" lon="5.22195">
        <ele>657</ele>
        <time>2022-09-29T13:56:12Z</time>
      </trkpt>
      <trkpt lat="44.40552" lon="5.22195">
        <ele>657</ele>
        <time>2022-09-29T13:56:13Z</time>
      </trkpt>
      <trkpt lat="44.40551" lon="5.22194">
        <ele>657</ele>
        <time>2022-09-29T13:56:14Z</time>
      </trkpt>
      <trkpt lat="44.40549" lon="5.22194">
        <ele>657</ele>
        <time>2022-09-29T13:56:15Z</time>
      </trkpt>
      <trkpt lat="44.40548" lon="5.22194">
        <ele>657</ele>
        <time>2022-09-29T13:56:16Z</time>
      </trkpt>
      <trkpt lat="44.40547" lon="5.22193">
        <ele>657</ele>
        <time>2022-09-29T13:56:17Z</time>
      </trkpt>
      <trkpt lat="44.40546" lon="5.22193">
        <ele>657</ele>
        <time>2022-09-29T13:56:18Z</time>
      </trkpt>
      <trkpt lat="44.40545" lon="5.22192">
        <ele>657</ele>
        <time>2022-09-29T13:56:19Z</time>
      </trkpt>
      <trkpt lat="44.40544" lon="5.22191">
        <ele>657</ele>
        <time>2022-09-29T13:56:20Z</time>
      </trkpt>
      <trkpt lat="44.40543" lon="5.22191">
        <ele>657</ele>
        <time>2022-09-29T13:56:21Z</time>
      </trkpt>
      <trkpt lat="44.40542" lon="5.2219">
        <ele>657</ele>
        <time>2022-09-29T13:56:22Z</time>
      </trkpt>
      <trkpt lat="44.40541" lon="5.22189">
        <ele>658</ele>
        <time>2022-09-29T13:56:23Z</time>
      </trkpt>
      <trkpt lat="44.4054" lon="5.22188">
        <ele>658</ele>
        <time>2022-09-29T13:56:24Z</time>
      </trkpt>
      <trkpt lat="44.40539" lon="5.22188">
        <ele>658</ele>
        <time>2022-09-29T13:56:25Z</time>
      </trkpt>
      <trkpt lat="44.40538" lon="5.22187">
        <ele>658</ele>
        <time>2022-09-29T13:56:26Z</time>
      </trkpt>
      <trkpt lat="44.40537" lon="5.22186">
        <ele>658</ele>
        <time>2022-09-29T13:56:27Z</time>
      </trkpt>
      <trkpt lat="44.40536" lon="5.22185">
        <ele>658</ele>
        <time>2022-09-29T13:56:28Z</time>
      </trkpt>
      <trkpt lat="44.40535" lon="5.22184">
        <ele>658</ele>
        <time>2022-09-29T13:56:29Z</time>
      </trkpt>
      <trkpt lat="44.40535" lon="5.22184">
        <ele>658</ele>
        <time>2022-09-29T13:56:30Z</time>
      </trkpt>
      <trkpt lat="44.40534" lon="5.22183">
        <ele>658</ele>
        <time>2022-09-29T13:56:31Z</time>
      </trkpt>
      <trkpt lat="44.40533" lon="5.22183">
        <ele>658</ele>
        <time>2022-09-29T13:56:32Z</time>
      </trkpt>
      <trkpt lat="44.40532" lon="5.22182">
        <ele>658</ele>
        <time>2022-09-29T13:56:33Z</time>
      </trkpt>
      <trkpt lat="44.40531" lon="5.22182">
        <ele>657</ele>
        <time>2022-09-29T13:56:34Z</time>
      </trkpt>
      <trkpt lat="44.4053" lon="5.22182">
        <ele>657</ele>
        <time>2022-09-29T13:56:35Z</time>
      </trkpt>
      <trkpt lat="44.40529" lon="5.22181">
        <ele>657</ele>
        <time>2022-09-29T13:56:36Z</time>
      </trkpt>
      <trkpt lat="44.40528" lon="5.22181">
        <ele>657</ele>
        <time>2022-09-29T13:56:37Z</time>
      </trkpt>
      <trkpt lat="44.40527" lon="5.22181">
        <ele>657</ele>
        <time>2022-09-29T13:56:38Z</time>
      </trkpt>
      <trkpt lat="44.40526" lon="5.2218">
        <ele>657</ele>
        <time>2022-09-29T13:56:39Z</time>
      </trkpt>
      <trkpt lat="44.40525" lon="5.2218">
        <ele>657</ele>
        <time>2022-09-29T13:56:40Z</time>
      </trkpt>
      <trkpt lat="44.40524" lon="5.22179">
        <ele>657</ele>
        <time>2022-09-29T13:56:41Z</time>
      </trkpt>
      <trkpt lat="44.40523" lon="5.22178">
        <ele>657</ele>
        <time>2022-09-29T13:56:42Z</time>
      </trkpt>
      <trkpt lat="44.40522" lon="5.22178">
        <ele>657</ele>
        <time>2022-09-29T13:56:43Z</time>
      </trkpt>
      <trkpt lat="44.40521" lon="5.22177">
        <ele>657</ele>
        <time>2022-09-29T13:56:44Z</time>
      </trkpt>
      <trkpt lat="44.40519" lon="5.22176">
        <ele>657</ele>
        <time>2022-09-29T13:56:45Z</time>
      </trkpt>
      <trkpt lat="44.40518" lon="5.22175">
        <ele>657</ele>
        <time>2022-09-29T13:56:46Z</time>
      </trkpt>
      <trkpt lat="44.40517" lon="5.22175">
        <ele>657</ele>
        <time>2022-09-29T13:56:47Z</time>
      </trkpt>
      <trkpt lat="44.40516" lon="5.22174">
        <ele>657</ele>
        <time>2022-09-29T13:56:48Z</time>
      </trkpt>
      <trkpt lat="44.40516" lon="5.22173">
        <ele>657</ele>
        <time>2022-09-29T13:56:49Z</time>
      </trkpt>
      <trkpt lat="44.40515" lon="5.22173">
        <ele>657</ele>
        <time>2022-09-29T13:56:50Z</time>
      </trkpt>
      <trkpt lat="44.40514" lon="5.22172">
        <ele>657</ele>
        <time>2022-09-29T13:56:51Z</time>
      </trkpt>
      <trkpt lat="44.40513" lon="5.22172">
        <ele>657</ele>
        <time>2022-09-29T13:56:52Z</time>
      </trkpt>
      <trkpt lat="44.40512" lon="5.22171">
        <ele>657</ele>
        <time>2022-09-29T13:56:53Z</time>
      </trkpt>
      <trkpt lat="44.40511" lon="5.2217">
        <ele>657</ele>
        <time>2022-09-29T13:56:54Z</time>
      </trkpt>
      <trkpt lat="44.40509" lon="5.2217">
        <ele>657</ele>
        <time>2022-09-29T13:56:55Z</time>
      </trkpt>
      <trkpt lat="44.40508" lon="5.22169">
        <ele>657</ele>
        <time>2022-09-29T13:56:56Z</time>
      </trkpt>
      <trkpt lat="44.40507" lon="5.22168">
        <ele>657</ele>
        <time>2022-09-29T13:56:57Z</time>
      </trkpt>
      <trkpt lat="44.40506" lon="5.22168">
        <ele>657</ele>
        <time>2022-09-29T13:56:58Z</time>
      </trkpt>
      <trkpt lat="44.40505" lon="5.22167">
        <ele>657</ele>
        <time>2022-09-29T13:56:59Z</time>
      </trkpt>
      <trkpt lat="44.40504" lon="5.22167">
        <ele>657</ele>
        <time>2022-09-29T13:57:00Z</time>
      </trkpt>
      <trkpt lat="44.40503" lon="5.22166">
        <ele>657</ele>
        <time>2022-09-29T13:57:01Z</time>
      </trkpt>
      <trkpt lat="44.40502" lon="5.22165">
        <ele>657</ele>
        <time>2022-09-29T13:57:02Z</time>
      </trkpt>
      <trkpt lat="44.40501" lon="5.22165">
        <ele>657</ele>
        <time>2022-09-29T13:57:03Z</time>
      </trkpt>
      <trkpt lat="44.405" lon="5.22164">
        <ele>657</ele>
        <time>2022-09-29T13:57:04Z</time>
      </trkpt>
      <trkpt lat="44.40499" lon="5.22163">
        <ele>657</ele>
        <time>2022-09-29T13:57:05Z</time>
      </trkpt>
      <trkpt lat="44.40498" lon="5.22163">
        <ele>657</ele>
        <time>2022-09-29T13:57:06Z</time>
      </trkpt>
      <trkpt lat="44.40497" lon="5.22162">
        <ele>657</ele>
        <time>2022-09-29T13:57:07Z</time>
      </trkpt>
      <trkpt lat="44.40495" lon="5.22161">
        <ele>657</ele>
        <time>2022-09-29T13:57:08Z</time>
      </trkpt>
      <trkpt lat="44.40494" lon="5.2216">
        <ele>656</ele>
        <time>2022-09-29T13:57:09Z</time>
      </trkpt>
      <trkpt lat="44.40493" lon="5.2216">
        <ele>656</ele>
        <time>2022-09-29T13:57:10Z</time>
      </trkpt>
      <trkpt lat="44.40492" lon="5.22159">
        <ele>656</ele>
        <time>2022-09-29T13:57:11Z</time>
      </trkpt>
      <trkpt lat="44.40491" lon="5.22158">
        <ele>656</ele>
        <time>2022-09-29T13:57:12Z</time>
      </trkpt>
      <trkpt lat="44.4049" lon="5.22157">
        <ele>656</ele>
        <time>2022-09-29T13:57:13Z</time>
      </trkpt>
      <trkpt lat="44.40489" lon="5.22156">
        <ele>656</ele>
        <time>2022-09-29T13:57:14Z</time>
      </trkpt>
      <trkpt lat="44.40488" lon="5.22155">
        <ele>656</ele>
        <time>2022-09-29T13:57:15Z</time>
      </trkpt>
      <trkpt lat="44.40487" lon="5.22154">
        <ele>656</ele>
        <time>2022-09-29T13:57:16Z</time>
      </trkpt>
      <trkpt lat="44.40487" lon="5.22152">
        <ele>656</ele>
        <time>2022-09-29T13:57:17Z</time>
      </trkpt>
      <trkpt lat="44.40486" lon="5.22151">
        <ele>656</ele>
        <time>2022-09-29T13:57:18Z</time>
      </trkpt>
      <trkpt lat="44.40486" lon="5.2215">
        <ele>656</ele>
        <time>2022-09-29T13:57:19Z</time>
      </trkpt>
      <trkpt lat="44.40485" lon="5.22148">
        <ele>656</ele>
        <time>2022-09-29T13:57:20Z</time>
      </trkpt>
      <trkpt lat="44.40484" lon="5.22147">
        <ele>656</ele>
        <time>2022-09-29T13:57:21Z</time>
      </trkpt>
      <trkpt lat="44.40484" lon="5.22146">
        <ele>656</ele>
        <time>2022-09-29T13:57:22Z</time>
      </trkpt>
      <trkpt lat="44.40483" lon="5.22145">
        <ele>656</ele>
        <time>2022-09-29T13:57:23Z</time>
      </trkpt>
      <trkpt lat="44.40482" lon="5.22144">
        <ele>656</ele>
        <time>2022-09-29T13:57:24Z</time>
      </trkpt>
      <trkpt lat="44.40481" lon="5.22143">
        <ele>656</ele>
        <time>2022-09-29T13:57:25Z</time>
      </trkpt>
      <trkpt lat="44.4048" lon="5.22143">
        <ele>656</ele>
        <time>2022-09-29T13:57:26Z</time>
      </trkpt>
      <trkpt lat="44.40479" lon="5.22142">
        <ele>656</ele>
        <time>2022-09-29T13:57:27Z</time>
      </trkpt>
      <trkpt lat="44.40478" lon="5.22142">
        <ele>656</ele>
        <time>2022-09-29T13:57:28Z</time>
      </trkpt>
      <trkpt lat="44.40478" lon="5.22141">
        <ele>656</ele>
        <time>2022-09-29T13:57:29Z</time>
      </trkpt>
      <trkpt lat="44.40477" lon="5.2214">
        <ele>656</ele>
        <time>2022-09-29T13:57:30Z</time>
      </trkpt>
      <trkpt lat="44.40476" lon="5.22139">
        <ele>656</ele>
        <time>2022-09-29T13:57:31Z</time>
      </trkpt>
      <trkpt lat="44.40475" lon="5.22138">
        <ele>656</ele>
        <time>2022-09-29T13:57:32Z</time>
      </trkpt>
      <trkpt lat="44.40474" lon="5.22138">
        <ele>656</ele>
        <time>2022-09-29T13:57:33Z</time>
      </trkpt>
      <trkpt lat="44.40473" lon="5.22137">
        <ele>656</ele>
        <time>2022-09-29T13:57:34Z</time>
      </trkpt>
      <trkpt lat="44.40473" lon="5.22136">
        <ele>656</ele>
        <time>2022-09-29T13:57:35Z</time>
      </trkpt>
      <trkpt lat="44.40472" lon="5.22135">
        <ele>656</ele>
        <time>2022-09-29T13:57:36Z</time>
      </trkpt>
      <trkpt lat="44.40471" lon="5.22135">
        <ele>656</ele>
        <time>2022-09-29T13:57:37Z</time>
      </trkpt>
      <trkpt lat="44.4047" lon="5.22134">
        <ele>656</ele>
        <time>2022-09-29T13:57:38Z</time>
      </trkpt>
      <trkpt lat="44.40469" lon="5.22133">
        <ele>656</ele>
        <time>2022-09-29T13:57:39Z</time>
      </trkpt>
      <trkpt lat="44.40469" lon="5.22132">
        <ele>656</ele>
        <time>2022-09-29T13:57:40Z</time>
      </trkpt>
      <trkpt lat="44.40468" lon="5.22131">
        <ele>656</ele>
        <time>2022-09-29T13:57:41Z</time>
      </trkpt>
      <trkpt lat="44.40467" lon="5.22131">
        <ele>656</ele>
        <time>2022-09-29T13:57:42Z</time>
      </trkpt>
      <trkpt lat="44.40465" lon="5.22128">
        <ele>656</ele>
        <time>2022-09-29T13:57:50Z</time>
      </trkpt>
      <trkpt lat="44.40465" lon="5.22127">
        <ele>656</ele>
        <time>2022-09-29T13:57:51Z</time>
      </trkpt>
      <trkpt lat="44.40464" lon="5.22127">
        <ele>656</ele>
        <time>2022-09-29T13:57:52Z</time>
      </trkpt>
      <trkpt lat="44.40464" lon="5.22126">
        <ele>656</ele>
        <time>2022-09-29T13:57:53Z</time>
      </trkpt>
      <trkpt lat="44.40463" lon="5.22125">
        <ele>656</ele>
        <time>2022-09-29T13:57:54Z</time>
      </trkpt>
      <trkpt lat="44.40466" lon="5.2212">
        <ele>654</ele>
        <time>2022-09-29T14:03:24Z</time>
      </trkpt>
      <trkpt lat="44.40468" lon="5.22118">
        <ele>654</ele>
        <time>2022-09-29T14:03:25Z</time>
      </trkpt>
      <trkpt lat="44.40469" lon="5.22116">
        <ele>654</ele>
        <time>2022-09-29T14:03:26Z</time>
      </trkpt>
      <trkpt lat="44.4047" lon="5.22115">
        <ele>654</ele>
        <time>2022-09-29T14:03:27Z</time>
      </trkpt>
      <trkpt lat="44.40471" lon="5.22113">
        <ele>654</ele>
        <time>2022-09-29T14:03:28Z</time>
      </trkpt>
      <trkpt lat="44.40472" lon="5.22113">
        <ele>653</ele>
        <time>2022-09-29T14:03:29Z</time>
      </trkpt>
      <trkpt lat="44.40473" lon="5.22113">
        <ele>653</ele>
        <time>2022-09-29T14:03:30Z</time>
      </trkpt>
      <trkpt lat="44.40474" lon="5.22112">
        <ele>653</ele>
        <time>2022-09-29T14:03:31Z</time>
      </trkpt>
      <trkpt lat="44.40475" lon="5.22112">
        <ele>653</ele>
        <time>2022-09-29T14:03:32Z</time>
      </trkpt>
      <trkpt lat="44.40476" lon="5.22111">
        <ele>653</ele>
        <time>2022-09-29T14:03:33Z</time>
      </trkpt>
      <trkpt lat="44.40476" lon="5.22111">
        <ele>652</ele>
        <time>2022-09-29T14:03:34Z</time>
      </trkpt>
      <trkpt lat="44.40477" lon="5.2211">
        <ele>652</ele>
        <time>2022-09-29T14:03:35Z</time>
      </trkpt>
      <trkpt lat="44.40477" lon="5.22109">
        <ele>652</ele>
        <time>2022-09-29T14:03:36Z</time>
      </trkpt>
      <trkpt lat="44.40478" lon="5.22109">
        <ele>652</ele>
        <time>2022-09-29T14:03:37Z</time>
      </trkpt>
      <trkpt lat="44.40479" lon="5.22108">
        <ele>652</ele>
        <time>2022-09-29T14:03:38Z</time>
      </trkpt>
      <trkpt lat="44.40479" lon="5.22108">
        <ele>651</ele>
        <time>2022-09-29T14:03:39Z</time>
      </trkpt>
      <trkpt lat="44.4048" lon="5.22107">
        <ele>651</ele>
        <time>2022-09-29T14:03:40Z</time>
      </trkpt>
      <trkpt lat="44.40481" lon="5.22107">
        <ele>651</ele>
        <time>2022-09-29T14:03:41Z</time>
      </trkpt>
      <trkpt lat="44.40481" lon="5.22107">
        <ele>651</ele>
        <time>2022-09-29T14:03:42Z</time>
      </trkpt>
      <trkpt lat="44.40482" lon="5.22107">
        <ele>651</ele>
        <time>2022-09-29T14:03:43Z</time>
      </trkpt>
      <trkpt lat="44.40483" lon="5.22106">
        <ele>650</ele>
        <time>2022-09-29T14:03:44Z</time>
      </trkpt>
      <trkpt lat="44.40484" lon="5.22106">
        <ele>650</ele>
        <time>2022-09-29T14:03:45Z</time>
      </trkpt>
      <trkpt lat="44.40484" lon="5.22106">
        <ele>649</ele>
        <time>2022-09-29T14:03:46Z</time>
      </trkpt>
      <trkpt lat="44.40485" lon="5.22105">
        <ele>649</ele>
        <time>2022-09-29T14:03:47Z</time>
      </trkpt>
      <trkpt lat="44.40486" lon="5.22105">
        <ele>649</ele>
        <time>2022-09-29T14:03:48Z</time>
      </trkpt>
      <trkpt lat="44.40487" lon="5.22104">
        <ele>648</ele>
        <time>2022-09-29T14:03:49Z</time>
      </trkpt>
      <trkpt lat="44.40487" lon="5.22103">
        <ele>648</ele>
        <time>2022-09-29T14:03:50Z</time>
      </trkpt>
      <trkpt lat="44.40488" lon="5.22102">
        <ele>648</ele>
        <time>2022-09-29T14:03:51Z</time>
      </trkpt>
      <trkpt lat="44.40489" lon="5.22101">
        <ele>648</ele>
        <time>2022-09-29T14:03:52Z</time>
      </trkpt>
      <trkpt lat="44.4049" lon="5.22099">
        <ele>648</ele>
        <time>2022-09-29T14:03:53Z</time>
      </trkpt>
      <trkpt lat="44.4049" lon="5.22098">
        <ele>647</ele>
        <time>2022-09-29T14:03:54Z</time>
      </trkpt>
      <trkpt lat="44.40491" lon="5.22096">
        <ele>647</ele>
        <time>2022-09-29T14:03:55Z</time>
      </trkpt>
      <trkpt lat="44.40492" lon="5.22095">
        <ele>647</ele>
        <time>2022-09-29T14:03:56Z</time>
      </trkpt>
      <trkpt lat="44.40492" lon="5.22094">
        <ele>647</ele>
        <time>2022-09-29T14:03:57Z</time>
      </trkpt>
      <trkpt lat="44.40493" lon="5.22093">
        <ele>647</ele>
        <time>2022-09-29T14:03:58Z</time>
      </trkpt>
      <trkpt lat="44.40494" lon="5.22092">
        <ele>646</ele>
        <time>2022-09-29T14:03:59Z</time>
      </trkpt>
      <trkpt lat="44.40494" lon="5.22092">
        <ele>646</ele>
        <time>2022-09-29T14:04:00Z</time>
      </trkpt>
      <trkpt lat="44.40495" lon="5.22092">
        <ele>646</ele>
        <time>2022-09-29T14:04:01Z</time>
      </trkpt>
      <trkpt lat="44.40495" lon="5.22091">
        <ele>646</ele>
        <time>2022-09-29T14:04:02Z</time>
      </trkpt>
      <trkpt lat="44.40495" lon="5.22091">
        <ele>646</ele>
        <time>2022-09-29T14:04:03Z</time>
      </trkpt>
      <trkpt lat="44.40496" lon="5.22091">
        <ele>645</ele>
        <time>2022-09-29T14:04:04Z</time>
      </trkpt>
      <trkpt lat="44.40496" lon="5.2209">
        <ele>645</ele>
        <time>2022-09-29T14:04:05Z</time>
      </trkpt>
      <trkpt lat="44.40496" lon="5.22089">
        <ele>645</ele>
        <time>2022-09-29T14:04:06Z</time>
      </trkpt>
      <trkpt lat="44.40496" lon="5.22088">
        <ele>645</ele>
        <time>2022-09-29T14:04:07Z</time>
      </trkpt>
      <trkpt lat="44.40496" lon="5.22087">
        <ele>645</ele>
        <time>2022-09-29T14:04:08Z</time>
      </trkpt>
      <trkpt lat="44.40495" lon="5.22086">
        <ele>644</ele>
        <time>2022-09-29T14:04:09Z</time>
      </trkpt>
      <trkpt lat="44.40495" lon="5.22085">
        <ele>644</ele>
        <time>2022-09-29T14:04:10Z</time>
      </trkpt>
      <trkpt lat="44.40494" lon="5.22085">
        <ele>644</ele>
        <time>2022-09-29T14:04:11Z</time>
      </trkpt>
      <trkpt lat="44.40494" lon="5.22084">
        <ele>644</ele>
        <time>2022-09-29T14:04:12Z</time>
      </trkpt>
      <trkpt lat="44.40493" lon="5.22083">
        <ele>644</ele>
        <time>2022-09-29T14:04:13Z</time>
      </trkpt>
      <trkpt lat="44.40493" lon="5.22083">
        <ele>643</ele>
        <time>2022-09-29T14:04:14Z</time>
      </trkpt>
      <trkpt lat="44.40492" lon="5.22082">
        <ele>643</ele>
        <time>2022-09-29T14:04:15Z</time>
      </trkpt>
      <trkpt lat="44.40491" lon="5.22082">
        <ele>643</ele>
        <time>2022-09-29T14:04:16Z</time>
      </trkpt>
      <trkpt lat="44.40491" lon="5.22081">
        <ele>643</ele>
        <time>2022-09-29T14:04:17Z</time>
      </trkpt>
      <trkpt lat="44.4049" lon="5.22081">
        <ele>643</ele>
        <time>2022-09-29T14:04:18Z</time>
      </trkpt>
      <trkpt lat="44.40489" lon="5.2208">
        <ele>642</ele>
        <time>2022-09-29T14:04:19Z</time>
      </trkpt>
      <trkpt lat="44.40488" lon="5.2208">
        <ele>642</ele>
        <time>2022-09-29T14:04:20Z</time>
      </trkpt>
      <trkpt lat="44.40487" lon="5.2208">
        <ele>642</ele>
        <time>2022-09-29T14:04:21Z</time>
      </trkpt>
      <trkpt lat="44.40487" lon="5.22079">
        <ele>642</ele>
        <time>2022-09-29T14:04:22Z</time>
      </trkpt>
      <trkpt lat="44.40486" lon="5.22079">
        <ele>642</ele>
        <time>2022-09-29T14:04:23Z</time>
      </trkpt>
      <trkpt lat="44.40485" lon="5.22078">
        <ele>641</ele>
        <time>2022-09-29T14:04:24Z</time>
      </trkpt>
      <trkpt lat="44.40485" lon="5.22078">
        <ele>641</ele>
        <time>2022-09-29T14:04:25Z</time>
      </trkpt>
      <trkpt lat="44.40484" lon="5.22077">
        <ele>641</ele>
        <time>2022-09-29T14:04:26Z</time>
      </trkpt>
      <trkpt lat="44.40484" lon="5.22077">
        <ele>641</ele>
        <time>2022-09-29T14:04:27Z</time>
      </trkpt>
      <trkpt lat="44.40483" lon="5.22076">
        <ele>641</ele>
        <time>2022-09-29T14:04:28Z</time>
      </trkpt>
      <trkpt lat="44.40482" lon="5.22075">
        <ele>640</ele>
        <time>2022-09-29T14:04:29Z</time>
      </trkpt>
      <trkpt lat="44.40482" lon="5.22074">
        <ele>640</ele>
        <time>2022-09-29T14:04:30Z</time>
      </trkpt>
      <trkpt lat="44.40481" lon="5.22073">
        <ele>640</ele>
        <time>2022-09-29T14:04:31Z</time>
      </trkpt>
      <trkpt lat="44.40481" lon="5.22072">
        <ele>640</ele>
        <time>2022-09-29T14:04:32Z</time>
      </trkpt>
      <trkpt lat="44.4048" lon="5.22072">
        <ele>640</ele>
        <time>2022-09-29T14:04:33Z</time>
      </trkpt>
      <trkpt lat="44.4048" lon="5.22071">
        <ele>639</ele>
        <time>2022-09-29T14:04:34Z</time>
      </trkpt>
      <trkpt lat="44.40479" lon="5.2207">
        <ele>639</ele>
        <time>2022-09-29T14:04:35Z</time>
      </trkpt>
      <trkpt lat="44.40479" lon="5.22069">
        <ele>639</ele>
        <time>2022-09-29T14:04:36Z</time>
      </trkpt>
      <trkpt lat="44.40478" lon="5.22068">
        <ele>639</ele>
        <time>2022-09-29T14:04:37Z</time>
      </trkpt>
      <trkpt lat="44.40478" lon="5.22067">
        <ele>639</ele>
        <time>2022-09-29T14:04:38Z</time>
      </trkpt>
      <trkpt lat="44.40478" lon="5.22066">
        <ele>639</ele>
        <time>2022-09-29T14:04:39Z</time>
      </trkpt>
      <trkpt lat="44.40477" lon="5.22065">
        <ele>639</ele>
        <time>2022-09-29T14:04:40Z</time>
      </trkpt>
      <trkpt lat="44.40477" lon="5.22064">
        <ele>639</ele>
        <time>2022-09-29T14:04:41Z</time>
      </trkpt>
      <trkpt lat="44.40476" lon="5.22063">
        <ele>639</ele>
        <time>2022-09-29T14:04:42Z</time>
      </trkpt>
      <trkpt lat="44.40476" lon="5.22062">
        <ele>639</ele>
        <time>2022-09-29T14:04:43Z</time>
      </trkpt>
      <trkpt lat="44.40476" lon="5.22061">
        <ele>638</ele>
        <time>2022-09-29T14:04:44Z</time>
      </trkpt>
      <trkpt lat="44.40475" lon="5.2206">
        <ele>638</ele>
        <time>2022-09-29T14:04:45Z</time>
      </trkpt>
      <trkpt lat="44.40475" lon="5.22059">
        <ele>638</ele>
        <time>2022-09-29T14:04:46Z</time>
      </trkpt>
      <trkpt lat="44.40474" lon="5.22058">
        <ele>638</ele>
        <time>2022-09-29T14:04:47Z</time>
      </trkpt>
      <trkpt lat="44.40473" lon="5.22057">
        <ele>638</ele>
        <time>2022-09-29T14:04:48Z</time>
      </trkpt>
      <trkpt lat="44.40473" lon="5.22057">
        <ele>637</ele>
        <time>2022-09-29T14:04:49Z</time>
      </trkpt>
      <trkpt lat="44.40472" lon="5.22056">
        <ele>637</ele>
        <time>2022-09-29T14:04:50Z</time>
      </trkpt>
      <trkpt lat="44.40472" lon="5.22055">
        <ele>637</ele>
        <time>2022-09-29T14:04:51Z</time>
      </trkpt>
      <trkpt lat="44.40471" lon="5.22054">
        <ele>637</ele>
        <time>2022-09-29T14:04:52Z</time>
      </trkpt>
      <trkpt lat="44.40471" lon="5.22053">
        <ele>637</ele>
        <time>2022-09-29T14:04:53Z</time>
      </trkpt>
      <trkpt lat="44.4047" lon="5.22052">
        <ele>636</ele>
        <time>2022-09-29T14:04:54Z</time>
      </trkpt>
      <trkpt lat="44.4047" lon="5.22051">
        <ele>636</ele>
        <time>2022-09-29T14:04:55Z</time>
      </trkpt>
      <trkpt lat="44.40469" lon="5.2205">
        <ele>636</ele>
        <time>2022-09-29T14:04:56Z</time>
      </trkpt>
      <trkpt lat="44.40468" lon="5.22049">
        <ele>636</ele>
        <time>2022-09-29T14:04:57Z</time>
      </trkpt>
      <trkpt lat="44.40467" lon="5.22048">
        <ele>636</ele>
        <time>2022-09-29T14:04:58Z</time>
      </trkpt>
      <trkpt lat="44.40467" lon="5.22047">
        <ele>635</ele>
        <time>2022-09-29T14:04:59Z</time>
      </trkpt>
      <trkpt lat="44.40466" lon="5.22046">
        <ele>635</ele>
        <time>2022-09-29T14:05:00Z</time>
      </trkpt>
      <trkpt lat="44.40465" lon="5.22045">
        <ele>635</ele>
        <time>2022-09-29T14:05:01Z</time>
      </trkpt>
      <trkpt lat="44.40465" lon="5.22044">
        <ele>635</ele>
        <time>2022-09-29T14:05:02Z</time>
      </trkpt>
      <trkpt lat="44.40464" lon="5.22043">
        <ele>635</ele>
        <time>2022-09-29T14:05:03Z</time>
      </trkpt>
      <trkpt lat="44.40463" lon="5.22042">
        <ele>635</ele>
        <time>2022-09-29T14:05:04Z</time>
      </trkpt>
      <trkpt lat="44.40463" lon="5.2204">
        <ele>635</ele>
        <time>2022-09-29T14:05:05Z</time>
      </trkpt>
      <trkpt lat="44.40462" lon="5.2204">
        <ele>635</ele>
        <time>2022-09-29T14:05:06Z</time>
      </trkpt>
      <trkpt lat="44.40461" lon="5.22039">
        <ele>635</ele>
        <time>2022-09-29T14:05:07Z</time>
      </trkpt>
      <trkpt lat="44.40461" lon="5.22038">
        <ele>635</ele>
        <time>2022-09-29T14:05:08Z</time>
      </trkpt>
      <trkpt lat="44.4046" lon="5.22037">
        <ele>634</ele>
        <time>2022-09-29T14:05:09Z</time>
      </trkpt>
      <trkpt lat="44.40459" lon="5.22036">
        <ele>634</ele>
        <time>2022-09-29T14:05:10Z</time>
      </trkpt>
      <trkpt lat="44.40459" lon="5.22035">
        <ele>634</ele>
        <time>2022-09-29T14:05:11Z</time>
      </trkpt>
      <trkpt lat="44.40458" lon="5.22034">
        <ele>634</ele>
        <time>2022-09-29T14:05:12Z</time>
      </trkpt>
      <trkpt lat="44.40457" lon="5.22033">
        <ele>634</ele>
        <time>2022-09-29T14:05:13Z</time>
      </trkpt>
      <trkpt lat="44.40457" lon="5.22031">
        <ele>633</ele>
        <time>2022-09-29T14:05:14Z</time>
      </trkpt>
      <trkpt lat="44.40456" lon="5.2203">
        <ele>633</ele>
        <time>2022-09-29T14:05:15Z</time>
      </trkpt>
      <trkpt lat="44.40456" lon="5.22029">
        <ele>633</ele>
        <time>2022-09-29T14:05:16Z</time>
      </trkpt>
      <trkpt lat="44.40455" lon="5.22028">
        <ele>633</ele>
        <time>2022-09-29T14:05:17Z</time>
      </trkpt>
      <trkpt lat="44.40455" lon="5.22027">
        <ele>633</ele>
        <time>2022-09-29T14:05:18Z</time>
      </trkpt>
      <trkpt lat="44.40454" lon="5.22026">
        <ele>632</ele>
        <time>2022-09-29T14:05:19Z</time>
      </trkpt>
      <trkpt lat="44.40453" lon="5.22025">
        <ele>632</ele>
        <time>2022-09-29T14:05:20Z</time>
      </trkpt>
      <trkpt lat="44.40453" lon="5.22023">
        <ele>632</ele>
        <time>2022-09-29T14:05:21Z</time>
      </trkpt>
      <trkpt lat="44.40452" lon="5.22022">
        <ele>632</ele>
        <time>2022-09-29T14:05:22Z</time>
      </trkpt>
      <trkpt lat="44.40452" lon="5.22021">
        <ele>632</ele>
        <time>2022-09-29T14:05:23Z</time>
      </trkpt>
      <trkpt lat="44.40451" lon="5.2202">
        <ele>632</ele>
        <time>2022-09-29T14:05:24Z</time>
      </trkpt>
      <trkpt lat="44.4045" lon="5.22019">
        <ele>632</ele>
        <time>2022-09-29T14:05:25Z</time>
      </trkpt>
      <trkpt lat="44.40449" lon="5.22018">
        <ele>632</ele>
        <time>2022-09-29T14:05:26Z</time>
      </trkpt>
      <trkpt lat="44.40449" lon="5.22017">
        <ele>632</ele>
        <time>2022-09-29T14:05:27Z</time>
      </trkpt>
      <trkpt lat="44.40448" lon="5.22016">
        <ele>632</ele>
        <time>2022-09-29T14:05:28Z</time>
      </trkpt>
      <trkpt lat="44.40448" lon="5.22015">
        <ele>631</ele>
        <time>2022-09-29T14:05:29Z</time>
      </trkpt>
      <trkpt lat="44.40447" lon="5.22013">
        <ele>631</ele>
        <time>2022-09-29T14:05:30Z</time>
      </trkpt>
      <trkpt lat="44.40446" lon="5.22012">
        <ele>631</ele>
        <time>2022-09-29T14:05:31Z</time>
      </trkpt>
      <trkpt lat="44.40446" lon="5.22011">
        <ele>631</ele>
        <time>2022-09-29T14:05:32Z</time>
      </trkpt>
      <trkpt lat="44.40445" lon="5.2201">
        <ele>631</ele>
        <time>2022-09-29T14:05:33Z</time>
      </trkpt>
      <trkpt lat="44.40445" lon="5.22008">
        <ele>630</ele>
        <time>2022-09-29T14:05:34Z</time>
      </trkpt>
      <trkpt lat="44.40444" lon="5.22007">
        <ele>630</ele>
        <time>2022-09-29T14:05:35Z</time>
      </trkpt>
      <trkpt lat="44.40444" lon="5.22006">
        <ele>630</ele>
        <time>2022-09-29T14:05:36Z</time>
      </trkpt>
      <trkpt lat="44.40443" lon="5.22005">
        <ele>630</ele>
        <time>2022-09-29T14:05:37Z</time>
      </trkpt>
      <trkpt lat="44.40443" lon="5.22004">
        <ele>630</ele>
        <time>2022-09-29T14:05:38Z</time>
      </trkpt>
      <trkpt lat="44.40442" lon="5.22003">
        <ele>630</ele>
        <time>2022-09-29T14:05:39Z</time>
      </trkpt>
      <trkpt lat="44.40441" lon="5.22001">
        <ele>630</ele>
        <time>2022-09-29T14:05:40Z</time>
      </trkpt>
      <trkpt lat="44.40441" lon="5.22">
        <ele>630</ele>
        <time>2022-09-29T14:05:41Z</time>
      </trkpt>
      <trkpt lat="44.4044" lon="5.21999">
        <ele>630</ele>
        <time>2022-09-29T14:05:42Z</time>
      </trkpt>
      <trkpt lat="44.4044" lon="5.21998">
        <ele>630</ele>
        <time>2022-09-29T14:05:43Z</time>
      </trkpt>
      <trkpt lat="44.40439" lon="5.21996">
        <ele>629</ele>
        <time>2022-09-29T14:05:44Z</time>
      </trkpt>
      <trkpt lat="44.40439" lon="5.21995">
        <ele>629</ele>
        <time>2022-09-29T14:05:45Z</time>
      </trkpt>
      <trkpt lat="44.40438" lon="5.21994">
        <ele>628</ele>
        <time>2022-09-29T14:05:46Z</time>
      </trkpt>
      <trkpt lat="44.40438" lon="5.21993">
        <ele>628</ele>
        <time>2022-09-29T14:05:47Z</time>
      </trkpt>
      <trkpt lat="44.40437" lon="5.21991">
        <ele>628</ele>
        <time>2022-09-29T14:05:48Z</time>
      </trkpt>
      <trkpt lat="44.40437" lon="5.2199">
        <ele>628</ele>
        <time>2022-09-29T14:05:49Z</time>
      </trkpt>
      <trkpt lat="44.40436" lon="5.21989">
        <ele>628</ele>
        <time>2022-09-29T14:05:50Z</time>
      </trkpt>
      <trkpt lat="44.40436" lon="5.21988">
        <ele>628</ele>
        <time>2022-09-29T14:05:51Z</time>
      </trkpt>
      <trkpt lat="44.40435" lon="5.21987">
        <ele>628</ele>
        <time>2022-09-29T14:05:52Z</time>
      </trkpt>
      <trkpt lat="44.40435" lon="5.21986">
        <ele>628</ele>
        <time>2022-09-29T14:05:53Z</time>
      </trkpt>
      <trkpt lat="44.40434" lon="5.21985">
        <ele>627</ele>
        <time>2022-09-29T14:05:54Z</time>
      </trkpt>
      <trkpt lat="44.40434" lon="5.21984">
        <ele>627</ele>
        <time>2022-09-29T14:05:55Z</time>
      </trkpt>
      <trkpt lat="44.40433" lon="5.21982">
        <ele>627</ele>
        <time>2022-09-29T14:05:56Z</time>
      </trkpt>
      <trkpt lat="44.40433" lon="5.21981">
        <ele>627</ele>
        <time>2022-09-29T14:05:57Z</time>
      </trkpt>
      <trkpt lat="44.40432" lon="5.2198">
        <ele>627</ele>
        <time>2022-09-29T14:05:58Z</time>
      </trkpt>
      <trkpt lat="44.40432" lon="5.21979">
        <ele>627</ele>
        <time>2022-09-29T14:05:59Z</time>
      </trkpt>
      <trkpt lat="44.40431" lon="5.21978">
        <ele>627</ele>
        <time>2022-09-29T14:06:00Z</time>
      </trkpt>
      <trkpt lat="44.40431" lon="5.21977">
        <ele>627</ele>
        <time>2022-09-29T14:06:01Z</time>
      </trkpt>
      <trkpt lat="44.4043" lon="5.21976">
        <ele>627</ele>
        <time>2022-09-29T14:06:02Z</time>
      </trkpt>
      <trkpt lat="44.4043" lon="5.21975">
        <ele>627</ele>
        <time>2022-09-29T14:06:03Z</time>
      </trkpt>
      <trkpt lat="44.40429" lon="5.21974">
        <ele>626</ele>
        <time>2022-09-29T14:06:04Z</time>
      </trkpt>
      <trkpt lat="44.40428" lon="5.21973">
        <ele>626</ele>
        <time>2022-09-29T14:06:05Z</time>
      </trkpt>
      <trkpt lat="44.40427" lon="5.21972">
        <ele>626</ele>
        <time>2022-09-29T14:06:06Z</time>
      </trkpt>
      <trkpt lat="44.40426" lon="5.21971">
        <ele>626</ele>
        <time>2022-09-29T14:06:07Z</time>
      </trkpt>
      <trkpt lat="44.40426" lon="5.21971">
        <ele>626</ele>
        <time>2022-09-29T14:06:08Z</time>
      </trkpt>
      <trkpt lat="44.40425" lon="5.2197">
        <ele>625</ele>
        <time>2022-09-29T14:06:09Z</time>
      </trkpt>
      <trkpt lat="44.40424" lon="5.21969">
        <ele>625</ele>
        <time>2022-09-29T14:06:10Z</time>
      </trkpt>
      <trkpt lat="44.40423" lon="5.21968">
        <ele>625</ele>
        <time>2022-09-29T14:06:11Z</time>
      </trkpt>
      <trkpt lat="44.40422" lon="5.21968">
        <ele>625</ele>
        <time>2022-09-29T14:06:12Z</time>
      </trkpt>
      <trkpt lat="44.40422" lon="5.21967">
        <ele>625</ele>
        <time>2022-09-29T14:06:13Z</time>
      </trkpt>
      <trkpt lat="44.40421" lon="5.21967">
        <ele>624</ele>
        <time>2022-09-29T14:06:14Z</time>
      </trkpt>
      <trkpt lat="44.4042" lon="5.21966">
        <ele>624</ele>
        <time>2022-09-29T14:06:15Z</time>
      </trkpt>
      <trkpt lat="44.4042" lon="5.21966">
        <ele>624</ele>
        <time>2022-09-29T14:06:16Z</time>
      </trkpt>
      <trkpt lat="44.40419" lon="5.21965">
        <ele>624</ele>
        <time>2022-09-29T14:06:17Z</time>
      </trkpt>
      <trkpt lat="44.40418" lon="5.21964">
        <ele>624</ele>
        <time>2022-09-29T14:06:18Z</time>
      </trkpt>
      <trkpt lat="44.40417" lon="5.21964">
        <ele>623</ele>
        <time>2022-09-29T14:06:19Z</time>
      </trkpt>
      <trkpt lat="44.40417" lon="5.21963">
        <ele>623</ele>
        <time>2022-09-29T14:06:20Z</time>
      </trkpt>
      <trkpt lat="44.40416" lon="5.21963">
        <ele>623</ele>
        <time>2022-09-29T14:06:21Z</time>
      </trkpt>
      <trkpt lat="44.40415" lon="5.21962">
        <ele>623</ele>
        <time>2022-09-29T14:06:22Z</time>
      </trkpt>
      <trkpt lat="44.40414" lon="5.21962">
        <ele>623</ele>
        <time>2022-09-29T14:06:23Z</time>
      </trkpt>
      <trkpt lat="44.40414" lon="5.21961">
        <ele>622</ele>
        <time>2022-09-29T14:06:24Z</time>
      </trkpt>
      <trkpt lat="44.40413" lon="5.21961">
        <ele>622</ele>
        <time>2022-09-29T14:06:25Z</time>
      </trkpt>
      <trkpt lat="44.40412" lon="5.2196">
        <ele>622</ele>
        <time>2022-09-29T14:06:26Z</time>
      </trkpt>
      <trkpt lat="44.40411" lon="5.2196">
        <ele>622</ele>
        <time>2022-09-29T14:06:27Z</time>
      </trkpt>
      <trkpt lat="44.4041" lon="5.21959">
        <ele>622</ele>
        <time>2022-09-29T14:06:28Z</time>
      </trkpt>
      <trkpt lat="44.40409" lon="5.21959">
        <ele>622</ele>
        <time>2022-09-29T14:06:29Z</time>
      </trkpt>
      <trkpt lat="44.40408" lon="5.21958">
        <ele>622</ele>
        <time>2022-09-29T14:06:30Z</time>
      </trkpt>
      <trkpt lat="44.40408" lon="5.21957">
        <ele>622</ele>
        <time>2022-09-29T14:06:31Z</time>
      </trkpt>
      <trkpt lat="44.40407" lon="5.21956">
        <ele>622</ele>
        <time>2022-09-29T14:06:32Z</time>
      </trkpt>
      <trkpt lat="44.40406" lon="5.21955">
        <ele>622</ele>
        <time>2022-09-29T14:06:33Z</time>
      </trkpt>
      <trkpt lat="44.40406" lon="5.21955">
        <ele>621</ele>
        <time>2022-09-29T14:06:34Z</time>
      </trkpt>
      <trkpt lat="44.40405" lon="5.21954">
        <ele>621</ele>
        <time>2022-09-29T14:06:35Z</time>
      </trkpt>
      <trkpt lat="44.40405" lon="5.21953">
        <ele>621</ele>
        <time>2022-09-29T14:06:36Z</time>
      </trkpt>
      <trkpt lat="44.40404" lon="5.21952">
        <ele>621</ele>
        <time>2022-09-29T14:06:37Z</time>
      </trkpt>
      <trkpt lat="44.40403" lon="5.21951">
        <ele>621</ele>
        <time>2022-09-29T14:06:38Z</time>
      </trkpt>
      <trkpt lat="44.40402" lon="5.2195">
        <ele>620</ele>
        <time>2022-09-29T14:06:39Z</time>
      </trkpt>
      <trkpt lat="44.40401" lon="5.21949">
        <ele>620</ele>
        <time>2022-09-29T14:06:40Z</time>
      </trkpt>
      <trkpt lat="44.40401" lon="5.21948">
        <ele>619</ele>
        <time>2022-09-29T14:06:41Z</time>
      </trkpt>
      <trkpt lat="44.404" lon="5.21947">
        <ele>619</ele>
        <time>2022-09-29T14:06:42Z</time>
      </trkpt>
      <trkpt lat="44.40399" lon="5.21946">
        <ele>619</ele>
        <time>2022-09-29T14:06:43Z</time>
      </trkpt>
      <trkpt lat="44.40399" lon="5.21945">
        <ele>618</ele>
        <time>2022-09-29T14:06:44Z</time>
      </trkpt>
      <trkpt lat="44.40398" lon="5.21944">
        <ele>618</ele>
        <time>2022-09-29T14:06:45Z</time>
      </trkpt>
      <trkpt lat="44.40398" lon="5.21943">
        <ele>617</ele>
        <time>2022-09-29T14:06:46Z</time>
      </trkpt>
      <trkpt lat="44.40397" lon="5.21942">
        <ele>617</ele>
        <time>2022-09-29T14:06:47Z</time>
      </trkpt>
      <trkpt lat="44.40396" lon="5.21941">
        <ele>617</ele>
        <time>2022-09-29T14:06:48Z</time>
      </trkpt>
      <trkpt lat="44.40396" lon="5.2194">
        <ele>616</ele>
        <time>2022-09-29T14:06:49Z</time>
      </trkpt>
      <trkpt lat="44.40395" lon="5.21939">
        <ele>616</ele>
        <time>2022-09-29T14:06:50Z</time>
      </trkpt>
      <trkpt lat="44.40395" lon="5.21938">
        <ele>616</ele>
        <time>2022-09-29T14:06:51Z</time>
      </trkpt>
      <trkpt lat="44.40394" lon="5.21937">
        <ele>616</ele>
        <time>2022-09-29T14:06:52Z</time>
      </trkpt>
      <trkpt lat="44.40394" lon="5.21936">
        <ele>616</ele>
        <time>2022-09-29T14:06:53Z</time>
      </trkpt>
      <trkpt lat="44.40393" lon="5.21936">
        <ele>615</ele>
        <time>2022-09-29T14:06:54Z</time>
      </trkpt>
      <trkpt lat="44.40393" lon="5.21935">
        <ele>615</ele>
        <time>2022-09-29T14:06:55Z</time>
      </trkpt>
      <trkpt lat="44.40392" lon="5.21934">
        <ele>614</ele>
        <time>2022-09-29T14:06:56Z</time>
      </trkpt>
      <trkpt lat="44.40391" lon="5.21934">
        <ele>614</ele>
        <time>2022-09-29T14:06:57Z</time>
      </trkpt>
      <trkpt lat="44.40391" lon="5.21933">
        <ele>614</ele>
        <time>2022-09-29T14:06:58Z</time>
      </trkpt>
      <trkpt lat="44.4039" lon="5.21933">
        <ele>613</ele>
        <time>2022-09-29T14:06:59Z</time>
      </trkpt>
      <trkpt lat="44.4039" lon="5.21933">
        <ele>613</ele>
        <time>2022-09-29T14:07:00Z</time>
      </trkpt>
      <trkpt lat="44.40389" lon="5.21932">
        <ele>613</ele>
        <time>2022-09-29T14:07:01Z</time>
      </trkpt>
      <trkpt lat="44.40389" lon="5.21932">
        <ele>613</ele>
        <time>2022-09-29T14:07:02Z</time>
      </trkpt>
      <trkpt lat="44.40388" lon="5.21932">
        <ele>613</ele>
        <time>2022-09-29T14:07:03Z</time>
      </trkpt>
      <trkpt lat="44.40387" lon="5.21931">
        <ele>612</ele>
        <time>2022-09-29T14:07:04Z</time>
      </trkpt>
      <trkpt lat="44.40387" lon="5.21931">
        <ele>612</ele>
        <time>2022-09-29T14:07:05Z</time>
      </trkpt>
      <trkpt lat="44.40387" lon="5.2193">
        <ele>612</ele>
        <time>2022-09-29T14:07:06Z</time>
      </trkpt>
      <trkpt lat="44.40386" lon="5.2193">
        <ele>612</ele>
        <time>2022-09-29T14:07:07Z</time>
      </trkpt>
      <trkpt lat="44.40386" lon="5.21929">
        <ele>612</ele>
        <time>2022-09-29T14:07:08Z</time>
      </trkpt>
      <trkpt lat="44.40385" lon="5.21929">
        <ele>611</ele>
        <time>2022-09-29T14:07:09Z</time>
      </trkpt>
      <trkpt lat="44.40385" lon="5.21928">
        <ele>611</ele>
        <time>2022-09-29T14:07:10Z</time>
      </trkpt>
      <trkpt lat="44.40385" lon="5.21928">
        <ele>611</ele>
        <time>2022-09-29T14:07:11Z</time>
      </trkpt>
      <trkpt lat="44.40384" lon="5.21927">
        <ele>611</ele>
        <time>2022-09-29T14:07:12Z</time>
      </trkpt>
      <trkpt lat="44.40384" lon="5.21926">
        <ele>611</ele>
        <time>2022-09-29T14:07:13Z</time>
      </trkpt>
      <trkpt lat="44.40383" lon="5.21926">
        <ele>610</ele>
        <time>2022-09-29T14:07:14Z</time>
      </trkpt>
      <trkpt lat="44.40382" lon="5.21925">
        <ele>610</ele>
        <time>2022-09-29T14:07:15Z</time>
      </trkpt>
      <trkpt lat="44.40382" lon="5.21925">
        <ele>609</ele>
        <time>2022-09-29T14:07:16Z</time>
      </trkpt>
      <trkpt lat="44.40381" lon="5.21924">
        <ele>609</ele>
        <time>2022-09-29T14:07:17Z</time>
      </trkpt>
      <trkpt lat="44.40381" lon="5.21923">
        <ele>609</ele>
        <time>2022-09-29T14:07:18Z</time>
      </trkpt>
      <trkpt lat="44.4038" lon="5.21923">
        <ele>608</ele>
        <time>2022-09-29T14:07:19Z</time>
      </trkpt>
      <trkpt lat="44.4038" lon="5.21922">
        <ele>608</ele>
        <time>2022-09-29T14:07:20Z</time>
      </trkpt>
      <trkpt lat="44.40379" lon="5.21921">
        <ele>608</ele>
        <time>2022-09-29T14:07:21Z</time>
      </trkpt>
      <trkpt lat="44.40379" lon="5.2192">
        <ele>608</ele>
        <time>2022-09-29T14:07:22Z</time>
      </trkpt>
      <trkpt lat="44.40378" lon="5.2192">
        <ele>608</ele>
        <time>2022-09-29T14:07:23Z</time>
      </trkpt>
      <trkpt lat="44.40378" lon="5.21919">
        <ele>608</ele>
        <time>2022-09-29T14:07:24Z</time>
      </trkpt>
      <trkpt lat="44.40377" lon="5.21918">
        <ele>608</ele>
        <time>2022-09-29T14:07:25Z</time>
      </trkpt>
      <trkpt lat="44.40377" lon="5.21918">
        <ele>608</ele>
        <time>2022-09-29T14:07:26Z</time>
      </trkpt>
      <trkpt lat="44.40377" lon="5.21917">
        <ele>608</ele>
        <time>2022-09-29T14:07:27Z</time>
      </trkpt>
      <trkpt lat="44.40376" lon="5.21916">
        <ele>608</ele>
        <time>2022-09-29T14:07:28Z</time>
      </trkpt>
      <trkpt lat="44.40375" lon="5.21915">
        <ele>607</ele>
        <time>2022-09-29T14:07:29Z</time>
      </trkpt>
      <trkpt lat="44.40375" lon="5.21915">
        <ele>607</ele>
        <time>2022-09-29T14:07:30Z</time>
      </trkpt>
      <trkpt lat="44.40374" lon="5.21914">
        <ele>607</ele>
        <time>2022-09-29T14:07:31Z</time>
      </trkpt>
      <trkpt lat="44.40374" lon="5.21913">
        <ele>607</ele>
        <time>2022-09-29T14:07:32Z</time>
      </trkpt>
      <trkpt lat="44.40374" lon="5.21913">
        <ele>607</ele>
        <time>2022-09-29T14:07:33Z</time>
      </trkpt>
      <trkpt lat="44.40373" lon="5.21912">
        <ele>606</ele>
        <time>2022-09-29T14:07:34Z</time>
      </trkpt>
      <trkpt lat="44.40373" lon="5.21911">
        <ele>606</ele>
        <time>2022-09-29T14:07:35Z</time>
      </trkpt>
      <trkpt lat="44.40372" lon="5.2191">
        <ele>606</ele>
        <time>2022-09-29T14:07:36Z</time>
      </trkpt>
      <trkpt lat="44.40372" lon="5.21909">
        <ele>606</ele>
        <time>2022-09-29T14:07:37Z</time>
      </trkpt>
      <trkpt lat="44.40371" lon="5.21908">
        <ele>606</ele>
        <time>2022-09-29T14:07:38Z</time>
      </trkpt>
      <trkpt lat="44.40371" lon="5.21908">
        <ele>605</ele>
        <time>2022-09-29T14:07:39Z</time>
      </trkpt>
      <trkpt lat="44.4037" lon="5.21907">
        <ele>605</ele>
        <time>2022-09-29T14:07:40Z</time>
      </trkpt>
      <trkpt lat="44.40369" lon="5.21906">
        <ele>605</ele>
        <time>2022-09-29T14:07:41Z</time>
      </trkpt>
      <trkpt lat="44.40369" lon="5.21905">
        <ele>605</ele>
        <time>2022-09-29T14:07:42Z</time>
      </trkpt>
      <trkpt lat="44.40368" lon="5.21905">
        <ele>605</ele>
        <time>2022-09-29T14:07:43Z</time>
      </trkpt>
      <trkpt lat="44.40367" lon="5.21904">
        <ele>604</ele>
        <time>2022-09-29T14:07:44Z</time>
      </trkpt>
      <trkpt lat="44.40367" lon="5.21903">
        <ele>604</ele>
        <time>2022-09-29T14:07:45Z</time>
      </trkpt>
      <trkpt lat="44.40366" lon="5.21903">
        <ele>603</ele>
        <time>2022-09-29T14:07:46Z</time>
      </trkpt>
      <trkpt lat="44.40365" lon="5.21902">
        <ele>603</ele>
        <time>2022-09-29T14:07:47Z</time>
      </trkpt>
      <trkpt lat="44.40365" lon="5.21902">
        <ele>603</ele>
        <time>2022-09-29T14:07:48Z</time>
      </trkpt>
      <trkpt lat="44.40364" lon="5.21901">
        <ele>602</ele>
        <time>2022-09-29T14:07:49Z</time>
      </trkpt>
      <trkpt lat="44.40364" lon="5.219">
        <ele>602</ele>
        <time>2022-09-29T14:07:50Z</time>
      </trkpt>
      <trkpt lat="44.40363" lon="5.219">
        <ele>602</ele>
        <time>2022-09-29T14:07:51Z</time>
      </trkpt>
      <trkpt lat="44.40362" lon="5.21899">
        <ele>602</ele>
        <time>2022-09-29T14:07:52Z</time>
      </trkpt>
      <trkpt lat="44.40362" lon="5.21899">
        <ele>602</ele>
        <time>2022-09-29T14:07:53Z</time>
      </trkpt>
      <trkpt lat="44.40361" lon="5.21898">
        <ele>601</ele>
        <time>2022-09-29T14:07:54Z</time>
      </trkpt>
      <trkpt lat="44.4036" lon="5.21897">
        <ele>601</ele>
        <time>2022-09-29T14:07:55Z</time>
      </trkpt>
      <trkpt lat="44.40359" lon="5.21897">
        <ele>601</ele>
        <time>2022-09-29T14:07:56Z</time>
      </trkpt>
      <trkpt lat="44.40358" lon="5.21896">
        <ele>601</ele>
        <time>2022-09-29T14:07:57Z</time>
      </trkpt>
      <trkpt lat="44.40356" lon="5.21895">
        <ele>601</ele>
        <time>2022-09-29T14:07:58Z</time>
      </trkpt>
      <trkpt lat="44.40355" lon="5.21894">
        <ele>601</ele>
        <time>2022-09-29T14:07:59Z</time>
      </trkpt>
      <trkpt lat="44.40355" lon="5.21893">
        <ele>601</ele>
        <time>2022-09-29T14:08:00Z</time>
      </trkpt>
      <trkpt lat="44.40354" lon="5.21893">
        <ele>601</ele>
        <time>2022-09-29T14:08:01Z</time>
      </trkpt>
      <trkpt lat="44.40353" lon="5.21892">
        <ele>601</ele>
        <time>2022-09-29T14:08:02Z</time>
      </trkpt>
      <trkpt lat="44.40352" lon="5.21891">
        <ele>601</ele>
        <time>2022-09-29T14:08:03Z</time>
      </trkpt>
      <trkpt lat="44.40351" lon="5.2189">
        <ele>600</ele>
        <time>2022-09-29T14:08:04Z</time>
      </trkpt>
      <trkpt lat="44.40351" lon="5.2189">
        <ele>600</ele>
        <time>2022-09-29T14:08:05Z</time>
      </trkpt>
      <trkpt lat="44.4035" lon="5.21889">
        <ele>600</ele>
        <time>2022-09-29T14:08:06Z</time>
      </trkpt>
      <trkpt lat="44.40349" lon="5.21889">
        <ele>600</ele>
        <time>2022-09-29T14:08:07Z</time>
      </trkpt>
      <trkpt lat="44.40349" lon="5.21888">
        <ele>600</ele>
        <time>2022-09-29T14:08:08Z</time>
      </trkpt>
      <trkpt lat="44.40348" lon="5.21888">
        <ele>599</ele>
        <time>2022-09-29T14:08:09Z</time>
      </trkpt>
      <trkpt lat="44.40348" lon="5.21887">
        <ele>599</ele>
        <time>2022-09-29T14:08:10Z</time>
      </trkpt>
      <trkpt lat="44.40347" lon="5.21886">
        <ele>599</ele>
        <time>2022-09-29T14:08:11Z</time>
      </trkpt>
      <trkpt lat="44.40347" lon="5.21885">
        <ele>599</ele>
        <time>2022-09-29T14:08:12Z</time>
      </trkpt>
      <trkpt lat="44.40347" lon="5.21884">
        <ele>599</ele>
        <time>2022-09-29T14:08:13Z</time>
      </trkpt>
      <trkpt lat="44.40346" lon="5.21883">
        <ele>598</ele>
        <time>2022-09-29T14:08:14Z</time>
      </trkpt>
      <trkpt lat="44.40346" lon="5.21882">
        <ele>598</ele>
        <time>2022-09-29T14:08:15Z</time>
      </trkpt>
      <trkpt lat="44.40346" lon="5.21881">
        <ele>598</ele>
        <time>2022-09-29T14:08:16Z</time>
      </trkpt>
      <trkpt lat="44.40345" lon="5.2188">
        <ele>598</ele>
        <time>2022-09-29T14:08:17Z</time>
      </trkpt>
      <trkpt lat="44.40345" lon="5.21879">
        <ele>598</ele>
        <time>2022-09-29T14:08:18Z</time>
      </trkpt>
      <trkpt lat="44.40344" lon="5.21878">
        <ele>597</ele>
        <time>2022-09-29T14:08:19Z</time>
      </trkpt>
      <trkpt lat="44.40344" lon="5.21878">
        <ele>597</ele>
        <time>2022-09-29T14:08:20Z</time>
      </trkpt>
      <trkpt lat="44.40343" lon="5.21877">
        <ele>597</ele>
        <time>2022-09-29T14:08:21Z</time>
      </trkpt>
      <trkpt lat="44.40343" lon="5.21876">
        <ele>597</ele>
        <time>2022-09-29T14:08:22Z</time>
      </trkpt>
      <trkpt lat="44.40343" lon="5.21875">
        <ele>597</ele>
        <time>2022-09-29T14:08:23Z</time>
      </trkpt>
      <trkpt lat="44.40342" lon="5.21874">
        <ele>596</ele>
        <time>2022-09-29T14:08:24Z</time>
      </trkpt>
      <trkpt lat="44.40342" lon="5.21873">
        <ele>596</ele>
        <time>2022-09-29T14:08:25Z</time>
      </trkpt>
      <trkpt lat="44.40341" lon="5.21872">
        <ele>595</ele>
        <time>2022-09-29T14:08:26Z</time>
      </trkpt>
      <trkpt lat="44.40341" lon="5.21871">
        <ele>595</ele>
        <time>2022-09-29T14:08:27Z</time>
      </trkpt>
      <trkpt lat="44.4034" lon="5.2187">
        <ele>595</ele>
        <time>2022-09-29T14:08:28Z</time>
      </trkpt>
      <trkpt lat="44.4034" lon="5.21869">
        <ele>594</ele>
        <time>2022-09-29T14:08:29Z</time>
      </trkpt>
      <trkpt lat="44.40339" lon="5.21868">
        <ele>594</ele>
        <time>2022-09-29T14:08:30Z</time>
      </trkpt>
      <trkpt lat="44.40339" lon="5.21867">
        <ele>594</ele>
        <time>2022-09-29T14:08:31Z</time>
      </trkpt>
      <trkpt lat="44.40339" lon="5.21866">
        <ele>594</ele>
        <time>2022-09-29T14:08:32Z</time>
      </trkpt>
      <trkpt lat="44.40338" lon="5.21865">
        <ele>594</ele>
        <time>2022-09-29T14:08:33Z</time>
      </trkpt>
      <trkpt lat="44.40338" lon="5.21865">
        <ele>593</ele>
        <time>2022-09-29T14:08:34Z</time>
      </trkpt>
      <trkpt lat="44.40338" lon="5.21864">
        <ele>593</ele>
        <time>2022-09-29T14:08:35Z</time>
      </trkpt>
      <trkpt lat="44.40337" lon="5.21863">
        <ele>593</ele>
        <time>2022-09-29T14:08:36Z</time>
      </trkpt>
      <trkpt lat="44.40336" lon="5.21862">
        <ele>593</ele>
        <time>2022-09-29T14:08:37Z</time>
      </trkpt>
      <trkpt lat="44.40336" lon="5.21862">
        <ele>593</ele>
        <time>2022-09-29T14:08:38Z</time>
      </trkpt>
      <trkpt lat="44.40335" lon="5.21861">
        <ele>592</ele>
        <time>2022-09-29T14:08:39Z</time>
      </trkpt>
      <trkpt lat="44.40335" lon="5.2186">
        <ele>592</ele>
        <time>2022-09-29T14:08:40Z</time>
      </trkpt>
      <trkpt lat="44.40334" lon="5.21859">
        <ele>592</ele>
        <time>2022-09-29T14:08:41Z</time>
      </trkpt>
      <trkpt lat="44.40334" lon="5.21858">
        <ele>592</ele>
        <time>2022-09-29T14:08:42Z</time>
      </trkpt>
      <trkpt lat="44.40334" lon="5.21857">
        <ele>592</ele>
        <time>2022-09-29T14:08:43Z</time>
      </trkpt>
      <trkpt lat="44.40333" lon="5.21856">
        <ele>591</ele>
        <time>2022-09-29T14:08:44Z</time>
      </trkpt>
      <trkpt lat="44.40333" lon="5.21855">
        <ele>591</ele>
        <time>2022-09-29T14:08:45Z</time>
      </trkpt>
      <trkpt lat="44.40332" lon="5.21854">
        <ele>591</ele>
        <time>2022-09-29T14:08:46Z</time>
      </trkpt>
      <trkpt lat="44.40332" lon="5.21853">
        <ele>591</ele>
        <time>2022-09-29T14:08:47Z</time>
      </trkpt>
      <trkpt lat="44.40332" lon="5.21852">
        <ele>591</ele>
        <time>2022-09-29T14:08:48Z</time>
      </trkpt>
      <trkpt lat="44.40331" lon="5.21851">
        <ele>590</ele>
        <time>2022-09-29T14:08:49Z</time>
      </trkpt>
      <trkpt lat="44.40331" lon="5.2185">
        <ele>590</ele>
        <time>2022-09-29T14:08:50Z</time>
      </trkpt>
      <trkpt lat="44.4033" lon="5.21848">
        <ele>590</ele>
        <time>2022-09-29T14:08:51Z</time>
      </trkpt>
      <trkpt lat="44.4033" lon="5.21847">
        <ele>590</ele>
        <time>2022-09-29T14:08:52Z</time>
      </trkpt>
      <trkpt lat="44.4033" lon="5.21846">
        <ele>590</ele>
        <time>2022-09-29T14:08:53Z</time>
      </trkpt>
      <trkpt lat="44.4033" lon="5.21845">
        <ele>589</ele>
        <time>2022-09-29T14:08:54Z</time>
      </trkpt>
      <trkpt lat="44.40329" lon="5.21844">
        <ele>589</ele>
        <time>2022-09-29T14:08:55Z</time>
      </trkpt>
      <trkpt lat="44.40329" lon="5.21843">
        <ele>589</ele>
        <time>2022-09-29T14:08:56Z</time>
      </trkpt>
      <trkpt lat="44.40329" lon="5.21842">
        <ele>589</ele>
        <time>2022-09-29T14:08:57Z</time>
      </trkpt>
      <trkpt lat="44.40329" lon="5.21841">
        <ele>589</ele>
        <time>2022-09-29T14:08:58Z</time>
      </trkpt>
      <trkpt lat="44.40328" lon="5.2184">
        <ele>588</ele>
        <time>2022-09-29T14:08:59Z</time>
      </trkpt>
      <trkpt lat="44.40328" lon="5.21839">
        <ele>588</ele>
        <time>2022-09-29T14:09:00Z</time>
      </trkpt>
      <trkpt lat="44.40328" lon="5.21838">
        <ele>588</ele>
        <time>2022-09-29T14:09:01Z</time>
      </trkpt>
      <trkpt lat="44.40328" lon="5.21837">
        <ele>588</ele>
        <time>2022-09-29T14:09:02Z</time>
      </trkpt>
      <trkpt lat="44.40328" lon="5.21836">
        <ele>588</ele>
        <time>2022-09-29T14:09:03Z</time>
      </trkpt>
      <trkpt lat="44.40328" lon="5.21834">
        <ele>588</ele>
        <time>2022-09-29T14:09:04Z</time>
      </trkpt>
      <trkpt lat="44.40328" lon="5.21833">
        <ele>588</ele>
        <time>2022-09-29T14:09:05Z</time>
      </trkpt>
      <trkpt lat="44.40327" lon="5.21832">
        <ele>588</ele>
        <time>2022-09-29T14:09:06Z</time>
      </trkpt>
      <trkpt lat="44.40327" lon="5.21831">
        <ele>588</ele>
        <time>2022-09-29T14:09:07Z</time>
      </trkpt>
      <trkpt lat="44.40327" lon="5.2183">
        <ele>588</ele>
        <time>2022-09-29T14:09:08Z</time>
      </trkpt>
      <trkpt lat="44.40326" lon="5.21828">
        <ele>587</ele>
        <time>2022-09-29T14:09:09Z</time>
      </trkpt>
      <trkpt lat="44.40326" lon="5.21827">
        <ele>587</ele>
        <time>2022-09-29T14:09:10Z</time>
      </trkpt>
      <trkpt lat="44.40326" lon="5.21826">
        <ele>587</ele>
        <time>2022-09-29T14:09:11Z</time>
      </trkpt>
      <trkpt lat="44.40325" lon="5.21825">
        <ele>587</ele>
        <time>2022-09-29T14:09:12Z</time>
      </trkpt>
      <trkpt lat="44.40325" lon="5.21824">
        <ele>587</ele>
        <time>2022-09-29T14:09:13Z</time>
      </trkpt>
      <trkpt lat="44.40325" lon="5.21823">
        <ele>586</ele>
        <time>2022-09-29T14:09:14Z</time>
      </trkpt>
      <trkpt lat="44.40324" lon="5.21822">
        <ele>586</ele>
        <time>2022-09-29T14:09:15Z</time>
      </trkpt>
      <trkpt lat="44.40324" lon="5.21821">
        <ele>586</ele>
        <time>2022-09-29T14:09:16Z</time>
      </trkpt>
      <trkpt lat="44.40324" lon="5.21821">
        <ele>586</ele>
        <time>2022-09-29T14:09:17Z</time>
      </trkpt>
      <trkpt lat="44.40324" lon="5.2182">
        <ele>586</ele>
        <time>2022-09-29T14:09:18Z</time>
      </trkpt>
      <trkpt lat="44.40323" lon="5.21819">
        <ele>585</ele>
        <time>2022-09-29T14:09:19Z</time>
      </trkpt>
      <trkpt lat="44.40323" lon="5.21818">
        <ele>585</ele>
        <time>2022-09-29T14:09:20Z</time>
      </trkpt>
      <trkpt lat="44.40322" lon="5.21817">
        <ele>585</ele>
        <time>2022-09-29T14:09:21Z</time>
      </trkpt>
      <trkpt lat="44.40322" lon="5.21816">
        <ele>585</ele>
        <time>2022-09-29T14:09:22Z</time>
      </trkpt>
      <trkpt lat="44.40322" lon="5.21815">
        <ele>585</ele>
        <time>2022-09-29T14:09:23Z</time>
      </trkpt>
      <trkpt lat="44.40321" lon="5.21814">
        <ele>584</ele>
        <time>2022-09-29T14:09:24Z</time>
      </trkpt>
      <trkpt lat="44.40321" lon="5.21813">
        <ele>584</ele>
        <time>2022-09-29T14:09:25Z</time>
      </trkpt>
      <trkpt lat="44.40321" lon="5.21812">
        <ele>584</ele>
        <time>2022-09-29T14:09:26Z</time>
      </trkpt>
      <trkpt lat="44.4032" lon="5.21812">
        <ele>584</ele>
        <time>2022-09-29T14:09:27Z</time>
      </trkpt>
      <trkpt lat="44.4032" lon="5.21811">
        <ele>584</ele>
        <time>2022-09-29T14:09:28Z</time>
      </trkpt>
      <trkpt lat="44.40319" lon="5.2181">
        <ele>583</ele>
        <time>2022-09-29T14:09:29Z</time>
      </trkpt>
      <trkpt lat="44.40319" lon="5.21809">
        <ele>583</ele>
        <time>2022-09-29T14:09:30Z</time>
      </trkpt>
      <trkpt lat="44.40318" lon="5.21808">
        <ele>583</ele>
        <time>2022-09-29T14:09:31Z</time>
      </trkpt>
      <trkpt lat="44.40318" lon="5.21807">
        <ele>583</ele>
        <time>2022-09-29T14:09:32Z</time>
      </trkpt>
      <trkpt lat="44.40318" lon="5.21806">
        <ele>583</ele>
        <time>2022-09-29T14:09:33Z</time>
      </trkpt>
      <trkpt lat="44.40318" lon="5.21805">
        <ele>582</ele>
        <time>2022-09-29T14:09:34Z</time>
      </trkpt>
      <trkpt lat="44.40318" lon="5.21804">
        <ele>582</ele>
        <time>2022-09-29T14:09:35Z</time>
      </trkpt>
      <trkpt lat="44.40318" lon="5.21803">
        <ele>582</ele>
        <time>2022-09-29T14:09:36Z</time>
      </trkpt>
      <trkpt lat="44.40318" lon="5.21802">
        <ele>582</ele>
        <time>2022-09-29T14:09:37Z</time>
      </trkpt>
      <trkpt lat="44.40317" lon="5.218">
        <ele>582</ele>
        <time>2022-09-29T14:09:38Z</time>
      </trkpt>
      <trkpt lat="44.40317" lon="5.21799">
        <ele>581</ele>
        <time>2022-09-29T14:09:39Z</time>
      </trkpt>
      <trkpt lat="44.40317" lon="5.21798">
        <ele>581</ele>
        <time>2022-09-29T14:09:40Z</time>
      </trkpt>
      <trkpt lat="44.40316" lon="5.21797">
        <ele>581</ele>
        <time>2022-09-29T14:09:41Z</time>
      </trkpt>
      <trkpt lat="44.40316" lon="5.21796">
        <ele>581</ele>
        <time>2022-09-29T14:09:42Z</time>
      </trkpt>
      <trkpt lat="44.40316" lon="5.21795">
        <ele>581</ele>
        <time>2022-09-29T14:09:43Z</time>
      </trkpt>
      <trkpt lat="44.40315" lon="5.21793">
        <ele>580</ele>
        <time>2022-09-29T14:09:44Z</time>
      </trkpt>
      <trkpt lat="44.40315" lon="5.21792">
        <ele>580</ele>
        <time>2022-09-29T14:09:45Z</time>
      </trkpt>
      <trkpt lat="44.40315" lon="5.21791">
        <ele>580</ele>
        <time>2022-09-29T14:09:46Z</time>
      </trkpt>
      <trkpt lat="44.40314" lon="5.2179">
        <ele>580</ele>
        <time>2022-09-29T14:09:47Z</time>
      </trkpt>
      <trkpt lat="44.40314" lon="5.21789">
        <ele>580</ele>
        <time>2022-09-29T14:09:48Z</time>
      </trkpt>
      <trkpt lat="44.40314" lon="5.21787">
        <ele>579</ele>
        <time>2022-09-29T14:09:49Z</time>
      </trkpt>
      <trkpt lat="44.40313" lon="5.21786">
        <ele>579</ele>
        <time>2022-09-29T14:09:50Z</time>
      </trkpt>
      <trkpt lat="44.40313" lon="5.21785">
        <ele>579</ele>
        <time>2022-09-29T14:09:51Z</time>
      </trkpt>
      <trkpt lat="44.40313" lon="5.21784">
        <ele>579</ele>
        <time>2022-09-29T14:09:52Z</time>
      </trkpt>
      <trkpt lat="44.40313" lon="5.21782">
        <ele>579</ele>
        <time>2022-09-29T14:09:53Z</time>
      </trkpt>
      <trkpt lat="44.40313" lon="5.21781">
        <ele>578</ele>
        <time>2022-09-29T14:09:54Z</time>
      </trkpt>
      <trkpt lat="44.40313" lon="5.2178">
        <ele>578</ele>
        <time>2022-09-29T14:09:55Z</time>
      </trkpt>
      <trkpt lat="44.40313" lon="5.21779">
        <ele>578</ele>
        <time>2022-09-29T14:09:56Z</time>
      </trkpt>
      <trkpt lat="44.40313" lon="5.21779">
        <ele>578</ele>
        <time>2022-09-29T14:09:57Z</time>
      </trkpt>
      <trkpt lat="44.40313" lon="5.21777">
        <ele>577</ele>
        <time>2022-09-29T14:10:05Z</time>
      </trkpt>
      <trkpt lat="44.40313" lon="5.21776">
        <ele>577</ele>
        <time>2022-09-29T14:10:06Z</time>
      </trkpt>
      <trkpt lat="44.40313" lon="5.21775">
        <ele>577</ele>
        <time>2022-09-29T14:10:07Z</time>
      </trkpt>
      <trkpt lat="44.40313" lon="5.21774">
        <ele>577</ele>
        <time>2022-09-29T14:10:08Z</time>
      </trkpt>
      <trkpt lat="44.40313" lon="5.21774">
        <ele>577</ele>
        <time>2022-09-29T14:10:09Z</time>
      </trkpt>
      <trkpt lat="44.40313" lon="5.21772">
        <ele>577</ele>
        <time>2022-09-29T14:10:10Z</time>
      </trkpt>
      <trkpt lat="44.40313" lon="5.21771">
        <ele>577</ele>
        <time>2022-09-29T14:10:11Z</time>
      </trkpt>
      <trkpt lat="44.40313" lon="5.2177">
        <ele>577</ele>
        <time>2022-09-29T14:10:12Z</time>
      </trkpt>
      <trkpt lat="44.40312" lon="5.21769">
        <ele>577</ele>
        <time>2022-09-29T14:10:13Z</time>
      </trkpt>
      <trkpt lat="44.40312" lon="5.21768">
        <ele>576</ele>
        <time>2022-09-29T14:10:14Z</time>
      </trkpt>
      <trkpt lat="44.40312" lon="5.21767">
        <ele>576</ele>
        <time>2022-09-29T14:10:15Z</time>
      </trkpt>
      <trkpt lat="44.40311" lon="5.21766">
        <ele>576</ele>
        <time>2022-09-29T14:10:16Z</time>
      </trkpt>
      <trkpt lat="44.40311" lon="5.21765">
        <ele>576</ele>
        <time>2022-09-29T14:10:17Z</time>
      </trkpt>
      <trkpt lat="44.40311" lon="5.21764">
        <ele>576</ele>
        <time>2022-09-29T14:10:18Z</time>
      </trkpt>
      <trkpt lat="44.4031" lon="5.21763">
        <ele>575</ele>
        <time>2022-09-29T14:10:19Z</time>
      </trkpt>
      <trkpt lat="44.4031" lon="5.21762">
        <ele>575</ele>
        <time>2022-09-29T14:10:20Z</time>
      </trkpt>
      <trkpt lat="44.4031" lon="5.21761">
        <ele>575</ele>
        <time>2022-09-29T14:10:21Z</time>
      </trkpt>
      <trkpt lat="44.4031" lon="5.2176">
        <ele>575</ele>
        <time>2022-09-29T14:10:22Z</time>
      </trkpt>
      <trkpt lat="44.4031" lon="5.21759">
        <ele>575</ele>
        <time>2022-09-29T14:10:23Z</time>
      </trkpt>
      <trkpt lat="44.4031" lon="5.21758">
        <ele>575</ele>
        <time>2022-09-29T14:10:24Z</time>
      </trkpt>
      <trkpt lat="44.4031" lon="5.21757">
        <ele>575</ele>
        <time>2022-09-29T14:10:25Z</time>
      </trkpt>
      <trkpt lat="44.4031" lon="5.21756">
        <ele>575</ele>
        <time>2022-09-29T14:10:26Z</time>
      </trkpt>
      <trkpt lat="44.4031" lon="5.21755">
        <ele>575</ele>
        <time>2022-09-29T14:10:27Z</time>
      </trkpt>
      <trkpt lat="44.4031" lon="5.21754">
        <ele>575</ele>
        <time>2022-09-29T14:10:28Z</time>
      </trkpt>
      <trkpt lat="44.4031" lon="5.21753">
        <ele>574</ele>
        <time>2022-09-29T14:10:29Z</time>
      </trkpt>
      <trkpt lat="44.4031" lon="5.21752">
        <ele>574</ele>
        <time>2022-09-29T14:10:30Z</time>
      </trkpt>
      <trkpt lat="44.4031" lon="5.2175">
        <ele>574</ele>
        <time>2022-09-29T14:10:31Z</time>
      </trkpt>
      <trkpt lat="44.4031" lon="5.2175">
        <ele>574</ele>
        <time>2022-09-29T14:10:32Z</time>
      </trkpt>
      <trkpt lat="44.4031" lon="5.21749">
        <ele>574</ele>
        <time>2022-09-29T14:10:33Z</time>
      </trkpt>
      <trkpt lat="44.4031" lon="5.21748">
        <ele>573</ele>
        <time>2022-09-29T14:10:34Z</time>
      </trkpt>
      <trkpt lat="44.4031" lon="5.21748">
        <ele>573</ele>
        <time>2022-09-29T14:10:35Z</time>
      </trkpt>
      <trkpt lat="44.4031" lon="5.21747">
        <ele>573</ele>
        <time>2022-09-29T14:10:36Z</time>
      </trkpt>
      <trkpt lat="44.40311" lon="5.21747">
        <ele>573</ele>
        <time>2022-09-29T14:10:37Z</time>
      </trkpt>
      <trkpt lat="44.40311" lon="5.21746">
        <ele>573</ele>
        <time>2022-09-29T14:10:38Z</time>
      </trkpt>
      <trkpt lat="44.40311" lon="5.21746">
        <ele>573</ele>
        <time>2022-09-29T14:10:39Z</time>
      </trkpt>
      <trkpt lat="44.40311" lon="5.21745">
        <ele>573</ele>
        <time>2022-09-29T14:10:40Z</time>
      </trkpt>
      <trkpt lat="44.40311" lon="5.21745">
        <ele>573</ele>
        <time>2022-09-29T14:10:41Z</time>
      </trkpt>
      <trkpt lat="44.40312" lon="5.21745">
        <ele>573</ele>
        <time>2022-09-29T14:10:42Z</time>
      </trkpt>
      <trkpt lat="44.40312" lon="5.21744">
        <ele>573</ele>
        <time>2022-09-29T14:10:43Z</time>
      </trkpt>
      <trkpt lat="44.40313" lon="5.21744">
        <ele>572</ele>
        <time>2022-09-29T14:10:44Z</time>
      </trkpt>
      <trkpt lat="44.40313" lon="5.21744">
        <ele>572</ele>
        <time>2022-09-29T14:10:45Z</time>
      </trkpt>
      <trkpt lat="44.40314" lon="5.21744">
        <ele>572</ele>
        <time>2022-09-29T14:10:46Z</time>
      </trkpt>
      <trkpt lat="44.40315" lon="5.21744">
        <ele>572</ele>
        <time>2022-09-29T14:10:47Z</time>
      </trkpt>
      <trkpt lat="44.40316" lon="5.21744">
        <ele>572</ele>
        <time>2022-09-29T14:10:48Z</time>
      </trkpt>
      <trkpt lat="44.40317" lon="5.21744">
        <ele>571</ele>
        <time>2022-09-29T14:10:49Z</time>
      </trkpt>
      <trkpt lat="44.40318" lon="5.21744">
        <ele>571</ele>
        <time>2022-09-29T14:10:50Z</time>
      </trkpt>
      <trkpt lat="44.40319" lon="5.21744">
        <ele>571</ele>
        <time>2022-09-29T14:10:51Z</time>
      </trkpt>
      <trkpt lat="44.4032" lon="5.21744">
        <ele>571</ele>
        <time>2022-09-29T14:10:52Z</time>
      </trkpt>
      <trkpt lat="44.40321" lon="5.21744">
        <ele>571</ele>
        <time>2022-09-29T14:10:53Z</time>
      </trkpt>
      <trkpt lat="44.40321" lon="5.21744">
        <ele>571</ele>
        <time>2022-09-29T14:10:54Z</time>
      </trkpt>
      <trkpt lat="44.40322" lon="5.21744">
        <ele>571</ele>
        <time>2022-09-29T14:10:55Z</time>
      </trkpt>
      <trkpt lat="44.40323" lon="5.21744">
        <ele>571</ele>
        <time>2022-09-29T14:10:56Z</time>
      </trkpt>
      <trkpt lat="44.40324" lon="5.21744">
        <ele>571</ele>
        <time>2022-09-29T14:10:57Z</time>
      </trkpt>
      <trkpt lat="44.40324" lon="5.21744">
        <ele>571</ele>
        <time>2022-09-29T14:10:58Z</time>
      </trkpt>
      <trkpt lat="44.40325" lon="5.21744">
        <ele>570</ele>
        <time>2022-09-29T14:10:59Z</time>
      </trkpt>
      <trkpt lat="44.40326" lon="5.21744">
        <ele>570</ele>
        <time>2022-09-29T14:11:00Z</time>
      </trkpt>
      <trkpt lat="44.40326" lon="5.21744">
        <ele>570</ele>
        <time>2022-09-29T14:11:01Z</time>
      </trkpt>
      <trkpt lat="44.40327" lon="5.21745">
        <ele>570</ele>
        <time>2022-09-29T14:11:15Z</time>
      </trkpt>
      <trkpt lat="44.40327" lon="5.21745">
        <ele>570</ele>
        <time>2022-09-29T14:11:16Z</time>
      </trkpt>
      <trkpt lat="44.40327" lon="5.21744">
        <ele>570</ele>
        <time>2022-09-29T14:11:17Z</time>
      </trkpt>
      <trkpt lat="44.40327" lon="5.21744">
        <ele>570</ele>
        <time>2022-09-29T14:11:18Z</time>
      </trkpt>
      <trkpt lat="44.40326" lon="5.21744">
        <ele>569</ele>
        <time>2022-09-29T14:11:19Z</time>
      </trkpt>
      <trkpt lat="44.40325" lon="5.21743">
        <ele>569</ele>
        <time>2022-09-29T14:11:20Z</time>
      </trkpt>
      <trkpt lat="44.40325" lon="5.21743">
        <ele>569</ele>
        <time>2022-09-29T14:11:21Z</time>
      </trkpt>
      <trkpt lat="44.40324" lon="5.21742">
        <ele>569</ele>
        <time>2022-09-29T14:11:22Z</time>
      </trkpt>
      <trkpt lat="44.40323" lon="5.21741">
        <ele>569</ele>
        <time>2022-09-29T14:11:23Z</time>
      </trkpt>
      <trkpt lat="44.40323" lon="5.2174">
        <ele>569</ele>
        <time>2022-09-29T14:11:24Z</time>
      </trkpt>
      <trkpt lat="44.40322" lon="5.21738">
        <ele>569</ele>
        <time>2022-09-29T14:11:25Z</time>
      </trkpt>
      <trkpt lat="44.40321" lon="5.21737">
        <ele>569</ele>
        <time>2022-09-29T14:11:26Z</time>
      </trkpt>
      <trkpt lat="44.40321" lon="5.21736">
        <ele>569</ele>
        <time>2022-09-29T14:11:27Z</time>
      </trkpt>
      <trkpt lat="44.4032" lon="5.21735">
        <ele>569</ele>
        <time>2022-09-29T14:11:28Z</time>
      </trkpt>
      <trkpt lat="44.40319" lon="5.21734">
        <ele>569</ele>
        <time>2022-09-29T14:11:29Z</time>
      </trkpt>
      <trkpt lat="44.40318" lon="5.21734">
        <ele>569</ele>
        <time>2022-09-29T14:11:30Z</time>
      </trkpt>
      <trkpt lat="44.40317" lon="5.21733">
        <ele>569</ele>
        <time>2022-09-29T14:11:31Z</time>
      </trkpt>
      <trkpt lat="44.40317" lon="5.21732">
        <ele>569</ele>
        <time>2022-09-29T14:11:32Z</time>
      </trkpt>
      <trkpt lat="44.40316" lon="5.21731">
        <ele>569</ele>
        <time>2022-09-29T14:11:33Z</time>
      </trkpt>
      <trkpt lat="44.40315" lon="5.2173">
        <ele>569</ele>
        <time>2022-09-29T14:11:34Z</time>
      </trkpt>
      <trkpt lat="44.40314" lon="5.21729">
        <ele>569</ele>
        <time>2022-09-29T14:11:35Z</time>
      </trkpt>
      <trkpt lat="44.40314" lon="5.21728">
        <ele>569</ele>
        <time>2022-09-29T14:11:36Z</time>
      </trkpt>
      <trkpt lat="44.40313" lon="5.21727">
        <ele>569</ele>
        <time>2022-09-29T14:11:37Z</time>
      </trkpt>
      <trkpt lat="44.40313" lon="5.21726">
        <ele>569</ele>
        <time>2022-09-29T14:11:38Z</time>
      </trkpt>
      <trkpt lat="44.40312" lon="5.21726">
        <ele>569</ele>
        <time>2022-09-29T14:11:39Z</time>
      </trkpt>
      <trkpt lat="44.4031" lon="5.21723">
        <ele>569</ele>
        <time>2022-09-29T14:13:18Z</time>
      </trkpt>
      <trkpt lat="44.40309" lon="5.21721">
        <ele>569</ele>
        <time>2022-09-29T14:13:19Z</time>
      </trkpt>
      <trkpt lat="44.40308" lon="5.2172">
        <ele>569</ele>
        <time>2022-09-29T14:13:20Z</time>
      </trkpt>
      <trkpt lat="44.40308" lon="5.2172">
        <ele>569</ele>
        <time>2022-09-29T14:13:21Z</time>
      </trkpt>
      <trkpt lat="44.40308" lon="5.2172">
        <ele>569</ele>
        <time>2022-09-29T14:13:22Z</time>
      </trkpt>
      <trkpt lat="44.40308" lon="5.2172">
        <ele>569</ele>
        <time>2022-09-29T14:13:23Z</time>
      </trkpt>
      <trkpt lat="44.40308" lon="5.2172">
        <ele>569</ele>
        <time>2022-09-29T14:13:24Z</time>
      </trkpt>
      <trkpt lat="44.40309" lon="5.2172">
        <ele>569</ele>
        <time>2022-09-29T14:13:25Z</time>
      </trkpt>
      <trkpt lat="44.40309" lon="5.2172">
        <ele>569</ele>
        <time>2022-09-29T14:13:26Z</time>
      </trkpt>
      <trkpt lat="44.4031" lon="5.21721">
        <ele>569</ele>
        <time>2022-09-29T14:13:27Z</time>
      </trkpt>
      <trkpt lat="44.4031" lon="5.2172">
        <ele>569</ele>
        <time>2022-09-29T14:13:33Z</time>
      </trkpt>
      <trkpt lat="44.4031" lon="5.2172">
        <ele>569</ele>
        <time>2022-09-29T14:13:34Z</time>
      </trkpt>
      <trkpt lat="44.4031" lon="5.2172">
        <ele>569</ele>
        <time>2022-09-29T14:13:35Z</time>
      </trkpt>
      <trkpt lat="44.4031" lon="5.2172">
        <ele>569</ele>
        <time>2022-09-29T14:13:36Z</time>
      </trkpt>
      <trkpt lat="44.4031" lon="5.21719">
        <ele>569</ele>
        <time>2022-09-29T14:13:37Z</time>
      </trkpt>
      <trkpt lat="44.40309" lon="5.21719">
        <ele>569</ele>
        <time>2022-09-29T14:13:38Z</time>
      </trkpt>
      <trkpt lat="44.40309" lon="5.21718">
        <ele>569</ele>
        <time>2022-09-29T14:13:39Z</time>
      </trkpt>
      <trkpt lat="44.40308" lon="5.21717">
        <ele>569</ele>
        <time>2022-09-29T14:13:40Z</time>
      </trkpt>
      <trkpt lat="44.40307" lon="5.21717">
        <ele>569</ele>
        <time>2022-09-29T14:13:41Z</time>
      </trkpt>
      <trkpt lat="44.40307" lon="5.21716">
        <ele>569</ele>
        <time>2022-09-29T14:13:42Z</time>
      </trkpt>
      <trkpt lat="44.40307" lon="5.21715">
        <ele>569</ele>
        <time>2022-09-29T14:13:43Z</time>
      </trkpt>
      <trkpt lat="44.40306" lon="5.21714">
        <ele>569</ele>
        <time>2022-09-29T14:14:12Z</time>
      </trkpt>
      <trkpt lat="44.40305" lon="5.21713">
        <ele>569</ele>
        <time>2022-09-29T14:14:13Z</time>
      </trkpt>
      <trkpt lat="44.40304" lon="5.21712">
        <ele>569</ele>
        <time>2022-09-29T14:14:14Z</time>
      </trkpt>
      <trkpt lat="44.40304" lon="5.21711">
        <ele>569</ele>
        <time>2022-09-29T14:14:15Z</time>
      </trkpt>
      <trkpt lat="44.40304" lon="5.2171">
        <ele>569</ele>
        <time>2022-09-29T14:14:16Z</time>
      </trkpt>
      <trkpt lat="44.40303" lon="5.2171">
        <ele>569</ele>
        <time>2022-09-29T14:14:17Z</time>
      </trkpt>
      <trkpt lat="44.40303" lon="5.21709">
        <ele>569</ele>
        <time>2022-09-29T14:14:18Z</time>
      </trkpt>
      <trkpt lat="44.40302" lon="5.21708">
        <ele>569</ele>
        <time>2022-09-29T14:14:19Z</time>
      </trkpt>
      <trkpt lat="44.40302" lon="5.21707">
        <ele>569</ele>
        <time>2022-09-29T14:14:20Z</time>
      </trkpt>
      <trkpt lat="44.40301" lon="5.21707">
        <ele>569</ele>
        <time>2022-09-29T14:14:21Z</time>
      </trkpt>
      <trkpt lat="44.40301" lon="5.21706">
        <ele>569</ele>
        <time>2022-09-29T14:14:22Z</time>
      </trkpt>
      <trkpt lat="44.403" lon="5.21706">
        <ele>569</ele>
        <time>2022-09-29T14:14:23Z</time>
      </trkpt>
      <trkpt lat="44.403" lon="5.21705">
        <ele>569</ele>
        <time>2022-09-29T14:14:24Z</time>
      </trkpt>
      <trkpt lat="44.403" lon="5.21704">
        <ele>569</ele>
        <time>2022-09-29T14:14:25Z</time>
      </trkpt>
      <trkpt lat="44.40299" lon="5.21704">
        <ele>569</ele>
        <time>2022-09-29T14:14:26Z</time>
      </trkpt>
      <trkpt lat="44.40299" lon="5.21703">
        <ele>569</ele>
        <time>2022-09-29T14:14:27Z</time>
      </trkpt>
      <trkpt lat="44.40299" lon="5.21702">
        <ele>569</ele>
        <time>2022-09-29T14:14:28Z</time>
      </trkpt>
      <trkpt lat="44.40298" lon="5.21701">
        <ele>569</ele>
        <time>2022-09-29T14:14:29Z</time>
      </trkpt>
      <trkpt lat="44.40298" lon="5.217">
        <ele>569</ele>
        <time>2022-09-29T14:14:30Z</time>
      </trkpt>
      <trkpt lat="44.40297" lon="5.21699">
        <ele>569</ele>
        <time>2022-09-29T14:14:31Z</time>
      </trkpt>
      <trkpt lat="44.40297" lon="5.21699">
        <ele>569</ele>
        <time>2022-09-29T14:14:32Z</time>
      </trkpt>
      <trkpt lat="44.40296" lon="5.21698">
        <ele>569</ele>
        <time>2022-09-29T14:14:33Z</time>
      </trkpt>
      <trkpt lat="44.40296" lon="5.21697">
        <ele>569</ele>
        <time>2022-09-29T14:14:34Z</time>
      </trkpt>
      <trkpt lat="44.40295" lon="5.21696">
        <ele>569</ele>
        <time>2022-09-29T14:14:35Z</time>
      </trkpt>
      <trkpt lat="44.40295" lon="5.21695">
        <ele>569</ele>
        <time>2022-09-29T14:14:36Z</time>
      </trkpt>
      <trkpt lat="44.40294" lon="5.21693">
        <ele>569</ele>
        <time>2022-09-29T14:14:37Z</time>
      </trkpt>
      <trkpt lat="44.40294" lon="5.21692">
        <ele>569</ele>
        <time>2022-09-29T14:14:38Z</time>
      </trkpt>
      <trkpt lat="44.40293" lon="5.21691">
        <ele>568</ele>
        <time>2022-09-29T14:14:39Z</time>
      </trkpt>
      <trkpt lat="44.40293" lon="5.2169">
        <ele>568</ele>
        <time>2022-09-29T14:14:40Z</time>
      </trkpt>
      <trkpt lat="44.40292" lon="5.21689">
        <ele>568</ele>
        <time>2022-09-29T14:14:41Z</time>
      </trkpt>
      <trkpt lat="44.40291" lon="5.21688">
        <ele>568</ele>
        <time>2022-09-29T14:14:42Z</time>
      </trkpt>
      <trkpt lat="44.4029" lon="5.21687">
        <ele>568</ele>
        <time>2022-09-29T14:14:43Z</time>
      </trkpt>
      <trkpt lat="44.40289" lon="5.21686">
        <ele>568</ele>
        <time>2022-09-29T14:14:44Z</time>
      </trkpt>
      <trkpt lat="44.40289" lon="5.21685">
        <ele>568</ele>
        <time>2022-09-29T14:14:45Z</time>
      </trkpt>
      <trkpt lat="44.40288" lon="5.21684">
        <ele>568</ele>
        <time>2022-09-29T14:14:46Z</time>
      </trkpt>
      <trkpt lat="44.40287" lon="5.21683">
        <ele>568</ele>
        <time>2022-09-29T14:14:47Z</time>
      </trkpt>
      <trkpt lat="44.40286" lon="5.21682">
        <ele>568</ele>
        <time>2022-09-29T14:14:48Z</time>
      </trkpt>
      <trkpt lat="44.40286" lon="5.21681">
        <ele>568</ele>
        <time>2022-09-29T14:14:49Z</time>
      </trkpt>
      <trkpt lat="44.40285" lon="5.21679">
        <ele>568</ele>
        <time>2022-09-29T14:14:50Z</time>
      </trkpt>
      <trkpt lat="44.40285" lon="5.21678">
        <ele>568</ele>
        <time>2022-09-29T14:14:51Z</time>
      </trkpt>
      <trkpt lat="44.40284" lon="5.21677">
        <ele>568</ele>
        <time>2022-09-29T14:14:52Z</time>
      </trkpt>
      <trkpt lat="44.40283" lon="5.21676">
        <ele>568</ele>
        <time>2022-09-29T14:14:53Z</time>
      </trkpt>
      <trkpt lat="44.40283" lon="5.21675">
        <ele>568</ele>
        <time>2022-09-29T14:14:54Z</time>
      </trkpt>
      <trkpt lat="44.40282" lon="5.21673">
        <ele>568</ele>
        <time>2022-09-29T14:14:55Z</time>
      </trkpt>
      <trkpt lat="44.40281" lon="5.21672">
        <ele>568</ele>
        <time>2022-09-29T14:14:56Z</time>
      </trkpt>
      <trkpt lat="44.40281" lon="5.21671">
        <ele>568</ele>
        <time>2022-09-29T14:14:57Z</time>
      </trkpt>
      <trkpt lat="44.4028" lon="5.2167">
        <ele>568</ele>
        <time>2022-09-29T14:14:58Z</time>
      </trkpt>
      <trkpt lat="44.40279" lon="5.21669">
        <ele>567</ele>
        <time>2022-09-29T14:14:59Z</time>
      </trkpt>
      <trkpt lat="44.40279" lon="5.21668">
        <ele>567</ele>
        <time>2022-09-29T14:15:00Z</time>
      </trkpt>
      <trkpt lat="44.40278" lon="5.21667">
        <ele>567</ele>
        <time>2022-09-29T14:15:01Z</time>
      </trkpt>
      <trkpt lat="44.40277" lon="5.21666">
        <ele>567</ele>
        <time>2022-09-29T14:15:02Z</time>
      </trkpt>
      <trkpt lat="44.40276" lon="5.21666">
        <ele>567</ele>
        <time>2022-09-29T14:15:03Z</time>
      </trkpt>
      <trkpt lat="44.40275" lon="5.21665">
        <ele>567</ele>
        <time>2022-09-29T14:15:04Z</time>
      </trkpt>
      <trkpt lat="44.40274" lon="5.21664">
        <ele>567</ele>
        <time>2022-09-29T14:15:05Z</time>
      </trkpt>
      <trkpt lat="44.40273" lon="5.21664">
        <ele>567</ele>
        <time>2022-09-29T14:15:06Z</time>
      </trkpt>
      <trkpt lat="44.40272" lon="5.21663">
        <ele>567</ele>
        <time>2022-09-29T14:15:07Z</time>
      </trkpt>
      <trkpt lat="44.40271" lon="5.21663">
        <ele>567</ele>
        <time>2022-09-29T14:15:08Z</time>
      </trkpt>
      <trkpt lat="44.4027" lon="5.21662">
        <ele>567</ele>
        <time>2022-09-29T14:15:09Z</time>
      </trkpt>
      <trkpt lat="44.40269" lon="5.21662">
        <ele>567</ele>
        <time>2022-09-29T14:15:10Z</time>
      </trkpt>
      <trkpt lat="44.40268" lon="5.21662">
        <ele>567</ele>
        <time>2022-09-29T14:15:11Z</time>
      </trkpt>
      <trkpt lat="44.40267" lon="5.21661">
        <ele>567</ele>
        <time>2022-09-29T14:15:12Z</time>
      </trkpt>
      <trkpt lat="44.40266" lon="5.21661">
        <ele>567</ele>
        <time>2022-09-29T14:15:13Z</time>
      </trkpt>
      <trkpt lat="44.40265" lon="5.2166">
        <ele>566</ele>
        <time>2022-09-29T14:15:14Z</time>
      </trkpt>
      <trkpt lat="44.40264" lon="5.2166">
        <ele>566</ele>
        <time>2022-09-29T14:15:15Z</time>
      </trkpt>
      <trkpt lat="44.40263" lon="5.2166">
        <ele>566</ele>
        <time>2022-09-29T14:15:16Z</time>
      </trkpt>
      <trkpt lat="44.40262" lon="5.2166">
        <ele>566</ele>
        <time>2022-09-29T14:15:17Z</time>
      </trkpt>
      <trkpt lat="44.40261" lon="5.2166">
        <ele>566</ele>
        <time>2022-09-29T14:15:18Z</time>
      </trkpt>
      <trkpt lat="44.4026" lon="5.2166">
        <ele>566</ele>
        <time>2022-09-29T14:15:19Z</time>
      </trkpt>
      <trkpt lat="44.40259" lon="5.21659">
        <ele>566</ele>
        <time>2022-09-29T14:15:20Z</time>
      </trkpt>
      <trkpt lat="44.40258" lon="5.21659">
        <ele>566</ele>
        <time>2022-09-29T14:15:21Z</time>
      </trkpt>
      <trkpt lat="44.40257" lon="5.21659">
        <ele>566</ele>
        <time>2022-09-29T14:15:22Z</time>
      </trkpt>
      <trkpt lat="44.40256" lon="5.21658">
        <ele>566</ele>
        <time>2022-09-29T14:15:23Z</time>
      </trkpt>
      <trkpt lat="44.40255" lon="5.21658">
        <ele>565</ele>
        <time>2022-09-29T14:15:24Z</time>
      </trkpt>
      <trkpt lat="44.40254" lon="5.21658">
        <ele>565</ele>
        <time>2022-09-29T14:15:25Z</time>
      </trkpt>
      <trkpt lat="44.40253" lon="5.21658">
        <ele>565</ele>
        <time>2022-09-29T14:15:26Z</time>
      </trkpt>
      <trkpt lat="44.40252" lon="5.21658">
        <ele>565</ele>
        <time>2022-09-29T14:15:27Z</time>
      </trkpt>
      <trkpt lat="44.40251" lon="5.21658">
        <ele>565</ele>
        <time>2022-09-29T14:15:28Z</time>
      </trkpt>
      <trkpt lat="44.4025" lon="5.21658">
        <ele>564</ele>
        <time>2022-09-29T14:15:29Z</time>
      </trkpt>
      <trkpt lat="44.40248" lon="5.21658">
        <ele>564</ele>
        <time>2022-09-29T14:15:30Z</time>
      </trkpt>
      <trkpt lat="44.40247" lon="5.21658">
        <ele>564</ele>
        <time>2022-09-29T14:15:31Z</time>
      </trkpt>
      <trkpt lat="44.40246" lon="5.21658">
        <ele>564</ele>
        <time>2022-09-29T14:15:32Z</time>
      </trkpt>
      <trkpt lat="44.40245" lon="5.21658">
        <ele>564</ele>
        <time>2022-09-29T14:15:33Z</time>
      </trkpt>
      <trkpt lat="44.40244" lon="5.21657">
        <ele>564</ele>
        <time>2022-09-29T14:15:34Z</time>
      </trkpt>
      <trkpt lat="44.40243" lon="5.21657">
        <ele>564</ele>
        <time>2022-09-29T14:15:35Z</time>
      </trkpt>
      <trkpt lat="44.40242" lon="5.21657">
        <ele>564</ele>
        <time>2022-09-29T14:15:36Z</time>
      </trkpt>
      <trkpt lat="44.40241" lon="5.21656">
        <ele>564</ele>
        <time>2022-09-29T14:15:37Z</time>
      </trkpt>
      <trkpt lat="44.4024" lon="5.21656">
        <ele>564</ele>
        <time>2022-09-29T14:15:38Z</time>
      </trkpt>
      <trkpt lat="44.40239" lon="5.21655">
        <ele>563</ele>
        <time>2022-09-29T14:15:39Z</time>
      </trkpt>
      <trkpt lat="44.40238" lon="5.21655">
        <ele>563</ele>
        <time>2022-09-29T14:15:40Z</time>
      </trkpt>
      <trkpt lat="44.40237" lon="5.21655">
        <ele>563</ele>
        <time>2022-09-29T14:15:41Z</time>
      </trkpt>
      <trkpt lat="44.40235" lon="5.21654">
        <ele>563</ele>
        <time>2022-09-29T14:15:42Z</time>
      </trkpt>
      <trkpt lat="44.40234" lon="5.21654">
        <ele>563</ele>
        <time>2022-09-29T14:15:43Z</time>
      </trkpt>
      <trkpt lat="44.40233" lon="5.21653">
        <ele>563</ele>
        <time>2022-09-29T14:15:44Z</time>
      </trkpt>
      <trkpt lat="44.40232" lon="5.21653">
        <ele>563</ele>
        <time>2022-09-29T14:15:45Z</time>
      </trkpt>
      <trkpt lat="44.40231" lon="5.21653">
        <ele>563</ele>
        <time>2022-09-29T14:15:46Z</time>
      </trkpt>
      <trkpt lat="44.4023" lon="5.21653">
        <ele>563</ele>
        <time>2022-09-29T14:15:47Z</time>
      </trkpt>
      <trkpt lat="44.40229" lon="5.21653">
        <ele>563</ele>
        <time>2022-09-29T14:15:48Z</time>
      </trkpt>
      <trkpt lat="44.40228" lon="5.21653">
        <ele>562</ele>
        <time>2022-09-29T14:15:49Z</time>
      </trkpt>
      <trkpt lat="44.40227" lon="5.21653">
        <ele>562</ele>
        <time>2022-09-29T14:15:50Z</time>
      </trkpt>
      <trkpt lat="44.40226" lon="5.21653">
        <ele>562</ele>
        <time>2022-09-29T14:15:51Z</time>
      </trkpt>
      <trkpt lat="44.40225" lon="5.21652">
        <ele>562</ele>
        <time>2022-09-29T14:15:52Z</time>
      </trkpt>
      <trkpt lat="44.40224" lon="5.21652">
        <ele>562</ele>
        <time>2022-09-29T14:15:53Z</time>
      </trkpt>
      <trkpt lat="44.40223" lon="5.21652">
        <ele>562</ele>
        <time>2022-09-29T14:15:54Z</time>
      </trkpt>
      <trkpt lat="44.40222" lon="5.21652">
        <ele>562</ele>
        <time>2022-09-29T14:15:55Z</time>
      </trkpt>
      <trkpt lat="44.40222" lon="5.21652">
        <ele>562</ele>
        <time>2022-09-29T14:15:56Z</time>
      </trkpt>
      <trkpt lat="44.40221" lon="5.21652">
        <ele>562</ele>
        <time>2022-09-29T14:15:57Z</time>
      </trkpt>
      <trkpt lat="44.4022" lon="5.21652">
        <ele>562</ele>
        <time>2022-09-29T14:15:58Z</time>
      </trkpt>
      <trkpt lat="44.4022" lon="5.21652">
        <ele>561</ele>
        <time>2022-09-29T14:15:59Z</time>
      </trkpt>
      <trkpt lat="44.40219" lon="5.21652">
        <ele>561</ele>
        <time>2022-09-29T14:16:00Z</time>
      </trkpt>
      <trkpt lat="44.40218" lon="5.21652">
        <ele>561</ele>
        <time>2022-09-29T14:16:01Z</time>
      </trkpt>
      <trkpt lat="44.40217" lon="5.21652">
        <ele>561</ele>
        <time>2022-09-29T14:16:02Z</time>
      </trkpt>
      <trkpt lat="44.40217" lon="5.21652">
        <ele>561</ele>
        <time>2022-09-29T14:16:03Z</time>
      </trkpt>
      <trkpt lat="44.40216" lon="5.21652">
        <ele>560</ele>
        <time>2022-09-29T14:16:04Z</time>
      </trkpt>
      <trkpt lat="44.40215" lon="5.21651">
        <ele>560</ele>
        <time>2022-09-29T14:16:05Z</time>
      </trkpt>
      <trkpt lat="44.40214" lon="5.21651">
        <ele>560</ele>
        <time>2022-09-29T14:16:06Z</time>
      </trkpt>
      <trkpt lat="44.40213" lon="5.2165">
        <ele>560</ele>
        <time>2022-09-29T14:16:07Z</time>
      </trkpt>
      <trkpt lat="44.40213" lon="5.21649">
        <ele>560</ele>
        <time>2022-09-29T14:16:08Z</time>
      </trkpt>
      <trkpt lat="44.40212" lon="5.21648">
        <ele>560</ele>
        <time>2022-09-29T14:16:09Z</time>
      </trkpt>
      <trkpt lat="44.40212" lon="5.21647">
        <ele>560</ele>
        <time>2022-09-29T14:16:10Z</time>
      </trkpt>
      <trkpt lat="44.40212" lon="5.21646">
        <ele>560</ele>
        <time>2022-09-29T14:16:11Z</time>
      </trkpt>
      <trkpt lat="44.40212" lon="5.21645">
        <ele>560</ele>
        <time>2022-09-29T14:16:12Z</time>
      </trkpt>
      <trkpt lat="44.40212" lon="5.21644">
        <ele>560</ele>
        <time>2022-09-29T14:16:13Z</time>
      </trkpt>
      <trkpt lat="44.40212" lon="5.21643">
        <ele>559</ele>
        <time>2022-09-29T14:16:14Z</time>
      </trkpt>
      <trkpt lat="44.40212" lon="5.21643">
        <ele>559</ele>
        <time>2022-09-29T14:16:15Z</time>
      </trkpt>
      <trkpt lat="44.40212" lon="5.21642">
        <ele>559</ele>
        <time>2022-09-29T14:16:16Z</time>
      </trkpt>
      <trkpt lat="44.40213" lon="5.21641">
        <ele>559</ele>
        <time>2022-09-29T14:16:17Z</time>
      </trkpt>
      <trkpt lat="44.40213" lon="5.2164">
        <ele>559</ele>
        <time>2022-09-29T14:16:18Z</time>
      </trkpt>
      <trkpt lat="44.40214" lon="5.21639">
        <ele>559</ele>
        <time>2022-09-29T14:16:19Z</time>
      </trkpt>
      <trkpt lat="44.40215" lon="5.21638">
        <ele>559</ele>
        <time>2022-09-29T14:16:20Z</time>
      </trkpt>
      <trkpt lat="44.40216" lon="5.21637">
        <ele>559</ele>
        <time>2022-09-29T14:16:21Z</time>
      </trkpt>
      <trkpt lat="44.40216" lon="5.21636">
        <ele>559</ele>
        <time>2022-09-29T14:16:22Z</time>
      </trkpt>
      <trkpt lat="44.40217" lon="5.21635">
        <ele>559</ele>
        <time>2022-09-29T14:16:23Z</time>
      </trkpt>
      <trkpt lat="44.40218" lon="5.21634">
        <ele>558</ele>
        <time>2022-09-29T14:16:24Z</time>
      </trkpt>
      <trkpt lat="44.40219" lon="5.21633">
        <ele>558</ele>
        <time>2022-09-29T14:16:25Z</time>
      </trkpt>
      <trkpt lat="44.4022" lon="5.21632">
        <ele>558</ele>
        <time>2022-09-29T14:16:26Z</time>
      </trkpt>
      <trkpt lat="44.4022" lon="5.21631">
        <ele>558</ele>
        <time>2022-09-29T14:16:27Z</time>
      </trkpt>
      <trkpt lat="44.40221" lon="5.21629">
        <ele>558</ele>
        <time>2022-09-29T14:16:28Z</time>
      </trkpt>
      <trkpt lat="44.40222" lon="5.21628">
        <ele>557</ele>
        <time>2022-09-29T14:16:29Z</time>
      </trkpt>
      <trkpt lat="44.40223" lon="5.21627">
        <ele>557</ele>
        <time>2022-09-29T14:16:30Z</time>
      </trkpt>
      <trkpt lat="44.40224" lon="5.21626">
        <ele>557</ele>
        <time>2022-09-29T14:16:31Z</time>
      </trkpt>
      <trkpt lat="44.40225" lon="5.21624">
        <ele>557</ele>
        <time>2022-09-29T14:16:32Z</time>
      </trkpt>
      <trkpt lat="44.40225" lon="5.21623">
        <ele>557</ele>
        <time>2022-09-29T14:16:33Z</time>
      </trkpt>
      <trkpt lat="44.40226" lon="5.21623">
        <ele>556</ele>
        <time>2022-09-29T14:16:34Z</time>
      </trkpt>
      <trkpt lat="44.40227" lon="5.21622">
        <ele>556</ele>
        <time>2022-09-29T14:16:35Z</time>
      </trkpt>
      <trkpt lat="44.40227" lon="5.21621">
        <ele>556</ele>
        <time>2022-09-29T14:16:36Z</time>
      </trkpt>
      <trkpt lat="44.40228" lon="5.2162">
        <ele>556</ele>
        <time>2022-09-29T14:16:37Z</time>
      </trkpt>
      <trkpt lat="44.40229" lon="5.21619">
        <ele>556</ele>
        <time>2022-09-29T14:16:38Z</time>
      </trkpt>
      <trkpt lat="44.40229" lon="5.21618">
        <ele>556</ele>
        <time>2022-09-29T14:16:39Z</time>
      </trkpt>
      <trkpt lat="44.4023" lon="5.21617">
        <ele>556</ele>
        <time>2022-09-29T14:16:40Z</time>
      </trkpt>
      <trkpt lat="44.4023" lon="5.21616">
        <ele>556</ele>
        <time>2022-09-29T14:16:41Z</time>
      </trkpt>
      <trkpt lat="44.40231" lon="5.21615">
        <ele>556</ele>
        <time>2022-09-29T14:16:42Z</time>
      </trkpt>
      <trkpt lat="44.40232" lon="5.21613">
        <ele>556</ele>
        <time>2022-09-29T14:16:43Z</time>
      </trkpt>
      <trkpt lat="44.40232" lon="5.21612">
        <ele>555</ele>
        <time>2022-09-29T14:16:44Z</time>
      </trkpt>
      <trkpt lat="44.40232" lon="5.21611">
        <ele>555</ele>
        <time>2022-09-29T14:16:45Z</time>
      </trkpt>
      <trkpt lat="44.40233" lon="5.21609">
        <ele>555</ele>
        <time>2022-09-29T14:16:46Z</time>
      </trkpt>
      <trkpt lat="44.40233" lon="5.21608">
        <ele>555</ele>
        <time>2022-09-29T14:16:47Z</time>
      </trkpt>
      <trkpt lat="44.40234" lon="5.21606">
        <ele>555</ele>
        <time>2022-09-29T14:16:48Z</time>
      </trkpt>
      <trkpt lat="44.40234" lon="5.21605">
        <ele>554</ele>
        <time>2022-09-29T14:16:49Z</time>
      </trkpt>
      <trkpt lat="44.40234" lon="5.21603">
        <ele>554</ele>
        <time>2022-09-29T14:16:50Z</time>
      </trkpt>
      <trkpt lat="44.40234" lon="5.21602">
        <ele>554</ele>
        <time>2022-09-29T14:16:51Z</time>
      </trkpt>
      <trkpt lat="44.40235" lon="5.216">
        <ele>554</ele>
        <time>2022-09-29T14:16:52Z</time>
      </trkpt>
      <trkpt lat="44.40235" lon="5.21599">
        <ele>554</ele>
        <time>2022-09-29T14:16:53Z</time>
      </trkpt>
      <trkpt lat="44.40235" lon="5.21597">
        <ele>553</ele>
        <time>2022-09-29T14:16:54Z</time>
      </trkpt>
      <trkpt lat="44.40235" lon="5.21596">
        <ele>553</ele>
        <time>2022-09-29T14:16:55Z</time>
      </trkpt>
      <trkpt lat="44.40236" lon="5.21595">
        <ele>553</ele>
        <time>2022-09-29T14:16:56Z</time>
      </trkpt>
      <trkpt lat="44.40236" lon="5.21593">
        <ele>553</ele>
        <time>2022-09-29T14:16:57Z</time>
      </trkpt>
      <trkpt lat="44.40236" lon="5.21592">
        <ele>553</ele>
        <time>2022-09-29T14:16:58Z</time>
      </trkpt>
      <trkpt lat="44.40236" lon="5.2159">
        <ele>553</ele>
        <time>2022-09-29T14:16:59Z</time>
      </trkpt>
      <trkpt lat="44.40236" lon="5.21589">
        <ele>553</ele>
        <time>2022-09-29T14:17:00Z</time>
      </trkpt>
      <trkpt lat="44.40237" lon="5.21587">
        <ele>553</ele>
        <time>2022-09-29T14:17:01Z</time>
      </trkpt>
      <trkpt lat="44.40237" lon="5.21585">
        <ele>553</ele>
        <time>2022-09-29T14:17:02Z</time>
      </trkpt>
      <trkpt lat="44.40237" lon="5.21584">
        <ele>553</ele>
        <time>2022-09-29T14:17:03Z</time>
      </trkpt>
      <trkpt lat="44.40237" lon="5.21583">
        <ele>552</ele>
        <time>2022-09-29T14:17:04Z</time>
      </trkpt>
      <trkpt lat="44.40237" lon="5.21581">
        <ele>552</ele>
        <time>2022-09-29T14:17:05Z</time>
      </trkpt>
      <trkpt lat="44.40237" lon="5.2158">
        <ele>551</ele>
        <time>2022-09-29T14:17:06Z</time>
      </trkpt>
      <trkpt lat="44.40236" lon="5.21578">
        <ele>551</ele>
        <time>2022-09-29T14:17:07Z</time>
      </trkpt>
      <trkpt lat="44.40236" lon="5.21577">
        <ele>551</ele>
        <time>2022-09-29T14:17:08Z</time>
      </trkpt>
      <trkpt lat="44.40236" lon="5.21575">
        <ele>550</ele>
        <time>2022-09-29T14:17:09Z</time>
      </trkpt>
      <trkpt lat="44.40236" lon="5.21573">
        <ele>550</ele>
        <time>2022-09-29T14:17:10Z</time>
      </trkpt>
      <trkpt lat="44.40236" lon="5.21572">
        <ele>550</ele>
        <time>2022-09-29T14:17:11Z</time>
      </trkpt>
      <trkpt lat="44.40237" lon="5.2157">
        <ele>550</ele>
        <time>2022-09-29T14:17:12Z</time>
      </trkpt>
      <trkpt lat="44.40237" lon="5.21569">
        <ele>550</ele>
        <time>2022-09-29T14:17:13Z</time>
      </trkpt>
      <trkpt lat="44.40237" lon="5.21567">
        <ele>549</ele>
        <time>2022-09-29T14:17:14Z</time>
      </trkpt>
      <trkpt lat="44.40236" lon="5.21566">
        <ele>549</ele>
        <time>2022-09-29T14:17:15Z</time>
      </trkpt>
      <trkpt lat="44.40236" lon="5.21564">
        <ele>549</ele>
        <time>2022-09-29T14:17:16Z</time>
      </trkpt>
      <trkpt lat="44.40236" lon="5.21563">
        <ele>549</ele>
        <time>2022-09-29T14:17:17Z</time>
      </trkpt>
      <trkpt lat="44.40236" lon="5.21561">
        <ele>549</ele>
        <time>2022-09-29T14:17:18Z</time>
      </trkpt>
      <trkpt lat="44.40236" lon="5.2156">
        <ele>549</ele>
        <time>2022-09-29T14:17:19Z</time>
      </trkpt>
      <trkpt lat="44.40236" lon="5.21559">
        <ele>549</ele>
        <time>2022-09-29T14:17:20Z</time>
      </trkpt>
      <trkpt lat="44.40235" lon="5.21557">
        <ele>549</ele>
        <time>2022-09-29T14:17:21Z</time>
      </trkpt>
      <trkpt lat="44.40235" lon="5.21556">
        <ele>549</ele>
        <time>2022-09-29T14:17:22Z</time>
      </trkpt>
      <trkpt lat="44.40235" lon="5.21554">
        <ele>549</ele>
        <time>2022-09-29T14:17:23Z</time>
      </trkpt>
      <trkpt lat="44.40235" lon="5.21553">
        <ele>548</ele>
        <time>2022-09-29T14:17:24Z</time>
      </trkpt>
      <trkpt lat="44.40235" lon="5.21552">
        <ele>548</ele>
        <time>2022-09-29T14:17:25Z</time>
      </trkpt>
      <trkpt lat="44.40235" lon="5.2155">
        <ele>548</ele>
        <time>2022-09-29T14:17:26Z</time>
      </trkpt>
      <trkpt lat="44.40235" lon="5.21549">
        <ele>548</ele>
        <time>2022-09-29T14:17:27Z</time>
      </trkpt>
      <trkpt lat="44.40235" lon="5.21547">
        <ele>548</ele>
        <time>2022-09-29T14:17:28Z</time>
      </trkpt>
      <trkpt lat="44.40236" lon="5.21546">
        <ele>548</ele>
        <time>2022-09-29T14:17:29Z</time>
      </trkpt>
      <trkpt lat="44.40236" lon="5.21544">
        <ele>548</ele>
        <time>2022-09-29T14:17:30Z</time>
      </trkpt>
      <trkpt lat="44.40236" lon="5.21543">
        <ele>548</ele>
        <time>2022-09-29T14:17:31Z</time>
      </trkpt>
      <trkpt lat="44.40237" lon="5.21541">
        <ele>548</ele>
        <time>2022-09-29T14:17:32Z</time>
      </trkpt>
      <trkpt lat="44.40237" lon="5.2154">
        <ele>548</ele>
        <time>2022-09-29T14:17:33Z</time>
      </trkpt>
      <trkpt lat="44.40237" lon="5.21539">
        <ele>547</ele>
        <time>2022-09-29T14:17:34Z</time>
      </trkpt>
      <trkpt lat="44.40238" lon="5.21538">
        <ele>547</ele>
        <time>2022-09-29T14:17:35Z</time>
      </trkpt>
      <trkpt lat="44.40239" lon="5.21536">
        <ele>547</ele>
        <time>2022-09-29T14:17:36Z</time>
      </trkpt>
      <trkpt lat="44.40239" lon="5.21535">
        <ele>547</ele>
        <time>2022-09-29T14:17:37Z</time>
      </trkpt>
      <trkpt lat="44.4024" lon="5.21534">
        <ele>547</ele>
        <time>2022-09-29T14:17:38Z</time>
      </trkpt>
      <trkpt lat="44.4024" lon="5.21533">
        <ele>546</ele>
        <time>2022-09-29T14:17:39Z</time>
      </trkpt>
      <trkpt lat="44.4024" lon="5.21532">
        <ele>546</ele>
        <time>2022-09-29T14:17:40Z</time>
      </trkpt>
      <trkpt lat="44.40241" lon="5.21531">
        <ele>546</ele>
        <time>2022-09-29T14:17:41Z</time>
      </trkpt>
      <trkpt lat="44.40241" lon="5.21529">
        <ele>546</ele>
        <time>2022-09-29T14:17:42Z</time>
      </trkpt>
      <trkpt lat="44.40241" lon="5.21528">
        <ele>546</ele>
        <time>2022-09-29T14:17:43Z</time>
      </trkpt>
      <trkpt lat="44.40242" lon="5.21527">
        <ele>546</ele>
        <time>2022-09-29T14:17:44Z</time>
      </trkpt>
      <trkpt lat="44.40242" lon="5.21526">
        <ele>546</ele>
        <time>2022-09-29T14:17:45Z</time>
      </trkpt>
      <trkpt lat="44.40243" lon="5.21525">
        <ele>546</ele>
        <time>2022-09-29T14:17:46Z</time>
      </trkpt>
      <trkpt lat="44.40243" lon="5.21523">
        <ele>546</ele>
        <time>2022-09-29T14:17:47Z</time>
      </trkpt>
      <trkpt lat="44.40244" lon="5.21522">
        <ele>546</ele>
        <time>2022-09-29T14:17:48Z</time>
      </trkpt>
      <trkpt lat="44.40244" lon="5.21521">
        <ele>546</ele>
        <time>2022-09-29T14:17:49Z</time>
      </trkpt>
      <trkpt lat="44.40245" lon="5.2152">
        <ele>546</ele>
        <time>2022-09-29T14:17:50Z</time>
      </trkpt>
      <trkpt lat="44.40246" lon="5.21518">
        <ele>546</ele>
        <time>2022-09-29T14:17:51Z</time>
      </trkpt>
      <trkpt lat="44.40247" lon="5.21517">
        <ele>546</ele>
        <time>2022-09-29T14:17:52Z</time>
      </trkpt>
      <trkpt lat="44.40248" lon="5.21516">
        <ele>546</ele>
        <time>2022-09-29T14:17:53Z</time>
      </trkpt>
      <trkpt lat="44.40248" lon="5.21515">
        <ele>545</ele>
        <time>2022-09-29T14:17:54Z</time>
      </trkpt>
      <trkpt lat="44.40249" lon="5.21514">
        <ele>545</ele>
        <time>2022-09-29T14:17:55Z</time>
      </trkpt>
      <trkpt lat="44.4025" lon="5.21513">
        <ele>545</ele>
        <time>2022-09-29T14:17:56Z</time>
      </trkpt>
      <trkpt lat="44.40251" lon="5.21512">
        <ele>545</ele>
        <time>2022-09-29T14:17:57Z</time>
      </trkpt>
      <trkpt lat="44.40252" lon="5.21511">
        <ele>545</ele>
        <time>2022-09-29T14:17:58Z</time>
      </trkpt>
      <trkpt lat="44.40253" lon="5.2151">
        <ele>545</ele>
        <time>2022-09-29T14:17:59Z</time>
      </trkpt>
      <trkpt lat="44.40254" lon="5.2151">
        <ele>545</ele>
        <time>2022-09-29T14:18:00Z</time>
      </trkpt>
      <trkpt lat="44.40255" lon="5.21509">
        <ele>545</ele>
        <time>2022-09-29T14:18:01Z</time>
      </trkpt>
      <trkpt lat="44.40256" lon="5.21508">
        <ele>545</ele>
        <time>2022-09-29T14:18:02Z</time>
      </trkpt>
      <trkpt lat="44.40257" lon="5.21508">
        <ele>545</ele>
        <time>2022-09-29T14:18:03Z</time>
      </trkpt>
      <trkpt lat="44.40258" lon="5.21508">
        <ele>544</ele>
        <time>2022-09-29T14:18:04Z</time>
      </trkpt>
      <trkpt lat="44.4026" lon="5.21507">
        <ele>544</ele>
        <time>2022-09-29T14:18:05Z</time>
      </trkpt>
      <trkpt lat="44.40261" lon="5.21507">
        <ele>544</ele>
        <time>2022-09-29T14:18:06Z</time>
      </trkpt>
      <trkpt lat="44.40262" lon="5.21507">
        <ele>544</ele>
        <time>2022-09-29T14:18:07Z</time>
      </trkpt>
      <trkpt lat="44.40263" lon="5.21507">
        <ele>544</ele>
        <time>2022-09-29T14:18:08Z</time>
      </trkpt>
      <trkpt lat="44.40264" lon="5.21507">
        <ele>543</ele>
        <time>2022-09-29T14:18:09Z</time>
      </trkpt>
      <trkpt lat="44.40265" lon="5.21506">
        <ele>543</ele>
        <time>2022-09-29T14:18:10Z</time>
      </trkpt>
      <trkpt lat="44.40266" lon="5.21506">
        <ele>543</ele>
        <time>2022-09-29T14:18:11Z</time>
      </trkpt>
      <trkpt lat="44.40267" lon="5.21506">
        <ele>543</ele>
        <time>2022-09-29T14:18:12Z</time>
      </trkpt>
      <trkpt lat="44.40268" lon="5.21506">
        <ele>543</ele>
        <time>2022-09-29T14:18:13Z</time>
      </trkpt>
      <trkpt lat="44.40269" lon="5.21505">
        <ele>543</ele>
        <time>2022-09-29T14:18:14Z</time>
      </trkpt>
      <trkpt lat="44.4027" lon="5.21505">
        <ele>543</ele>
        <time>2022-09-29T14:18:15Z</time>
      </trkpt>
      <trkpt lat="44.40271" lon="5.21505">
        <ele>543</ele>
        <time>2022-09-29T14:18:16Z</time>
      </trkpt>
      <trkpt lat="44.40272" lon="5.21505">
        <ele>543</ele>
        <time>2022-09-29T14:18:17Z</time>
      </trkpt>
      <trkpt lat="44.40273" lon="5.21505">
        <ele>543</ele>
        <time>2022-09-29T14:18:18Z</time>
      </trkpt>
      <trkpt lat="44.40274" lon="5.21505">
        <ele>542</ele>
        <time>2022-09-29T14:18:19Z</time>
      </trkpt>
      <trkpt lat="44.40275" lon="5.21505">
        <ele>542</ele>
        <time>2022-09-29T14:18:20Z</time>
      </trkpt>
      <trkpt lat="44.40276" lon="5.21506">
        <ele>542</ele>
        <time>2022-09-29T14:18:21Z</time>
      </trkpt>
      <trkpt lat="44.40277" lon="5.21506">
        <ele>542</ele>
        <time>2022-09-29T14:18:22Z</time>
      </trkpt>
      <trkpt lat="44.40278" lon="5.21506">
        <ele>542</ele>
        <time>2022-09-29T14:18:23Z</time>
      </trkpt>
      <trkpt lat="44.40279" lon="5.21506">
        <ele>542</ele>
        <time>2022-09-29T14:18:24Z</time>
      </trkpt>
      <trkpt lat="44.4028" lon="5.21506">
        <ele>542</ele>
        <time>2022-09-29T14:18:25Z</time>
      </trkpt>
      <trkpt lat="44.40281" lon="5.21506">
        <ele>542</ele>
        <time>2022-09-29T14:18:26Z</time>
      </trkpt>
      <trkpt lat="44.40281" lon="5.21506">
        <ele>542</ele>
        <time>2022-09-29T14:18:27Z</time>
      </trkpt>
      <trkpt lat="44.40282" lon="5.21505">
        <ele>542</ele>
        <time>2022-09-29T14:18:28Z</time>
      </trkpt>
      <trkpt lat="44.40283" lon="5.21504">
        <ele>541</ele>
        <time>2022-09-29T14:18:29Z</time>
      </trkpt>
      <trkpt lat="44.40284" lon="5.21504">
        <ele>541</ele>
        <time>2022-09-29T14:18:30Z</time>
      </trkpt>
      <trkpt lat="44.40284" lon="5.21503">
        <ele>541</ele>
        <time>2022-09-29T14:18:31Z</time>
      </trkpt>
      <trkpt lat="44.40285" lon="5.21503">
        <ele>541</ele>
        <time>2022-09-29T14:18:32Z</time>
      </trkpt>
      <trkpt lat="44.40285" lon="5.21502">
        <ele>541</ele>
        <time>2022-09-29T14:18:33Z</time>
      </trkpt>
      <trkpt lat="44.40285" lon="5.21502">
        <ele>540</ele>
        <time>2022-09-29T14:18:34Z</time>
      </trkpt>
      <trkpt lat="44.40286" lon="5.21501">
        <ele>540</ele>
        <time>2022-09-29T14:18:35Z</time>
      </trkpt>
      <trkpt lat="44.40286" lon="5.215">
        <ele>540</ele>
        <time>2022-09-29T14:18:36Z</time>
      </trkpt>
      <trkpt lat="44.40286" lon="5.21499">
        <ele>540</ele>
        <time>2022-09-29T14:18:37Z</time>
      </trkpt>
      <trkpt lat="44.40286" lon="5.21498">
        <ele>540</ele>
        <time>2022-09-29T14:18:38Z</time>
      </trkpt>
      <trkpt lat="44.40286" lon="5.21497">
        <ele>540</ele>
        <time>2022-09-29T14:18:39Z</time>
      </trkpt>
      <trkpt lat="44.40286" lon="5.21496">
        <ele>540</ele>
        <time>2022-09-29T14:18:40Z</time>
      </trkpt>
      <trkpt lat="44.40286" lon="5.21494">
        <ele>540</ele>
        <time>2022-09-29T14:18:41Z</time>
      </trkpt>
      <trkpt lat="44.40286" lon="5.21493">
        <ele>540</ele>
        <time>2022-09-29T14:18:42Z</time>
      </trkpt>
      <trkpt lat="44.40286" lon="5.21491">
        <ele>540</ele>
        <time>2022-09-29T14:18:43Z</time>
      </trkpt>
      <trkpt lat="44.40286" lon="5.2149">
        <ele>539</ele>
        <time>2022-09-29T14:18:44Z</time>
      </trkpt>
      <trkpt lat="44.40285" lon="5.21488">
        <ele>539</ele>
        <time>2022-09-29T14:18:45Z</time>
      </trkpt>
      <trkpt lat="44.40285" lon="5.21487">
        <ele>539</ele>
        <time>2022-09-29T14:18:46Z</time>
      </trkpt>
      <trkpt lat="44.40284" lon="5.21486">
        <ele>539</ele>
        <time>2022-09-29T14:18:47Z</time>
      </trkpt>
      <trkpt lat="44.40284" lon="5.21485">
        <ele>539</ele>
        <time>2022-09-29T14:18:48Z</time>
      </trkpt>
      <trkpt lat="44.40283" lon="5.21484">
        <ele>539</ele>
        <time>2022-09-29T14:18:49Z</time>
      </trkpt>
      <trkpt lat="44.40282" lon="5.21483">
        <ele>539</ele>
        <time>2022-09-29T14:18:50Z</time>
      </trkpt>
      <trkpt lat="44.40281" lon="5.21482">
        <ele>539</ele>
        <time>2022-09-29T14:18:51Z</time>
      </trkpt>
      <trkpt lat="44.4028" lon="5.21481">
        <ele>539</ele>
        <time>2022-09-29T14:18:52Z</time>
      </trkpt>
      <trkpt lat="44.4028" lon="5.2148">
        <ele>539</ele>
        <time>2022-09-29T14:18:53Z</time>
      </trkpt>
      <trkpt lat="44.40279" lon="5.21479">
        <ele>538</ele>
        <time>2022-09-29T14:18:54Z</time>
      </trkpt>
      <trkpt lat="44.40278" lon="5.21478">
        <ele>538</ele>
        <time>2022-09-29T14:18:55Z</time>
      </trkpt>
      <trkpt lat="44.40277" lon="5.21477">
        <ele>538</ele>
        <time>2022-09-29T14:18:56Z</time>
      </trkpt>
      <trkpt lat="44.40277" lon="5.21477">
        <ele>538</ele>
        <time>2022-09-29T14:18:57Z</time>
      </trkpt>
      <trkpt lat="44.40276" lon="5.21476">
        <ele>538</ele>
        <time>2022-09-29T14:18:58Z</time>
      </trkpt>
      <trkpt lat="44.40275" lon="5.21475">
        <ele>538</ele>
        <time>2022-09-29T14:18:59Z</time>
      </trkpt>
      <trkpt lat="44.40274" lon="5.21475">
        <ele>538</ele>
        <time>2022-09-29T14:19:00Z</time>
      </trkpt>
      <trkpt lat="44.40274" lon="5.21474">
        <ele>538</ele>
        <time>2022-09-29T14:19:01Z</time>
      </trkpt>
      <trkpt lat="44.40273" lon="5.21473">
        <ele>538</ele>
        <time>2022-09-29T14:19:02Z</time>
      </trkpt>
      <trkpt lat="44.40272" lon="5.21473">
        <ele>538</ele>
        <time>2022-09-29T14:19:03Z</time>
      </trkpt>
      <trkpt lat="44.40272" lon="5.21472">
        <ele>537</ele>
        <time>2022-09-29T14:19:04Z</time>
      </trkpt>
      <trkpt lat="44.40271" lon="5.21471">
        <ele>537</ele>
        <time>2022-09-29T14:19:05Z</time>
      </trkpt>
      <trkpt lat="44.4027" lon="5.2147">
        <ele>537</ele>
        <time>2022-09-29T14:19:06Z</time>
      </trkpt>
      <trkpt lat="44.4027" lon="5.21469">
        <ele>537</ele>
        <time>2022-09-29T14:19:07Z</time>
      </trkpt>
      <trkpt lat="44.40269" lon="5.21468">
        <ele>537</ele>
        <time>2022-09-29T14:19:08Z</time>
      </trkpt>
      <trkpt lat="44.40268" lon="5.21467">
        <ele>537</ele>
        <time>2022-09-29T14:19:09Z</time>
      </trkpt>
      <trkpt lat="44.40267" lon="5.21467">
        <ele>537</ele>
        <time>2022-09-29T14:19:10Z</time>
      </trkpt>
      <trkpt lat="44.40266" lon="5.21466">
        <ele>537</ele>
        <time>2022-09-29T14:19:11Z</time>
      </trkpt>
      <trkpt lat="44.40266" lon="5.21465">
        <ele>537</ele>
        <time>2022-09-29T14:19:12Z</time>
      </trkpt>
      <trkpt lat="44.40265" lon="5.21464">
        <ele>537</ele>
        <time>2022-09-29T14:19:13Z</time>
      </trkpt>
      <trkpt lat="44.40264" lon="5.21464">
        <ele>536</ele>
        <time>2022-09-29T14:19:14Z</time>
      </trkpt>
      <trkpt lat="44.40263" lon="5.21463">
        <ele>536</ele>
        <time>2022-09-29T14:19:15Z</time>
      </trkpt>
      <trkpt lat="44.40262" lon="5.21462">
        <ele>536</ele>
        <time>2022-09-29T14:19:16Z</time>
      </trkpt>
      <trkpt lat="44.40261" lon="5.21461">
        <ele>536</ele>
        <time>2022-09-29T14:19:17Z</time>
      </trkpt>
      <trkpt lat="44.4026" lon="5.21461">
        <ele>536</ele>
        <time>2022-09-29T14:19:18Z</time>
      </trkpt>
      <trkpt lat="44.40258" lon="5.2146">
        <ele>536</ele>
        <time>2022-09-29T14:19:19Z</time>
      </trkpt>
      <trkpt lat="44.40257" lon="5.21459">
        <ele>536</ele>
        <time>2022-09-29T14:19:20Z</time>
      </trkpt>
      <trkpt lat="44.40256" lon="5.21458">
        <ele>536</ele>
        <time>2022-09-29T14:19:21Z</time>
      </trkpt>
      <trkpt lat="44.40255" lon="5.21458">
        <ele>536</ele>
        <time>2022-09-29T14:19:22Z</time>
      </trkpt>
      <trkpt lat="44.40254" lon="5.21457">
        <ele>536</ele>
        <time>2022-09-29T14:19:23Z</time>
      </trkpt>
      <trkpt lat="44.40253" lon="5.21456">
        <ele>535</ele>
        <time>2022-09-29T14:19:24Z</time>
      </trkpt>
      <trkpt lat="44.40252" lon="5.21456">
        <ele>535</ele>
        <time>2022-09-29T14:19:25Z</time>
      </trkpt>
      <trkpt lat="44.40251" lon="5.21456">
        <ele>535</ele>
        <time>2022-09-29T14:19:26Z</time>
      </trkpt>
      <trkpt lat="44.4025" lon="5.21455">
        <ele>535</ele>
        <time>2022-09-29T14:19:27Z</time>
      </trkpt>
      <trkpt lat="44.40249" lon="5.21455">
        <ele>535</ele>
        <time>2022-09-29T14:19:28Z</time>
      </trkpt>
      <trkpt lat="44.40248" lon="5.21455">
        <ele>535</ele>
        <time>2022-09-29T14:19:29Z</time>
      </trkpt>
      <trkpt lat="44.40247" lon="5.21455">
        <ele>535</ele>
        <time>2022-09-29T14:19:30Z</time>
      </trkpt>
      <trkpt lat="44.40246" lon="5.21455">
        <ele>535</ele>
        <time>2022-09-29T14:19:31Z</time>
      </trkpt>
      <trkpt lat="44.40245" lon="5.21455">
        <ele>535</ele>
        <time>2022-09-29T14:19:32Z</time>
      </trkpt>
      <trkpt lat="44.40244" lon="5.21455">
        <ele>535</ele>
        <time>2022-09-29T14:19:33Z</time>
      </trkpt>
      <trkpt lat="44.40243" lon="5.21454">
        <ele>535</ele>
        <time>2022-09-29T14:19:34Z</time>
      </trkpt>
      <trkpt lat="44.40242" lon="5.21454">
        <ele>535</ele>
        <time>2022-09-29T14:19:35Z</time>
      </trkpt>
      <trkpt lat="44.40241" lon="5.21454">
        <ele>535</ele>
        <time>2022-09-29T14:19:36Z</time>
      </trkpt>
      <trkpt lat="44.4024" lon="5.21454">
        <ele>535</ele>
        <time>2022-09-29T14:19:37Z</time>
      </trkpt>
      <trkpt lat="44.40239" lon="5.21454">
        <ele>535</ele>
        <time>2022-09-29T14:19:38Z</time>
      </trkpt>
      <trkpt lat="44.40239" lon="5.21454">
        <ele>534</ele>
        <time>2022-09-29T14:19:39Z</time>
      </trkpt>
      <trkpt lat="44.40238" lon="5.21454">
        <ele>534</ele>
        <time>2022-09-29T14:19:40Z</time>
      </trkpt>
      <trkpt lat="44.40237" lon="5.21455">
        <ele>534</ele>
        <time>2022-09-29T14:19:41Z</time>
      </trkpt>
      <trkpt lat="44.40236" lon="5.21455">
        <ele>534</ele>
        <time>2022-09-29T14:19:42Z</time>
      </trkpt>
      <trkpt lat="44.40235" lon="5.21455">
        <ele>534</ele>
        <time>2022-09-29T14:19:43Z</time>
      </trkpt>
      <trkpt lat="44.40234" lon="5.21455">
        <ele>533</ele>
        <time>2022-09-29T14:19:44Z</time>
      </trkpt>
      <trkpt lat="44.40233" lon="5.21455">
        <ele>533</ele>
        <time>2022-09-29T14:19:45Z</time>
      </trkpt>
      <trkpt lat="44.40232" lon="5.21456">
        <ele>533</ele>
        <time>2022-09-29T14:19:46Z</time>
      </trkpt>
      <trkpt lat="44.40231" lon="5.21455">
        <ele>533</ele>
        <time>2022-09-29T14:19:47Z</time>
      </trkpt>
      <trkpt lat="44.4023" lon="5.21455">
        <ele>533</ele>
        <time>2022-09-29T14:19:48Z</time>
      </trkpt>
      <trkpt lat="44.40229" lon="5.21455">
        <ele>533</ele>
        <time>2022-09-29T14:19:49Z</time>
      </trkpt>
      <trkpt lat="44.40228" lon="5.21454">
        <ele>533</ele>
        <time>2022-09-29T14:19:50Z</time>
      </trkpt>
      <trkpt lat="44.40228" lon="5.21453">
        <ele>533</ele>
        <time>2022-09-29T14:19:51Z</time>
      </trkpt>
      <trkpt lat="44.40227" lon="5.21451">
        <ele>533</ele>
        <time>2022-09-29T14:19:52Z</time>
      </trkpt>
      <trkpt lat="44.40227" lon="5.2145">
        <ele>533</ele>
        <time>2022-09-29T14:19:53Z</time>
      </trkpt>
      <trkpt lat="44.40227" lon="5.21448">
        <ele>532</ele>
        <time>2022-09-29T14:19:54Z</time>
      </trkpt>
      <trkpt lat="44.40227" lon="5.21447">
        <ele>532</ele>
        <time>2022-09-29T14:19:55Z</time>
      </trkpt>
      <trkpt lat="44.40227" lon="5.21445">
        <ele>532</ele>
        <time>2022-09-29T14:19:56Z</time>
      </trkpt>
      <trkpt lat="44.40227" lon="5.21443">
        <ele>532</ele>
        <time>2022-09-29T14:19:57Z</time>
      </trkpt>
      <trkpt lat="44.40227" lon="5.21442">
        <ele>532</ele>
        <time>2022-09-29T14:19:58Z</time>
      </trkpt>
      <trkpt lat="44.40228" lon="5.2144">
        <ele>531</ele>
        <time>2022-09-29T14:19:59Z</time>
      </trkpt>
      <trkpt lat="44.40229" lon="5.21439">
        <ele>531</ele>
        <time>2022-09-29T14:20:00Z</time>
      </trkpt>
      <trkpt lat="44.40229" lon="5.21438">
        <ele>531</ele>
        <time>2022-09-29T14:20:01Z</time>
      </trkpt>
      <trkpt lat="44.4023" lon="5.21436">
        <ele>531</ele>
        <time>2022-09-29T14:20:02Z</time>
      </trkpt>
      <trkpt lat="44.40231" lon="5.21435">
        <ele>531</ele>
        <time>2022-09-29T14:20:03Z</time>
      </trkpt>
      <trkpt lat="44.40232" lon="5.21434">
        <ele>531</ele>
        <time>2022-09-29T14:20:04Z</time>
      </trkpt>
      <trkpt lat="44.40232" lon="5.21433">
        <ele>531</ele>
        <time>2022-09-29T14:20:05Z</time>
      </trkpt>
      <trkpt lat="44.40233" lon="5.21432">
        <ele>531</ele>
        <time>2022-09-29T14:20:06Z</time>
      </trkpt>
      <trkpt lat="44.40234" lon="5.21431">
        <ele>531</ele>
        <time>2022-09-29T14:20:07Z</time>
      </trkpt>
      <trkpt lat="44.40235" lon="5.2143">
        <ele>531</ele>
        <time>2022-09-29T14:20:08Z</time>
      </trkpt>
      <trkpt lat="44.40236" lon="5.21429">
        <ele>530</ele>
        <time>2022-09-29T14:20:09Z</time>
      </trkpt>
      <trkpt lat="44.40237" lon="5.21428">
        <ele>530</ele>
        <time>2022-09-29T14:20:10Z</time>
      </trkpt>
      <trkpt lat="44.40238" lon="5.21427">
        <ele>530</ele>
        <time>2022-09-29T14:20:11Z</time>
      </trkpt>
      <trkpt lat="44.40239" lon="5.21427">
        <ele>530</ele>
        <time>2022-09-29T14:20:12Z</time>
      </trkpt>
      <trkpt lat="44.4024" lon="5.21426">
        <ele>530</ele>
        <time>2022-09-29T14:20:13Z</time>
      </trkpt>
      <trkpt lat="44.40241" lon="5.21426">
        <ele>529</ele>
        <time>2022-09-29T14:20:14Z</time>
      </trkpt>
      <trkpt lat="44.40242" lon="5.21425">
        <ele>529</ele>
        <time>2022-09-29T14:20:15Z</time>
      </trkpt>
      <trkpt lat="44.40243" lon="5.21425">
        <ele>529</ele>
        <time>2022-09-29T14:20:16Z</time>
      </trkpt>
      <trkpt lat="44.40244" lon="5.21424">
        <ele>529</ele>
        <time>2022-09-29T14:20:17Z</time>
      </trkpt>
      <trkpt lat="44.40245" lon="5.21424">
        <ele>529</ele>
        <time>2022-09-29T14:20:18Z</time>
      </trkpt>
      <trkpt lat="44.40246" lon="5.21423">
        <ele>529</ele>
        <time>2022-09-29T14:20:19Z</time>
      </trkpt>
      <trkpt lat="44.40246" lon="5.21422">
        <ele>529</ele>
        <time>2022-09-29T14:20:20Z</time>
      </trkpt>
      <trkpt lat="44.40247" lon="5.21422">
        <ele>529</ele>
        <time>2022-09-29T14:20:21Z</time>
      </trkpt>
      <trkpt lat="44.40248" lon="5.21421">
        <ele>529</ele>
        <time>2022-09-29T14:20:22Z</time>
      </trkpt>
      <trkpt lat="44.40249" lon="5.2142">
        <ele>529</ele>
        <time>2022-09-29T14:20:23Z</time>
      </trkpt>
      <trkpt lat="44.4025" lon="5.21419">
        <ele>529</ele>
        <time>2022-09-29T14:20:24Z</time>
      </trkpt>
      <trkpt lat="44.40251" lon="5.21418">
        <ele>529</ele>
        <time>2022-09-29T14:20:25Z</time>
      </trkpt>
      <trkpt lat="44.40252" lon="5.21417">
        <ele>529</ele>
        <time>2022-09-29T14:20:26Z</time>
      </trkpt>
      <trkpt lat="44.40253" lon="5.21416">
        <ele>529</ele>
        <time>2022-09-29T14:20:27Z</time>
      </trkpt>
      <trkpt lat="44.40254" lon="5.21415">
        <ele>529</ele>
        <time>2022-09-29T14:20:28Z</time>
      </trkpt>
      <trkpt lat="44.40255" lon="5.21414">
        <ele>528</ele>
        <time>2022-09-29T14:20:29Z</time>
      </trkpt>
      <trkpt lat="44.40256" lon="5.21414">
        <ele>528</ele>
        <time>2022-09-29T14:20:30Z</time>
      </trkpt>
      <trkpt lat="44.40257" lon="5.21413">
        <ele>528</ele>
        <time>2022-09-29T14:20:31Z</time>
      </trkpt>
      <trkpt lat="44.40258" lon="5.21412">
        <ele>528</ele>
        <time>2022-09-29T14:20:32Z</time>
      </trkpt>
      <trkpt lat="44.40259" lon="5.21412">
        <ele>528</ele>
        <time>2022-09-29T14:20:33Z</time>
      </trkpt>
      <trkpt lat="44.4026" lon="5.21411">
        <ele>527</ele>
        <time>2022-09-29T14:20:34Z</time>
      </trkpt>
      <trkpt lat="44.4026" lon="5.2141">
        <ele>527</ele>
        <time>2022-09-29T14:20:35Z</time>
      </trkpt>
      <trkpt lat="44.40261" lon="5.21409">
        <ele>527</ele>
        <time>2022-09-29T14:20:36Z</time>
      </trkpt>
      <trkpt lat="44.40262" lon="5.21408">
        <ele>527</ele>
        <time>2022-09-29T14:20:37Z</time>
      </trkpt>
      <trkpt lat="44.40263" lon="5.21408">
        <ele>527</ele>
        <time>2022-09-29T14:20:38Z</time>
      </trkpt>
      <trkpt lat="44.40264" lon="5.21407">
        <ele>527</ele>
        <time>2022-09-29T14:20:39Z</time>
      </trkpt>
      <trkpt lat="44.40265" lon="5.21407">
        <ele>527</ele>
        <time>2022-09-29T14:20:40Z</time>
      </trkpt>
      <trkpt lat="44.40266" lon="5.21406">
        <ele>527</ele>
        <time>2022-09-29T14:20:41Z</time>
      </trkpt>
      <trkpt lat="44.40267" lon="5.21406">
        <ele>527</ele>
        <time>2022-09-29T14:20:42Z</time>
      </trkpt>
      <trkpt lat="44.40268" lon="5.21405">
        <ele>527</ele>
        <time>2022-09-29T14:20:43Z</time>
      </trkpt>
      <trkpt lat="44.40269" lon="5.21404">
        <ele>527</ele>
        <time>2022-09-29T14:20:44Z</time>
      </trkpt>
      <trkpt lat="44.4027" lon="5.21403">
        <ele>527</ele>
        <time>2022-09-29T14:20:45Z</time>
      </trkpt>
      <trkpt lat="44.40271" lon="5.21402">
        <ele>527</ele>
        <time>2022-09-29T14:20:46Z</time>
      </trkpt>
      <trkpt lat="44.40271" lon="5.21401">
        <ele>527</ele>
        <time>2022-09-29T14:20:47Z</time>
      </trkpt>
      <trkpt lat="44.40272" lon="5.214">
        <ele>527</ele>
        <time>2022-09-29T14:20:48Z</time>
      </trkpt>
      <trkpt lat="44.40273" lon="5.214">
        <ele>526</ele>
        <time>2022-09-29T14:20:49Z</time>
      </trkpt>
      <trkpt lat="44.40274" lon="5.21399">
        <ele>526</ele>
        <time>2022-09-29T14:20:50Z</time>
      </trkpt>
      <trkpt lat="44.40275" lon="5.21399">
        <ele>526</ele>
        <time>2022-09-29T14:20:51Z</time>
      </trkpt>
      <trkpt lat="44.40275" lon="5.21398">
        <ele>526</ele>
        <time>2022-09-29T14:20:52Z</time>
      </trkpt>
      <trkpt lat="44.40276" lon="5.21398">
        <ele>526</ele>
        <time>2022-09-29T14:20:53Z</time>
      </trkpt>
      <trkpt lat="44.40277" lon="5.21397">
        <ele>526</ele>
        <time>2022-09-29T14:20:54Z</time>
      </trkpt>
      <trkpt lat="44.40277" lon="5.21397">
        <ele>526</ele>
        <time>2022-09-29T14:20:55Z</time>
      </trkpt>
      <trkpt lat="44.40278" lon="5.21397">
        <ele>526</ele>
        <time>2022-09-29T14:20:56Z</time>
      </trkpt>
      <trkpt lat="44.40279" lon="5.21396">
        <ele>526</ele>
        <time>2022-09-29T14:20:57Z</time>
      </trkpt>
      <trkpt lat="44.40279" lon="5.21396">
        <ele>526</ele>
        <time>2022-09-29T14:20:58Z</time>
      </trkpt>
      <trkpt lat="44.4028" lon="5.21395">
        <ele>525</ele>
        <time>2022-09-29T14:20:59Z</time>
      </trkpt>
      <trkpt lat="44.40281" lon="5.21395">
        <ele>525</ele>
        <time>2022-09-29T14:21:00Z</time>
      </trkpt>
      <trkpt lat="44.40284" lon="5.21391">
        <ele>524</ele>
        <time>2022-09-29T14:21:46Z</time>
      </trkpt>
      <trkpt lat="44.40285" lon="5.2139">
        <ele>524</ele>
        <time>2022-09-29T14:21:47Z</time>
      </trkpt>
      <trkpt lat="44.40286" lon="5.21388">
        <ele>524</ele>
        <time>2022-09-29T14:21:48Z</time>
      </trkpt>
      <trkpt lat="44.40287" lon="5.21387">
        <ele>524</ele>
        <time>2022-09-29T14:21:49Z</time>
      </trkpt>
      <trkpt lat="44.40288" lon="5.21386">
        <ele>524</ele>
        <time>2022-09-29T14:21:50Z</time>
      </trkpt>
      <trkpt lat="44.40288" lon="5.21385">
        <ele>524</ele>
        <time>2022-09-29T14:21:51Z</time>
      </trkpt>
      <trkpt lat="44.40289" lon="5.21385">
        <ele>524</ele>
        <time>2022-09-29T14:21:52Z</time>
      </trkpt>
      <trkpt lat="44.4029" lon="5.21384">
        <ele>524</ele>
        <time>2022-09-29T14:21:53Z</time>
      </trkpt>
      <trkpt lat="44.4029" lon="5.21383">
        <ele>523</ele>
        <time>2022-09-29T14:21:54Z</time>
      </trkpt>
      <trkpt lat="44.4029" lon="5.21382">
        <ele>523</ele>
        <time>2022-09-29T14:21:55Z</time>
      </trkpt>
      <trkpt lat="44.40291" lon="5.21382">
        <ele>523</ele>
        <time>2022-09-29T14:21:56Z</time>
      </trkpt>
      <trkpt lat="44.40291" lon="5.21381">
        <ele>523</ele>
        <time>2022-09-29T14:21:57Z</time>
      </trkpt>
      <trkpt lat="44.40292" lon="5.2138">
        <ele>523</ele>
        <time>2022-09-29T14:21:58Z</time>
      </trkpt>
      <trkpt lat="44.40292" lon="5.21379">
        <ele>523</ele>
        <time>2022-09-29T14:21:59Z</time>
      </trkpt>
      <trkpt lat="44.40293" lon="5.21378">
        <ele>523</ele>
        <time>2022-09-29T14:22:00Z</time>
      </trkpt>
      <trkpt lat="44.40293" lon="5.21378">
        <ele>523</ele>
        <time>2022-09-29T14:22:01Z</time>
      </trkpt>
      <trkpt lat="44.40294" lon="5.21377">
        <ele>523</ele>
        <time>2022-09-29T14:22:02Z</time>
      </trkpt>
      <trkpt lat="44.40294" lon="5.21376">
        <ele>523</ele>
        <time>2022-09-29T14:22:03Z</time>
      </trkpt>
      <trkpt lat="44.40295" lon="5.21375">
        <ele>523</ele>
        <time>2022-09-29T14:22:04Z</time>
      </trkpt>
      <trkpt lat="44.40295" lon="5.21375">
        <ele>523</ele>
        <time>2022-09-29T14:22:05Z</time>
      </trkpt>
      <trkpt lat="44.40296" lon="5.21374">
        <ele>523</ele>
        <time>2022-09-29T14:22:06Z</time>
      </trkpt>
      <trkpt lat="44.40296" lon="5.21373">
        <ele>522</ele>
        <time>2022-09-29T14:22:14Z</time>
      </trkpt>
      <trkpt lat="44.40297" lon="5.21372">
        <ele>522</ele>
        <time>2022-09-29T14:22:15Z</time>
      </trkpt>
      <trkpt lat="44.40297" lon="5.21371">
        <ele>522</ele>
        <time>2022-09-29T14:22:16Z</time>
      </trkpt>
      <trkpt lat="44.40297" lon="5.2137">
        <ele>522</ele>
        <time>2022-09-29T14:22:17Z</time>
      </trkpt>
      <trkpt lat="44.40298" lon="5.21369">
        <ele>522</ele>
        <time>2022-09-29T14:22:18Z</time>
      </trkpt>
      <trkpt lat="44.40298" lon="5.21368">
        <ele>522</ele>
        <time>2022-09-29T14:22:19Z</time>
      </trkpt>
      <trkpt lat="44.40298" lon="5.21367">
        <ele>522</ele>
        <time>2022-09-29T14:22:20Z</time>
      </trkpt>
      <trkpt lat="44.40299" lon="5.21366">
        <ele>522</ele>
        <time>2022-09-29T14:22:21Z</time>
      </trkpt>
      <trkpt lat="44.40299" lon="5.21365">
        <ele>522</ele>
        <time>2022-09-29T14:22:22Z</time>
      </trkpt>
      <trkpt lat="44.403" lon="5.21364">
        <ele>522</ele>
        <time>2022-09-29T14:22:23Z</time>
      </trkpt>
      <trkpt lat="44.40301" lon="5.21363">
        <ele>521</ele>
        <time>2022-09-29T14:22:24Z</time>
      </trkpt>
      <trkpt lat="44.40302" lon="5.21362">
        <ele>521</ele>
        <time>2022-09-29T14:22:25Z</time>
      </trkpt>
      <trkpt lat="44.40303" lon="5.21361">
        <ele>521</ele>
        <time>2022-09-29T14:22:26Z</time>
      </trkpt>
      <trkpt lat="44.40303" lon="5.2136">
        <ele>521</ele>
        <time>2022-09-29T14:22:27Z</time>
      </trkpt>
      <trkpt lat="44.40304" lon="5.2136">
        <ele>521</ele>
        <time>2022-09-29T14:22:28Z</time>
      </trkpt>
      <trkpt lat="44.40305" lon="5.21359">
        <ele>521</ele>
        <time>2022-09-29T14:22:29Z</time>
      </trkpt>
      <trkpt lat="44.40306" lon="5.21359">
        <ele>521</ele>
        <time>2022-09-29T14:22:30Z</time>
      </trkpt>
      <trkpt lat="44.40307" lon="5.21358">
        <ele>521</ele>
        <time>2022-09-29T14:22:31Z</time>
      </trkpt>
      <trkpt lat="44.40308" lon="5.21358">
        <ele>521</ele>
        <time>2022-09-29T14:22:32Z</time>
      </trkpt>
      <trkpt lat="44.40309" lon="5.21358">
        <ele>521</ele>
        <time>2022-09-29T14:22:33Z</time>
      </trkpt>
      <trkpt lat="44.40309" lon="5.21358">
        <ele>520</ele>
        <time>2022-09-29T14:22:34Z</time>
      </trkpt>
      <trkpt lat="44.4031" lon="5.21357">
        <ele>520</ele>
        <time>2022-09-29T14:22:35Z</time>
      </trkpt>
      <trkpt lat="44.40311" lon="5.21357">
        <ele>520</ele>
        <time>2022-09-29T14:22:36Z</time>
      </trkpt>
      <trkpt lat="44.40312" lon="5.21357">
        <ele>520</ele>
        <time>2022-09-29T14:22:37Z</time>
      </trkpt>
      <trkpt lat="44.40313" lon="5.21357">
        <ele>520</ele>
        <time>2022-09-29T14:22:38Z</time>
      </trkpt>
      <trkpt lat="44.40313" lon="5.21357">
        <ele>520</ele>
        <time>2022-09-29T14:22:39Z</time>
      </trkpt>
      <trkpt lat="44.40314" lon="5.21357">
        <ele>520</ele>
        <time>2022-09-29T14:22:40Z</time>
      </trkpt>
      <trkpt lat="44.40315" lon="5.21357">
        <ele>520</ele>
        <time>2022-09-29T14:22:41Z</time>
      </trkpt>
      <trkpt lat="44.40316" lon="5.21357">
        <ele>520</ele>
        <time>2022-09-29T14:22:42Z</time>
      </trkpt>
      <trkpt lat="44.40317" lon="5.21358">
        <ele>520</ele>
        <time>2022-09-29T14:22:43Z</time>
      </trkpt>
      <trkpt lat="44.40318" lon="5.21358">
        <ele>520</ele>
        <time>2022-09-29T14:22:44Z</time>
      </trkpt>
      <trkpt lat="44.40319" lon="5.21359">
        <ele>520</ele>
        <time>2022-09-29T14:22:45Z</time>
      </trkpt>
      <trkpt lat="44.40319" lon="5.21359">
        <ele>520</ele>
        <time>2022-09-29T14:22:46Z</time>
      </trkpt>
      <trkpt lat="44.4032" lon="5.2136">
        <ele>520</ele>
        <time>2022-09-29T14:22:47Z</time>
      </trkpt>
      <trkpt lat="44.40321" lon="5.2136">
        <ele>520</ele>
        <time>2022-09-29T14:22:48Z</time>
      </trkpt>
      <trkpt lat="44.40322" lon="5.21361">
        <ele>519</ele>
        <time>2022-09-29T14:22:49Z</time>
      </trkpt>
      <trkpt lat="44.40323" lon="5.21362">
        <ele>519</ele>
        <time>2022-09-29T14:22:50Z</time>
      </trkpt>
      <trkpt lat="44.40324" lon="5.21362">
        <ele>519</ele>
        <time>2022-09-29T14:22:51Z</time>
      </trkpt>
      <trkpt lat="44.40325" lon="5.21362">
        <ele>519</ele>
        <time>2022-09-29T14:22:52Z</time>
      </trkpt>
      <trkpt lat="44.40327" lon="5.21363">
        <ele>519</ele>
        <time>2022-09-29T14:22:53Z</time>
      </trkpt>
      <trkpt lat="44.40328" lon="5.21363">
        <ele>519</ele>
        <time>2022-09-29T14:22:54Z</time>
      </trkpt>
      <trkpt lat="44.40329" lon="5.21363">
        <ele>519</ele>
        <time>2022-09-29T14:22:55Z</time>
      </trkpt>
      <trkpt lat="44.4033" lon="5.21364">
        <ele>519</ele>
        <time>2022-09-29T14:22:56Z</time>
      </trkpt>
      <trkpt lat="44.40331" lon="5.21364">
        <ele>519</ele>
        <time>2022-09-29T14:22:57Z</time>
      </trkpt>
      <trkpt lat="44.40332" lon="5.21364">
        <ele>519</ele>
        <time>2022-09-29T14:22:58Z</time>
      </trkpt>
      <trkpt lat="44.40334" lon="5.21365">
        <ele>518</ele>
        <time>2022-09-29T14:22:59Z</time>
      </trkpt>
      <trkpt lat="44.40335" lon="5.21365">
        <ele>518</ele>
        <time>2022-09-29T14:23:00Z</time>
      </trkpt>
      <trkpt lat="44.40336" lon="5.21365">
        <ele>518</ele>
        <time>2022-09-29T14:23:01Z</time>
      </trkpt>
      <trkpt lat="44.40337" lon="5.21365">
        <ele>518</ele>
        <time>2022-09-29T14:23:02Z</time>
      </trkpt>
      <trkpt lat="44.40339" lon="5.21365">
        <ele>518</ele>
        <time>2022-09-29T14:23:03Z</time>
      </trkpt>
      <trkpt lat="44.4034" lon="5.21365">
        <ele>518</ele>
        <time>2022-09-29T14:23:04Z</time>
      </trkpt>
      <trkpt lat="44.40341" lon="5.21364">
        <ele>518</ele>
        <time>2022-09-29T14:23:05Z</time>
      </trkpt>
      <trkpt lat="44.40342" lon="5.21364">
        <ele>518</ele>
        <time>2022-09-29T14:23:06Z</time>
      </trkpt>
      <trkpt lat="44.40343" lon="5.21364">
        <ele>518</ele>
        <time>2022-09-29T14:23:07Z</time>
      </trkpt>
      <trkpt lat="44.40344" lon="5.21363">
        <ele>518</ele>
        <time>2022-09-29T14:23:08Z</time>
      </trkpt>
      <trkpt lat="44.40344" lon="5.21363">
        <ele>518</ele>
        <time>2022-09-29T14:23:09Z</time>
      </trkpt>
      <trkpt lat="44.40345" lon="5.21363">
        <ele>518</ele>
        <time>2022-09-29T14:23:10Z</time>
      </trkpt>
      <trkpt lat="44.40346" lon="5.21362">
        <ele>518</ele>
        <time>2022-09-29T14:23:11Z</time>
      </trkpt>
      <trkpt lat="44.40347" lon="5.21361">
        <ele>518</ele>
        <time>2022-09-29T14:23:12Z</time>
      </trkpt>
      <trkpt lat="44.40348" lon="5.2136">
        <ele>518</ele>
        <time>2022-09-29T14:23:13Z</time>
      </trkpt>
      <trkpt lat="44.40349" lon="5.21359">
        <ele>517</ele>
        <time>2022-09-29T14:23:14Z</time>
      </trkpt>
      <trkpt lat="44.4035" lon="5.21359">
        <ele>517</ele>
        <time>2022-09-29T14:23:15Z</time>
      </trkpt>
      <trkpt lat="44.4035" lon="5.21358">
        <ele>517</ele>
        <time>2022-09-29T14:23:16Z</time>
      </trkpt>
      <trkpt lat="44.40351" lon="5.21357">
        <ele>517</ele>
        <time>2022-09-29T14:23:17Z</time>
      </trkpt>
      <trkpt lat="44.40352" lon="5.21356">
        <ele>517</ele>
        <time>2022-09-29T14:23:18Z</time>
      </trkpt>
      <trkpt lat="44.40353" lon="5.21356">
        <ele>517</ele>
        <time>2022-09-29T14:23:19Z</time>
      </trkpt>
      <trkpt lat="44.40353" lon="5.21355">
        <ele>517</ele>
        <time>2022-09-29T14:23:20Z</time>
      </trkpt>
      <trkpt lat="44.40354" lon="5.21354">
        <ele>517</ele>
        <time>2022-09-29T14:23:21Z</time>
      </trkpt>
      <trkpt lat="44.40355" lon="5.21354">
        <ele>517</ele>
        <time>2022-09-29T14:23:22Z</time>
      </trkpt>
      <trkpt lat="44.40356" lon="5.21352">
        <ele>517</ele>
        <time>2022-09-29T14:23:48Z</time>
      </trkpt>
      <trkpt lat="44.40356" lon="5.21351">
        <ele>516</ele>
        <time>2022-09-29T14:23:49Z</time>
      </trkpt>
      <trkpt lat="44.40357" lon="5.2135">
        <ele>516</ele>
        <time>2022-09-29T14:23:50Z</time>
      </trkpt>
      <trkpt lat="44.40357" lon="5.21349">
        <ele>516</ele>
        <time>2022-09-29T14:23:51Z</time>
      </trkpt>
      <trkpt lat="44.40357" lon="5.21348">
        <ele>516</ele>
        <time>2022-09-29T14:23:52Z</time>
      </trkpt>
      <trkpt lat="44.40357" lon="5.21347">
        <ele>516</ele>
        <time>2022-09-29T14:23:53Z</time>
      </trkpt>
      <trkpt lat="44.40358" lon="5.21346">
        <ele>516</ele>
        <time>2022-09-29T14:23:54Z</time>
      </trkpt>
      <trkpt lat="44.40358" lon="5.21345">
        <ele>516</ele>
        <time>2022-09-29T14:23:55Z</time>
      </trkpt>
      <trkpt lat="44.40358" lon="5.21344">
        <ele>516</ele>
        <time>2022-09-29T14:23:56Z</time>
      </trkpt>
      <trkpt lat="44.40358" lon="5.21343">
        <ele>516</ele>
        <time>2022-09-29T14:23:57Z</time>
      </trkpt>
      <trkpt lat="44.40358" lon="5.21342">
        <ele>516</ele>
        <time>2022-09-29T14:23:58Z</time>
      </trkpt>
      <trkpt lat="44.40358" lon="5.21341">
        <ele>516</ele>
        <time>2022-09-29T14:23:59Z</time>
      </trkpt>
      <trkpt lat="44.40358" lon="5.2134">
        <ele>516</ele>
        <time>2022-09-29T14:24:00Z</time>
      </trkpt>
      <trkpt lat="44.40358" lon="5.21339">
        <ele>516</ele>
        <time>2022-09-29T14:24:01Z</time>
      </trkpt>
      <trkpt lat="44.40357" lon="5.21339">
        <ele>516</ele>
        <time>2022-09-29T14:24:02Z</time>
      </trkpt>
      <trkpt lat="44.40357" lon="5.21338">
        <ele>516</ele>
        <time>2022-09-29T14:24:03Z</time>
      </trkpt>
      <trkpt lat="44.40357" lon="5.21337">
        <ele>515</ele>
        <time>2022-09-29T14:24:04Z</time>
      </trkpt>
      <trkpt lat="44.40357" lon="5.21336">
        <ele>515</ele>
        <time>2022-09-29T14:24:05Z</time>
      </trkpt>
      <trkpt lat="44.40357" lon="5.21335">
        <ele>515</ele>
        <time>2022-09-29T14:24:06Z</time>
      </trkpt>
      <trkpt lat="44.40357" lon="5.21334">
        <ele>515</ele>
        <time>2022-09-29T14:24:07Z</time>
      </trkpt>
      <trkpt lat="44.40356" lon="5.21333">
        <ele>515</ele>
        <time>2022-09-29T14:24:08Z</time>
      </trkpt>
      <trkpt lat="44.40356" lon="5.21332">
        <ele>515</ele>
        <time>2022-09-29T14:24:09Z</time>
      </trkpt>
      <trkpt lat="44.40356" lon="5.21331">
        <ele>515</ele>
        <time>2022-09-29T14:24:10Z</time>
      </trkpt>
      <trkpt lat="44.40355" lon="5.2133">
        <ele>515</ele>
        <time>2022-09-29T14:24:11Z</time>
      </trkpt>
      <trkpt lat="44.40355" lon="5.21329">
        <ele>515</ele>
        <time>2022-09-29T14:24:12Z</time>
      </trkpt>
      <trkpt lat="44.40354" lon="5.21328">
        <ele>515</ele>
        <time>2022-09-29T14:24:13Z</time>
      </trkpt>
      <trkpt lat="44.40354" lon="5.21327">
        <ele>514</ele>
        <time>2022-09-29T14:24:14Z</time>
      </trkpt>
      <trkpt lat="44.40353" lon="5.21326">
        <ele>514</ele>
        <time>2022-09-29T14:24:15Z</time>
      </trkpt>
      <trkpt lat="44.40353" lon="5.21325">
        <ele>514</ele>
        <time>2022-09-29T14:24:16Z</time>
      </trkpt>
      <trkpt lat="44.40352" lon="5.21324">
        <ele>514</ele>
        <time>2022-09-29T14:24:17Z</time>
      </trkpt>
      <trkpt lat="44.40352" lon="5.21323">
        <ele>514</ele>
        <time>2022-09-29T14:24:18Z</time>
      </trkpt>
      <trkpt lat="44.40352" lon="5.21321">
        <ele>513</ele>
        <time>2022-09-29T14:24:19Z</time>
      </trkpt>
      <trkpt lat="44.40351" lon="5.2132">
        <ele>513</ele>
        <time>2022-09-29T14:24:20Z</time>
      </trkpt>
      <trkpt lat="44.40351" lon="5.21319">
        <ele>513</ele>
        <time>2022-09-29T14:24:21Z</time>
      </trkpt>
      <trkpt lat="44.40351" lon="5.21318">
        <ele>513</ele>
        <time>2022-09-29T14:24:22Z</time>
      </trkpt>
      <trkpt lat="44.40351" lon="5.21317">
        <ele>513</ele>
        <time>2022-09-29T14:24:23Z</time>
      </trkpt>
      <trkpt lat="44.4035" lon="5.21316">
        <ele>513</ele>
        <time>2022-09-29T14:24:24Z</time>
      </trkpt>
      <trkpt lat="44.4035" lon="5.21315">
        <ele>513</ele>
        <time>2022-09-29T14:24:25Z</time>
      </trkpt>
      <trkpt lat="44.40349" lon="5.21314">
        <ele>513</ele>
        <time>2022-09-29T14:24:26Z</time>
      </trkpt>
      <trkpt lat="44.40349" lon="5.21313">
        <ele>513</ele>
        <time>2022-09-29T14:24:27Z</time>
      </trkpt>
      <trkpt lat="44.40348" lon="5.21312">
        <ele>513</ele>
        <time>2022-09-29T14:24:28Z</time>
      </trkpt>
      <trkpt lat="44.40348" lon="5.21311">
        <ele>512</ele>
        <time>2022-09-29T14:24:29Z</time>
      </trkpt>
      <trkpt lat="44.40347" lon="5.2131">
        <ele>512</ele>
        <time>2022-09-29T14:24:30Z</time>
      </trkpt>
      <trkpt lat="44.40347" lon="5.21309">
        <ele>512</ele>
        <time>2022-09-29T14:24:31Z</time>
      </trkpt>
      <trkpt lat="44.40347" lon="5.21308">
        <ele>512</ele>
        <time>2022-09-29T14:24:32Z</time>
      </trkpt>
      <trkpt lat="44.40346" lon="5.21307">
        <ele>512</ele>
        <time>2022-09-29T14:24:33Z</time>
      </trkpt>
      <trkpt lat="44.40346" lon="5.21305">
        <ele>512</ele>
        <time>2022-09-29T14:24:34Z</time>
      </trkpt>
      <trkpt lat="44.40346" lon="5.21304">
        <ele>512</ele>
        <time>2022-09-29T14:24:35Z</time>
      </trkpt>
      <trkpt lat="44.40345" lon="5.21303">
        <ele>512</ele>
        <time>2022-09-29T14:24:36Z</time>
      </trkpt>
      <trkpt lat="44.40345" lon="5.21301">
        <ele>512</ele>
        <time>2022-09-29T14:24:37Z</time>
      </trkpt>
      <trkpt lat="44.40345" lon="5.213">
        <ele>512</ele>
        <time>2022-09-29T14:24:38Z</time>
      </trkpt>
      <trkpt lat="44.40345" lon="5.21299">
        <ele>511</ele>
        <time>2022-09-29T14:24:39Z</time>
      </trkpt>
      <trkpt lat="44.40344" lon="5.21298">
        <ele>511</ele>
        <time>2022-09-29T14:24:40Z</time>
      </trkpt>
      <trkpt lat="44.40344" lon="5.21296">
        <ele>511</ele>
        <time>2022-09-29T14:24:41Z</time>
      </trkpt>
      <trkpt lat="44.40344" lon="5.21295">
        <ele>511</ele>
        <time>2022-09-29T14:24:42Z</time>
      </trkpt>
      <trkpt lat="44.40343" lon="5.21294">
        <ele>511</ele>
        <time>2022-09-29T14:24:43Z</time>
      </trkpt>
      <trkpt lat="44.40343" lon="5.21293">
        <ele>511</ele>
        <time>2022-09-29T14:24:44Z</time>
      </trkpt>
      <trkpt lat="44.40343" lon="5.21291">
        <ele>511</ele>
        <time>2022-09-29T14:24:45Z</time>
      </trkpt>
      <trkpt lat="44.40342" lon="5.2129">
        <ele>511</ele>
        <time>2022-09-29T14:24:46Z</time>
      </trkpt>
      <trkpt lat="44.40342" lon="5.21289">
        <ele>511</ele>
        <time>2022-09-29T14:24:47Z</time>
      </trkpt>
      <trkpt lat="44.40341" lon="5.21289">
        <ele>511</ele>
        <time>2022-09-29T14:24:48Z</time>
      </trkpt>
      <trkpt lat="44.4034" lon="5.21288">
        <ele>510</ele>
        <time>2022-09-29T14:24:49Z</time>
      </trkpt>
      <trkpt lat="44.40339" lon="5.21287">
        <ele>510</ele>
        <time>2022-09-29T14:24:50Z</time>
      </trkpt>
      <trkpt lat="44.40339" lon="5.21286">
        <ele>510</ele>
        <time>2022-09-29T14:24:51Z</time>
      </trkpt>
      <trkpt lat="44.40338" lon="5.21286">
        <ele>510</ele>
        <time>2022-09-29T14:24:52Z</time>
      </trkpt>
      <trkpt lat="44.40337" lon="5.21285">
        <ele>510</ele>
        <time>2022-09-29T14:24:53Z</time>
      </trkpt>
      <trkpt lat="44.40336" lon="5.21285">
        <ele>509</ele>
        <time>2022-09-29T14:24:54Z</time>
      </trkpt>
      <trkpt lat="44.40335" lon="5.21284">
        <ele>509</ele>
        <time>2022-09-29T14:24:55Z</time>
      </trkpt>
      <trkpt lat="44.40334" lon="5.21284">
        <ele>509</ele>
        <time>2022-09-29T14:24:56Z</time>
      </trkpt>
      <trkpt lat="44.40333" lon="5.21284">
        <ele>509</ele>
        <time>2022-09-29T14:24:57Z</time>
      </trkpt>
      <trkpt lat="44.40332" lon="5.21284">
        <ele>509</ele>
        <time>2022-09-29T14:24:58Z</time>
      </trkpt>
      <trkpt lat="44.40331" lon="5.21284">
        <ele>509</ele>
        <time>2022-09-29T14:24:59Z</time>
      </trkpt>
      <trkpt lat="44.4033" lon="5.21284">
        <ele>509</ele>
        <time>2022-09-29T14:25:00Z</time>
      </trkpt>
      <trkpt lat="44.40329" lon="5.21283">
        <ele>509</ele>
        <time>2022-09-29T14:25:01Z</time>
      </trkpt>
      <trkpt lat="44.40328" lon="5.21283">
        <ele>509</ele>
        <time>2022-09-29T14:25:02Z</time>
      </trkpt>
      <trkpt lat="44.40327" lon="5.21283">
        <ele>509</ele>
        <time>2022-09-29T14:25:03Z</time>
      </trkpt>
      <trkpt lat="44.40326" lon="5.21283">
        <ele>509</ele>
        <time>2022-09-29T14:25:04Z</time>
      </trkpt>
      <trkpt lat="44.40325" lon="5.21283">
        <ele>509</ele>
        <time>2022-09-29T14:25:05Z</time>
      </trkpt>
      <trkpt lat="44.40324" lon="5.21282">
        <ele>509</ele>
        <time>2022-09-29T14:25:06Z</time>
      </trkpt>
      <trkpt lat="44.40323" lon="5.21282">
        <ele>509</ele>
        <time>2022-09-29T14:25:07Z</time>
      </trkpt>
      <trkpt lat="44.40323" lon="5.21281">
        <ele>509</ele>
        <time>2022-09-29T14:25:08Z</time>
      </trkpt>
      <trkpt lat="44.40322" lon="5.21281">
        <ele>508</ele>
        <time>2022-09-29T14:25:09Z</time>
      </trkpt>
      <trkpt lat="44.40321" lon="5.2128">
        <ele>508</ele>
        <time>2022-09-29T14:25:10Z</time>
      </trkpt>
      <trkpt lat="44.4032" lon="5.21279">
        <ele>508</ele>
        <time>2022-09-29T14:25:11Z</time>
      </trkpt>
      <trkpt lat="44.40319" lon="5.21278">
        <ele>508</ele>
        <time>2022-09-29T14:25:12Z</time>
      </trkpt>
      <trkpt lat="44.40318" lon="5.21278">
        <ele>508</ele>
        <time>2022-09-29T14:25:13Z</time>
      </trkpt>
      <trkpt lat="44.40317" lon="5.21277">
        <ele>507</ele>
        <time>2022-09-29T14:25:14Z</time>
      </trkpt>
      <trkpt lat="44.40316" lon="5.21277">
        <ele>507</ele>
        <time>2022-09-29T14:25:15Z</time>
      </trkpt>
      <trkpt lat="44.40315" lon="5.21276">
        <ele>507</ele>
        <time>2022-09-29T14:25:16Z</time>
      </trkpt>
      <trkpt lat="44.40315" lon="5.21275">
        <ele>507</ele>
        <time>2022-09-29T14:25:17Z</time>
      </trkpt>
      <trkpt lat="44.40314" lon="5.21274">
        <ele>507</ele>
        <time>2022-09-29T14:25:18Z</time>
      </trkpt>
      <trkpt lat="44.40313" lon="5.21273">
        <ele>507</ele>
        <time>2022-09-29T14:25:19Z</time>
      </trkpt>
      <trkpt lat="44.40313" lon="5.21272">
        <ele>507</ele>
        <time>2022-09-29T14:25:20Z</time>
      </trkpt>
      <trkpt lat="44.40312" lon="5.21271">
        <ele>507</ele>
        <time>2022-09-29T14:25:21Z</time>
      </trkpt>
      <trkpt lat="44.40312" lon="5.21269">
        <ele>507</ele>
        <time>2022-09-29T14:25:22Z</time>
      </trkpt>
      <trkpt lat="44.40311" lon="5.21268">
        <ele>507</ele>
        <time>2022-09-29T14:25:23Z</time>
      </trkpt>
      <trkpt lat="44.40311" lon="5.21267">
        <ele>506</ele>
        <time>2022-09-29T14:25:24Z</time>
      </trkpt>
      <trkpt lat="44.40311" lon="5.21266">
        <ele>506</ele>
        <time>2022-09-29T14:25:25Z</time>
      </trkpt>
      <trkpt lat="44.40311" lon="5.21264">
        <ele>506</ele>
        <time>2022-09-29T14:25:26Z</time>
      </trkpt>
      <trkpt lat="44.40311" lon="5.21263">
        <ele>506</ele>
        <time>2022-09-29T14:25:27Z</time>
      </trkpt>
      <trkpt lat="44.40311" lon="5.21262">
        <ele>506</ele>
        <time>2022-09-29T14:25:28Z</time>
      </trkpt>
      <trkpt lat="44.40312" lon="5.2126">
        <ele>505</ele>
        <time>2022-09-29T14:25:29Z</time>
      </trkpt>
      <trkpt lat="44.40312" lon="5.21259">
        <ele>505</ele>
        <time>2022-09-29T14:25:30Z</time>
      </trkpt>
      <trkpt lat="44.40312" lon="5.21258">
        <ele>505</ele>
        <time>2022-09-29T14:25:31Z</time>
      </trkpt>
      <trkpt lat="44.40312" lon="5.21257">
        <ele>505</ele>
        <time>2022-09-29T14:25:32Z</time>
      </trkpt>
      <trkpt lat="44.40312" lon="5.21256">
        <ele>505</ele>
        <time>2022-09-29T14:25:33Z</time>
      </trkpt>
      <trkpt lat="44.40313" lon="5.21254">
        <ele>505</ele>
        <time>2022-09-29T14:25:34Z</time>
      </trkpt>
      <trkpt lat="44.40313" lon="5.21253">
        <ele>505</ele>
        <time>2022-09-29T14:25:35Z</time>
      </trkpt>
      <trkpt lat="44.40313" lon="5.21252">
        <ele>505</ele>
        <time>2022-09-29T14:25:36Z</time>
      </trkpt>
      <trkpt lat="44.40313" lon="5.2125">
        <ele>505</ele>
        <time>2022-09-29T14:25:37Z</time>
      </trkpt>
      <trkpt lat="44.40314" lon="5.21249">
        <ele>505</ele>
        <time>2022-09-29T14:25:38Z</time>
      </trkpt>
      <trkpt lat="44.40314" lon="5.21248">
        <ele>504</ele>
        <time>2022-09-29T14:25:39Z</time>
      </trkpt>
      <trkpt lat="44.40314" lon="5.21247">
        <ele>504</ele>
        <time>2022-09-29T14:25:40Z</time>
      </trkpt>
      <trkpt lat="44.40314" lon="5.21245">
        <ele>504</ele>
        <time>2022-09-29T14:25:41Z</time>
      </trkpt>
      <trkpt lat="44.40315" lon="5.21244">
        <ele>504</ele>
        <time>2022-09-29T14:25:42Z</time>
      </trkpt>
      <trkpt lat="44.40315" lon="5.21243">
        <ele>504</ele>
        <time>2022-09-29T14:25:43Z</time>
      </trkpt>
      <trkpt lat="44.40315" lon="5.21243">
        <ele>503</ele>
        <time>2022-09-29T14:25:44Z</time>
      </trkpt>
      <trkpt lat="44.40315" lon="5.21242">
        <ele>503</ele>
        <time>2022-09-29T14:25:45Z</time>
      </trkpt>
      <trkpt lat="44.40315" lon="5.21241">
        <ele>502</ele>
        <time>2022-09-29T14:26:00Z</time>
      </trkpt>
      <trkpt lat="44.40315" lon="5.21241">
        <ele>502</ele>
        <time>2022-09-29T14:26:01Z</time>
      </trkpt>
      <trkpt lat="44.40315" lon="5.21242">
        <ele>502</ele>
        <time>2022-09-29T14:26:02Z</time>
      </trkpt>
      <trkpt lat="44.40315" lon="5.21242">
        <ele>502</ele>
        <time>2022-09-29T14:26:03Z</time>
      </trkpt>
      <trkpt lat="44.40315" lon="5.21243">
        <ele>502</ele>
        <time>2022-09-29T14:26:04Z</time>
      </trkpt>
      <trkpt lat="44.40315" lon="5.21244">
        <ele>502</ele>
        <time>2022-09-29T14:26:05Z</time>
      </trkpt>
      <trkpt lat="44.40315" lon="5.21245">
        <ele>502</ele>
        <time>2022-09-29T14:26:06Z</time>
      </trkpt>
      <trkpt lat="44.40315" lon="5.21246">
        <ele>502</ele>
        <time>2022-09-29T14:26:07Z</time>
      </trkpt>
      <trkpt lat="44.40315" lon="5.21247">
        <ele>503</ele>
        <time>2022-09-29T14:26:08Z</time>
      </trkpt>
      <trkpt lat="44.40315" lon="5.21249">
        <ele>503</ele>
        <time>2022-09-29T14:26:09Z</time>
      </trkpt>
      <trkpt lat="44.40314" lon="5.2125">
        <ele>503</ele>
        <time>2022-09-29T14:26:10Z</time>
      </trkpt>
      <trkpt lat="44.40314" lon="5.21251">
        <ele>503</ele>
        <time>2022-09-29T14:26:11Z</time>
      </trkpt>
      <trkpt lat="44.40314" lon="5.21253">
        <ele>503</ele>
        <time>2022-09-29T14:26:12Z</time>
      </trkpt>
      <trkpt lat="44.40314" lon="5.21254">
        <ele>503</ele>
        <time>2022-09-29T14:26:13Z</time>
      </trkpt>
      <trkpt lat="44.40314" lon="5.21255">
        <ele>503</ele>
        <time>2022-09-29T14:26:14Z</time>
      </trkpt>
      <trkpt lat="44.40313" lon="5.21257">
        <ele>503</ele>
        <time>2022-09-29T14:26:15Z</time>
      </trkpt>
      <trkpt lat="44.40313" lon="5.21258">
        <ele>503</ele>
        <time>2022-09-29T14:26:16Z</time>
      </trkpt>
      <trkpt lat="44.40313" lon="5.21259">
        <ele>503</ele>
        <time>2022-09-29T14:26:17Z</time>
      </trkpt>
      <trkpt lat="44.40312" lon="5.2126">
        <ele>504</ele>
        <time>2022-09-29T14:26:18Z</time>
      </trkpt>
      <trkpt lat="44.40312" lon="5.2126">
        <ele>504</ele>
        <time>2022-09-29T14:26:19Z</time>
      </trkpt>
      <trkpt lat="44.40312" lon="5.21261">
        <ele>504</ele>
        <time>2022-09-29T14:26:20Z</time>
      </trkpt>
      <trkpt lat="44.40312" lon="5.21261">
        <ele>504</ele>
        <time>2022-09-29T14:26:21Z</time>
      </trkpt>
      <trkpt lat="44.40312" lon="5.21261">
        <ele>504</ele>
        <time>2022-09-29T14:26:22Z</time>
      </trkpt>
      <trkpt lat="44.40311" lon="5.21261">
        <ele>504</ele>
        <time>2022-09-29T14:26:23Z</time>
      </trkpt>
      <trkpt lat="44.40311" lon="5.21262">
        <ele>504</ele>
        <time>2022-09-29T14:26:24Z</time>
      </trkpt>
      <trkpt lat="44.40311" lon="5.21262">
        <ele>504</ele>
        <time>2022-09-29T14:26:25Z</time>
      </trkpt>
      <trkpt lat="44.4031" lon="5.21262">
        <ele>504</ele>
        <time>2022-09-29T14:26:26Z</time>
      </trkpt>
      <trkpt lat="44.40309" lon="5.21262">
        <ele>505</ele>
        <time>2022-09-29T14:26:42Z</time>
      </trkpt>
      <trkpt lat="44.40309" lon="5.21261">
        <ele>505</ele>
        <time>2022-09-29T14:26:43Z</time>
      </trkpt>
      <trkpt lat="44.40309" lon="5.21261">
        <ele>504</ele>
        <time>2022-09-29T14:26:44Z</time>
      </trkpt>
      <trkpt lat="44.40308" lon="5.2126">
        <ele>504</ele>
        <time>2022-09-29T14:26:45Z</time>
      </trkpt>
      <trkpt lat="44.40308" lon="5.2126">
        <ele>504</ele>
        <time>2022-09-29T14:26:46Z</time>
      </trkpt>
      <trkpt lat="44.40307" lon="5.21259">
        <ele>504</ele>
        <time>2022-09-29T14:26:47Z</time>
      </trkpt>
      <trkpt lat="44.40307" lon="5.21259">
        <ele>504</ele>
        <time>2022-09-29T14:26:48Z</time>
      </trkpt>
      <trkpt lat="44.40306" lon="5.21258">
        <ele>504</ele>
        <time>2022-09-29T14:26:49Z</time>
      </trkpt>
      <trkpt lat="44.40306" lon="5.21257">
        <ele>504</ele>
        <time>2022-09-29T14:26:50Z</time>
      </trkpt>
      <trkpt lat="44.40305" lon="5.21256">
        <ele>504</ele>
        <time>2022-09-29T14:26:51Z</time>
      </trkpt>
      <trkpt lat="44.40304" lon="5.21255">
        <ele>504</ele>
        <time>2022-09-29T14:26:52Z</time>
      </trkpt>
      <trkpt lat="44.40304" lon="5.21255">
        <ele>504</ele>
        <time>2022-09-29T14:26:53Z</time>
      </trkpt>
      <trkpt lat="44.40303" lon="5.21254">
        <ele>504</ele>
        <time>2022-09-29T14:26:54Z</time>
      </trkpt>
      <trkpt lat="44.40302" lon="5.21253">
        <ele>504</ele>
        <time>2022-09-29T14:26:55Z</time>
      </trkpt>
      <trkpt lat="44.40301" lon="5.21252">
        <ele>504</ele>
        <time>2022-09-29T14:26:56Z</time>
      </trkpt>
      <trkpt lat="44.40301" lon="5.21251">
        <ele>504</ele>
        <time>2022-09-29T14:26:57Z</time>
      </trkpt>
      <trkpt lat="44.403" lon="5.2125">
        <ele>504</ele>
        <time>2022-09-29T14:26:58Z</time>
      </trkpt>
      <trkpt lat="44.40299" lon="5.2125">
        <ele>503</ele>
        <time>2022-09-29T14:26:59Z</time>
      </trkpt>
      <trkpt lat="44.40299" lon="5.21249">
        <ele>503</ele>
        <time>2022-09-29T14:27:00Z</time>
      </trkpt>
      <trkpt lat="44.40298" lon="5.21248">
        <ele>503</ele>
        <time>2022-09-29T14:27:01Z</time>
      </trkpt>
      <trkpt lat="44.40298" lon="5.21247">
        <ele>503</ele>
        <time>2022-09-29T14:27:02Z</time>
      </trkpt>
      <trkpt lat="44.40298" lon="5.21246">
        <ele>503</ele>
        <time>2022-09-29T14:27:03Z</time>
      </trkpt>
      <trkpt lat="44.40298" lon="5.21246">
        <ele>502</ele>
        <time>2022-09-29T14:27:04Z</time>
      </trkpt>
      <trkpt lat="44.40298" lon="5.21245">
        <ele>502</ele>
        <time>2022-09-29T14:27:05Z</time>
      </trkpt>
      <trkpt lat="44.40297" lon="5.21244">
        <ele>502</ele>
        <time>2022-09-29T14:27:06Z</time>
      </trkpt>
      <trkpt lat="44.40297" lon="5.21244">
        <ele>502</ele>
        <time>2022-09-29T14:27:07Z</time>
      </trkpt>
      <trkpt lat="44.40297" lon="5.21243">
        <ele>502</ele>
        <time>2022-09-29T14:27:08Z</time>
      </trkpt>
      <trkpt lat="44.40297" lon="5.21242">
        <ele>502</ele>
        <time>2022-09-29T14:27:09Z</time>
      </trkpt>
      <trkpt lat="44.40297" lon="5.21241">
        <ele>502</ele>
        <time>2022-09-29T14:27:10Z</time>
      </trkpt>
      <trkpt lat="44.40296" lon="5.2124">
        <ele>502</ele>
        <time>2022-09-29T14:27:11Z</time>
      </trkpt>
      <trkpt lat="44.40296" lon="5.21238">
        <ele>502</ele>
        <time>2022-09-29T14:27:12Z</time>
      </trkpt>
      <trkpt lat="44.40296" lon="5.21237">
        <ele>502</ele>
        <time>2022-09-29T14:27:13Z</time>
      </trkpt>
      <trkpt lat="44.40296" lon="5.21236">
        <ele>501</ele>
        <time>2022-09-29T14:27:14Z</time>
      </trkpt>
      <trkpt lat="44.40296" lon="5.21235">
        <ele>501</ele>
        <time>2022-09-29T14:27:15Z</time>
      </trkpt>
      <trkpt lat="44.40296" lon="5.21234">
        <ele>501</ele>
        <time>2022-09-29T14:27:16Z</time>
      </trkpt>
      <trkpt lat="44.40297" lon="5.21233">
        <ele>501</ele>
        <time>2022-09-29T14:27:17Z</time>
      </trkpt>
      <trkpt lat="44.40297" lon="5.21232">
        <ele>501</ele>
        <time>2022-09-29T14:27:18Z</time>
      </trkpt>
      <trkpt lat="44.40297" lon="5.21231">
        <ele>501</ele>
        <time>2022-09-29T14:27:19Z</time>
      </trkpt>
      <trkpt lat="44.40297" lon="5.2123">
        <ele>501</ele>
        <time>2022-09-29T14:27:20Z</time>
      </trkpt>
      <trkpt lat="44.40297" lon="5.21229">
        <ele>501</ele>
        <time>2022-09-29T14:27:21Z</time>
      </trkpt>
      <trkpt lat="44.40296" lon="5.21227">
        <ele>501</ele>
        <time>2022-09-29T14:27:22Z</time>
      </trkpt>
      <trkpt lat="44.40296" lon="5.21225">
        <ele>501</ele>
        <time>2022-09-29T14:27:31Z</time>
      </trkpt>
      <trkpt lat="44.40296" lon="5.21224">
        <ele>501</ele>
        <time>2022-09-29T14:27:32Z</time>
      </trkpt>
      <trkpt lat="44.40296" lon="5.21224">
        <ele>501</ele>
        <time>2022-09-29T14:27:33Z</time>
      </trkpt>
      <trkpt lat="44.40296" lon="5.21223">
        <ele>500</ele>
        <time>2022-09-29T14:27:34Z</time>
      </trkpt>
      <trkpt lat="44.40296" lon="5.21222">
        <ele>500</ele>
        <time>2022-09-29T14:27:35Z</time>
      </trkpt>
      <trkpt lat="44.40295" lon="5.21221">
        <ele>500</ele>
        <time>2022-09-29T14:27:36Z</time>
      </trkpt>
      <trkpt lat="44.40295" lon="5.21221">
        <ele>500</ele>
        <time>2022-09-29T14:27:37Z</time>
      </trkpt>
      <trkpt lat="44.40294" lon="5.2122">
        <ele>500</ele>
        <time>2022-09-29T14:27:38Z</time>
      </trkpt>
      <trkpt lat="44.40294" lon="5.21219">
        <ele>500</ele>
        <time>2022-09-29T14:27:39Z</time>
      </trkpt>
      <trkpt lat="44.40293" lon="5.21218">
        <ele>500</ele>
        <time>2022-09-29T14:27:40Z</time>
      </trkpt>
      <trkpt lat="44.40293" lon="5.21217">
        <ele>500</ele>
        <time>2022-09-29T14:27:41Z</time>
      </trkpt>
      <trkpt lat="44.40292" lon="5.21216">
        <ele>500</ele>
        <time>2022-09-29T14:27:42Z</time>
      </trkpt>
      <trkpt lat="44.40292" lon="5.21215">
        <ele>500</ele>
        <time>2022-09-29T14:27:43Z</time>
      </trkpt>
      <trkpt lat="44.40291" lon="5.21215">
        <ele>499</ele>
        <time>2022-09-29T14:27:44Z</time>
      </trkpt>
      <trkpt lat="44.4029" lon="5.21214">
        <ele>499</ele>
        <time>2022-09-29T14:27:45Z</time>
      </trkpt>
      <trkpt lat="44.40289" lon="5.21214">
        <ele>499</ele>
        <time>2022-09-29T14:27:46Z</time>
      </trkpt>
      <trkpt lat="44.40289" lon="5.21214">
        <ele>499</ele>
        <time>2022-09-29T14:27:47Z</time>
      </trkpt>
      <trkpt lat="44.40288" lon="5.21214">
        <ele>499</ele>
        <time>2022-09-29T14:27:48Z</time>
      </trkpt>
      <trkpt lat="44.40287" lon="5.21214">
        <ele>498</ele>
        <time>2022-09-29T14:27:49Z</time>
      </trkpt>
      <trkpt lat="44.40286" lon="5.21215">
        <ele>498</ele>
        <time>2022-09-29T14:27:50Z</time>
      </trkpt>
      <trkpt lat="44.40286" lon="5.21215">
        <ele>498</ele>
        <time>2022-09-29T14:27:51Z</time>
      </trkpt>
      <trkpt lat="44.40285" lon="5.21216">
        <ele>498</ele>
        <time>2022-09-29T14:27:52Z</time>
      </trkpt>
      <trkpt lat="44.40284" lon="5.21216">
        <ele>498</ele>
        <time>2022-09-29T14:27:53Z</time>
      </trkpt>
      <trkpt lat="44.40284" lon="5.21217">
        <ele>497</ele>
        <time>2022-09-29T14:27:54Z</time>
      </trkpt>
      <trkpt lat="44.40283" lon="5.21217">
        <ele>497</ele>
        <time>2022-09-29T14:27:55Z</time>
      </trkpt>
      <trkpt lat="44.40282" lon="5.21217">
        <ele>497</ele>
        <time>2022-09-29T14:27:56Z</time>
      </trkpt>
      <trkpt lat="44.40281" lon="5.21218">
        <ele>497</ele>
        <time>2022-09-29T14:27:57Z</time>
      </trkpt>
      <trkpt lat="44.40281" lon="5.21219">
        <ele>497</ele>
        <time>2022-09-29T14:27:58Z</time>
      </trkpt>
      <trkpt lat="44.4028" lon="5.21219">
        <ele>496</ele>
        <time>2022-09-29T14:27:59Z</time>
      </trkpt>
      <trkpt lat="44.40279" lon="5.2122">
        <ele>496</ele>
        <time>2022-09-29T14:28:00Z</time>
      </trkpt>
      <trkpt lat="44.40279" lon="5.21221">
        <ele>496</ele>
        <time>2022-09-29T14:28:01Z</time>
      </trkpt>
      <trkpt lat="44.40278" lon="5.21222">
        <ele>496</ele>
        <time>2022-09-29T14:28:02Z</time>
      </trkpt>
      <trkpt lat="44.40278" lon="5.21222">
        <ele>496</ele>
        <time>2022-09-29T14:28:03Z</time>
      </trkpt>
      <trkpt lat="44.40277" lon="5.21223">
        <ele>496</ele>
        <time>2022-09-29T14:28:04Z</time>
      </trkpt>
      <trkpt lat="44.40277" lon="5.21223">
        <ele>496</ele>
        <time>2022-09-29T14:28:05Z</time>
      </trkpt>
      <trkpt lat="44.40276" lon="5.21223">
        <ele>496</ele>
        <time>2022-09-29T14:28:06Z</time>
      </trkpt>
      <trkpt lat="44.40275" lon="5.21224">
        <ele>496</ele>
        <time>2022-09-29T14:28:07Z</time>
      </trkpt>
      <trkpt lat="44.40274" lon="5.21224">
        <ele>496</ele>
        <time>2022-09-29T14:28:08Z</time>
      </trkpt>
      <trkpt lat="44.40274" lon="5.21224">
        <ele>495</ele>
        <time>2022-09-29T14:28:09Z</time>
      </trkpt>
      <trkpt lat="44.40273" lon="5.21225">
        <ele>495</ele>
        <time>2022-09-29T14:28:10Z</time>
      </trkpt>
      <trkpt lat="44.40273" lon="5.21225">
        <ele>495</ele>
        <time>2022-09-29T14:28:11Z</time>
      </trkpt>
      <trkpt lat="44.40272" lon="5.21226">
        <ele>495</ele>
        <time>2022-09-29T14:28:12Z</time>
      </trkpt>
      <trkpt lat="44.40271" lon="5.21227">
        <ele>495</ele>
        <time>2022-09-29T14:28:13Z</time>
      </trkpt>
      <trkpt lat="44.4027" lon="5.21228">
        <ele>494</ele>
        <time>2022-09-29T14:28:14Z</time>
      </trkpt>
      <trkpt lat="44.4027" lon="5.21228">
        <ele>494</ele>
        <time>2022-09-29T14:28:15Z</time>
      </trkpt>
      <trkpt lat="44.40269" lon="5.21228">
        <ele>494</ele>
        <time>2022-09-29T14:28:16Z</time>
      </trkpt>
      <trkpt lat="44.40268" lon="5.21228">
        <ele>494</ele>
        <time>2022-09-29T14:28:17Z</time>
      </trkpt>
      <trkpt lat="44.40267" lon="5.21228">
        <ele>494</ele>
        <time>2022-09-29T14:28:18Z</time>
      </trkpt>
      <trkpt lat="44.40266" lon="5.21228">
        <ele>493</ele>
        <time>2022-09-29T14:28:19Z</time>
      </trkpt>
      <trkpt lat="44.40266" lon="5.21228">
        <ele>493</ele>
        <time>2022-09-29T14:28:20Z</time>
      </trkpt>
      <trkpt lat="44.40265" lon="5.21227">
        <ele>493</ele>
        <time>2022-09-29T14:28:21Z</time>
      </trkpt>
      <trkpt lat="44.40264" lon="5.21227">
        <ele>493</ele>
        <time>2022-09-29T14:28:22Z</time>
      </trkpt>
      <trkpt lat="44.40264" lon="5.21226">
        <ele>493</ele>
        <time>2022-09-29T14:28:23Z</time>
      </trkpt>
      <trkpt lat="44.40263" lon="5.21226">
        <ele>492</ele>
        <time>2022-09-29T14:28:24Z</time>
      </trkpt>
      <trkpt lat="44.40263" lon="5.21225">
        <ele>492</ele>
        <time>2022-09-29T14:28:25Z</time>
      </trkpt>
      <trkpt lat="44.40262" lon="5.21224">
        <ele>492</ele>
        <time>2022-09-29T14:28:26Z</time>
      </trkpt>
      <trkpt lat="44.40262" lon="5.21223">
        <ele>492</ele>
        <time>2022-09-29T14:28:27Z</time>
      </trkpt>
      <trkpt lat="44.40262" lon="5.21222">
        <ele>492</ele>
        <time>2022-09-29T14:28:28Z</time>
      </trkpt>
      <trkpt lat="44.40262" lon="5.2122">
        <ele>491</ele>
        <time>2022-09-29T14:28:29Z</time>
      </trkpt>
      <trkpt lat="44.40261" lon="5.21219">
        <ele>491</ele>
        <time>2022-09-29T14:28:30Z</time>
      </trkpt>
      <trkpt lat="44.40261" lon="5.21217">
        <ele>491</ele>
        <time>2022-09-29T14:28:31Z</time>
      </trkpt>
      <trkpt lat="44.40261" lon="5.21216">
        <ele>491</ele>
        <time>2022-09-29T14:28:32Z</time>
      </trkpt>
      <trkpt lat="44.40261" lon="5.21215">
        <ele>491</ele>
        <time>2022-09-29T14:28:33Z</time>
      </trkpt>
      <trkpt lat="44.40261" lon="5.21214">
        <ele>490</ele>
        <time>2022-09-29T14:28:34Z</time>
      </trkpt>
      <trkpt lat="44.40261" lon="5.21212">
        <ele>490</ele>
        <time>2022-09-29T14:28:35Z</time>
      </trkpt>
      <trkpt lat="44.40261" lon="5.21211">
        <ele>490</ele>
        <time>2022-09-29T14:28:36Z</time>
      </trkpt>
      <trkpt lat="44.4026" lon="5.2121">
        <ele>490</ele>
        <time>2022-09-29T14:28:37Z</time>
      </trkpt>
      <trkpt lat="44.4026" lon="5.21209">
        <ele>490</ele>
        <time>2022-09-29T14:28:38Z</time>
      </trkpt>
      <trkpt lat="44.4026" lon="5.21207">
        <ele>490</ele>
        <time>2022-09-29T14:28:39Z</time>
      </trkpt>
      <trkpt lat="44.40259" lon="5.21206">
        <ele>490</ele>
        <time>2022-09-29T14:28:40Z</time>
      </trkpt>
      <trkpt lat="44.40259" lon="5.21204">
        <ele>490</ele>
        <time>2022-09-29T14:28:41Z</time>
      </trkpt>
      <trkpt lat="44.40259" lon="5.21203">
        <ele>490</ele>
        <time>2022-09-29T14:28:42Z</time>
      </trkpt>
      <trkpt lat="44.40259" lon="5.21201">
        <ele>490</ele>
        <time>2022-09-29T14:28:43Z</time>
      </trkpt>
      <trkpt lat="44.40259" lon="5.212">
        <ele>489</ele>
        <time>2022-09-29T14:28:44Z</time>
      </trkpt>
      <trkpt lat="44.40259" lon="5.21198">
        <ele>489</ele>
        <time>2022-09-29T14:28:45Z</time>
      </trkpt>
      <trkpt lat="44.40259" lon="5.21197">
        <ele>489</ele>
        <time>2022-09-29T14:28:46Z</time>
      </trkpt>
      <trkpt lat="44.40259" lon="5.21196">
        <ele>489</ele>
        <time>2022-09-29T14:28:47Z</time>
      </trkpt>
      <trkpt lat="44.40259" lon="5.21195">
        <ele>489</ele>
        <time>2022-09-29T14:28:48Z</time>
      </trkpt>
      <trkpt lat="44.40259" lon="5.21195">
        <ele>488</ele>
        <time>2022-09-29T14:28:49Z</time>
      </trkpt>
      <trkpt lat="44.40259" lon="5.21194">
        <ele>488</ele>
        <time>2022-09-29T14:28:50Z</time>
      </trkpt>
      <trkpt lat="44.40259" lon="5.21192">
        <ele>488</ele>
        <time>2022-09-29T14:28:51Z</time>
      </trkpt>
      <trkpt lat="44.40259" lon="5.21191">
        <ele>488</ele>
        <time>2022-09-29T14:28:52Z</time>
      </trkpt>
      <trkpt lat="44.40259" lon="5.2119">
        <ele>488</ele>
        <time>2022-09-29T14:28:53Z</time>
      </trkpt>
      <trkpt lat="44.4026" lon="5.21189">
        <ele>488</ele>
        <time>2022-09-29T14:28:54Z</time>
      </trkpt>
      <trkpt lat="44.4026" lon="5.21188">
        <ele>488</ele>
        <time>2022-09-29T14:28:55Z</time>
      </trkpt>
      <trkpt lat="44.4026" lon="5.21186">
        <ele>488</ele>
        <time>2022-09-29T14:28:56Z</time>
      </trkpt>
      <trkpt lat="44.4026" lon="5.21185">
        <ele>488</ele>
        <time>2022-09-29T14:28:57Z</time>
      </trkpt>
      <trkpt lat="44.40261" lon="5.21184">
        <ele>488</ele>
        <time>2022-09-29T14:28:58Z</time>
      </trkpt>
      <trkpt lat="44.40261" lon="5.21182">
        <ele>487</ele>
        <time>2022-09-29T14:28:59Z</time>
      </trkpt>
      <trkpt lat="44.40261" lon="5.2118">
        <ele>487</ele>
        <time>2022-09-29T14:29:00Z</time>
      </trkpt>
      <trkpt lat="44.40262" lon="5.21179">
        <ele>487</ele>
        <time>2022-09-29T14:29:01Z</time>
      </trkpt>
      <trkpt lat="44.40262" lon="5.21177">
        <ele>487</ele>
        <time>2022-09-29T14:29:02Z</time>
      </trkpt>
      <trkpt lat="44.40262" lon="5.21176">
        <ele>487</ele>
        <time>2022-09-29T14:29:03Z</time>
      </trkpt>
      <trkpt lat="44.40263" lon="5.21174">
        <ele>487</ele>
        <time>2022-09-29T14:29:04Z</time>
      </trkpt>
      <trkpt lat="44.40263" lon="5.21173">
        <ele>487</ele>
        <time>2022-09-29T14:29:05Z</time>
      </trkpt>
      <trkpt lat="44.40263" lon="5.21171">
        <ele>487</ele>
        <time>2022-09-29T14:29:06Z</time>
      </trkpt>
      <trkpt lat="44.40264" lon="5.2117">
        <ele>487</ele>
        <time>2022-09-29T14:29:07Z</time>
      </trkpt>
      <trkpt lat="44.40264" lon="5.21168">
        <ele>487</ele>
        <time>2022-09-29T14:29:08Z</time>
      </trkpt>
      <trkpt lat="44.40264" lon="5.21167">
        <ele>486</ele>
        <time>2022-09-29T14:29:09Z</time>
      </trkpt>
      <trkpt lat="44.40264" lon="5.21166">
        <ele>486</ele>
        <time>2022-09-29T14:29:10Z</time>
      </trkpt>
      <trkpt lat="44.40265" lon="5.21164">
        <ele>486</ele>
        <time>2022-09-29T14:29:11Z</time>
      </trkpt>
      <trkpt lat="44.40265" lon="5.21163">
        <ele>486</ele>
        <time>2022-09-29T14:29:12Z</time>
      </trkpt>
      <trkpt lat="44.40266" lon="5.21162">
        <ele>486</ele>
        <time>2022-09-29T14:29:13Z</time>
      </trkpt>
      <trkpt lat="44.40266" lon="5.21161">
        <ele>486</ele>
        <time>2022-09-29T14:29:14Z</time>
      </trkpt>
      <trkpt lat="44.40267" lon="5.2116">
        <ele>486</ele>
        <time>2022-09-29T14:29:15Z</time>
      </trkpt>
      <trkpt lat="44.40267" lon="5.21159">
        <ele>486</ele>
        <time>2022-09-29T14:29:16Z</time>
      </trkpt>
      <trkpt lat="44.40268" lon="5.21157">
        <ele>486</ele>
        <time>2022-09-29T14:29:17Z</time>
      </trkpt>
      <trkpt lat="44.40268" lon="5.21156">
        <ele>486</ele>
        <time>2022-09-29T14:29:18Z</time>
      </trkpt>
      <trkpt lat="44.40269" lon="5.21155">
        <ele>485</ele>
        <time>2022-09-29T14:29:19Z</time>
      </trkpt>
      <trkpt lat="44.4027" lon="5.21153">
        <ele>485</ele>
        <time>2022-09-29T14:29:20Z</time>
      </trkpt>
      <trkpt lat="44.4027" lon="5.21152">
        <ele>485</ele>
        <time>2022-09-29T14:29:21Z</time>
      </trkpt>
      <trkpt lat="44.40271" lon="5.21151">
        <ele>485</ele>
        <time>2022-09-29T14:29:22Z</time>
      </trkpt>
      <trkpt lat="44.40271" lon="5.21149">
        <ele>485</ele>
        <time>2022-09-29T14:29:23Z</time>
      </trkpt>
      <trkpt lat="44.40272" lon="5.21148">
        <ele>484</ele>
        <time>2022-09-29T14:29:24Z</time>
      </trkpt>
      <trkpt lat="44.40272" lon="5.21147">
        <ele>484</ele>
        <time>2022-09-29T14:29:25Z</time>
      </trkpt>
      <trkpt lat="44.40273" lon="5.21146">
        <ele>483</ele>
        <time>2022-09-29T14:29:26Z</time>
      </trkpt>
      <trkpt lat="44.40274" lon="5.21145">
        <ele>483</ele>
        <time>2022-09-29T14:29:27Z</time>
      </trkpt>
      <trkpt lat="44.40274" lon="5.21144">
        <ele>483</ele>
        <time>2022-09-29T14:29:28Z</time>
      </trkpt>
      <trkpt lat="44.40275" lon="5.21143">
        <ele>482</ele>
        <time>2022-09-29T14:29:29Z</time>
      </trkpt>
      <trkpt lat="44.40275" lon="5.21141">
        <ele>482</ele>
        <time>2022-09-29T14:29:30Z</time>
      </trkpt>
      <trkpt lat="44.40275" lon="5.21141">
        <ele>482</ele>
        <time>2022-09-29T14:29:31Z</time>
      </trkpt>
      <trkpt lat="44.40276" lon="5.2114">
        <ele>482</ele>
        <time>2022-09-29T14:29:32Z</time>
      </trkpt>
      <trkpt lat="44.40276" lon="5.21139">
        <ele>482</ele>
        <time>2022-09-29T14:29:33Z</time>
      </trkpt>
      <trkpt lat="44.40276" lon="5.21138">
        <ele>482</ele>
        <time>2022-09-29T14:29:34Z</time>
      </trkpt>
      <trkpt lat="44.40275" lon="5.21138">
        <ele>482</ele>
        <time>2022-09-29T14:29:35Z</time>
      </trkpt>
      <trkpt lat="44.40275" lon="5.21137">
        <ele>482</ele>
        <time>2022-09-29T14:29:36Z</time>
      </trkpt>
      <trkpt lat="44.40274" lon="5.21138">
        <ele>482</ele>
        <time>2022-09-29T14:29:37Z</time>
      </trkpt>
      <trkpt lat="44.40273" lon="5.21138">
        <ele>482</ele>
        <time>2022-09-29T14:29:38Z</time>
      </trkpt>
      <trkpt lat="44.40273" lon="5.21139">
        <ele>481</ele>
        <time>2022-09-29T14:29:39Z</time>
      </trkpt>
      <trkpt lat="44.40272" lon="5.21141">
        <ele>481</ele>
        <time>2022-09-29T14:29:40Z</time>
      </trkpt>
      <trkpt lat="44.40271" lon="5.21142">
        <ele>481</ele>
        <time>2022-09-29T14:29:41Z</time>
      </trkpt>
      <trkpt lat="44.4027" lon="5.21143">
        <ele>481</ele>
        <time>2022-09-29T14:29:42Z</time>
      </trkpt>
      <trkpt lat="44.40269" lon="5.21144">
        <ele>481</ele>
        <time>2022-09-29T14:29:43Z</time>
      </trkpt>
      <trkpt lat="44.40269" lon="5.21146">
        <ele>481</ele>
        <time>2022-09-29T14:29:44Z</time>
      </trkpt>
      <trkpt lat="44.40268" lon="5.21146">
        <ele>481</ele>
        <time>2022-09-29T14:29:45Z</time>
      </trkpt>
      <trkpt lat="44.40267" lon="5.21147">
        <ele>481</ele>
        <time>2022-09-29T14:29:46Z</time>
      </trkpt>
      <trkpt lat="44.40266" lon="5.21148">
        <ele>481</ele>
        <time>2022-09-29T14:29:47Z</time>
      </trkpt>
      <trkpt lat="44.40265" lon="5.21149">
        <ele>481</ele>
        <time>2022-09-29T14:29:48Z</time>
      </trkpt>
      <trkpt lat="44.40264" lon="5.2115">
        <ele>481</ele>
        <time>2022-09-29T14:29:49Z</time>
      </trkpt>
      <trkpt lat="44.40262" lon="5.2115">
        <ele>481</ele>
        <time>2022-09-29T14:29:50Z</time>
      </trkpt>
      <trkpt lat="44.40261" lon="5.21151">
        <ele>481</ele>
        <time>2022-09-29T14:29:51Z</time>
      </trkpt>
      <trkpt lat="44.4026" lon="5.21152">
        <ele>481</ele>
        <time>2022-09-29T14:29:52Z</time>
      </trkpt>
      <trkpt lat="44.4026" lon="5.21152">
        <ele>481</ele>
        <time>2022-09-29T14:29:53Z</time>
      </trkpt>
      <trkpt lat="44.40259" lon="5.21153">
        <ele>480</ele>
        <time>2022-09-29T14:29:54Z</time>
      </trkpt>
      <trkpt lat="44.40258" lon="5.21153">
        <ele>480</ele>
        <time>2022-09-29T14:29:55Z</time>
      </trkpt>
      <trkpt lat="44.40257" lon="5.21153">
        <ele>480</ele>
        <time>2022-09-29T14:29:56Z</time>
      </trkpt>
      <trkpt lat="44.40256" lon="5.21154">
        <ele>480</ele>
        <time>2022-09-29T14:29:57Z</time>
      </trkpt>
      <trkpt lat="44.40255" lon="5.21154">
        <ele>480</ele>
        <time>2022-09-29T14:29:58Z</time>
      </trkpt>
      <trkpt lat="44.40254" lon="5.21155">
        <ele>479</ele>
        <time>2022-09-29T14:29:59Z</time>
      </trkpt>
      <trkpt lat="44.40254" lon="5.21156">
        <ele>479</ele>
        <time>2022-09-29T14:30:00Z</time>
      </trkpt>
      <trkpt lat="44.40253" lon="5.21156">
        <ele>479</ele>
        <time>2022-09-29T14:30:01Z</time>
      </trkpt>
      <trkpt lat="44.40252" lon="5.21157">
        <ele>479</ele>
        <time>2022-09-29T14:30:02Z</time>
      </trkpt>
      <trkpt lat="44.40251" lon="5.21158">
        <ele>479</ele>
        <time>2022-09-29T14:30:03Z</time>
      </trkpt>
      <trkpt lat="44.4025" lon="5.21158">
        <ele>479</ele>
        <time>2022-09-29T14:30:04Z</time>
      </trkpt>
      <trkpt lat="44.40249" lon="5.21159">
        <ele>479</ele>
        <time>2022-09-29T14:30:05Z</time>
      </trkpt>
      <trkpt lat="44.40248" lon="5.21159">
        <ele>479</ele>
        <time>2022-09-29T14:30:06Z</time>
      </trkpt>
      <trkpt lat="44.40247" lon="5.2116">
        <ele>479</ele>
        <time>2022-09-29T14:30:07Z</time>
      </trkpt>
      <trkpt lat="44.40246" lon="5.2116">
        <ele>479</ele>
        <time>2022-09-29T14:30:08Z</time>
      </trkpt>
      <trkpt lat="44.40245" lon="5.21161">
        <ele>478</ele>
        <time>2022-09-29T14:30:09Z</time>
      </trkpt>
      <trkpt lat="44.40244" lon="5.21162">
        <ele>478</ele>
        <time>2022-09-29T14:30:10Z</time>
      </trkpt>
      <trkpt lat="44.40244" lon="5.21163">
        <ele>478</ele>
        <time>2022-09-29T14:30:11Z</time>
      </trkpt>
      <trkpt lat="44.40243" lon="5.21163">
        <ele>478</ele>
        <time>2022-09-29T14:30:12Z</time>
      </trkpt>
      <trkpt lat="44.40242" lon="5.21164">
        <ele>478</ele>
        <time>2022-09-29T14:30:13Z</time>
      </trkpt>
      <trkpt lat="44.40241" lon="5.21165">
        <ele>477</ele>
        <time>2022-09-29T14:30:14Z</time>
      </trkpt>
      <trkpt lat="44.4024" lon="5.21166">
        <ele>477</ele>
        <time>2022-09-29T14:30:15Z</time>
      </trkpt>
      <trkpt lat="44.40239" lon="5.21167">
        <ele>477</ele>
        <time>2022-09-29T14:30:16Z</time>
      </trkpt>
      <trkpt lat="44.40238" lon="5.21168">
        <ele>477</ele>
        <time>2022-09-29T14:30:17Z</time>
      </trkpt>
      <trkpt lat="44.40237" lon="5.21169">
        <ele>477</ele>
        <time>2022-09-29T14:30:18Z</time>
      </trkpt>
      <trkpt lat="44.40237" lon="5.2117">
        <ele>476</ele>
        <time>2022-09-29T14:30:19Z</time>
      </trkpt>
      <trkpt lat="44.40236" lon="5.21171">
        <ele>476</ele>
        <time>2022-09-29T14:30:20Z</time>
      </trkpt>
      <trkpt lat="44.40236" lon="5.21172">
        <ele>476</ele>
        <time>2022-09-29T14:30:21Z</time>
      </trkpt>
      <trkpt lat="44.40235" lon="5.21173">
        <ele>476</ele>
        <time>2022-09-29T14:30:22Z</time>
      </trkpt>
      <trkpt lat="44.40234" lon="5.21174">
        <ele>476</ele>
        <time>2022-09-29T14:30:23Z</time>
      </trkpt>
      <trkpt lat="44.40234" lon="5.21176">
        <ele>476</ele>
        <time>2022-09-29T14:30:24Z</time>
      </trkpt>
      <trkpt lat="44.40233" lon="5.21177">
        <ele>476</ele>
        <time>2022-09-29T14:30:25Z</time>
      </trkpt>
      <trkpt lat="44.40232" lon="5.21178">
        <ele>476</ele>
        <time>2022-09-29T14:30:26Z</time>
      </trkpt>
      <trkpt lat="44.40232" lon="5.21179">
        <ele>476</ele>
        <time>2022-09-29T14:30:27Z</time>
      </trkpt>
      <trkpt lat="44.40231" lon="5.21181">
        <ele>476</ele>
        <time>2022-09-29T14:30:28Z</time>
      </trkpt>
      <trkpt lat="44.40231" lon="5.21182">
        <ele>475</ele>
        <time>2022-09-29T14:30:29Z</time>
      </trkpt>
      <trkpt lat="44.4023" lon="5.21184">
        <ele>475</ele>
        <time>2022-09-29T14:30:30Z</time>
      </trkpt>
      <trkpt lat="44.4023" lon="5.21185">
        <ele>475</ele>
        <time>2022-09-29T14:30:31Z</time>
      </trkpt>
      <trkpt lat="44.4023" lon="5.21187">
        <ele>475</ele>
        <time>2022-09-29T14:30:32Z</time>
      </trkpt>
      <trkpt lat="44.4023" lon="5.21188">
        <ele>475</ele>
        <time>2022-09-29T14:30:33Z</time>
      </trkpt>
      <trkpt lat="44.40229" lon="5.21189">
        <ele>475</ele>
        <time>2022-09-29T14:30:34Z</time>
      </trkpt>
      <trkpt lat="44.40229" lon="5.21191">
        <ele>475</ele>
        <time>2022-09-29T14:30:35Z</time>
      </trkpt>
      <trkpt lat="44.40229" lon="5.21192">
        <ele>475</ele>
        <time>2022-09-29T14:30:36Z</time>
      </trkpt>
      <trkpt lat="44.40228" lon="5.21193">
        <ele>475</ele>
        <time>2022-09-29T14:30:37Z</time>
      </trkpt>
      <trkpt lat="44.40227" lon="5.21194">
        <ele>475</ele>
        <time>2022-09-29T14:30:38Z</time>
      </trkpt>
      <trkpt lat="44.40226" lon="5.21193">
        <ele>474</ele>
        <time>2022-09-29T14:30:39Z</time>
      </trkpt>
      <trkpt lat="44.40225" lon="5.21193">
        <ele>474</ele>
        <time>2022-09-29T14:30:40Z</time>
      </trkpt>
      <trkpt lat="44.40224" lon="5.21192">
        <ele>474</ele>
        <time>2022-09-29T14:30:41Z</time>
      </trkpt>
      <trkpt lat="44.40224" lon="5.21192">
        <ele>474</ele>
        <time>2022-09-29T14:30:42Z</time>
      </trkpt>
      <trkpt lat="44.40223" lon="5.2119">
        <ele>474</ele>
        <time>2022-09-29T14:30:43Z</time>
      </trkpt>
      <trkpt lat="44.40222" lon="5.21189">
        <ele>473</ele>
        <time>2022-09-29T14:30:44Z</time>
      </trkpt>
      <trkpt lat="44.40222" lon="5.21188">
        <ele>473</ele>
        <time>2022-09-29T14:30:45Z</time>
      </trkpt>
      <trkpt lat="44.40221" lon="5.21187">
        <ele>473</ele>
        <time>2022-09-29T14:30:46Z</time>
      </trkpt>
      <trkpt lat="44.40221" lon="5.21185">
        <ele>473</ele>
        <time>2022-09-29T14:30:47Z</time>
      </trkpt>
      <trkpt lat="44.40221" lon="5.21183">
        <ele>473</ele>
        <time>2022-09-29T14:30:48Z</time>
      </trkpt>
      <trkpt lat="44.4022" lon="5.21182">
        <ele>472</ele>
        <time>2022-09-29T14:30:49Z</time>
      </trkpt>
      <trkpt lat="44.4022" lon="5.21181">
        <ele>472</ele>
        <time>2022-09-29T14:30:50Z</time>
      </trkpt>
      <trkpt lat="44.4022" lon="5.21179">
        <ele>472</ele>
        <time>2022-09-29T14:30:51Z</time>
      </trkpt>
      <trkpt lat="44.4022" lon="5.21178">
        <ele>472</ele>
        <time>2022-09-29T14:30:52Z</time>
      </trkpt>
      <trkpt lat="44.40219" lon="5.21177">
        <ele>472</ele>
        <time>2022-09-29T14:30:53Z</time>
      </trkpt>
      <trkpt lat="44.40219" lon="5.21175">
        <ele>471</ele>
        <time>2022-09-29T14:30:54Z</time>
      </trkpt>
      <trkpt lat="44.40219" lon="5.21174">
        <ele>471</ele>
        <time>2022-09-29T14:30:55Z</time>
      </trkpt>
      <trkpt lat="44.40219" lon="5.21173">
        <ele>471</ele>
        <time>2022-09-29T14:30:56Z</time>
      </trkpt>
      <trkpt lat="44.40219" lon="5.21171">
        <ele>471</ele>
        <time>2022-09-29T14:30:57Z</time>
      </trkpt>
      <trkpt lat="44.40219" lon="5.2117">
        <ele>471</ele>
        <time>2022-09-29T14:30:58Z</time>
      </trkpt>
      <trkpt lat="44.40219" lon="5.21169">
        <ele>470</ele>
        <time>2022-09-29T14:30:59Z</time>
      </trkpt>
      <trkpt lat="44.40219" lon="5.21168">
        <ele>470</ele>
        <time>2022-09-29T14:31:00Z</time>
      </trkpt>
      <trkpt lat="44.40219" lon="5.21166">
        <ele>470</ele>
        <time>2022-09-29T14:31:01Z</time>
      </trkpt>
      <trkpt lat="44.40219" lon="5.21165">
        <ele>470</ele>
        <time>2022-09-29T14:31:02Z</time>
      </trkpt>
      <trkpt lat="44.40219" lon="5.21164">
        <ele>470</ele>
        <time>2022-09-29T14:31:03Z</time>
      </trkpt>
      <trkpt lat="44.40218" lon="5.21163">
        <ele>469</ele>
        <time>2022-09-29T14:31:04Z</time>
      </trkpt>
      <trkpt lat="44.40218" lon="5.21161">
        <ele>469</ele>
        <time>2022-09-29T14:31:05Z</time>
      </trkpt>
      <trkpt lat="44.40218" lon="5.2116">
        <ele>469</ele>
        <time>2022-09-29T14:31:06Z</time>
      </trkpt>
      <trkpt lat="44.40217" lon="5.21159">
        <ele>469</ele>
        <time>2022-09-29T14:31:07Z</time>
      </trkpt>
      <trkpt lat="44.40217" lon="5.21157">
        <ele>469</ele>
        <time>2022-09-29T14:31:08Z</time>
      </trkpt>
      <trkpt lat="44.40217" lon="5.21156">
        <ele>468</ele>
        <time>2022-09-29T14:31:09Z</time>
      </trkpt>
      <trkpt lat="44.40217" lon="5.21154">
        <ele>468</ele>
        <time>2022-09-29T14:31:10Z</time>
      </trkpt>
      <trkpt lat="44.40217" lon="5.21153">
        <ele>468</ele>
        <time>2022-09-29T14:31:11Z</time>
      </trkpt>
      <trkpt lat="44.40217" lon="5.21152">
        <ele>468</ele>
        <time>2022-09-29T14:31:12Z</time>
      </trkpt>
      <trkpt lat="44.40217" lon="5.21151">
        <ele>468</ele>
        <time>2022-09-29T14:31:13Z</time>
      </trkpt>
      <trkpt lat="44.40217" lon="5.21149">
        <ele>468</ele>
        <time>2022-09-29T14:31:14Z</time>
      </trkpt>
      <trkpt lat="44.40217" lon="5.21148">
        <ele>468</ele>
        <time>2022-09-29T14:31:15Z</time>
      </trkpt>
      <trkpt lat="44.40217" lon="5.21147">
        <ele>468</ele>
        <time>2022-09-29T14:31:16Z</time>
      </trkpt>
      <trkpt lat="44.40217" lon="5.21146">
        <ele>468</ele>
        <time>2022-09-29T14:31:17Z</time>
      </trkpt>
      <trkpt lat="44.40216" lon="5.21145">
        <ele>468</ele>
        <time>2022-09-29T14:31:18Z</time>
      </trkpt>
      <trkpt lat="44.40216" lon="5.21144">
        <ele>467</ele>
        <time>2022-09-29T14:31:19Z</time>
      </trkpt>
      <trkpt lat="44.40216" lon="5.21143">
        <ele>467</ele>
        <time>2022-09-29T14:31:20Z</time>
      </trkpt>
      <trkpt lat="44.40216" lon="5.21141">
        <ele>467</ele>
        <time>2022-09-29T14:31:21Z</time>
      </trkpt>
      <trkpt lat="44.40216" lon="5.2114">
        <ele>467</ele>
        <time>2022-09-29T14:31:22Z</time>
      </trkpt>
      <trkpt lat="44.40216" lon="5.21139">
        <ele>467</ele>
        <time>2022-09-29T14:31:23Z</time>
      </trkpt>
      <trkpt lat="44.40216" lon="5.21137">
        <ele>466</ele>
        <time>2022-09-29T14:31:24Z</time>
      </trkpt>
      <trkpt lat="44.40216" lon="5.21136">
        <ele>466</ele>
        <time>2022-09-29T14:31:25Z</time>
      </trkpt>
      <trkpt lat="44.40216" lon="5.21135">
        <ele>466</ele>
        <time>2022-09-29T14:31:26Z</time>
      </trkpt>
      <trkpt lat="44.40216" lon="5.21134">
        <ele>466</ele>
        <time>2022-09-29T14:31:27Z</time>
      </trkpt>
      <trkpt lat="44.40216" lon="5.21132">
        <ele>466</ele>
        <time>2022-09-29T14:31:28Z</time>
      </trkpt>
      <trkpt lat="44.40217" lon="5.21131">
        <ele>466</ele>
        <time>2022-09-29T14:31:29Z</time>
      </trkpt>
      <trkpt lat="44.40217" lon="5.2113">
        <ele>466</ele>
        <time>2022-09-29T14:31:30Z</time>
      </trkpt>
      <trkpt lat="44.40217" lon="5.21129">
        <ele>466</ele>
        <time>2022-09-29T14:31:31Z</time>
      </trkpt>
      <trkpt lat="44.40217" lon="5.21128">
        <ele>466</ele>
        <time>2022-09-29T14:31:32Z</time>
      </trkpt>
      <trkpt lat="44.40218" lon="5.21126">
        <ele>466</ele>
        <time>2022-09-29T14:31:33Z</time>
      </trkpt>
      <trkpt lat="44.40218" lon="5.21125">
        <ele>465</ele>
        <time>2022-09-29T14:31:34Z</time>
      </trkpt>
      <trkpt lat="44.40218" lon="5.21124">
        <ele>465</ele>
        <time>2022-09-29T14:31:35Z</time>
      </trkpt>
      <trkpt lat="44.40218" lon="5.21123">
        <ele>465</ele>
        <time>2022-09-29T14:31:36Z</time>
      </trkpt>
      <trkpt lat="44.40219" lon="5.21121">
        <ele>465</ele>
        <time>2022-09-29T14:31:37Z</time>
      </trkpt>
      <trkpt lat="44.40219" lon="5.2112">
        <ele>465</ele>
        <time>2022-09-29T14:31:38Z</time>
      </trkpt>
      <trkpt lat="44.40219" lon="5.21118">
        <ele>464</ele>
        <time>2022-09-29T14:31:39Z</time>
      </trkpt>
      <trkpt lat="44.40219" lon="5.21117">
        <ele>464</ele>
        <time>2022-09-29T14:31:40Z</time>
      </trkpt>
      <trkpt lat="44.40219" lon="5.21115">
        <ele>464</ele>
        <time>2022-09-29T14:31:41Z</time>
      </trkpt>
      <trkpt lat="44.40219" lon="5.21114">
        <ele>464</ele>
        <time>2022-09-29T14:31:42Z</time>
      </trkpt>
      <trkpt lat="44.4022" lon="5.21113">
        <ele>464</ele>
        <time>2022-09-29T14:31:43Z</time>
      </trkpt>
      <trkpt lat="44.4022" lon="5.21112">
        <ele>463</ele>
        <time>2022-09-29T14:31:44Z</time>
      </trkpt>
      <trkpt lat="44.4022" lon="5.2111">
        <ele>463</ele>
        <time>2022-09-29T14:31:45Z</time>
      </trkpt>
      <trkpt lat="44.40221" lon="5.21109">
        <ele>463</ele>
        <time>2022-09-29T14:31:46Z</time>
      </trkpt>
      <trkpt lat="44.40221" lon="5.21108">
        <ele>463</ele>
        <time>2022-09-29T14:31:47Z</time>
      </trkpt>
      <trkpt lat="44.40221" lon="5.21107">
        <ele>463</ele>
        <time>2022-09-29T14:31:48Z</time>
      </trkpt>
      <trkpt lat="44.40221" lon="5.21106">
        <ele>463</ele>
        <time>2022-09-29T14:31:49Z</time>
      </trkpt>
      <trkpt lat="44.40222" lon="5.21104">
        <ele>463</ele>
        <time>2022-09-29T14:31:50Z</time>
      </trkpt>
      <trkpt lat="44.40222" lon="5.21103">
        <ele>463</ele>
        <time>2022-09-29T14:31:51Z</time>
      </trkpt>
      <trkpt lat="44.40222" lon="5.21102">
        <ele>463</ele>
        <time>2022-09-29T14:31:52Z</time>
      </trkpt>
      <trkpt lat="44.40222" lon="5.21101">
        <ele>463</ele>
        <time>2022-09-29T14:31:53Z</time>
      </trkpt>
      <trkpt lat="44.40223" lon="5.211">
        <ele>462</ele>
        <time>2022-09-29T14:31:54Z</time>
      </trkpt>
      <trkpt lat="44.40223" lon="5.21099">
        <ele>462</ele>
        <time>2022-09-29T14:31:55Z</time>
      </trkpt>
      <trkpt lat="44.40223" lon="5.21097">
        <ele>461</ele>
        <time>2022-09-29T14:31:56Z</time>
      </trkpt>
      <trkpt lat="44.40223" lon="5.21096">
        <ele>461</ele>
        <time>2022-09-29T14:31:57Z</time>
      </trkpt>
      <trkpt lat="44.40224" lon="5.21095">
        <ele>461</ele>
        <time>2022-09-29T14:31:58Z</time>
      </trkpt>
      <trkpt lat="44.40224" lon="5.21094">
        <ele>461</ele>
        <time>2022-09-29T14:31:59Z</time>
      </trkpt>
      <trkpt lat="44.40224" lon="5.21093">
        <ele>461</ele>
        <time>2022-09-29T14:32:00Z</time>
      </trkpt>
      <trkpt lat="44.40225" lon="5.21092">
        <ele>461</ele>
        <time>2022-09-29T14:32:01Z</time>
      </trkpt>
      <trkpt lat="44.40225" lon="5.21091">
        <ele>461</ele>
        <time>2022-09-29T14:32:02Z</time>
      </trkpt>
      <trkpt lat="44.40225" lon="5.21089">
        <ele>461</ele>
        <time>2022-09-29T14:32:03Z</time>
      </trkpt>
      <trkpt lat="44.40226" lon="5.21088">
        <ele>460</ele>
        <time>2022-09-29T14:32:04Z</time>
      </trkpt>
      <trkpt lat="44.40226" lon="5.21087">
        <ele>460</ele>
        <time>2022-09-29T14:32:05Z</time>
      </trkpt>
      <trkpt lat="44.40226" lon="5.21086">
        <ele>460</ele>
        <time>2022-09-29T14:32:06Z</time>
      </trkpt>
      <trkpt lat="44.40226" lon="5.21085">
        <ele>460</ele>
        <time>2022-09-29T14:32:07Z</time>
      </trkpt>
      <trkpt lat="44.40227" lon="5.21084">
        <ele>460</ele>
        <time>2022-09-29T14:32:08Z</time>
      </trkpt>
      <trkpt lat="44.40227" lon="5.21083">
        <ele>459</ele>
        <time>2022-09-29T14:32:09Z</time>
      </trkpt>
      <trkpt lat="44.40227" lon="5.21081">
        <ele>459</ele>
        <time>2022-09-29T14:32:10Z</time>
      </trkpt>
      <trkpt lat="44.40227" lon="5.2108">
        <ele>459</ele>
        <time>2022-09-29T14:32:11Z</time>
      </trkpt>
      <trkpt lat="44.40227" lon="5.21079">
        <ele>459</ele>
        <time>2022-09-29T14:32:12Z</time>
      </trkpt>
      <trkpt lat="44.40227" lon="5.21078">
        <ele>459</ele>
        <time>2022-09-29T14:32:13Z</time>
      </trkpt>
      <trkpt lat="44.40227" lon="5.21076">
        <ele>459</ele>
        <time>2022-09-29T14:32:14Z</time>
      </trkpt>
      <trkpt lat="44.40228" lon="5.21075">
        <ele>459</ele>
        <time>2022-09-29T14:32:15Z</time>
      </trkpt>
      <trkpt lat="44.40228" lon="5.21074">
        <ele>459</ele>
        <time>2022-09-29T14:32:16Z</time>
      </trkpt>
      <trkpt lat="44.40228" lon="5.21072">
        <ele>459</ele>
        <time>2022-09-29T14:32:17Z</time>
      </trkpt>
      <trkpt lat="44.40228" lon="5.21071">
        <ele>459</ele>
        <time>2022-09-29T14:32:18Z</time>
      </trkpt>
      <trkpt lat="44.40228" lon="5.21069">
        <ele>458</ele>
        <time>2022-09-29T14:32:19Z</time>
      </trkpt>
      <trkpt lat="44.40228" lon="5.21068">
        <ele>458</ele>
        <time>2022-09-29T14:32:20Z</time>
      </trkpt>
      <trkpt lat="44.40229" lon="5.21067">
        <ele>458</ele>
        <time>2022-09-29T14:32:21Z</time>
      </trkpt>
      <trkpt lat="44.40229" lon="5.21065">
        <ele>458</ele>
        <time>2022-09-29T14:32:22Z</time>
      </trkpt>
      <trkpt lat="44.40229" lon="5.21064">
        <ele>458</ele>
        <time>2022-09-29T14:32:23Z</time>
      </trkpt>
      <trkpt lat="44.40229" lon="5.21063">
        <ele>458</ele>
        <time>2022-09-29T14:32:24Z</time>
      </trkpt>
      <trkpt lat="44.4023" lon="5.21061">
        <ele>458</ele>
        <time>2022-09-29T14:32:25Z</time>
      </trkpt>
      <trkpt lat="44.4023" lon="5.2106">
        <ele>458</ele>
        <time>2022-09-29T14:32:26Z</time>
      </trkpt>
      <trkpt lat="44.40231" lon="5.21058">
        <ele>458</ele>
        <time>2022-09-29T14:32:27Z</time>
      </trkpt>
      <trkpt lat="44.40232" lon="5.21057">
        <ele>458</ele>
        <time>2022-09-29T14:32:28Z</time>
      </trkpt>
      <trkpt lat="44.40232" lon="5.21055">
        <ele>457</ele>
        <time>2022-09-29T14:32:29Z</time>
      </trkpt>
      <trkpt lat="44.40233" lon="5.21054">
        <ele>457</ele>
        <time>2022-09-29T14:32:30Z</time>
      </trkpt>
      <trkpt lat="44.40233" lon="5.21053">
        <ele>457</ele>
        <time>2022-09-29T14:32:31Z</time>
      </trkpt>
      <trkpt lat="44.40234" lon="5.21051">
        <ele>457</ele>
        <time>2022-09-29T14:32:32Z</time>
      </trkpt>
      <trkpt lat="44.40235" lon="5.2105">
        <ele>457</ele>
        <time>2022-09-29T14:32:33Z</time>
      </trkpt>
      <trkpt lat="44.40235" lon="5.21049">
        <ele>456</ele>
        <time>2022-09-29T14:32:34Z</time>
      </trkpt>
      <trkpt lat="44.40236" lon="5.21047">
        <ele>456</ele>
        <time>2022-09-29T14:32:35Z</time>
      </trkpt>
      <trkpt lat="44.40237" lon="5.21046">
        <ele>456</ele>
        <time>2022-09-29T14:32:36Z</time>
      </trkpt>
      <trkpt lat="44.40237" lon="5.21045">
        <ele>456</ele>
        <time>2022-09-29T14:32:37Z</time>
      </trkpt>
      <trkpt lat="44.40238" lon="5.21044">
        <ele>456</ele>
        <time>2022-09-29T14:32:38Z</time>
      </trkpt>
      <trkpt lat="44.40238" lon="5.21042">
        <ele>456</ele>
        <time>2022-09-29T14:32:39Z</time>
      </trkpt>
      <trkpt lat="44.40239" lon="5.21041">
        <ele>456</ele>
        <time>2022-09-29T14:32:40Z</time>
      </trkpt>
      <trkpt lat="44.40239" lon="5.2104">
        <ele>456</ele>
        <time>2022-09-29T14:32:41Z</time>
      </trkpt>
      <trkpt lat="44.4024" lon="5.21039">
        <ele>456</ele>
        <time>2022-09-29T14:32:42Z</time>
      </trkpt>
      <trkpt lat="44.4024" lon="5.21037">
        <ele>456</ele>
        <time>2022-09-29T14:32:43Z</time>
      </trkpt>
      <trkpt lat="44.40241" lon="5.21036">
        <ele>455</ele>
        <time>2022-09-29T14:32:44Z</time>
      </trkpt>
      <trkpt lat="44.40242" lon="5.21035">
        <ele>455</ele>
        <time>2022-09-29T14:32:45Z</time>
      </trkpt>
      <trkpt lat="44.40242" lon="5.21033">
        <ele>455</ele>
        <time>2022-09-29T14:32:46Z</time>
      </trkpt>
      <trkpt lat="44.40243" lon="5.21032">
        <ele>455</ele>
        <time>2022-09-29T14:32:47Z</time>
      </trkpt>
      <trkpt lat="44.40243" lon="5.2103">
        <ele>455</ele>
        <time>2022-09-29T14:32:48Z</time>
      </trkpt>
      <trkpt lat="44.40244" lon="5.21029">
        <ele>455</ele>
        <time>2022-09-29T14:32:49Z</time>
      </trkpt>
      <trkpt lat="44.40244" lon="5.21027">
        <ele>455</ele>
        <time>2022-09-29T14:32:50Z</time>
      </trkpt>
      <trkpt lat="44.40245" lon="5.21026">
        <ele>455</ele>
        <time>2022-09-29T14:32:51Z</time>
      </trkpt>
      <trkpt lat="44.40246" lon="5.21024">
        <ele>455</ele>
        <time>2022-09-29T14:32:52Z</time>
      </trkpt>
      <trkpt lat="44.40246" lon="5.21023">
        <ele>455</ele>
        <time>2022-09-29T14:32:53Z</time>
      </trkpt>
      <trkpt lat="44.40247" lon="5.21022">
        <ele>454</ele>
        <time>2022-09-29T14:32:54Z</time>
      </trkpt>
      <trkpt lat="44.40248" lon="5.21021">
        <ele>454</ele>
        <time>2022-09-29T14:32:55Z</time>
      </trkpt>
      <trkpt lat="44.40248" lon="5.2102">
        <ele>454</ele>
        <time>2022-09-29T14:32:56Z</time>
      </trkpt>
      <trkpt lat="44.40249" lon="5.21019">
        <ele>454</ele>
        <time>2022-09-29T14:32:57Z</time>
      </trkpt>
      <trkpt lat="44.4025" lon="5.21018">
        <ele>454</ele>
        <time>2022-09-29T14:32:58Z</time>
      </trkpt>
      <trkpt lat="44.4025" lon="5.21017">
        <ele>454</ele>
        <time>2022-09-29T14:32:59Z</time>
      </trkpt>
      <trkpt lat="44.40251" lon="5.21016">
        <ele>454</ele>
        <time>2022-09-29T14:33:00Z</time>
      </trkpt>
      <trkpt lat="44.40252" lon="5.21016">
        <ele>454</ele>
        <time>2022-09-29T14:33:01Z</time>
      </trkpt>
      <trkpt lat="44.40252" lon="5.21015">
        <ele>454</ele>
        <time>2022-09-29T14:33:02Z</time>
      </trkpt>
      <trkpt lat="44.40253" lon="5.21014">
        <ele>454</ele>
        <time>2022-09-29T14:33:03Z</time>
      </trkpt>
      <trkpt lat="44.40253" lon="5.21013">
        <ele>453</ele>
        <time>2022-09-29T14:33:04Z</time>
      </trkpt>
      <trkpt lat="44.40254" lon="5.21012">
        <ele>453</ele>
        <time>2022-09-29T14:33:05Z</time>
      </trkpt>
      <trkpt lat="44.40254" lon="5.21012">
        <ele>453</ele>
        <time>2022-09-29T14:33:06Z</time>
      </trkpt>
      <trkpt lat="44.40255" lon="5.21011">
        <ele>453</ele>
        <time>2022-09-29T14:33:07Z</time>
      </trkpt>
      <trkpt lat="44.40255" lon="5.2101">
        <ele>453</ele>
        <time>2022-09-29T14:33:08Z</time>
      </trkpt>
      <trkpt lat="44.40255" lon="5.21008">
        <ele>452</ele>
        <time>2022-09-29T14:33:09Z</time>
      </trkpt>
      <trkpt lat="44.40255" lon="5.21007">
        <ele>452</ele>
        <time>2022-09-29T14:33:10Z</time>
      </trkpt>
      <trkpt lat="44.40255" lon="5.21006">
        <ele>452</ele>
        <time>2022-09-29T14:33:11Z</time>
      </trkpt>
      <trkpt lat="44.40255" lon="5.21005">
        <ele>452</ele>
        <time>2022-09-29T14:33:12Z</time>
      </trkpt>
      <trkpt lat="44.40255" lon="5.21002">
        <ele>451</ele>
        <time>2022-09-29T14:33:30Z</time>
      </trkpt>
      <trkpt lat="44.40254" lon="5.21">
        <ele>451</ele>
        <time>2022-09-29T14:33:31Z</time>
      </trkpt>
      <trkpt lat="44.40254" lon="5.20999">
        <ele>451</ele>
        <time>2022-09-29T14:33:32Z</time>
      </trkpt>
      <trkpt lat="44.40254" lon="5.20998">
        <ele>451</ele>
        <time>2022-09-29T14:33:33Z</time>
      </trkpt>
      <trkpt lat="44.40254" lon="5.20997">
        <ele>451</ele>
        <time>2022-09-29T14:33:34Z</time>
      </trkpt>
      <trkpt lat="44.40254" lon="5.20997">
        <ele>451</ele>
        <time>2022-09-29T14:33:35Z</time>
      </trkpt>
      <trkpt lat="44.40255" lon="5.20997">
        <ele>451</ele>
        <time>2022-09-29T14:33:36Z</time>
      </trkpt>
      <trkpt lat="44.40255" lon="5.20996">
        <ele>451</ele>
        <time>2022-09-29T14:33:37Z</time>
      </trkpt>
      <trkpt lat="44.40255" lon="5.20996">
        <ele>451</ele>
        <time>2022-09-29T14:33:38Z</time>
      </trkpt>
      <trkpt lat="44.40255" lon="5.20995">
        <ele>451</ele>
        <time>2022-09-29T14:33:39Z</time>
      </trkpt>
      <trkpt lat="44.40255" lon="5.20995">
        <ele>451</ele>
        <time>2022-09-29T14:33:40Z</time>
      </trkpt>
      <trkpt lat="44.40256" lon="5.20994">
        <ele>451</ele>
        <time>2022-09-29T14:33:41Z</time>
      </trkpt>
      <trkpt lat="44.40257" lon="5.20994">
        <ele>451</ele>
        <time>2022-09-29T14:33:42Z</time>
      </trkpt>
      <trkpt lat="44.40257" lon="5.20993">
        <ele>451</ele>
        <time>2022-09-29T14:33:43Z</time>
      </trkpt>
      <trkpt lat="44.40258" lon="5.20993">
        <ele>450</ele>
        <time>2022-09-29T14:33:44Z</time>
      </trkpt>
      <trkpt lat="44.40259" lon="5.20992">
        <ele>450</ele>
        <time>2022-09-29T14:33:45Z</time>
      </trkpt>
      <trkpt lat="44.40259" lon="5.20992">
        <ele>450</ele>
        <time>2022-09-29T14:33:46Z</time>
      </trkpt>
      <trkpt lat="44.4026" lon="5.20991">
        <ele>450</ele>
        <time>2022-09-29T14:33:47Z</time>
      </trkpt>
      <trkpt lat="44.40261" lon="5.2099">
        <ele>450</ele>
        <time>2022-09-29T14:33:48Z</time>
      </trkpt>
      <trkpt lat="44.40261" lon="5.20989">
        <ele>450</ele>
        <time>2022-09-29T14:33:49Z</time>
      </trkpt>
      <trkpt lat="44.40262" lon="5.20988">
        <ele>450</ele>
        <time>2022-09-29T14:33:50Z</time>
      </trkpt>
      <trkpt lat="44.40263" lon="5.20987">
        <ele>450</ele>
        <time>2022-09-29T14:33:51Z</time>
      </trkpt>
      <trkpt lat="44.40263" lon="5.20986">
        <ele>450</ele>
        <time>2022-09-29T14:33:52Z</time>
      </trkpt>
      <trkpt lat="44.40264" lon="5.20985">
        <ele>450</ele>
        <time>2022-09-29T14:33:53Z</time>
      </trkpt>
      <trkpt lat="44.40265" lon="5.20984">
        <ele>449</ele>
        <time>2022-09-29T14:33:54Z</time>
      </trkpt>
      <trkpt lat="44.40265" lon="5.20982">
        <ele>449</ele>
        <time>2022-09-29T14:33:55Z</time>
      </trkpt>
      <trkpt lat="44.40266" lon="5.20981">
        <ele>449</ele>
        <time>2022-09-29T14:33:56Z</time>
      </trkpt>
      <trkpt lat="44.40267" lon="5.2098">
        <ele>449</ele>
        <time>2022-09-29T14:33:57Z</time>
      </trkpt>
      <trkpt lat="44.40267" lon="5.20979">
        <ele>449</ele>
        <time>2022-09-29T14:33:58Z</time>
      </trkpt>
      <trkpt lat="44.40268" lon="5.20978">
        <ele>448</ele>
        <time>2022-09-29T14:33:59Z</time>
      </trkpt>
      <trkpt lat="44.40268" lon="5.20977">
        <ele>448</ele>
        <time>2022-09-29T14:34:00Z</time>
      </trkpt>
      <trkpt lat="44.40269" lon="5.20976">
        <ele>448</ele>
        <time>2022-09-29T14:34:01Z</time>
      </trkpt>
      <trkpt lat="44.40269" lon="5.20974">
        <ele>448</ele>
        <time>2022-09-29T14:34:02Z</time>
      </trkpt>
      <trkpt lat="44.40269" lon="5.20974">
        <ele>448</ele>
        <time>2022-09-29T14:34:03Z</time>
      </trkpt>
      <trkpt lat="44.4027" lon="5.20973">
        <ele>448</ele>
        <time>2022-09-29T14:34:04Z</time>
      </trkpt>
      <trkpt lat="44.40271" lon="5.20972">
        <ele>448</ele>
        <time>2022-09-29T14:34:05Z</time>
      </trkpt>
      <trkpt lat="44.40271" lon="5.20971">
        <ele>448</ele>
        <time>2022-09-29T14:34:06Z</time>
      </trkpt>
      <trkpt lat="44.40272" lon="5.2097">
        <ele>448</ele>
        <time>2022-09-29T14:34:07Z</time>
      </trkpt>
      <trkpt lat="44.40273" lon="5.20969">
        <ele>448</ele>
        <time>2022-09-29T14:34:08Z</time>
      </trkpt>
      <trkpt lat="44.40273" lon="5.20968">
        <ele>447</ele>
        <time>2022-09-29T14:34:09Z</time>
      </trkpt>
      <trkpt lat="44.40274" lon="5.20967">
        <ele>447</ele>
        <time>2022-09-29T14:34:10Z</time>
      </trkpt>
      <trkpt lat="44.40274" lon="5.20966">
        <ele>447</ele>
        <time>2022-09-29T14:34:11Z</time>
      </trkpt>
      <trkpt lat="44.40275" lon="5.20964">
        <ele>447</ele>
        <time>2022-09-29T14:34:12Z</time>
      </trkpt>
      <trkpt lat="44.40276" lon="5.20963">
        <ele>447</ele>
        <time>2022-09-29T14:34:13Z</time>
      </trkpt>
      <trkpt lat="44.40276" lon="5.20962">
        <ele>446</ele>
        <time>2022-09-29T14:34:14Z</time>
      </trkpt>
      <trkpt lat="44.40277" lon="5.20961">
        <ele>446</ele>
        <time>2022-09-29T14:34:15Z</time>
      </trkpt>
      <trkpt lat="44.40277" lon="5.20959">
        <ele>446</ele>
        <time>2022-09-29T14:34:16Z</time>
      </trkpt>
      <trkpt lat="44.40277" lon="5.20958">
        <ele>446</ele>
        <time>2022-09-29T14:34:17Z</time>
      </trkpt>
      <trkpt lat="44.40278" lon="5.20957">
        <ele>446</ele>
        <time>2022-09-29T14:34:18Z</time>
      </trkpt>
      <trkpt lat="44.40278" lon="5.20956">
        <ele>445</ele>
        <time>2022-09-29T14:34:19Z</time>
      </trkpt>
      <trkpt lat="44.40279" lon="5.20954">
        <ele>445</ele>
        <time>2022-09-29T14:34:20Z</time>
      </trkpt>
      <trkpt lat="44.40279" lon="5.20953">
        <ele>445</ele>
        <time>2022-09-29T14:34:21Z</time>
      </trkpt>
      <trkpt lat="44.4028" lon="5.20952">
        <ele>445</ele>
        <time>2022-09-29T14:34:22Z</time>
      </trkpt>
      <trkpt lat="44.4028" lon="5.20951">
        <ele>445</ele>
        <time>2022-09-29T14:34:23Z</time>
      </trkpt>
      <trkpt lat="44.40281" lon="5.2095">
        <ele>445</ele>
        <time>2022-09-29T14:34:24Z</time>
      </trkpt>
      <trkpt lat="44.40281" lon="5.20948">
        <ele>445</ele>
        <time>2022-09-29T14:34:25Z</time>
      </trkpt>
      <trkpt lat="44.40282" lon="5.20947">
        <ele>445</ele>
        <time>2022-09-29T14:34:26Z</time>
      </trkpt>
      <trkpt lat="44.40282" lon="5.20946">
        <ele>445</ele>
        <time>2022-09-29T14:34:27Z</time>
      </trkpt>
      <trkpt lat="44.40282" lon="5.20945">
        <ele>445</ele>
        <time>2022-09-29T14:34:28Z</time>
      </trkpt>
      <trkpt lat="44.40283" lon="5.20943">
        <ele>444</ele>
        <time>2022-09-29T14:34:29Z</time>
      </trkpt>
      <trkpt lat="44.40283" lon="5.20942">
        <ele>444</ele>
        <time>2022-09-29T14:34:30Z</time>
      </trkpt>
      <trkpt lat="44.40283" lon="5.20941">
        <ele>444</ele>
        <time>2022-09-29T14:34:31Z</time>
      </trkpt>
      <trkpt lat="44.40283" lon="5.2094">
        <ele>444</ele>
        <time>2022-09-29T14:34:32Z</time>
      </trkpt>
      <trkpt lat="44.40284" lon="5.20938">
        <ele>444</ele>
        <time>2022-09-29T14:34:33Z</time>
      </trkpt>
      <trkpt lat="44.40284" lon="5.20937">
        <ele>443</ele>
        <time>2022-09-29T14:34:34Z</time>
      </trkpt>
      <trkpt lat="44.40284" lon="5.20936">
        <ele>443</ele>
        <time>2022-09-29T14:34:35Z</time>
      </trkpt>
      <trkpt lat="44.40284" lon="5.20935">
        <ele>443</ele>
        <time>2022-09-29T14:34:36Z</time>
      </trkpt>
      <trkpt lat="44.40284" lon="5.20934">
        <ele>443</ele>
        <time>2022-09-29T14:34:37Z</time>
      </trkpt>
      <trkpt lat="44.40284" lon="5.20933">
        <ele>443</ele>
        <time>2022-09-29T14:34:38Z</time>
      </trkpt>
      <trkpt lat="44.40284" lon="5.20932">
        <ele>443</ele>
        <time>2022-09-29T14:34:39Z</time>
      </trkpt>
      <trkpt lat="44.40284" lon="5.2093">
        <ele>443</ele>
        <time>2022-09-29T14:34:40Z</time>
      </trkpt>
      <trkpt lat="44.40284" lon="5.20929">
        <ele>443</ele>
        <time>2022-09-29T14:34:41Z</time>
      </trkpt>
      <trkpt lat="44.40284" lon="5.20928">
        <ele>443</ele>
        <time>2022-09-29T14:34:42Z</time>
      </trkpt>
      <trkpt lat="44.40284" lon="5.20927">
        <ele>443</ele>
        <time>2022-09-29T14:34:43Z</time>
      </trkpt>
      <trkpt lat="44.40283" lon="5.20926">
        <ele>442</ele>
        <time>2022-09-29T14:34:44Z</time>
      </trkpt>
      <trkpt lat="44.40283" lon="5.20924">
        <ele>442</ele>
        <time>2022-09-29T14:34:45Z</time>
      </trkpt>
      <trkpt lat="44.40283" lon="5.20923">
        <ele>442</ele>
        <time>2022-09-29T14:34:46Z</time>
      </trkpt>
      <trkpt lat="44.40283" lon="5.20921">
        <ele>442</ele>
        <time>2022-09-29T14:34:47Z</time>
      </trkpt>
      <trkpt lat="44.40283" lon="5.2092">
        <ele>442</ele>
        <time>2022-09-29T14:34:48Z</time>
      </trkpt>
      <trkpt lat="44.40283" lon="5.20918">
        <ele>441</ele>
        <time>2022-09-29T14:34:49Z</time>
      </trkpt>
      <trkpt lat="44.40284" lon="5.20916">
        <ele>441</ele>
        <time>2022-09-29T14:34:50Z</time>
      </trkpt>
      <trkpt lat="44.40284" lon="5.20915">
        <ele>441</ele>
        <time>2022-09-29T14:34:51Z</time>
      </trkpt>
      <trkpt lat="44.40284" lon="5.20914">
        <ele>441</ele>
        <time>2022-09-29T14:34:52Z</time>
      </trkpt>
      <trkpt lat="44.40285" lon="5.20912">
        <ele>441</ele>
        <time>2022-09-29T14:34:53Z</time>
      </trkpt>
      <trkpt lat="44.40285" lon="5.20911">
        <ele>441</ele>
        <time>2022-09-29T14:34:54Z</time>
      </trkpt>
      <trkpt lat="44.40286" lon="5.2091">
        <ele>441</ele>
        <time>2022-09-29T14:34:55Z</time>
      </trkpt>
      <trkpt lat="44.40286" lon="5.20908">
        <ele>441</ele>
        <time>2022-09-29T14:34:56Z</time>
      </trkpt>
      <trkpt lat="44.40287" lon="5.20907">
        <ele>441</ele>
        <time>2022-09-29T14:34:57Z</time>
      </trkpt>
      <trkpt lat="44.40287" lon="5.20906">
        <ele>441</ele>
        <time>2022-09-29T14:34:58Z</time>
      </trkpt>
      <trkpt lat="44.40288" lon="5.20905">
        <ele>440</ele>
        <time>2022-09-29T14:34:59Z</time>
      </trkpt>
      <trkpt lat="44.40289" lon="5.20904">
        <ele>440</ele>
        <time>2022-09-29T14:35:00Z</time>
      </trkpt>
      <trkpt lat="44.40289" lon="5.20903">
        <ele>440</ele>
        <time>2022-09-29T14:35:01Z</time>
      </trkpt>
      <trkpt lat="44.4029" lon="5.20902">
        <ele>440</ele>
        <time>2022-09-29T14:35:02Z</time>
      </trkpt>
      <trkpt lat="44.4029" lon="5.20901">
        <ele>440</ele>
        <time>2022-09-29T14:35:03Z</time>
      </trkpt>
      <trkpt lat="44.40291" lon="5.209">
        <ele>440</ele>
        <time>2022-09-29T14:35:04Z</time>
      </trkpt>
      <trkpt lat="44.40291" lon="5.20899">
        <ele>440</ele>
        <time>2022-09-29T14:35:05Z</time>
      </trkpt>
      <trkpt lat="44.40291" lon="5.20898">
        <ele>440</ele>
        <time>2022-09-29T14:35:06Z</time>
      </trkpt>
      <trkpt lat="44.40292" lon="5.20897">
        <ele>440</ele>
        <time>2022-09-29T14:35:07Z</time>
      </trkpt>
      <trkpt lat="44.40292" lon="5.20896">
        <ele>440</ele>
        <time>2022-09-29T14:35:08Z</time>
      </trkpt>
      <trkpt lat="44.40292" lon="5.20895">
        <ele>439</ele>
        <time>2022-09-29T14:35:09Z</time>
      </trkpt>
      <trkpt lat="44.40292" lon="5.20894">
        <ele>439</ele>
        <time>2022-09-29T14:35:10Z</time>
      </trkpt>
      <trkpt lat="44.40292" lon="5.20893">
        <ele>439</ele>
        <time>2022-09-29T14:35:11Z</time>
      </trkpt>
      <trkpt lat="44.40292" lon="5.20892">
        <ele>439</ele>
        <time>2022-09-29T14:35:12Z</time>
      </trkpt>
      <trkpt lat="44.40291" lon="5.20891">
        <ele>439</ele>
        <time>2022-09-29T14:35:13Z</time>
      </trkpt>
      <trkpt lat="44.40291" lon="5.20891">
        <ele>438</ele>
        <time>2022-09-29T14:35:14Z</time>
      </trkpt>
      <trkpt lat="44.4029" lon="5.2089">
        <ele>438</ele>
        <time>2022-09-29T14:35:15Z</time>
      </trkpt>
      <trkpt lat="44.4029" lon="5.2089">
        <ele>438</ele>
        <time>2022-09-29T14:35:16Z</time>
      </trkpt>
      <trkpt lat="44.40289" lon="5.2089">
        <ele>438</ele>
        <time>2022-09-29T14:35:17Z</time>
      </trkpt>
      <trkpt lat="44.40289" lon="5.20889">
        <ele>438</ele>
        <time>2022-09-29T14:35:18Z</time>
      </trkpt>
      <trkpt lat="44.40288" lon="5.20889">
        <ele>437</ele>
        <time>2022-09-29T14:35:19Z</time>
      </trkpt>
      <trkpt lat="44.40287" lon="5.20889">
        <ele>437</ele>
        <time>2022-09-29T14:35:20Z</time>
      </trkpt>
      <trkpt lat="44.40286" lon="5.20887">
        <ele>437</ele>
        <time>2022-09-29T14:35:31Z</time>
      </trkpt>
      <trkpt lat="44.40286" lon="5.20886">
        <ele>437</ele>
        <time>2022-09-29T14:35:32Z</time>
      </trkpt>
      <trkpt lat="44.40285" lon="5.20886">
        <ele>437</ele>
        <time>2022-09-29T14:35:33Z</time>
      </trkpt>
      <trkpt lat="44.40285" lon="5.20885">
        <ele>436</ele>
        <time>2022-09-29T14:35:34Z</time>
      </trkpt>
      <trkpt lat="44.40285" lon="5.20884">
        <ele>436</ele>
        <time>2022-09-29T14:35:35Z</time>
      </trkpt>
      <trkpt lat="44.40284" lon="5.20884">
        <ele>436</ele>
        <time>2022-09-29T14:35:36Z</time>
      </trkpt>
      <trkpt lat="44.40284" lon="5.20883">
        <ele>436</ele>
        <time>2022-09-29T14:35:37Z</time>
      </trkpt>
      <trkpt lat="44.40284" lon="5.20882">
        <ele>436</ele>
        <time>2022-09-29T14:35:38Z</time>
      </trkpt>
      <trkpt lat="44.40283" lon="5.20881">
        <ele>435</ele>
        <time>2022-09-29T14:35:39Z</time>
      </trkpt>
      <trkpt lat="44.40283" lon="5.2088">
        <ele>435</ele>
        <time>2022-09-29T14:35:40Z</time>
      </trkpt>
      <trkpt lat="44.40283" lon="5.2088">
        <ele>435</ele>
        <time>2022-09-29T14:35:41Z</time>
      </trkpt>
      <trkpt lat="44.40283" lon="5.20879">
        <ele>435</ele>
        <time>2022-09-29T14:35:42Z</time>
      </trkpt>
      <trkpt lat="44.40282" lon="5.20878">
        <ele>435</ele>
        <time>2022-09-29T14:35:43Z</time>
      </trkpt>
      <trkpt lat="44.40282" lon="5.20877">
        <ele>435</ele>
        <time>2022-09-29T14:35:44Z</time>
      </trkpt>
      <trkpt lat="44.40282" lon="5.20876">
        <ele>435</ele>
        <time>2022-09-29T14:35:45Z</time>
      </trkpt>
      <trkpt lat="44.40281" lon="5.20875">
        <ele>435</ele>
        <time>2022-09-29T14:35:46Z</time>
      </trkpt>
      <trkpt lat="44.40281" lon="5.20874">
        <ele>435</ele>
        <time>2022-09-29T14:35:47Z</time>
      </trkpt>
      <trkpt lat="44.40281" lon="5.20873">
        <ele>435</ele>
        <time>2022-09-29T14:35:48Z</time>
      </trkpt>
      <trkpt lat="44.40281" lon="5.20872">
        <ele>434</ele>
        <time>2022-09-29T14:35:49Z</time>
      </trkpt>
      <trkpt lat="44.4028" lon="5.20871">
        <ele>434</ele>
        <time>2022-09-29T14:35:50Z</time>
      </trkpt>
      <trkpt lat="44.4028" lon="5.2087">
        <ele>434</ele>
        <time>2022-09-29T14:35:51Z</time>
      </trkpt>
      <trkpt lat="44.4028" lon="5.20869">
        <ele>434</ele>
        <time>2022-09-29T14:35:52Z</time>
      </trkpt>
      <trkpt lat="44.4028" lon="5.20868">
        <ele>434</ele>
        <time>2022-09-29T14:35:53Z</time>
      </trkpt>
      <trkpt lat="44.40279" lon="5.20866">
        <ele>433</ele>
        <time>2022-09-29T14:35:54Z</time>
      </trkpt>
      <trkpt lat="44.40279" lon="5.20865">
        <ele>433</ele>
        <time>2022-09-29T14:35:55Z</time>
      </trkpt>
      <trkpt lat="44.40279" lon="5.20864">
        <ele>433</ele>
        <time>2022-09-29T14:35:56Z</time>
      </trkpt>
      <trkpt lat="44.40279" lon="5.20863">
        <ele>433</ele>
        <time>2022-09-29T14:35:57Z</time>
      </trkpt>
      <trkpt lat="44.40279" lon="5.20862">
        <ele>433</ele>
        <time>2022-09-29T14:35:58Z</time>
      </trkpt>
      <trkpt lat="44.40278" lon="5.20861">
        <ele>432</ele>
        <time>2022-09-29T14:35:59Z</time>
      </trkpt>
      <trkpt lat="44.40278" lon="5.2086">
        <ele>432</ele>
        <time>2022-09-29T14:36:00Z</time>
      </trkpt>
      <trkpt lat="44.40278" lon="5.20859">
        <ele>432</ele>
        <time>2022-09-29T14:36:01Z</time>
      </trkpt>
      <trkpt lat="44.40278" lon="5.20858">
        <ele>432</ele>
        <time>2022-09-29T14:36:02Z</time>
      </trkpt>
      <trkpt lat="44.40277" lon="5.20857">
        <ele>431</ele>
        <time>2022-09-29T14:36:08Z</time>
      </trkpt>
      <trkpt lat="44.40277" lon="5.20856">
        <ele>431</ele>
        <time>2022-09-29T14:36:09Z</time>
      </trkpt>
      <trkpt lat="44.40276" lon="5.20854">
        <ele>431</ele>
        <time>2022-09-29T14:36:10Z</time>
      </trkpt>
      <trkpt lat="44.40276" lon="5.20854">
        <ele>431</ele>
        <time>2022-09-29T14:36:11Z</time>
      </trkpt>
      <trkpt lat="44.40276" lon="5.20853">
        <ele>431</ele>
        <time>2022-09-29T14:36:12Z</time>
      </trkpt>
      <trkpt lat="44.40275" lon="5.20852">
        <ele>431</ele>
        <time>2022-09-29T14:36:13Z</time>
      </trkpt>
      <trkpt lat="44.40275" lon="5.20851">
        <ele>430</ele>
        <time>2022-09-29T14:36:14Z</time>
      </trkpt>
      <trkpt lat="44.40274" lon="5.2085">
        <ele>430</ele>
        <time>2022-09-29T14:36:15Z</time>
      </trkpt>
      <trkpt lat="44.40274" lon="5.2085">
        <ele>430</ele>
        <time>2022-09-29T14:36:16Z</time>
      </trkpt>
      <trkpt lat="44.40273" lon="5.20849">
        <ele>430</ele>
        <time>2022-09-29T14:36:17Z</time>
      </trkpt>
      <trkpt lat="44.40273" lon="5.20848">
        <ele>430</ele>
        <time>2022-09-29T14:36:18Z</time>
      </trkpt>
      <trkpt lat="44.40272" lon="5.20847">
        <ele>429</ele>
        <time>2022-09-29T14:36:19Z</time>
      </trkpt>
      <trkpt lat="44.40272" lon="5.20846">
        <ele>429</ele>
        <time>2022-09-29T14:36:20Z</time>
      </trkpt>
      <trkpt lat="44.40272" lon="5.20846">
        <ele>428</ele>
        <time>2022-09-29T14:36:21Z</time>
      </trkpt>
      <trkpt lat="44.40271" lon="5.20845">
        <ele>428</ele>
        <time>2022-09-29T14:36:22Z</time>
      </trkpt>
      <trkpt lat="44.40271" lon="5.20844">
        <ele>428</ele>
        <time>2022-09-29T14:36:23Z</time>
      </trkpt>
      <trkpt lat="44.4027" lon="5.20843">
        <ele>427</ele>
        <time>2022-09-29T14:36:24Z</time>
      </trkpt>
      <trkpt lat="44.4027" lon="5.20842">
        <ele>427</ele>
        <time>2022-09-29T14:36:25Z</time>
      </trkpt>
      <trkpt lat="44.4027" lon="5.20842">
        <ele>427</ele>
        <time>2022-09-29T14:36:26Z</time>
      </trkpt>
      <trkpt lat="44.40269" lon="5.20841">
        <ele>427</ele>
        <time>2022-09-29T14:36:27Z</time>
      </trkpt>
      <trkpt lat="44.40269" lon="5.20838">
        <ele>425</ele>
        <time>2022-09-29T14:36:47Z</time>
      </trkpt>
      <trkpt lat="44.40268" lon="5.20837">
        <ele>425</ele>
        <time>2022-09-29T14:36:48Z</time>
      </trkpt>
      <trkpt lat="44.40268" lon="5.20836">
        <ele>424</ele>
        <time>2022-09-29T14:36:49Z</time>
      </trkpt>
      <trkpt lat="44.40267" lon="5.20836">
        <ele>424</ele>
        <time>2022-09-29T14:36:50Z</time>
      </trkpt>
      <trkpt lat="44.40267" lon="5.20835">
        <ele>424</ele>
        <time>2022-09-29T14:36:51Z</time>
      </trkpt>
      <trkpt lat="44.40266" lon="5.20835">
        <ele>424</ele>
        <time>2022-09-29T14:36:52Z</time>
      </trkpt>
      <trkpt lat="44.40266" lon="5.20834">
        <ele>424</ele>
        <time>2022-09-29T14:36:53Z</time>
      </trkpt>
      <trkpt lat="44.40265" lon="5.20834">
        <ele>424</ele>
        <time>2022-09-29T14:36:54Z</time>
      </trkpt>
      <trkpt lat="44.40264" lon="5.20833">
        <ele>424</ele>
        <time>2022-09-29T14:36:55Z</time>
      </trkpt>
      <trkpt lat="44.40264" lon="5.20832">
        <ele>424</ele>
        <time>2022-09-29T14:36:56Z</time>
      </trkpt>
      <trkpt lat="44.40263" lon="5.20832">
        <ele>424</ele>
        <time>2022-09-29T14:36:57Z</time>
      </trkpt>
      <trkpt lat="44.40263" lon="5.20831">
        <ele>424</ele>
        <time>2022-09-29T14:36:58Z</time>
      </trkpt>
      <trkpt lat="44.40262" lon="5.20831">
        <ele>423</ele>
        <time>2022-09-29T14:36:59Z</time>
      </trkpt>
      <trkpt lat="44.40262" lon="5.2083">
        <ele>423</ele>
        <time>2022-09-29T14:37:00Z</time>
      </trkpt>
      <trkpt lat="44.40261" lon="5.2083">
        <ele>423</ele>
        <time>2022-09-29T14:37:01Z</time>
      </trkpt>
      <trkpt lat="44.40261" lon="5.2083">
        <ele>423</ele>
        <time>2022-09-29T14:37:02Z</time>
      </trkpt>
      <trkpt lat="44.4026" lon="5.20829">
        <ele>423</ele>
        <time>2022-09-29T14:37:03Z</time>
      </trkpt>
      <trkpt lat="44.40259" lon="5.20829">
        <ele>422</ele>
        <time>2022-09-29T14:37:04Z</time>
      </trkpt>
      <trkpt lat="44.40259" lon="5.20828">
        <ele>422</ele>
        <time>2022-09-29T14:37:05Z</time>
      </trkpt>
      <trkpt lat="44.40258" lon="5.20827">
        <ele>421</ele>
        <time>2022-09-29T14:37:06Z</time>
      </trkpt>
      <trkpt lat="44.40258" lon="5.20827">
        <ele>421</ele>
        <time>2022-09-29T14:37:07Z</time>
      </trkpt>
      <trkpt lat="44.40257" lon="5.20826">
        <ele>421</ele>
        <time>2022-09-29T14:37:08Z</time>
      </trkpt>
      <trkpt lat="44.40257" lon="5.20825">
        <ele>420</ele>
        <time>2022-09-29T14:37:09Z</time>
      </trkpt>
      <trkpt lat="44.40256" lon="5.20825">
        <ele>420</ele>
        <time>2022-09-29T14:37:10Z</time>
      </trkpt>
      <trkpt lat="44.40255" lon="5.20824">
        <ele>420</ele>
        <time>2022-09-29T14:37:11Z</time>
      </trkpt>
      <trkpt lat="44.40255" lon="5.20824">
        <ele>420</ele>
        <time>2022-09-29T14:37:12Z</time>
      </trkpt>
      <trkpt lat="44.40254" lon="5.20823">
        <ele>420</ele>
        <time>2022-09-29T14:37:13Z</time>
      </trkpt>
      <trkpt lat="44.40253" lon="5.20822">
        <ele>419</ele>
        <time>2022-09-29T14:37:14Z</time>
      </trkpt>
      <trkpt lat="44.40253" lon="5.20822">
        <ele>419</ele>
        <time>2022-09-29T14:37:15Z</time>
      </trkpt>
      <trkpt lat="44.40252" lon="5.20821">
        <ele>419</ele>
        <time>2022-09-29T14:37:16Z</time>
      </trkpt>
      <trkpt lat="44.40252" lon="5.2082">
        <ele>419</ele>
        <time>2022-09-29T14:37:17Z</time>
      </trkpt>
      <trkpt lat="44.40251" lon="5.2082">
        <ele>419</ele>
        <time>2022-09-29T14:37:18Z</time>
      </trkpt>
      <trkpt lat="44.4025" lon="5.20819">
        <ele>418</ele>
        <time>2022-09-29T14:37:19Z</time>
      </trkpt>
      <trkpt lat="44.4025" lon="5.20818">
        <ele>418</ele>
        <time>2022-09-29T14:37:20Z</time>
      </trkpt>
      <trkpt lat="44.40249" lon="5.20818">
        <ele>418</ele>
        <time>2022-09-29T14:37:21Z</time>
      </trkpt>
      <trkpt lat="44.40249" lon="5.20817">
        <ele>418</ele>
        <time>2022-09-29T14:37:22Z</time>
      </trkpt>
      <trkpt lat="44.40248" lon="5.20816">
        <ele>418</ele>
        <time>2022-09-29T14:37:23Z</time>
      </trkpt>
      <trkpt lat="44.40247" lon="5.20816">
        <ele>417</ele>
        <time>2022-09-29T14:37:24Z</time>
      </trkpt>
      <trkpt lat="44.40247" lon="5.20815">
        <ele>417</ele>
        <time>2022-09-29T14:37:25Z</time>
      </trkpt>
      <trkpt lat="44.40246" lon="5.20814">
        <ele>417</ele>
        <time>2022-09-29T14:37:26Z</time>
      </trkpt>
      <trkpt lat="44.40245" lon="5.20814">
        <ele>417</ele>
        <time>2022-09-29T14:37:27Z</time>
      </trkpt>
      <trkpt lat="44.40244" lon="5.20813">
        <ele>417</ele>
        <time>2022-09-29T14:37:28Z</time>
      </trkpt>
      <trkpt lat="44.40243" lon="5.20812">
        <ele>416</ele>
        <time>2022-09-29T14:37:29Z</time>
      </trkpt>
      <trkpt lat="44.40243" lon="5.20811">
        <ele>416</ele>
        <time>2022-09-29T14:37:30Z</time>
      </trkpt>
      <trkpt lat="44.40242" lon="5.20811">
        <ele>415</ele>
        <time>2022-09-29T14:37:31Z</time>
      </trkpt>
      <trkpt lat="44.40241" lon="5.2081">
        <ele>415</ele>
        <time>2022-09-29T14:37:32Z</time>
      </trkpt>
      <trkpt lat="44.4024" lon="5.20809">
        <ele>415</ele>
        <time>2022-09-29T14:37:33Z</time>
      </trkpt>
      <trkpt lat="44.4024" lon="5.20808">
        <ele>414</ele>
        <time>2022-09-29T14:37:34Z</time>
      </trkpt>
      <trkpt lat="44.40239" lon="5.20808">
        <ele>414</ele>
        <time>2022-09-29T14:37:35Z</time>
      </trkpt>
      <trkpt lat="44.40238" lon="5.20807">
        <ele>414</ele>
        <time>2022-09-29T14:37:36Z</time>
      </trkpt>
      <trkpt lat="44.40237" lon="5.20806">
        <ele>414</ele>
        <time>2022-09-29T14:37:37Z</time>
      </trkpt>
      <trkpt lat="44.40237" lon="5.20806">
        <ele>414</ele>
        <time>2022-09-29T14:37:38Z</time>
      </trkpt>
      <trkpt lat="44.40236" lon="5.20805">
        <ele>413</ele>
        <time>2022-09-29T14:37:39Z</time>
      </trkpt>
      <trkpt lat="44.40235" lon="5.20804">
        <ele>413</ele>
        <time>2022-09-29T14:37:40Z</time>
      </trkpt>
      <trkpt lat="44.40235" lon="5.20804">
        <ele>413</ele>
        <time>2022-09-29T14:37:41Z</time>
      </trkpt>
      <trkpt lat="44.40234" lon="5.20803">
        <ele>413</ele>
        <time>2022-09-29T14:37:42Z</time>
      </trkpt>
      <trkpt lat="44.40233" lon="5.20802">
        <ele>413</ele>
        <time>2022-09-29T14:37:43Z</time>
      </trkpt>
      <trkpt lat="44.40233" lon="5.20802">
        <ele>412</ele>
        <time>2022-09-29T14:37:44Z</time>
      </trkpt>
      <trkpt lat="44.40232" lon="5.20801">
        <ele>412</ele>
        <time>2022-09-29T14:37:45Z</time>
      </trkpt>
      <trkpt lat="44.40232" lon="5.208">
        <ele>411</ele>
        <time>2022-09-29T14:37:46Z</time>
      </trkpt>
      <trkpt lat="44.40231" lon="5.208">
        <ele>411</ele>
        <time>2022-09-29T14:37:47Z</time>
      </trkpt>
      <trkpt lat="44.4023" lon="5.20799">
        <ele>411</ele>
        <time>2022-09-29T14:37:48Z</time>
      </trkpt>
      <trkpt lat="44.40229" lon="5.20799">
        <ele>410</ele>
        <time>2022-09-29T14:37:49Z</time>
      </trkpt>
      <trkpt lat="44.40229" lon="5.20798">
        <ele>410</ele>
        <time>2022-09-29T14:37:50Z</time>
      </trkpt>
      <trkpt lat="44.40228" lon="5.20798">
        <ele>410</ele>
        <time>2022-09-29T14:37:51Z</time>
      </trkpt>
      <trkpt lat="44.40227" lon="5.20797">
        <ele>410</ele>
        <time>2022-09-29T14:37:52Z</time>
      </trkpt>
      <trkpt lat="44.40227" lon="5.20796">
        <ele>410</ele>
        <time>2022-09-29T14:37:53Z</time>
      </trkpt>
      <trkpt lat="44.40226" lon="5.20795">
        <ele>409</ele>
        <time>2022-09-29T14:37:54Z</time>
      </trkpt>
      <trkpt lat="44.40225" lon="5.20795">
        <ele>409</ele>
        <time>2022-09-29T14:37:55Z</time>
      </trkpt>
      <trkpt lat="44.40225" lon="5.20794">
        <ele>409</ele>
        <time>2022-09-29T14:37:56Z</time>
      </trkpt>
      <trkpt lat="44.40224" lon="5.20793">
        <ele>409</ele>
        <time>2022-09-29T14:37:57Z</time>
      </trkpt>
      <trkpt lat="44.40224" lon="5.20792">
        <ele>407</ele>
        <time>2022-09-29T14:38:46Z</time>
      </trkpt>
      <trkpt lat="44.40224" lon="5.20791">
        <ele>407</ele>
        <time>2022-09-29T14:38:47Z</time>
      </trkpt>
      <trkpt lat="44.40223" lon="5.20791">
        <ele>407</ele>
        <time>2022-09-29T14:38:48Z</time>
      </trkpt>
      <trkpt lat="44.40223" lon="5.20791">
        <ele>406</ele>
        <time>2022-09-29T14:38:49Z</time>
      </trkpt>
      <trkpt lat="44.40222" lon="5.20791">
        <ele>406</ele>
        <time>2022-09-29T14:38:50Z</time>
      </trkpt>
      <trkpt lat="44.40221" lon="5.2079">
        <ele>406</ele>
        <time>2022-09-29T14:38:51Z</time>
      </trkpt>
      <trkpt lat="44.40221" lon="5.2079">
        <ele>406</ele>
        <time>2022-09-29T14:38:52Z</time>
      </trkpt>
      <trkpt lat="44.4022" lon="5.2079">
        <ele>406</ele>
        <time>2022-09-29T14:38:53Z</time>
      </trkpt>
      <trkpt lat="44.40219" lon="5.20789">
        <ele>406</ele>
        <time>2022-09-29T14:38:54Z</time>
      </trkpt>
      <trkpt lat="44.40218" lon="5.20788">
        <ele>406</ele>
        <time>2022-09-29T14:38:55Z</time>
      </trkpt>
      <trkpt lat="44.40217" lon="5.20788">
        <ele>406</ele>
        <time>2022-09-29T14:38:56Z</time>
      </trkpt>
      <trkpt lat="44.40217" lon="5.20787">
        <ele>406</ele>
        <time>2022-09-29T14:38:57Z</time>
      </trkpt>
      <trkpt lat="44.40216" lon="5.20786">
        <ele>406</ele>
        <time>2022-09-29T14:38:58Z</time>
      </trkpt>
      <trkpt lat="44.40215" lon="5.20786">
        <ele>405</ele>
        <time>2022-09-29T14:38:59Z</time>
      </trkpt>
      <trkpt lat="44.40215" lon="5.20785">
        <ele>405</ele>
        <time>2022-09-29T14:39:00Z</time>
      </trkpt>
      <trkpt lat="44.40215" lon="5.20784">
        <ele>405</ele>
        <time>2022-09-29T14:39:01Z</time>
      </trkpt>
      <trkpt lat="44.40215" lon="5.20783">
        <ele>405</ele>
        <time>2022-09-29T14:39:02Z</time>
      </trkpt>
      <trkpt lat="44.40215" lon="5.20782">
        <ele>405</ele>
        <time>2022-09-29T14:39:03Z</time>
      </trkpt>
      <trkpt lat="44.40215" lon="5.20781">
        <ele>404</ele>
        <time>2022-09-29T14:39:04Z</time>
      </trkpt>
      <trkpt lat="44.40215" lon="5.2078">
        <ele>404</ele>
        <time>2022-09-29T14:39:05Z</time>
      </trkpt>
      <trkpt lat="44.40215" lon="5.20779">
        <ele>404</ele>
        <time>2022-09-29T14:39:06Z</time>
      </trkpt>
      <trkpt lat="44.40216" lon="5.20778">
        <ele>404</ele>
        <time>2022-09-29T14:39:07Z</time>
      </trkpt>
      <trkpt lat="44.40216" lon="5.20777">
        <ele>404</ele>
        <time>2022-09-29T14:39:08Z</time>
      </trkpt>
      <trkpt lat="44.40216" lon="5.20776">
        <ele>403</ele>
        <time>2022-09-29T14:39:09Z</time>
      </trkpt>
      <trkpt lat="44.40216" lon="5.20775">
        <ele>403</ele>
        <time>2022-09-29T14:39:10Z</time>
      </trkpt>
      <trkpt lat="44.40217" lon="5.20774">
        <ele>403</ele>
        <time>2022-09-29T14:39:11Z</time>
      </trkpt>
      <trkpt lat="44.40217" lon="5.20773">
        <ele>403</ele>
        <time>2022-09-29T14:39:12Z</time>
      </trkpt>
      <trkpt lat="44.40218" lon="5.20772">
        <ele>403</ele>
        <time>2022-09-29T14:39:13Z</time>
      </trkpt>
      <trkpt lat="44.40218" lon="5.20771">
        <ele>402</ele>
        <time>2022-09-29T14:39:14Z</time>
      </trkpt>
      <trkpt lat="44.40218" lon="5.2077">
        <ele>402</ele>
        <time>2022-09-29T14:39:15Z</time>
      </trkpt>
      <trkpt lat="44.40219" lon="5.20769">
        <ele>402</ele>
        <time>2022-09-29T14:39:16Z</time>
      </trkpt>
      <trkpt lat="44.40219" lon="5.20768">
        <ele>402</ele>
        <time>2022-09-29T14:39:17Z</time>
      </trkpt>
      <trkpt lat="44.40219" lon="5.20766">
        <ele>402</ele>
        <time>2022-09-29T14:39:18Z</time>
      </trkpt>
      <trkpt lat="44.40219" lon="5.20765">
        <ele>401</ele>
        <time>2022-09-29T14:39:19Z</time>
      </trkpt>
      <trkpt lat="44.40219" lon="5.20764">
        <ele>401</ele>
        <time>2022-09-29T14:39:20Z</time>
      </trkpt>
      <trkpt lat="44.40219" lon="5.20762">
        <ele>401</ele>
        <time>2022-09-29T14:39:21Z</time>
      </trkpt>
      <trkpt lat="44.40219" lon="5.20761">
        <ele>401</ele>
        <time>2022-09-29T14:39:22Z</time>
      </trkpt>
      <trkpt lat="44.40219" lon="5.20759">
        <ele>401</ele>
        <time>2022-09-29T14:39:23Z</time>
      </trkpt>
      <trkpt lat="44.40219" lon="5.20757">
        <ele>400</ele>
        <time>2022-09-29T14:39:24Z</time>
      </trkpt>
      <trkpt lat="44.4022" lon="5.20756">
        <ele>400</ele>
        <time>2022-09-29T14:39:25Z</time>
      </trkpt>
      <trkpt lat="44.4022" lon="5.20754">
        <ele>400</ele>
        <time>2022-09-29T14:39:26Z</time>
      </trkpt>
      <trkpt lat="44.4022" lon="5.20753">
        <ele>400</ele>
        <time>2022-09-29T14:39:27Z</time>
      </trkpt>
      <trkpt lat="44.4022" lon="5.20752">
        <ele>400</ele>
        <time>2022-09-29T14:39:28Z</time>
      </trkpt>
      <trkpt lat="44.4022" lon="5.2075">
        <ele>399</ele>
        <time>2022-09-29T14:39:29Z</time>
      </trkpt>
      <trkpt lat="44.40221" lon="5.20749">
        <ele>399</ele>
        <time>2022-09-29T14:39:30Z</time>
      </trkpt>
      <trkpt lat="44.40221" lon="5.20748">
        <ele>399</ele>
        <time>2022-09-29T14:39:31Z</time>
      </trkpt>
      <trkpt lat="44.40221" lon="5.20747">
        <ele>399</ele>
        <time>2022-09-29T14:39:32Z</time>
      </trkpt>
      <trkpt lat="44.40221" lon="5.20745">
        <ele>399</ele>
        <time>2022-09-29T14:39:33Z</time>
      </trkpt>
      <trkpt lat="44.40221" lon="5.20744">
        <ele>398</ele>
        <time>2022-09-29T14:39:34Z</time>
      </trkpt>
      <trkpt lat="44.40221" lon="5.20743">
        <ele>398</ele>
        <time>2022-09-29T14:39:35Z</time>
      </trkpt>
      <trkpt lat="44.40221" lon="5.20741">
        <ele>397</ele>
        <time>2022-09-29T14:39:36Z</time>
      </trkpt>
      <trkpt lat="44.40221" lon="5.2074">
        <ele>397</ele>
        <time>2022-09-29T14:39:37Z</time>
      </trkpt>
      <trkpt lat="44.40221" lon="5.20739">
        <ele>397</ele>
        <time>2022-09-29T14:39:38Z</time>
      </trkpt>
      <trkpt lat="44.4022" lon="5.20738">
        <ele>396</ele>
        <time>2022-09-29T14:39:39Z</time>
      </trkpt>
      <trkpt lat="44.4022" lon="5.20737">
        <ele>396</ele>
        <time>2022-09-29T14:39:40Z</time>
      </trkpt>
      <trkpt lat="44.40219" lon="5.20735">
        <ele>396</ele>
        <time>2022-09-29T14:39:41Z</time>
      </trkpt>
      <trkpt lat="44.40219" lon="5.20734">
        <ele>396</ele>
        <time>2022-09-29T14:39:42Z</time>
      </trkpt>
      <trkpt lat="44.40218" lon="5.20733">
        <ele>396</ele>
        <time>2022-09-29T14:39:43Z</time>
      </trkpt>
      <trkpt lat="44.40217" lon="5.20732">
        <ele>395</ele>
        <time>2022-09-29T14:39:44Z</time>
      </trkpt>
      <trkpt lat="44.40217" lon="5.20731">
        <ele>395</ele>
        <time>2022-09-29T14:39:45Z</time>
      </trkpt>
      <trkpt lat="44.40216" lon="5.2073">
        <ele>395</ele>
        <time>2022-09-29T14:39:46Z</time>
      </trkpt>
      <trkpt lat="44.40216" lon="5.20728">
        <ele>395</ele>
        <time>2022-09-29T14:39:47Z</time>
      </trkpt>
      <trkpt lat="44.40216" lon="5.20727">
        <ele>395</ele>
        <time>2022-09-29T14:39:48Z</time>
      </trkpt>
      <trkpt lat="44.40216" lon="5.20726">
        <ele>394</ele>
        <time>2022-09-29T14:39:49Z</time>
      </trkpt>
      <trkpt lat="44.40216" lon="5.20725">
        <ele>394</ele>
        <time>2022-09-29T14:39:50Z</time>
      </trkpt>
      <trkpt lat="44.40217" lon="5.20723">
        <ele>393</ele>
        <time>2022-09-29T14:39:56Z</time>
      </trkpt>
      <trkpt lat="44.40217" lon="5.20722">
        <ele>393</ele>
        <time>2022-09-29T14:39:57Z</time>
      </trkpt>
      <trkpt lat="44.40217" lon="5.20721">
        <ele>393</ele>
        <time>2022-09-29T14:39:58Z</time>
      </trkpt>
      <trkpt lat="44.40216" lon="5.2072">
        <ele>393</ele>
        <time>2022-09-29T14:39:59Z</time>
      </trkpt>
      <trkpt lat="44.40216" lon="5.20719">
        <ele>393</ele>
        <time>2022-09-29T14:40:00Z</time>
      </trkpt>
      <trkpt lat="44.40216" lon="5.20718">
        <ele>393</ele>
        <time>2022-09-29T14:40:01Z</time>
      </trkpt>
      <trkpt lat="44.40215" lon="5.20717">
        <ele>393</ele>
        <time>2022-09-29T14:40:02Z</time>
      </trkpt>
      <trkpt lat="44.40215" lon="5.20716">
        <ele>393</ele>
        <time>2022-09-29T14:40:03Z</time>
      </trkpt>
      <trkpt lat="44.40214" lon="5.20715">
        <ele>392</ele>
        <time>2022-09-29T14:40:04Z</time>
      </trkpt>
      <trkpt lat="44.40213" lon="5.20714">
        <ele>392</ele>
        <time>2022-09-29T14:40:05Z</time>
      </trkpt>
      <trkpt lat="44.40213" lon="5.20713">
        <ele>391</ele>
        <time>2022-09-29T14:40:06Z</time>
      </trkpt>
      <trkpt lat="44.40212" lon="5.20713">
        <ele>391</ele>
        <time>2022-09-29T14:40:07Z</time>
      </trkpt>
      <trkpt lat="44.40211" lon="5.20712">
        <ele>391</ele>
        <time>2022-09-29T14:40:08Z</time>
      </trkpt>
      <trkpt lat="44.4021" lon="5.20712">
        <ele>390</ele>
        <time>2022-09-29T14:40:09Z</time>
      </trkpt>
      <trkpt lat="44.4021" lon="5.20711">
        <ele>390</ele>
        <time>2022-09-29T14:40:10Z</time>
      </trkpt>
      <trkpt lat="44.40209" lon="5.20711">
        <ele>390</ele>
        <time>2022-09-29T14:40:11Z</time>
      </trkpt>
      <trkpt lat="44.40208" lon="5.20711">
        <ele>390</ele>
        <time>2022-09-29T14:40:12Z</time>
      </trkpt>
      <trkpt lat="44.40207" lon="5.20711">
        <ele>390</ele>
        <time>2022-09-29T14:40:13Z</time>
      </trkpt>
      <trkpt lat="44.40205" lon="5.20711">
        <ele>389</ele>
        <time>2022-09-29T14:40:14Z</time>
      </trkpt>
      <trkpt lat="44.40204" lon="5.20711">
        <ele>389</ele>
        <time>2022-09-29T14:40:15Z</time>
      </trkpt>
      <trkpt lat="44.40203" lon="5.2071">
        <ele>389</ele>
        <time>2022-09-29T14:40:16Z</time>
      </trkpt>
      <trkpt lat="44.40203" lon="5.2071">
        <ele>389</ele>
        <time>2022-09-29T14:40:17Z</time>
      </trkpt>
      <trkpt lat="44.40202" lon="5.2071">
        <ele>389</ele>
        <time>2022-09-29T14:40:18Z</time>
      </trkpt>
      <trkpt lat="44.40201" lon="5.2071">
        <ele>388</ele>
        <time>2022-09-29T14:40:19Z</time>
      </trkpt>
      <trkpt lat="44.402" lon="5.2071">
        <ele>388</ele>
        <time>2022-09-29T14:40:20Z</time>
      </trkpt>
      <trkpt lat="44.40199" lon="5.20709">
        <ele>388</ele>
        <time>2022-09-29T14:40:21Z</time>
      </trkpt>
      <trkpt lat="44.40198" lon="5.20709">
        <ele>388</ele>
        <time>2022-09-29T14:40:22Z</time>
      </trkpt>
      <trkpt lat="44.40197" lon="5.20709">
        <ele>388</ele>
        <time>2022-09-29T14:40:23Z</time>
      </trkpt>
      <trkpt lat="44.40196" lon="5.20709">
        <ele>387</ele>
        <time>2022-09-29T14:40:24Z</time>
      </trkpt>
      <trkpt lat="44.40195" lon="5.20709">
        <ele>387</ele>
        <time>2022-09-29T14:40:25Z</time>
      </trkpt>
      <trkpt lat="44.40194" lon="5.20709">
        <ele>387</ele>
        <time>2022-09-29T14:40:26Z</time>
      </trkpt>
      <trkpt lat="44.40193" lon="5.20709">
        <ele>387</ele>
        <time>2022-09-29T14:40:27Z</time>
      </trkpt>
      <trkpt lat="44.40192" lon="5.20709">
        <ele>387</ele>
        <time>2022-09-29T14:40:28Z</time>
      </trkpt>
      <trkpt lat="44.40191" lon="5.20709">
        <ele>386</ele>
        <time>2022-09-29T14:40:29Z</time>
      </trkpt>
      <trkpt lat="44.40191" lon="5.20709">
        <ele>386</ele>
        <time>2022-09-29T14:40:30Z</time>
      </trkpt>
      <trkpt lat="44.4019" lon="5.20709">
        <ele>386</ele>
        <time>2022-09-29T14:40:31Z</time>
      </trkpt>
      <trkpt lat="44.40189" lon="5.20709">
        <ele>386</ele>
        <time>2022-09-29T14:40:32Z</time>
      </trkpt>
      <trkpt lat="44.40188" lon="5.20708">
        <ele>386</ele>
        <time>2022-09-29T14:40:33Z</time>
      </trkpt>
      <trkpt lat="44.40187" lon="5.20708">
        <ele>386</ele>
        <time>2022-09-29T14:40:34Z</time>
      </trkpt>
      <trkpt lat="44.40187" lon="5.20708">
        <ele>386</ele>
        <time>2022-09-29T14:40:35Z</time>
      </trkpt>
      <trkpt lat="44.40186" lon="5.20708">
        <ele>386</ele>
        <time>2022-09-29T14:40:36Z</time>
      </trkpt>
      <trkpt lat="44.40185" lon="5.20707">
        <ele>386</ele>
        <time>2022-09-29T14:40:37Z</time>
      </trkpt>
      <trkpt lat="44.40185" lon="5.20707">
        <ele>386</ele>
        <time>2022-09-29T14:40:38Z</time>
      </trkpt>
      <trkpt lat="44.40184" lon="5.20707">
        <ele>385</ele>
        <time>2022-09-29T14:40:39Z</time>
      </trkpt>
      <trkpt lat="44.40184" lon="5.20706">
        <ele>385</ele>
        <time>2022-09-29T14:40:40Z</time>
      </trkpt>
      <trkpt lat="44.40183" lon="5.20705">
        <ele>385</ele>
        <time>2022-09-29T14:40:41Z</time>
      </trkpt>
      <trkpt lat="44.40182" lon="5.20705">
        <ele>385</ele>
        <time>2022-09-29T14:40:42Z</time>
      </trkpt>
      <trkpt lat="44.40182" lon="5.20704">
        <ele>385</ele>
        <time>2022-09-29T14:40:43Z</time>
      </trkpt>
      <trkpt lat="44.40181" lon="5.20704">
        <ele>384</ele>
        <time>2022-09-29T14:40:44Z</time>
      </trkpt>
      <trkpt lat="44.4018" lon="5.20703">
        <ele>384</ele>
        <time>2022-09-29T14:40:45Z</time>
      </trkpt>
      <trkpt lat="44.40179" lon="5.20703">
        <ele>384</ele>
        <time>2022-09-29T14:40:46Z</time>
      </trkpt>
      <trkpt lat="44.40178" lon="5.20702">
        <ele>384</ele>
        <time>2022-09-29T14:40:47Z</time>
      </trkpt>
      <trkpt lat="44.40178" lon="5.20702">
        <ele>384</ele>
        <time>2022-09-29T14:40:48Z</time>
      </trkpt>
      <trkpt lat="44.40177" lon="5.20702">
        <ele>383</ele>
        <time>2022-09-29T14:40:49Z</time>
      </trkpt>
      <trkpt lat="44.40176" lon="5.20701">
        <ele>383</ele>
        <time>2022-09-29T14:40:50Z</time>
      </trkpt>
      <trkpt lat="44.40176" lon="5.207">
        <ele>383</ele>
        <time>2022-09-29T14:40:51Z</time>
      </trkpt>
      <trkpt lat="44.40175" lon="5.207">
        <ele>383</ele>
        <time>2022-09-29T14:40:52Z</time>
      </trkpt>
      <trkpt lat="44.40174" lon="5.20699">
        <ele>383</ele>
        <time>2022-09-29T14:40:53Z</time>
      </trkpt>
      <trkpt lat="44.40174" lon="5.20698">
        <ele>382</ele>
        <time>2022-09-29T14:40:54Z</time>
      </trkpt>
      <trkpt lat="44.40174" lon="5.20697">
        <ele>382</ele>
        <time>2022-09-29T14:40:55Z</time>
      </trkpt>
      <trkpt lat="44.40173" lon="5.20695">
        <ele>382</ele>
        <time>2022-09-29T14:40:56Z</time>
      </trkpt>
      <trkpt lat="44.40173" lon="5.20694">
        <ele>382</ele>
        <time>2022-09-29T14:40:57Z</time>
      </trkpt>
      <trkpt lat="44.40173" lon="5.20693">
        <ele>382</ele>
        <time>2022-09-29T14:40:58Z</time>
      </trkpt>
      <trkpt lat="44.40173" lon="5.20691">
        <ele>382</ele>
        <time>2022-09-29T14:40:59Z</time>
      </trkpt>
      <trkpt lat="44.40172" lon="5.2069">
        <ele>382</ele>
        <time>2022-09-29T14:41:00Z</time>
      </trkpt>
      <trkpt lat="44.40172" lon="5.20689">
        <ele>382</ele>
        <time>2022-09-29T14:41:01Z</time>
      </trkpt>
      <trkpt lat="44.40172" lon="5.20688">
        <ele>382</ele>
        <time>2022-09-29T14:41:02Z</time>
      </trkpt>
      <trkpt lat="44.40172" lon="5.20686">
        <ele>382</ele>
        <time>2022-09-29T14:41:03Z</time>
      </trkpt>
      <trkpt lat="44.40171" lon="5.20685">
        <ele>382</ele>
        <time>2022-09-29T14:41:04Z</time>
      </trkpt>
      <trkpt lat="44.4017" lon="5.20684">
        <ele>382</ele>
        <time>2022-09-29T14:41:05Z</time>
      </trkpt>
      <trkpt lat="44.4017" lon="5.20683">
        <ele>382</ele>
        <time>2022-09-29T14:41:06Z</time>
      </trkpt>
      <trkpt lat="44.40169" lon="5.20682">
        <ele>382</ele>
        <time>2022-09-29T14:41:07Z</time>
      </trkpt>
      <trkpt lat="44.40169" lon="5.20681">
        <ele>382</ele>
        <time>2022-09-29T14:41:08Z</time>
      </trkpt>
      <trkpt lat="44.40168" lon="5.2068">
        <ele>382</ele>
        <time>2022-09-29T14:41:09Z</time>
      </trkpt>
      <trkpt lat="44.40168" lon="5.20679">
        <ele>382</ele>
        <time>2022-09-29T14:41:10Z</time>
      </trkpt>
      <trkpt lat="44.40168" lon="5.20678">
        <ele>382</ele>
        <time>2022-09-29T14:41:11Z</time>
      </trkpt>
      <trkpt lat="44.40167" lon="5.20676">
        <ele>382</ele>
        <time>2022-09-29T14:41:12Z</time>
      </trkpt>
      <trkpt lat="44.40167" lon="5.20675">
        <ele>382</ele>
        <time>2022-09-29T14:41:13Z</time>
      </trkpt>
      <trkpt lat="44.40167" lon="5.20674">
        <ele>382</ele>
        <time>2022-09-29T14:41:14Z</time>
      </trkpt>
      <trkpt lat="44.40167" lon="5.20673">
        <ele>382</ele>
        <time>2022-09-29T14:41:15Z</time>
      </trkpt>
      <trkpt lat="44.40167" lon="5.20671">
        <ele>382</ele>
        <time>2022-09-29T14:41:16Z</time>
      </trkpt>
      <trkpt lat="44.40167" lon="5.2067">
        <ele>382</ele>
        <time>2022-09-29T14:41:17Z</time>
      </trkpt>
      <trkpt lat="44.40167" lon="5.20669">
        <ele>382</ele>
        <time>2022-09-29T14:41:18Z</time>
      </trkpt>
      <trkpt lat="44.40167" lon="5.20668">
        <ele>382</ele>
        <time>2022-09-29T14:41:19Z</time>
      </trkpt>
      <trkpt lat="44.40167" lon="5.20667">
        <ele>382</ele>
        <time>2022-09-29T14:41:20Z</time>
      </trkpt>
      <trkpt lat="44.40167" lon="5.20665">
        <ele>382</ele>
        <time>2022-09-29T14:41:21Z</time>
      </trkpt>
      <trkpt lat="44.40167" lon="5.20664">
        <ele>382</ele>
        <time>2022-09-29T14:41:22Z</time>
      </trkpt>
      <trkpt lat="44.40166" lon="5.20663">
        <ele>383</ele>
        <time>2022-09-29T14:41:23Z</time>
      </trkpt>
      <trkpt lat="44.40166" lon="5.20662">
        <ele>383</ele>
        <time>2022-09-29T14:41:24Z</time>
      </trkpt>
      <trkpt lat="44.40166" lon="5.20661">
        <ele>383</ele>
        <time>2022-09-29T14:41:25Z</time>
      </trkpt>
      <trkpt lat="44.40167" lon="5.2066">
        <ele>383</ele>
        <time>2022-09-29T14:41:26Z</time>
      </trkpt>
      <trkpt lat="44.40167" lon="5.20659">
        <ele>383</ele>
        <time>2022-09-29T14:41:27Z</time>
      </trkpt>
      <trkpt lat="44.40167" lon="5.20658">
        <ele>383</ele>
        <time>2022-09-29T14:41:28Z</time>
      </trkpt>
      <trkpt lat="44.40167" lon="5.20657">
        <ele>383</ele>
        <time>2022-09-29T14:41:29Z</time>
      </trkpt>
      <trkpt lat="44.40168" lon="5.20655">
        <ele>383</ele>
        <time>2022-09-29T14:41:30Z</time>
      </trkpt>
      <trkpt lat="44.40168" lon="5.20654">
        <ele>383</ele>
        <time>2022-09-29T14:41:31Z</time>
      </trkpt>
      <trkpt lat="44.40168" lon="5.20653">
        <ele>383</ele>
        <time>2022-09-29T14:41:32Z</time>
      </trkpt>
      <trkpt lat="44.40168" lon="5.20652">
        <ele>384</ele>
        <time>2022-09-29T14:41:33Z</time>
      </trkpt>
      <trkpt lat="44.40168" lon="5.20651">
        <ele>384</ele>
        <time>2022-09-29T14:41:34Z</time>
      </trkpt>
      <trkpt lat="44.40169" lon="5.2065">
        <ele>384</ele>
        <time>2022-09-29T14:41:35Z</time>
      </trkpt>
      <trkpt lat="44.40169" lon="5.20649">
        <ele>384</ele>
        <time>2022-09-29T14:41:36Z</time>
      </trkpt>
      <trkpt lat="44.40169" lon="5.20648">
        <ele>384</ele>
        <time>2022-09-29T14:41:37Z</time>
      </trkpt>
      <trkpt lat="44.40169" lon="5.20647">
        <ele>385</ele>
        <time>2022-09-29T14:41:38Z</time>
      </trkpt>
      <trkpt lat="44.40169" lon="5.20646">
        <ele>385</ele>
        <time>2022-09-29T14:41:39Z</time>
      </trkpt>
      <trkpt lat="44.40169" lon="5.20645">
        <ele>385</ele>
        <time>2022-09-29T14:41:40Z</time>
      </trkpt>
      <trkpt lat="44.40169" lon="5.20644">
        <ele>385</ele>
        <time>2022-09-29T14:41:41Z</time>
      </trkpt>
      <trkpt lat="44.40169" lon="5.20643">
        <ele>385</ele>
        <time>2022-09-29T14:41:42Z</time>
      </trkpt>
      <trkpt lat="44.40169" lon="5.20642">
        <ele>385</ele>
        <time>2022-09-29T14:41:43Z</time>
      </trkpt>
      <trkpt lat="44.4017" lon="5.20638">
        <ele>385</ele>
        <time>2022-09-29T14:41:52Z</time>
      </trkpt>
      <trkpt lat="44.4017" lon="5.20637">
        <ele>385</ele>
        <time>2022-09-29T14:41:53Z</time>
      </trkpt>
      <trkpt lat="44.40171" lon="5.20635">
        <ele>385</ele>
        <time>2022-09-29T14:41:54Z</time>
      </trkpt>
      <trkpt lat="44.40171" lon="5.20634">
        <ele>385</ele>
        <time>2022-09-29T14:41:55Z</time>
      </trkpt>
      <trkpt lat="44.40172" lon="5.20633">
        <ele>385</ele>
        <time>2022-09-29T14:41:56Z</time>
      </trkpt>
      <trkpt lat="44.40172" lon="5.20632">
        <ele>385</ele>
        <time>2022-09-29T14:41:57Z</time>
      </trkpt>
      <trkpt lat="44.40172" lon="5.2063">
        <ele>385</ele>
        <time>2022-09-29T14:41:58Z</time>
      </trkpt>
      <trkpt lat="44.40173" lon="5.20629">
        <ele>385</ele>
        <time>2022-09-29T14:41:59Z</time>
      </trkpt>
      <trkpt lat="44.40173" lon="5.20627">
        <ele>385</ele>
        <time>2022-09-29T14:42:00Z</time>
      </trkpt>
      <trkpt lat="44.40174" lon="5.20626">
        <ele>385</ele>
        <time>2022-09-29T14:42:01Z</time>
      </trkpt>
      <trkpt lat="44.40174" lon="5.20625">
        <ele>385</ele>
        <time>2022-09-29T14:42:02Z</time>
      </trkpt>
      <trkpt lat="44.40175" lon="5.20624">
        <ele>385</ele>
        <time>2022-09-29T14:42:03Z</time>
      </trkpt>
      <trkpt lat="44.40175" lon="5.20623">
        <ele>385</ele>
        <time>2022-09-29T14:42:04Z</time>
      </trkpt>
      <trkpt lat="44.40176" lon="5.20621">
        <ele>385</ele>
        <time>2022-09-29T14:42:05Z</time>
      </trkpt>
      <trkpt lat="44.40176" lon="5.2062">
        <ele>385</ele>
        <time>2022-09-29T14:42:06Z</time>
      </trkpt>
      <trkpt lat="44.40176" lon="5.20618">
        <ele>385</ele>
        <time>2022-09-29T14:42:07Z</time>
      </trkpt>
      <trkpt lat="44.40177" lon="5.20617">
        <ele>385</ele>
        <time>2022-09-29T14:42:08Z</time>
      </trkpt>
      <trkpt lat="44.40177" lon="5.20616">
        <ele>385</ele>
        <time>2022-09-29T14:42:09Z</time>
      </trkpt>
      <trkpt lat="44.40178" lon="5.20614">
        <ele>385</ele>
        <time>2022-09-29T14:42:10Z</time>
      </trkpt>
      <trkpt lat="44.40178" lon="5.20613">
        <ele>385</ele>
        <time>2022-09-29T14:42:11Z</time>
      </trkpt>
      <trkpt lat="44.40179" lon="5.20611">
        <ele>385</ele>
        <time>2022-09-29T14:42:12Z</time>
      </trkpt>
      <trkpt lat="44.40179" lon="5.2061">
        <ele>385</ele>
        <time>2022-09-29T14:42:13Z</time>
      </trkpt>
      <trkpt lat="44.40179" lon="5.20609">
        <ele>385</ele>
        <time>2022-09-29T14:42:14Z</time>
      </trkpt>
      <trkpt lat="44.4018" lon="5.20607">
        <ele>385</ele>
        <time>2022-09-29T14:42:15Z</time>
      </trkpt>
      <trkpt lat="44.4018" lon="5.20606">
        <ele>385</ele>
        <time>2022-09-29T14:42:16Z</time>
      </trkpt>
      <trkpt lat="44.40181" lon="5.20605">
        <ele>385</ele>
        <time>2022-09-29T14:42:17Z</time>
      </trkpt>
      <trkpt lat="44.40181" lon="5.20603">
        <ele>385</ele>
        <time>2022-09-29T14:42:18Z</time>
      </trkpt>
      <trkpt lat="44.40181" lon="5.20602">
        <ele>384</ele>
        <time>2022-09-29T14:42:19Z</time>
      </trkpt>
      <trkpt lat="44.40182" lon="5.20601">
        <ele>384</ele>
        <time>2022-09-29T14:42:20Z</time>
      </trkpt>
      <trkpt lat="44.40182" lon="5.20599">
        <ele>384</ele>
        <time>2022-09-29T14:42:21Z</time>
      </trkpt>
      <trkpt lat="44.40183" lon="5.20598">
        <ele>384</ele>
        <time>2022-09-29T14:42:22Z</time>
      </trkpt>
      <trkpt lat="44.40183" lon="5.20596">
        <ele>384</ele>
        <time>2022-09-29T14:42:23Z</time>
      </trkpt>
      <trkpt lat="44.40183" lon="5.20595">
        <ele>384</ele>
        <time>2022-09-29T14:42:24Z</time>
      </trkpt>
      <trkpt lat="44.40184" lon="5.20593">
        <ele>384</ele>
        <time>2022-09-29T14:42:25Z</time>
      </trkpt>
      <trkpt lat="44.40184" lon="5.20592">
        <ele>384</ele>
        <time>2022-09-29T14:42:26Z</time>
      </trkpt>
      <trkpt lat="44.40184" lon="5.20591">
        <ele>384</ele>
        <time>2022-09-29T14:42:27Z</time>
      </trkpt>
      <trkpt lat="44.40185" lon="5.20589">
        <ele>384</ele>
        <time>2022-09-29T14:42:28Z</time>
      </trkpt>
      <trkpt lat="44.40185" lon="5.20588">
        <ele>384</ele>
        <time>2022-09-29T14:42:29Z</time>
      </trkpt>
      <trkpt lat="44.40185" lon="5.20586">
        <ele>384</ele>
        <time>2022-09-29T14:42:30Z</time>
      </trkpt>
      <trkpt lat="44.40185" lon="5.20585">
        <ele>384</ele>
        <time>2022-09-29T14:42:31Z</time>
      </trkpt>
      <trkpt lat="44.40185" lon="5.20584">
        <ele>384</ele>
        <time>2022-09-29T14:42:32Z</time>
      </trkpt>
      <trkpt lat="44.40185" lon="5.20582">
        <ele>384</ele>
        <time>2022-09-29T14:42:33Z</time>
      </trkpt>
      <trkpt lat="44.40185" lon="5.20581">
        <ele>383</ele>
        <time>2022-09-29T14:42:34Z</time>
      </trkpt>
      <trkpt lat="44.40185" lon="5.2058">
        <ele>383</ele>
        <time>2022-09-29T14:42:35Z</time>
      </trkpt>
      <trkpt lat="44.40185" lon="5.20578">
        <ele>383</ele>
        <time>2022-09-29T14:42:36Z</time>
      </trkpt>
      <trkpt lat="44.40185" lon="5.20577">
        <ele>383</ele>
        <time>2022-09-29T14:42:37Z</time>
      </trkpt>
      <trkpt lat="44.40185" lon="5.20576">
        <ele>383</ele>
        <time>2022-09-29T14:42:38Z</time>
      </trkpt>
      <trkpt lat="44.40185" lon="5.20574">
        <ele>383</ele>
        <time>2022-09-29T14:42:39Z</time>
      </trkpt>
      <trkpt lat="44.40185" lon="5.20573">
        <ele>383</ele>
        <time>2022-09-29T14:42:40Z</time>
      </trkpt>
      <trkpt lat="44.40185" lon="5.20571">
        <ele>383</ele>
        <time>2022-09-29T14:42:41Z</time>
      </trkpt>
      <trkpt lat="44.40185" lon="5.2057">
        <ele>383</ele>
        <time>2022-09-29T14:42:42Z</time>
      </trkpt>
      <trkpt lat="44.40185" lon="5.20568">
        <ele>383</ele>
        <time>2022-09-29T14:42:43Z</time>
      </trkpt>
      <trkpt lat="44.40185" lon="5.20566">
        <ele>382</ele>
        <time>2022-09-29T14:42:44Z</time>
      </trkpt>
      <trkpt lat="44.40185" lon="5.20565">
        <ele>382</ele>
        <time>2022-09-29T14:42:45Z</time>
      </trkpt>
      <trkpt lat="44.40185" lon="5.20563">
        <ele>382</ele>
        <time>2022-09-29T14:42:46Z</time>
      </trkpt>
      <trkpt lat="44.40185" lon="5.20562">
        <ele>382</ele>
        <time>2022-09-29T14:42:47Z</time>
      </trkpt>
      <trkpt lat="44.40185" lon="5.2056">
        <ele>382</ele>
        <time>2022-09-29T14:42:48Z</time>
      </trkpt>
      <trkpt lat="44.40186" lon="5.20559">
        <ele>382</ele>
        <time>2022-09-29T14:42:49Z</time>
      </trkpt>
      <trkpt lat="44.40186" lon="5.20558">
        <ele>382</ele>
        <time>2022-09-29T14:42:50Z</time>
      </trkpt>
      <trkpt lat="44.40186" lon="5.20556">
        <ele>382</ele>
        <time>2022-09-29T14:42:51Z</time>
      </trkpt>
      <trkpt lat="44.40187" lon="5.20555">
        <ele>382</ele>
        <time>2022-09-29T14:42:52Z</time>
      </trkpt>
      <trkpt lat="44.40187" lon="5.20554">
        <ele>382</ele>
        <time>2022-09-29T14:42:53Z</time>
      </trkpt>
      <trkpt lat="44.40188" lon="5.20552">
        <ele>381</ele>
        <time>2022-09-29T14:42:54Z</time>
      </trkpt>
      <trkpt lat="44.40188" lon="5.20551">
        <ele>381</ele>
        <time>2022-09-29T14:42:55Z</time>
      </trkpt>
      <trkpt lat="44.40188" lon="5.20549">
        <ele>381</ele>
        <time>2022-09-29T14:42:56Z</time>
      </trkpt>
      <trkpt lat="44.40189" lon="5.20548">
        <ele>381</ele>
        <time>2022-09-29T14:42:57Z</time>
      </trkpt>
      <trkpt lat="44.40189" lon="5.20547">
        <ele>381</ele>
        <time>2022-09-29T14:42:58Z</time>
      </trkpt>
      <trkpt lat="44.4019" lon="5.20546">
        <ele>381</ele>
        <time>2022-09-29T14:42:59Z</time>
      </trkpt>
      <trkpt lat="44.4019" lon="5.20544">
        <ele>381</ele>
        <time>2022-09-29T14:43:00Z</time>
      </trkpt>
      <trkpt lat="44.40191" lon="5.20543">
        <ele>381</ele>
        <time>2022-09-29T14:43:01Z</time>
      </trkpt>
      <trkpt lat="44.40191" lon="5.20542">
        <ele>381</ele>
        <time>2022-09-29T14:43:02Z</time>
      </trkpt>
      <trkpt lat="44.40192" lon="5.20541">
        <ele>381</ele>
        <time>2022-09-29T14:43:03Z</time>
      </trkpt>
      <trkpt lat="44.40192" lon="5.20539">
        <ele>380</ele>
        <time>2022-09-29T14:43:04Z</time>
      </trkpt>
      <trkpt lat="44.40193" lon="5.20538">
        <ele>380</ele>
        <time>2022-09-29T14:43:05Z</time>
      </trkpt>
      <trkpt lat="44.40193" lon="5.20537">
        <ele>380</ele>
        <time>2022-09-29T14:43:06Z</time>
      </trkpt>
      <trkpt lat="44.40193" lon="5.20536">
        <ele>380</ele>
        <time>2022-09-29T14:43:07Z</time>
      </trkpt>
      <trkpt lat="44.40194" lon="5.20534">
        <ele>380</ele>
        <time>2022-09-29T14:43:08Z</time>
      </trkpt>
      <trkpt lat="44.40194" lon="5.20533">
        <ele>380</ele>
        <time>2022-09-29T14:43:09Z</time>
      </trkpt>
      <trkpt lat="44.40194" lon="5.20532">
        <ele>380</ele>
        <time>2022-09-29T14:43:10Z</time>
      </trkpt>
      <trkpt lat="44.40195" lon="5.2053">
        <ele>380</ele>
        <time>2022-09-29T14:43:11Z</time>
      </trkpt>
      <trkpt lat="44.40195" lon="5.20529">
        <ele>380</ele>
        <time>2022-09-29T14:43:12Z</time>
      </trkpt>
      <trkpt lat="44.40195" lon="5.20527">
        <ele>380</ele>
        <time>2022-09-29T14:43:13Z</time>
      </trkpt>
      <trkpt lat="44.40196" lon="5.20526">
        <ele>379</ele>
        <time>2022-09-29T14:43:14Z</time>
      </trkpt>
      <trkpt lat="44.40196" lon="5.20524">
        <ele>379</ele>
        <time>2022-09-29T14:43:15Z</time>
      </trkpt>
      <trkpt lat="44.40197" lon="5.20523">
        <ele>379</ele>
        <time>2022-09-29T14:43:16Z</time>
      </trkpt>
      <trkpt lat="44.40197" lon="5.20522">
        <ele>379</ele>
        <time>2022-09-29T14:43:17Z</time>
      </trkpt>
      <trkpt lat="44.40198" lon="5.2052">
        <ele>379</ele>
        <time>2022-09-29T14:43:18Z</time>
      </trkpt>
      <trkpt lat="44.40198" lon="5.20519">
        <ele>379</ele>
        <time>2022-09-29T14:43:19Z</time>
      </trkpt>
      <trkpt lat="44.40199" lon="5.20517">
        <ele>379</ele>
        <time>2022-09-29T14:43:20Z</time>
      </trkpt>
      <trkpt lat="44.40199" lon="5.20515">
        <ele>379</ele>
        <time>2022-09-29T14:43:21Z</time>
      </trkpt>
      <trkpt lat="44.402" lon="5.20514">
        <ele>379</ele>
        <time>2022-09-29T14:43:22Z</time>
      </trkpt>
      <trkpt lat="44.402" lon="5.20512">
        <ele>379</ele>
        <time>2022-09-29T14:43:23Z</time>
      </trkpt>
      <trkpt lat="44.40201" lon="5.20511">
        <ele>378</ele>
        <time>2022-09-29T14:43:24Z</time>
      </trkpt>
      <trkpt lat="44.40201" lon="5.20509">
        <ele>378</ele>
        <time>2022-09-29T14:43:25Z</time>
      </trkpt>
      <trkpt lat="44.40202" lon="5.20508">
        <ele>378</ele>
        <time>2022-09-29T14:43:26Z</time>
      </trkpt>
      <trkpt lat="44.40202" lon="5.20507">
        <ele>378</ele>
        <time>2022-09-29T14:43:27Z</time>
      </trkpt>
      <trkpt lat="44.40203" lon="5.20505">
        <ele>378</ele>
        <time>2022-09-29T14:43:28Z</time>
      </trkpt>
      <trkpt lat="44.40203" lon="5.20504">
        <ele>378</ele>
        <time>2022-09-29T14:43:29Z</time>
      </trkpt>
      <trkpt lat="44.40203" lon="5.20502">
        <ele>378</ele>
        <time>2022-09-29T14:43:30Z</time>
      </trkpt>
      <trkpt lat="44.40204" lon="5.20501">
        <ele>378</ele>
        <time>2022-09-29T14:43:31Z</time>
      </trkpt>
      <trkpt lat="44.40204" lon="5.20499">
        <ele>378</ele>
        <time>2022-09-29T14:43:32Z</time>
      </trkpt>
      <trkpt lat="44.40205" lon="5.20498">
        <ele>378</ele>
        <time>2022-09-29T14:43:33Z</time>
      </trkpt>
      <trkpt lat="44.40205" lon="5.20496">
        <ele>378</ele>
        <time>2022-09-29T14:43:34Z</time>
      </trkpt>
      <trkpt lat="44.40205" lon="5.20495">
        <ele>378</ele>
        <time>2022-09-29T14:43:35Z</time>
      </trkpt>
      <trkpt lat="44.40206" lon="5.20493">
        <ele>378</ele>
        <time>2022-09-29T14:43:36Z</time>
      </trkpt>
      <trkpt lat="44.40206" lon="5.20492">
        <ele>378</ele>
        <time>2022-09-29T14:43:37Z</time>
      </trkpt>
      <trkpt lat="44.40207" lon="5.2049">
        <ele>378</ele>
        <time>2022-09-29T14:43:38Z</time>
      </trkpt>
      <trkpt lat="44.40207" lon="5.20489">
        <ele>378</ele>
        <time>2022-09-29T14:43:39Z</time>
      </trkpt>
      <trkpt lat="44.40208" lon="5.20487">
        <ele>378</ele>
        <time>2022-09-29T14:43:40Z</time>
      </trkpt>
      <trkpt lat="44.40208" lon="5.20486">
        <ele>378</ele>
        <time>2022-09-29T14:43:41Z</time>
      </trkpt>
      <trkpt lat="44.40209" lon="5.20484">
        <ele>378</ele>
        <time>2022-09-29T14:43:42Z</time>
      </trkpt>
      <trkpt lat="44.40209" lon="5.20483">
        <ele>378</ele>
        <time>2022-09-29T14:43:43Z</time>
      </trkpt>
      <trkpt lat="44.40209" lon="5.20481">
        <ele>377</ele>
        <time>2022-09-29T14:43:44Z</time>
      </trkpt>
      <trkpt lat="44.4021" lon="5.2048">
        <ele>377</ele>
        <time>2022-09-29T14:43:45Z</time>
      </trkpt>
      <trkpt lat="44.4021" lon="5.20479">
        <ele>377</ele>
        <time>2022-09-29T14:43:46Z</time>
      </trkpt>
      <trkpt lat="44.40211" lon="5.20477">
        <ele>377</ele>
        <time>2022-09-29T14:43:47Z</time>
      </trkpt>
      <trkpt lat="44.40211" lon="5.20476">
        <ele>377</ele>
        <time>2022-09-29T14:43:48Z</time>
      </trkpt>
      <trkpt lat="44.40212" lon="5.20474">
        <ele>377</ele>
        <time>2022-09-29T14:43:49Z</time>
      </trkpt>
      <trkpt lat="44.40212" lon="5.20473">
        <ele>377</ele>
        <time>2022-09-29T14:43:50Z</time>
      </trkpt>
      <trkpt lat="44.40213" lon="5.20471">
        <ele>377</ele>
        <time>2022-09-29T14:43:51Z</time>
      </trkpt>
      <trkpt lat="44.40213" lon="5.2047">
        <ele>377</ele>
        <time>2022-09-29T14:43:52Z</time>
      </trkpt>
      <trkpt lat="44.40214" lon="5.20469">
        <ele>377</ele>
        <time>2022-09-29T14:43:53Z</time>
      </trkpt>
      <trkpt lat="44.40214" lon="5.20467">
        <ele>377</ele>
        <time>2022-09-29T14:43:54Z</time>
      </trkpt>
      <trkpt lat="44.40214" lon="5.20466">
        <ele>377</ele>
        <time>2022-09-29T14:43:55Z</time>
      </trkpt>
      <trkpt lat="44.40215" lon="5.20465">
        <ele>377</ele>
        <time>2022-09-29T14:43:56Z</time>
      </trkpt>
      <trkpt lat="44.40215" lon="5.20463">
        <ele>377</ele>
        <time>2022-09-29T14:43:57Z</time>
      </trkpt>
      <trkpt lat="44.40216" lon="5.20462">
        <ele>377</ele>
        <time>2022-09-29T14:43:58Z</time>
      </trkpt>
      <trkpt lat="44.40217" lon="5.20461">
        <ele>377</ele>
        <time>2022-09-29T14:43:59Z</time>
      </trkpt>
      <trkpt lat="44.40217" lon="5.20459">
        <ele>377</ele>
        <time>2022-09-29T14:44:00Z</time>
      </trkpt>
      <trkpt lat="44.40218" lon="5.20458">
        <ele>377</ele>
        <time>2022-09-29T14:44:01Z</time>
      </trkpt>
      <trkpt lat="44.40218" lon="5.20457">
        <ele>377</ele>
        <time>2022-09-29T14:44:02Z</time>
      </trkpt>
      <trkpt lat="44.40219" lon="5.20456">
        <ele>377</ele>
        <time>2022-09-29T14:44:03Z</time>
      </trkpt>
      <trkpt lat="44.40219" lon="5.20454">
        <ele>376</ele>
        <time>2022-09-29T14:44:04Z</time>
      </trkpt>
      <trkpt lat="44.4022" lon="5.20453">
        <ele>376</ele>
        <time>2022-09-29T14:44:05Z</time>
      </trkpt>
      <trkpt lat="44.4022" lon="5.20452">
        <ele>376</ele>
        <time>2022-09-29T14:44:06Z</time>
      </trkpt>
      <trkpt lat="44.40221" lon="5.20451">
        <ele>376</ele>
        <time>2022-09-29T14:44:07Z</time>
      </trkpt>
      <trkpt lat="44.40221" lon="5.2045">
        <ele>376</ele>
        <time>2022-09-29T14:44:08Z</time>
      </trkpt>
      <trkpt lat="44.40222" lon="5.20449">
        <ele>376</ele>
        <time>2022-09-29T14:44:09Z</time>
      </trkpt>
      <trkpt lat="44.40222" lon="5.20447">
        <ele>376</ele>
        <time>2022-09-29T14:44:10Z</time>
      </trkpt>
      <trkpt lat="44.40222" lon="5.20446">
        <ele>376</ele>
        <time>2022-09-29T14:44:11Z</time>
      </trkpt>
      <trkpt lat="44.40223" lon="5.20445">
        <ele>376</ele>
        <time>2022-09-29T14:44:12Z</time>
      </trkpt>
      <trkpt lat="44.40223" lon="5.20444">
        <ele>377</ele>
        <time>2022-09-29T14:44:13Z</time>
      </trkpt>
      <trkpt lat="44.40223" lon="5.20442">
        <ele>376</ele>
        <time>2022-09-29T14:44:14Z</time>
      </trkpt>
      <trkpt lat="44.40224" lon="5.20441">
        <ele>376</ele>
        <time>2022-09-29T14:44:15Z</time>
      </trkpt>
      <trkpt lat="44.40224" lon="5.2044">
        <ele>376</ele>
        <time>2022-09-29T14:44:16Z</time>
      </trkpt>
      <trkpt lat="44.40224" lon="5.20439">
        <ele>376</ele>
        <time>2022-09-29T14:44:17Z</time>
      </trkpt>
      <trkpt lat="44.40225" lon="5.20438">
        <ele>376</ele>
        <time>2022-09-29T14:44:18Z</time>
      </trkpt>
      <trkpt lat="44.40225" lon="5.20436">
        <ele>376</ele>
        <time>2022-09-29T14:44:19Z</time>
      </trkpt>
      <trkpt lat="44.40226" lon="5.20435">
        <ele>376</ele>
        <time>2022-09-29T14:44:20Z</time>
      </trkpt>
      <trkpt lat="44.40226" lon="5.20434">
        <ele>376</ele>
        <time>2022-09-29T14:44:21Z</time>
      </trkpt>
      <trkpt lat="44.40226" lon="5.20433">
        <ele>376</ele>
        <time>2022-09-29T14:44:22Z</time>
      </trkpt>
      <trkpt lat="44.40226" lon="5.20431">
        <ele>376</ele>
        <time>2022-09-29T14:44:23Z</time>
      </trkpt>
      <trkpt lat="44.40225" lon="5.2043">
        <ele>375</ele>
        <time>2022-09-29T14:44:24Z</time>
      </trkpt>
      <trkpt lat="44.40225" lon="5.2043">
        <ele>375</ele>
        <time>2022-09-29T14:44:25Z</time>
      </trkpt>
      <trkpt lat="44.40225" lon="5.20429">
        <ele>375</ele>
        <time>2022-09-29T14:44:26Z</time>
      </trkpt>
      <trkpt lat="44.40224" lon="5.20428">
        <ele>375</ele>
        <time>2022-09-29T14:44:27Z</time>
      </trkpt>
      <trkpt lat="44.40223" lon="5.20427">
        <ele>375</ele>
        <time>2022-09-29T14:44:28Z</time>
      </trkpt>
      <trkpt lat="44.40223" lon="5.20426">
        <ele>375</ele>
        <time>2022-09-29T14:44:29Z</time>
      </trkpt>
      <trkpt lat="44.40223" lon="5.20425">
        <ele>375</ele>
        <time>2022-09-29T14:44:30Z</time>
      </trkpt>
      <trkpt lat="44.40223" lon="5.20424">
        <ele>375</ele>
        <time>2022-09-29T14:44:31Z</time>
      </trkpt>
      <trkpt lat="44.40222" lon="5.20422">
        <ele>375</ele>
        <time>2022-09-29T14:44:32Z</time>
      </trkpt>
      <trkpt lat="44.40223" lon="5.20421">
        <ele>375</ele>
        <time>2022-09-29T14:44:33Z</time>
      </trkpt>
      <trkpt lat="44.40223" lon="5.2042">
        <ele>374</ele>
        <time>2022-09-29T14:44:34Z</time>
      </trkpt>
      <trkpt lat="44.40223" lon="5.20418">
        <ele>374</ele>
        <time>2022-09-29T14:44:35Z</time>
      </trkpt>
      <trkpt lat="44.40223" lon="5.20417">
        <ele>374</ele>
        <time>2022-09-29T14:44:36Z</time>
      </trkpt>
      <trkpt lat="44.40224" lon="5.20416">
        <ele>374</ele>
        <time>2022-09-29T14:44:37Z</time>
      </trkpt>
      <trkpt lat="44.40224" lon="5.20415">
        <ele>374</ele>
        <time>2022-09-29T14:44:38Z</time>
      </trkpt>
      <trkpt lat="44.40224" lon="5.20414">
        <ele>373</ele>
        <time>2022-09-29T14:44:39Z</time>
      </trkpt>
      <trkpt lat="44.40224" lon="5.20413">
        <ele>373</ele>
        <time>2022-09-29T14:44:40Z</time>
      </trkpt>
      <trkpt lat="44.40224" lon="5.20412">
        <ele>373</ele>
        <time>2022-09-29T14:44:41Z</time>
      </trkpt>
      <trkpt lat="44.40225" lon="5.2041">
        <ele>373</ele>
        <time>2022-09-29T14:44:42Z</time>
      </trkpt>
      <trkpt lat="44.40225" lon="5.20409">
        <ele>373</ele>
        <time>2022-09-29T14:44:43Z</time>
      </trkpt>
      <trkpt lat="44.40225" lon="5.20408">
        <ele>373</ele>
        <time>2022-09-29T14:44:44Z</time>
      </trkpt>
      <trkpt lat="44.40225" lon="5.20407">
        <ele>373</ele>
        <time>2022-09-29T14:44:45Z</time>
      </trkpt>
      <trkpt lat="44.40226" lon="5.20406">
        <ele>373</ele>
        <time>2022-09-29T14:44:46Z</time>
      </trkpt>
      <trkpt lat="44.40226" lon="5.20405">
        <ele>373</ele>
        <time>2022-09-29T14:44:47Z</time>
      </trkpt>
      <trkpt lat="44.40226" lon="5.20404">
        <ele>373</ele>
        <time>2022-09-29T14:44:48Z</time>
      </trkpt>
      <trkpt lat="44.40227" lon="5.20403">
        <ele>372</ele>
        <time>2022-09-29T14:44:49Z</time>
      </trkpt>
      <trkpt lat="44.40227" lon="5.20402">
        <ele>372</ele>
        <time>2022-09-29T14:44:50Z</time>
      </trkpt>
      <trkpt lat="44.40227" lon="5.20401">
        <ele>372</ele>
        <time>2022-09-29T14:44:51Z</time>
      </trkpt>
      <trkpt lat="44.40227" lon="5.20401">
        <ele>372</ele>
        <time>2022-09-29T14:44:52Z</time>
      </trkpt>
      <trkpt lat="44.40228" lon="5.204">
        <ele>372</ele>
        <time>2022-09-29T14:44:53Z</time>
      </trkpt>
      <trkpt lat="44.40228" lon="5.20399">
        <ele>372</ele>
        <time>2022-09-29T14:44:54Z</time>
      </trkpt>
      <trkpt lat="44.40228" lon="5.20398">
        <ele>372</ele>
        <time>2022-09-29T14:44:55Z</time>
      </trkpt>
      <trkpt lat="44.40228" lon="5.20397">
        <ele>372</ele>
        <time>2022-09-29T14:44:56Z</time>
      </trkpt>
      <trkpt lat="44.40229" lon="5.20396">
        <ele>372</ele>
        <time>2022-09-29T14:44:57Z</time>
      </trkpt>
      <trkpt lat="44.40229" lon="5.20395">
        <ele>372</ele>
        <time>2022-09-29T14:44:58Z</time>
      </trkpt>
      <trkpt lat="44.4023" lon="5.20393">
        <ele>371</ele>
        <time>2022-09-29T14:44:59Z</time>
      </trkpt>
      <trkpt lat="44.4023" lon="5.20392">
        <ele>371</ele>
        <time>2022-09-29T14:45:00Z</time>
      </trkpt>
      <trkpt lat="44.40231" lon="5.20391">
        <ele>371</ele>
        <time>2022-09-29T14:45:01Z</time>
      </trkpt>
      <trkpt lat="44.40231" lon="5.2039">
        <ele>371</ele>
        <time>2022-09-29T14:45:02Z</time>
      </trkpt>
      <trkpt lat="44.40232" lon="5.20389">
        <ele>371</ele>
        <time>2022-09-29T14:45:03Z</time>
      </trkpt>
      <trkpt lat="44.40232" lon="5.20388">
        <ele>370</ele>
        <time>2022-09-29T14:45:04Z</time>
      </trkpt>
      <trkpt lat="44.40232" lon="5.20387">
        <ele>370</ele>
        <time>2022-09-29T14:45:05Z</time>
      </trkpt>
      <trkpt lat="44.40232" lon="5.20386">
        <ele>370</ele>
        <time>2022-09-29T14:45:06Z</time>
      </trkpt>
      <trkpt lat="44.40232" lon="5.20384">
        <ele>370</ele>
        <time>2022-09-29T14:45:07Z</time>
      </trkpt>
      <trkpt lat="44.40232" lon="5.20383">
        <ele>370</ele>
        <time>2022-09-29T14:45:08Z</time>
      </trkpt>
      <trkpt lat="44.40231" lon="5.20382">
        <ele>369</ele>
        <time>2022-09-29T14:45:09Z</time>
      </trkpt>
      <trkpt lat="44.40231" lon="5.20381">
        <ele>369</ele>
        <time>2022-09-29T14:45:10Z</time>
      </trkpt>
      <trkpt lat="44.40231" lon="5.2038">
        <ele>369</ele>
        <time>2022-09-29T14:45:11Z</time>
      </trkpt>
      <trkpt lat="44.40231" lon="5.20379">
        <ele>369</ele>
        <time>2022-09-29T14:45:12Z</time>
      </trkpt>
      <trkpt lat="44.40231" lon="5.20378">
        <ele>369</ele>
        <time>2022-09-29T14:45:13Z</time>
      </trkpt>
      <trkpt lat="44.4023" lon="5.20377">
        <ele>368</ele>
        <time>2022-09-29T14:45:14Z</time>
      </trkpt>
      <trkpt lat="44.4023" lon="5.20377">
        <ele>368</ele>
        <time>2022-09-29T14:45:15Z</time>
      </trkpt>
      <trkpt lat="44.4023" lon="5.20376">
        <ele>368</ele>
        <time>2022-09-29T14:45:16Z</time>
      </trkpt>
      <trkpt lat="44.4023" lon="5.20375">
        <ele>368</ele>
        <time>2022-09-29T14:45:17Z</time>
      </trkpt>
      <trkpt lat="44.40229" lon="5.20374">
        <ele>368</ele>
        <time>2022-09-29T14:45:18Z</time>
      </trkpt>
      <trkpt lat="44.40229" lon="5.20374">
        <ele>367</ele>
        <time>2022-09-29T14:45:19Z</time>
      </trkpt>
      <trkpt lat="44.40229" lon="5.20374">
        <ele>367</ele>
        <time>2022-09-29T14:45:20Z</time>
      </trkpt>
      <trkpt lat="44.40229" lon="5.20373">
        <ele>367</ele>
        <time>2022-09-29T14:45:21Z</time>
      </trkpt>
      <trkpt lat="44.40229" lon="5.20373">
        <ele>367</ele>
        <time>2022-09-29T14:45:22Z</time>
      </trkpt>
      <trkpt lat="44.40229" lon="5.20373">
        <ele>367</ele>
        <time>2022-09-29T14:45:23Z</time>
      </trkpt>
      <trkpt lat="44.40228" lon="5.20372">
        <ele>366</ele>
        <time>2022-09-29T14:45:24Z</time>
      </trkpt>
      <trkpt lat="44.40228" lon="5.20371">
        <ele>366</ele>
        <time>2022-09-29T14:45:25Z</time>
      </trkpt>
      <trkpt lat="44.40227" lon="5.20371">
        <ele>366</ele>
        <time>2022-09-29T14:45:26Z</time>
      </trkpt>
      <trkpt lat="44.40227" lon="5.20371">
        <ele>366</ele>
        <time>2022-09-29T14:45:27Z</time>
      </trkpt>
      <trkpt lat="44.40227" lon="5.2037">
        <ele>366</ele>
        <time>2022-09-29T14:45:28Z</time>
      </trkpt>
      <trkpt lat="44.40226" lon="5.2037">
        <ele>365</ele>
        <time>2022-09-29T14:45:29Z</time>
      </trkpt>
      <trkpt lat="44.40226" lon="5.2037">
        <ele>365</ele>
        <time>2022-09-29T14:45:30Z</time>
      </trkpt>
      <trkpt lat="44.40225" lon="5.20369">
        <ele>365</ele>
        <time>2022-09-29T14:45:31Z</time>
      </trkpt>
      <trkpt lat="44.40225" lon="5.20369">
        <ele>365</ele>
        <time>2022-09-29T14:45:32Z</time>
      </trkpt>
      <trkpt lat="44.40224" lon="5.20368">
        <ele>365</ele>
        <time>2022-09-29T14:45:33Z</time>
      </trkpt>
      <trkpt lat="44.40224" lon="5.20367">
        <ele>364</ele>
        <time>2022-09-29T14:45:34Z</time>
      </trkpt>
      <trkpt lat="44.40223" lon="5.20366">
        <ele>364</ele>
        <time>2022-09-29T14:45:35Z</time>
      </trkpt>
      <trkpt lat="44.40223" lon="5.20366">
        <ele>364</ele>
        <time>2022-09-29T14:45:36Z</time>
      </trkpt>
      <trkpt lat="44.40222" lon="5.20365">
        <ele>364</ele>
        <time>2022-09-29T14:45:37Z</time>
      </trkpt>
      <trkpt lat="44.40222" lon="5.20364">
        <ele>364</ele>
        <time>2022-09-29T14:45:38Z</time>
      </trkpt>
      <trkpt lat="44.40221" lon="5.20363">
        <ele>363</ele>
        <time>2022-09-29T14:45:39Z</time>
      </trkpt>
      <trkpt lat="44.40221" lon="5.20362">
        <ele>363</ele>
        <time>2022-09-29T14:45:40Z</time>
      </trkpt>
      <trkpt lat="44.4022" lon="5.20361">
        <ele>363</ele>
        <time>2022-09-29T14:45:41Z</time>
      </trkpt>
      <trkpt lat="44.40219" lon="5.2036">
        <ele>363</ele>
        <time>2022-09-29T14:45:42Z</time>
      </trkpt>
      <trkpt lat="44.40219" lon="5.2036">
        <ele>363</ele>
        <time>2022-09-29T14:45:43Z</time>
      </trkpt>
      <trkpt lat="44.40218" lon="5.20359">
        <ele>363</ele>
        <time>2022-09-29T14:45:44Z</time>
      </trkpt>
      <trkpt lat="44.40218" lon="5.20358">
        <ele>363</ele>
        <time>2022-09-29T14:45:45Z</time>
      </trkpt>
      <trkpt lat="44.40217" lon="5.20358">
        <ele>363</ele>
        <time>2022-09-29T14:45:46Z</time>
      </trkpt>
      <trkpt lat="44.40217" lon="5.20357">
        <ele>363</ele>
        <time>2022-09-29T14:45:47Z</time>
      </trkpt>
      <trkpt lat="44.40216" lon="5.20357">
        <ele>363</ele>
        <time>2022-09-29T14:45:48Z</time>
      </trkpt>
      <trkpt lat="44.40216" lon="5.20356">
        <ele>362</ele>
        <time>2022-09-29T14:45:49Z</time>
      </trkpt>
      <trkpt lat="44.40215" lon="5.20355">
        <ele>361</ele>
        <time>2022-09-29T14:45:55Z</time>
      </trkpt>
      <trkpt lat="44.40214" lon="5.20355">
        <ele>361</ele>
        <time>2022-09-29T14:45:56Z</time>
      </trkpt>
      <trkpt lat="44.40214" lon="5.20355">
        <ele>361</ele>
        <time>2022-09-29T14:45:57Z</time>
      </trkpt>
      <trkpt lat="44.40213" lon="5.20355">
        <ele>361</ele>
        <time>2022-09-29T14:45:58Z</time>
      </trkpt>
      <trkpt lat="44.40212" lon="5.20355">
        <ele>361</ele>
        <time>2022-09-29T14:45:59Z</time>
      </trkpt>
      <trkpt lat="44.40212" lon="5.20355">
        <ele>361</ele>
        <time>2022-09-29T14:46:00Z</time>
      </trkpt>
      <trkpt lat="44.40211" lon="5.20355">
        <ele>361</ele>
        <time>2022-09-29T14:46:01Z</time>
      </trkpt>
      <trkpt lat="44.4021" lon="5.20355">
        <ele>361</ele>
        <time>2022-09-29T14:46:02Z</time>
      </trkpt>
      <trkpt lat="44.4021" lon="5.20355">
        <ele>361</ele>
        <time>2022-09-29T14:46:03Z</time>
      </trkpt>
      <trkpt lat="44.40209" lon="5.20355">
        <ele>360</ele>
        <time>2022-09-29T14:46:04Z</time>
      </trkpt>
      <trkpt lat="44.40209" lon="5.20354">
        <ele>360</ele>
        <time>2022-09-29T14:46:05Z</time>
      </trkpt>
      <trkpt lat="44.40208" lon="5.20354">
        <ele>360</ele>
        <time>2022-09-29T14:46:06Z</time>
      </trkpt>
      <trkpt lat="44.40207" lon="5.20354">
        <ele>360</ele>
        <time>2022-09-29T14:46:07Z</time>
      </trkpt>
      <trkpt lat="44.40207" lon="5.20354">
        <ele>360</ele>
        <time>2022-09-29T14:46:08Z</time>
      </trkpt>
      <trkpt lat="44.40207" lon="5.20353">
        <ele>360</ele>
        <time>2022-09-29T14:46:09Z</time>
      </trkpt>
      <trkpt lat="44.40206" lon="5.20352">
        <ele>360</ele>
        <time>2022-09-29T14:46:10Z</time>
      </trkpt>
      <trkpt lat="44.40206" lon="5.20351">
        <ele>360</ele>
        <time>2022-09-29T14:46:11Z</time>
      </trkpt>
      <trkpt lat="44.40206" lon="5.2035">
        <ele>360</ele>
        <time>2022-09-29T14:46:12Z</time>
      </trkpt>
      <trkpt lat="44.40207" lon="5.20349">
        <ele>360</ele>
        <time>2022-09-29T14:46:13Z</time>
      </trkpt>
      <trkpt lat="44.40207" lon="5.20348">
        <ele>359</ele>
        <time>2022-09-29T14:46:14Z</time>
      </trkpt>
      <trkpt lat="44.40207" lon="5.20347">
        <ele>359</ele>
        <time>2022-09-29T14:46:15Z</time>
      </trkpt>
      <trkpt lat="44.40207" lon="5.20346">
        <ele>359</ele>
        <time>2022-09-29T14:46:16Z</time>
      </trkpt>
      <trkpt lat="44.40208" lon="5.20346">
        <ele>359</ele>
        <time>2022-09-29T14:46:17Z</time>
      </trkpt>
      <trkpt lat="44.40208" lon="5.20345">
        <ele>359</ele>
        <time>2022-09-29T14:46:18Z</time>
      </trkpt>
      <trkpt lat="44.40209" lon="5.20344">
        <ele>359</ele>
        <time>2022-09-29T14:46:19Z</time>
      </trkpt>
      <trkpt lat="44.40209" lon="5.20343">
        <ele>359</ele>
        <time>2022-09-29T14:46:20Z</time>
      </trkpt>
      <trkpt lat="44.40209" lon="5.20342">
        <ele>359</ele>
        <time>2022-09-29T14:46:21Z</time>
      </trkpt>
      <trkpt lat="44.40211" lon="5.20341">
        <ele>359</ele>
        <time>2022-09-29T14:46:58Z</time>
      </trkpt>
      <trkpt lat="44.40211" lon="5.2034">
        <ele>358</ele>
        <time>2022-09-29T14:46:59Z</time>
      </trkpt>
      <trkpt lat="44.40212" lon="5.2034">
        <ele>358</ele>
        <time>2022-09-29T14:47:00Z</time>
      </trkpt>
      <trkpt lat="44.40213" lon="5.20338">
        <ele>357</ele>
        <time>2022-09-29T14:48:09Z</time>
      </trkpt>
      <trkpt lat="44.40214" lon="5.20338">
        <ele>357</ele>
        <time>2022-09-29T14:48:10Z</time>
      </trkpt>
      <trkpt lat="44.40214" lon="5.20337">
        <ele>357</ele>
        <time>2022-09-29T14:48:11Z</time>
      </trkpt>
      <trkpt lat="44.40215" lon="5.20336">
        <ele>357</ele>
        <time>2022-09-29T14:48:12Z</time>
      </trkpt>
      <trkpt lat="44.40215" lon="5.20336">
        <ele>357</ele>
        <time>2022-09-29T14:48:13Z</time>
      </trkpt>
      <trkpt lat="44.40216" lon="5.20335">
        <ele>357</ele>
        <time>2022-09-29T14:48:14Z</time>
      </trkpt>
      <trkpt lat="44.40216" lon="5.20335">
        <ele>357</ele>
        <time>2022-09-29T14:48:15Z</time>
      </trkpt>
      <trkpt lat="44.40217" lon="5.20335">
        <ele>357</ele>
        <time>2022-09-29T14:48:16Z</time>
      </trkpt>
      <trkpt lat="44.40218" lon="5.20334">
        <ele>357</ele>
        <time>2022-09-29T14:48:17Z</time>
      </trkpt>
      <trkpt lat="44.40218" lon="5.20334">
        <ele>357</ele>
        <time>2022-09-29T14:48:18Z</time>
      </trkpt>
      <trkpt lat="44.40219" lon="5.20333">
        <ele>357</ele>
        <time>2022-09-29T14:48:19Z</time>
      </trkpt>
      <trkpt lat="44.4022" lon="5.20333">
        <ele>357</ele>
        <time>2022-09-29T14:48:20Z</time>
      </trkpt>
      <trkpt lat="44.4022" lon="5.20333">
        <ele>357</ele>
        <time>2022-09-29T14:48:21Z</time>
      </trkpt>
      <trkpt lat="44.40221" lon="5.20332">
        <ele>357</ele>
        <time>2022-09-29T14:48:22Z</time>
      </trkpt>
      <trkpt lat="44.40222" lon="5.20332">
        <ele>357</ele>
        <time>2022-09-29T14:48:23Z</time>
      </trkpt>
      <trkpt lat="44.40222" lon="5.20331">
        <ele>356</ele>
        <time>2022-09-29T14:48:24Z</time>
      </trkpt>
      <trkpt lat="44.40223" lon="5.20331">
        <ele>356</ele>
        <time>2022-09-29T14:48:25Z</time>
      </trkpt>
      <trkpt lat="44.40224" lon="5.2033">
        <ele>356</ele>
        <time>2022-09-29T14:48:26Z</time>
      </trkpt>
      <trkpt lat="44.40225" lon="5.2033">
        <ele>356</ele>
        <time>2022-09-29T14:48:27Z</time>
      </trkpt>
      <trkpt lat="44.40226" lon="5.2033">
        <ele>356</ele>
        <time>2022-09-29T14:48:28Z</time>
      </trkpt>
      <trkpt lat="44.40226" lon="5.20329">
        <ele>356</ele>
        <time>2022-09-29T14:48:29Z</time>
      </trkpt>
      <trkpt lat="44.40227" lon="5.20329">
        <ele>356</ele>
        <time>2022-09-29T14:48:30Z</time>
      </trkpt>
      <trkpt lat="44.40228" lon="5.20329">
        <ele>356</ele>
        <time>2022-09-29T14:48:31Z</time>
      </trkpt>
      <trkpt lat="44.40229" lon="5.20328">
        <ele>356</ele>
        <time>2022-09-29T14:48:32Z</time>
      </trkpt>
      <trkpt lat="44.40229" lon="5.20327">
        <ele>356</ele>
        <time>2022-09-29T14:48:33Z</time>
      </trkpt>
      <trkpt lat="44.4023" lon="5.20326">
        <ele>355</ele>
        <time>2022-09-29T14:48:34Z</time>
      </trkpt>
      <trkpt lat="44.40231" lon="5.20325">
        <ele>355</ele>
        <time>2022-09-29T14:48:35Z</time>
      </trkpt>
      <trkpt lat="44.40232" lon="5.20325">
        <ele>355</ele>
        <time>2022-09-29T14:48:36Z</time>
      </trkpt>
      <trkpt lat="44.40232" lon="5.20323">
        <ele>355</ele>
        <time>2022-09-29T14:48:37Z</time>
      </trkpt>
      <trkpt lat="44.40233" lon="5.20322">
        <ele>355</ele>
        <time>2022-09-29T14:48:38Z</time>
      </trkpt>
      <trkpt lat="44.40233" lon="5.20321">
        <ele>355</ele>
        <time>2022-09-29T14:48:39Z</time>
      </trkpt>
      <trkpt lat="44.40234" lon="5.2032">
        <ele>355</ele>
        <time>2022-09-29T14:48:40Z</time>
      </trkpt>
      <trkpt lat="44.40235" lon="5.20319">
        <ele>355</ele>
        <time>2022-09-29T14:48:41Z</time>
      </trkpt>
      <trkpt lat="44.40235" lon="5.20318">
        <ele>355</ele>
        <time>2022-09-29T14:48:42Z</time>
      </trkpt>
      <trkpt lat="44.40236" lon="5.20317">
        <ele>355</ele>
        <time>2022-09-29T14:48:43Z</time>
      </trkpt>
      <trkpt lat="44.40236" lon="5.20315">
        <ele>354</ele>
        <time>2022-09-29T14:48:44Z</time>
      </trkpt>
      <trkpt lat="44.40237" lon="5.20314">
        <ele>354</ele>
        <time>2022-09-29T14:48:45Z</time>
      </trkpt>
      <trkpt lat="44.40237" lon="5.20313">
        <ele>354</ele>
        <time>2022-09-29T14:48:46Z</time>
      </trkpt>
      <trkpt lat="44.40238" lon="5.20311">
        <ele>354</ele>
        <time>2022-09-29T14:48:47Z</time>
      </trkpt>
      <trkpt lat="44.40238" lon="5.2031">
        <ele>354</ele>
        <time>2022-09-29T14:48:48Z</time>
      </trkpt>
      <trkpt lat="44.40239" lon="5.20309">
        <ele>353</ele>
        <time>2022-09-29T14:48:49Z</time>
      </trkpt>
      <trkpt lat="44.40239" lon="5.20307">
        <ele>353</ele>
        <time>2022-09-29T14:48:50Z</time>
      </trkpt>
      <trkpt lat="44.40239" lon="5.20306">
        <ele>353</ele>
        <time>2022-09-29T14:48:51Z</time>
      </trkpt>
      <trkpt lat="44.4024" lon="5.20304">
        <ele>353</ele>
        <time>2022-09-29T14:48:52Z</time>
      </trkpt>
      <trkpt lat="44.4024" lon="5.20303">
        <ele>353</ele>
        <time>2022-09-29T14:48:53Z</time>
      </trkpt>
      <trkpt lat="44.4024" lon="5.20301">
        <ele>353</ele>
        <time>2022-09-29T14:48:54Z</time>
      </trkpt>
      <trkpt lat="44.4024" lon="5.203">
        <ele>353</ele>
        <time>2022-09-29T14:48:55Z</time>
      </trkpt>
      <trkpt lat="44.40241" lon="5.20298">
        <ele>353</ele>
        <time>2022-09-29T14:48:56Z</time>
      </trkpt>
      <trkpt lat="44.40241" lon="5.20297">
        <ele>353</ele>
        <time>2022-09-29T14:48:57Z</time>
      </trkpt>
      <trkpt lat="44.40241" lon="5.20295">
        <ele>353</ele>
        <time>2022-09-29T14:48:58Z</time>
      </trkpt>
      <trkpt lat="44.40241" lon="5.20294">
        <ele>353</ele>
        <time>2022-09-29T14:48:59Z</time>
      </trkpt>
      <trkpt lat="44.40241" lon="5.20292">
        <ele>353</ele>
        <time>2022-09-29T14:49:00Z</time>
      </trkpt>
      <trkpt lat="44.40241" lon="5.2029">
        <ele>353</ele>
        <time>2022-09-29T14:49:01Z</time>
      </trkpt>
      <trkpt lat="44.40241" lon="5.20289">
        <ele>353</ele>
        <time>2022-09-29T14:49:02Z</time>
      </trkpt>
      <trkpt lat="44.40241" lon="5.20287">
        <ele>353</ele>
        <time>2022-09-29T14:49:03Z</time>
      </trkpt>
      <trkpt lat="44.40241" lon="5.20286">
        <ele>352</ele>
        <time>2022-09-29T14:49:04Z</time>
      </trkpt>
      <trkpt lat="44.40241" lon="5.20284">
        <ele>352</ele>
        <time>2022-09-29T14:49:05Z</time>
      </trkpt>
      <trkpt lat="44.40241" lon="5.20283">
        <ele>352</ele>
        <time>2022-09-29T14:49:06Z</time>
      </trkpt>
      <trkpt lat="44.40241" lon="5.20281">
        <ele>352</ele>
        <time>2022-09-29T14:49:07Z</time>
      </trkpt>
      <trkpt lat="44.40241" lon="5.2028">
        <ele>352</ele>
        <time>2022-09-29T14:49:08Z</time>
      </trkpt>
      <trkpt lat="44.40241" lon="5.20278">
        <ele>352</ele>
        <time>2022-09-29T14:49:09Z</time>
      </trkpt>
      <trkpt lat="44.40241" lon="5.20276">
        <ele>352</ele>
        <time>2022-09-29T14:49:10Z</time>
      </trkpt>
      <trkpt lat="44.40242" lon="5.20275">
        <ele>352</ele>
        <time>2022-09-29T14:49:11Z</time>
      </trkpt>
      <trkpt lat="44.40242" lon="5.20273">
        <ele>352</ele>
        <time>2022-09-29T14:49:12Z</time>
      </trkpt>
      <trkpt lat="44.40242" lon="5.20272">
        <ele>352</ele>
        <time>2022-09-29T14:49:13Z</time>
      </trkpt>
      <trkpt lat="44.40242" lon="5.2027">
        <ele>352</ele>
        <time>2022-09-29T14:49:14Z</time>
      </trkpt>
      <trkpt lat="44.40242" lon="5.20268">
        <ele>352</ele>
        <time>2022-09-29T14:49:15Z</time>
      </trkpt>
      <trkpt lat="44.40242" lon="5.20267">
        <ele>352</ele>
        <time>2022-09-29T14:49:16Z</time>
      </trkpt>
      <trkpt lat="44.40242" lon="5.20265">
        <ele>352</ele>
        <time>2022-09-29T14:49:17Z</time>
      </trkpt>
      <trkpt lat="44.40243" lon="5.20264">
        <ele>352</ele>
        <time>2022-09-29T14:49:18Z</time>
      </trkpt>
      <trkpt lat="44.40243" lon="5.20262">
        <ele>352</ele>
        <time>2022-09-29T14:49:19Z</time>
      </trkpt>
      <trkpt lat="44.40243" lon="5.2026">
        <ele>352</ele>
        <time>2022-09-29T14:49:20Z</time>
      </trkpt>
      <trkpt lat="44.40243" lon="5.20258">
        <ele>352</ele>
        <time>2022-09-29T14:49:21Z</time>
      </trkpt>
      <trkpt lat="44.40243" lon="5.20257">
        <ele>352</ele>
        <time>2022-09-29T14:49:22Z</time>
      </trkpt>
      <trkpt lat="44.40243" lon="5.20255">
        <ele>352</ele>
        <time>2022-09-29T14:49:23Z</time>
      </trkpt>
      <trkpt lat="44.40244" lon="5.20254">
        <ele>351</ele>
        <time>2022-09-29T14:49:24Z</time>
      </trkpt>
      <trkpt lat="44.40244" lon="5.20252">
        <ele>351</ele>
        <time>2022-09-29T14:49:25Z</time>
      </trkpt>
      <trkpt lat="44.40244" lon="5.20251">
        <ele>351</ele>
        <time>2022-09-29T14:49:26Z</time>
      </trkpt>
      <trkpt lat="44.40244" lon="5.20249">
        <ele>351</ele>
        <time>2022-09-29T14:49:27Z</time>
      </trkpt>
      <trkpt lat="44.40245" lon="5.20248">
        <ele>351</ele>
        <time>2022-09-29T14:49:28Z</time>
      </trkpt>
      <trkpt lat="44.40245" lon="5.20247">
        <ele>351</ele>
        <time>2022-09-29T14:49:29Z</time>
      </trkpt>
      <trkpt lat="44.40245" lon="5.20245">
        <ele>351</ele>
        <time>2022-09-29T14:49:30Z</time>
      </trkpt>
      <trkpt lat="44.40245" lon="5.20244">
        <ele>351</ele>
        <time>2022-09-29T14:49:31Z</time>
      </trkpt>
      <trkpt lat="44.40246" lon="5.20243">
        <ele>351</ele>
        <time>2022-09-29T14:49:32Z</time>
      </trkpt>
      <trkpt lat="44.40246" lon="5.20242">
        <ele>351</ele>
        <time>2022-09-29T14:49:33Z</time>
      </trkpt>
      <trkpt lat="44.40247" lon="5.20241">
        <ele>351</ele>
        <time>2022-09-29T14:49:34Z</time>
      </trkpt>
      <trkpt lat="44.40247" lon="5.20239">
        <ele>351</ele>
        <time>2022-09-29T14:49:35Z</time>
      </trkpt>
      <trkpt lat="44.40248" lon="5.20238">
        <ele>351</ele>
        <time>2022-09-29T14:49:36Z</time>
      </trkpt>
      <trkpt lat="44.40249" lon="5.20237">
        <ele>351</ele>
        <time>2022-09-29T14:49:37Z</time>
      </trkpt>
      <trkpt lat="44.4025" lon="5.20236">
        <ele>351</ele>
        <time>2022-09-29T14:49:38Z</time>
      </trkpt>
      <trkpt lat="44.40251" lon="5.20235">
        <ele>351</ele>
        <time>2022-09-29T14:49:39Z</time>
      </trkpt>
      <trkpt lat="44.40252" lon="5.20234">
        <ele>351</ele>
        <time>2022-09-29T14:49:40Z</time>
      </trkpt>
      <trkpt lat="44.40253" lon="5.20233">
        <ele>351</ele>
        <time>2022-09-29T14:49:41Z</time>
      </trkpt>
      <trkpt lat="44.40254" lon="5.20232">
        <ele>351</ele>
        <time>2022-09-29T14:49:42Z</time>
      </trkpt>
      <trkpt lat="44.40255" lon="5.20231">
        <ele>351</ele>
        <time>2022-09-29T14:49:43Z</time>
      </trkpt>
      <trkpt lat="44.40256" lon="5.20231">
        <ele>351</ele>
        <time>2022-09-29T14:49:44Z</time>
      </trkpt>
      <trkpt lat="44.40257" lon="5.2023">
        <ele>351</ele>
        <time>2022-09-29T14:49:45Z</time>
      </trkpt>
      <trkpt lat="44.40258" lon="5.2023">
        <ele>351</ele>
        <time>2022-09-29T14:49:46Z</time>
      </trkpt>
      <trkpt lat="44.40259" lon="5.20229">
        <ele>351</ele>
        <time>2022-09-29T14:49:47Z</time>
      </trkpt>
      <trkpt lat="44.4026" lon="5.20229">
        <ele>351</ele>
        <time>2022-09-29T14:49:48Z</time>
      </trkpt>
      <trkpt lat="44.40261" lon="5.20228">
        <ele>351</ele>
        <time>2022-09-29T14:49:49Z</time>
      </trkpt>
      <trkpt lat="44.40262" lon="5.20228">
        <ele>351</ele>
        <time>2022-09-29T14:49:50Z</time>
      </trkpt>
      <trkpt lat="44.40263" lon="5.20227">
        <ele>351</ele>
        <time>2022-09-29T14:49:51Z</time>
      </trkpt>
      <trkpt lat="44.40264" lon="5.20227">
        <ele>351</ele>
        <time>2022-09-29T14:49:52Z</time>
      </trkpt>
      <trkpt lat="44.40264" lon="5.20226">
        <ele>351</ele>
        <time>2022-09-29T14:49:53Z</time>
      </trkpt>
      <trkpt lat="44.40265" lon="5.20226">
        <ele>351</ele>
        <time>2022-09-29T14:49:54Z</time>
      </trkpt>
      <trkpt lat="44.40266" lon="5.20226">
        <ele>351</ele>
        <time>2022-09-29T14:49:55Z</time>
      </trkpt>
      <trkpt lat="44.40266" lon="5.20226">
        <ele>351</ele>
        <time>2022-09-29T14:49:56Z</time>
      </trkpt>
      <trkpt lat="44.40267" lon="5.20225">
        <ele>351</ele>
        <time>2022-09-29T14:49:57Z</time>
      </trkpt>
      <trkpt lat="44.40268" lon="5.20225">
        <ele>351</ele>
        <time>2022-09-29T14:49:58Z</time>
      </trkpt>
      <trkpt lat="44.40268" lon="5.20225">
        <ele>351</ele>
        <time>2022-09-29T14:49:59Z</time>
      </trkpt>
      <trkpt lat="44.40269" lon="5.20225">
        <ele>351</ele>
        <time>2022-09-29T14:50:00Z</time>
      </trkpt>
      <trkpt lat="44.40269" lon="5.20225">
        <ele>351</ele>
        <time>2022-09-29T14:50:01Z</time>
      </trkpt>
      <trkpt lat="44.4027" lon="5.20225">
        <ele>351</ele>
        <time>2022-09-29T14:50:02Z</time>
      </trkpt>
      <trkpt lat="44.4027" lon="5.20225">
        <ele>351</ele>
        <time>2022-09-29T14:50:03Z</time>
      </trkpt>
      <trkpt lat="44.40271" lon="5.20224">
        <ele>351</ele>
        <time>2022-09-29T14:50:04Z</time>
      </trkpt>
      <trkpt lat="44.40272" lon="5.20224">
        <ele>351</ele>
        <time>2022-09-29T14:50:05Z</time>
      </trkpt>
      <trkpt lat="44.40273" lon="5.20223">
        <ele>351</ele>
        <time>2022-09-29T14:50:06Z</time>
      </trkpt>
      <trkpt lat="44.40274" lon="5.20222">
        <ele>351</ele>
        <time>2022-09-29T14:50:07Z</time>
      </trkpt>
      <trkpt lat="44.40275" lon="5.20222">
        <ele>351</ele>
        <time>2022-09-29T14:50:08Z</time>
      </trkpt>
      <trkpt lat="44.40276" lon="5.20221">
        <ele>351</ele>
        <time>2022-09-29T14:50:09Z</time>
      </trkpt>
      <trkpt lat="44.40277" lon="5.20221">
        <ele>351</ele>
        <time>2022-09-29T14:50:10Z</time>
      </trkpt>
      <trkpt lat="44.40278" lon="5.2022">
        <ele>351</ele>
        <time>2022-09-29T14:50:11Z</time>
      </trkpt>
      <trkpt lat="44.40278" lon="5.20219">
        <ele>351</ele>
        <time>2022-09-29T14:50:12Z</time>
      </trkpt>
      <trkpt lat="44.40279" lon="5.20219">
        <ele>351</ele>
        <time>2022-09-29T14:50:13Z</time>
      </trkpt>
      <trkpt lat="44.4028" lon="5.20218">
        <ele>351</ele>
        <time>2022-09-29T14:50:14Z</time>
      </trkpt>
      <trkpt lat="44.40281" lon="5.20218">
        <ele>351</ele>
        <time>2022-09-29T14:50:15Z</time>
      </trkpt>
      <trkpt lat="44.40282" lon="5.20217">
        <ele>351</ele>
        <time>2022-09-29T14:50:16Z</time>
      </trkpt>
      <trkpt lat="44.40284" lon="5.20216">
        <ele>351</ele>
        <time>2022-09-29T14:50:17Z</time>
      </trkpt>
      <trkpt lat="44.40285" lon="5.20215">
        <ele>351</ele>
        <time>2022-09-29T14:50:18Z</time>
      </trkpt>
      <trkpt lat="44.40286" lon="5.20215">
        <ele>351</ele>
        <time>2022-09-29T14:50:19Z</time>
      </trkpt>
      <trkpt lat="44.40287" lon="5.20214">
        <ele>351</ele>
        <time>2022-09-29T14:50:20Z</time>
      </trkpt>
      <trkpt lat="44.40288" lon="5.20214">
        <ele>351</ele>
        <time>2022-09-29T14:50:21Z</time>
      </trkpt>
      <trkpt lat="44.40289" lon="5.20213">
        <ele>351</ele>
        <time>2022-09-29T14:50:22Z</time>
      </trkpt>
      <trkpt lat="44.4029" lon="5.20212">
        <ele>351</ele>
        <time>2022-09-29T14:50:23Z</time>
      </trkpt>
      <trkpt lat="44.40291" lon="5.20212">
        <ele>351</ele>
        <time>2022-09-29T14:50:24Z</time>
      </trkpt>
      <trkpt lat="44.40292" lon="5.20211">
        <ele>351</ele>
        <time>2022-09-29T14:50:25Z</time>
      </trkpt>
      <trkpt lat="44.40294" lon="5.2021">
        <ele>351</ele>
        <time>2022-09-29T14:50:26Z</time>
      </trkpt>
      <trkpt lat="44.40295" lon="5.2021">
        <ele>351</ele>
        <time>2022-09-29T14:50:27Z</time>
      </trkpt>
      <trkpt lat="44.40296" lon="5.20209">
        <ele>351</ele>
        <time>2022-09-29T14:50:28Z</time>
      </trkpt>
      <trkpt lat="44.40297" lon="5.20208">
        <ele>351</ele>
        <time>2022-09-29T14:50:29Z</time>
      </trkpt>
      <trkpt lat="44.40298" lon="5.20207">
        <ele>351</ele>
        <time>2022-09-29T14:50:30Z</time>
      </trkpt>
      <trkpt lat="44.40299" lon="5.20206">
        <ele>351</ele>
        <time>2022-09-29T14:50:31Z</time>
      </trkpt>
      <trkpt lat="44.403" lon="5.20206">
        <ele>351</ele>
        <time>2022-09-29T14:50:32Z</time>
      </trkpt>
      <trkpt lat="44.40301" lon="5.20205">
        <ele>351</ele>
        <time>2022-09-29T14:50:33Z</time>
      </trkpt>
      <trkpt lat="44.40302" lon="5.20205">
        <ele>351</ele>
        <time>2022-09-29T14:50:34Z</time>
      </trkpt>
      <trkpt lat="44.40302" lon="5.20205">
        <ele>351</ele>
        <time>2022-09-29T14:50:35Z</time>
      </trkpt>
      <trkpt lat="44.40303" lon="5.20204">
        <ele>351</ele>
        <time>2022-09-29T14:50:36Z</time>
      </trkpt>
      <trkpt lat="44.40304" lon="5.20204">
        <ele>351</ele>
        <time>2022-09-29T14:50:37Z</time>
      </trkpt>
      <trkpt lat="44.40305" lon="5.20204">
        <ele>351</ele>
        <time>2022-09-29T14:50:38Z</time>
      </trkpt>
      <trkpt lat="44.40305" lon="5.20204">
        <ele>351</ele>
        <time>2022-09-29T14:50:39Z</time>
      </trkpt>
      <trkpt lat="44.40306" lon="5.20203">
        <ele>351</ele>
        <time>2022-09-29T14:50:40Z</time>
      </trkpt>
      <trkpt lat="44.40307" lon="5.20203">
        <ele>351</ele>
        <time>2022-09-29T14:50:41Z</time>
      </trkpt>
      <trkpt lat="44.40308" lon="5.20203">
        <ele>351</ele>
        <time>2022-09-29T14:50:42Z</time>
      </trkpt>
      <trkpt lat="44.4031" lon="5.20203">
        <ele>351</ele>
        <time>2022-09-29T14:50:43Z</time>
      </trkpt>
      <trkpt lat="44.40311" lon="5.20203">
        <ele>351</ele>
        <time>2022-09-29T14:50:44Z</time>
      </trkpt>
      <trkpt lat="44.40312" lon="5.20203">
        <ele>351</ele>
        <time>2022-09-29T14:50:45Z</time>
      </trkpt>
      <trkpt lat="44.40313" lon="5.20204">
        <ele>351</ele>
        <time>2022-09-29T14:50:46Z</time>
      </trkpt>
      <trkpt lat="44.40314" lon="5.20204">
        <ele>351</ele>
        <time>2022-09-29T14:50:47Z</time>
      </trkpt>
      <trkpt lat="44.40315" lon="5.20204">
        <ele>351</ele>
        <time>2022-09-29T14:50:48Z</time>
      </trkpt>
      <trkpt lat="44.40316" lon="5.20205">
        <ele>351</ele>
        <time>2022-09-29T14:50:49Z</time>
      </trkpt>
      <trkpt lat="44.40317" lon="5.20206">
        <ele>351</ele>
        <time>2022-09-29T14:50:50Z</time>
      </trkpt>
      <trkpt lat="44.40318" lon="5.20206">
        <ele>351</ele>
        <time>2022-09-29T14:50:51Z</time>
      </trkpt>
      <trkpt lat="44.40319" lon="5.20207">
        <ele>351</ele>
        <time>2022-09-29T14:50:52Z</time>
      </trkpt>
      <trkpt lat="44.40321" lon="5.20207">
        <ele>351</ele>
        <time>2022-09-29T14:50:53Z</time>
      </trkpt>
      <trkpt lat="44.40322" lon="5.20208">
        <ele>351</ele>
        <time>2022-09-29T14:50:54Z</time>
      </trkpt>
      <trkpt lat="44.40323" lon="5.20209">
        <ele>351</ele>
        <time>2022-09-29T14:50:55Z</time>
      </trkpt>
      <trkpt lat="44.40323" lon="5.20209">
        <ele>351</ele>
        <time>2022-09-29T14:50:56Z</time>
      </trkpt>
      <trkpt lat="44.40324" lon="5.2021">
        <ele>351</ele>
        <time>2022-09-29T14:50:57Z</time>
      </trkpt>
      <trkpt lat="44.40325" lon="5.20211">
        <ele>351</ele>
        <time>2022-09-29T14:50:58Z</time>
      </trkpt>
      <trkpt lat="44.40325" lon="5.20211">
        <ele>351</ele>
        <time>2022-09-29T14:50:59Z</time>
      </trkpt>
      <trkpt lat="44.40325" lon="5.20212">
        <ele>351</ele>
        <time>2022-09-29T14:51:00Z</time>
      </trkpt>
      <trkpt lat="44.40326" lon="5.20212">
        <ele>351</ele>
        <time>2022-09-29T14:51:01Z</time>
      </trkpt>
      <trkpt lat="44.40326" lon="5.20213">
        <ele>351</ele>
        <time>2022-09-29T14:51:02Z</time>
      </trkpt>
      <trkpt lat="44.40327" lon="5.20213">
        <ele>352</ele>
        <time>2022-09-29T14:51:03Z</time>
      </trkpt>
      <trkpt lat="44.40327" lon="5.20214">
        <ele>352</ele>
        <time>2022-09-29T14:51:04Z</time>
      </trkpt>
      <trkpt lat="44.40328" lon="5.20215">
        <ele>352</ele>
        <time>2022-09-29T14:51:05Z</time>
      </trkpt>
      <trkpt lat="44.40329" lon="5.20215">
        <ele>352</ele>
        <time>2022-09-29T14:51:06Z</time>
      </trkpt>
      <trkpt lat="44.40329" lon="5.20216">
        <ele>352</ele>
        <time>2022-09-29T14:51:07Z</time>
      </trkpt>
      <trkpt lat="44.4033" lon="5.20217">
        <ele>352</ele>
        <time>2022-09-29T14:51:08Z</time>
      </trkpt>
      <trkpt lat="44.40331" lon="5.20218">
        <ele>352</ele>
        <time>2022-09-29T14:51:09Z</time>
      </trkpt>
      <trkpt lat="44.40332" lon="5.20219">
        <ele>352</ele>
        <time>2022-09-29T14:51:10Z</time>
      </trkpt>
      <trkpt lat="44.40333" lon="5.2022">
        <ele>352</ele>
        <time>2022-09-29T14:51:11Z</time>
      </trkpt>
      <trkpt lat="44.40334" lon="5.20221">
        <ele>352</ele>
        <time>2022-09-29T14:51:12Z</time>
      </trkpt>
      <trkpt lat="44.40335" lon="5.20222">
        <ele>352</ele>
        <time>2022-09-29T14:51:13Z</time>
      </trkpt>
      <trkpt lat="44.40336" lon="5.20223">
        <ele>352</ele>
        <time>2022-09-29T14:51:14Z</time>
      </trkpt>
      <trkpt lat="44.40337" lon="5.20224">
        <ele>352</ele>
        <time>2022-09-29T14:51:15Z</time>
      </trkpt>
      <trkpt lat="44.40338" lon="5.20225">
        <ele>352</ele>
        <time>2022-09-29T14:51:16Z</time>
      </trkpt>
      <trkpt lat="44.40339" lon="5.20226">
        <ele>352</ele>
        <time>2022-09-29T14:51:17Z</time>
      </trkpt>
      <trkpt lat="44.40339" lon="5.20226">
        <ele>352</ele>
        <time>2022-09-29T14:51:18Z</time>
      </trkpt>
      <trkpt lat="44.4034" lon="5.20227">
        <ele>352</ele>
        <time>2022-09-29T14:51:19Z</time>
      </trkpt>
      <trkpt lat="44.40341" lon="5.20228">
        <ele>352</ele>
        <time>2022-09-29T14:51:20Z</time>
      </trkpt>
      <trkpt lat="44.40341" lon="5.20229">
        <ele>352</ele>
        <time>2022-09-29T14:51:21Z</time>
      </trkpt>
      <trkpt lat="44.40342" lon="5.2023">
        <ele>352</ele>
        <time>2022-09-29T14:51:22Z</time>
      </trkpt>
      <trkpt lat="44.40343" lon="5.20231">
        <ele>352</ele>
        <time>2022-09-29T14:51:23Z</time>
      </trkpt>
      <trkpt lat="44.40344" lon="5.20231">
        <ele>351</ele>
        <time>2022-09-29T14:51:24Z</time>
      </trkpt>
      <trkpt lat="44.40345" lon="5.20232">
        <ele>351</ele>
        <time>2022-09-29T14:51:25Z</time>
      </trkpt>
      <trkpt lat="44.40345" lon="5.20233">
        <ele>351</ele>
        <time>2022-09-29T14:51:26Z</time>
      </trkpt>
      <trkpt lat="44.40346" lon="5.20234">
        <ele>351</ele>
        <time>2022-09-29T14:51:27Z</time>
      </trkpt>
      <trkpt lat="44.40347" lon="5.20235">
        <ele>351</ele>
        <time>2022-09-29T14:51:28Z</time>
      </trkpt>
      <trkpt lat="44.40348" lon="5.20236">
        <ele>351</ele>
        <time>2022-09-29T14:51:29Z</time>
      </trkpt>
      <trkpt lat="44.40349" lon="5.20237">
        <ele>351</ele>
        <time>2022-09-29T14:51:30Z</time>
      </trkpt>
      <trkpt lat="44.4035" lon="5.20238">
        <ele>351</ele>
        <time>2022-09-29T14:51:31Z</time>
      </trkpt>
      <trkpt lat="44.40351" lon="5.20238">
        <ele>351</ele>
        <time>2022-09-29T14:51:32Z</time>
      </trkpt>
      <trkpt lat="44.40352" lon="5.20239">
        <ele>351</ele>
        <time>2022-09-29T14:51:33Z</time>
      </trkpt>
      <trkpt lat="44.40353" lon="5.2024">
        <ele>351</ele>
        <time>2022-09-29T14:51:34Z</time>
      </trkpt>
      <trkpt lat="44.40354" lon="5.2024">
        <ele>351</ele>
        <time>2022-09-29T14:51:35Z</time>
      </trkpt>
      <trkpt lat="44.40355" lon="5.2024">
        <ele>351</ele>
        <time>2022-09-29T14:51:36Z</time>
      </trkpt>
      <trkpt lat="44.40356" lon="5.20241">
        <ele>351</ele>
        <time>2022-09-29T14:51:37Z</time>
      </trkpt>
      <trkpt lat="44.40357" lon="5.2024">
        <ele>351</ele>
        <time>2022-09-29T14:51:38Z</time>
      </trkpt>
      <trkpt lat="44.40358" lon="5.2024">
        <ele>351</ele>
        <time>2022-09-29T14:51:39Z</time>
      </trkpt>
      <trkpt lat="44.40359" lon="5.20239">
        <ele>351</ele>
        <time>2022-09-29T14:51:40Z</time>
      </trkpt>
      <trkpt lat="44.4036" lon="5.20238">
        <ele>351</ele>
        <time>2022-09-29T14:51:41Z</time>
      </trkpt>
      <trkpt lat="44.4036" lon="5.20238">
        <ele>351</ele>
        <time>2022-09-29T14:51:42Z</time>
      </trkpt>
      <trkpt lat="44.40361" lon="5.20237">
        <ele>351</ele>
        <time>2022-09-29T14:51:43Z</time>
      </trkpt>
      <trkpt lat="44.40362" lon="5.20236">
        <ele>350</ele>
        <time>2022-09-29T14:51:44Z</time>
      </trkpt>
      <trkpt lat="44.40363" lon="5.20235">
        <ele>350</ele>
        <time>2022-09-29T14:51:45Z</time>
      </trkpt>
      <trkpt lat="44.40364" lon="5.20234">
        <ele>350</ele>
        <time>2022-09-29T14:51:46Z</time>
      </trkpt>
      <trkpt lat="44.40364" lon="5.20233">
        <ele>350</ele>
        <time>2022-09-29T14:51:47Z</time>
      </trkpt>
      <trkpt lat="44.40365" lon="5.20232">
        <ele>350</ele>
        <time>2022-09-29T14:51:48Z</time>
      </trkpt>
      <trkpt lat="44.40366" lon="5.20231">
        <ele>350</ele>
        <time>2022-09-29T14:51:49Z</time>
      </trkpt>
      <trkpt lat="44.40367" lon="5.2023">
        <ele>350</ele>
        <time>2022-09-29T14:52:15Z</time>
      </trkpt>
      <trkpt lat="44.40368" lon="5.2023">
        <ele>350</ele>
        <time>2022-09-29T14:52:16Z</time>
      </trkpt>
      <trkpt lat="44.40368" lon="5.20229">
        <ele>350</ele>
        <time>2022-09-29T14:52:17Z</time>
      </trkpt>
      <trkpt lat="44.40369" lon="5.20228">
        <ele>350</ele>
        <time>2022-09-29T14:52:18Z</time>
      </trkpt>
      <trkpt lat="44.40369" lon="5.20228">
        <ele>350</ele>
        <time>2022-09-29T14:52:19Z</time>
      </trkpt>
      <trkpt lat="44.4037" lon="5.20227">
        <ele>350</ele>
        <time>2022-09-29T14:52:20Z</time>
      </trkpt>
      <trkpt lat="44.4037" lon="5.20226">
        <ele>350</ele>
        <time>2022-09-29T14:52:21Z</time>
      </trkpt>
      <trkpt lat="44.40371" lon="5.20225">
        <ele>350</ele>
        <time>2022-09-29T14:52:22Z</time>
      </trkpt>
      <trkpt lat="44.40372" lon="5.20224">
        <ele>350</ele>
        <time>2022-09-29T14:52:23Z</time>
      </trkpt>
      <trkpt lat="44.40373" lon="5.20222">
        <ele>350</ele>
        <time>2022-09-29T14:52:24Z</time>
      </trkpt>
      <trkpt lat="44.40373" lon="5.20221">
        <ele>350</ele>
        <time>2022-09-29T14:52:25Z</time>
      </trkpt>
      <trkpt lat="44.40374" lon="5.2022">
        <ele>350</ele>
        <time>2022-09-29T14:52:26Z</time>
      </trkpt>
      <trkpt lat="44.40375" lon="5.20219">
        <ele>350</ele>
        <time>2022-09-29T14:52:27Z</time>
      </trkpt>
      <trkpt lat="44.40375" lon="5.20218">
        <ele>350</ele>
        <time>2022-09-29T14:52:28Z</time>
      </trkpt>
      <trkpt lat="44.40376" lon="5.20218">
        <ele>350</ele>
        <time>2022-09-29T14:52:29Z</time>
      </trkpt>
      <trkpt lat="44.40377" lon="5.20217">
        <ele>350</ele>
        <time>2022-09-29T14:52:30Z</time>
      </trkpt>
      <trkpt lat="44.40377" lon="5.20215">
        <ele>350</ele>
        <time>2022-09-29T14:52:31Z</time>
      </trkpt>
      <trkpt lat="44.40378" lon="5.20214">
        <ele>350</ele>
        <time>2022-09-29T14:52:32Z</time>
      </trkpt>
      <trkpt lat="44.40378" lon="5.20213">
        <ele>350</ele>
        <time>2022-09-29T14:52:33Z</time>
      </trkpt>
      <trkpt lat="44.40379" lon="5.20212">
        <ele>350</ele>
        <time>2022-09-29T14:52:34Z</time>
      </trkpt>
      <trkpt lat="44.40379" lon="5.20211">
        <ele>350</ele>
        <time>2022-09-29T14:52:35Z</time>
      </trkpt>
      <trkpt lat="44.40379" lon="5.2021">
        <ele>350</ele>
        <time>2022-09-29T14:52:36Z</time>
      </trkpt>
      <trkpt lat="44.4038" lon="5.2021">
        <ele>350</ele>
        <time>2022-09-29T14:52:37Z</time>
      </trkpt>
      <trkpt lat="44.4038" lon="5.20209">
        <ele>350</ele>
        <time>2022-09-29T14:52:38Z</time>
      </trkpt>
      <trkpt lat="44.40381" lon="5.20208">
        <ele>350</ele>
        <time>2022-09-29T14:52:39Z</time>
      </trkpt>
      <trkpt lat="44.40381" lon="5.20208">
        <ele>350</ele>
        <time>2022-09-29T14:52:40Z</time>
      </trkpt>
      <trkpt lat="44.40382" lon="5.20208">
        <ele>350</ele>
        <time>2022-09-29T14:52:41Z</time>
      </trkpt>
      <trkpt lat="44.40383" lon="5.20208">
        <ele>350</ele>
        <time>2022-09-29T14:52:42Z</time>
      </trkpt>
      <trkpt lat="44.40384" lon="5.20208">
        <ele>350</ele>
        <time>2022-09-29T14:52:43Z</time>
      </trkpt>
      <trkpt lat="44.40384" lon="5.20208">
        <ele>350</ele>
        <time>2022-09-29T14:52:44Z</time>
      </trkpt>
      <trkpt lat="44.40385" lon="5.20209">
        <ele>350</ele>
        <time>2022-09-29T14:52:45Z</time>
      </trkpt>
      <trkpt lat="44.40386" lon="5.20209">
        <ele>350</ele>
        <time>2022-09-29T14:52:46Z</time>
      </trkpt>
      <trkpt lat="44.40387" lon="5.2021">
        <ele>350</ele>
        <time>2022-09-29T14:52:47Z</time>
      </trkpt>
      <trkpt lat="44.40387" lon="5.20211">
        <ele>350</ele>
        <time>2022-09-29T14:52:48Z</time>
      </trkpt>
      <trkpt lat="44.40388" lon="5.20212">
        <ele>349</ele>
        <time>2022-09-29T14:52:49Z</time>
      </trkpt>
      <trkpt lat="44.40389" lon="5.20213">
        <ele>349</ele>
        <time>2022-09-29T14:52:50Z</time>
      </trkpt>
      <trkpt lat="44.4039" lon="5.20214">
        <ele>349</ele>
        <time>2022-09-29T14:52:51Z</time>
      </trkpt>
      <trkpt lat="44.40391" lon="5.20215">
        <ele>349</ele>
        <time>2022-09-29T14:52:52Z</time>
      </trkpt>
      <trkpt lat="44.40392" lon="5.20216">
        <ele>349</ele>
        <time>2022-09-29T14:52:53Z</time>
      </trkpt>
      <trkpt lat="44.40392" lon="5.20217">
        <ele>349</ele>
        <time>2022-09-29T14:52:54Z</time>
      </trkpt>
      <trkpt lat="44.40393" lon="5.20218">
        <ele>349</ele>
        <time>2022-09-29T14:52:55Z</time>
      </trkpt>
      <trkpt lat="44.40394" lon="5.20219">
        <ele>349</ele>
        <time>2022-09-29T14:52:56Z</time>
      </trkpt>
      <trkpt lat="44.40395" lon="5.20219">
        <ele>349</ele>
        <time>2022-09-29T14:52:57Z</time>
      </trkpt>
      <trkpt lat="44.40396" lon="5.2022">
        <ele>349</ele>
        <time>2022-09-29T14:52:58Z</time>
      </trkpt>
      <trkpt lat="44.40397" lon="5.20221">
        <ele>349</ele>
        <time>2022-09-29T14:52:59Z</time>
      </trkpt>
      <trkpt lat="44.40398" lon="5.20221">
        <ele>349</ele>
        <time>2022-09-29T14:53:00Z</time>
      </trkpt>
      <trkpt lat="44.40399" lon="5.20222">
        <ele>349</ele>
        <time>2022-09-29T14:53:01Z</time>
      </trkpt>
      <trkpt lat="44.404" lon="5.20222">
        <ele>349</ele>
        <time>2022-09-29T14:53:02Z</time>
      </trkpt>
      <trkpt lat="44.40401" lon="5.20223">
        <ele>349</ele>
        <time>2022-09-29T14:53:03Z</time>
      </trkpt>
      <trkpt lat="44.40402" lon="5.20224">
        <ele>349</ele>
        <time>2022-09-29T14:53:04Z</time>
      </trkpt>
      <trkpt lat="44.40402" lon="5.20224">
        <ele>349</ele>
        <time>2022-09-29T14:53:05Z</time>
      </trkpt>
      <trkpt lat="44.40403" lon="5.20225">
        <ele>349</ele>
        <time>2022-09-29T14:53:06Z</time>
      </trkpt>
      <trkpt lat="44.40404" lon="5.20225">
        <ele>349</ele>
        <time>2022-09-29T14:53:07Z</time>
      </trkpt>
      <trkpt lat="44.40405" lon="5.20226">
        <ele>349</ele>
        <time>2022-09-29T14:53:08Z</time>
      </trkpt>
      <trkpt lat="44.40405" lon="5.20227">
        <ele>349</ele>
        <time>2022-09-29T14:53:09Z</time>
      </trkpt>
      <trkpt lat="44.40406" lon="5.20227">
        <ele>349</ele>
        <time>2022-09-29T14:53:10Z</time>
      </trkpt>
      <trkpt lat="44.40407" lon="5.20228">
        <ele>349</ele>
        <time>2022-09-29T14:53:11Z</time>
      </trkpt>
      <trkpt lat="44.40408" lon="5.20229">
        <ele>349</ele>
        <time>2022-09-29T14:53:12Z</time>
      </trkpt>
      <trkpt lat="44.40409" lon="5.20229">
        <ele>349</ele>
        <time>2022-09-29T14:53:13Z</time>
      </trkpt>
      <trkpt lat="44.4041" lon="5.2023">
        <ele>349</ele>
        <time>2022-09-29T14:53:14Z</time>
      </trkpt>
      <trkpt lat="44.40411" lon="5.20231">
        <ele>349</ele>
        <time>2022-09-29T14:53:15Z</time>
      </trkpt>
      <trkpt lat="44.40412" lon="5.20232">
        <ele>349</ele>
        <time>2022-09-29T14:53:16Z</time>
      </trkpt>
      <trkpt lat="44.40413" lon="5.20232">
        <ele>349</ele>
        <time>2022-09-29T14:53:17Z</time>
      </trkpt>
      <trkpt lat="44.40414" lon="5.20233">
        <ele>349</ele>
        <time>2022-09-29T14:53:18Z</time>
      </trkpt>
      <trkpt lat="44.40415" lon="5.20234">
        <ele>349</ele>
        <time>2022-09-29T14:53:19Z</time>
      </trkpt>
      <trkpt lat="44.40416" lon="5.20234">
        <ele>349</ele>
        <time>2022-09-29T14:53:20Z</time>
      </trkpt>
      <trkpt lat="44.40416" lon="5.20235">
        <ele>349</ele>
        <time>2022-09-29T14:53:21Z</time>
      </trkpt>
      <trkpt lat="44.40417" lon="5.20235">
        <ele>349</ele>
        <time>2022-09-29T14:53:22Z</time>
      </trkpt>
      <trkpt lat="44.40418" lon="5.20236">
        <ele>349</ele>
        <time>2022-09-29T14:53:23Z</time>
      </trkpt>
      <trkpt lat="44.40419" lon="5.20236">
        <ele>349</ele>
        <time>2022-09-29T14:53:24Z</time>
      </trkpt>
      <trkpt lat="44.4042" lon="5.20237">
        <ele>349</ele>
        <time>2022-09-29T14:53:25Z</time>
      </trkpt>
      <trkpt lat="44.40421" lon="5.20237">
        <ele>349</ele>
        <time>2022-09-29T14:53:26Z</time>
      </trkpt>
      <trkpt lat="44.40422" lon="5.20238">
        <ele>349</ele>
        <time>2022-09-29T14:53:27Z</time>
      </trkpt>
      <trkpt lat="44.40423" lon="5.20238">
        <ele>349</ele>
        <time>2022-09-29T14:53:28Z</time>
      </trkpt>
      <trkpt lat="44.40424" lon="5.20239">
        <ele>349</ele>
        <time>2022-09-29T14:53:29Z</time>
      </trkpt>
      <trkpt lat="44.40425" lon="5.2024">
        <ele>349</ele>
        <time>2022-09-29T14:53:30Z</time>
      </trkpt>
      <trkpt lat="44.40426" lon="5.2024">
        <ele>349</ele>
        <time>2022-09-29T14:53:31Z</time>
      </trkpt>
      <trkpt lat="44.40427" lon="5.20241">
        <ele>349</ele>
        <time>2022-09-29T14:53:32Z</time>
      </trkpt>
      <trkpt lat="44.40428" lon="5.20242">
        <ele>349</ele>
        <time>2022-09-29T14:53:33Z</time>
      </trkpt>
      <trkpt lat="44.40429" lon="5.20242">
        <ele>349</ele>
        <time>2022-09-29T14:53:34Z</time>
      </trkpt>
      <trkpt lat="44.4043" lon="5.20243">
        <ele>349</ele>
        <time>2022-09-29T14:53:35Z</time>
      </trkpt>
      <trkpt lat="44.40431" lon="5.20243">
        <ele>349</ele>
        <time>2022-09-29T14:53:36Z</time>
      </trkpt>
      <trkpt lat="44.40432" lon="5.20244">
        <ele>349</ele>
        <time>2022-09-29T14:53:37Z</time>
      </trkpt>
      <trkpt lat="44.40433" lon="5.20244">
        <ele>349</ele>
        <time>2022-09-29T14:53:38Z</time>
      </trkpt>
      <trkpt lat="44.40434" lon="5.20245">
        <ele>349</ele>
        <time>2022-09-29T14:53:39Z</time>
      </trkpt>
      <trkpt lat="44.40435" lon="5.20246">
        <ele>349</ele>
        <time>2022-09-29T14:53:40Z</time>
      </trkpt>
      <trkpt lat="44.40436" lon="5.20247">
        <ele>349</ele>
        <time>2022-09-29T14:53:41Z</time>
      </trkpt>
      <trkpt lat="44.40437" lon="5.20247">
        <ele>349</ele>
        <time>2022-09-29T14:53:42Z</time>
      </trkpt>
      <trkpt lat="44.40438" lon="5.20248">
        <ele>349</ele>
        <time>2022-09-29T14:53:43Z</time>
      </trkpt>
      <trkpt lat="44.40439" lon="5.20248">
        <ele>349</ele>
        <time>2022-09-29T14:53:44Z</time>
      </trkpt>
      <trkpt lat="44.4044" lon="5.20249">
        <ele>349</ele>
        <time>2022-09-29T14:53:45Z</time>
      </trkpt>
      <trkpt lat="44.40441" lon="5.20249">
        <ele>349</ele>
        <time>2022-09-29T14:53:46Z</time>
      </trkpt>
      <trkpt lat="44.40441" lon="5.2025">
        <ele>349</ele>
        <time>2022-09-29T14:53:47Z</time>
      </trkpt>
      <trkpt lat="44.40442" lon="5.2025">
        <ele>350</ele>
        <time>2022-09-29T14:53:48Z</time>
      </trkpt>
      <trkpt lat="44.40443" lon="5.20251">
        <ele>350</ele>
        <time>2022-09-29T14:53:49Z</time>
      </trkpt>
      <trkpt lat="44.40444" lon="5.20251">
        <ele>350</ele>
        <time>2022-09-29T14:53:50Z</time>
      </trkpt>
      <trkpt lat="44.40445" lon="5.20252">
        <ele>350</ele>
        <time>2022-09-29T14:53:51Z</time>
      </trkpt>
      <trkpt lat="44.40446" lon="5.20253">
        <ele>350</ele>
        <time>2022-09-29T14:53:52Z</time>
      </trkpt>
      <trkpt lat="44.40446" lon="5.20253">
        <ele>350</ele>
        <time>2022-09-29T14:53:53Z</time>
      </trkpt>
      <trkpt lat="44.40447" lon="5.20254">
        <ele>350</ele>
        <time>2022-09-29T14:53:54Z</time>
      </trkpt>
      <trkpt lat="44.40448" lon="5.20255">
        <ele>350</ele>
        <time>2022-09-29T14:53:55Z</time>
      </trkpt>
      <trkpt lat="44.40449" lon="5.20255">
        <ele>350</ele>
        <time>2022-09-29T14:53:56Z</time>
      </trkpt>
      <trkpt lat="44.4045" lon="5.20256">
        <ele>350</ele>
        <time>2022-09-29T14:53:57Z</time>
      </trkpt>
      <trkpt lat="44.40451" lon="5.20256">
        <ele>350</ele>
        <time>2022-09-29T14:53:58Z</time>
      </trkpt>
      <trkpt lat="44.40452" lon="5.20257">
        <ele>350</ele>
        <time>2022-09-29T14:53:59Z</time>
      </trkpt>
      <trkpt lat="44.40453" lon="5.20258">
        <ele>350</ele>
        <time>2022-09-29T14:54:00Z</time>
      </trkpt>
      <trkpt lat="44.40454" lon="5.20258">
        <ele>350</ele>
        <time>2022-09-29T14:54:01Z</time>
      </trkpt>
      <trkpt lat="44.40455" lon="5.20259">
        <ele>350</ele>
        <time>2022-09-29T14:54:02Z</time>
      </trkpt>
      <trkpt lat="44.40456" lon="5.20259">
        <ele>350</ele>
        <time>2022-09-29T14:54:03Z</time>
      </trkpt>
      <trkpt lat="44.40457" lon="5.2026">
        <ele>350</ele>
        <time>2022-09-29T14:54:04Z</time>
      </trkpt>
      <trkpt lat="44.40457" lon="5.2026">
        <ele>350</ele>
        <time>2022-09-29T14:54:05Z</time>
      </trkpt>
      <trkpt lat="44.40458" lon="5.20261">
        <ele>350</ele>
        <time>2022-09-29T14:54:06Z</time>
      </trkpt>
      <trkpt lat="44.40459" lon="5.20262">
        <ele>350</ele>
        <time>2022-09-29T14:54:07Z</time>
      </trkpt>
      <trkpt lat="44.4046" lon="5.20263">
        <ele>350</ele>
        <time>2022-09-29T14:54:08Z</time>
      </trkpt>
      <trkpt lat="44.40461" lon="5.20263">
        <ele>350</ele>
        <time>2022-09-29T14:54:09Z</time>
      </trkpt>
      <trkpt lat="44.40462" lon="5.20264">
        <ele>350</ele>
        <time>2022-09-29T14:54:10Z</time>
      </trkpt>
      <trkpt lat="44.40463" lon="5.20265">
        <ele>350</ele>
        <time>2022-09-29T14:54:11Z</time>
      </trkpt>
      <trkpt lat="44.40465" lon="5.20265">
        <ele>350</ele>
        <time>2022-09-29T14:54:12Z</time>
      </trkpt>
      <trkpt lat="44.40466" lon="5.20266">
        <ele>350</ele>
        <time>2022-09-29T14:54:13Z</time>
      </trkpt>
      <trkpt lat="44.40467" lon="5.20266">
        <ele>350</ele>
        <time>2022-09-29T14:54:14Z</time>
      </trkpt>
      <trkpt lat="44.40468" lon="5.20267">
        <ele>350</ele>
        <time>2022-09-29T14:54:15Z</time>
      </trkpt>
      <trkpt lat="44.40469" lon="5.20268">
        <ele>350</ele>
        <time>2022-09-29T14:54:16Z</time>
      </trkpt>
      <trkpt lat="44.40471" lon="5.20268">
        <ele>350</ele>
        <time>2022-09-29T14:54:24Z</time>
      </trkpt>
      <trkpt lat="44.40472" lon="5.20269">
        <ele>350</ele>
        <time>2022-09-29T14:54:25Z</time>
      </trkpt>
      <trkpt lat="44.40473" lon="5.20269">
        <ele>350</ele>
        <time>2022-09-29T14:54:26Z</time>
      </trkpt>
      <trkpt lat="44.40474" lon="5.20269">
        <ele>350</ele>
        <time>2022-09-29T14:54:27Z</time>
      </trkpt>
      <trkpt lat="44.40475" lon="5.20269">
        <ele>350</ele>
        <time>2022-09-29T14:54:28Z</time>
      </trkpt>
      <trkpt lat="44.40475" lon="5.2027">
        <ele>350</ele>
        <time>2022-09-29T14:54:29Z</time>
      </trkpt>
      <trkpt lat="44.40476" lon="5.2027">
        <ele>350</ele>
        <time>2022-09-29T14:54:30Z</time>
      </trkpt>
      <trkpt lat="44.40477" lon="5.2027">
        <ele>350</ele>
        <time>2022-09-29T14:54:31Z</time>
      </trkpt>
      <trkpt lat="44.40478" lon="5.20271">
        <ele>350</ele>
        <time>2022-09-29T14:54:32Z</time>
      </trkpt>
      <trkpt lat="44.40479" lon="5.20271">
        <ele>350</ele>
        <time>2022-09-29T14:54:33Z</time>
      </trkpt>
      <trkpt lat="44.4048" lon="5.20272">
        <ele>350</ele>
        <time>2022-09-29T14:54:34Z</time>
      </trkpt>
      <trkpt lat="44.40481" lon="5.20273">
        <ele>350</ele>
        <time>2022-09-29T14:54:35Z</time>
      </trkpt>
      <trkpt lat="44.40482" lon="5.20274">
        <ele>350</ele>
        <time>2022-09-29T14:54:36Z</time>
      </trkpt>
      <trkpt lat="44.40484" lon="5.20274">
        <ele>350</ele>
        <time>2022-09-29T14:54:37Z</time>
      </trkpt>
      <trkpt lat="44.40485" lon="5.20275">
        <ele>350</ele>
        <time>2022-09-29T14:54:38Z</time>
      </trkpt>
      <trkpt lat="44.40486" lon="5.20276">
        <ele>350</ele>
        <time>2022-09-29T14:54:39Z</time>
      </trkpt>
      <trkpt lat="44.40487" lon="5.20276">
        <ele>350</ele>
        <time>2022-09-29T14:54:40Z</time>
      </trkpt>
      <trkpt lat="44.40489" lon="5.20277">
        <ele>350</ele>
        <time>2022-09-29T14:54:41Z</time>
      </trkpt>
      <trkpt lat="44.4049" lon="5.20277">
        <ele>350</ele>
        <time>2022-09-29T14:54:42Z</time>
      </trkpt>
      <trkpt lat="44.40491" lon="5.20277">
        <ele>351</ele>
        <time>2022-09-29T14:54:43Z</time>
      </trkpt>
      <trkpt lat="44.40493" lon="5.20277">
        <ele>351</ele>
        <time>2022-09-29T14:54:44Z</time>
      </trkpt>
      <trkpt lat="44.40494" lon="5.20278">
        <ele>351</ele>
        <time>2022-09-29T14:54:45Z</time>
      </trkpt>
      <trkpt lat="44.40495" lon="5.20278">
        <ele>351</ele>
        <time>2022-09-29T14:54:46Z</time>
      </trkpt>
      <trkpt lat="44.40497" lon="5.20279">
        <ele>351</ele>
        <time>2022-09-29T14:54:47Z</time>
      </trkpt>
      <trkpt lat="44.40498" lon="5.20279">
        <ele>351</ele>
        <time>2022-09-29T14:54:48Z</time>
      </trkpt>
      <trkpt lat="44.40499" lon="5.2028">
        <ele>351</ele>
        <time>2022-09-29T14:54:49Z</time>
      </trkpt>
      <trkpt lat="44.405" lon="5.2028">
        <ele>351</ele>
        <time>2022-09-29T14:54:50Z</time>
      </trkpt>
      <trkpt lat="44.405" lon="5.2028">
        <ele>351</ele>
        <time>2022-09-29T14:54:51Z</time>
      </trkpt>
      <trkpt lat="44.40501" lon="5.2028">
        <ele>351</ele>
        <time>2022-09-29T14:54:52Z</time>
      </trkpt>
      <trkpt lat="44.40502" lon="5.2028">
        <ele>351</ele>
        <time>2022-09-29T14:54:53Z</time>
      </trkpt>
      <trkpt lat="44.40503" lon="5.2028">
        <ele>351</ele>
        <time>2022-09-29T14:54:54Z</time>
      </trkpt>
      <trkpt lat="44.40504" lon="5.2028">
        <ele>351</ele>
        <time>2022-09-29T14:54:55Z</time>
      </trkpt>
      <trkpt lat="44.40505" lon="5.2028">
        <ele>351</ele>
        <time>2022-09-29T14:54:56Z</time>
      </trkpt>
      <trkpt lat="44.40506" lon="5.20281">
        <ele>351</ele>
        <time>2022-09-29T14:54:57Z</time>
      </trkpt>
      <trkpt lat="44.40507" lon="5.20281">
        <ele>351</ele>
        <time>2022-09-29T14:54:58Z</time>
      </trkpt>
      <trkpt lat="44.40508" lon="5.20281">
        <ele>351</ele>
        <time>2022-09-29T14:54:59Z</time>
      </trkpt>
      <trkpt lat="44.40509" lon="5.20281">
        <ele>351</ele>
        <time>2022-09-29T14:55:00Z</time>
      </trkpt>
      <trkpt lat="44.4051" lon="5.20282">
        <ele>351</ele>
        <time>2022-09-29T14:55:01Z</time>
      </trkpt>
      <trkpt lat="44.40512" lon="5.20282">
        <ele>351</ele>
        <time>2022-09-29T14:55:02Z</time>
      </trkpt>
      <trkpt lat="44.40513" lon="5.20282">
        <ele>351</ele>
        <time>2022-09-29T14:55:03Z</time>
      </trkpt>
      <trkpt lat="44.40514" lon="5.20283">
        <ele>351</ele>
        <time>2022-09-29T14:55:04Z</time>
      </trkpt>
      <trkpt lat="44.40515" lon="5.20284">
        <ele>351</ele>
        <time>2022-09-29T14:55:05Z</time>
      </trkpt>
      <trkpt lat="44.40516" lon="5.20284">
        <ele>351</ele>
        <time>2022-09-29T14:55:06Z</time>
      </trkpt>
      <trkpt lat="44.40517" lon="5.20284">
        <ele>351</ele>
        <time>2022-09-29T14:55:07Z</time>
      </trkpt>
      <trkpt lat="44.40518" lon="5.20284">
        <ele>351</ele>
        <time>2022-09-29T14:55:08Z</time>
      </trkpt>
      <trkpt lat="44.40519" lon="5.20284">
        <ele>351</ele>
        <time>2022-09-29T14:55:09Z</time>
      </trkpt>
      <trkpt lat="44.4052" lon="5.20284">
        <ele>351</ele>
        <time>2022-09-29T14:55:10Z</time>
      </trkpt>
      <trkpt lat="44.40521" lon="5.20283">
        <ele>351</ele>
        <time>2022-09-29T14:55:11Z</time>
      </trkpt>
      <trkpt lat="44.40522" lon="5.20283">
        <ele>351</ele>
        <time>2022-09-29T14:55:12Z</time>
      </trkpt>
      <trkpt lat="44.40523" lon="5.20283">
        <ele>351</ele>
        <time>2022-09-29T14:55:13Z</time>
      </trkpt>
      <trkpt lat="44.40524" lon="5.20283">
        <ele>351</ele>
        <time>2022-09-29T14:55:14Z</time>
      </trkpt>
      <trkpt lat="44.40525" lon="5.20283">
        <ele>351</ele>
        <time>2022-09-29T14:55:15Z</time>
      </trkpt>
      <trkpt lat="44.40526" lon="5.20283">
        <ele>351</ele>
        <time>2022-09-29T14:55:16Z</time>
      </trkpt>
      <trkpt lat="44.40527" lon="5.20283">
        <ele>351</ele>
        <time>2022-09-29T14:55:17Z</time>
      </trkpt>
      <trkpt lat="44.40528" lon="5.20283">
        <ele>351</ele>
        <time>2022-09-29T14:55:18Z</time>
      </trkpt>
      <trkpt lat="44.40529" lon="5.20283">
        <ele>351</ele>
        <time>2022-09-29T14:55:19Z</time>
      </trkpt>
      <trkpt lat="44.4053" lon="5.20283">
        <ele>351</ele>
        <time>2022-09-29T14:55:20Z</time>
      </trkpt>
      <trkpt lat="44.40531" lon="5.20284">
        <ele>351</ele>
        <time>2022-09-29T14:55:21Z</time>
      </trkpt>
      <trkpt lat="44.40532" lon="5.20284">
        <ele>351</ele>
        <time>2022-09-29T14:55:22Z</time>
      </trkpt>
      <trkpt lat="44.40533" lon="5.20285">
        <ele>351</ele>
        <time>2022-09-29T14:55:23Z</time>
      </trkpt>
      <trkpt lat="44.40534" lon="5.20285">
        <ele>351</ele>
        <time>2022-09-29T14:55:24Z</time>
      </trkpt>
      <trkpt lat="44.40535" lon="5.20286">
        <ele>351</ele>
        <time>2022-09-29T14:55:25Z</time>
      </trkpt>
      <trkpt lat="44.40536" lon="5.20286">
        <ele>351</ele>
        <time>2022-09-29T14:55:26Z</time>
      </trkpt>
      <trkpt lat="44.40537" lon="5.20286">
        <ele>351</ele>
        <time>2022-09-29T14:55:27Z</time>
      </trkpt>
      <trkpt lat="44.40539" lon="5.20286">
        <ele>351</ele>
        <time>2022-09-29T14:55:28Z</time>
      </trkpt>
      <trkpt lat="44.4054" lon="5.20286">
        <ele>351</ele>
        <time>2022-09-29T14:55:29Z</time>
      </trkpt>
      <trkpt lat="44.40541" lon="5.20286">
        <ele>351</ele>
        <time>2022-09-29T14:55:30Z</time>
      </trkpt>
      <trkpt lat="44.40542" lon="5.20286">
        <ele>351</ele>
        <time>2022-09-29T14:55:31Z</time>
      </trkpt>
      <trkpt lat="44.40543" lon="5.20287">
        <ele>351</ele>
        <time>2022-09-29T14:55:32Z</time>
      </trkpt>
      <trkpt lat="44.40544" lon="5.20287">
        <ele>352</ele>
        <time>2022-09-29T14:55:33Z</time>
      </trkpt>
      <trkpt lat="44.40545" lon="5.20287">
        <ele>352</ele>
        <time>2022-09-29T14:55:34Z</time>
      </trkpt>
      <trkpt lat="44.40546" lon="5.20287">
        <ele>352</ele>
        <time>2022-09-29T14:55:35Z</time>
      </trkpt>
      <trkpt lat="44.40547" lon="5.20288">
        <ele>352</ele>
        <time>2022-09-29T14:55:36Z</time>
      </trkpt>
      <trkpt lat="44.40549" lon="5.20288">
        <ele>352</ele>
        <time>2022-09-29T14:55:37Z</time>
      </trkpt>
      <trkpt lat="44.4055" lon="5.20288">
        <ele>352</ele>
        <time>2022-09-29T14:55:38Z</time>
      </trkpt>
      <trkpt lat="44.40551" lon="5.20288">
        <ele>352</ele>
        <time>2022-09-29T14:55:39Z</time>
      </trkpt>
      <trkpt lat="44.40552" lon="5.20288">
        <ele>352</ele>
        <time>2022-09-29T14:55:40Z</time>
      </trkpt>
      <trkpt lat="44.40553" lon="5.20288">
        <ele>352</ele>
        <time>2022-09-29T14:55:41Z</time>
      </trkpt>
      <trkpt lat="44.40554" lon="5.20289">
        <ele>352</ele>
        <time>2022-09-29T14:55:42Z</time>
      </trkpt>
      <trkpt lat="44.40555" lon="5.20289">
        <ele>352</ele>
        <time>2022-09-29T14:55:43Z</time>
      </trkpt>
      <trkpt lat="44.40556" lon="5.2029">
        <ele>352</ele>
        <time>2022-09-29T14:55:44Z</time>
      </trkpt>
      <trkpt lat="44.40557" lon="5.2029">
        <ele>352</ele>
        <time>2022-09-29T14:55:45Z</time>
      </trkpt>
      <trkpt lat="44.40559" lon="5.20291">
        <ele>352</ele>
        <time>2022-09-29T14:55:46Z</time>
      </trkpt>
      <trkpt lat="44.4056" lon="5.20291">
        <ele>352</ele>
        <time>2022-09-29T14:55:47Z</time>
      </trkpt>
      <trkpt lat="44.40561" lon="5.20292">
        <ele>352</ele>
        <time>2022-09-29T14:55:48Z</time>
      </trkpt>
      <trkpt lat="44.40562" lon="5.20292">
        <ele>352</ele>
        <time>2022-09-29T14:55:49Z</time>
      </trkpt>
      <trkpt lat="44.40563" lon="5.20293">
        <ele>352</ele>
        <time>2022-09-29T14:55:50Z</time>
      </trkpt>
      <trkpt lat="44.40564" lon="5.20293">
        <ele>352</ele>
        <time>2022-09-29T14:55:51Z</time>
      </trkpt>
      <trkpt lat="44.40565" lon="5.20293">
        <ele>352</ele>
        <time>2022-09-29T14:55:52Z</time>
      </trkpt>
      <trkpt lat="44.40566" lon="5.20293">
        <ele>352</ele>
        <time>2022-09-29T14:55:53Z</time>
      </trkpt>
      <trkpt lat="44.40567" lon="5.20294">
        <ele>352</ele>
        <time>2022-09-29T14:55:54Z</time>
      </trkpt>
      <trkpt lat="44.40568" lon="5.20294">
        <ele>352</ele>
        <time>2022-09-29T14:55:55Z</time>
      </trkpt>
      <trkpt lat="44.40569" lon="5.20294">
        <ele>352</ele>
        <time>2022-09-29T14:55:56Z</time>
      </trkpt>
      <trkpt lat="44.4057" lon="5.20294">
        <ele>352</ele>
        <time>2022-09-29T14:55:57Z</time>
      </trkpt>
      <trkpt lat="44.40571" lon="5.20294">
        <ele>352</ele>
        <time>2022-09-29T14:55:58Z</time>
      </trkpt>
      <trkpt lat="44.40572" lon="5.20294">
        <ele>352</ele>
        <time>2022-09-29T14:55:59Z</time>
      </trkpt>
      <trkpt lat="44.40573" lon="5.20295">
        <ele>352</ele>
        <time>2022-09-29T14:56:00Z</time>
      </trkpt>
      <trkpt lat="44.40574" lon="5.20295">
        <ele>352</ele>
        <time>2022-09-29T14:56:01Z</time>
      </trkpt>
      <trkpt lat="44.40575" lon="5.20295">
        <ele>352</ele>
        <time>2022-09-29T14:56:02Z</time>
      </trkpt>
      <trkpt lat="44.40576" lon="5.20295">
        <ele>352</ele>
        <time>2022-09-29T14:56:03Z</time>
      </trkpt>
      <trkpt lat="44.40577" lon="5.20295">
        <ele>352</ele>
        <time>2022-09-29T14:56:04Z</time>
      </trkpt>
      <trkpt lat="44.40578" lon="5.20295">
        <ele>352</ele>
        <time>2022-09-29T14:56:05Z</time>
      </trkpt>
      <trkpt lat="44.40579" lon="5.20296">
        <ele>352</ele>
        <time>2022-09-29T14:56:06Z</time>
      </trkpt>
      <trkpt lat="44.4058" lon="5.20296">
        <ele>352</ele>
        <time>2022-09-29T14:56:07Z</time>
      </trkpt>
      <trkpt lat="44.40581" lon="5.20296">
        <ele>352</ele>
        <time>2022-09-29T14:56:08Z</time>
      </trkpt>
      <trkpt lat="44.40582" lon="5.20297">
        <ele>352</ele>
        <time>2022-09-29T14:56:09Z</time>
      </trkpt>
      <trkpt lat="44.40583" lon="5.20297">
        <ele>352</ele>
        <time>2022-09-29T14:56:10Z</time>
      </trkpt>
      <trkpt lat="44.40585" lon="5.20298">
        <ele>352</ele>
        <time>2022-09-29T14:56:11Z</time>
      </trkpt>
      <trkpt lat="44.40586" lon="5.20298">
        <ele>352</ele>
        <time>2022-09-29T14:56:12Z</time>
      </trkpt>
      <trkpt lat="44.40587" lon="5.20298">
        <ele>352</ele>
        <time>2022-09-29T14:56:13Z</time>
      </trkpt>
      <trkpt lat="44.40588" lon="5.20299">
        <ele>352</ele>
        <time>2022-09-29T14:56:14Z</time>
      </trkpt>
      <trkpt lat="44.40589" lon="5.20299">
        <ele>352</ele>
        <time>2022-09-29T14:56:15Z</time>
      </trkpt>
      <trkpt lat="44.4059" lon="5.20299">
        <ele>352</ele>
        <time>2022-09-29T14:56:16Z</time>
      </trkpt>
      <trkpt lat="44.40591" lon="5.20299">
        <ele>352</ele>
        <time>2022-09-29T14:56:17Z</time>
      </trkpt>
      <trkpt lat="44.40592" lon="5.203">
        <ele>352</ele>
        <time>2022-09-29T14:56:18Z</time>
      </trkpt>
      <trkpt lat="44.40593" lon="5.203">
        <ele>352</ele>
        <time>2022-09-29T14:56:19Z</time>
      </trkpt>
      <trkpt lat="44.40594" lon="5.203">
        <ele>352</ele>
        <time>2022-09-29T14:56:20Z</time>
      </trkpt>
      <trkpt lat="44.40595" lon="5.203">
        <ele>352</ele>
        <time>2022-09-29T14:56:21Z</time>
      </trkpt>
      <trkpt lat="44.40596" lon="5.203">
        <ele>352</ele>
        <time>2022-09-29T14:56:22Z</time>
      </trkpt>
      <trkpt lat="44.40596" lon="5.203">
        <ele>352</ele>
        <time>2022-09-29T14:56:23Z</time>
      </trkpt>
      <trkpt lat="44.40597" lon="5.203">
        <ele>352</ele>
        <time>2022-09-29T14:56:24Z</time>
      </trkpt>
      <trkpt lat="44.40598" lon="5.203">
        <ele>352</ele>
        <time>2022-09-29T14:56:25Z</time>
      </trkpt>
      <trkpt lat="44.40599" lon="5.203">
        <ele>352</ele>
        <time>2022-09-29T14:56:26Z</time>
      </trkpt>
      <trkpt lat="44.406" lon="5.20299">
        <ele>352</ele>
        <time>2022-09-29T14:56:27Z</time>
      </trkpt>
      <trkpt lat="44.406" lon="5.20299">
        <ele>352</ele>
        <time>2022-09-29T14:56:28Z</time>
      </trkpt>
      <trkpt lat="44.40601" lon="5.20299">
        <ele>352</ele>
        <time>2022-09-29T14:56:29Z</time>
      </trkpt>
      <trkpt lat="44.40601" lon="5.20299">
        <ele>352</ele>
        <time>2022-09-29T14:56:30Z</time>
      </trkpt>
      <trkpt lat="44.40602" lon="5.20299">
        <ele>352</ele>
        <time>2022-09-29T14:56:31Z</time>
      </trkpt>
      <trkpt lat="44.40603" lon="5.20299">
        <ele>352</ele>
        <time>2022-09-29T14:56:32Z</time>
      </trkpt>
      <trkpt lat="44.40604" lon="5.20299">
        <ele>352</ele>
        <time>2022-09-29T14:56:33Z</time>
      </trkpt>
      <trkpt lat="44.40605" lon="5.20299">
        <ele>352</ele>
        <time>2022-09-29T14:56:34Z</time>
      </trkpt>
      <trkpt lat="44.40606" lon="5.20299">
        <ele>352</ele>
        <time>2022-09-29T14:56:35Z</time>
      </trkpt>
      <trkpt lat="44.40607" lon="5.20299">
        <ele>352</ele>
        <time>2022-09-29T14:56:36Z</time>
      </trkpt>
      <trkpt lat="44.40608" lon="5.20299">
        <ele>352</ele>
        <time>2022-09-29T14:56:37Z</time>
      </trkpt>
      <trkpt lat="44.40609" lon="5.20298">
        <ele>352</ele>
        <time>2022-09-29T14:56:38Z</time>
      </trkpt>
      <trkpt lat="44.4061" lon="5.20298">
        <ele>352</ele>
        <time>2022-09-29T14:56:39Z</time>
      </trkpt>
      <trkpt lat="44.40611" lon="5.20298">
        <ele>352</ele>
        <time>2022-09-29T14:56:40Z</time>
      </trkpt>
      <trkpt lat="44.40612" lon="5.20298">
        <ele>352</ele>
        <time>2022-09-29T14:56:41Z</time>
      </trkpt>
      <trkpt lat="44.40613" lon="5.20298">
        <ele>352</ele>
        <time>2022-09-29T14:56:42Z</time>
      </trkpt>
      <trkpt lat="44.40614" lon="5.20298">
        <ele>352</ele>
        <time>2022-09-29T14:56:43Z</time>
      </trkpt>
      <trkpt lat="44.40615" lon="5.20297">
        <ele>352</ele>
        <time>2022-09-29T14:56:44Z</time>
      </trkpt>
      <trkpt lat="44.40616" lon="5.20297">
        <ele>352</ele>
        <time>2022-09-29T14:56:45Z</time>
      </trkpt>
      <trkpt lat="44.40617" lon="5.20297">
        <ele>352</ele>
        <time>2022-09-29T14:56:46Z</time>
      </trkpt>
      <trkpt lat="44.40618" lon="5.20297">
        <ele>352</ele>
        <time>2022-09-29T14:56:47Z</time>
      </trkpt>
      <trkpt lat="44.40619" lon="5.20297">
        <ele>352</ele>
        <time>2022-09-29T14:56:48Z</time>
      </trkpt>
      <trkpt lat="44.40619" lon="5.20297">
        <ele>352</ele>
        <time>2022-09-29T14:56:49Z</time>
      </trkpt>
      <trkpt lat="44.4062" lon="5.20297">
        <ele>352</ele>
        <time>2022-09-29T14:56:50Z</time>
      </trkpt>
      <trkpt lat="44.4062" lon="5.20297">
        <ele>352</ele>
        <time>2022-09-29T14:56:51Z</time>
      </trkpt>
      <trkpt lat="44.4062" lon="5.20297">
        <ele>352</ele>
        <time>2022-09-29T14:56:52Z</time>
      </trkpt>
      <trkpt lat="44.40621" lon="5.20297">
        <ele>353</ele>
        <time>2022-09-29T14:56:53Z</time>
      </trkpt>
      <trkpt lat="44.40622" lon="5.20297">
        <ele>353</ele>
        <time>2022-09-29T14:56:54Z</time>
      </trkpt>
      <trkpt lat="44.40623" lon="5.20297">
        <ele>353</ele>
        <time>2022-09-29T14:56:55Z</time>
      </trkpt>
      <trkpt lat="44.40623" lon="5.20297">
        <ele>353</ele>
        <time>2022-09-29T14:56:56Z</time>
      </trkpt>
      <trkpt lat="44.40624" lon="5.20297">
        <ele>353</ele>
        <time>2022-09-29T14:56:57Z</time>
      </trkpt>
      <trkpt lat="44.40626" lon="5.20296">
        <ele>353</ele>
        <time>2022-09-29T14:56:58Z</time>
      </trkpt>
      <trkpt lat="44.40627" lon="5.20296">
        <ele>353</ele>
        <time>2022-09-29T14:56:59Z</time>
      </trkpt>
      <trkpt lat="44.40628" lon="5.20296">
        <ele>353</ele>
        <time>2022-09-29T14:57:00Z</time>
      </trkpt>
      <trkpt lat="44.40629" lon="5.20296">
        <ele>353</ele>
        <time>2022-09-29T14:57:01Z</time>
      </trkpt>
      <trkpt lat="44.4063" lon="5.20296">
        <ele>353</ele>
        <time>2022-09-29T14:57:02Z</time>
      </trkpt>
      <trkpt lat="44.40631" lon="5.20296">
        <ele>353</ele>
        <time>2022-09-29T14:57:03Z</time>
      </trkpt>
      <trkpt lat="44.40632" lon="5.20296">
        <ele>353</ele>
        <time>2022-09-29T14:57:04Z</time>
      </trkpt>
      <trkpt lat="44.40632" lon="5.20296">
        <ele>353</ele>
        <time>2022-09-29T14:57:05Z</time>
      </trkpt>
      <trkpt lat="44.40634" lon="5.20296">
        <ele>353</ele>
        <time>2022-09-29T14:57:06Z</time>
      </trkpt>
      <trkpt lat="44.40635" lon="5.20296">
        <ele>353</ele>
        <time>2022-09-29T14:57:07Z</time>
      </trkpt>
      <trkpt lat="44.40636" lon="5.20295">
        <ele>353</ele>
        <time>2022-09-29T14:57:08Z</time>
      </trkpt>
      <trkpt lat="44.40637" lon="5.20295">
        <ele>353</ele>
        <time>2022-09-29T14:57:09Z</time>
      </trkpt>
      <trkpt lat="44.40639" lon="5.20294">
        <ele>353</ele>
        <time>2022-09-29T14:57:10Z</time>
      </trkpt>
      <trkpt lat="44.4064" lon="5.20293">
        <ele>353</ele>
        <time>2022-09-29T14:57:11Z</time>
      </trkpt>
      <trkpt lat="44.40641" lon="5.20291">
        <ele>353</ele>
        <time>2022-09-29T14:57:12Z</time>
      </trkpt>
      <trkpt lat="44.40641" lon="5.2029">
        <ele>353</ele>
        <time>2022-09-29T14:57:13Z</time>
      </trkpt>
      <trkpt lat="44.40642" lon="5.20288">
        <ele>353</ele>
        <time>2022-09-29T14:57:14Z</time>
      </trkpt>
      <trkpt lat="44.40643" lon="5.20287">
        <ele>353</ele>
        <time>2022-09-29T14:57:15Z</time>
      </trkpt>
      <trkpt lat="44.40643" lon="5.20286">
        <ele>353</ele>
        <time>2022-09-29T14:57:16Z</time>
      </trkpt>
      <trkpt lat="44.40644" lon="5.20284">
        <ele>353</ele>
        <time>2022-09-29T14:57:17Z</time>
      </trkpt>
      <trkpt lat="44.40644" lon="5.20283">
        <ele>353</ele>
        <time>2022-09-29T14:57:18Z</time>
      </trkpt>
      <trkpt lat="44.40645" lon="5.20282">
        <ele>353</ele>
        <time>2022-09-29T14:57:19Z</time>
      </trkpt>
      <trkpt lat="44.40645" lon="5.20281">
        <ele>353</ele>
        <time>2022-09-29T14:57:20Z</time>
      </trkpt>
      <trkpt lat="44.40646" lon="5.20279">
        <ele>353</ele>
        <time>2022-09-29T14:57:21Z</time>
      </trkpt>
      <trkpt lat="44.40646" lon="5.20278">
        <ele>353</ele>
        <time>2022-09-29T14:57:22Z</time>
      </trkpt>
      <trkpt lat="44.40647" lon="5.20277">
        <ele>353</ele>
        <time>2022-09-29T14:57:23Z</time>
      </trkpt>
      <trkpt lat="44.40647" lon="5.20276">
        <ele>353</ele>
        <time>2022-09-29T14:57:24Z</time>
      </trkpt>
      <trkpt lat="44.40647" lon="5.20275">
        <ele>353</ele>
        <time>2022-09-29T14:57:25Z</time>
      </trkpt>
      <trkpt lat="44.40648" lon="5.20273">
        <ele>353</ele>
        <time>2022-09-29T14:57:26Z</time>
      </trkpt>
      <trkpt lat="44.40648" lon="5.20272">
        <ele>353</ele>
        <time>2022-09-29T14:57:27Z</time>
      </trkpt>
      <trkpt lat="44.40648" lon="5.2027">
        <ele>353</ele>
        <time>2022-09-29T14:57:28Z</time>
      </trkpt>
      <trkpt lat="44.40649" lon="5.20269">
        <ele>353</ele>
        <time>2022-09-29T14:57:29Z</time>
      </trkpt>
      <trkpt lat="44.40649" lon="5.20267">
        <ele>353</ele>
        <time>2022-09-29T14:57:30Z</time>
      </trkpt>
      <trkpt lat="44.4065" lon="5.20266">
        <ele>353</ele>
        <time>2022-09-29T14:57:31Z</time>
      </trkpt>
      <trkpt lat="44.4065" lon="5.20264">
        <ele>353</ele>
        <time>2022-09-29T14:57:32Z</time>
      </trkpt>
      <trkpt lat="44.4065" lon="5.20263">
        <ele>353</ele>
        <time>2022-09-29T14:57:33Z</time>
      </trkpt>
      <trkpt lat="44.40651" lon="5.20261">
        <ele>353</ele>
        <time>2022-09-29T14:57:34Z</time>
      </trkpt>
      <trkpt lat="44.40651" lon="5.2026">
        <ele>353</ele>
        <time>2022-09-29T14:57:35Z</time>
      </trkpt>
      <trkpt lat="44.40651" lon="5.20258">
        <ele>353</ele>
        <time>2022-09-29T14:57:36Z</time>
      </trkpt>
      <trkpt lat="44.40652" lon="5.20257">
        <ele>353</ele>
        <time>2022-09-29T14:57:37Z</time>
      </trkpt>
      <trkpt lat="44.40652" lon="5.20256">
        <ele>353</ele>
        <time>2022-09-29T14:57:38Z</time>
      </trkpt>
      <trkpt lat="44.40652" lon="5.20254">
        <ele>353</ele>
        <time>2022-09-29T14:57:39Z</time>
      </trkpt>
      <trkpt lat="44.40652" lon="5.20253">
        <ele>353</ele>
        <time>2022-09-29T14:57:40Z</time>
      </trkpt>
      <trkpt lat="44.40653" lon="5.20252">
        <ele>353</ele>
        <time>2022-09-29T14:57:41Z</time>
      </trkpt>
      <trkpt lat="44.40653" lon="5.2025">
        <ele>353</ele>
        <time>2022-09-29T14:57:42Z</time>
      </trkpt>
      <trkpt lat="44.40653" lon="5.20249">
        <ele>353</ele>
        <time>2022-09-29T14:57:43Z</time>
      </trkpt>
      <trkpt lat="44.40653" lon="5.20248">
        <ele>353</ele>
        <time>2022-09-29T14:57:44Z</time>
      </trkpt>
      <trkpt lat="44.40653" lon="5.20246">
        <ele>353</ele>
        <time>2022-09-29T14:57:45Z</time>
      </trkpt>
      <trkpt lat="44.40653" lon="5.20245">
        <ele>353</ele>
        <time>2022-09-29T14:57:46Z</time>
      </trkpt>
      <trkpt lat="44.40654" lon="5.20243">
        <ele>353</ele>
        <time>2022-09-29T14:57:47Z</time>
      </trkpt>
      <trkpt lat="44.40654" lon="5.20242">
        <ele>353</ele>
        <time>2022-09-29T14:57:48Z</time>
      </trkpt>
      <trkpt lat="44.40655" lon="5.20241">
        <ele>353</ele>
        <time>2022-09-29T14:57:49Z</time>
      </trkpt>
      <trkpt lat="44.40655" lon="5.20239">
        <ele>353</ele>
        <time>2022-09-29T14:57:50Z</time>
      </trkpt>
      <trkpt lat="44.40656" lon="5.20237">
        <ele>353</ele>
        <time>2022-09-29T14:57:51Z</time>
      </trkpt>
      <trkpt lat="44.40656" lon="5.20236">
        <ele>353</ele>
        <time>2022-09-29T14:57:52Z</time>
      </trkpt>
      <trkpt lat="44.40657" lon="5.20234">
        <ele>353</ele>
        <time>2022-09-29T14:57:53Z</time>
      </trkpt>
      <trkpt lat="44.40658" lon="5.20232">
        <ele>353</ele>
        <time>2022-09-29T14:57:54Z</time>
      </trkpt>
      <trkpt lat="44.40658" lon="5.20231">
        <ele>353</ele>
        <time>2022-09-29T14:57:55Z</time>
      </trkpt>
      <trkpt lat="44.40659" lon="5.20229">
        <ele>353</ele>
        <time>2022-09-29T14:57:56Z</time>
      </trkpt>
      <trkpt lat="44.40659" lon="5.20228">
        <ele>353</ele>
        <time>2022-09-29T14:57:57Z</time>
      </trkpt>
      <trkpt lat="44.40659" lon="5.20226">
        <ele>353</ele>
        <time>2022-09-29T14:57:58Z</time>
      </trkpt>
      <trkpt lat="44.4066" lon="5.20224">
        <ele>353</ele>
        <time>2022-09-29T14:57:59Z</time>
      </trkpt>
      <trkpt lat="44.4066" lon="5.20223">
        <ele>353</ele>
        <time>2022-09-29T14:58:00Z</time>
      </trkpt>
      <trkpt lat="44.40661" lon="5.20222">
        <ele>353</ele>
        <time>2022-09-29T14:58:01Z</time>
      </trkpt>
      <trkpt lat="44.40662" lon="5.2022">
        <ele>353</ele>
        <time>2022-09-29T14:58:02Z</time>
      </trkpt>
      <trkpt lat="44.40662" lon="5.20219">
        <ele>353</ele>
        <time>2022-09-29T14:58:03Z</time>
      </trkpt>
      <trkpt lat="44.40663" lon="5.20218">
        <ele>353</ele>
        <time>2022-09-29T14:58:04Z</time>
      </trkpt>
      <trkpt lat="44.40664" lon="5.20217">
        <ele>353</ele>
        <time>2022-09-29T14:58:05Z</time>
      </trkpt>
      <trkpt lat="44.40665" lon="5.20216">
        <ele>353</ele>
        <time>2022-09-29T14:58:06Z</time>
      </trkpt>
      <trkpt lat="44.40666" lon="5.20215">
        <ele>353</ele>
        <time>2022-09-29T14:58:07Z</time>
      </trkpt>
      <trkpt lat="44.40667" lon="5.20214">
        <ele>353</ele>
        <time>2022-09-29T14:58:08Z</time>
      </trkpt>
      <trkpt lat="44.40668" lon="5.20214">
        <ele>352</ele>
        <time>2022-09-29T14:58:09Z</time>
      </trkpt>
      <trkpt lat="44.40668" lon="5.20213">
        <ele>352</ele>
        <time>2022-09-29T14:58:10Z</time>
      </trkpt>
      <trkpt lat="44.40669" lon="5.20212">
        <ele>352</ele>
        <time>2022-09-29T14:58:11Z</time>
      </trkpt>
      <trkpt lat="44.4067" lon="5.20211">
        <ele>352</ele>
        <time>2022-09-29T14:58:12Z</time>
      </trkpt>
      <trkpt lat="44.40671" lon="5.2021">
        <ele>352</ele>
        <time>2022-09-29T14:58:13Z</time>
      </trkpt>
      <trkpt lat="44.40673" lon="5.2021">
        <ele>352</ele>
        <time>2022-09-29T14:58:14Z</time>
      </trkpt>
      <trkpt lat="44.40674" lon="5.20209">
        <ele>352</ele>
        <time>2022-09-29T14:58:15Z</time>
      </trkpt>
      <trkpt lat="44.40676" lon="5.20208">
        <ele>352</ele>
        <time>2022-09-29T14:58:16Z</time>
      </trkpt>
      <trkpt lat="44.40677" lon="5.20208">
        <ele>352</ele>
        <time>2022-09-29T14:58:17Z</time>
      </trkpt>
      <trkpt lat="44.40678" lon="5.20207">
        <ele>352</ele>
        <time>2022-09-29T14:58:18Z</time>
      </trkpt>
      <trkpt lat="44.40679" lon="5.20206">
        <ele>352</ele>
        <time>2022-09-29T14:58:19Z</time>
      </trkpt>
      <trkpt lat="44.4068" lon="5.20206">
        <ele>352</ele>
        <time>2022-09-29T14:58:20Z</time>
      </trkpt>
      <trkpt lat="44.40681" lon="5.20205">
        <ele>352</ele>
        <time>2022-09-29T14:58:21Z</time>
      </trkpt>
      <trkpt lat="44.40682" lon="5.20204">
        <ele>352</ele>
        <time>2022-09-29T14:58:22Z</time>
      </trkpt>
      <trkpt lat="44.40683" lon="5.20203">
        <ele>352</ele>
        <time>2022-09-29T14:58:23Z</time>
      </trkpt>
      <trkpt lat="44.40684" lon="5.20203">
        <ele>352</ele>
        <time>2022-09-29T14:58:24Z</time>
      </trkpt>
      <trkpt lat="44.40685" lon="5.20202">
        <ele>352</ele>
        <time>2022-09-29T14:58:25Z</time>
      </trkpt>
      <trkpt lat="44.40686" lon="5.20201">
        <ele>352</ele>
        <time>2022-09-29T14:58:26Z</time>
      </trkpt>
      <trkpt lat="44.40688" lon="5.20201">
        <ele>352</ele>
        <time>2022-09-29T14:58:27Z</time>
      </trkpt>
      <trkpt lat="44.40689" lon="5.202">
        <ele>353</ele>
        <time>2022-09-29T14:58:28Z</time>
      </trkpt>
      <trkpt lat="44.4069" lon="5.202">
        <ele>353</ele>
        <time>2022-09-29T14:58:29Z</time>
      </trkpt>
      <trkpt lat="44.40691" lon="5.20199">
        <ele>353</ele>
        <time>2022-09-29T14:58:30Z</time>
      </trkpt>
      <trkpt lat="44.40692" lon="5.20199">
        <ele>353</ele>
        <time>2022-09-29T14:58:31Z</time>
      </trkpt>
      <trkpt lat="44.40693" lon="5.20198">
        <ele>353</ele>
        <time>2022-09-29T14:58:32Z</time>
      </trkpt>
      <trkpt lat="44.40694" lon="5.20197">
        <ele>353</ele>
        <time>2022-09-29T14:58:33Z</time>
      </trkpt>
      <trkpt lat="44.40695" lon="5.20197">
        <ele>353</ele>
        <time>2022-09-29T14:58:34Z</time>
      </trkpt>
      <trkpt lat="44.40696" lon="5.20196">
        <ele>353</ele>
        <time>2022-09-29T14:58:35Z</time>
      </trkpt>
      <trkpt lat="44.40697" lon="5.20196">
        <ele>353</ele>
        <time>2022-09-29T14:58:36Z</time>
      </trkpt>
      <trkpt lat="44.40699" lon="5.20195">
        <ele>353</ele>
        <time>2022-09-29T14:58:37Z</time>
      </trkpt>
      <trkpt lat="44.407" lon="5.20194">
        <ele>353</ele>
        <time>2022-09-29T14:58:38Z</time>
      </trkpt>
      <trkpt lat="44.40701" lon="5.20194">
        <ele>353</ele>
        <time>2022-09-29T14:58:39Z</time>
      </trkpt>
      <trkpt lat="44.40702" lon="5.20193">
        <ele>353</ele>
        <time>2022-09-29T14:58:40Z</time>
      </trkpt>
      <trkpt lat="44.40703" lon="5.20192">
        <ele>353</ele>
        <time>2022-09-29T14:58:41Z</time>
      </trkpt>
      <trkpt lat="44.40704" lon="5.20192">
        <ele>353</ele>
        <time>2022-09-29T14:58:42Z</time>
      </trkpt>
      <trkpt lat="44.40705" lon="5.20191">
        <ele>353</ele>
        <time>2022-09-29T14:58:43Z</time>
      </trkpt>
      <trkpt lat="44.40705" lon="5.2019">
        <ele>353</ele>
        <time>2022-09-29T14:58:44Z</time>
      </trkpt>
      <trkpt lat="44.40706" lon="5.2019">
        <ele>353</ele>
        <time>2022-09-29T14:58:45Z</time>
      </trkpt>
      <trkpt lat="44.40707" lon="5.20189">
        <ele>353</ele>
        <time>2022-09-29T14:58:46Z</time>
      </trkpt>
      <trkpt lat="44.40708" lon="5.20188">
        <ele>353</ele>
        <time>2022-09-29T14:58:47Z</time>
      </trkpt>
      <trkpt lat="44.40709" lon="5.20187">
        <ele>353</ele>
        <time>2022-09-29T14:58:48Z</time>
      </trkpt>
      <trkpt lat="44.40709" lon="5.20186">
        <ele>353</ele>
        <time>2022-09-29T14:58:49Z</time>
      </trkpt>
      <trkpt lat="44.4071" lon="5.20185">
        <ele>353</ele>
        <time>2022-09-29T14:58:50Z</time>
      </trkpt>
      <trkpt lat="44.40711" lon="5.20184">
        <ele>353</ele>
        <time>2022-09-29T14:58:51Z</time>
      </trkpt>
      <trkpt lat="44.40712" lon="5.20183">
        <ele>353</ele>
        <time>2022-09-29T14:58:52Z</time>
      </trkpt>
      <trkpt lat="44.40713" lon="5.20182">
        <ele>353</ele>
        <time>2022-09-29T14:58:53Z</time>
      </trkpt>
      <trkpt lat="44.40714" lon="5.20181">
        <ele>353</ele>
        <time>2022-09-29T14:58:54Z</time>
      </trkpt>
      <trkpt lat="44.40714" lon="5.2018">
        <ele>353</ele>
        <time>2022-09-29T14:58:55Z</time>
      </trkpt>
      <trkpt lat="44.40715" lon="5.20178">
        <ele>354</ele>
        <time>2022-09-29T14:59:05Z</time>
      </trkpt>
      <trkpt lat="44.40715" lon="5.20177">
        <ele>354</ele>
        <time>2022-09-29T14:59:06Z</time>
      </trkpt>
      <trkpt lat="44.40716" lon="5.20177">
        <ele>354</ele>
        <time>2022-09-29T14:59:07Z</time>
      </trkpt>
      <trkpt lat="44.40716" lon="5.20176">
        <ele>354</ele>
        <time>2022-09-29T14:59:08Z</time>
      </trkpt>
      <trkpt lat="44.40716" lon="5.20175">
        <ele>354</ele>
        <time>2022-09-29T14:59:09Z</time>
      </trkpt>
      <trkpt lat="44.40717" lon="5.20173">
        <ele>354</ele>
        <time>2022-09-29T14:59:10Z</time>
      </trkpt>
      <trkpt lat="44.40717" lon="5.20172">
        <ele>354</ele>
        <time>2022-09-29T14:59:11Z</time>
      </trkpt>
      <trkpt lat="44.40718" lon="5.2017">
        <ele>354</ele>
        <time>2022-09-29T14:59:12Z</time>
      </trkpt>
      <trkpt lat="44.40718" lon="5.20169">
        <ele>354</ele>
        <time>2022-09-29T14:59:13Z</time>
      </trkpt>
      <trkpt lat="44.40718" lon="5.20167">
        <ele>354</ele>
        <time>2022-09-29T14:59:14Z</time>
      </trkpt>
      <trkpt lat="44.40718" lon="5.20165">
        <ele>354</ele>
        <time>2022-09-29T14:59:15Z</time>
      </trkpt>
      <trkpt lat="44.40718" lon="5.20164">
        <ele>354</ele>
        <time>2022-09-29T14:59:16Z</time>
      </trkpt>
      <trkpt lat="44.40719" lon="5.20162">
        <ele>354</ele>
        <time>2022-09-29T14:59:17Z</time>
      </trkpt>
      <trkpt lat="44.40719" lon="5.20161">
        <ele>354</ele>
        <time>2022-09-29T14:59:18Z</time>
      </trkpt>
      <trkpt lat="44.40719" lon="5.20159">
        <ele>354</ele>
        <time>2022-09-29T14:59:19Z</time>
      </trkpt>
      <trkpt lat="44.40719" lon="5.20158">
        <ele>354</ele>
        <time>2022-09-29T14:59:20Z</time>
      </trkpt>
      <trkpt lat="44.40719" lon="5.20156">
        <ele>354</ele>
        <time>2022-09-29T14:59:21Z</time>
      </trkpt>
      <trkpt lat="44.40719" lon="5.20154">
        <ele>354</ele>
        <time>2022-09-29T14:59:22Z</time>
      </trkpt>
      <trkpt lat="44.40719" lon="5.20153">
        <ele>354</ele>
        <time>2022-09-29T14:59:23Z</time>
      </trkpt>
      <trkpt lat="44.40719" lon="5.20151">
        <ele>354</ele>
        <time>2022-09-29T14:59:24Z</time>
      </trkpt>
      <trkpt lat="44.40718" lon="5.2015">
        <ele>354</ele>
        <time>2022-09-29T14:59:25Z</time>
      </trkpt>
      <trkpt lat="44.40718" lon="5.20148">
        <ele>354</ele>
        <time>2022-09-29T14:59:26Z</time>
      </trkpt>
      <trkpt lat="44.40718" lon="5.20147">
        <ele>354</ele>
        <time>2022-09-29T14:59:27Z</time>
      </trkpt>
      <trkpt lat="44.40718" lon="5.20146">
        <ele>354</ele>
        <time>2022-09-29T14:59:28Z</time>
      </trkpt>
      <trkpt lat="44.40718" lon="5.20144">
        <ele>354</ele>
        <time>2022-09-29T14:59:29Z</time>
      </trkpt>
      <trkpt lat="44.40718" lon="5.20143">
        <ele>354</ele>
        <time>2022-09-29T14:59:30Z</time>
      </trkpt>
      <trkpt lat="44.40718" lon="5.20142">
        <ele>354</ele>
        <time>2022-09-29T14:59:31Z</time>
      </trkpt>
      <trkpt lat="44.40718" lon="5.20141">
        <ele>354</ele>
        <time>2022-09-29T14:59:32Z</time>
      </trkpt>
      <trkpt lat="44.40718" lon="5.20139">
        <ele>355</ele>
        <time>2022-09-29T14:59:33Z</time>
      </trkpt>
      <trkpt lat="44.40718" lon="5.20138">
        <ele>355</ele>
        <time>2022-09-29T14:59:34Z</time>
      </trkpt>
      <trkpt lat="44.40718" lon="5.20136">
        <ele>355</ele>
        <time>2022-09-29T14:59:35Z</time>
      </trkpt>
      <trkpt lat="44.40718" lon="5.20135">
        <ele>355</ele>
        <time>2022-09-29T14:59:36Z</time>
      </trkpt>
      <trkpt lat="44.40718" lon="5.20134">
        <ele>355</ele>
        <time>2022-09-29T14:59:37Z</time>
      </trkpt>
      <trkpt lat="44.40719" lon="5.20132">
        <ele>355</ele>
        <time>2022-09-29T14:59:38Z</time>
      </trkpt>
      <trkpt lat="44.40719" lon="5.20131">
        <ele>355</ele>
        <time>2022-09-29T14:59:39Z</time>
      </trkpt>
      <trkpt lat="44.40719" lon="5.2013">
        <ele>355</ele>
        <time>2022-09-29T14:59:40Z</time>
      </trkpt>
      <trkpt lat="44.40719" lon="5.20128">
        <ele>355</ele>
        <time>2022-09-29T14:59:41Z</time>
      </trkpt>
      <trkpt lat="44.4072" lon="5.20127">
        <ele>355</ele>
        <time>2022-09-29T14:59:42Z</time>
      </trkpt>
      <trkpt lat="44.4072" lon="5.20125">
        <ele>355</ele>
        <time>2022-09-29T14:59:43Z</time>
      </trkpt>
      <trkpt lat="44.4072" lon="5.20123">
        <ele>355</ele>
        <time>2022-09-29T14:59:44Z</time>
      </trkpt>
      <trkpt lat="44.4072" lon="5.20122">
        <ele>355</ele>
        <time>2022-09-29T14:59:45Z</time>
      </trkpt>
      <trkpt lat="44.4072" lon="5.2012">
        <ele>355</ele>
        <time>2022-09-29T14:59:46Z</time>
      </trkpt>
      <trkpt lat="44.4072" lon="5.20118">
        <ele>355</ele>
        <time>2022-09-29T14:59:47Z</time>
      </trkpt>
      <trkpt lat="44.4072" lon="5.20117">
        <ele>356</ele>
        <time>2022-09-29T14:59:48Z</time>
      </trkpt>
      <trkpt lat="44.4072" lon="5.20116">
        <ele>356</ele>
        <time>2022-09-29T14:59:49Z</time>
      </trkpt>
      <trkpt lat="44.4072" lon="5.20114">
        <ele>356</ele>
        <time>2022-09-29T14:59:50Z</time>
      </trkpt>
      <trkpt lat="44.4072" lon="5.20113">
        <ele>356</ele>
        <time>2022-09-29T14:59:51Z</time>
      </trkpt>
      <trkpt lat="44.4072" lon="5.20112">
        <ele>356</ele>
        <time>2022-09-29T14:59:52Z</time>
      </trkpt>
      <trkpt lat="44.4072" lon="5.2011">
        <ele>356</ele>
        <time>2022-09-29T14:59:53Z</time>
      </trkpt>
      <trkpt lat="44.4072" lon="5.20109">
        <ele>356</ele>
        <time>2022-09-29T14:59:54Z</time>
      </trkpt>
      <trkpt lat="44.40721" lon="5.20108">
        <ele>356</ele>
        <time>2022-09-29T14:59:55Z</time>
      </trkpt>
      <trkpt lat="44.40721" lon="5.20106">
        <ele>356</ele>
        <time>2022-09-29T14:59:56Z</time>
      </trkpt>
      <trkpt lat="44.40721" lon="5.20105">
        <ele>356</ele>
        <time>2022-09-29T14:59:57Z</time>
      </trkpt>
      <trkpt lat="44.40721" lon="5.20104">
        <ele>357</ele>
        <time>2022-09-29T14:59:58Z</time>
      </trkpt>
      <trkpt lat="44.40721" lon="5.20102">
        <ele>357</ele>
        <time>2022-09-29T14:59:59Z</time>
      </trkpt>
      <trkpt lat="44.40722" lon="5.20101">
        <ele>357</ele>
        <time>2022-09-29T15:00:00Z</time>
      </trkpt>
      <trkpt lat="44.40722" lon="5.201">
        <ele>357</ele>
        <time>2022-09-29T15:00:01Z</time>
      </trkpt>
      <trkpt lat="44.40723" lon="5.20099">
        <ele>357</ele>
        <time>2022-09-29T15:00:02Z</time>
      </trkpt>
      <trkpt lat="44.40723" lon="5.20097">
        <ele>357</ele>
        <time>2022-09-29T15:00:03Z</time>
      </trkpt>
      <trkpt lat="44.40724" lon="5.20096">
        <ele>357</ele>
        <time>2022-09-29T15:00:04Z</time>
      </trkpt>
      <trkpt lat="44.40725" lon="5.20095">
        <ele>357</ele>
        <time>2022-09-29T15:00:05Z</time>
      </trkpt>
      <trkpt lat="44.40725" lon="5.20093">
        <ele>357</ele>
        <time>2022-09-29T15:00:06Z</time>
      </trkpt>
      <trkpt lat="44.40726" lon="5.20092">
        <ele>357</ele>
        <time>2022-09-29T15:00:07Z</time>
      </trkpt>
      <trkpt lat="44.40727" lon="5.2009">
        <ele>358</ele>
        <time>2022-09-29T15:00:08Z</time>
      </trkpt>
      <trkpt lat="44.40728" lon="5.20089">
        <ele>358</ele>
        <time>2022-09-29T15:00:09Z</time>
      </trkpt>
      <trkpt lat="44.40729" lon="5.20088">
        <ele>358</ele>
        <time>2022-09-29T15:00:10Z</time>
      </trkpt>
      <trkpt lat="44.4073" lon="5.20086">
        <ele>358</ele>
        <time>2022-09-29T15:00:11Z</time>
      </trkpt>
      <trkpt lat="44.40731" lon="5.20085">
        <ele>358</ele>
        <time>2022-09-29T15:00:12Z</time>
      </trkpt>
      <trkpt lat="44.40731" lon="5.20084">
        <ele>358</ele>
        <time>2022-09-29T15:00:13Z</time>
      </trkpt>
      <trkpt lat="44.40732" lon="5.20083">
        <ele>358</ele>
        <time>2022-09-29T15:00:14Z</time>
      </trkpt>
      <trkpt lat="44.40733" lon="5.20082">
        <ele>358</ele>
        <time>2022-09-29T15:00:15Z</time>
      </trkpt>
      <trkpt lat="44.40733" lon="5.20081">
        <ele>358</ele>
        <time>2022-09-29T15:00:16Z</time>
      </trkpt>
      <trkpt lat="44.40734" lon="5.2008">
        <ele>358</ele>
        <time>2022-09-29T15:00:17Z</time>
      </trkpt>
      <trkpt lat="44.40734" lon="5.20079">
        <ele>359</ele>
        <time>2022-09-29T15:00:18Z</time>
      </trkpt>
      <trkpt lat="44.40734" lon="5.20078">
        <ele>359</ele>
        <time>2022-09-29T15:00:19Z</time>
      </trkpt>
      <trkpt lat="44.40734" lon="5.20077">
        <ele>359</ele>
        <time>2022-09-29T15:00:20Z</time>
      </trkpt>
      <trkpt lat="44.40734" lon="5.20076">
        <ele>359</ele>
        <time>2022-09-29T15:00:21Z</time>
      </trkpt>
      <trkpt lat="44.40733" lon="5.20075">
        <ele>359</ele>
        <time>2022-09-29T15:00:22Z</time>
      </trkpt>
      <trkpt lat="44.40732" lon="5.20075">
        <ele>359</ele>
        <time>2022-09-29T15:00:23Z</time>
      </trkpt>
    </trkseg>
  </trk>
</gpx>